<?xml version="1.0" encoding="UTF-8" standalone="no" ?>
<gpx xmlns="http://www.topografix.com/GPX/1/1" xmlns:xsi="http://www.w3.org/2001/XMLSchema-instance" xsi:schemaLocation="http://www.topografix.com/GPX/1/1 http://www.topografix.com/GPX/1/1/gpx.xsd" version="1.1" creator="VisuGPX - https://www.visugpx.com">
  <metadata>
    <name>4 fils Aymon 2022_06_06</name>
  </metadata>
  <trk>
    <name><![CDATA[4 fils Aymon 2022_06_06_1]]></name>
    <trkseg>
      <trkpt lat="49.75362" lon="4.82171">
        <ele>238</ele>
        <time>2022-06-06T06:55:56.000Z</time>
      </trkpt>
      <trkpt lat="49.75363" lon="4.82171">
        <ele>238</ele>
        <time>2022-06-06T06:55:57.000Z</time>
      </trkpt>
      <trkpt lat="49.75364" lon="4.8217">
        <ele>238</ele>
        <time>2022-06-06T06:55:58.000Z</time>
      </trkpt>
      <trkpt lat="49.75365" lon="4.82167">
        <ele>238</ele>
        <time>2022-06-06T06:55:59.000Z</time>
      </trkpt>
      <trkpt lat="49.75367" lon="4.82164">
        <ele>238</ele>
        <time>2022-06-06T06:56:00.000Z</time>
      </trkpt>
      <trkpt lat="49.7537" lon="4.82161">
        <ele>238</ele>
        <time>2022-06-06T06:56:01.000Z</time>
      </trkpt>
      <trkpt lat="49.75372" lon="4.82161">
        <ele>238</ele>
        <time>2022-06-06T06:56:02.000Z</time>
      </trkpt>
      <trkpt lat="49.75376" lon="4.82161">
        <ele>236</ele>
        <time>2022-06-06T06:56:03.000Z</time>
      </trkpt>
      <trkpt lat="49.7538" lon="4.82162">
        <ele>235</ele>
        <time>2022-06-06T06:56:04.000Z</time>
      </trkpt>
      <trkpt lat="49.75384" lon="4.82164">
        <ele>233</ele>
        <time>2022-06-06T06:56:05.000Z</time>
      </trkpt>
      <trkpt lat="49.75388" lon="4.82167">
        <ele>231</ele>
        <time>2022-06-06T06:56:06.000Z</time>
      </trkpt>
      <trkpt lat="49.75393" lon="4.82171">
        <ele>229</ele>
        <time>2022-06-06T06:56:07.000Z</time>
      </trkpt>
      <trkpt lat="49.75398" lon="4.82174">
        <ele>227</ele>
        <time>2022-06-06T06:56:08.000Z</time>
      </trkpt>
      <trkpt lat="49.75404" lon="4.82177">
        <ele>225</ele>
        <time>2022-06-06T06:56:09.000Z</time>
      </trkpt>
      <trkpt lat="49.75409" lon="4.8218">
        <ele>223</ele>
        <time>2022-06-06T06:56:10.000Z</time>
      </trkpt>
      <trkpt lat="49.75415" lon="4.82184">
        <ele>221</ele>
        <time>2022-06-06T06:56:11.000Z</time>
      </trkpt>
      <trkpt lat="49.7542" lon="4.82189">
        <ele>219</ele>
        <time>2022-06-06T06:56:12.000Z</time>
      </trkpt>
      <trkpt lat="49.75424" lon="4.82196">
        <ele>217</ele>
        <time>2022-06-06T06:56:13.000Z</time>
      </trkpt>
      <trkpt lat="49.75429" lon="4.82202">
        <ele>216</ele>
        <time>2022-06-06T06:56:14.000Z</time>
      </trkpt>
      <trkpt lat="49.75434" lon="4.82205">
        <ele>214</ele>
        <time>2022-06-06T06:56:15.000Z</time>
      </trkpt>
      <trkpt lat="49.7544" lon="4.82206">
        <ele>212</ele>
        <time>2022-06-06T06:56:16.000Z</time>
      </trkpt>
      <trkpt lat="49.75446" lon="4.82208">
        <ele>211</ele>
        <time>2022-06-06T06:56:17.000Z</time>
      </trkpt>
      <trkpt lat="49.75451" lon="4.82212">
        <ele>210</ele>
        <time>2022-06-06T06:56:18.000Z</time>
      </trkpt>
      <trkpt lat="49.75457" lon="4.82218">
        <ele>208</ele>
        <time>2022-06-06T06:56:19.000Z</time>
      </trkpt>
      <trkpt lat="49.75462" lon="4.82225">
        <ele>207</ele>
        <time>2022-06-06T06:56:20.000Z</time>
      </trkpt>
      <trkpt lat="49.75467" lon="4.82231">
        <ele>206</ele>
        <time>2022-06-06T06:56:21.000Z</time>
      </trkpt>
      <trkpt lat="49.75473" lon="4.82237">
        <ele>205</ele>
        <time>2022-06-06T06:56:22.000Z</time>
      </trkpt>
      <trkpt lat="49.75478" lon="4.82243">
        <ele>204</ele>
        <time>2022-06-06T06:56:23.000Z</time>
      </trkpt>
      <trkpt lat="49.75484" lon="4.82247">
        <ele>203</ele>
        <time>2022-06-06T06:56:24.000Z</time>
      </trkpt>
      <trkpt lat="49.7549" lon="4.82251">
        <ele>202</ele>
        <time>2022-06-06T06:56:25.000Z</time>
      </trkpt>
      <trkpt lat="49.75496" lon="4.82255">
        <ele>201</ele>
        <time>2022-06-06T06:56:26.000Z</time>
      </trkpt>
      <trkpt lat="49.75502" lon="4.82259">
        <ele>200</ele>
        <time>2022-06-06T06:56:27.000Z</time>
      </trkpt>
      <trkpt lat="49.75508" lon="4.82262">
        <ele>199</ele>
        <time>2022-06-06T06:56:28.000Z</time>
      </trkpt>
      <trkpt lat="49.75515" lon="4.82266">
        <ele>198</ele>
        <time>2022-06-06T06:56:29.000Z</time>
      </trkpt>
      <trkpt lat="49.7552" lon="4.82269">
        <ele>197</ele>
        <time>2022-06-06T06:56:30.000Z</time>
      </trkpt>
      <trkpt lat="49.75527" lon="4.82272">
        <ele>197</ele>
        <time>2022-06-06T06:56:31.000Z</time>
      </trkpt>
      <trkpt lat="49.75532" lon="4.82271">
        <ele>196</ele>
        <time>2022-06-06T06:56:32.000Z</time>
      </trkpt>
      <trkpt lat="49.75537" lon="4.82267">
        <ele>195</ele>
        <time>2022-06-06T06:56:33.000Z</time>
      </trkpt>
      <trkpt lat="49.75541" lon="4.82262">
        <ele>195</ele>
        <time>2022-06-06T06:56:34.000Z</time>
      </trkpt>
      <trkpt lat="49.75543" lon="4.82257">
        <ele>194</ele>
        <time>2022-06-06T06:56:35.000Z</time>
      </trkpt>
      <trkpt lat="49.75545" lon="4.8225">
        <ele>193</ele>
        <time>2022-06-06T06:56:36.000Z</time>
      </trkpt>
      <trkpt lat="49.75546" lon="4.82244">
        <ele>193</ele>
        <time>2022-06-06T06:56:37.000Z</time>
      </trkpt>
      <trkpt lat="49.75545" lon="4.82237">
        <ele>192</ele>
        <time>2022-06-06T06:56:38.000Z</time>
      </trkpt>
      <trkpt lat="49.75542" lon="4.82232">
        <ele>192</ele>
        <time>2022-06-06T06:56:39.000Z</time>
      </trkpt>
      <trkpt lat="49.75539" lon="4.82226">
        <ele>191</ele>
        <time>2022-06-06T06:56:40.000Z</time>
      </trkpt>
      <trkpt lat="49.75536" lon="4.82221">
        <ele>191</ele>
        <time>2022-06-06T06:56:41.000Z</time>
      </trkpt>
      <trkpt lat="49.75533" lon="4.82215">
        <ele>191</ele>
        <time>2022-06-06T06:56:42.000Z</time>
      </trkpt>
      <trkpt lat="49.75529" lon="4.82209">
        <ele>190</ele>
        <time>2022-06-06T06:56:43.000Z</time>
      </trkpt>
      <trkpt lat="49.75526" lon="4.82202">
        <ele>190</ele>
        <time>2022-06-06T06:56:44.000Z</time>
      </trkpt>
      <trkpt lat="49.75523" lon="4.82196">
        <ele>190</ele>
        <time>2022-06-06T06:56:45.000Z</time>
      </trkpt>
      <trkpt lat="49.7552" lon="4.82189">
        <ele>190</ele>
        <time>2022-06-06T06:56:46.000Z</time>
      </trkpt>
      <trkpt lat="49.75516" lon="4.82183">
        <ele>190</ele>
        <time>2022-06-06T06:56:47.000Z</time>
      </trkpt>
      <trkpt lat="49.75512" lon="4.82176">
        <ele>189</ele>
        <time>2022-06-06T06:56:48.000Z</time>
      </trkpt>
      <trkpt lat="49.75509" lon="4.8217">
        <ele>189</ele>
        <time>2022-06-06T06:56:49.000Z</time>
      </trkpt>
      <trkpt lat="49.75505" lon="4.82163">
        <ele>189</ele>
        <time>2022-06-06T06:56:50.000Z</time>
      </trkpt>
      <trkpt lat="49.75501" lon="4.82157">
        <ele>189</ele>
        <time>2022-06-06T06:56:51.000Z</time>
      </trkpt>
      <trkpt lat="49.75497" lon="4.8215">
        <ele>189</ele>
        <time>2022-06-06T06:56:52.000Z</time>
      </trkpt>
      <trkpt lat="49.75493" lon="4.82144">
        <ele>189</ele>
        <time>2022-06-06T06:56:53.000Z</time>
      </trkpt>
      <trkpt lat="49.75489" lon="4.82138">
        <ele>189</ele>
        <time>2022-06-06T06:56:54.000Z</time>
      </trkpt>
      <trkpt lat="49.75485" lon="4.82132">
        <ele>188</ele>
        <time>2022-06-06T06:56:55.000Z</time>
      </trkpt>
      <trkpt lat="49.75481" lon="4.82126">
        <ele>188</ele>
        <time>2022-06-06T06:56:56.000Z</time>
      </trkpt>
      <trkpt lat="49.75477" lon="4.8212">
        <ele>188</ele>
        <time>2022-06-06T06:56:57.000Z</time>
      </trkpt>
      <trkpt lat="49.75473" lon="4.82114">
        <ele>188</ele>
        <time>2022-06-06T06:56:58.000Z</time>
      </trkpt>
      <trkpt lat="49.75469" lon="4.82108">
        <ele>188</ele>
        <time>2022-06-06T06:56:59.000Z</time>
      </trkpt>
      <trkpt lat="49.75465" lon="4.82103">
        <ele>188</ele>
        <time>2022-06-06T06:57:00.000Z</time>
      </trkpt>
      <trkpt lat="49.75461" lon="4.82098">
        <ele>188</ele>
        <time>2022-06-06T06:57:01.000Z</time>
      </trkpt>
      <trkpt lat="49.75456" lon="4.82093">
        <ele>188</ele>
        <time>2022-06-06T06:57:02.000Z</time>
      </trkpt>
      <trkpt lat="49.75452" lon="4.82089">
        <ele>188</ele>
        <time>2022-06-06T06:57:03.000Z</time>
      </trkpt>
      <trkpt lat="49.75447" lon="4.82085">
        <ele>188</ele>
        <time>2022-06-06T06:57:04.000Z</time>
      </trkpt>
      <trkpt lat="49.75442" lon="4.82081">
        <ele>188</ele>
        <time>2022-06-06T06:57:05.000Z</time>
      </trkpt>
      <trkpt lat="49.75438" lon="4.82076">
        <ele>188</ele>
        <time>2022-06-06T06:57:06.000Z</time>
      </trkpt>
      <trkpt lat="49.75433" lon="4.82071">
        <ele>188</ele>
        <time>2022-06-06T06:57:07.000Z</time>
      </trkpt>
      <trkpt lat="49.75428" lon="4.82067">
        <ele>188</ele>
        <time>2022-06-06T06:57:08.000Z</time>
      </trkpt>
      <trkpt lat="49.75424" lon="4.82062">
        <ele>188</ele>
        <time>2022-06-06T06:57:09.000Z</time>
      </trkpt>
      <trkpt lat="49.75419" lon="4.82057">
        <ele>188</ele>
        <time>2022-06-06T06:57:10.000Z</time>
      </trkpt>
      <trkpt lat="49.75415" lon="4.82052">
        <ele>188</ele>
        <time>2022-06-06T06:57:11.000Z</time>
      </trkpt>
      <trkpt lat="49.7541" lon="4.82047">
        <ele>188</ele>
        <time>2022-06-06T06:57:12.000Z</time>
      </trkpt>
      <trkpt lat="49.75406" lon="4.82043">
        <ele>188</ele>
        <time>2022-06-06T06:57:13.000Z</time>
      </trkpt>
      <trkpt lat="49.75401" lon="4.82039">
        <ele>189</ele>
        <time>2022-06-06T06:57:14.000Z</time>
      </trkpt>
      <trkpt lat="49.75396" lon="4.82035">
        <ele>189</ele>
        <time>2022-06-06T06:57:15.000Z</time>
      </trkpt>
      <trkpt lat="49.75391" lon="4.82031">
        <ele>189</ele>
        <time>2022-06-06T06:57:16.000Z</time>
      </trkpt>
      <trkpt lat="49.75387" lon="4.82027">
        <ele>189</ele>
        <time>2022-06-06T06:57:17.000Z</time>
      </trkpt>
      <trkpt lat="49.75382" lon="4.82024">
        <ele>189</ele>
        <time>2022-06-06T06:57:18.000Z</time>
      </trkpt>
      <trkpt lat="49.75377" lon="4.82021">
        <ele>189</ele>
        <time>2022-06-06T06:57:19.000Z</time>
      </trkpt>
      <trkpt lat="49.75372" lon="4.82019">
        <ele>189</ele>
        <time>2022-06-06T06:57:20.000Z</time>
      </trkpt>
      <trkpt lat="49.75367" lon="4.82017">
        <ele>189</ele>
        <time>2022-06-06T06:57:21.000Z</time>
      </trkpt>
      <trkpt lat="49.75362" lon="4.82014">
        <ele>189</ele>
        <time>2022-06-06T06:57:22.000Z</time>
      </trkpt>
      <trkpt lat="49.75357" lon="4.82012">
        <ele>190</ele>
        <time>2022-06-06T06:57:23.000Z</time>
      </trkpt>
      <trkpt lat="49.75352" lon="4.82009">
        <ele>190</ele>
        <time>2022-06-06T06:57:24.000Z</time>
      </trkpt>
      <trkpt lat="49.75348" lon="4.82006">
        <ele>190</ele>
        <time>2022-06-06T06:57:25.000Z</time>
      </trkpt>
      <trkpt lat="49.75344" lon="4.82004">
        <ele>190</ele>
        <time>2022-06-06T06:57:26.000Z</time>
      </trkpt>
      <trkpt lat="49.7534" lon="4.82002">
        <ele>190</ele>
        <time>2022-06-06T06:57:27.000Z</time>
      </trkpt>
      <trkpt lat="49.75336" lon="4.81999">
        <ele>190</ele>
        <time>2022-06-06T06:57:28.000Z</time>
      </trkpt>
      <trkpt lat="49.75332" lon="4.81997">
        <ele>191</ele>
        <time>2022-06-06T06:57:29.000Z</time>
      </trkpt>
      <trkpt lat="49.75327" lon="4.81994">
        <ele>191</ele>
        <time>2022-06-06T06:57:30.000Z</time>
      </trkpt>
      <trkpt lat="49.75323" lon="4.81991">
        <ele>191</ele>
        <time>2022-06-06T06:57:31.000Z</time>
      </trkpt>
      <trkpt lat="49.75319" lon="4.81989">
        <ele>191</ele>
        <time>2022-06-06T06:57:32.000Z</time>
      </trkpt>
      <trkpt lat="49.75316" lon="4.81987">
        <ele>191</ele>
        <time>2022-06-06T06:57:33.000Z</time>
      </trkpt>
      <trkpt lat="49.75312" lon="4.81984">
        <ele>191</ele>
        <time>2022-06-06T06:57:34.000Z</time>
      </trkpt>
      <trkpt lat="49.75309" lon="4.81982">
        <ele>191</ele>
        <time>2022-06-06T06:57:35.000Z</time>
      </trkpt>
      <trkpt lat="49.75305" lon="4.8198">
        <ele>191</ele>
        <time>2022-06-06T06:57:36.000Z</time>
      </trkpt>
      <trkpt lat="49.75302" lon="4.81978">
        <ele>191</ele>
        <time>2022-06-06T06:57:37.000Z</time>
      </trkpt>
      <trkpt lat="49.75299" lon="4.81975">
        <ele>191</ele>
        <time>2022-06-06T06:57:38.000Z</time>
      </trkpt>
      <trkpt lat="49.75295" lon="4.81973">
        <ele>192</ele>
        <time>2022-06-06T06:57:39.000Z</time>
      </trkpt>
      <trkpt lat="49.75292" lon="4.8197">
        <ele>192</ele>
        <time>2022-06-06T06:57:40.000Z</time>
      </trkpt>
      <trkpt lat="49.75288" lon="4.81967">
        <ele>192</ele>
        <time>2022-06-06T06:57:41.000Z</time>
      </trkpt>
      <trkpt lat="49.75285" lon="4.81965">
        <ele>192</ele>
        <time>2022-06-06T06:57:42.000Z</time>
      </trkpt>
      <trkpt lat="49.75281" lon="4.81963">
        <ele>192</ele>
        <time>2022-06-06T06:57:43.000Z</time>
      </trkpt>
      <trkpt lat="49.75278" lon="4.81959">
        <ele>192</ele>
        <time>2022-06-06T06:57:44.000Z</time>
      </trkpt>
      <trkpt lat="49.75275" lon="4.81956">
        <ele>192</ele>
        <time>2022-06-06T06:57:45.000Z</time>
      </trkpt>
      <trkpt lat="49.75271" lon="4.81953">
        <ele>192</ele>
        <time>2022-06-06T06:57:46.000Z</time>
      </trkpt>
      <trkpt lat="49.75268" lon="4.81951">
        <ele>192</ele>
        <time>2022-06-06T06:57:47.000Z</time>
      </trkpt>
      <trkpt lat="49.75264" lon="4.81948">
        <ele>193</ele>
        <time>2022-06-06T06:57:48.000Z</time>
      </trkpt>
      <trkpt lat="49.75261" lon="4.81944">
        <ele>193</ele>
        <time>2022-06-06T06:57:49.000Z</time>
      </trkpt>
      <trkpt lat="49.75258" lon="4.8194">
        <ele>193</ele>
        <time>2022-06-06T06:57:50.000Z</time>
      </trkpt>
      <trkpt lat="49.75255" lon="4.81936">
        <ele>193</ele>
        <time>2022-06-06T06:57:51.000Z</time>
      </trkpt>
      <trkpt lat="49.75252" lon="4.81932">
        <ele>193</ele>
        <time>2022-06-06T06:57:52.000Z</time>
      </trkpt>
      <trkpt lat="49.75249" lon="4.81927">
        <ele>193</ele>
        <time>2022-06-06T06:57:53.000Z</time>
      </trkpt>
      <trkpt lat="49.75247" lon="4.81922">
        <ele>194</ele>
        <time>2022-06-06T06:57:54.000Z</time>
      </trkpt>
      <trkpt lat="49.75244" lon="4.81918">
        <ele>194</ele>
        <time>2022-06-06T06:57:55.000Z</time>
      </trkpt>
      <trkpt lat="49.75241" lon="4.81914">
        <ele>194</ele>
        <time>2022-06-06T06:57:56.000Z</time>
      </trkpt>
      <trkpt lat="49.75237" lon="4.8191">
        <ele>194</ele>
        <time>2022-06-06T06:57:57.000Z</time>
      </trkpt>
      <trkpt lat="49.75234" lon="4.81906">
        <ele>194</ele>
        <time>2022-06-06T06:57:58.000Z</time>
      </trkpt>
      <trkpt lat="49.75231" lon="4.81902">
        <ele>194</ele>
        <time>2022-06-06T06:57:59.000Z</time>
      </trkpt>
      <trkpt lat="49.75228" lon="4.81898">
        <ele>195</ele>
        <time>2022-06-06T06:58:00.000Z</time>
      </trkpt>
      <trkpt lat="49.75225" lon="4.81894">
        <ele>195</ele>
        <time>2022-06-06T06:58:01.000Z</time>
      </trkpt>
      <trkpt lat="49.75222" lon="4.8189">
        <ele>195</ele>
        <time>2022-06-06T06:58:02.000Z</time>
      </trkpt>
      <trkpt lat="49.75219" lon="4.81886">
        <ele>195</ele>
        <time>2022-06-06T06:58:03.000Z</time>
      </trkpt>
      <trkpt lat="49.75215" lon="4.81882">
        <ele>195</ele>
        <time>2022-06-06T06:58:04.000Z</time>
      </trkpt>
      <trkpt lat="49.75212" lon="4.81878">
        <ele>195</ele>
        <time>2022-06-06T06:58:05.000Z</time>
      </trkpt>
      <trkpt lat="49.75209" lon="4.81873">
        <ele>195</ele>
        <time>2022-06-06T06:58:06.000Z</time>
      </trkpt>
      <trkpt lat="49.75205" lon="4.81869">
        <ele>196</ele>
        <time>2022-06-06T06:58:07.000Z</time>
      </trkpt>
      <trkpt lat="49.75202" lon="4.81865">
        <ele>196</ele>
        <time>2022-06-06T06:58:08.000Z</time>
      </trkpt>
      <trkpt lat="49.75198" lon="4.8186">
        <ele>196</ele>
        <time>2022-06-06T06:58:09.000Z</time>
      </trkpt>
      <trkpt lat="49.75195" lon="4.81856">
        <ele>196</ele>
        <time>2022-06-06T06:58:10.000Z</time>
      </trkpt>
      <trkpt lat="49.75192" lon="4.81851">
        <ele>196</ele>
        <time>2022-06-06T06:58:11.000Z</time>
      </trkpt>
      <trkpt lat="49.75189" lon="4.81846">
        <ele>196</ele>
        <time>2022-06-06T06:58:12.000Z</time>
      </trkpt>
      <trkpt lat="49.75186" lon="4.81841">
        <ele>196</ele>
        <time>2022-06-06T06:58:13.000Z</time>
      </trkpt>
      <trkpt lat="49.75183" lon="4.81836">
        <ele>196</ele>
        <time>2022-06-06T06:58:14.000Z</time>
      </trkpt>
      <trkpt lat="49.7518" lon="4.81831">
        <ele>196</ele>
        <time>2022-06-06T06:58:15.000Z</time>
      </trkpt>
      <trkpt lat="49.75177" lon="4.81825">
        <ele>196</ele>
        <time>2022-06-06T06:58:16.000Z</time>
      </trkpt>
      <trkpt lat="49.75174" lon="4.8182">
        <ele>197</ele>
        <time>2022-06-06T06:58:17.000Z</time>
      </trkpt>
      <trkpt lat="49.75171" lon="4.81815">
        <ele>197</ele>
        <time>2022-06-06T06:58:18.000Z</time>
      </trkpt>
      <trkpt lat="49.75168" lon="4.8181">
        <ele>197</ele>
        <time>2022-06-06T06:58:19.000Z</time>
      </trkpt>
      <trkpt lat="49.75165" lon="4.81805">
        <ele>197</ele>
        <time>2022-06-06T06:58:20.000Z</time>
      </trkpt>
      <trkpt lat="49.75163" lon="4.818">
        <ele>197</ele>
        <time>2022-06-06T06:58:21.000Z</time>
      </trkpt>
      <trkpt lat="49.7516" lon="4.81796">
        <ele>197</ele>
        <time>2022-06-06T06:58:22.000Z</time>
      </trkpt>
      <trkpt lat="49.75157" lon="4.81791">
        <ele>197</ele>
        <time>2022-06-06T06:58:23.000Z</time>
      </trkpt>
      <trkpt lat="49.75154" lon="4.81785">
        <ele>197</ele>
        <time>2022-06-06T06:58:24.000Z</time>
      </trkpt>
      <trkpt lat="49.75151" lon="4.8178">
        <ele>197</ele>
        <time>2022-06-06T06:58:25.000Z</time>
      </trkpt>
      <trkpt lat="49.75148" lon="4.81775">
        <ele>197</ele>
        <time>2022-06-06T06:58:26.000Z</time>
      </trkpt>
      <trkpt lat="49.75145" lon="4.8177">
        <ele>197</ele>
        <time>2022-06-06T06:58:27.000Z</time>
      </trkpt>
      <trkpt lat="49.75142" lon="4.81765">
        <ele>197</ele>
        <time>2022-06-06T06:58:28.000Z</time>
      </trkpt>
      <trkpt lat="49.7514" lon="4.8176">
        <ele>197</ele>
        <time>2022-06-06T06:58:29.000Z</time>
      </trkpt>
      <trkpt lat="49.75138" lon="4.81755">
        <ele>197</ele>
        <time>2022-06-06T06:58:30.000Z</time>
      </trkpt>
      <trkpt lat="49.75136" lon="4.81749">
        <ele>197</ele>
        <time>2022-06-06T06:58:31.000Z</time>
      </trkpt>
      <trkpt lat="49.75134" lon="4.81743">
        <ele>197</ele>
        <time>2022-06-06T06:58:32.000Z</time>
      </trkpt>
      <trkpt lat="49.75132" lon="4.81736">
        <ele>197</ele>
        <time>2022-06-06T06:58:33.000Z</time>
      </trkpt>
      <trkpt lat="49.7513" lon="4.8173">
        <ele>197</ele>
        <time>2022-06-06T06:58:34.000Z</time>
      </trkpt>
      <trkpt lat="49.75127" lon="4.81723">
        <ele>198</ele>
        <time>2022-06-06T06:58:35.000Z</time>
      </trkpt>
      <trkpt lat="49.75125" lon="4.81716">
        <ele>198</ele>
        <time>2022-06-06T06:58:36.000Z</time>
      </trkpt>
      <trkpt lat="49.75122" lon="4.8171">
        <ele>198</ele>
        <time>2022-06-06T06:58:37.000Z</time>
      </trkpt>
      <trkpt lat="49.7512" lon="4.81703">
        <ele>198</ele>
        <time>2022-06-06T06:58:38.000Z</time>
      </trkpt>
      <trkpt lat="49.75118" lon="4.81696">
        <ele>198</ele>
        <time>2022-06-06T06:58:39.000Z</time>
      </trkpt>
      <trkpt lat="49.75116" lon="4.81689">
        <ele>198</ele>
        <time>2022-06-06T06:58:40.000Z</time>
      </trkpt>
      <trkpt lat="49.75115" lon="4.81681">
        <ele>199</ele>
        <time>2022-06-06T06:58:41.000Z</time>
      </trkpt>
      <trkpt lat="49.75114" lon="4.81674">
        <ele>199</ele>
        <time>2022-06-06T06:58:42.000Z</time>
      </trkpt>
      <trkpt lat="49.75114" lon="4.81666">
        <ele>199</ele>
        <time>2022-06-06T06:58:43.000Z</time>
      </trkpt>
      <trkpt lat="49.75113" lon="4.81658">
        <ele>199</ele>
        <time>2022-06-06T06:58:44.000Z</time>
      </trkpt>
      <trkpt lat="49.75113" lon="4.81651">
        <ele>199</ele>
        <time>2022-06-06T06:58:45.000Z</time>
      </trkpt>
      <trkpt lat="49.75112" lon="4.81643">
        <ele>199</ele>
        <time>2022-06-06T06:58:46.000Z</time>
      </trkpt>
      <trkpt lat="49.75112" lon="4.81635">
        <ele>199</ele>
        <time>2022-06-06T06:58:47.000Z</time>
      </trkpt>
      <trkpt lat="49.75112" lon="4.81627">
        <ele>199</ele>
        <time>2022-06-06T06:58:48.000Z</time>
      </trkpt>
      <trkpt lat="49.75112" lon="4.81619">
        <ele>199</ele>
        <time>2022-06-06T06:58:49.000Z</time>
      </trkpt>
      <trkpt lat="49.75112" lon="4.81611">
        <ele>199</ele>
        <time>2022-06-06T06:58:50.000Z</time>
      </trkpt>
      <trkpt lat="49.75112" lon="4.81603">
        <ele>200</ele>
        <time>2022-06-06T06:58:51.000Z</time>
      </trkpt>
      <trkpt lat="49.75112" lon="4.81595">
        <ele>200</ele>
        <time>2022-06-06T06:58:52.000Z</time>
      </trkpt>
      <trkpt lat="49.75112" lon="4.81588">
        <ele>200</ele>
        <time>2022-06-06T06:58:53.000Z</time>
      </trkpt>
      <trkpt lat="49.75112" lon="4.81581">
        <ele>200</ele>
        <time>2022-06-06T06:58:54.000Z</time>
      </trkpt>
      <trkpt lat="49.75113" lon="4.81574">
        <ele>200</ele>
        <time>2022-06-06T06:58:55.000Z</time>
      </trkpt>
      <trkpt lat="49.75113" lon="4.81567">
        <ele>200</ele>
        <time>2022-06-06T06:58:56.000Z</time>
      </trkpt>
      <trkpt lat="49.75114" lon="4.81559">
        <ele>200</ele>
        <time>2022-06-06T06:58:57.000Z</time>
      </trkpt>
      <trkpt lat="49.75114" lon="4.81552">
        <ele>200</ele>
        <time>2022-06-06T06:58:58.000Z</time>
      </trkpt>
      <trkpt lat="49.75116" lon="4.81545">
        <ele>200</ele>
        <time>2022-06-06T06:58:59.000Z</time>
      </trkpt>
      <trkpt lat="49.75117" lon="4.81538">
        <ele>200</ele>
        <time>2022-06-06T06:59:00.000Z</time>
      </trkpt>
      <trkpt lat="49.75118" lon="4.8153">
        <ele>200</ele>
        <time>2022-06-06T06:59:01.000Z</time>
      </trkpt>
      <trkpt lat="49.75119" lon="4.81523">
        <ele>201</ele>
        <time>2022-06-06T06:59:02.000Z</time>
      </trkpt>
      <trkpt lat="49.75121" lon="4.81516">
        <ele>201</ele>
        <time>2022-06-06T06:59:03.000Z</time>
      </trkpt>
      <trkpt lat="49.75122" lon="4.81508">
        <ele>201</ele>
        <time>2022-06-06T06:59:04.000Z</time>
      </trkpt>
      <trkpt lat="49.75124" lon="4.81501">
        <ele>201</ele>
        <time>2022-06-06T06:59:05.000Z</time>
      </trkpt>
      <trkpt lat="49.75126" lon="4.81494">
        <ele>201</ele>
        <time>2022-06-06T06:59:06.000Z</time>
      </trkpt>
      <trkpt lat="49.75127" lon="4.81488">
        <ele>201</ele>
        <time>2022-06-06T06:59:07.000Z</time>
      </trkpt>
      <trkpt lat="49.75129" lon="4.81481">
        <ele>201</ele>
        <time>2022-06-06T06:59:08.000Z</time>
      </trkpt>
      <trkpt lat="49.75131" lon="4.81475">
        <ele>202</ele>
        <time>2022-06-06T06:59:09.000Z</time>
      </trkpt>
      <trkpt lat="49.75132" lon="4.81469">
        <ele>202</ele>
        <time>2022-06-06T06:59:10.000Z</time>
      </trkpt>
      <trkpt lat="49.75134" lon="4.81463">
        <ele>202</ele>
        <time>2022-06-06T06:59:11.000Z</time>
      </trkpt>
      <trkpt lat="49.75135" lon="4.81457">
        <ele>202</ele>
        <time>2022-06-06T06:59:12.000Z</time>
      </trkpt>
      <trkpt lat="49.75136" lon="4.81451">
        <ele>202</ele>
        <time>2022-06-06T06:59:13.000Z</time>
      </trkpt>
      <trkpt lat="49.75138" lon="4.81445">
        <ele>202</ele>
        <time>2022-06-06T06:59:14.000Z</time>
      </trkpt>
      <trkpt lat="49.75139" lon="4.81439">
        <ele>202</ele>
        <time>2022-06-06T06:59:15.000Z</time>
      </trkpt>
      <trkpt lat="49.7514" lon="4.81434">
        <ele>202</ele>
        <time>2022-06-06T06:59:16.000Z</time>
      </trkpt>
      <trkpt lat="49.75141" lon="4.81429">
        <ele>202</ele>
        <time>2022-06-06T06:59:17.000Z</time>
      </trkpt>
      <trkpt lat="49.75142" lon="4.81424">
        <ele>202</ele>
        <time>2022-06-06T06:59:18.000Z</time>
      </trkpt>
      <trkpt lat="49.75143" lon="4.81418">
        <ele>202</ele>
        <time>2022-06-06T06:59:19.000Z</time>
      </trkpt>
      <trkpt lat="49.75143" lon="4.81413">
        <ele>202</ele>
        <time>2022-06-06T06:59:20.000Z</time>
      </trkpt>
      <trkpt lat="49.75144" lon="4.81408">
        <ele>202</ele>
        <time>2022-06-06T06:59:21.000Z</time>
      </trkpt>
      <trkpt lat="49.75145" lon="4.81403">
        <ele>202</ele>
        <time>2022-06-06T06:59:22.000Z</time>
      </trkpt>
      <trkpt lat="49.75145" lon="4.81397">
        <ele>202</ele>
        <time>2022-06-06T06:59:23.000Z</time>
      </trkpt>
      <trkpt lat="49.75146" lon="4.81392">
        <ele>203</ele>
        <time>2022-06-06T06:59:24.000Z</time>
      </trkpt>
      <trkpt lat="49.75146" lon="4.81387">
        <ele>203</ele>
        <time>2022-06-06T06:59:25.000Z</time>
      </trkpt>
      <trkpt lat="49.75147" lon="4.81382">
        <ele>203</ele>
        <time>2022-06-06T06:59:26.000Z</time>
      </trkpt>
      <trkpt lat="49.75147" lon="4.81377">
        <ele>203</ele>
        <time>2022-06-06T06:59:27.000Z</time>
      </trkpt>
      <trkpt lat="49.75147" lon="4.81372">
        <ele>203</ele>
        <time>2022-06-06T06:59:28.000Z</time>
      </trkpt>
      <trkpt lat="49.75148" lon="4.81367">
        <ele>203</ele>
        <time>2022-06-06T06:59:29.000Z</time>
      </trkpt>
      <trkpt lat="49.75148" lon="4.81363">
        <ele>203</ele>
        <time>2022-06-06T06:59:30.000Z</time>
      </trkpt>
      <trkpt lat="49.75149" lon="4.81358">
        <ele>203</ele>
        <time>2022-06-06T06:59:31.000Z</time>
      </trkpt>
      <trkpt lat="49.75149" lon="4.81354">
        <ele>203</ele>
        <time>2022-06-06T06:59:32.000Z</time>
      </trkpt>
      <trkpt lat="49.75149" lon="4.81349">
        <ele>203</ele>
        <time>2022-06-06T06:59:33.000Z</time>
      </trkpt>
      <trkpt lat="49.75149" lon="4.81344">
        <ele>204</ele>
        <time>2022-06-06T06:59:34.000Z</time>
      </trkpt>
      <trkpt lat="49.75149" lon="4.81339">
        <ele>204</ele>
        <time>2022-06-06T06:59:35.000Z</time>
      </trkpt>
      <trkpt lat="49.75149" lon="4.81334">
        <ele>204</ele>
        <time>2022-06-06T06:59:36.000Z</time>
      </trkpt>
      <trkpt lat="49.75149" lon="4.81329">
        <ele>204</ele>
        <time>2022-06-06T06:59:37.000Z</time>
      </trkpt>
      <trkpt lat="49.75149" lon="4.81324">
        <ele>204</ele>
        <time>2022-06-06T06:59:38.000Z</time>
      </trkpt>
      <trkpt lat="49.75148" lon="4.81318">
        <ele>205</ele>
        <time>2022-06-06T06:59:39.000Z</time>
      </trkpt>
      <trkpt lat="49.75147" lon="4.81313">
        <ele>205</ele>
        <time>2022-06-06T06:59:40.000Z</time>
      </trkpt>
      <trkpt lat="49.75146" lon="4.81308">
        <ele>205</ele>
        <time>2022-06-06T06:59:41.000Z</time>
      </trkpt>
      <trkpt lat="49.75145" lon="4.81302">
        <ele>206</ele>
        <time>2022-06-06T06:59:42.000Z</time>
      </trkpt>
      <trkpt lat="49.75144" lon="4.81297">
        <ele>206</ele>
        <time>2022-06-06T06:59:43.000Z</time>
      </trkpt>
      <trkpt lat="49.75143" lon="4.81292">
        <ele>206</ele>
        <time>2022-06-06T06:59:44.000Z</time>
      </trkpt>
      <trkpt lat="49.75142" lon="4.81287">
        <ele>207</ele>
        <time>2022-06-06T06:59:45.000Z</time>
      </trkpt>
      <trkpt lat="49.75141" lon="4.81282">
        <ele>207</ele>
        <time>2022-06-06T06:59:46.000Z</time>
      </trkpt>
      <trkpt lat="49.7514" lon="4.81277">
        <ele>208</ele>
        <time>2022-06-06T06:59:47.000Z</time>
      </trkpt>
      <trkpt lat="49.75139" lon="4.81272">
        <ele>208</ele>
        <time>2022-06-06T06:59:48.000Z</time>
      </trkpt>
      <trkpt lat="49.75138" lon="4.81267">
        <ele>208</ele>
        <time>2022-06-06T06:59:49.000Z</time>
      </trkpt>
      <trkpt lat="49.75137" lon="4.81262">
        <ele>209</ele>
        <time>2022-06-06T06:59:50.000Z</time>
      </trkpt>
      <trkpt lat="49.75136" lon="4.81257">
        <ele>209</ele>
        <time>2022-06-06T06:59:51.000Z</time>
      </trkpt>
      <trkpt lat="49.75135" lon="4.81252">
        <ele>209</ele>
        <time>2022-06-06T06:59:52.000Z</time>
      </trkpt>
      <trkpt lat="49.75134" lon="4.81247">
        <ele>209</ele>
        <time>2022-06-06T06:59:53.000Z</time>
      </trkpt>
      <trkpt lat="49.75133" lon="4.81243">
        <ele>210</ele>
        <time>2022-06-06T06:59:54.000Z</time>
      </trkpt>
      <trkpt lat="49.75131" lon="4.81238">
        <ele>210</ele>
        <time>2022-06-06T06:59:55.000Z</time>
      </trkpt>
      <trkpt lat="49.7513" lon="4.81233">
        <ele>210</ele>
        <time>2022-06-06T06:59:56.000Z</time>
      </trkpt>
      <trkpt lat="49.75129" lon="4.81229">
        <ele>210</ele>
        <time>2022-06-06T06:59:57.000Z</time>
      </trkpt>
      <trkpt lat="49.75127" lon="4.81225">
        <ele>211</ele>
        <time>2022-06-06T06:59:58.000Z</time>
      </trkpt>
      <trkpt lat="49.75126" lon="4.81221">
        <ele>211</ele>
        <time>2022-06-06T06:59:59.000Z</time>
      </trkpt>
      <trkpt lat="49.75125" lon="4.81217">
        <ele>211</ele>
        <time>2022-06-06T07:00:00.000Z</time>
      </trkpt>
      <trkpt lat="49.75124" lon="4.81212">
        <ele>211</ele>
        <time>2022-06-06T07:00:01.000Z</time>
      </trkpt>
      <trkpt lat="49.75123" lon="4.81208">
        <ele>211</ele>
        <time>2022-06-06T07:00:02.000Z</time>
      </trkpt>
      <trkpt lat="49.75123" lon="4.81203">
        <ele>211</ele>
        <time>2022-06-06T07:00:03.000Z</time>
      </trkpt>
      <trkpt lat="49.75121" lon="4.81198">
        <ele>211</ele>
        <time>2022-06-06T07:00:04.000Z</time>
      </trkpt>
      <trkpt lat="49.7512" lon="4.81194">
        <ele>211</ele>
        <time>2022-06-06T07:00:05.000Z</time>
      </trkpt>
      <trkpt lat="49.7512" lon="4.81189">
        <ele>211</ele>
        <time>2022-06-06T07:00:06.000Z</time>
      </trkpt>
      <trkpt lat="49.75119" lon="4.81185">
        <ele>211</ele>
        <time>2022-06-06T07:00:07.000Z</time>
      </trkpt>
      <trkpt lat="49.75118" lon="4.8118">
        <ele>211</ele>
        <time>2022-06-06T07:00:08.000Z</time>
      </trkpt>
      <trkpt lat="49.75117" lon="4.81176">
        <ele>211</ele>
        <time>2022-06-06T07:00:09.000Z</time>
      </trkpt>
      <trkpt lat="49.75117" lon="4.81172">
        <ele>212</ele>
        <time>2022-06-06T07:00:10.000Z</time>
      </trkpt>
      <trkpt lat="49.75116" lon="4.81168">
        <ele>212</ele>
        <time>2022-06-06T07:00:11.000Z</time>
      </trkpt>
      <trkpt lat="49.75116" lon="4.81164">
        <ele>212</ele>
        <time>2022-06-06T07:00:12.000Z</time>
      </trkpt>
      <trkpt lat="49.75115" lon="4.8116">
        <ele>212</ele>
        <time>2022-06-06T07:00:13.000Z</time>
      </trkpt>
      <trkpt lat="49.75115" lon="4.81156">
        <ele>212</ele>
        <time>2022-06-06T07:00:14.000Z</time>
      </trkpt>
      <trkpt lat="49.75114" lon="4.81151">
        <ele>212</ele>
        <time>2022-06-06T07:00:15.000Z</time>
      </trkpt>
      <trkpt lat="49.75113" lon="4.81147">
        <ele>212</ele>
        <time>2022-06-06T07:00:16.000Z</time>
      </trkpt>
      <trkpt lat="49.75112" lon="4.81142">
        <ele>213</ele>
        <time>2022-06-06T07:00:17.000Z</time>
      </trkpt>
      <trkpt lat="49.75111" lon="4.81137">
        <ele>213</ele>
        <time>2022-06-06T07:00:18.000Z</time>
      </trkpt>
      <trkpt lat="49.75109" lon="4.81132">
        <ele>213</ele>
        <time>2022-06-06T07:00:19.000Z</time>
      </trkpt>
      <trkpt lat="49.75108" lon="4.81128">
        <ele>213</ele>
        <time>2022-06-06T07:00:20.000Z</time>
      </trkpt>
      <trkpt lat="49.75107" lon="4.81123">
        <ele>213</ele>
        <time>2022-06-06T07:00:21.000Z</time>
      </trkpt>
      <trkpt lat="49.75105" lon="4.81118">
        <ele>214</ele>
        <time>2022-06-06T07:00:22.000Z</time>
      </trkpt>
      <trkpt lat="49.75104" lon="4.81114">
        <ele>214</ele>
        <time>2022-06-06T07:00:23.000Z</time>
      </trkpt>
      <trkpt lat="49.75102" lon="4.81109">
        <ele>214</ele>
        <time>2022-06-06T07:00:24.000Z</time>
      </trkpt>
      <trkpt lat="49.75101" lon="4.81104">
        <ele>214</ele>
        <time>2022-06-06T07:00:25.000Z</time>
      </trkpt>
      <trkpt lat="49.75099" lon="4.81099">
        <ele>214</ele>
        <time>2022-06-06T07:00:26.000Z</time>
      </trkpt>
      <trkpt lat="49.75097" lon="4.81093">
        <ele>214</ele>
        <time>2022-06-06T07:00:27.000Z</time>
      </trkpt>
      <trkpt lat="49.75096" lon="4.81088">
        <ele>214</ele>
        <time>2022-06-06T07:00:28.000Z</time>
      </trkpt>
      <trkpt lat="49.75095" lon="4.81083">
        <ele>214</ele>
        <time>2022-06-06T07:00:29.000Z</time>
      </trkpt>
      <trkpt lat="49.75093" lon="4.81078">
        <ele>214</ele>
        <time>2022-06-06T07:00:30.000Z</time>
      </trkpt>
      <trkpt lat="49.75092" lon="4.81073">
        <ele>214</ele>
        <time>2022-06-06T07:00:31.000Z</time>
      </trkpt>
      <trkpt lat="49.75091" lon="4.81068">
        <ele>215</ele>
        <time>2022-06-06T07:00:32.000Z</time>
      </trkpt>
      <trkpt lat="49.7509" lon="4.81062">
        <ele>215</ele>
        <time>2022-06-06T07:00:33.000Z</time>
      </trkpt>
      <trkpt lat="49.75089" lon="4.81057">
        <ele>215</ele>
        <time>2022-06-06T07:00:34.000Z</time>
      </trkpt>
      <trkpt lat="49.75088" lon="4.81051">
        <ele>215</ele>
        <time>2022-06-06T07:00:35.000Z</time>
      </trkpt>
      <trkpt lat="49.75087" lon="4.81045">
        <ele>215</ele>
        <time>2022-06-06T07:00:36.000Z</time>
      </trkpt>
      <trkpt lat="49.75085" lon="4.81038">
        <ele>215</ele>
        <time>2022-06-06T07:00:37.000Z</time>
      </trkpt>
      <trkpt lat="49.75084" lon="4.81032">
        <ele>215</ele>
        <time>2022-06-06T07:00:38.000Z</time>
      </trkpt>
      <trkpt lat="49.75082" lon="4.81025">
        <ele>215</ele>
        <time>2022-06-06T07:00:39.000Z</time>
      </trkpt>
      <trkpt lat="49.75081" lon="4.81019">
        <ele>215</ele>
        <time>2022-06-06T07:00:40.000Z</time>
      </trkpt>
      <trkpt lat="49.7508" lon="4.81012">
        <ele>216</ele>
        <time>2022-06-06T07:00:41.000Z</time>
      </trkpt>
      <trkpt lat="49.75078" lon="4.81006">
        <ele>216</ele>
        <time>2022-06-06T07:00:42.000Z</time>
      </trkpt>
      <trkpt lat="49.75077" lon="4.81">
        <ele>216</ele>
        <time>2022-06-06T07:00:43.000Z</time>
      </trkpt>
      <trkpt lat="49.75076" lon="4.80995">
        <ele>216</ele>
        <time>2022-06-06T07:00:44.000Z</time>
      </trkpt>
      <trkpt lat="49.75074" lon="4.80988">
        <ele>216</ele>
        <time>2022-06-06T07:00:45.000Z</time>
      </trkpt>
      <trkpt lat="49.75073" lon="4.80982">
        <ele>216</ele>
        <time>2022-06-06T07:00:46.000Z</time>
      </trkpt>
      <trkpt lat="49.75071" lon="4.80975">
        <ele>216</ele>
        <time>2022-06-06T07:00:47.000Z</time>
      </trkpt>
      <trkpt lat="49.7507" lon="4.80968">
        <ele>217</ele>
        <time>2022-06-06T07:00:48.000Z</time>
      </trkpt>
      <trkpt lat="49.75069" lon="4.80961">
        <ele>217</ele>
        <time>2022-06-06T07:00:49.000Z</time>
      </trkpt>
      <trkpt lat="49.75068" lon="4.80955">
        <ele>217</ele>
        <time>2022-06-06T07:00:50.000Z</time>
      </trkpt>
      <trkpt lat="49.75067" lon="4.80949">
        <ele>217</ele>
        <time>2022-06-06T07:00:51.000Z</time>
      </trkpt>
      <trkpt lat="49.75066" lon="4.80944">
        <ele>217</ele>
        <time>2022-06-06T07:00:52.000Z</time>
      </trkpt>
      <trkpt lat="49.75065" lon="4.80941">
        <ele>217</ele>
        <time>2022-06-06T07:00:53.000Z</time>
      </trkpt>
      <trkpt lat="49.75065" lon="4.80941">
        <ele>218</ele>
        <time>2022-06-06T07:00:54.000Z</time>
      </trkpt>
      <trkpt lat="49.75065" lon="4.80941">
        <ele>218</ele>
        <time>2022-06-06T07:00:55.000Z</time>
      </trkpt>
      <trkpt lat="49.75065" lon="4.80939">
        <ele>218</ele>
        <time>2022-06-06T07:00:56.000Z</time>
      </trkpt>
      <trkpt lat="49.75065" lon="4.80937">
        <ele>218</ele>
        <time>2022-06-06T07:00:57.000Z</time>
      </trkpt>
      <trkpt lat="49.75065" lon="4.80934">
        <ele>218</ele>
        <time>2022-06-06T07:00:58.000Z</time>
      </trkpt>
      <trkpt lat="49.75065" lon="4.80931">
        <ele>219</ele>
        <time>2022-06-06T07:00:59.000Z</time>
      </trkpt>
      <trkpt lat="49.75065" lon="4.80927">
        <ele>219</ele>
        <time>2022-06-06T07:01:00.000Z</time>
      </trkpt>
      <trkpt lat="49.75065" lon="4.80922">
        <ele>219</ele>
        <time>2022-06-06T07:01:01.000Z</time>
      </trkpt>
      <trkpt lat="49.75064" lon="4.80917">
        <ele>219</ele>
        <time>2022-06-06T07:01:02.000Z</time>
      </trkpt>
      <trkpt lat="49.75064" lon="4.80911">
        <ele>219</ele>
        <time>2022-06-06T07:01:03.000Z</time>
      </trkpt>
      <trkpt lat="49.75063" lon="4.80904">
        <ele>219</ele>
        <time>2022-06-06T07:01:04.000Z</time>
      </trkpt>
      <trkpt lat="49.75063" lon="4.80896">
        <ele>219</ele>
        <time>2022-06-06T07:01:05.000Z</time>
      </trkpt>
      <trkpt lat="49.75063" lon="4.80887">
        <ele>219</ele>
        <time>2022-06-06T07:01:06.000Z</time>
      </trkpt>
      <trkpt lat="49.75063" lon="4.80878">
        <ele>219</ele>
        <time>2022-06-06T07:01:07.000Z</time>
      </trkpt>
      <trkpt lat="49.75063" lon="4.80868">
        <ele>220</ele>
        <time>2022-06-06T07:01:08.000Z</time>
      </trkpt>
      <trkpt lat="49.75063" lon="4.80858">
        <ele>220</ele>
        <time>2022-06-06T07:01:09.000Z</time>
      </trkpt>
      <trkpt lat="49.75064" lon="4.80847">
        <ele>220</ele>
        <time>2022-06-06T07:01:10.000Z</time>
      </trkpt>
      <trkpt lat="49.75064" lon="4.80836">
        <ele>220</ele>
        <time>2022-06-06T07:01:11.000Z</time>
      </trkpt>
      <trkpt lat="49.75065" lon="4.80824">
        <ele>219</ele>
        <time>2022-06-06T07:01:12.000Z</time>
      </trkpt>
      <trkpt lat="49.75066" lon="4.80812">
        <ele>219</ele>
        <time>2022-06-06T07:01:13.000Z</time>
      </trkpt>
      <trkpt lat="49.75067" lon="4.808">
        <ele>219</ele>
        <time>2022-06-06T07:01:14.000Z</time>
      </trkpt>
      <trkpt lat="49.7507" lon="4.80787">
        <ele>219</ele>
        <time>2022-06-06T07:01:15.000Z</time>
      </trkpt>
      <trkpt lat="49.75073" lon="4.80773">
        <ele>218</ele>
        <time>2022-06-06T07:01:16.000Z</time>
      </trkpt>
      <trkpt lat="49.75077" lon="4.80758">
        <ele>218</ele>
        <time>2022-06-06T07:01:17.000Z</time>
      </trkpt>
      <trkpt lat="49.75081" lon="4.80744">
        <ele>218</ele>
        <time>2022-06-06T07:01:18.000Z</time>
      </trkpt>
      <trkpt lat="49.75087" lon="4.80731">
        <ele>218</ele>
        <time>2022-06-06T07:01:19.000Z</time>
      </trkpt>
      <trkpt lat="49.75095" lon="4.8072">
        <ele>217</ele>
        <time>2022-06-06T07:01:20.000Z</time>
      </trkpt>
      <trkpt lat="49.75104" lon="4.80712">
        <ele>217</ele>
        <time>2022-06-06T07:01:21.000Z</time>
      </trkpt>
      <trkpt lat="49.75113" lon="4.80706">
        <ele>216</ele>
        <time>2022-06-06T07:01:22.000Z</time>
      </trkpt>
      <trkpt lat="49.75123" lon="4.807">
        <ele>215</ele>
        <time>2022-06-06T07:01:23.000Z</time>
      </trkpt>
      <trkpt lat="49.75132" lon="4.80695">
        <ele>214</ele>
        <time>2022-06-06T07:01:24.000Z</time>
      </trkpt>
      <trkpt lat="49.7514" lon="4.80693">
        <ele>214</ele>
        <time>2022-06-06T07:01:25.000Z</time>
      </trkpt>
      <trkpt lat="49.75148" lon="4.80693">
        <ele>213</ele>
        <time>2022-06-06T07:01:26.000Z</time>
      </trkpt>
      <trkpt lat="49.75156" lon="4.80693">
        <ele>212</ele>
        <time>2022-06-06T07:01:27.000Z</time>
      </trkpt>
      <trkpt lat="49.75164" lon="4.80693">
        <ele>212</ele>
        <time>2022-06-06T07:01:28.000Z</time>
      </trkpt>
      <trkpt lat="49.75171" lon="4.80693">
        <ele>211</ele>
        <time>2022-06-06T07:01:29.000Z</time>
      </trkpt>
      <trkpt lat="49.75178" lon="4.80692">
        <ele>210</ele>
        <time>2022-06-06T07:01:30.000Z</time>
      </trkpt>
      <trkpt lat="49.75184" lon="4.80692">
        <ele>210</ele>
        <time>2022-06-06T07:01:31.000Z</time>
      </trkpt>
      <trkpt lat="49.75191" lon="4.80691">
        <ele>209</ele>
        <time>2022-06-06T07:01:32.000Z</time>
      </trkpt>
      <trkpt lat="49.75197" lon="4.80691">
        <ele>209</ele>
        <time>2022-06-06T07:01:33.000Z</time>
      </trkpt>
      <trkpt lat="49.75204" lon="4.8069">
        <ele>209</ele>
        <time>2022-06-06T07:01:34.000Z</time>
      </trkpt>
      <trkpt lat="49.7521" lon="4.80691">
        <ele>208</ele>
        <time>2022-06-06T07:01:35.000Z</time>
      </trkpt>
      <trkpt lat="49.75216" lon="4.80691">
        <ele>208</ele>
        <time>2022-06-06T07:01:36.000Z</time>
      </trkpt>
      <trkpt lat="49.75222" lon="4.8069">
        <ele>208</ele>
        <time>2022-06-06T07:01:37.000Z</time>
      </trkpt>
      <trkpt lat="49.75227" lon="4.80691">
        <ele>207</ele>
        <time>2022-06-06T07:01:38.000Z</time>
      </trkpt>
      <trkpt lat="49.75232" lon="4.80692">
        <ele>207</ele>
        <time>2022-06-06T07:01:39.000Z</time>
      </trkpt>
      <trkpt lat="49.75237" lon="4.80694">
        <ele>207</ele>
        <time>2022-06-06T07:01:40.000Z</time>
      </trkpt>
      <trkpt lat="49.75241" lon="4.80696">
        <ele>206</ele>
        <time>2022-06-06T07:01:41.000Z</time>
      </trkpt>
      <trkpt lat="49.75245" lon="4.80697">
        <ele>206</ele>
        <time>2022-06-06T07:01:42.000Z</time>
      </trkpt>
      <trkpt lat="49.7525" lon="4.80698">
        <ele>206</ele>
        <time>2022-06-06T07:01:43.000Z</time>
      </trkpt>
      <trkpt lat="49.75254" lon="4.80698">
        <ele>206</ele>
        <time>2022-06-06T07:01:44.000Z</time>
      </trkpt>
      <trkpt lat="49.75257" lon="4.80698">
        <ele>206</ele>
        <time>2022-06-06T07:01:45.000Z</time>
      </trkpt>
      <trkpt lat="49.75261" lon="4.80698">
        <ele>206</ele>
        <time>2022-06-06T07:01:46.000Z</time>
      </trkpt>
      <trkpt lat="49.75265" lon="4.80697">
        <ele>206</ele>
        <time>2022-06-06T07:01:47.000Z</time>
      </trkpt>
      <trkpt lat="49.75267" lon="4.80696">
        <ele>206</ele>
        <time>2022-06-06T07:01:48.000Z</time>
      </trkpt>
      <trkpt lat="49.75269" lon="4.80694">
        <ele>206</ele>
        <time>2022-06-06T07:01:49.000Z</time>
      </trkpt>
      <trkpt lat="49.75272" lon="4.80692">
        <ele>206</ele>
        <time>2022-06-06T07:01:50.000Z</time>
      </trkpt>
      <trkpt lat="49.75276" lon="4.8069">
        <ele>206</ele>
        <time>2022-06-06T07:01:51.000Z</time>
      </trkpt>
      <trkpt lat="49.75279" lon="4.80688">
        <ele>206</ele>
        <time>2022-06-06T07:01:52.000Z</time>
      </trkpt>
      <trkpt lat="49.75283" lon="4.80686">
        <ele>206</ele>
        <time>2022-06-06T07:01:53.000Z</time>
      </trkpt>
      <trkpt lat="49.75286" lon="4.80683">
        <ele>207</ele>
        <time>2022-06-06T07:01:54.000Z</time>
      </trkpt>
      <trkpt lat="49.75288" lon="4.80682">
        <ele>207</ele>
        <time>2022-06-06T07:01:55.000Z</time>
      </trkpt>
      <trkpt lat="49.7529" lon="4.80681">
        <ele>207</ele>
        <time>2022-06-06T07:01:56.000Z</time>
      </trkpt>
      <trkpt lat="49.75292" lon="4.80679">
        <ele>207</ele>
        <time>2022-06-06T07:01:57.000Z</time>
      </trkpt>
      <trkpt lat="49.75294" lon="4.80678">
        <ele>207</ele>
        <time>2022-06-06T07:01:58.000Z</time>
      </trkpt>
      <trkpt lat="49.75296" lon="4.80677">
        <ele>207</ele>
        <time>2022-06-06T07:01:59.000Z</time>
      </trkpt>
      <trkpt lat="49.75299" lon="4.80676">
        <ele>207</ele>
        <time>2022-06-06T07:02:00.000Z</time>
      </trkpt>
      <trkpt lat="49.75301" lon="4.80675">
        <ele>208</ele>
        <time>2022-06-06T07:02:01.000Z</time>
      </trkpt>
      <trkpt lat="49.75303" lon="4.80673">
        <ele>208</ele>
        <time>2022-06-06T07:02:02.000Z</time>
      </trkpt>
      <trkpt lat="49.75305" lon="4.80672">
        <ele>208</ele>
        <time>2022-06-06T07:02:03.000Z</time>
      </trkpt>
      <trkpt lat="49.75308" lon="4.80672">
        <ele>208</ele>
        <time>2022-06-06T07:02:04.000Z</time>
      </trkpt>
      <trkpt lat="49.7531" lon="4.80671">
        <ele>208</ele>
        <time>2022-06-06T07:02:05.000Z</time>
      </trkpt>
      <trkpt lat="49.75314" lon="4.80671">
        <ele>209</ele>
        <time>2022-06-06T07:02:06.000Z</time>
      </trkpt>
      <trkpt lat="49.75316" lon="4.80671">
        <ele>209</ele>
        <time>2022-06-06T07:02:07.000Z</time>
      </trkpt>
      <trkpt lat="49.75319" lon="4.80671">
        <ele>209</ele>
        <time>2022-06-06T07:02:08.000Z</time>
      </trkpt>
      <trkpt lat="49.75322" lon="4.80671">
        <ele>209</ele>
        <time>2022-06-06T07:02:09.000Z</time>
      </trkpt>
      <trkpt lat="49.75326" lon="4.80671">
        <ele>210</ele>
        <time>2022-06-06T07:02:10.000Z</time>
      </trkpt>
      <trkpt lat="49.7533" lon="4.80672">
        <ele>210</ele>
        <time>2022-06-06T07:02:11.000Z</time>
      </trkpt>
      <trkpt lat="49.75333" lon="4.80673">
        <ele>210</ele>
        <time>2022-06-06T07:02:12.000Z</time>
      </trkpt>
      <trkpt lat="49.75336" lon="4.80674">
        <ele>211</ele>
        <time>2022-06-06T07:02:13.000Z</time>
      </trkpt>
      <trkpt lat="49.7534" lon="4.80675">
        <ele>211</ele>
        <time>2022-06-06T07:02:14.000Z</time>
      </trkpt>
      <trkpt lat="49.75343" lon="4.80675">
        <ele>211</ele>
        <time>2022-06-06T07:02:15.000Z</time>
      </trkpt>
      <trkpt lat="49.75345" lon="4.80675">
        <ele>211</ele>
        <time>2022-06-06T07:02:16.000Z</time>
      </trkpt>
      <trkpt lat="49.75348" lon="4.80675">
        <ele>212</ele>
        <time>2022-06-06T07:02:17.000Z</time>
      </trkpt>
      <trkpt lat="49.75352" lon="4.80676">
        <ele>212</ele>
        <time>2022-06-06T07:02:18.000Z</time>
      </trkpt>
      <trkpt lat="49.75355" lon="4.80676">
        <ele>212</ele>
        <time>2022-06-06T07:02:19.000Z</time>
      </trkpt>
      <trkpt lat="49.75358" lon="4.80677">
        <ele>212</ele>
        <time>2022-06-06T07:02:20.000Z</time>
      </trkpt>
      <trkpt lat="49.75362" lon="4.80678">
        <ele>212</ele>
        <time>2022-06-06T07:02:21.000Z</time>
      </trkpt>
      <trkpt lat="49.75366" lon="4.80679">
        <ele>213</ele>
        <time>2022-06-06T07:02:22.000Z</time>
      </trkpt>
      <trkpt lat="49.75369" lon="4.8068">
        <ele>213</ele>
        <time>2022-06-06T07:02:23.000Z</time>
      </trkpt>
      <trkpt lat="49.75373" lon="4.8068">
        <ele>213</ele>
        <time>2022-06-06T07:02:24.000Z</time>
      </trkpt>
      <trkpt lat="49.75376" lon="4.80681">
        <ele>213</ele>
        <time>2022-06-06T07:02:25.000Z</time>
      </trkpt>
      <trkpt lat="49.7538" lon="4.80683">
        <ele>214</ele>
        <time>2022-06-06T07:02:26.000Z</time>
      </trkpt>
      <trkpt lat="49.75383" lon="4.80685">
        <ele>214</ele>
        <time>2022-06-06T07:02:27.000Z</time>
      </trkpt>
      <trkpt lat="49.75386" lon="4.80686">
        <ele>214</ele>
        <time>2022-06-06T07:02:28.000Z</time>
      </trkpt>
      <trkpt lat="49.75388" lon="4.80687">
        <ele>214</ele>
        <time>2022-06-06T07:02:29.000Z</time>
      </trkpt>
      <trkpt lat="49.75391" lon="4.80688">
        <ele>215</ele>
        <time>2022-06-06T07:02:30.000Z</time>
      </trkpt>
      <trkpt lat="49.75393" lon="4.80688">
        <ele>215</ele>
        <time>2022-06-06T07:02:31.000Z</time>
      </trkpt>
      <trkpt lat="49.75395" lon="4.80689">
        <ele>216</ele>
        <time>2022-06-06T07:02:32.000Z</time>
      </trkpt>
      <trkpt lat="49.75397" lon="4.8069">
        <ele>216</ele>
        <time>2022-06-06T07:02:33.000Z</time>
      </trkpt>
      <trkpt lat="49.75399" lon="4.8069">
        <ele>217</ele>
        <time>2022-06-06T07:02:34.000Z</time>
      </trkpt>
      <trkpt lat="49.75402" lon="4.80691">
        <ele>217</ele>
        <time>2022-06-06T07:02:35.000Z</time>
      </trkpt>
      <trkpt lat="49.75404" lon="4.80692">
        <ele>217</ele>
        <time>2022-06-06T07:02:36.000Z</time>
      </trkpt>
      <trkpt lat="49.75406" lon="4.80693">
        <ele>217</ele>
        <time>2022-06-06T07:02:37.000Z</time>
      </trkpt>
      <trkpt lat="49.75408" lon="4.80694">
        <ele>218</ele>
        <time>2022-06-06T07:02:38.000Z</time>
      </trkpt>
      <trkpt lat="49.7541" lon="4.80694">
        <ele>218</ele>
        <time>2022-06-06T07:02:39.000Z</time>
      </trkpt>
      <trkpt lat="49.75413" lon="4.80695">
        <ele>218</ele>
        <time>2022-06-06T07:02:40.000Z</time>
      </trkpt>
      <trkpt lat="49.75415" lon="4.80696">
        <ele>218</ele>
        <time>2022-06-06T07:02:41.000Z</time>
      </trkpt>
      <trkpt lat="49.75416" lon="4.80697">
        <ele>218</ele>
        <time>2022-06-06T07:02:42.000Z</time>
      </trkpt>
      <trkpt lat="49.75417" lon="4.80698">
        <ele>219</ele>
        <time>2022-06-06T07:02:43.000Z</time>
      </trkpt>
      <trkpt lat="49.75418" lon="4.80698">
        <ele>219</ele>
        <time>2022-06-06T07:02:44.000Z</time>
      </trkpt>
      <trkpt lat="49.7542" lon="4.80698">
        <ele>219</ele>
        <time>2022-06-06T07:02:45.000Z</time>
      </trkpt>
      <trkpt lat="49.75422" lon="4.80699">
        <ele>219</ele>
        <time>2022-06-06T07:02:46.000Z</time>
      </trkpt>
      <trkpt lat="49.75424" lon="4.80699">
        <ele>219</ele>
        <time>2022-06-06T07:02:47.000Z</time>
      </trkpt>
      <trkpt lat="49.75426" lon="4.80701">
        <ele>219</ele>
        <time>2022-06-06T07:02:48.000Z</time>
      </trkpt>
      <trkpt lat="49.75429" lon="4.80702">
        <ele>219</ele>
        <time>2022-06-06T07:02:49.000Z</time>
      </trkpt>
      <trkpt lat="49.75432" lon="4.80704">
        <ele>219</ele>
        <time>2022-06-06T07:02:50.000Z</time>
      </trkpt>
      <trkpt lat="49.75436" lon="4.80706">
        <ele>219</ele>
        <time>2022-06-06T07:02:51.000Z</time>
      </trkpt>
      <trkpt lat="49.7544" lon="4.80708">
        <ele>219</ele>
        <time>2022-06-06T07:02:52.000Z</time>
      </trkpt>
      <trkpt lat="49.75444" lon="4.80711">
        <ele>219</ele>
        <time>2022-06-06T07:02:53.000Z</time>
      </trkpt>
      <trkpt lat="49.75447" lon="4.80713">
        <ele>220</ele>
        <time>2022-06-06T07:02:54.000Z</time>
      </trkpt>
      <trkpt lat="49.7545" lon="4.80715">
        <ele>220</ele>
        <time>2022-06-06T07:02:55.000Z</time>
      </trkpt>
      <trkpt lat="49.75454" lon="4.80717">
        <ele>220</ele>
        <time>2022-06-06T07:02:56.000Z</time>
      </trkpt>
      <trkpt lat="49.75457" lon="4.8072">
        <ele>220</ele>
        <time>2022-06-06T07:02:57.000Z</time>
      </trkpt>
      <trkpt lat="49.7546" lon="4.80721">
        <ele>220</ele>
        <time>2022-06-06T07:02:58.000Z</time>
      </trkpt>
      <trkpt lat="49.75463" lon="4.80723">
        <ele>220</ele>
        <time>2022-06-06T07:02:59.000Z</time>
      </trkpt>
      <trkpt lat="49.75465" lon="4.80726">
        <ele>220</ele>
        <time>2022-06-06T07:03:00.000Z</time>
      </trkpt>
      <trkpt lat="49.75468" lon="4.80729">
        <ele>220</ele>
        <time>2022-06-06T07:03:01.000Z</time>
      </trkpt>
      <trkpt lat="49.7547" lon="4.80731">
        <ele>220</ele>
        <time>2022-06-06T07:03:02.000Z</time>
      </trkpt>
      <trkpt lat="49.75473" lon="4.80733">
        <ele>220</ele>
        <time>2022-06-06T07:03:03.000Z</time>
      </trkpt>
      <trkpt lat="49.75476" lon="4.80735">
        <ele>220</ele>
        <time>2022-06-06T07:03:04.000Z</time>
      </trkpt>
      <trkpt lat="49.75479" lon="4.80738">
        <ele>220</ele>
        <time>2022-06-06T07:03:05.000Z</time>
      </trkpt>
      <trkpt lat="49.75482" lon="4.8074">
        <ele>220</ele>
        <time>2022-06-06T07:03:06.000Z</time>
      </trkpt>
      <trkpt lat="49.75484" lon="4.80742">
        <ele>220</ele>
        <time>2022-06-06T07:03:07.000Z</time>
      </trkpt>
      <trkpt lat="49.75487" lon="4.80745">
        <ele>220</ele>
        <time>2022-06-06T07:03:08.000Z</time>
      </trkpt>
      <trkpt lat="49.75489" lon="4.80747">
        <ele>220</ele>
        <time>2022-06-06T07:03:09.000Z</time>
      </trkpt>
      <trkpt lat="49.75492" lon="4.80751">
        <ele>220</ele>
        <time>2022-06-06T07:03:10.000Z</time>
      </trkpt>
      <trkpt lat="49.75494" lon="4.80753">
        <ele>220</ele>
        <time>2022-06-06T07:03:11.000Z</time>
      </trkpt>
      <trkpt lat="49.75496" lon="4.80755">
        <ele>220</ele>
        <time>2022-06-06T07:03:12.000Z</time>
      </trkpt>
      <trkpt lat="49.75499" lon="4.80757">
        <ele>220</ele>
        <time>2022-06-06T07:03:13.000Z</time>
      </trkpt>
      <trkpt lat="49.75502" lon="4.80759">
        <ele>220</ele>
        <time>2022-06-06T07:03:14.000Z</time>
      </trkpt>
      <trkpt lat="49.75505" lon="4.80762">
        <ele>220</ele>
        <time>2022-06-06T07:03:15.000Z</time>
      </trkpt>
      <trkpt lat="49.75508" lon="4.80764">
        <ele>220</ele>
        <time>2022-06-06T07:03:16.000Z</time>
      </trkpt>
      <trkpt lat="49.75511" lon="4.80765">
        <ele>220</ele>
        <time>2022-06-06T07:03:17.000Z</time>
      </trkpt>
      <trkpt lat="49.75514" lon="4.80767">
        <ele>221</ele>
        <time>2022-06-06T07:03:18.000Z</time>
      </trkpt>
      <trkpt lat="49.75518" lon="4.80769">
        <ele>221</ele>
        <time>2022-06-06T07:03:19.000Z</time>
      </trkpt>
      <trkpt lat="49.75521" lon="4.8077">
        <ele>221</ele>
        <time>2022-06-06T07:03:20.000Z</time>
      </trkpt>
      <trkpt lat="49.75523" lon="4.80772">
        <ele>221</ele>
        <time>2022-06-06T07:03:21.000Z</time>
      </trkpt>
      <trkpt lat="49.75525" lon="4.80775">
        <ele>222</ele>
        <time>2022-06-06T07:03:22.000Z</time>
      </trkpt>
      <trkpt lat="49.75528" lon="4.80777">
        <ele>222</ele>
        <time>2022-06-06T07:03:23.000Z</time>
      </trkpt>
      <trkpt lat="49.7553" lon="4.8078">
        <ele>222</ele>
        <time>2022-06-06T07:03:24.000Z</time>
      </trkpt>
      <trkpt lat="49.75533" lon="4.80782">
        <ele>222</ele>
        <time>2022-06-06T07:03:25.000Z</time>
      </trkpt>
      <trkpt lat="49.75534" lon="4.80785">
        <ele>223</ele>
        <time>2022-06-06T07:03:26.000Z</time>
      </trkpt>
      <trkpt lat="49.75536" lon="4.80787">
        <ele>223</ele>
        <time>2022-06-06T07:03:27.000Z</time>
      </trkpt>
      <trkpt lat="49.75539" lon="4.80789">
        <ele>223</ele>
        <time>2022-06-06T07:03:28.000Z</time>
      </trkpt>
      <trkpt lat="49.75541" lon="4.80792">
        <ele>223</ele>
        <time>2022-06-06T07:03:29.000Z</time>
      </trkpt>
      <trkpt lat="49.75543" lon="4.80795">
        <ele>224</ele>
        <time>2022-06-06T07:03:30.000Z</time>
      </trkpt>
      <trkpt lat="49.75545" lon="4.80798">
        <ele>224</ele>
        <time>2022-06-06T07:03:31.000Z</time>
      </trkpt>
      <trkpt lat="49.75547" lon="4.80802">
        <ele>224</ele>
        <time>2022-06-06T07:03:32.000Z</time>
      </trkpt>
      <trkpt lat="49.75549" lon="4.80804">
        <ele>224</ele>
        <time>2022-06-06T07:03:33.000Z</time>
      </trkpt>
      <trkpt lat="49.75551" lon="4.80807">
        <ele>225</ele>
        <time>2022-06-06T07:03:34.000Z</time>
      </trkpt>
      <trkpt lat="49.75554" lon="4.8081">
        <ele>225</ele>
        <time>2022-06-06T07:03:35.000Z</time>
      </trkpt>
      <trkpt lat="49.75556" lon="4.80812">
        <ele>225</ele>
        <time>2022-06-06T07:03:36.000Z</time>
      </trkpt>
      <trkpt lat="49.75559" lon="4.80815">
        <ele>225</ele>
        <time>2022-06-06T07:03:37.000Z</time>
      </trkpt>
      <trkpt lat="49.75562" lon="4.80817">
        <ele>226</ele>
        <time>2022-06-06T07:03:38.000Z</time>
      </trkpt>
      <trkpt lat="49.75565" lon="4.8082">
        <ele>226</ele>
        <time>2022-06-06T07:03:39.000Z</time>
      </trkpt>
      <trkpt lat="49.75568" lon="4.80822">
        <ele>226</ele>
        <time>2022-06-06T07:03:40.000Z</time>
      </trkpt>
      <trkpt lat="49.7557" lon="4.80823">
        <ele>226</ele>
        <time>2022-06-06T07:03:41.000Z</time>
      </trkpt>
      <trkpt lat="49.75572" lon="4.80824">
        <ele>227</ele>
        <time>2022-06-06T07:03:42.000Z</time>
      </trkpt>
      <trkpt lat="49.75575" lon="4.80824">
        <ele>227</ele>
        <time>2022-06-06T07:03:43.000Z</time>
      </trkpt>
      <trkpt lat="49.75578" lon="4.80825">
        <ele>227</ele>
        <time>2022-06-06T07:03:44.000Z</time>
      </trkpt>
      <trkpt lat="49.75581" lon="4.80826">
        <ele>228</ele>
        <time>2022-06-06T07:03:45.000Z</time>
      </trkpt>
      <trkpt lat="49.75584" lon="4.80827">
        <ele>228</ele>
        <time>2022-06-06T07:03:46.000Z</time>
      </trkpt>
      <trkpt lat="49.75587" lon="4.80828">
        <ele>228</ele>
        <time>2022-06-06T07:03:47.000Z</time>
      </trkpt>
      <trkpt lat="49.75589" lon="4.80829">
        <ele>229</ele>
        <time>2022-06-06T07:03:48.000Z</time>
      </trkpt>
      <trkpt lat="49.75591" lon="4.8083">
        <ele>229</ele>
        <time>2022-06-06T07:03:49.000Z</time>
      </trkpt>
      <trkpt lat="49.75593" lon="4.80832">
        <ele>229</ele>
        <time>2022-06-06T07:03:50.000Z</time>
      </trkpt>
      <trkpt lat="49.75596" lon="4.80834">
        <ele>229</ele>
        <time>2022-06-06T07:03:51.000Z</time>
      </trkpt>
      <trkpt lat="49.75598" lon="4.80835">
        <ele>230</ele>
        <time>2022-06-06T07:03:52.000Z</time>
      </trkpt>
      <trkpt lat="49.75601" lon="4.80837">
        <ele>230</ele>
        <time>2022-06-06T07:03:53.000Z</time>
      </trkpt>
      <trkpt lat="49.75604" lon="4.80838">
        <ele>230</ele>
        <time>2022-06-06T07:03:54.000Z</time>
      </trkpt>
      <trkpt lat="49.75607" lon="4.80839">
        <ele>230</ele>
        <time>2022-06-06T07:03:55.000Z</time>
      </trkpt>
      <trkpt lat="49.75611" lon="4.8084">
        <ele>231</ele>
        <time>2022-06-06T07:03:56.000Z</time>
      </trkpt>
      <trkpt lat="49.75614" lon="4.8084">
        <ele>231</ele>
        <time>2022-06-06T07:03:57.000Z</time>
      </trkpt>
      <trkpt lat="49.75617" lon="4.80841">
        <ele>231</ele>
        <time>2022-06-06T07:03:58.000Z</time>
      </trkpt>
      <trkpt lat="49.7562" lon="4.80843">
        <ele>232</ele>
        <time>2022-06-06T07:03:59.000Z</time>
      </trkpt>
      <trkpt lat="49.75622" lon="4.80846">
        <ele>232</ele>
        <time>2022-06-06T07:04:00.000Z</time>
      </trkpt>
      <trkpt lat="49.75625" lon="4.80848">
        <ele>232</ele>
        <time>2022-06-06T07:04:01.000Z</time>
      </trkpt>
      <trkpt lat="49.75628" lon="4.8085">
        <ele>232</ele>
        <time>2022-06-06T07:04:02.000Z</time>
      </trkpt>
      <trkpt lat="49.75632" lon="4.80852">
        <ele>232</ele>
        <time>2022-06-06T07:04:03.000Z</time>
      </trkpt>
      <trkpt lat="49.75636" lon="4.80854">
        <ele>232</ele>
        <time>2022-06-06T07:04:04.000Z</time>
      </trkpt>
      <trkpt lat="49.7564" lon="4.80856">
        <ele>232</ele>
        <time>2022-06-06T07:04:05.000Z</time>
      </trkpt>
      <trkpt lat="49.75643" lon="4.80858">
        <ele>232</ele>
        <time>2022-06-06T07:04:06.000Z</time>
      </trkpt>
      <trkpt lat="49.75647" lon="4.80859">
        <ele>232</ele>
        <time>2022-06-06T07:04:07.000Z</time>
      </trkpt>
      <trkpt lat="49.7565" lon="4.80861">
        <ele>232</ele>
        <time>2022-06-06T07:04:08.000Z</time>
      </trkpt>
      <trkpt lat="49.75654" lon="4.80863">
        <ele>232</ele>
        <time>2022-06-06T07:04:09.000Z</time>
      </trkpt>
      <trkpt lat="49.75657" lon="4.80864">
        <ele>232</ele>
        <time>2022-06-06T07:04:10.000Z</time>
      </trkpt>
      <trkpt lat="49.75661" lon="4.80866">
        <ele>232</ele>
        <time>2022-06-06T07:04:11.000Z</time>
      </trkpt>
      <trkpt lat="49.75665" lon="4.80868">
        <ele>232</ele>
        <time>2022-06-06T07:04:12.000Z</time>
      </trkpt>
      <trkpt lat="49.75669" lon="4.8087">
        <ele>233</ele>
        <time>2022-06-06T07:04:13.000Z</time>
      </trkpt>
      <trkpt lat="49.75673" lon="4.80871">
        <ele>233</ele>
        <time>2022-06-06T07:04:14.000Z</time>
      </trkpt>
      <trkpt lat="49.75676" lon="4.80872">
        <ele>233</ele>
        <time>2022-06-06T07:04:15.000Z</time>
      </trkpt>
      <trkpt lat="49.75679" lon="4.80873">
        <ele>233</ele>
        <time>2022-06-06T07:04:16.000Z</time>
      </trkpt>
      <trkpt lat="49.75682" lon="4.80874">
        <ele>233</ele>
        <time>2022-06-06T07:04:17.000Z</time>
      </trkpt>
      <trkpt lat="49.75685" lon="4.80875">
        <ele>233</ele>
        <time>2022-06-06T07:04:18.000Z</time>
      </trkpt>
      <trkpt lat="49.75688" lon="4.80876">
        <ele>233</ele>
        <time>2022-06-06T07:04:19.000Z</time>
      </trkpt>
      <trkpt lat="49.75691" lon="4.80877">
        <ele>233</ele>
        <time>2022-06-06T07:04:20.000Z</time>
      </trkpt>
      <trkpt lat="49.75694" lon="4.80878">
        <ele>233</ele>
        <time>2022-06-06T07:04:21.000Z</time>
      </trkpt>
      <trkpt lat="49.75698" lon="4.80878">
        <ele>234</ele>
        <time>2022-06-06T07:04:22.000Z</time>
      </trkpt>
      <trkpt lat="49.75701" lon="4.80878">
        <ele>234</ele>
        <time>2022-06-06T07:04:23.000Z</time>
      </trkpt>
      <trkpt lat="49.75705" lon="4.8088">
        <ele>234</ele>
        <time>2022-06-06T07:04:24.000Z</time>
      </trkpt>
      <trkpt lat="49.75709" lon="4.80881">
        <ele>234</ele>
        <time>2022-06-06T07:04:25.000Z</time>
      </trkpt>
      <trkpt lat="49.75713" lon="4.80882">
        <ele>235</ele>
        <time>2022-06-06T07:04:26.000Z</time>
      </trkpt>
      <trkpt lat="49.75716" lon="4.80884">
        <ele>235</ele>
        <time>2022-06-06T07:04:27.000Z</time>
      </trkpt>
      <trkpt lat="49.75719" lon="4.80885">
        <ele>235</ele>
        <time>2022-06-06T07:04:28.000Z</time>
      </trkpt>
      <trkpt lat="49.75723" lon="4.80885">
        <ele>235</ele>
        <time>2022-06-06T07:04:29.000Z</time>
      </trkpt>
      <trkpt lat="49.75726" lon="4.80886">
        <ele>236</ele>
        <time>2022-06-06T07:04:30.000Z</time>
      </trkpt>
      <trkpt lat="49.7573" lon="4.80887">
        <ele>236</ele>
        <time>2022-06-06T07:04:31.000Z</time>
      </trkpt>
      <trkpt lat="49.75733" lon="4.80889">
        <ele>236</ele>
        <time>2022-06-06T07:04:32.000Z</time>
      </trkpt>
      <trkpt lat="49.75737" lon="4.80889">
        <ele>237</ele>
        <time>2022-06-06T07:04:33.000Z</time>
      </trkpt>
      <trkpt lat="49.7574" lon="4.80889">
        <ele>237</ele>
        <time>2022-06-06T07:04:34.000Z</time>
      </trkpt>
      <trkpt lat="49.75744" lon="4.80889">
        <ele>237</ele>
        <time>2022-06-06T07:04:35.000Z</time>
      </trkpt>
      <trkpt lat="49.75747" lon="4.80889">
        <ele>237</ele>
        <time>2022-06-06T07:04:36.000Z</time>
      </trkpt>
      <trkpt lat="49.75751" lon="4.80891">
        <ele>238</ele>
        <time>2022-06-06T07:04:37.000Z</time>
      </trkpt>
      <trkpt lat="49.75755" lon="4.80892">
        <ele>238</ele>
        <time>2022-06-06T07:04:38.000Z</time>
      </trkpt>
      <trkpt lat="49.75758" lon="4.80893">
        <ele>238</ele>
        <time>2022-06-06T07:04:39.000Z</time>
      </trkpt>
      <trkpt lat="49.75761" lon="4.80893">
        <ele>238</ele>
        <time>2022-06-06T07:04:40.000Z</time>
      </trkpt>
      <trkpt lat="49.75765" lon="4.80893">
        <ele>238</ele>
        <time>2022-06-06T07:04:41.000Z</time>
      </trkpt>
      <trkpt lat="49.75768" lon="4.80894">
        <ele>239</ele>
        <time>2022-06-06T07:04:42.000Z</time>
      </trkpt>
      <trkpt lat="49.75772" lon="4.80894">
        <ele>239</ele>
        <time>2022-06-06T07:04:43.000Z</time>
      </trkpt>
      <trkpt lat="49.75776" lon="4.80894">
        <ele>239</ele>
        <time>2022-06-06T07:04:44.000Z</time>
      </trkpt>
      <trkpt lat="49.7578" lon="4.80895">
        <ele>240</ele>
        <time>2022-06-06T07:04:45.000Z</time>
      </trkpt>
      <trkpt lat="49.75784" lon="4.80896">
        <ele>240</ele>
        <time>2022-06-06T07:04:46.000Z</time>
      </trkpt>
      <trkpt lat="49.75788" lon="4.80897">
        <ele>240</ele>
        <time>2022-06-06T07:04:47.000Z</time>
      </trkpt>
      <trkpt lat="49.75791" lon="4.80898">
        <ele>240</ele>
        <time>2022-06-06T07:04:48.000Z</time>
      </trkpt>
      <trkpt lat="49.75794" lon="4.80899">
        <ele>240</ele>
        <time>2022-06-06T07:04:49.000Z</time>
      </trkpt>
      <trkpt lat="49.75797" lon="4.809">
        <ele>240</ele>
        <time>2022-06-06T07:04:50.000Z</time>
      </trkpt>
      <trkpt lat="49.75799" lon="4.809">
        <ele>240</ele>
        <time>2022-06-06T07:04:51.000Z</time>
      </trkpt>
      <trkpt lat="49.75802" lon="4.80901">
        <ele>240</ele>
        <time>2022-06-06T07:04:52.000Z</time>
      </trkpt>
      <trkpt lat="49.75804" lon="4.80902">
        <ele>240</ele>
        <time>2022-06-06T07:04:53.000Z</time>
      </trkpt>
      <trkpt lat="49.75806" lon="4.80902">
        <ele>241</ele>
        <time>2022-06-06T07:04:54.000Z</time>
      </trkpt>
      <trkpt lat="49.75807" lon="4.80903">
        <ele>241</ele>
        <time>2022-06-06T07:04:55.000Z</time>
      </trkpt>
      <trkpt lat="49.75809" lon="4.80904">
        <ele>241</ele>
        <time>2022-06-06T07:04:56.000Z</time>
      </trkpt>
      <trkpt lat="49.7581" lon="4.80905">
        <ele>241</ele>
        <time>2022-06-06T07:04:57.000Z</time>
      </trkpt>
      <trkpt lat="49.75812" lon="4.80906">
        <ele>241</ele>
        <time>2022-06-06T07:04:58.000Z</time>
      </trkpt>
      <trkpt lat="49.75814" lon="4.80907">
        <ele>241</ele>
        <time>2022-06-06T07:04:59.000Z</time>
      </trkpt>
      <trkpt lat="49.75818" lon="4.80908">
        <ele>241</ele>
        <time>2022-06-06T07:05:00.000Z</time>
      </trkpt>
      <trkpt lat="49.75821" lon="4.80909">
        <ele>241</ele>
        <time>2022-06-06T07:05:01.000Z</time>
      </trkpt>
      <trkpt lat="49.75824" lon="4.80911">
        <ele>241</ele>
        <time>2022-06-06T07:05:02.000Z</time>
      </trkpt>
      <trkpt lat="49.75828" lon="4.80913">
        <ele>241</ele>
        <time>2022-06-06T07:05:03.000Z</time>
      </trkpt>
      <trkpt lat="49.75832" lon="4.80914">
        <ele>241</ele>
        <time>2022-06-06T07:05:04.000Z</time>
      </trkpt>
      <trkpt lat="49.75836" lon="4.80916">
        <ele>242</ele>
        <time>2022-06-06T07:05:05.000Z</time>
      </trkpt>
      <trkpt lat="49.75838" lon="4.80918">
        <ele>242</ele>
        <time>2022-06-06T07:05:06.000Z</time>
      </trkpt>
      <trkpt lat="49.75841" lon="4.80921">
        <ele>242</ele>
        <time>2022-06-06T07:05:07.000Z</time>
      </trkpt>
      <trkpt lat="49.75844" lon="4.80924">
        <ele>242</ele>
        <time>2022-06-06T07:05:08.000Z</time>
      </trkpt>
      <trkpt lat="49.75847" lon="4.80927">
        <ele>242</ele>
        <time>2022-06-06T07:05:09.000Z</time>
      </trkpt>
      <trkpt lat="49.7585" lon="4.80931">
        <ele>242</ele>
        <time>2022-06-06T07:05:10.000Z</time>
      </trkpt>
      <trkpt lat="49.75853" lon="4.80934">
        <ele>242</ele>
        <time>2022-06-06T07:05:11.000Z</time>
      </trkpt>
      <trkpt lat="49.75855" lon="4.80938">
        <ele>241</ele>
        <time>2022-06-06T07:05:12.000Z</time>
      </trkpt>
      <trkpt lat="49.75857" lon="4.80941">
        <ele>241</ele>
        <time>2022-06-06T07:05:13.000Z</time>
      </trkpt>
      <trkpt lat="49.7586" lon="4.80944">
        <ele>241</ele>
        <time>2022-06-06T07:05:14.000Z</time>
      </trkpt>
      <trkpt lat="49.75863" lon="4.80947">
        <ele>241</ele>
        <time>2022-06-06T07:05:15.000Z</time>
      </trkpt>
      <trkpt lat="49.75866" lon="4.8095">
        <ele>241</ele>
        <time>2022-06-06T07:05:16.000Z</time>
      </trkpt>
      <trkpt lat="49.75869" lon="4.80952">
        <ele>241</ele>
        <time>2022-06-06T07:05:17.000Z</time>
      </trkpt>
      <trkpt lat="49.75872" lon="4.80955">
        <ele>241</ele>
        <time>2022-06-06T07:05:18.000Z</time>
      </trkpt>
      <trkpt lat="49.75874" lon="4.80958">
        <ele>241</ele>
        <time>2022-06-06T07:05:19.000Z</time>
      </trkpt>
      <trkpt lat="49.75877" lon="4.8096">
        <ele>241</ele>
        <time>2022-06-06T07:05:20.000Z</time>
      </trkpt>
      <trkpt lat="49.7588" lon="4.80963">
        <ele>241</ele>
        <time>2022-06-06T07:05:21.000Z</time>
      </trkpt>
      <trkpt lat="49.75882" lon="4.80966">
        <ele>241</ele>
        <time>2022-06-06T07:05:22.000Z</time>
      </trkpt>
      <trkpt lat="49.75886" lon="4.80969">
        <ele>241</ele>
        <time>2022-06-06T07:05:23.000Z</time>
      </trkpt>
      <trkpt lat="49.75889" lon="4.80972">
        <ele>241</ele>
        <time>2022-06-06T07:05:24.000Z</time>
      </trkpt>
      <trkpt lat="49.75891" lon="4.80976">
        <ele>241</ele>
        <time>2022-06-06T07:05:25.000Z</time>
      </trkpt>
      <trkpt lat="49.75893" lon="4.8098">
        <ele>241</ele>
        <time>2022-06-06T07:05:26.000Z</time>
      </trkpt>
      <trkpt lat="49.75895" lon="4.80984">
        <ele>241</ele>
        <time>2022-06-06T07:05:27.000Z</time>
      </trkpt>
      <trkpt lat="49.75897" lon="4.80987">
        <ele>241</ele>
        <time>2022-06-06T07:05:28.000Z</time>
      </trkpt>
      <trkpt lat="49.759" lon="4.8099">
        <ele>241</ele>
        <time>2022-06-06T07:05:29.000Z</time>
      </trkpt>
      <trkpt lat="49.75902" lon="4.80994">
        <ele>241</ele>
        <time>2022-06-06T07:05:30.000Z</time>
      </trkpt>
      <trkpt lat="49.75905" lon="4.80997">
        <ele>241</ele>
        <time>2022-06-06T07:05:31.000Z</time>
      </trkpt>
      <trkpt lat="49.75907" lon="4.81">
        <ele>241</ele>
        <time>2022-06-06T07:05:32.000Z</time>
      </trkpt>
      <trkpt lat="49.75908" lon="4.81003">
        <ele>241</ele>
        <time>2022-06-06T07:05:33.000Z</time>
      </trkpt>
      <trkpt lat="49.7591" lon="4.81006">
        <ele>241</ele>
        <time>2022-06-06T07:05:34.000Z</time>
      </trkpt>
      <trkpt lat="49.75912" lon="4.81009">
        <ele>241</ele>
        <time>2022-06-06T07:05:35.000Z</time>
      </trkpt>
      <trkpt lat="49.75914" lon="4.81012">
        <ele>242</ele>
        <time>2022-06-06T07:05:36.000Z</time>
      </trkpt>
      <trkpt lat="49.75916" lon="4.81016">
        <ele>242</ele>
        <time>2022-06-06T07:05:37.000Z</time>
      </trkpt>
      <trkpt lat="49.75918" lon="4.8102">
        <ele>242</ele>
        <time>2022-06-06T07:05:38.000Z</time>
      </trkpt>
      <trkpt lat="49.7592" lon="4.81024">
        <ele>242</ele>
        <time>2022-06-06T07:05:39.000Z</time>
      </trkpt>
      <trkpt lat="49.75922" lon="4.81028">
        <ele>242</ele>
        <time>2022-06-06T07:05:40.000Z</time>
      </trkpt>
      <trkpt lat="49.75924" lon="4.81032">
        <ele>242</ele>
        <time>2022-06-06T07:05:41.000Z</time>
      </trkpt>
      <trkpt lat="49.75925" lon="4.81037">
        <ele>242</ele>
        <time>2022-06-06T07:05:42.000Z</time>
      </trkpt>
      <trkpt lat="49.75927" lon="4.81041">
        <ele>243</ele>
        <time>2022-06-06T07:05:43.000Z</time>
      </trkpt>
      <trkpt lat="49.75929" lon="4.81045">
        <ele>243</ele>
        <time>2022-06-06T07:05:44.000Z</time>
      </trkpt>
      <trkpt lat="49.75931" lon="4.81048">
        <ele>243</ele>
        <time>2022-06-06T07:05:45.000Z</time>
      </trkpt>
      <trkpt lat="49.75933" lon="4.81051">
        <ele>243</ele>
        <time>2022-06-06T07:05:46.000Z</time>
      </trkpt>
      <trkpt lat="49.75934" lon="4.81055">
        <ele>243</ele>
        <time>2022-06-06T07:05:47.000Z</time>
      </trkpt>
      <trkpt lat="49.75937" lon="4.81058">
        <ele>244</ele>
        <time>2022-06-06T07:05:48.000Z</time>
      </trkpt>
      <trkpt lat="49.75939" lon="4.81061">
        <ele>244</ele>
        <time>2022-06-06T07:05:49.000Z</time>
      </trkpt>
      <trkpt lat="49.75941" lon="4.81064">
        <ele>244</ele>
        <time>2022-06-06T07:05:50.000Z</time>
      </trkpt>
      <trkpt lat="49.75943" lon="4.81068">
        <ele>244</ele>
        <time>2022-06-06T07:05:51.000Z</time>
      </trkpt>
      <trkpt lat="49.75945" lon="4.81072">
        <ele>245</ele>
        <time>2022-06-06T07:05:52.000Z</time>
      </trkpt>
      <trkpt lat="49.75946" lon="4.81076">
        <ele>245</ele>
        <time>2022-06-06T07:05:53.000Z</time>
      </trkpt>
      <trkpt lat="49.75948" lon="4.8108">
        <ele>245</ele>
        <time>2022-06-06T07:05:54.000Z</time>
      </trkpt>
      <trkpt lat="49.75951" lon="4.81085">
        <ele>245</ele>
        <time>2022-06-06T07:05:55.000Z</time>
      </trkpt>
      <trkpt lat="49.75954" lon="4.81089">
        <ele>245</ele>
        <time>2022-06-06T07:05:56.000Z</time>
      </trkpt>
      <trkpt lat="49.75956" lon="4.81093">
        <ele>245</ele>
        <time>2022-06-06T07:05:57.000Z</time>
      </trkpt>
      <trkpt lat="49.75958" lon="4.81097">
        <ele>245</ele>
        <time>2022-06-06T07:05:58.000Z</time>
      </trkpt>
      <trkpt lat="49.7596" lon="4.811">
        <ele>246</ele>
        <time>2022-06-06T07:05:59.000Z</time>
      </trkpt>
      <trkpt lat="49.75961" lon="4.81104">
        <ele>246</ele>
        <time>2022-06-06T07:06:00.000Z</time>
      </trkpt>
      <trkpt lat="49.75964" lon="4.81107">
        <ele>246</ele>
        <time>2022-06-06T07:06:01.000Z</time>
      </trkpt>
      <trkpt lat="49.75967" lon="4.8111">
        <ele>246</ele>
        <time>2022-06-06T07:06:02.000Z</time>
      </trkpt>
      <trkpt lat="49.7597" lon="4.81114">
        <ele>246</ele>
        <time>2022-06-06T07:06:03.000Z</time>
      </trkpt>
      <trkpt lat="49.75972" lon="4.81117">
        <ele>246</ele>
        <time>2022-06-06T07:06:04.000Z</time>
      </trkpt>
      <trkpt lat="49.75974" lon="4.8112">
        <ele>247</ele>
        <time>2022-06-06T07:06:05.000Z</time>
      </trkpt>
      <trkpt lat="49.75977" lon="4.81123">
        <ele>247</ele>
        <time>2022-06-06T07:06:06.000Z</time>
      </trkpt>
      <trkpt lat="49.7598" lon="4.81126">
        <ele>247</ele>
        <time>2022-06-06T07:06:07.000Z</time>
      </trkpt>
      <trkpt lat="49.75982" lon="4.81129">
        <ele>247</ele>
        <time>2022-06-06T07:06:08.000Z</time>
      </trkpt>
      <trkpt lat="49.75984" lon="4.81132">
        <ele>247</ele>
        <time>2022-06-06T07:06:09.000Z</time>
      </trkpt>
      <trkpt lat="49.75986" lon="4.81134">
        <ele>247</ele>
        <time>2022-06-06T07:06:10.000Z</time>
      </trkpt>
      <trkpt lat="49.75989" lon="4.81136">
        <ele>248</ele>
        <time>2022-06-06T07:06:11.000Z</time>
      </trkpt>
      <trkpt lat="49.75992" lon="4.81138">
        <ele>248</ele>
        <time>2022-06-06T07:06:12.000Z</time>
      </trkpt>
      <trkpt lat="49.75994" lon="4.81141">
        <ele>248</ele>
        <time>2022-06-06T07:06:13.000Z</time>
      </trkpt>
      <trkpt lat="49.75998" lon="4.81145">
        <ele>248</ele>
        <time>2022-06-06T07:06:14.000Z</time>
      </trkpt>
      <trkpt lat="49.76" lon="4.81149">
        <ele>248</ele>
        <time>2022-06-06T07:06:15.000Z</time>
      </trkpt>
      <trkpt lat="49.76002" lon="4.81154">
        <ele>249</ele>
        <time>2022-06-06T07:06:16.000Z</time>
      </trkpt>
      <trkpt lat="49.76004" lon="4.81158">
        <ele>249</ele>
        <time>2022-06-06T07:06:17.000Z</time>
      </trkpt>
      <trkpt lat="49.76007" lon="4.81161">
        <ele>249</ele>
        <time>2022-06-06T07:06:18.000Z</time>
      </trkpt>
      <trkpt lat="49.76009" lon="4.81164">
        <ele>249</ele>
        <time>2022-06-06T07:06:19.000Z</time>
      </trkpt>
      <trkpt lat="49.76012" lon="4.81167">
        <ele>249</ele>
        <time>2022-06-06T07:06:20.000Z</time>
      </trkpt>
      <trkpt lat="49.76014" lon="4.81171">
        <ele>249</ele>
        <time>2022-06-06T07:06:21.000Z</time>
      </trkpt>
      <trkpt lat="49.76015" lon="4.81175">
        <ele>250</ele>
        <time>2022-06-06T07:06:22.000Z</time>
      </trkpt>
      <trkpt lat="49.76017" lon="4.81178">
        <ele>250</ele>
        <time>2022-06-06T07:06:23.000Z</time>
      </trkpt>
      <trkpt lat="49.7602" lon="4.81181">
        <ele>250</ele>
        <time>2022-06-06T07:06:24.000Z</time>
      </trkpt>
      <trkpt lat="49.76022" lon="4.81184">
        <ele>250</ele>
        <time>2022-06-06T07:06:25.000Z</time>
      </trkpt>
      <trkpt lat="49.76025" lon="4.81187">
        <ele>250</ele>
        <time>2022-06-06T07:06:26.000Z</time>
      </trkpt>
      <trkpt lat="49.76027" lon="4.81191">
        <ele>250</ele>
        <time>2022-06-06T07:06:27.000Z</time>
      </trkpt>
      <trkpt lat="49.76029" lon="4.81194">
        <ele>250</ele>
        <time>2022-06-06T07:06:28.000Z</time>
      </trkpt>
      <trkpt lat="49.76032" lon="4.81196">
        <ele>250</ele>
        <time>2022-06-06T07:06:29.000Z</time>
      </trkpt>
      <trkpt lat="49.76034" lon="4.81198">
        <ele>249</ele>
        <time>2022-06-06T07:06:30.000Z</time>
      </trkpt>
      <trkpt lat="49.76036" lon="4.812">
        <ele>249</ele>
        <time>2022-06-06T07:06:31.000Z</time>
      </trkpt>
      <trkpt lat="49.76038" lon="4.81203">
        <ele>249</ele>
        <time>2022-06-06T07:06:32.000Z</time>
      </trkpt>
      <trkpt lat="49.76039" lon="4.81206">
        <ele>249</ele>
        <time>2022-06-06T07:06:33.000Z</time>
      </trkpt>
      <trkpt lat="49.76041" lon="4.81209">
        <ele>250</ele>
        <time>2022-06-06T07:06:34.000Z</time>
      </trkpt>
      <trkpt lat="49.76043" lon="4.81211">
        <ele>250</ele>
        <time>2022-06-06T07:06:35.000Z</time>
      </trkpt>
      <trkpt lat="49.76046" lon="4.81214">
        <ele>250</ele>
        <time>2022-06-06T07:06:36.000Z</time>
      </trkpt>
      <trkpt lat="49.76048" lon="4.81217">
        <ele>250</ele>
        <time>2022-06-06T07:06:37.000Z</time>
      </trkpt>
      <trkpt lat="49.76051" lon="4.81219">
        <ele>250</ele>
        <time>2022-06-06T07:06:38.000Z</time>
      </trkpt>
      <trkpt lat="49.76054" lon="4.81221">
        <ele>250</ele>
        <time>2022-06-06T07:06:39.000Z</time>
      </trkpt>
      <trkpt lat="49.76057" lon="4.81224">
        <ele>250</ele>
        <time>2022-06-06T07:06:40.000Z</time>
      </trkpt>
      <trkpt lat="49.76059" lon="4.81227">
        <ele>250</ele>
        <time>2022-06-06T07:06:41.000Z</time>
      </trkpt>
      <trkpt lat="49.76061" lon="4.8123">
        <ele>250</ele>
        <time>2022-06-06T07:06:42.000Z</time>
      </trkpt>
      <trkpt lat="49.76063" lon="4.81233">
        <ele>250</ele>
        <time>2022-06-06T07:06:43.000Z</time>
      </trkpt>
      <trkpt lat="49.76066" lon="4.81236">
        <ele>250</ele>
        <time>2022-06-06T07:06:44.000Z</time>
      </trkpt>
      <trkpt lat="49.76068" lon="4.81239">
        <ele>250</ele>
        <time>2022-06-06T07:06:45.000Z</time>
      </trkpt>
      <trkpt lat="49.7607" lon="4.81242">
        <ele>250</ele>
        <time>2022-06-06T07:06:46.000Z</time>
      </trkpt>
      <trkpt lat="49.76073" lon="4.81245">
        <ele>250</ele>
        <time>2022-06-06T07:06:47.000Z</time>
      </trkpt>
      <trkpt lat="49.76075" lon="4.81247">
        <ele>250</ele>
        <time>2022-06-06T07:06:48.000Z</time>
      </trkpt>
      <trkpt lat="49.76078" lon="4.81251">
        <ele>250</ele>
        <time>2022-06-06T07:06:49.000Z</time>
      </trkpt>
      <trkpt lat="49.76081" lon="4.81254">
        <ele>250</ele>
        <time>2022-06-06T07:06:50.000Z</time>
      </trkpt>
      <trkpt lat="49.76084" lon="4.81256">
        <ele>250</ele>
        <time>2022-06-06T07:06:51.000Z</time>
      </trkpt>
      <trkpt lat="49.76087" lon="4.81257">
        <ele>250</ele>
        <time>2022-06-06T07:06:52.000Z</time>
      </trkpt>
      <trkpt lat="49.7609" lon="4.81259">
        <ele>250</ele>
        <time>2022-06-06T07:06:53.000Z</time>
      </trkpt>
      <trkpt lat="49.76092" lon="4.81261">
        <ele>250</ele>
        <time>2022-06-06T07:06:54.000Z</time>
      </trkpt>
      <trkpt lat="49.76095" lon="4.81262">
        <ele>250</ele>
        <time>2022-06-06T07:06:55.000Z</time>
      </trkpt>
      <trkpt lat="49.76098" lon="4.81264">
        <ele>251</ele>
        <time>2022-06-06T07:06:56.000Z</time>
      </trkpt>
      <trkpt lat="49.76101" lon="4.81266">
        <ele>251</ele>
        <time>2022-06-06T07:06:57.000Z</time>
      </trkpt>
      <trkpt lat="49.76104" lon="4.81269">
        <ele>251</ele>
        <time>2022-06-06T07:06:58.000Z</time>
      </trkpt>
      <trkpt lat="49.76106" lon="4.81272">
        <ele>251</ele>
        <time>2022-06-06T07:06:59.000Z</time>
      </trkpt>
      <trkpt lat="49.76109" lon="4.81275">
        <ele>252</ele>
        <time>2022-06-06T07:07:00.000Z</time>
      </trkpt>
      <trkpt lat="49.76111" lon="4.81277">
        <ele>252</ele>
        <time>2022-06-06T07:07:01.000Z</time>
      </trkpt>
      <trkpt lat="49.76112" lon="4.8128">
        <ele>252</ele>
        <time>2022-06-06T07:07:02.000Z</time>
      </trkpt>
      <trkpt lat="49.76113" lon="4.81283">
        <ele>253</ele>
        <time>2022-06-06T07:07:03.000Z</time>
      </trkpt>
      <trkpt lat="49.76115" lon="4.81284">
        <ele>253</ele>
        <time>2022-06-06T07:07:04.000Z</time>
      </trkpt>
      <trkpt lat="49.76117" lon="4.81286">
        <ele>253</ele>
        <time>2022-06-06T07:07:05.000Z</time>
      </trkpt>
      <trkpt lat="49.76119" lon="4.81288">
        <ele>253</ele>
        <time>2022-06-06T07:07:06.000Z</time>
      </trkpt>
      <trkpt lat="49.76121" lon="4.81289">
        <ele>253</ele>
        <time>2022-06-06T07:07:07.000Z</time>
      </trkpt>
      <trkpt lat="49.76124" lon="4.81291">
        <ele>254</ele>
        <time>2022-06-06T07:07:08.000Z</time>
      </trkpt>
      <trkpt lat="49.76126" lon="4.81294">
        <ele>254</ele>
        <time>2022-06-06T07:07:09.000Z</time>
      </trkpt>
      <trkpt lat="49.76128" lon="4.81297">
        <ele>254</ele>
        <time>2022-06-06T07:07:10.000Z</time>
      </trkpt>
      <trkpt lat="49.7613" lon="4.813">
        <ele>254</ele>
        <time>2022-06-06T07:07:11.000Z</time>
      </trkpt>
      <trkpt lat="49.76132" lon="4.81303">
        <ele>254</ele>
        <time>2022-06-06T07:07:12.000Z</time>
      </trkpt>
      <trkpt lat="49.76133" lon="4.81306">
        <ele>254</ele>
        <time>2022-06-06T07:07:13.000Z</time>
      </trkpt>
      <trkpt lat="49.76134" lon="4.81309">
        <ele>255</ele>
        <time>2022-06-06T07:07:14.000Z</time>
      </trkpt>
      <trkpt lat="49.76134" lon="4.81312">
        <ele>255</ele>
        <time>2022-06-06T07:07:15.000Z</time>
      </trkpt>
      <trkpt lat="49.76134" lon="4.81314">
        <ele>255</ele>
        <time>2022-06-06T07:07:16.000Z</time>
      </trkpt>
      <trkpt lat="49.76134" lon="4.81317">
        <ele>255</ele>
        <time>2022-06-06T07:07:17.000Z</time>
      </trkpt>
      <trkpt lat="49.76134" lon="4.8132">
        <ele>255</ele>
        <time>2022-06-06T07:07:18.000Z</time>
      </trkpt>
      <trkpt lat="49.76134" lon="4.81324">
        <ele>255</ele>
        <time>2022-06-06T07:07:19.000Z</time>
      </trkpt>
      <trkpt lat="49.76133" lon="4.81327">
        <ele>255</ele>
        <time>2022-06-06T07:07:20.000Z</time>
      </trkpt>
      <trkpt lat="49.76134" lon="4.81329">
        <ele>255</ele>
        <time>2022-06-06T07:07:21.000Z</time>
      </trkpt>
      <trkpt lat="49.76134" lon="4.81332">
        <ele>255</ele>
        <time>2022-06-06T07:07:22.000Z</time>
      </trkpt>
      <trkpt lat="49.76134" lon="4.81334">
        <ele>255</ele>
        <time>2022-06-06T07:07:23.000Z</time>
      </trkpt>
      <trkpt lat="49.76133" lon="4.81337">
        <ele>256</ele>
        <time>2022-06-06T07:07:24.000Z</time>
      </trkpt>
      <trkpt lat="49.76133" lon="4.81339">
        <ele>256</ele>
        <time>2022-06-06T07:07:25.000Z</time>
      </trkpt>
      <trkpt lat="49.76133" lon="4.81342">
        <ele>256</ele>
        <time>2022-06-06T07:07:26.000Z</time>
      </trkpt>
      <trkpt lat="49.76133" lon="4.81344">
        <ele>256</ele>
        <time>2022-06-06T07:07:27.000Z</time>
      </trkpt>
      <trkpt lat="49.76133" lon="4.81347">
        <ele>256</ele>
        <time>2022-06-06T07:07:28.000Z</time>
      </trkpt>
      <trkpt lat="49.76134" lon="4.81349">
        <ele>257</ele>
        <time>2022-06-06T07:07:29.000Z</time>
      </trkpt>
      <trkpt lat="49.76134" lon="4.81351">
        <ele>257</ele>
        <time>2022-06-06T07:07:30.000Z</time>
      </trkpt>
      <trkpt lat="49.76135" lon="4.81353">
        <ele>257</ele>
        <time>2022-06-06T07:07:31.000Z</time>
      </trkpt>
      <trkpt lat="49.76135" lon="4.81355">
        <ele>258</ele>
        <time>2022-06-06T07:07:32.000Z</time>
      </trkpt>
      <trkpt lat="49.76134" lon="4.81358">
        <ele>258</ele>
        <time>2022-06-06T07:07:33.000Z</time>
      </trkpt>
      <trkpt lat="49.76134" lon="4.8136">
        <ele>258</ele>
        <time>2022-06-06T07:07:34.000Z</time>
      </trkpt>
      <trkpt lat="49.76134" lon="4.81363">
        <ele>258</ele>
        <time>2022-06-06T07:07:35.000Z</time>
      </trkpt>
      <trkpt lat="49.76133" lon="4.81366">
        <ele>258</ele>
        <time>2022-06-06T07:07:36.000Z</time>
      </trkpt>
      <trkpt lat="49.76132" lon="4.81369">
        <ele>259</ele>
        <time>2022-06-06T07:07:37.000Z</time>
      </trkpt>
      <trkpt lat="49.76132" lon="4.81372">
        <ele>259</ele>
        <time>2022-06-06T07:07:38.000Z</time>
      </trkpt>
      <trkpt lat="49.76132" lon="4.81375">
        <ele>259</ele>
        <time>2022-06-06T07:07:39.000Z</time>
      </trkpt>
      <trkpt lat="49.76131" lon="4.81379">
        <ele>259</ele>
        <time>2022-06-06T07:07:40.000Z</time>
      </trkpt>
      <trkpt lat="49.76131" lon="4.81382">
        <ele>259</ele>
        <time>2022-06-06T07:07:41.000Z</time>
      </trkpt>
      <trkpt lat="49.76131" lon="4.81386">
        <ele>259</ele>
        <time>2022-06-06T07:07:42.000Z</time>
      </trkpt>
      <trkpt lat="49.76131" lon="4.81389">
        <ele>259</ele>
        <time>2022-06-06T07:07:43.000Z</time>
      </trkpt>
      <trkpt lat="49.76131" lon="4.81392">
        <ele>260</ele>
        <time>2022-06-06T07:07:44.000Z</time>
      </trkpt>
      <trkpt lat="49.76131" lon="4.81395">
        <ele>260</ele>
        <time>2022-06-06T07:07:45.000Z</time>
      </trkpt>
      <trkpt lat="49.7613" lon="4.81399">
        <ele>260</ele>
        <time>2022-06-06T07:07:46.000Z</time>
      </trkpt>
      <trkpt lat="49.7613" lon="4.81402">
        <ele>260</ele>
        <time>2022-06-06T07:07:47.000Z</time>
      </trkpt>
      <trkpt lat="49.7613" lon="4.81406">
        <ele>260</ele>
        <time>2022-06-06T07:07:48.000Z</time>
      </trkpt>
      <trkpt lat="49.7613" lon="4.8141">
        <ele>260</ele>
        <time>2022-06-06T07:07:49.000Z</time>
      </trkpt>
      <trkpt lat="49.7613" lon="4.81413">
        <ele>260</ele>
        <time>2022-06-06T07:07:50.000Z</time>
      </trkpt>
      <trkpt lat="49.76131" lon="4.81416">
        <ele>260</ele>
        <time>2022-06-06T07:07:51.000Z</time>
      </trkpt>
      <trkpt lat="49.76132" lon="4.81419">
        <ele>261</ele>
        <time>2022-06-06T07:07:52.000Z</time>
      </trkpt>
      <trkpt lat="49.76134" lon="4.81422">
        <ele>261</ele>
        <time>2022-06-06T07:07:53.000Z</time>
      </trkpt>
      <trkpt lat="49.76136" lon="4.81425">
        <ele>261</ele>
        <time>2022-06-06T07:07:54.000Z</time>
      </trkpt>
      <trkpt lat="49.76138" lon="4.81427">
        <ele>261</ele>
        <time>2022-06-06T07:07:55.000Z</time>
      </trkpt>
      <trkpt lat="49.76141" lon="4.81428">
        <ele>262</ele>
        <time>2022-06-06T07:07:56.000Z</time>
      </trkpt>
      <trkpt lat="49.76143" lon="4.81429">
        <ele>262</ele>
        <time>2022-06-06T07:07:57.000Z</time>
      </trkpt>
      <trkpt lat="49.76144" lon="4.8143">
        <ele>262</ele>
        <time>2022-06-06T07:07:58.000Z</time>
      </trkpt>
      <trkpt lat="49.76146" lon="4.81431">
        <ele>262</ele>
        <time>2022-06-06T07:07:59.000Z</time>
      </trkpt>
      <trkpt lat="49.76148" lon="4.81432">
        <ele>262</ele>
        <time>2022-06-06T07:08:00.000Z</time>
      </trkpt>
      <trkpt lat="49.7615" lon="4.81433">
        <ele>263</ele>
        <time>2022-06-06T07:08:01.000Z</time>
      </trkpt>
      <trkpt lat="49.76153" lon="4.81434">
        <ele>263</ele>
        <time>2022-06-06T07:08:02.000Z</time>
      </trkpt>
      <trkpt lat="49.76156" lon="4.81435">
        <ele>263</ele>
        <time>2022-06-06T07:08:03.000Z</time>
      </trkpt>
      <trkpt lat="49.76159" lon="4.81436">
        <ele>263</ele>
        <time>2022-06-06T07:08:04.000Z</time>
      </trkpt>
      <trkpt lat="49.76162" lon="4.81437">
        <ele>264</ele>
        <time>2022-06-06T07:08:05.000Z</time>
      </trkpt>
      <trkpt lat="49.76165" lon="4.81438">
        <ele>264</ele>
        <time>2022-06-06T07:08:06.000Z</time>
      </trkpt>
      <trkpt lat="49.76169" lon="4.81439">
        <ele>264</ele>
        <time>2022-06-06T07:08:07.000Z</time>
      </trkpt>
      <trkpt lat="49.76172" lon="4.81439">
        <ele>264</ele>
        <time>2022-06-06T07:08:08.000Z</time>
      </trkpt>
      <trkpt lat="49.76176" lon="4.81439">
        <ele>265</ele>
        <time>2022-06-06T07:08:09.000Z</time>
      </trkpt>
      <trkpt lat="49.76179" lon="4.81437">
        <ele>265</ele>
        <time>2022-06-06T07:08:10.000Z</time>
      </trkpt>
      <trkpt lat="49.76181" lon="4.81436">
        <ele>265</ele>
        <time>2022-06-06T07:08:11.000Z</time>
      </trkpt>
      <trkpt lat="49.76182" lon="4.81432">
        <ele>265</ele>
        <time>2022-06-06T07:08:12.000Z</time>
      </trkpt>
      <trkpt lat="49.76182" lon="4.81426">
        <ele>265</ele>
        <time>2022-06-06T07:08:13.000Z</time>
      </trkpt>
      <trkpt lat="49.76182" lon="4.81418">
        <ele>265</ele>
        <time>2022-06-06T07:08:14.000Z</time>
      </trkpt>
      <trkpt lat="49.76183" lon="4.8141">
        <ele>265</ele>
        <time>2022-06-06T07:08:15.000Z</time>
      </trkpt>
      <trkpt lat="49.76184" lon="4.81401">
        <ele>265</ele>
        <time>2022-06-06T07:08:16.000Z</time>
      </trkpt>
      <trkpt lat="49.76185" lon="4.81392">
        <ele>265</ele>
        <time>2022-06-06T07:08:17.000Z</time>
      </trkpt>
      <trkpt lat="49.76185" lon="4.81382">
        <ele>265</ele>
        <time>2022-06-06T07:08:18.000Z</time>
      </trkpt>
      <trkpt lat="49.76185" lon="4.81372">
        <ele>265</ele>
        <time>2022-06-06T07:08:19.000Z</time>
      </trkpt>
      <trkpt lat="49.76185" lon="4.81361">
        <ele>265</ele>
        <time>2022-06-06T07:08:20.000Z</time>
      </trkpt>
      <trkpt lat="49.76186" lon="4.81349">
        <ele>265</ele>
        <time>2022-06-06T07:08:21.000Z</time>
      </trkpt>
      <trkpt lat="49.76187" lon="4.81337">
        <ele>265</ele>
        <time>2022-06-06T07:08:22.000Z</time>
      </trkpt>
      <trkpt lat="49.76187" lon="4.81325">
        <ele>265</ele>
        <time>2022-06-06T07:08:23.000Z</time>
      </trkpt>
      <trkpt lat="49.76188" lon="4.81313">
        <ele>265</ele>
        <time>2022-06-06T07:08:24.000Z</time>
      </trkpt>
      <trkpt lat="49.7619" lon="4.81303">
        <ele>265</ele>
        <time>2022-06-06T07:08:25.000Z</time>
      </trkpt>
      <trkpt lat="49.76191" lon="4.81295">
        <ele>265</ele>
        <time>2022-06-06T07:08:26.000Z</time>
      </trkpt>
      <trkpt lat="49.76192" lon="4.81286">
        <ele>265</ele>
        <time>2022-06-06T07:08:27.000Z</time>
      </trkpt>
      <trkpt lat="49.76192" lon="4.81279">
        <ele>265</ele>
        <time>2022-06-06T07:08:28.000Z</time>
      </trkpt>
      <trkpt lat="49.76191" lon="4.81273">
        <ele>265</ele>
        <time>2022-06-06T07:08:29.000Z</time>
      </trkpt>
      <trkpt lat="49.76191" lon="4.81267">
        <ele>265</ele>
        <time>2022-06-06T07:08:30.000Z</time>
      </trkpt>
      <trkpt lat="49.76191" lon="4.81261">
        <ele>265</ele>
        <time>2022-06-06T07:08:31.000Z</time>
      </trkpt>
      <trkpt lat="49.76192" lon="4.81255">
        <ele>265</ele>
        <time>2022-06-06T07:08:32.000Z</time>
      </trkpt>
      <trkpt lat="49.76192" lon="4.81249">
        <ele>265</ele>
        <time>2022-06-06T07:08:33.000Z</time>
      </trkpt>
      <trkpt lat="49.76193" lon="4.81243">
        <ele>265</ele>
        <time>2022-06-06T07:08:34.000Z</time>
      </trkpt>
      <trkpt lat="49.76193" lon="4.81236">
        <ele>265</ele>
        <time>2022-06-06T07:08:35.000Z</time>
      </trkpt>
      <trkpt lat="49.76193" lon="4.8123">
        <ele>265</ele>
        <time>2022-06-06T07:08:36.000Z</time>
      </trkpt>
      <trkpt lat="49.76194" lon="4.81223">
        <ele>265</ele>
        <time>2022-06-06T07:08:37.000Z</time>
      </trkpt>
      <trkpt lat="49.76194" lon="4.81217">
        <ele>265</ele>
        <time>2022-06-06T07:08:38.000Z</time>
      </trkpt>
      <trkpt lat="49.76194" lon="4.81211">
        <ele>265</ele>
        <time>2022-06-06T07:08:39.000Z</time>
      </trkpt>
      <trkpt lat="49.76195" lon="4.81205">
        <ele>265</ele>
        <time>2022-06-06T07:08:40.000Z</time>
      </trkpt>
      <trkpt lat="49.76195" lon="4.81199">
        <ele>265</ele>
        <time>2022-06-06T07:08:41.000Z</time>
      </trkpt>
      <trkpt lat="49.76196" lon="4.81192">
        <ele>265</ele>
        <time>2022-06-06T07:08:42.000Z</time>
      </trkpt>
      <trkpt lat="49.76196" lon="4.81186">
        <ele>265</ele>
        <time>2022-06-06T07:08:43.000Z</time>
      </trkpt>
      <trkpt lat="49.76197" lon="4.8118">
        <ele>265</ele>
        <time>2022-06-06T07:08:44.000Z</time>
      </trkpt>
      <trkpt lat="49.76197" lon="4.81174">
        <ele>265</ele>
        <time>2022-06-06T07:08:45.000Z</time>
      </trkpt>
      <trkpt lat="49.76198" lon="4.81167">
        <ele>265</ele>
        <time>2022-06-06T07:08:46.000Z</time>
      </trkpt>
      <trkpt lat="49.76198" lon="4.81161">
        <ele>265</ele>
        <time>2022-06-06T07:08:47.000Z</time>
      </trkpt>
      <trkpt lat="49.76198" lon="4.81154">
        <ele>265</ele>
        <time>2022-06-06T07:08:48.000Z</time>
      </trkpt>
      <trkpt lat="49.76199" lon="4.81147">
        <ele>265</ele>
        <time>2022-06-06T07:08:49.000Z</time>
      </trkpt>
      <trkpt lat="49.762" lon="4.8114">
        <ele>265</ele>
        <time>2022-06-06T07:08:50.000Z</time>
      </trkpt>
      <trkpt lat="49.76201" lon="4.81133">
        <ele>265</ele>
        <time>2022-06-06T07:08:51.000Z</time>
      </trkpt>
      <trkpt lat="49.76202" lon="4.81126">
        <ele>265</ele>
        <time>2022-06-06T07:08:52.000Z</time>
      </trkpt>
      <trkpt lat="49.76203" lon="4.81118">
        <ele>265</ele>
        <time>2022-06-06T07:08:53.000Z</time>
      </trkpt>
      <trkpt lat="49.76204" lon="4.8111">
        <ele>265</ele>
        <time>2022-06-06T07:08:54.000Z</time>
      </trkpt>
      <trkpt lat="49.76204" lon="4.81101">
        <ele>265</ele>
        <time>2022-06-06T07:08:55.000Z</time>
      </trkpt>
      <trkpt lat="49.76204" lon="4.81091">
        <ele>265</ele>
        <time>2022-06-06T07:08:56.000Z</time>
      </trkpt>
      <trkpt lat="49.76204" lon="4.81081">
        <ele>265</ele>
        <time>2022-06-06T07:08:57.000Z</time>
      </trkpt>
      <trkpt lat="49.76204" lon="4.8107">
        <ele>265</ele>
        <time>2022-06-06T07:08:58.000Z</time>
      </trkpt>
      <trkpt lat="49.76204" lon="4.8106">
        <ele>265</ele>
        <time>2022-06-06T07:08:59.000Z</time>
      </trkpt>
      <trkpt lat="49.76204" lon="4.8105">
        <ele>265</ele>
        <time>2022-06-06T07:09:00.000Z</time>
      </trkpt>
      <trkpt lat="49.76204" lon="4.8104">
        <ele>265</ele>
        <time>2022-06-06T07:09:01.000Z</time>
      </trkpt>
      <trkpt lat="49.76203" lon="4.81031">
        <ele>265</ele>
        <time>2022-06-06T07:09:02.000Z</time>
      </trkpt>
      <trkpt lat="49.76203" lon="4.81022">
        <ele>265</ele>
        <time>2022-06-06T07:09:03.000Z</time>
      </trkpt>
      <trkpt lat="49.76203" lon="4.81013">
        <ele>264</ele>
        <time>2022-06-06T07:09:04.000Z</time>
      </trkpt>
      <trkpt lat="49.76204" lon="4.81005">
        <ele>264</ele>
        <time>2022-06-06T07:09:05.000Z</time>
      </trkpt>
      <trkpt lat="49.76205" lon="4.80998">
        <ele>264</ele>
        <time>2022-06-06T07:09:06.000Z</time>
      </trkpt>
      <trkpt lat="49.76206" lon="4.80991">
        <ele>264</ele>
        <time>2022-06-06T07:09:07.000Z</time>
      </trkpt>
      <trkpt lat="49.76206" lon="4.80984">
        <ele>264</ele>
        <time>2022-06-06T07:09:08.000Z</time>
      </trkpt>
      <trkpt lat="49.76206" lon="4.80976">
        <ele>264</ele>
        <time>2022-06-06T07:09:09.000Z</time>
      </trkpt>
      <trkpt lat="49.76205" lon="4.80969">
        <ele>264</ele>
        <time>2022-06-06T07:09:10.000Z</time>
      </trkpt>
      <trkpt lat="49.76206" lon="4.80962">
        <ele>264</ele>
        <time>2022-06-06T07:09:11.000Z</time>
      </trkpt>
      <trkpt lat="49.76206" lon="4.80956">
        <ele>264</ele>
        <time>2022-06-06T07:09:12.000Z</time>
      </trkpt>
      <trkpt lat="49.76205" lon="4.80948">
        <ele>264</ele>
        <time>2022-06-06T07:09:13.000Z</time>
      </trkpt>
      <trkpt lat="49.76204" lon="4.80941">
        <ele>264</ele>
        <time>2022-06-06T07:09:14.000Z</time>
      </trkpt>
      <trkpt lat="49.76204" lon="4.80933">
        <ele>264</ele>
        <time>2022-06-06T07:09:15.000Z</time>
      </trkpt>
      <trkpt lat="49.76205" lon="4.80926">
        <ele>264</ele>
        <time>2022-06-06T07:09:16.000Z</time>
      </trkpt>
      <trkpt lat="49.76207" lon="4.80919">
        <ele>264</ele>
        <time>2022-06-06T07:09:17.000Z</time>
      </trkpt>
      <trkpt lat="49.76211" lon="4.80915">
        <ele>264</ele>
        <time>2022-06-06T07:09:18.000Z</time>
      </trkpt>
      <trkpt lat="49.76215" lon="4.80912">
        <ele>264</ele>
        <time>2022-06-06T07:09:19.000Z</time>
      </trkpt>
      <trkpt lat="49.7622" lon="4.80911">
        <ele>264</ele>
        <time>2022-06-06T07:09:20.000Z</time>
      </trkpt>
      <trkpt lat="49.76224" lon="4.80912">
        <ele>264</ele>
        <time>2022-06-06T07:09:21.000Z</time>
      </trkpt>
      <trkpt lat="49.76228" lon="4.80913">
        <ele>264</ele>
        <time>2022-06-06T07:09:22.000Z</time>
      </trkpt>
      <trkpt lat="49.76231" lon="4.80914">
        <ele>264</ele>
        <time>2022-06-06T07:09:23.000Z</time>
      </trkpt>
      <trkpt lat="49.76235" lon="4.80915">
        <ele>264</ele>
        <time>2022-06-06T07:09:24.000Z</time>
      </trkpt>
      <trkpt lat="49.76238" lon="4.80916">
        <ele>264</ele>
        <time>2022-06-06T07:09:25.000Z</time>
      </trkpt>
      <trkpt lat="49.76241" lon="4.80918">
        <ele>265</ele>
        <time>2022-06-06T07:09:26.000Z</time>
      </trkpt>
      <trkpt lat="49.76244" lon="4.80919">
        <ele>265</ele>
        <time>2022-06-06T07:09:27.000Z</time>
      </trkpt>
      <trkpt lat="49.76247" lon="4.8092">
        <ele>265</ele>
        <time>2022-06-06T07:09:28.000Z</time>
      </trkpt>
      <trkpt lat="49.7625" lon="4.80921">
        <ele>265</ele>
        <time>2022-06-06T07:09:29.000Z</time>
      </trkpt>
      <trkpt lat="49.76253" lon="4.80922">
        <ele>265</ele>
        <time>2022-06-06T07:09:30.000Z</time>
      </trkpt>
      <trkpt lat="49.76256" lon="4.80923">
        <ele>265</ele>
        <time>2022-06-06T07:09:31.000Z</time>
      </trkpt>
      <trkpt lat="49.76259" lon="4.80924">
        <ele>266</ele>
        <time>2022-06-06T07:09:32.000Z</time>
      </trkpt>
      <trkpt lat="49.76262" lon="4.80925">
        <ele>266</ele>
        <time>2022-06-06T07:09:33.000Z</time>
      </trkpt>
      <trkpt lat="49.76265" lon="4.80927">
        <ele>266</ele>
        <time>2022-06-06T07:09:34.000Z</time>
      </trkpt>
      <trkpt lat="49.76268" lon="4.80928">
        <ele>266</ele>
        <time>2022-06-06T07:09:35.000Z</time>
      </trkpt>
      <trkpt lat="49.76271" lon="4.80929">
        <ele>266</ele>
        <time>2022-06-06T07:09:36.000Z</time>
      </trkpt>
      <trkpt lat="49.76274" lon="4.8093">
        <ele>266</ele>
        <time>2022-06-06T07:09:37.000Z</time>
      </trkpt>
      <trkpt lat="49.76277" lon="4.80931">
        <ele>266</ele>
        <time>2022-06-06T07:09:38.000Z</time>
      </trkpt>
      <trkpt lat="49.7628" lon="4.80933">
        <ele>267</ele>
        <time>2022-06-06T07:09:39.000Z</time>
      </trkpt>
      <trkpt lat="49.76283" lon="4.80934">
        <ele>267</ele>
        <time>2022-06-06T07:09:40.000Z</time>
      </trkpt>
      <trkpt lat="49.76286" lon="4.80935">
        <ele>267</ele>
        <time>2022-06-06T07:09:41.000Z</time>
      </trkpt>
      <trkpt lat="49.76288" lon="4.80936">
        <ele>267</ele>
        <time>2022-06-06T07:09:42.000Z</time>
      </trkpt>
      <trkpt lat="49.76291" lon="4.80938">
        <ele>267</ele>
        <time>2022-06-06T07:09:43.000Z</time>
      </trkpt>
      <trkpt lat="49.76294" lon="4.80939">
        <ele>267</ele>
        <time>2022-06-06T07:09:44.000Z</time>
      </trkpt>
      <trkpt lat="49.76297" lon="4.8094">
        <ele>267</ele>
        <time>2022-06-06T07:09:45.000Z</time>
      </trkpt>
      <trkpt lat="49.763" lon="4.8094">
        <ele>267</ele>
        <time>2022-06-06T07:09:46.000Z</time>
      </trkpt>
      <trkpt lat="49.76302" lon="4.8094">
        <ele>268</ele>
        <time>2022-06-06T07:09:47.000Z</time>
      </trkpt>
      <trkpt lat="49.76305" lon="4.8094">
        <ele>268</ele>
        <time>2022-06-06T07:09:48.000Z</time>
      </trkpt>
      <trkpt lat="49.76307" lon="4.80938">
        <ele>268</ele>
        <time>2022-06-06T07:09:49.000Z</time>
      </trkpt>
      <trkpt lat="49.76309" lon="4.80935">
        <ele>268</ele>
        <time>2022-06-06T07:09:50.000Z</time>
      </trkpt>
      <trkpt lat="49.7631" lon="4.8093">
        <ele>268</ele>
        <time>2022-06-06T07:09:51.000Z</time>
      </trkpt>
      <trkpt lat="49.7631" lon="4.80925">
        <ele>268</ele>
        <time>2022-06-06T07:09:52.000Z</time>
      </trkpt>
      <trkpt lat="49.76311" lon="4.80919">
        <ele>268</ele>
        <time>2022-06-06T07:09:53.000Z</time>
      </trkpt>
      <trkpt lat="49.76312" lon="4.80914">
        <ele>268</ele>
        <time>2022-06-06T07:09:54.000Z</time>
      </trkpt>
      <trkpt lat="49.76313" lon="4.80909">
        <ele>268</ele>
        <time>2022-06-06T07:09:55.000Z</time>
      </trkpt>
      <trkpt lat="49.76314" lon="4.80904">
        <ele>268</ele>
        <time>2022-06-06T07:09:56.000Z</time>
      </trkpt>
      <trkpt lat="49.76315" lon="4.80899">
        <ele>268</ele>
        <time>2022-06-06T07:09:57.000Z</time>
      </trkpt>
      <trkpt lat="49.76315" lon="4.80893">
        <ele>268</ele>
        <time>2022-06-06T07:09:58.000Z</time>
      </trkpt>
      <trkpt lat="49.76316" lon="4.80886">
        <ele>268</ele>
        <time>2022-06-06T07:09:59.000Z</time>
      </trkpt>
      <trkpt lat="49.76316" lon="4.80879">
        <ele>268</ele>
        <time>2022-06-06T07:10:00.000Z</time>
      </trkpt>
      <trkpt lat="49.76316" lon="4.80873">
        <ele>268</ele>
        <time>2022-06-06T07:10:01.000Z</time>
      </trkpt>
      <trkpt lat="49.76317" lon="4.80867">
        <ele>268</ele>
        <time>2022-06-06T07:10:02.000Z</time>
      </trkpt>
      <trkpt lat="49.76317" lon="4.80861">
        <ele>268</ele>
        <time>2022-06-06T07:10:03.000Z</time>
      </trkpt>
      <trkpt lat="49.76318" lon="4.80855">
        <ele>268</ele>
        <time>2022-06-06T07:10:04.000Z</time>
      </trkpt>
      <trkpt lat="49.76318" lon="4.80849">
        <ele>268</ele>
        <time>2022-06-06T07:10:05.000Z</time>
      </trkpt>
      <trkpt lat="49.76318" lon="4.80843">
        <ele>268</ele>
        <time>2022-06-06T07:10:06.000Z</time>
      </trkpt>
      <trkpt lat="49.76317" lon="4.80837">
        <ele>268</ele>
        <time>2022-06-06T07:10:07.000Z</time>
      </trkpt>
      <trkpt lat="49.76317" lon="4.80831">
        <ele>268</ele>
        <time>2022-06-06T07:10:08.000Z</time>
      </trkpt>
      <trkpt lat="49.76317" lon="4.80825">
        <ele>268</ele>
        <time>2022-06-06T07:10:09.000Z</time>
      </trkpt>
      <trkpt lat="49.76316" lon="4.80819">
        <ele>268</ele>
        <time>2022-06-06T07:10:10.000Z</time>
      </trkpt>
      <trkpt lat="49.76316" lon="4.80812">
        <ele>269</ele>
        <time>2022-06-06T07:10:11.000Z</time>
      </trkpt>
      <trkpt lat="49.76315" lon="4.80805">
        <ele>269</ele>
        <time>2022-06-06T07:10:12.000Z</time>
      </trkpt>
      <trkpt lat="49.76315" lon="4.80798">
        <ele>269</ele>
        <time>2022-06-06T07:10:13.000Z</time>
      </trkpt>
      <trkpt lat="49.76315" lon="4.80792">
        <ele>269</ele>
        <time>2022-06-06T07:10:14.000Z</time>
      </trkpt>
      <trkpt lat="49.76315" lon="4.80785">
        <ele>269</ele>
        <time>2022-06-06T07:10:15.000Z</time>
      </trkpt>
      <trkpt lat="49.76315" lon="4.80778">
        <ele>269</ele>
        <time>2022-06-06T07:10:16.000Z</time>
      </trkpt>
      <trkpt lat="49.76315" lon="4.80771">
        <ele>269</ele>
        <time>2022-06-06T07:10:17.000Z</time>
      </trkpt>
      <trkpt lat="49.76316" lon="4.80765">
        <ele>269</ele>
        <time>2022-06-06T07:10:18.000Z</time>
      </trkpt>
      <trkpt lat="49.76317" lon="4.80758">
        <ele>269</ele>
        <time>2022-06-06T07:10:19.000Z</time>
      </trkpt>
      <trkpt lat="49.76318" lon="4.80751">
        <ele>269</ele>
        <time>2022-06-06T07:10:20.000Z</time>
      </trkpt>
      <trkpt lat="49.76319" lon="4.80744">
        <ele>269</ele>
        <time>2022-06-06T07:10:21.000Z</time>
      </trkpt>
      <trkpt lat="49.76321" lon="4.80738">
        <ele>270</ele>
        <time>2022-06-06T07:10:22.000Z</time>
      </trkpt>
      <trkpt lat="49.76324" lon="4.80732">
        <ele>270</ele>
        <time>2022-06-06T07:10:23.000Z</time>
      </trkpt>
      <trkpt lat="49.76326" lon="4.80727">
        <ele>270</ele>
        <time>2022-06-06T07:10:24.000Z</time>
      </trkpt>
      <trkpt lat="49.76328" lon="4.80721">
        <ele>270</ele>
        <time>2022-06-06T07:10:25.000Z</time>
      </trkpt>
      <trkpt lat="49.76331" lon="4.80716">
        <ele>270</ele>
        <time>2022-06-06T07:10:26.000Z</time>
      </trkpt>
      <trkpt lat="49.76333" lon="4.80711">
        <ele>270</ele>
        <time>2022-06-06T07:10:27.000Z</time>
      </trkpt>
      <trkpt lat="49.76336" lon="4.80707">
        <ele>270</ele>
        <time>2022-06-06T07:10:28.000Z</time>
      </trkpt>
      <trkpt lat="49.76339" lon="4.80702">
        <ele>270</ele>
        <time>2022-06-06T07:10:29.000Z</time>
      </trkpt>
      <trkpt lat="49.76342" lon="4.80697">
        <ele>270</ele>
        <time>2022-06-06T07:10:30.000Z</time>
      </trkpt>
      <trkpt lat="49.76345" lon="4.80692">
        <ele>270</ele>
        <time>2022-06-06T07:10:31.000Z</time>
      </trkpt>
      <trkpt lat="49.76348" lon="4.80687">
        <ele>270</ele>
        <time>2022-06-06T07:10:32.000Z</time>
      </trkpt>
      <trkpt lat="49.76351" lon="4.80681">
        <ele>270</ele>
        <time>2022-06-06T07:10:33.000Z</time>
      </trkpt>
      <trkpt lat="49.76355" lon="4.80675">
        <ele>271</ele>
        <time>2022-06-06T07:10:34.000Z</time>
      </trkpt>
      <trkpt lat="49.76358" lon="4.80669">
        <ele>271</ele>
        <time>2022-06-06T07:10:35.000Z</time>
      </trkpt>
      <trkpt lat="49.76362" lon="4.80663">
        <ele>271</ele>
        <time>2022-06-06T07:10:36.000Z</time>
      </trkpt>
      <trkpt lat="49.76367" lon="4.80658">
        <ele>271</ele>
        <time>2022-06-06T07:10:37.000Z</time>
      </trkpt>
      <trkpt lat="49.76372" lon="4.80653">
        <ele>271</ele>
        <time>2022-06-06T07:10:38.000Z</time>
      </trkpt>
      <trkpt lat="49.76377" lon="4.80648">
        <ele>271</ele>
        <time>2022-06-06T07:10:39.000Z</time>
      </trkpt>
      <trkpt lat="49.76382" lon="4.80643">
        <ele>271</ele>
        <time>2022-06-06T07:10:40.000Z</time>
      </trkpt>
      <trkpt lat="49.76387" lon="4.80638">
        <ele>271</ele>
        <time>2022-06-06T07:10:41.000Z</time>
      </trkpt>
      <trkpt lat="49.76393" lon="4.80634">
        <ele>271</ele>
        <time>2022-06-06T07:10:42.000Z</time>
      </trkpt>
      <trkpt lat="49.76398" lon="4.8063">
        <ele>271</ele>
        <time>2022-06-06T07:10:43.000Z</time>
      </trkpt>
      <trkpt lat="49.76403" lon="4.80626">
        <ele>271</ele>
        <time>2022-06-06T07:10:44.000Z</time>
      </trkpt>
      <trkpt lat="49.76408" lon="4.80622">
        <ele>271</ele>
        <time>2022-06-06T07:10:45.000Z</time>
      </trkpt>
      <trkpt lat="49.76414" lon="4.80618">
        <ele>271</ele>
        <time>2022-06-06T07:10:46.000Z</time>
      </trkpt>
      <trkpt lat="49.7642" lon="4.80615">
        <ele>271</ele>
        <time>2022-06-06T07:10:47.000Z</time>
      </trkpt>
      <trkpt lat="49.76425" lon="4.80611">
        <ele>271</ele>
        <time>2022-06-06T07:10:48.000Z</time>
      </trkpt>
      <trkpt lat="49.76431" lon="4.80607">
        <ele>271</ele>
        <time>2022-06-06T07:10:49.000Z</time>
      </trkpt>
      <trkpt lat="49.76437" lon="4.80602">
        <ele>271</ele>
        <time>2022-06-06T07:10:50.000Z</time>
      </trkpt>
      <trkpt lat="49.76442" lon="4.80598">
        <ele>271</ele>
        <time>2022-06-06T07:10:51.000Z</time>
      </trkpt>
      <trkpt lat="49.76448" lon="4.80594">
        <ele>271</ele>
        <time>2022-06-06T07:10:52.000Z</time>
      </trkpt>
      <trkpt lat="49.76453" lon="4.80589">
        <ele>271</ele>
        <time>2022-06-06T07:10:53.000Z</time>
      </trkpt>
      <trkpt lat="49.76458" lon="4.80585">
        <ele>271</ele>
        <time>2022-06-06T07:10:54.000Z</time>
      </trkpt>
      <trkpt lat="49.76463" lon="4.80581">
        <ele>271</ele>
        <time>2022-06-06T07:10:55.000Z</time>
      </trkpt>
      <trkpt lat="49.76468" lon="4.80577">
        <ele>272</ele>
        <time>2022-06-06T07:10:56.000Z</time>
      </trkpt>
      <trkpt lat="49.76473" lon="4.80572">
        <ele>272</ele>
        <time>2022-06-06T07:10:57.000Z</time>
      </trkpt>
      <trkpt lat="49.76478" lon="4.80568">
        <ele>272</ele>
        <time>2022-06-06T07:10:58.000Z</time>
      </trkpt>
      <trkpt lat="49.76482" lon="4.80564">
        <ele>272</ele>
        <time>2022-06-06T07:10:59.000Z</time>
      </trkpt>
      <trkpt lat="49.76487" lon="4.8056">
        <ele>272</ele>
        <time>2022-06-06T07:11:00.000Z</time>
      </trkpt>
      <trkpt lat="49.76491" lon="4.80557">
        <ele>272</ele>
        <time>2022-06-06T07:11:01.000Z</time>
      </trkpt>
      <trkpt lat="49.76494" lon="4.80553">
        <ele>272</ele>
        <time>2022-06-06T07:11:02.000Z</time>
      </trkpt>
      <trkpt lat="49.76498" lon="4.8055">
        <ele>272</ele>
        <time>2022-06-06T07:11:03.000Z</time>
      </trkpt>
      <trkpt lat="49.76501" lon="4.80546">
        <ele>272</ele>
        <time>2022-06-06T07:11:04.000Z</time>
      </trkpt>
      <trkpt lat="49.76505" lon="4.80542">
        <ele>272</ele>
        <time>2022-06-06T07:11:05.000Z</time>
      </trkpt>
      <trkpt lat="49.76508" lon="4.80538">
        <ele>272</ele>
        <time>2022-06-06T07:11:06.000Z</time>
      </trkpt>
      <trkpt lat="49.76511" lon="4.80534">
        <ele>272</ele>
        <time>2022-06-06T07:11:07.000Z</time>
      </trkpt>
      <trkpt lat="49.76514" lon="4.8053">
        <ele>272</ele>
        <time>2022-06-06T07:11:08.000Z</time>
      </trkpt>
      <trkpt lat="49.76517" lon="4.80526">
        <ele>272</ele>
        <time>2022-06-06T07:11:09.000Z</time>
      </trkpt>
      <trkpt lat="49.76521" lon="4.80523">
        <ele>272</ele>
        <time>2022-06-06T07:11:10.000Z</time>
      </trkpt>
      <trkpt lat="49.76525" lon="4.8052">
        <ele>272</ele>
        <time>2022-06-06T07:11:11.000Z</time>
      </trkpt>
      <trkpt lat="49.76529" lon="4.80519">
        <ele>272</ele>
        <time>2022-06-06T07:11:12.000Z</time>
      </trkpt>
      <trkpt lat="49.76534" lon="4.80519">
        <ele>272</ele>
        <time>2022-06-06T07:11:13.000Z</time>
      </trkpt>
      <trkpt lat="49.76538" lon="4.80519">
        <ele>272</ele>
        <time>2022-06-06T07:11:14.000Z</time>
      </trkpt>
      <trkpt lat="49.76542" lon="4.80518">
        <ele>272</ele>
        <time>2022-06-06T07:11:15.000Z</time>
      </trkpt>
      <trkpt lat="49.76546" lon="4.80516">
        <ele>272</ele>
        <time>2022-06-06T07:11:16.000Z</time>
      </trkpt>
      <trkpt lat="49.7655" lon="4.80515">
        <ele>272</ele>
        <time>2022-06-06T07:11:17.000Z</time>
      </trkpt>
      <trkpt lat="49.76554" lon="4.80514">
        <ele>272</ele>
        <time>2022-06-06T07:11:18.000Z</time>
      </trkpt>
      <trkpt lat="49.76558" lon="4.80513">
        <ele>272</ele>
        <time>2022-06-06T07:11:19.000Z</time>
      </trkpt>
      <trkpt lat="49.76562" lon="4.80512">
        <ele>272</ele>
        <time>2022-06-06T07:11:20.000Z</time>
      </trkpt>
      <trkpt lat="49.76567" lon="4.8051">
        <ele>272</ele>
        <time>2022-06-06T07:11:21.000Z</time>
      </trkpt>
      <trkpt lat="49.76571" lon="4.80508">
        <ele>273</ele>
        <time>2022-06-06T07:11:22.000Z</time>
      </trkpt>
      <trkpt lat="49.76575" lon="4.80506">
        <ele>273</ele>
        <time>2022-06-06T07:11:23.000Z</time>
      </trkpt>
      <trkpt lat="49.7658" lon="4.80504">
        <ele>273</ele>
        <time>2022-06-06T07:11:24.000Z</time>
      </trkpt>
      <trkpt lat="49.76583" lon="4.80502">
        <ele>273</ele>
        <time>2022-06-06T07:11:25.000Z</time>
      </trkpt>
      <trkpt lat="49.76587" lon="4.80501">
        <ele>273</ele>
        <time>2022-06-06T07:11:26.000Z</time>
      </trkpt>
      <trkpt lat="49.7659" lon="4.805">
        <ele>274</ele>
        <time>2022-06-06T07:11:27.000Z</time>
      </trkpt>
      <trkpt lat="49.76593" lon="4.80499">
        <ele>274</ele>
        <time>2022-06-06T07:11:28.000Z</time>
      </trkpt>
      <trkpt lat="49.76597" lon="4.80497">
        <ele>274</ele>
        <time>2022-06-06T07:11:29.000Z</time>
      </trkpt>
      <trkpt lat="49.766" lon="4.80496">
        <ele>274</ele>
        <time>2022-06-06T07:11:30.000Z</time>
      </trkpt>
      <trkpt lat="49.76604" lon="4.80494">
        <ele>274</ele>
        <time>2022-06-06T07:11:31.000Z</time>
      </trkpt>
      <trkpt lat="49.76607" lon="4.80492">
        <ele>274</ele>
        <time>2022-06-06T07:11:32.000Z</time>
      </trkpt>
      <trkpt lat="49.7661" lon="4.80491">
        <ele>275</ele>
        <time>2022-06-06T07:11:33.000Z</time>
      </trkpt>
      <trkpt lat="49.76613" lon="4.8049">
        <ele>275</ele>
        <time>2022-06-06T07:11:34.000Z</time>
      </trkpt>
      <trkpt lat="49.76616" lon="4.80489">
        <ele>275</ele>
        <time>2022-06-06T07:11:35.000Z</time>
      </trkpt>
      <trkpt lat="49.76621" lon="4.80487">
        <ele>275</ele>
        <time>2022-06-06T07:11:36.000Z</time>
      </trkpt>
      <trkpt lat="49.76625" lon="4.80486">
        <ele>275</ele>
        <time>2022-06-06T07:11:37.000Z</time>
      </trkpt>
      <trkpt lat="49.76629" lon="4.80485">
        <ele>275</ele>
        <time>2022-06-06T07:11:38.000Z</time>
      </trkpt>
      <trkpt lat="49.76634" lon="4.80484">
        <ele>276</ele>
        <time>2022-06-06T07:11:39.000Z</time>
      </trkpt>
      <trkpt lat="49.76638" lon="4.80483">
        <ele>276</ele>
        <time>2022-06-06T07:11:40.000Z</time>
      </trkpt>
      <trkpt lat="49.76641" lon="4.80482">
        <ele>276</ele>
        <time>2022-06-06T07:11:41.000Z</time>
      </trkpt>
      <trkpt lat="49.76645" lon="4.8048">
        <ele>276</ele>
        <time>2022-06-06T07:11:42.000Z</time>
      </trkpt>
      <trkpt lat="49.76649" lon="4.80479">
        <ele>277</ele>
        <time>2022-06-06T07:11:43.000Z</time>
      </trkpt>
      <trkpt lat="49.76653" lon="4.80478">
        <ele>277</ele>
        <time>2022-06-06T07:11:44.000Z</time>
      </trkpt>
      <trkpt lat="49.76657" lon="4.80478">
        <ele>277</ele>
        <time>2022-06-06T07:11:45.000Z</time>
      </trkpt>
      <trkpt lat="49.76661" lon="4.80478">
        <ele>278</ele>
        <time>2022-06-06T07:11:46.000Z</time>
      </trkpt>
      <trkpt lat="49.76665" lon="4.80478">
        <ele>278</ele>
        <time>2022-06-06T07:11:47.000Z</time>
      </trkpt>
      <trkpt lat="49.76669" lon="4.80479">
        <ele>278</ele>
        <time>2022-06-06T07:11:48.000Z</time>
      </trkpt>
      <trkpt lat="49.76673" lon="4.8048">
        <ele>278</ele>
        <time>2022-06-06T07:11:49.000Z</time>
      </trkpt>
      <trkpt lat="49.76676" lon="4.8048">
        <ele>279</ele>
        <time>2022-06-06T07:11:50.000Z</time>
      </trkpt>
      <trkpt lat="49.76679" lon="4.8048">
        <ele>279</ele>
        <time>2022-06-06T07:11:51.000Z</time>
      </trkpt>
      <trkpt lat="49.76683" lon="4.80479">
        <ele>279</ele>
        <time>2022-06-06T07:11:52.000Z</time>
      </trkpt>
      <trkpt lat="49.76686" lon="4.80479">
        <ele>279</ele>
        <time>2022-06-06T07:11:53.000Z</time>
      </trkpt>
      <trkpt lat="49.76689" lon="4.80478">
        <ele>279</ele>
        <time>2022-06-06T07:11:54.000Z</time>
      </trkpt>
      <trkpt lat="49.76693" lon="4.80477">
        <ele>279</ele>
        <time>2022-06-06T07:11:55.000Z</time>
      </trkpt>
      <trkpt lat="49.76696" lon="4.80476">
        <ele>279</ele>
        <time>2022-06-06T07:11:56.000Z</time>
      </trkpt>
      <trkpt lat="49.767" lon="4.80475">
        <ele>279</ele>
        <time>2022-06-06T07:11:57.000Z</time>
      </trkpt>
      <trkpt lat="49.76704" lon="4.80474">
        <ele>279</ele>
        <time>2022-06-06T07:11:58.000Z</time>
      </trkpt>
      <trkpt lat="49.76708" lon="4.80472">
        <ele>279</ele>
        <time>2022-06-06T07:11:59.000Z</time>
      </trkpt>
      <trkpt lat="49.76712" lon="4.80471">
        <ele>279</ele>
        <time>2022-06-06T07:12:00.000Z</time>
      </trkpt>
      <trkpt lat="49.76716" lon="4.8047">
        <ele>279</ele>
        <time>2022-06-06T07:12:01.000Z</time>
      </trkpt>
      <trkpt lat="49.7672" lon="4.80468">
        <ele>279</ele>
        <time>2022-06-06T07:12:02.000Z</time>
      </trkpt>
      <trkpt lat="49.76724" lon="4.80467">
        <ele>279</ele>
        <time>2022-06-06T07:12:03.000Z</time>
      </trkpt>
      <trkpt lat="49.76729" lon="4.80466">
        <ele>279</ele>
        <time>2022-06-06T07:12:04.000Z</time>
      </trkpt>
      <trkpt lat="49.76733" lon="4.80465">
        <ele>279</ele>
        <time>2022-06-06T07:12:05.000Z</time>
      </trkpt>
      <trkpt lat="49.76737" lon="4.80463">
        <ele>279</ele>
        <time>2022-06-06T07:12:06.000Z</time>
      </trkpt>
      <trkpt lat="49.76741" lon="4.80462">
        <ele>279</ele>
        <time>2022-06-06T07:12:07.000Z</time>
      </trkpt>
      <trkpt lat="49.76745" lon="4.80461">
        <ele>279</ele>
        <time>2022-06-06T07:12:08.000Z</time>
      </trkpt>
      <trkpt lat="49.76748" lon="4.8046">
        <ele>279</ele>
        <time>2022-06-06T07:12:09.000Z</time>
      </trkpt>
      <trkpt lat="49.76753" lon="4.80459">
        <ele>279</ele>
        <time>2022-06-06T07:12:10.000Z</time>
      </trkpt>
      <trkpt lat="49.76757" lon="4.80459">
        <ele>279</ele>
        <time>2022-06-06T07:12:11.000Z</time>
      </trkpt>
      <trkpt lat="49.76761" lon="4.80458">
        <ele>279</ele>
        <time>2022-06-06T07:12:12.000Z</time>
      </trkpt>
      <trkpt lat="49.76764" lon="4.80458">
        <ele>279</ele>
        <time>2022-06-06T07:12:13.000Z</time>
      </trkpt>
      <trkpt lat="49.76768" lon="4.80458">
        <ele>279</ele>
        <time>2022-06-06T07:12:14.000Z</time>
      </trkpt>
      <trkpt lat="49.76771" lon="4.80457">
        <ele>278</ele>
        <time>2022-06-06T07:12:15.000Z</time>
      </trkpt>
      <trkpt lat="49.76775" lon="4.80456">
        <ele>278</ele>
        <time>2022-06-06T07:12:16.000Z</time>
      </trkpt>
      <trkpt lat="49.76778" lon="4.80455">
        <ele>278</ele>
        <time>2022-06-06T07:12:17.000Z</time>
      </trkpt>
      <trkpt lat="49.76781" lon="4.80454">
        <ele>278</ele>
        <time>2022-06-06T07:12:18.000Z</time>
      </trkpt>
      <trkpt lat="49.76784" lon="4.80453">
        <ele>278</ele>
        <time>2022-06-06T07:12:19.000Z</time>
      </trkpt>
      <trkpt lat="49.76788" lon="4.80452">
        <ele>278</ele>
        <time>2022-06-06T07:12:20.000Z</time>
      </trkpt>
      <trkpt lat="49.76791" lon="4.80451">
        <ele>278</ele>
        <time>2022-06-06T07:12:21.000Z</time>
      </trkpt>
      <trkpt lat="49.76795" lon="4.8045">
        <ele>278</ele>
        <time>2022-06-06T07:12:22.000Z</time>
      </trkpt>
      <trkpt lat="49.76798" lon="4.80448">
        <ele>278</ele>
        <time>2022-06-06T07:12:23.000Z</time>
      </trkpt>
      <trkpt lat="49.76802" lon="4.80446">
        <ele>278</ele>
        <time>2022-06-06T07:12:24.000Z</time>
      </trkpt>
      <trkpt lat="49.76805" lon="4.80444">
        <ele>278</ele>
        <time>2022-06-06T07:12:25.000Z</time>
      </trkpt>
      <trkpt lat="49.76807" lon="4.80443">
        <ele>278</ele>
        <time>2022-06-06T07:12:26.000Z</time>
      </trkpt>
      <trkpt lat="49.76809" lon="4.80442">
        <ele>278</ele>
        <time>2022-06-06T07:12:27.000Z</time>
      </trkpt>
      <trkpt lat="49.76812" lon="4.8044">
        <ele>278</ele>
        <time>2022-06-06T07:12:28.000Z</time>
      </trkpt>
      <trkpt lat="49.76814" lon="4.80437">
        <ele>279</ele>
        <time>2022-06-06T07:12:29.000Z</time>
      </trkpt>
      <trkpt lat="49.76817" lon="4.80435">
        <ele>279</ele>
        <time>2022-06-06T07:12:30.000Z</time>
      </trkpt>
      <trkpt lat="49.76821" lon="4.80432">
        <ele>279</ele>
        <time>2022-06-06T07:12:31.000Z</time>
      </trkpt>
      <trkpt lat="49.76825" lon="4.8043">
        <ele>279</ele>
        <time>2022-06-06T07:12:32.000Z</time>
      </trkpt>
      <trkpt lat="49.76828" lon="4.80427">
        <ele>279</ele>
        <time>2022-06-06T07:12:33.000Z</time>
      </trkpt>
      <trkpt lat="49.76832" lon="4.80424">
        <ele>279</ele>
        <time>2022-06-06T07:12:34.000Z</time>
      </trkpt>
      <trkpt lat="49.76836" lon="4.8042">
        <ele>279</ele>
        <time>2022-06-06T07:12:35.000Z</time>
      </trkpt>
      <trkpt lat="49.7684" lon="4.80416">
        <ele>279</ele>
        <time>2022-06-06T07:12:36.000Z</time>
      </trkpt>
      <trkpt lat="49.76845" lon="4.80413">
        <ele>280</ele>
        <time>2022-06-06T07:12:37.000Z</time>
      </trkpt>
      <trkpt lat="49.76849" lon="4.80411">
        <ele>280</ele>
        <time>2022-06-06T07:12:38.000Z</time>
      </trkpt>
      <trkpt lat="49.76853" lon="4.80408">
        <ele>280</ele>
        <time>2022-06-06T07:12:39.000Z</time>
      </trkpt>
      <trkpt lat="49.76858" lon="4.80406">
        <ele>280</ele>
        <time>2022-06-06T07:12:40.000Z</time>
      </trkpt>
      <trkpt lat="49.76862" lon="4.80403">
        <ele>280</ele>
        <time>2022-06-06T07:12:41.000Z</time>
      </trkpt>
      <trkpt lat="49.76866" lon="4.80401">
        <ele>281</ele>
        <time>2022-06-06T07:12:42.000Z</time>
      </trkpt>
      <trkpt lat="49.76871" lon="4.80398">
        <ele>281</ele>
        <time>2022-06-06T07:12:43.000Z</time>
      </trkpt>
      <trkpt lat="49.76875" lon="4.80396">
        <ele>281</ele>
        <time>2022-06-06T07:12:44.000Z</time>
      </trkpt>
      <trkpt lat="49.76879" lon="4.80394">
        <ele>281</ele>
        <time>2022-06-06T07:12:45.000Z</time>
      </trkpt>
      <trkpt lat="49.76882" lon="4.80392">
        <ele>282</ele>
        <time>2022-06-06T07:12:46.000Z</time>
      </trkpt>
      <trkpt lat="49.76886" lon="4.80389">
        <ele>282</ele>
        <time>2022-06-06T07:12:47.000Z</time>
      </trkpt>
      <trkpt lat="49.76889" lon="4.80387">
        <ele>282</ele>
        <time>2022-06-06T07:12:48.000Z</time>
      </trkpt>
      <trkpt lat="49.76893" lon="4.80384">
        <ele>282</ele>
        <time>2022-06-06T07:12:49.000Z</time>
      </trkpt>
      <trkpt lat="49.76896" lon="4.8038">
        <ele>282</ele>
        <time>2022-06-06T07:12:50.000Z</time>
      </trkpt>
      <trkpt lat="49.769" lon="4.80376">
        <ele>282</ele>
        <time>2022-06-06T07:12:51.000Z</time>
      </trkpt>
      <trkpt lat="49.76904" lon="4.80371">
        <ele>283</ele>
        <time>2022-06-06T07:12:52.000Z</time>
      </trkpt>
      <trkpt lat="49.76907" lon="4.80367">
        <ele>283</ele>
        <time>2022-06-06T07:12:53.000Z</time>
      </trkpt>
      <trkpt lat="49.7691" lon="4.80362">
        <ele>283</ele>
        <time>2022-06-06T07:12:54.000Z</time>
      </trkpt>
      <trkpt lat="49.76914" lon="4.80358">
        <ele>283</ele>
        <time>2022-06-06T07:12:55.000Z</time>
      </trkpt>
      <trkpt lat="49.76917" lon="4.80353">
        <ele>283</ele>
        <time>2022-06-06T07:12:56.000Z</time>
      </trkpt>
      <trkpt lat="49.7692" lon="4.80348">
        <ele>283</ele>
        <time>2022-06-06T07:12:57.000Z</time>
      </trkpt>
      <trkpt lat="49.76924" lon="4.80344">
        <ele>283</ele>
        <time>2022-06-06T07:12:58.000Z</time>
      </trkpt>
      <trkpt lat="49.76928" lon="4.80341">
        <ele>283</ele>
        <time>2022-06-06T07:12:59.000Z</time>
      </trkpt>
      <trkpt lat="49.76931" lon="4.80338">
        <ele>284</ele>
        <time>2022-06-06T07:13:00.000Z</time>
      </trkpt>
      <trkpt lat="49.76934" lon="4.80336">
        <ele>284</ele>
        <time>2022-06-06T07:13:01.000Z</time>
      </trkpt>
      <trkpt lat="49.76937" lon="4.80334">
        <ele>284</ele>
        <time>2022-06-06T07:13:02.000Z</time>
      </trkpt>
      <trkpt lat="49.76939" lon="4.80332">
        <ele>284</ele>
        <time>2022-06-06T07:13:03.000Z</time>
      </trkpt>
      <trkpt lat="49.76941" lon="4.8033">
        <ele>284</ele>
        <time>2022-06-06T07:13:04.000Z</time>
      </trkpt>
      <trkpt lat="49.76943" lon="4.80327">
        <ele>284</ele>
        <time>2022-06-06T07:13:05.000Z</time>
      </trkpt>
      <trkpt lat="49.76945" lon="4.80326">
        <ele>284</ele>
        <time>2022-06-06T07:13:06.000Z</time>
      </trkpt>
      <trkpt lat="49.76946" lon="4.80324">
        <ele>284</ele>
        <time>2022-06-06T07:13:07.000Z</time>
      </trkpt>
      <trkpt lat="49.76948" lon="4.80322">
        <ele>284</ele>
        <time>2022-06-06T07:13:08.000Z</time>
      </trkpt>
      <trkpt lat="49.7695" lon="4.80319">
        <ele>284</ele>
        <time>2022-06-06T07:13:09.000Z</time>
      </trkpt>
      <trkpt lat="49.76952" lon="4.80316">
        <ele>285</ele>
        <time>2022-06-06T07:13:10.000Z</time>
      </trkpt>
      <trkpt lat="49.76954" lon="4.80313">
        <ele>285</ele>
        <time>2022-06-06T07:13:11.000Z</time>
      </trkpt>
      <trkpt lat="49.76956" lon="4.8031">
        <ele>285</ele>
        <time>2022-06-06T07:13:12.000Z</time>
      </trkpt>
      <trkpt lat="49.76958" lon="4.80307">
        <ele>285</ele>
        <time>2022-06-06T07:13:13.000Z</time>
      </trkpt>
      <trkpt lat="49.7696" lon="4.80304">
        <ele>285</ele>
        <time>2022-06-06T07:13:14.000Z</time>
      </trkpt>
      <trkpt lat="49.76961" lon="4.80302">
        <ele>286</ele>
        <time>2022-06-06T07:13:15.000Z</time>
      </trkpt>
      <trkpt lat="49.76963" lon="4.80299">
        <ele>286</ele>
        <time>2022-06-06T07:13:16.000Z</time>
      </trkpt>
      <trkpt lat="49.76966" lon="4.80296">
        <ele>286</ele>
        <time>2022-06-06T07:13:17.000Z</time>
      </trkpt>
      <trkpt lat="49.76968" lon="4.80293">
        <ele>286</ele>
        <time>2022-06-06T07:13:18.000Z</time>
      </trkpt>
      <trkpt lat="49.76971" lon="4.8029">
        <ele>286</ele>
        <time>2022-06-06T07:13:19.000Z</time>
      </trkpt>
      <trkpt lat="49.76973" lon="4.80288">
        <ele>287</ele>
        <time>2022-06-06T07:13:20.000Z</time>
      </trkpt>
      <trkpt lat="49.76975" lon="4.80285">
        <ele>287</ele>
        <time>2022-06-06T07:13:21.000Z</time>
      </trkpt>
      <trkpt lat="49.76977" lon="4.80282">
        <ele>287</ele>
        <time>2022-06-06T07:13:22.000Z</time>
      </trkpt>
      <trkpt lat="49.7698" lon="4.80279">
        <ele>288</ele>
        <time>2022-06-06T07:13:23.000Z</time>
      </trkpt>
      <trkpt lat="49.76982" lon="4.80276">
        <ele>288</ele>
        <time>2022-06-06T07:13:24.000Z</time>
      </trkpt>
      <trkpt lat="49.76984" lon="4.80274">
        <ele>288</ele>
        <time>2022-06-06T07:13:25.000Z</time>
      </trkpt>
      <trkpt lat="49.76987" lon="4.80271">
        <ele>289</ele>
        <time>2022-06-06T07:13:26.000Z</time>
      </trkpt>
      <trkpt lat="49.76989" lon="4.80269">
        <ele>289</ele>
        <time>2022-06-06T07:13:27.000Z</time>
      </trkpt>
      <trkpt lat="49.76992" lon="4.80266">
        <ele>289</ele>
        <time>2022-06-06T07:13:28.000Z</time>
      </trkpt>
      <trkpt lat="49.76995" lon="4.80263">
        <ele>290</ele>
        <time>2022-06-06T07:13:29.000Z</time>
      </trkpt>
      <trkpt lat="49.76997" lon="4.8026">
        <ele>290</ele>
        <time>2022-06-06T07:13:30.000Z</time>
      </trkpt>
      <trkpt lat="49.76999" lon="4.80257">
        <ele>290</ele>
        <time>2022-06-06T07:13:31.000Z</time>
      </trkpt>
      <trkpt lat="49.77001" lon="4.80255">
        <ele>291</ele>
        <time>2022-06-06T07:13:32.000Z</time>
      </trkpt>
      <trkpt lat="49.77003" lon="4.80253">
        <ele>291</ele>
        <time>2022-06-06T07:13:33.000Z</time>
      </trkpt>
      <trkpt lat="49.77005" lon="4.80251">
        <ele>291</ele>
        <time>2022-06-06T07:13:34.000Z</time>
      </trkpt>
      <trkpt lat="49.77007" lon="4.80249">
        <ele>291</ele>
        <time>2022-06-06T07:13:35.000Z</time>
      </trkpt>
      <trkpt lat="49.77009" lon="4.80246">
        <ele>292</ele>
        <time>2022-06-06T07:13:36.000Z</time>
      </trkpt>
      <trkpt lat="49.77011" lon="4.80242">
        <ele>292</ele>
        <time>2022-06-06T07:13:37.000Z</time>
      </trkpt>
      <trkpt lat="49.77013" lon="4.80239">
        <ele>292</ele>
        <time>2022-06-06T07:13:38.000Z</time>
      </trkpt>
      <trkpt lat="49.77015" lon="4.80235">
        <ele>292</ele>
        <time>2022-06-06T07:13:39.000Z</time>
      </trkpt>
      <trkpt lat="49.77018" lon="4.80233">
        <ele>293</ele>
        <time>2022-06-06T07:13:40.000Z</time>
      </trkpt>
      <trkpt lat="49.7702" lon="4.8023">
        <ele>293</ele>
        <time>2022-06-06T07:13:41.000Z</time>
      </trkpt>
      <trkpt lat="49.77022" lon="4.80227">
        <ele>293</ele>
        <time>2022-06-06T07:13:42.000Z</time>
      </trkpt>
      <trkpt lat="49.77024" lon="4.80224">
        <ele>293</ele>
        <time>2022-06-06T07:13:43.000Z</time>
      </trkpt>
      <trkpt lat="49.77026" lon="4.80222">
        <ele>293</ele>
        <time>2022-06-06T07:13:44.000Z</time>
      </trkpt>
      <trkpt lat="49.77029" lon="4.80219">
        <ele>294</ele>
        <time>2022-06-06T07:13:45.000Z</time>
      </trkpt>
      <trkpt lat="49.77032" lon="4.80216">
        <ele>294</ele>
        <time>2022-06-06T07:13:46.000Z</time>
      </trkpt>
      <trkpt lat="49.77034" lon="4.80213">
        <ele>294</ele>
        <time>2022-06-06T07:13:47.000Z</time>
      </trkpt>
      <trkpt lat="49.77036" lon="4.8021">
        <ele>294</ele>
        <time>2022-06-06T07:13:48.000Z</time>
      </trkpt>
      <trkpt lat="49.77039" lon="4.80208">
        <ele>294</ele>
        <time>2022-06-06T07:13:49.000Z</time>
      </trkpt>
      <trkpt lat="49.77041" lon="4.80205">
        <ele>295</ele>
        <time>2022-06-06T07:13:50.000Z</time>
      </trkpt>
      <trkpt lat="49.77044" lon="4.80203">
        <ele>295</ele>
        <time>2022-06-06T07:13:51.000Z</time>
      </trkpt>
      <trkpt lat="49.77047" lon="4.802">
        <ele>295</ele>
        <time>2022-06-06T07:13:52.000Z</time>
      </trkpt>
      <trkpt lat="49.77049" lon="4.80197">
        <ele>295</ele>
        <time>2022-06-06T07:13:53.000Z</time>
      </trkpt>
      <trkpt lat="49.77051" lon="4.80193">
        <ele>296</ele>
        <time>2022-06-06T07:13:54.000Z</time>
      </trkpt>
      <trkpt lat="49.77053" lon="4.8019">
        <ele>296</ele>
        <time>2022-06-06T07:13:55.000Z</time>
      </trkpt>
      <trkpt lat="49.77055" lon="4.80186">
        <ele>296</ele>
        <time>2022-06-06T07:13:56.000Z</time>
      </trkpt>
      <trkpt lat="49.77058" lon="4.80182">
        <ele>296</ele>
        <time>2022-06-06T07:13:57.000Z</time>
      </trkpt>
      <trkpt lat="49.7706" lon="4.80178">
        <ele>296</ele>
        <time>2022-06-06T07:13:58.000Z</time>
      </trkpt>
      <trkpt lat="49.77062" lon="4.80175">
        <ele>297</ele>
        <time>2022-06-06T07:13:59.000Z</time>
      </trkpt>
      <trkpt lat="49.77065" lon="4.80171">
        <ele>297</ele>
        <time>2022-06-06T07:14:00.000Z</time>
      </trkpt>
      <trkpt lat="49.77067" lon="4.80167">
        <ele>297</ele>
        <time>2022-06-06T07:14:01.000Z</time>
      </trkpt>
      <trkpt lat="49.7707" lon="4.80165">
        <ele>298</ele>
        <time>2022-06-06T07:14:02.000Z</time>
      </trkpt>
      <trkpt lat="49.77072" lon="4.80162">
        <ele>298</ele>
        <time>2022-06-06T07:14:03.000Z</time>
      </trkpt>
      <trkpt lat="49.77075" lon="4.8016">
        <ele>298</ele>
        <time>2022-06-06T07:14:04.000Z</time>
      </trkpt>
      <trkpt lat="49.77078" lon="4.8016">
        <ele>299</ele>
        <time>2022-06-06T07:14:05.000Z</time>
      </trkpt>
      <trkpt lat="49.77081" lon="4.8016">
        <ele>299</ele>
        <time>2022-06-06T07:14:06.000Z</time>
      </trkpt>
      <trkpt lat="49.77084" lon="4.80161">
        <ele>299</ele>
        <time>2022-06-06T07:14:07.000Z</time>
      </trkpt>
      <trkpt lat="49.77086" lon="4.80163">
        <ele>300</ele>
        <time>2022-06-06T07:14:08.000Z</time>
      </trkpt>
      <trkpt lat="49.77089" lon="4.80165">
        <ele>300</ele>
        <time>2022-06-06T07:14:09.000Z</time>
      </trkpt>
      <trkpt lat="49.77092" lon="4.80167">
        <ele>300</ele>
        <time>2022-06-06T07:14:10.000Z</time>
      </trkpt>
      <trkpt lat="49.77094" lon="4.80169">
        <ele>300</ele>
        <time>2022-06-06T07:14:11.000Z</time>
      </trkpt>
      <trkpt lat="49.77096" lon="4.80172">
        <ele>300</ele>
        <time>2022-06-06T07:14:12.000Z</time>
      </trkpt>
      <trkpt lat="49.77098" lon="4.80174">
        <ele>300</ele>
        <time>2022-06-06T07:14:13.000Z</time>
      </trkpt>
      <trkpt lat="49.77101" lon="4.80176">
        <ele>300</ele>
        <time>2022-06-06T07:14:14.000Z</time>
      </trkpt>
      <trkpt lat="49.77105" lon="4.80177">
        <ele>300</ele>
        <time>2022-06-06T07:14:15.000Z</time>
      </trkpt>
      <trkpt lat="49.77108" lon="4.80179">
        <ele>300</ele>
        <time>2022-06-06T07:14:16.000Z</time>
      </trkpt>
      <trkpt lat="49.77111" lon="4.8018">
        <ele>300</ele>
        <time>2022-06-06T07:14:17.000Z</time>
      </trkpt>
      <trkpt lat="49.77114" lon="4.8018">
        <ele>300</ele>
        <time>2022-06-06T07:14:18.000Z</time>
      </trkpt>
      <trkpt lat="49.77117" lon="4.80179">
        <ele>300</ele>
        <time>2022-06-06T07:14:19.000Z</time>
      </trkpt>
      <trkpt lat="49.77119" lon="4.80178">
        <ele>300</ele>
        <time>2022-06-06T07:14:20.000Z</time>
      </trkpt>
      <trkpt lat="49.77122" lon="4.80177">
        <ele>300</ele>
        <time>2022-06-06T07:14:21.000Z</time>
      </trkpt>
      <trkpt lat="49.77125" lon="4.80176">
        <ele>299</ele>
        <time>2022-06-06T07:14:22.000Z</time>
      </trkpt>
      <trkpt lat="49.77128" lon="4.80174">
        <ele>299</ele>
        <time>2022-06-06T07:14:23.000Z</time>
      </trkpt>
      <trkpt lat="49.7713" lon="4.80172">
        <ele>299</ele>
        <time>2022-06-06T07:14:24.000Z</time>
      </trkpt>
      <trkpt lat="49.77133" lon="4.80172">
        <ele>299</ele>
        <time>2022-06-06T07:14:25.000Z</time>
      </trkpt>
      <trkpt lat="49.77136" lon="4.80171">
        <ele>299</ele>
        <time>2022-06-06T07:14:26.000Z</time>
      </trkpt>
      <trkpt lat="49.77139" lon="4.8017">
        <ele>299</ele>
        <time>2022-06-06T07:14:27.000Z</time>
      </trkpt>
      <trkpt lat="49.77141" lon="4.80169">
        <ele>299</ele>
        <time>2022-06-06T07:14:28.000Z</time>
      </trkpt>
      <trkpt lat="49.77144" lon="4.80169">
        <ele>299</ele>
        <time>2022-06-06T07:14:29.000Z</time>
      </trkpt>
      <trkpt lat="49.77146" lon="4.80168">
        <ele>299</ele>
        <time>2022-06-06T07:14:30.000Z</time>
      </trkpt>
      <trkpt lat="49.77149" lon="4.80167">
        <ele>299</ele>
        <time>2022-06-06T07:14:31.000Z</time>
      </trkpt>
      <trkpt lat="49.77152" lon="4.80166">
        <ele>299</ele>
        <time>2022-06-06T07:14:32.000Z</time>
      </trkpt>
      <trkpt lat="49.77156" lon="4.80167">
        <ele>298</ele>
        <time>2022-06-06T07:14:33.000Z</time>
      </trkpt>
      <trkpt lat="49.77161" lon="4.80168">
        <ele>298</ele>
        <time>2022-06-06T07:14:34.000Z</time>
      </trkpt>
      <trkpt lat="49.77166" lon="4.80168">
        <ele>298</ele>
        <time>2022-06-06T07:14:35.000Z</time>
      </trkpt>
      <trkpt lat="49.7717" lon="4.80167">
        <ele>297</ele>
        <time>2022-06-06T07:14:36.000Z</time>
      </trkpt>
      <trkpt lat="49.77176" lon="4.80166">
        <ele>297</ele>
        <time>2022-06-06T07:14:37.000Z</time>
      </trkpt>
      <trkpt lat="49.77181" lon="4.80165">
        <ele>297</ele>
        <time>2022-06-06T07:14:38.000Z</time>
      </trkpt>
      <trkpt lat="49.77187" lon="4.80165">
        <ele>297</ele>
        <time>2022-06-06T07:14:39.000Z</time>
      </trkpt>
      <trkpt lat="49.77192" lon="4.80164">
        <ele>296</ele>
        <time>2022-06-06T07:14:40.000Z</time>
      </trkpt>
      <trkpt lat="49.77198" lon="4.80164">
        <ele>296</ele>
        <time>2022-06-06T07:14:41.000Z</time>
      </trkpt>
      <trkpt lat="49.77203" lon="4.80163">
        <ele>296</ele>
        <time>2022-06-06T07:14:42.000Z</time>
      </trkpt>
      <trkpt lat="49.77209" lon="4.80163">
        <ele>296</ele>
        <time>2022-06-06T07:14:43.000Z</time>
      </trkpt>
      <trkpt lat="49.77214" lon="4.80162">
        <ele>296</ele>
        <time>2022-06-06T07:14:44.000Z</time>
      </trkpt>
      <trkpt lat="49.7722" lon="4.80161">
        <ele>295</ele>
        <time>2022-06-06T07:14:45.000Z</time>
      </trkpt>
      <trkpt lat="49.77226" lon="4.80161">
        <ele>295</ele>
        <time>2022-06-06T07:14:46.000Z</time>
      </trkpt>
      <trkpt lat="49.77231" lon="4.8016">
        <ele>295</ele>
        <time>2022-06-06T07:14:47.000Z</time>
      </trkpt>
      <trkpt lat="49.77237" lon="4.80159">
        <ele>295</ele>
        <time>2022-06-06T07:14:48.000Z</time>
      </trkpt>
      <trkpt lat="49.77243" lon="4.80158">
        <ele>294</ele>
        <time>2022-06-06T07:14:49.000Z</time>
      </trkpt>
      <trkpt lat="49.77249" lon="4.80158">
        <ele>294</ele>
        <time>2022-06-06T07:14:50.000Z</time>
      </trkpt>
      <trkpt lat="49.77255" lon="4.80157">
        <ele>294</ele>
        <time>2022-06-06T07:14:51.000Z</time>
      </trkpt>
      <trkpt lat="49.77261" lon="4.80156">
        <ele>294</ele>
        <time>2022-06-06T07:14:52.000Z</time>
      </trkpt>
      <trkpt lat="49.77267" lon="4.80155">
        <ele>293</ele>
        <time>2022-06-06T07:14:53.000Z</time>
      </trkpt>
      <trkpt lat="49.77274" lon="4.80154">
        <ele>293</ele>
        <time>2022-06-06T07:14:54.000Z</time>
      </trkpt>
      <trkpt lat="49.7728" lon="4.80153">
        <ele>293</ele>
        <time>2022-06-06T07:14:55.000Z</time>
      </trkpt>
      <trkpt lat="49.77286" lon="4.80152">
        <ele>292</ele>
        <time>2022-06-06T07:14:56.000Z</time>
      </trkpt>
      <trkpt lat="49.77292" lon="4.80151">
        <ele>292</ele>
        <time>2022-06-06T07:14:57.000Z</time>
      </trkpt>
      <trkpt lat="49.77298" lon="4.8015">
        <ele>292</ele>
        <time>2022-06-06T07:14:58.000Z</time>
      </trkpt>
      <trkpt lat="49.77305" lon="4.80149">
        <ele>291</ele>
        <time>2022-06-06T07:14:59.000Z</time>
      </trkpt>
      <trkpt lat="49.77311" lon="4.80147">
        <ele>291</ele>
        <time>2022-06-06T07:15:00.000Z</time>
      </trkpt>
      <trkpt lat="49.77317" lon="4.80145">
        <ele>291</ele>
        <time>2022-06-06T07:15:01.000Z</time>
      </trkpt>
      <trkpt lat="49.77323" lon="4.80143">
        <ele>290</ele>
        <time>2022-06-06T07:15:02.000Z</time>
      </trkpt>
      <trkpt lat="49.77329" lon="4.8014">
        <ele>290</ele>
        <time>2022-06-06T07:15:03.000Z</time>
      </trkpt>
      <trkpt lat="49.77335" lon="4.80137">
        <ele>290</ele>
        <time>2022-06-06T07:15:04.000Z</time>
      </trkpt>
      <trkpt lat="49.7734" lon="4.80133">
        <ele>290</ele>
        <time>2022-06-06T07:15:05.000Z</time>
      </trkpt>
      <trkpt lat="49.77345" lon="4.80129">
        <ele>290</ele>
        <time>2022-06-06T07:15:06.000Z</time>
      </trkpt>
      <trkpt lat="49.7735" lon="4.80123">
        <ele>289</ele>
        <time>2022-06-06T07:15:07.000Z</time>
      </trkpt>
      <trkpt lat="49.77355" lon="4.80118">
        <ele>289</ele>
        <time>2022-06-06T07:15:08.000Z</time>
      </trkpt>
      <trkpt lat="49.77359" lon="4.80113">
        <ele>289</ele>
        <time>2022-06-06T07:15:09.000Z</time>
      </trkpt>
      <trkpt lat="49.77364" lon="4.80108">
        <ele>289</ele>
        <time>2022-06-06T07:15:10.000Z</time>
      </trkpt>
      <trkpt lat="49.77369" lon="4.80102">
        <ele>289</ele>
        <time>2022-06-06T07:15:11.000Z</time>
      </trkpt>
      <trkpt lat="49.77374" lon="4.80095">
        <ele>289</ele>
        <time>2022-06-06T07:15:12.000Z</time>
      </trkpt>
      <trkpt lat="49.77379" lon="4.80088">
        <ele>289</ele>
        <time>2022-06-06T07:15:13.000Z</time>
      </trkpt>
      <trkpt lat="49.77384" lon="4.8008">
        <ele>289</ele>
        <time>2022-06-06T07:15:14.000Z</time>
      </trkpt>
      <trkpt lat="49.77389" lon="4.80072">
        <ele>289</ele>
        <time>2022-06-06T07:15:15.000Z</time>
      </trkpt>
      <trkpt lat="49.77394" lon="4.80063">
        <ele>289</ele>
        <time>2022-06-06T07:15:16.000Z</time>
      </trkpt>
      <trkpt lat="49.77399" lon="4.80054">
        <ele>288</ele>
        <time>2022-06-06T07:15:17.000Z</time>
      </trkpt>
      <trkpt lat="49.77404" lon="4.80045">
        <ele>288</ele>
        <time>2022-06-06T07:15:18.000Z</time>
      </trkpt>
      <trkpt lat="49.77409" lon="4.80038">
        <ele>288</ele>
        <time>2022-06-06T07:15:19.000Z</time>
      </trkpt>
      <trkpt lat="49.77415" lon="4.80033">
        <ele>288</ele>
        <time>2022-06-06T07:15:20.000Z</time>
      </trkpt>
      <trkpt lat="49.77422" lon="4.80032">
        <ele>288</ele>
        <time>2022-06-06T07:15:21.000Z</time>
      </trkpt>
      <trkpt lat="49.77429" lon="4.80032">
        <ele>287</ele>
        <time>2022-06-06T07:15:22.000Z</time>
      </trkpt>
      <trkpt lat="49.77436" lon="4.80033">
        <ele>287</ele>
        <time>2022-06-06T07:15:23.000Z</time>
      </trkpt>
      <trkpt lat="49.77442" lon="4.80033">
        <ele>286</ele>
        <time>2022-06-06T07:15:24.000Z</time>
      </trkpt>
      <trkpt lat="49.77448" lon="4.80032">
        <ele>286</ele>
        <time>2022-06-06T07:15:25.000Z</time>
      </trkpt>
      <trkpt lat="49.77454" lon="4.80031">
        <ele>285</ele>
        <time>2022-06-06T07:15:26.000Z</time>
      </trkpt>
      <trkpt lat="49.7746" lon="4.80028">
        <ele>285</ele>
        <time>2022-06-06T07:15:27.000Z</time>
      </trkpt>
      <trkpt lat="49.77466" lon="4.80025">
        <ele>284</ele>
        <time>2022-06-06T07:15:28.000Z</time>
      </trkpt>
      <trkpt lat="49.77472" lon="4.8002">
        <ele>283</ele>
        <time>2022-06-06T07:15:29.000Z</time>
      </trkpt>
      <trkpt lat="49.77478" lon="4.80015">
        <ele>282</ele>
        <time>2022-06-06T07:15:30.000Z</time>
      </trkpt>
      <trkpt lat="49.77483" lon="4.8001">
        <ele>281</ele>
        <time>2022-06-06T07:15:31.000Z</time>
      </trkpt>
      <trkpt lat="49.77489" lon="4.80006">
        <ele>280</ele>
        <time>2022-06-06T07:15:32.000Z</time>
      </trkpt>
      <trkpt lat="49.77494" lon="4.80002">
        <ele>279</ele>
        <time>2022-06-06T07:15:33.000Z</time>
      </trkpt>
      <trkpt lat="49.77499" lon="4.79999">
        <ele>278</ele>
        <time>2022-06-06T07:15:34.000Z</time>
      </trkpt>
      <trkpt lat="49.77505" lon="4.79996">
        <ele>278</ele>
        <time>2022-06-06T07:15:35.000Z</time>
      </trkpt>
      <trkpt lat="49.77511" lon="4.79992">
        <ele>277</ele>
        <time>2022-06-06T07:15:36.000Z</time>
      </trkpt>
      <trkpt lat="49.77517" lon="4.7999">
        <ele>276</ele>
        <time>2022-06-06T07:15:37.000Z</time>
      </trkpt>
      <trkpt lat="49.77524" lon="4.79988">
        <ele>275</ele>
        <time>2022-06-06T07:15:38.000Z</time>
      </trkpt>
      <trkpt lat="49.77532" lon="4.79987">
        <ele>274</ele>
        <time>2022-06-06T07:15:39.000Z</time>
      </trkpt>
      <trkpt lat="49.77539" lon="4.79986">
        <ele>273</ele>
        <time>2022-06-06T07:15:40.000Z</time>
      </trkpt>
      <trkpt lat="49.77547" lon="4.79985">
        <ele>272</ele>
        <time>2022-06-06T07:15:41.000Z</time>
      </trkpt>
      <trkpt lat="49.77556" lon="4.79983">
        <ele>271</ele>
        <time>2022-06-06T07:15:42.000Z</time>
      </trkpt>
      <trkpt lat="49.77564" lon="4.79982">
        <ele>270</ele>
        <time>2022-06-06T07:15:43.000Z</time>
      </trkpt>
      <trkpt lat="49.77572" lon="4.79982">
        <ele>269</ele>
        <time>2022-06-06T07:15:44.000Z</time>
      </trkpt>
      <trkpt lat="49.77581" lon="4.79982">
        <ele>268</ele>
        <time>2022-06-06T07:15:45.000Z</time>
      </trkpt>
      <trkpt lat="49.77589" lon="4.79981">
        <ele>267</ele>
        <time>2022-06-06T07:15:46.000Z</time>
      </trkpt>
      <trkpt lat="49.77597" lon="4.7998">
        <ele>266</ele>
        <time>2022-06-06T07:15:47.000Z</time>
      </trkpt>
      <trkpt lat="49.77605" lon="4.79979">
        <ele>265</ele>
        <time>2022-06-06T07:15:48.000Z</time>
      </trkpt>
      <trkpt lat="49.77612" lon="4.79977">
        <ele>265</ele>
        <time>2022-06-06T07:15:49.000Z</time>
      </trkpt>
      <trkpt lat="49.7762" lon="4.79975">
        <ele>264</ele>
        <time>2022-06-06T07:15:50.000Z</time>
      </trkpt>
      <trkpt lat="49.77626" lon="4.79974">
        <ele>264</ele>
        <time>2022-06-06T07:15:51.000Z</time>
      </trkpt>
      <trkpt lat="49.77633" lon="4.79971">
        <ele>263</ele>
        <time>2022-06-06T07:15:52.000Z</time>
      </trkpt>
      <trkpt lat="49.77639" lon="4.79969">
        <ele>263</ele>
        <time>2022-06-06T07:15:53.000Z</time>
      </trkpt>
      <trkpt lat="49.77644" lon="4.79966">
        <ele>263</ele>
        <time>2022-06-06T07:15:54.000Z</time>
      </trkpt>
      <trkpt lat="49.77649" lon="4.79962">
        <ele>262</ele>
        <time>2022-06-06T07:15:55.000Z</time>
      </trkpt>
      <trkpt lat="49.77654" lon="4.79959">
        <ele>262</ele>
        <time>2022-06-06T07:15:56.000Z</time>
      </trkpt>
      <trkpt lat="49.77659" lon="4.79955">
        <ele>262</ele>
        <time>2022-06-06T07:15:57.000Z</time>
      </trkpt>
      <trkpt lat="49.77664" lon="4.79951">
        <ele>262</ele>
        <time>2022-06-06T07:15:58.000Z</time>
      </trkpt>
      <trkpt lat="49.77668" lon="4.79946">
        <ele>261</ele>
        <time>2022-06-06T07:15:59.000Z</time>
      </trkpt>
      <trkpt lat="49.77673" lon="4.79941">
        <ele>261</ele>
        <time>2022-06-06T07:16:00.000Z</time>
      </trkpt>
      <trkpt lat="49.77677" lon="4.79936">
        <ele>261</ele>
        <time>2022-06-06T07:16:01.000Z</time>
      </trkpt>
      <trkpt lat="49.77681" lon="4.79931">
        <ele>260</ele>
        <time>2022-06-06T07:16:02.000Z</time>
      </trkpt>
      <trkpt lat="49.77686" lon="4.79926">
        <ele>260</ele>
        <time>2022-06-06T07:16:03.000Z</time>
      </trkpt>
      <trkpt lat="49.7769" lon="4.79922">
        <ele>260</ele>
        <time>2022-06-06T07:16:04.000Z</time>
      </trkpt>
      <trkpt lat="49.77694" lon="4.79917">
        <ele>260</ele>
        <time>2022-06-06T07:16:05.000Z</time>
      </trkpt>
      <trkpt lat="49.77698" lon="4.79912">
        <ele>259</ele>
        <time>2022-06-06T07:16:06.000Z</time>
      </trkpt>
      <trkpt lat="49.77703" lon="4.79907">
        <ele>259</ele>
        <time>2022-06-06T07:16:07.000Z</time>
      </trkpt>
      <trkpt lat="49.77707" lon="4.79903">
        <ele>259</ele>
        <time>2022-06-06T07:16:08.000Z</time>
      </trkpt>
      <trkpt lat="49.77712" lon="4.79898">
        <ele>259</ele>
        <time>2022-06-06T07:16:09.000Z</time>
      </trkpt>
      <trkpt lat="49.77716" lon="4.79893">
        <ele>258</ele>
        <time>2022-06-06T07:16:10.000Z</time>
      </trkpt>
      <trkpt lat="49.77721" lon="4.79889">
        <ele>258</ele>
        <time>2022-06-06T07:16:11.000Z</time>
      </trkpt>
      <trkpt lat="49.77726" lon="4.79885">
        <ele>258</ele>
        <time>2022-06-06T07:16:12.000Z</time>
      </trkpt>
      <trkpt lat="49.77731" lon="4.79881">
        <ele>258</ele>
        <time>2022-06-06T07:16:13.000Z</time>
      </trkpt>
      <trkpt lat="49.77736" lon="4.79877">
        <ele>258</ele>
        <time>2022-06-06T07:16:14.000Z</time>
      </trkpt>
      <trkpt lat="49.77741" lon="4.79873">
        <ele>258</ele>
        <time>2022-06-06T07:16:15.000Z</time>
      </trkpt>
      <trkpt lat="49.77746" lon="4.79869">
        <ele>258</ele>
        <time>2022-06-06T07:16:16.000Z</time>
      </trkpt>
      <trkpt lat="49.77751" lon="4.79865">
        <ele>257</ele>
        <time>2022-06-06T07:16:17.000Z</time>
      </trkpt>
      <trkpt lat="49.77756" lon="4.7986">
        <ele>257</ele>
        <time>2022-06-06T07:16:18.000Z</time>
      </trkpt>
      <trkpt lat="49.77761" lon="4.79856">
        <ele>257</ele>
        <time>2022-06-06T07:16:19.000Z</time>
      </trkpt>
      <trkpt lat="49.77767" lon="4.79851">
        <ele>257</ele>
        <time>2022-06-06T07:16:20.000Z</time>
      </trkpt>
      <trkpt lat="49.77772" lon="4.79846">
        <ele>257</ele>
        <time>2022-06-06T07:16:21.000Z</time>
      </trkpt>
      <trkpt lat="49.77777" lon="4.79841">
        <ele>257</ele>
        <time>2022-06-06T07:16:22.000Z</time>
      </trkpt>
      <trkpt lat="49.77781" lon="4.79837">
        <ele>257</ele>
        <time>2022-06-06T07:16:23.000Z</time>
      </trkpt>
      <trkpt lat="49.77785" lon="4.79832">
        <ele>257</ele>
        <time>2022-06-06T07:16:24.000Z</time>
      </trkpt>
      <trkpt lat="49.77789" lon="4.79826">
        <ele>257</ele>
        <time>2022-06-06T07:16:25.000Z</time>
      </trkpt>
      <trkpt lat="49.77793" lon="4.79822">
        <ele>257</ele>
        <time>2022-06-06T07:16:26.000Z</time>
      </trkpt>
      <trkpt lat="49.77797" lon="4.79818">
        <ele>256</ele>
        <time>2022-06-06T07:16:27.000Z</time>
      </trkpt>
      <trkpt lat="49.77802" lon="4.79814">
        <ele>256</ele>
        <time>2022-06-06T07:16:28.000Z</time>
      </trkpt>
      <trkpt lat="49.77807" lon="4.7981">
        <ele>256</ele>
        <time>2022-06-06T07:16:29.000Z</time>
      </trkpt>
      <trkpt lat="49.77811" lon="4.79807">
        <ele>256</ele>
        <time>2022-06-06T07:16:30.000Z</time>
      </trkpt>
      <trkpt lat="49.77816" lon="4.79805">
        <ele>256</ele>
        <time>2022-06-06T07:16:31.000Z</time>
      </trkpt>
      <trkpt lat="49.7782" lon="4.79803">
        <ele>256</ele>
        <time>2022-06-06T07:16:32.000Z</time>
      </trkpt>
      <trkpt lat="49.77825" lon="4.79801">
        <ele>256</ele>
        <time>2022-06-06T07:16:33.000Z</time>
      </trkpt>
      <trkpt lat="49.7783" lon="4.79798">
        <ele>256</ele>
        <time>2022-06-06T07:16:34.000Z</time>
      </trkpt>
      <trkpt lat="49.77835" lon="4.79795">
        <ele>256</ele>
        <time>2022-06-06T07:16:35.000Z</time>
      </trkpt>
      <trkpt lat="49.7784" lon="4.79792">
        <ele>256</ele>
        <time>2022-06-06T07:16:36.000Z</time>
      </trkpt>
      <trkpt lat="49.77846" lon="4.79789">
        <ele>256</ele>
        <time>2022-06-06T07:16:37.000Z</time>
      </trkpt>
      <trkpt lat="49.77851" lon="4.79784">
        <ele>256</ele>
        <time>2022-06-06T07:16:38.000Z</time>
      </trkpt>
      <trkpt lat="49.77857" lon="4.79779">
        <ele>256</ele>
        <time>2022-06-06T07:16:39.000Z</time>
      </trkpt>
      <trkpt lat="49.77864" lon="4.79775">
        <ele>256</ele>
        <time>2022-06-06T07:16:40.000Z</time>
      </trkpt>
      <trkpt lat="49.7787" lon="4.7977">
        <ele>256</ele>
        <time>2022-06-06T07:16:41.000Z</time>
      </trkpt>
      <trkpt lat="49.77876" lon="4.79765">
        <ele>256</ele>
        <time>2022-06-06T07:16:42.000Z</time>
      </trkpt>
      <trkpt lat="49.77883" lon="4.7976">
        <ele>256</ele>
        <time>2022-06-06T07:16:43.000Z</time>
      </trkpt>
      <trkpt lat="49.77889" lon="4.79755">
        <ele>256</ele>
        <time>2022-06-06T07:16:44.000Z</time>
      </trkpt>
      <trkpt lat="49.77895" lon="4.7975">
        <ele>256</ele>
        <time>2022-06-06T07:16:45.000Z</time>
      </trkpt>
      <trkpt lat="49.77902" lon="4.79745">
        <ele>256</ele>
        <time>2022-06-06T07:16:46.000Z</time>
      </trkpt>
      <trkpt lat="49.7791" lon="4.7974">
        <ele>256</ele>
        <time>2022-06-06T07:16:47.000Z</time>
      </trkpt>
      <trkpt lat="49.77917" lon="4.79736">
        <ele>256</ele>
        <time>2022-06-06T07:16:48.000Z</time>
      </trkpt>
      <trkpt lat="49.77925" lon="4.79732">
        <ele>256</ele>
        <time>2022-06-06T07:16:49.000Z</time>
      </trkpt>
      <trkpt lat="49.77932" lon="4.79729">
        <ele>255</ele>
        <time>2022-06-06T07:16:50.000Z</time>
      </trkpt>
      <trkpt lat="49.77939" lon="4.79727">
        <ele>255</ele>
        <time>2022-06-06T07:16:51.000Z</time>
      </trkpt>
      <trkpt lat="49.77947" lon="4.79725">
        <ele>255</ele>
        <time>2022-06-06T07:16:52.000Z</time>
      </trkpt>
      <trkpt lat="49.77954" lon="4.79724">
        <ele>255</ele>
        <time>2022-06-06T07:16:53.000Z</time>
      </trkpt>
      <trkpt lat="49.77961" lon="4.79725">
        <ele>255</ele>
        <time>2022-06-06T07:16:54.000Z</time>
      </trkpt>
      <trkpt lat="49.77967" lon="4.79726">
        <ele>254</ele>
        <time>2022-06-06T07:16:55.000Z</time>
      </trkpt>
      <trkpt lat="49.77972" lon="4.79731">
        <ele>254</ele>
        <time>2022-06-06T07:16:56.000Z</time>
      </trkpt>
      <trkpt lat="49.77976" lon="4.79738">
        <ele>254</ele>
        <time>2022-06-06T07:16:57.000Z</time>
      </trkpt>
      <trkpt lat="49.77978" lon="4.79746">
        <ele>254</ele>
        <time>2022-06-06T07:16:58.000Z</time>
      </trkpt>
      <trkpt lat="49.77981" lon="4.79754">
        <ele>253</ele>
        <time>2022-06-06T07:16:59.000Z</time>
      </trkpt>
      <trkpt lat="49.77985" lon="4.7976">
        <ele>253</ele>
        <time>2022-06-06T07:17:00.000Z</time>
      </trkpt>
      <trkpt lat="49.77988" lon="4.79766">
        <ele>253</ele>
        <time>2022-06-06T07:17:01.000Z</time>
      </trkpt>
      <trkpt lat="49.77993" lon="4.79771">
        <ele>253</ele>
        <time>2022-06-06T07:17:02.000Z</time>
      </trkpt>
      <trkpt lat="49.77998" lon="4.79774">
        <ele>253</ele>
        <time>2022-06-06T07:17:03.000Z</time>
      </trkpt>
      <trkpt lat="49.78003" lon="4.79776">
        <ele>253</ele>
        <time>2022-06-06T07:17:04.000Z</time>
      </trkpt>
      <trkpt lat="49.78008" lon="4.79778">
        <ele>253</ele>
        <time>2022-06-06T07:17:05.000Z</time>
      </trkpt>
      <trkpt lat="49.78013" lon="4.79779">
        <ele>253</ele>
        <time>2022-06-06T07:17:06.000Z</time>
      </trkpt>
      <trkpt lat="49.78019" lon="4.7978">
        <ele>253</ele>
        <time>2022-06-06T07:17:07.000Z</time>
      </trkpt>
      <trkpt lat="49.78024" lon="4.79781">
        <ele>253</ele>
        <time>2022-06-06T07:17:08.000Z</time>
      </trkpt>
      <trkpt lat="49.78029" lon="4.79781">
        <ele>253</ele>
        <time>2022-06-06T07:17:09.000Z</time>
      </trkpt>
      <trkpt lat="49.78033" lon="4.79781">
        <ele>253</ele>
        <time>2022-06-06T07:17:10.000Z</time>
      </trkpt>
      <trkpt lat="49.78038" lon="4.79781">
        <ele>253</ele>
        <time>2022-06-06T07:17:11.000Z</time>
      </trkpt>
      <trkpt lat="49.78043" lon="4.79781">
        <ele>253</ele>
        <time>2022-06-06T07:17:12.000Z</time>
      </trkpt>
      <trkpt lat="49.78047" lon="4.7978">
        <ele>253</ele>
        <time>2022-06-06T07:17:13.000Z</time>
      </trkpt>
      <trkpt lat="49.78052" lon="4.79779">
        <ele>253</ele>
        <time>2022-06-06T07:17:14.000Z</time>
      </trkpt>
      <trkpt lat="49.78057" lon="4.79779">
        <ele>252</ele>
        <time>2022-06-06T07:17:15.000Z</time>
      </trkpt>
      <trkpt lat="49.78062" lon="4.79777">
        <ele>252</ele>
        <time>2022-06-06T07:17:16.000Z</time>
      </trkpt>
      <trkpt lat="49.78067" lon="4.79775">
        <ele>252</ele>
        <time>2022-06-06T07:17:17.000Z</time>
      </trkpt>
      <trkpt lat="49.78072" lon="4.79771">
        <ele>252</ele>
        <time>2022-06-06T07:17:18.000Z</time>
      </trkpt>
      <trkpt lat="49.78077" lon="4.79767">
        <ele>252</ele>
        <time>2022-06-06T07:17:19.000Z</time>
      </trkpt>
      <trkpt lat="49.78082" lon="4.79763">
        <ele>251</ele>
        <time>2022-06-06T07:17:20.000Z</time>
      </trkpt>
      <trkpt lat="49.78086" lon="4.79758">
        <ele>251</ele>
        <time>2022-06-06T07:17:21.000Z</time>
      </trkpt>
      <trkpt lat="49.7809" lon="4.79752">
        <ele>251</ele>
        <time>2022-06-06T07:17:22.000Z</time>
      </trkpt>
      <trkpt lat="49.78093" lon="4.79745">
        <ele>251</ele>
        <time>2022-06-06T07:17:23.000Z</time>
      </trkpt>
      <trkpt lat="49.78097" lon="4.79738">
        <ele>251</ele>
        <time>2022-06-06T07:17:24.000Z</time>
      </trkpt>
      <trkpt lat="49.78101" lon="4.79733">
        <ele>251</ele>
        <time>2022-06-06T07:17:25.000Z</time>
      </trkpt>
      <trkpt lat="49.78105" lon="4.79728">
        <ele>251</ele>
        <time>2022-06-06T07:17:26.000Z</time>
      </trkpt>
      <trkpt lat="49.78108" lon="4.79722">
        <ele>251</ele>
        <time>2022-06-06T07:17:27.000Z</time>
      </trkpt>
      <trkpt lat="49.78111" lon="4.79716">
        <ele>251</ele>
        <time>2022-06-06T07:17:28.000Z</time>
      </trkpt>
      <trkpt lat="49.78114" lon="4.7971">
        <ele>251</ele>
        <time>2022-06-06T07:17:29.000Z</time>
      </trkpt>
      <trkpt lat="49.78117" lon="4.79705">
        <ele>251</ele>
        <time>2022-06-06T07:17:30.000Z</time>
      </trkpt>
      <trkpt lat="49.78122" lon="4.79702">
        <ele>251</ele>
        <time>2022-06-06T07:17:31.000Z</time>
      </trkpt>
      <trkpt lat="49.78125" lon="4.79699">
        <ele>251</ele>
        <time>2022-06-06T07:17:32.000Z</time>
      </trkpt>
      <trkpt lat="49.78129" lon="4.79696">
        <ele>251</ele>
        <time>2022-06-06T07:17:33.000Z</time>
      </trkpt>
      <trkpt lat="49.78133" lon="4.79694">
        <ele>251</ele>
        <time>2022-06-06T07:17:34.000Z</time>
      </trkpt>
      <trkpt lat="49.78136" lon="4.79691">
        <ele>251</ele>
        <time>2022-06-06T07:17:35.000Z</time>
      </trkpt>
      <trkpt lat="49.7814" lon="4.79689">
        <ele>251</ele>
        <time>2022-06-06T07:17:36.000Z</time>
      </trkpt>
      <trkpt lat="49.78144" lon="4.79686">
        <ele>252</ele>
        <time>2022-06-06T07:17:37.000Z</time>
      </trkpt>
      <trkpt lat="49.78148" lon="4.79684">
        <ele>252</ele>
        <time>2022-06-06T07:17:38.000Z</time>
      </trkpt>
      <trkpt lat="49.78153" lon="4.79681">
        <ele>252</ele>
        <time>2022-06-06T07:17:39.000Z</time>
      </trkpt>
      <trkpt lat="49.78157" lon="4.79679">
        <ele>252</ele>
        <time>2022-06-06T07:17:40.000Z</time>
      </trkpt>
      <trkpt lat="49.78161" lon="4.79675">
        <ele>252</ele>
        <time>2022-06-06T07:17:41.000Z</time>
      </trkpt>
      <trkpt lat="49.78165" lon="4.79672">
        <ele>252</ele>
        <time>2022-06-06T07:17:42.000Z</time>
      </trkpt>
      <trkpt lat="49.78169" lon="4.79668">
        <ele>252</ele>
        <time>2022-06-06T07:17:43.000Z</time>
      </trkpt>
      <trkpt lat="49.78173" lon="4.79665">
        <ele>252</ele>
        <time>2022-06-06T07:17:44.000Z</time>
      </trkpt>
      <trkpt lat="49.78176" lon="4.79661">
        <ele>252</ele>
        <time>2022-06-06T07:17:45.000Z</time>
      </trkpt>
      <trkpt lat="49.7818" lon="4.79658">
        <ele>252</ele>
        <time>2022-06-06T07:17:46.000Z</time>
      </trkpt>
      <trkpt lat="49.78184" lon="4.79655">
        <ele>252</ele>
        <time>2022-06-06T07:17:47.000Z</time>
      </trkpt>
      <trkpt lat="49.78188" lon="4.79652">
        <ele>252</ele>
        <time>2022-06-06T07:17:48.000Z</time>
      </trkpt>
      <trkpt lat="49.78192" lon="4.79649">
        <ele>252</ele>
        <time>2022-06-06T07:17:49.000Z</time>
      </trkpt>
      <trkpt lat="49.78196" lon="4.79645">
        <ele>252</ele>
        <time>2022-06-06T07:17:50.000Z</time>
      </trkpt>
      <trkpt lat="49.78201" lon="4.79642">
        <ele>252</ele>
        <time>2022-06-06T07:17:51.000Z</time>
      </trkpt>
      <trkpt lat="49.78205" lon="4.79638">
        <ele>252</ele>
        <time>2022-06-06T07:17:52.000Z</time>
      </trkpt>
      <trkpt lat="49.78209" lon="4.79634">
        <ele>252</ele>
        <time>2022-06-06T07:17:53.000Z</time>
      </trkpt>
      <trkpt lat="49.78214" lon="4.7963">
        <ele>252</ele>
        <time>2022-06-06T07:17:54.000Z</time>
      </trkpt>
      <trkpt lat="49.78218" lon="4.79627">
        <ele>252</ele>
        <time>2022-06-06T07:17:55.000Z</time>
      </trkpt>
      <trkpt lat="49.78223" lon="4.79623">
        <ele>252</ele>
        <time>2022-06-06T07:17:56.000Z</time>
      </trkpt>
      <trkpt lat="49.78228" lon="4.7962">
        <ele>252</ele>
        <time>2022-06-06T07:17:57.000Z</time>
      </trkpt>
      <trkpt lat="49.78233" lon="4.79616">
        <ele>252</ele>
        <time>2022-06-06T07:17:58.000Z</time>
      </trkpt>
      <trkpt lat="49.78239" lon="4.79613">
        <ele>252</ele>
        <time>2022-06-06T07:17:59.000Z</time>
      </trkpt>
      <trkpt lat="49.78245" lon="4.7961">
        <ele>252</ele>
        <time>2022-06-06T07:18:00.000Z</time>
      </trkpt>
      <trkpt lat="49.78252" lon="4.79607">
        <ele>251</ele>
        <time>2022-06-06T07:18:01.000Z</time>
      </trkpt>
      <trkpt lat="49.78258" lon="4.79604">
        <ele>251</ele>
        <time>2022-06-06T07:18:02.000Z</time>
      </trkpt>
      <trkpt lat="49.78265" lon="4.79602">
        <ele>251</ele>
        <time>2022-06-06T07:18:03.000Z</time>
      </trkpt>
      <trkpt lat="49.78272" lon="4.796">
        <ele>251</ele>
        <time>2022-06-06T07:18:04.000Z</time>
      </trkpt>
      <trkpt lat="49.78278" lon="4.79597">
        <ele>251</ele>
        <time>2022-06-06T07:18:05.000Z</time>
      </trkpt>
      <trkpt lat="49.78285" lon="4.79595">
        <ele>250</ele>
        <time>2022-06-06T07:18:06.000Z</time>
      </trkpt>
      <trkpt lat="49.78293" lon="4.79594">
        <ele>250</ele>
        <time>2022-06-06T07:18:07.000Z</time>
      </trkpt>
      <trkpt lat="49.783" lon="4.79594">
        <ele>249</ele>
        <time>2022-06-06T07:18:08.000Z</time>
      </trkpt>
      <trkpt lat="49.78308" lon="4.79595">
        <ele>249</ele>
        <time>2022-06-06T07:18:09.000Z</time>
      </trkpt>
      <trkpt lat="49.78315" lon="4.79599">
        <ele>249</ele>
        <time>2022-06-06T07:18:10.000Z</time>
      </trkpt>
      <trkpt lat="49.78322" lon="4.79602">
        <ele>249</ele>
        <time>2022-06-06T07:18:11.000Z</time>
      </trkpt>
      <trkpt lat="49.78329" lon="4.79606">
        <ele>249</ele>
        <time>2022-06-06T07:18:12.000Z</time>
      </trkpt>
      <trkpt lat="49.78335" lon="4.7961">
        <ele>249</ele>
        <time>2022-06-06T07:18:13.000Z</time>
      </trkpt>
      <trkpt lat="49.78342" lon="4.79614">
        <ele>250</ele>
        <time>2022-06-06T07:18:14.000Z</time>
      </trkpt>
      <trkpt lat="49.78348" lon="4.79618">
        <ele>250</ele>
        <time>2022-06-06T07:18:15.000Z</time>
      </trkpt>
      <trkpt lat="49.78354" lon="4.79622">
        <ele>250</ele>
        <time>2022-06-06T07:18:16.000Z</time>
      </trkpt>
      <trkpt lat="49.7836" lon="4.79626">
        <ele>250</ele>
        <time>2022-06-06T07:18:17.000Z</time>
      </trkpt>
      <trkpt lat="49.78366" lon="4.7963">
        <ele>250</ele>
        <time>2022-06-06T07:18:18.000Z</time>
      </trkpt>
      <trkpt lat="49.78372" lon="4.79633">
        <ele>250</ele>
        <time>2022-06-06T07:18:19.000Z</time>
      </trkpt>
      <trkpt lat="49.78377" lon="4.79637">
        <ele>250</ele>
        <time>2022-06-06T07:18:20.000Z</time>
      </trkpt>
      <trkpt lat="49.78383" lon="4.7964">
        <ele>251</ele>
        <time>2022-06-06T07:18:21.000Z</time>
      </trkpt>
      <trkpt lat="49.78389" lon="4.79643">
        <ele>251</ele>
        <time>2022-06-06T07:18:22.000Z</time>
      </trkpt>
      <trkpt lat="49.78394" lon="4.79646">
        <ele>251</ele>
        <time>2022-06-06T07:18:23.000Z</time>
      </trkpt>
      <trkpt lat="49.784" lon="4.79649">
        <ele>251</ele>
        <time>2022-06-06T07:18:24.000Z</time>
      </trkpt>
      <trkpt lat="49.78405" lon="4.79652">
        <ele>251</ele>
        <time>2022-06-06T07:18:25.000Z</time>
      </trkpt>
      <trkpt lat="49.78411" lon="4.79655">
        <ele>251</ele>
        <time>2022-06-06T07:18:26.000Z</time>
      </trkpt>
      <trkpt lat="49.78416" lon="4.79657">
        <ele>252</ele>
        <time>2022-06-06T07:18:27.000Z</time>
      </trkpt>
      <trkpt lat="49.78421" lon="4.7966">
        <ele>252</ele>
        <time>2022-06-06T07:18:28.000Z</time>
      </trkpt>
      <trkpt lat="49.78426" lon="4.79662">
        <ele>252</ele>
        <time>2022-06-06T07:18:29.000Z</time>
      </trkpt>
      <trkpt lat="49.78431" lon="4.79663">
        <ele>252</ele>
        <time>2022-06-06T07:18:30.000Z</time>
      </trkpt>
      <trkpt lat="49.78436" lon="4.79665">
        <ele>252</ele>
        <time>2022-06-06T07:18:31.000Z</time>
      </trkpt>
      <trkpt lat="49.78441" lon="4.79667">
        <ele>253</ele>
        <time>2022-06-06T07:18:32.000Z</time>
      </trkpt>
      <trkpt lat="49.78446" lon="4.79669">
        <ele>253</ele>
        <time>2022-06-06T07:18:33.000Z</time>
      </trkpt>
      <trkpt lat="49.78451" lon="4.79671">
        <ele>253</ele>
        <time>2022-06-06T07:18:34.000Z</time>
      </trkpt>
      <trkpt lat="49.78456" lon="4.79673">
        <ele>253</ele>
        <time>2022-06-06T07:18:35.000Z</time>
      </trkpt>
      <trkpt lat="49.78461" lon="4.79675">
        <ele>254</ele>
        <time>2022-06-06T07:18:36.000Z</time>
      </trkpt>
      <trkpt lat="49.78466" lon="4.79677">
        <ele>254</ele>
        <time>2022-06-06T07:18:37.000Z</time>
      </trkpt>
      <trkpt lat="49.78471" lon="4.79679">
        <ele>254</ele>
        <time>2022-06-06T07:18:38.000Z</time>
      </trkpt>
      <trkpt lat="49.78476" lon="4.79681">
        <ele>254</ele>
        <time>2022-06-06T07:18:39.000Z</time>
      </trkpt>
      <trkpt lat="49.78481" lon="4.79683">
        <ele>254</ele>
        <time>2022-06-06T07:18:40.000Z</time>
      </trkpt>
      <trkpt lat="49.78486" lon="4.79685">
        <ele>254</ele>
        <time>2022-06-06T07:18:41.000Z</time>
      </trkpt>
      <trkpt lat="49.78491" lon="4.79686">
        <ele>255</ele>
        <time>2022-06-06T07:18:42.000Z</time>
      </trkpt>
      <trkpt lat="49.78496" lon="4.79688">
        <ele>255</ele>
        <time>2022-06-06T07:18:43.000Z</time>
      </trkpt>
      <trkpt lat="49.78501" lon="4.7969">
        <ele>255</ele>
        <time>2022-06-06T07:18:44.000Z</time>
      </trkpt>
      <trkpt lat="49.78505" lon="4.79692">
        <ele>255</ele>
        <time>2022-06-06T07:18:45.000Z</time>
      </trkpt>
      <trkpt lat="49.7851" lon="4.79695">
        <ele>255</ele>
        <time>2022-06-06T07:18:46.000Z</time>
      </trkpt>
      <trkpt lat="49.78515" lon="4.79696">
        <ele>256</ele>
        <time>2022-06-06T07:18:47.000Z</time>
      </trkpt>
      <trkpt lat="49.78519" lon="4.79698">
        <ele>256</ele>
        <time>2022-06-06T07:18:48.000Z</time>
      </trkpt>
      <trkpt lat="49.78524" lon="4.797">
        <ele>256</ele>
        <time>2022-06-06T07:18:49.000Z</time>
      </trkpt>
      <trkpt lat="49.78529" lon="4.79702">
        <ele>256</ele>
        <time>2022-06-06T07:18:50.000Z</time>
      </trkpt>
      <trkpt lat="49.78534" lon="4.79703">
        <ele>256</ele>
        <time>2022-06-06T07:18:51.000Z</time>
      </trkpt>
      <trkpt lat="49.78538" lon="4.79704">
        <ele>257</ele>
        <time>2022-06-06T07:18:52.000Z</time>
      </trkpt>
      <trkpt lat="49.78543" lon="4.79706">
        <ele>257</ele>
        <time>2022-06-06T07:18:53.000Z</time>
      </trkpt>
      <trkpt lat="49.78548" lon="4.79708">
        <ele>257</ele>
        <time>2022-06-06T07:18:54.000Z</time>
      </trkpt>
      <trkpt lat="49.78552" lon="4.79709">
        <ele>257</ele>
        <time>2022-06-06T07:18:55.000Z</time>
      </trkpt>
      <trkpt lat="49.78557" lon="4.79711">
        <ele>258</ele>
        <time>2022-06-06T07:18:56.000Z</time>
      </trkpt>
      <trkpt lat="49.78562" lon="4.79713">
        <ele>258</ele>
        <time>2022-06-06T07:18:57.000Z</time>
      </trkpt>
      <trkpt lat="49.78566" lon="4.79714">
        <ele>258</ele>
        <time>2022-06-06T07:18:58.000Z</time>
      </trkpt>
      <trkpt lat="49.78571" lon="4.79716">
        <ele>258</ele>
        <time>2022-06-06T07:18:59.000Z</time>
      </trkpt>
      <trkpt lat="49.78575" lon="4.79718">
        <ele>259</ele>
        <time>2022-06-06T07:19:00.000Z</time>
      </trkpt>
      <trkpt lat="49.7858" lon="4.7972">
        <ele>259</ele>
        <time>2022-06-06T07:19:01.000Z</time>
      </trkpt>
      <trkpt lat="49.78584" lon="4.79721">
        <ele>259</ele>
        <time>2022-06-06T07:19:02.000Z</time>
      </trkpt>
      <trkpt lat="49.78589" lon="4.79723">
        <ele>259</ele>
        <time>2022-06-06T07:19:03.000Z</time>
      </trkpt>
      <trkpt lat="49.78593" lon="4.79724">
        <ele>260</ele>
        <time>2022-06-06T07:19:04.000Z</time>
      </trkpt>
      <trkpt lat="49.78598" lon="4.79726">
        <ele>260</ele>
        <time>2022-06-06T07:19:05.000Z</time>
      </trkpt>
      <trkpt lat="49.78602" lon="4.79728">
        <ele>260</ele>
        <time>2022-06-06T07:19:06.000Z</time>
      </trkpt>
      <trkpt lat="49.78607" lon="4.7973">
        <ele>260</ele>
        <time>2022-06-06T07:19:07.000Z</time>
      </trkpt>
      <trkpt lat="49.78611" lon="4.79731">
        <ele>261</ele>
        <time>2022-06-06T07:19:08.000Z</time>
      </trkpt>
      <trkpt lat="49.78616" lon="4.79733">
        <ele>261</ele>
        <time>2022-06-06T07:19:09.000Z</time>
      </trkpt>
      <trkpt lat="49.78621" lon="4.79735">
        <ele>261</ele>
        <time>2022-06-06T07:19:10.000Z</time>
      </trkpt>
      <trkpt lat="49.78625" lon="4.79736">
        <ele>261</ele>
        <time>2022-06-06T07:19:11.000Z</time>
      </trkpt>
      <trkpt lat="49.7863" lon="4.79738">
        <ele>262</ele>
        <time>2022-06-06T07:19:12.000Z</time>
      </trkpt>
      <trkpt lat="49.78635" lon="4.7974">
        <ele>262</ele>
        <time>2022-06-06T07:19:13.000Z</time>
      </trkpt>
      <trkpt lat="49.7864" lon="4.79742">
        <ele>262</ele>
        <time>2022-06-06T07:19:14.000Z</time>
      </trkpt>
      <trkpt lat="49.78644" lon="4.79744">
        <ele>262</ele>
        <time>2022-06-06T07:19:15.000Z</time>
      </trkpt>
      <trkpt lat="49.78649" lon="4.79746">
        <ele>262</ele>
        <time>2022-06-06T07:19:16.000Z</time>
      </trkpt>
      <trkpt lat="49.78654" lon="4.79748">
        <ele>262</ele>
        <time>2022-06-06T07:19:17.000Z</time>
      </trkpt>
      <trkpt lat="49.78659" lon="4.7975">
        <ele>263</ele>
        <time>2022-06-06T07:19:18.000Z</time>
      </trkpt>
      <trkpt lat="49.78664" lon="4.79751">
        <ele>263</ele>
        <time>2022-06-06T07:19:19.000Z</time>
      </trkpt>
      <trkpt lat="49.78669" lon="4.79753">
        <ele>263</ele>
        <time>2022-06-06T07:19:20.000Z</time>
      </trkpt>
      <trkpt lat="49.78674" lon="4.79755">
        <ele>263</ele>
        <time>2022-06-06T07:19:21.000Z</time>
      </trkpt>
      <trkpt lat="49.78679" lon="4.79757">
        <ele>263</ele>
        <time>2022-06-06T07:19:22.000Z</time>
      </trkpt>
      <trkpt lat="49.78684" lon="4.79758">
        <ele>264</ele>
        <time>2022-06-06T07:19:23.000Z</time>
      </trkpt>
      <trkpt lat="49.78689" lon="4.7976">
        <ele>264</ele>
        <time>2022-06-06T07:19:24.000Z</time>
      </trkpt>
      <trkpt lat="49.78694" lon="4.79762">
        <ele>264</ele>
        <time>2022-06-06T07:19:25.000Z</time>
      </trkpt>
      <trkpt lat="49.78699" lon="4.79764">
        <ele>264</ele>
        <time>2022-06-06T07:19:26.000Z</time>
      </trkpt>
      <trkpt lat="49.78704" lon="4.79765">
        <ele>264</ele>
        <time>2022-06-06T07:19:27.000Z</time>
      </trkpt>
      <trkpt lat="49.78709" lon="4.79767">
        <ele>264</ele>
        <time>2022-06-06T07:19:28.000Z</time>
      </trkpt>
      <trkpt lat="49.78714" lon="4.79768">
        <ele>264</ele>
        <time>2022-06-06T07:19:29.000Z</time>
      </trkpt>
      <trkpt lat="49.78719" lon="4.7977">
        <ele>264</ele>
        <time>2022-06-06T07:19:30.000Z</time>
      </trkpt>
      <trkpt lat="49.78725" lon="4.79771">
        <ele>265</ele>
        <time>2022-06-06T07:19:31.000Z</time>
      </trkpt>
      <trkpt lat="49.7873" lon="4.79772">
        <ele>265</ele>
        <time>2022-06-06T07:19:32.000Z</time>
      </trkpt>
      <trkpt lat="49.78735" lon="4.79773">
        <ele>265</ele>
        <time>2022-06-06T07:19:33.000Z</time>
      </trkpt>
      <trkpt lat="49.78741" lon="4.79775">
        <ele>265</ele>
        <time>2022-06-06T07:19:34.000Z</time>
      </trkpt>
      <trkpt lat="49.78746" lon="4.79777">
        <ele>265</ele>
        <time>2022-06-06T07:19:35.000Z</time>
      </trkpt>
      <trkpt lat="49.78752" lon="4.7978">
        <ele>265</ele>
        <time>2022-06-06T07:19:36.000Z</time>
      </trkpt>
      <trkpt lat="49.78758" lon="4.79782">
        <ele>265</ele>
        <time>2022-06-06T07:19:37.000Z</time>
      </trkpt>
      <trkpt lat="49.78764" lon="4.79785">
        <ele>265</ele>
        <time>2022-06-06T07:19:38.000Z</time>
      </trkpt>
      <trkpt lat="49.7877" lon="4.79788">
        <ele>265</ele>
        <time>2022-06-06T07:19:39.000Z</time>
      </trkpt>
      <trkpt lat="49.78776" lon="4.79791">
        <ele>266</ele>
        <time>2022-06-06T07:19:40.000Z</time>
      </trkpt>
      <trkpt lat="49.78782" lon="4.79793">
        <ele>266</ele>
        <time>2022-06-06T07:19:41.000Z</time>
      </trkpt>
      <trkpt lat="49.78788" lon="4.79796">
        <ele>266</ele>
        <time>2022-06-06T07:19:42.000Z</time>
      </trkpt>
      <trkpt lat="49.78794" lon="4.79799">
        <ele>266</ele>
        <time>2022-06-06T07:19:43.000Z</time>
      </trkpt>
      <trkpt lat="49.788" lon="4.79802">
        <ele>267</ele>
        <time>2022-06-06T07:19:44.000Z</time>
      </trkpt>
      <trkpt lat="49.78806" lon="4.79806">
        <ele>267</ele>
        <time>2022-06-06T07:19:45.000Z</time>
      </trkpt>
      <trkpt lat="49.78813" lon="4.79808">
        <ele>267</ele>
        <time>2022-06-06T07:19:46.000Z</time>
      </trkpt>
      <trkpt lat="49.78819" lon="4.79812">
        <ele>268</ele>
        <time>2022-06-06T07:19:47.000Z</time>
      </trkpt>
      <trkpt lat="49.78825" lon="4.79815">
        <ele>268</ele>
        <time>2022-06-06T07:19:48.000Z</time>
      </trkpt>
      <trkpt lat="49.78832" lon="4.79819">
        <ele>268</ele>
        <time>2022-06-06T07:19:49.000Z</time>
      </trkpt>
      <trkpt lat="49.78838" lon="4.79823">
        <ele>268</ele>
        <time>2022-06-06T07:19:50.000Z</time>
      </trkpt>
      <trkpt lat="49.78844" lon="4.79826">
        <ele>268</ele>
        <time>2022-06-06T07:19:51.000Z</time>
      </trkpt>
      <trkpt lat="49.7885" lon="4.7983">
        <ele>269</ele>
        <time>2022-06-06T07:19:52.000Z</time>
      </trkpt>
      <trkpt lat="49.78856" lon="4.79834">
        <ele>269</ele>
        <time>2022-06-06T07:19:53.000Z</time>
      </trkpt>
      <trkpt lat="49.78862" lon="4.79838">
        <ele>269</ele>
        <time>2022-06-06T07:19:54.000Z</time>
      </trkpt>
      <trkpt lat="49.78868" lon="4.79841">
        <ele>269</ele>
        <time>2022-06-06T07:19:55.000Z</time>
      </trkpt>
      <trkpt lat="49.78874" lon="4.79846">
        <ele>269</ele>
        <time>2022-06-06T07:19:56.000Z</time>
      </trkpt>
      <trkpt lat="49.78881" lon="4.7985">
        <ele>269</ele>
        <time>2022-06-06T07:19:57.000Z</time>
      </trkpt>
      <trkpt lat="49.78887" lon="4.79855">
        <ele>269</ele>
        <time>2022-06-06T07:19:58.000Z</time>
      </trkpt>
      <trkpt lat="49.78893" lon="4.7986">
        <ele>268</ele>
        <time>2022-06-06T07:19:59.000Z</time>
      </trkpt>
      <trkpt lat="49.78899" lon="4.79865">
        <ele>268</ele>
        <time>2022-06-06T07:20:00.000Z</time>
      </trkpt>
      <trkpt lat="49.78905" lon="4.79869">
        <ele>268</ele>
        <time>2022-06-06T07:20:01.000Z</time>
      </trkpt>
      <trkpt lat="49.78911" lon="4.79874">
        <ele>268</ele>
        <time>2022-06-06T07:20:02.000Z</time>
      </trkpt>
      <trkpt lat="49.78917" lon="4.79878">
        <ele>268</ele>
        <time>2022-06-06T07:20:03.000Z</time>
      </trkpt>
      <trkpt lat="49.78922" lon="4.79883">
        <ele>268</ele>
        <time>2022-06-06T07:20:04.000Z</time>
      </trkpt>
      <trkpt lat="49.78928" lon="4.79888">
        <ele>268</ele>
        <time>2022-06-06T07:20:05.000Z</time>
      </trkpt>
      <trkpt lat="49.78934" lon="4.79894">
        <ele>268</ele>
        <time>2022-06-06T07:20:06.000Z</time>
      </trkpt>
      <trkpt lat="49.78939" lon="4.79899">
        <ele>268</ele>
        <time>2022-06-06T07:20:07.000Z</time>
      </trkpt>
      <trkpt lat="49.78945" lon="4.79904">
        <ele>268</ele>
        <time>2022-06-06T07:20:08.000Z</time>
      </trkpt>
      <trkpt lat="49.78951" lon="4.79909">
        <ele>268</ele>
        <time>2022-06-06T07:20:09.000Z</time>
      </trkpt>
      <trkpt lat="49.78957" lon="4.79914">
        <ele>268</ele>
        <time>2022-06-06T07:20:10.000Z</time>
      </trkpt>
      <trkpt lat="49.78962" lon="4.79919">
        <ele>268</ele>
        <time>2022-06-06T07:20:11.000Z</time>
      </trkpt>
      <trkpt lat="49.78968" lon="4.79924">
        <ele>267</ele>
        <time>2022-06-06T07:20:12.000Z</time>
      </trkpt>
      <trkpt lat="49.78974" lon="4.79929">
        <ele>267</ele>
        <time>2022-06-06T07:20:13.000Z</time>
      </trkpt>
      <trkpt lat="49.7898" lon="4.79934">
        <ele>267</ele>
        <time>2022-06-06T07:20:14.000Z</time>
      </trkpt>
      <trkpt lat="49.78986" lon="4.79939">
        <ele>267</ele>
        <time>2022-06-06T07:20:15.000Z</time>
      </trkpt>
      <trkpt lat="49.78992" lon="4.79944">
        <ele>267</ele>
        <time>2022-06-06T07:20:16.000Z</time>
      </trkpt>
      <trkpt lat="49.78998" lon="4.7995">
        <ele>267</ele>
        <time>2022-06-06T07:20:17.000Z</time>
      </trkpt>
      <trkpt lat="49.79004" lon="4.79955">
        <ele>267</ele>
        <time>2022-06-06T07:20:18.000Z</time>
      </trkpt>
      <trkpt lat="49.79009" lon="4.79961">
        <ele>267</ele>
        <time>2022-06-06T07:20:19.000Z</time>
      </trkpt>
      <trkpt lat="49.79015" lon="4.79966">
        <ele>267</ele>
        <time>2022-06-06T07:20:20.000Z</time>
      </trkpt>
      <trkpt lat="49.79022" lon="4.79971">
        <ele>267</ele>
        <time>2022-06-06T07:20:21.000Z</time>
      </trkpt>
      <trkpt lat="49.79028" lon="4.79977">
        <ele>266</ele>
        <time>2022-06-06T07:20:22.000Z</time>
      </trkpt>
      <trkpt lat="49.79034" lon="4.79983">
        <ele>266</ele>
        <time>2022-06-06T07:20:23.000Z</time>
      </trkpt>
      <trkpt lat="49.7904" lon="4.79988">
        <ele>266</ele>
        <time>2022-06-06T07:20:24.000Z</time>
      </trkpt>
      <trkpt lat="49.79046" lon="4.79994">
        <ele>266</ele>
        <time>2022-06-06T07:20:25.000Z</time>
      </trkpt>
      <trkpt lat="49.79052" lon="4.79999">
        <ele>266</ele>
        <time>2022-06-06T07:20:26.000Z</time>
      </trkpt>
      <trkpt lat="49.79058" lon="4.80005">
        <ele>266</ele>
        <time>2022-06-06T07:20:27.000Z</time>
      </trkpt>
      <trkpt lat="49.79065" lon="4.80011">
        <ele>266</ele>
        <time>2022-06-06T07:20:28.000Z</time>
      </trkpt>
      <trkpt lat="49.79071" lon="4.80016">
        <ele>266</ele>
        <time>2022-06-06T07:20:29.000Z</time>
      </trkpt>
      <trkpt lat="49.79077" lon="4.80022">
        <ele>266</ele>
        <time>2022-06-06T07:20:30.000Z</time>
      </trkpt>
      <trkpt lat="49.79083" lon="4.80028">
        <ele>266</ele>
        <time>2022-06-06T07:20:31.000Z</time>
      </trkpt>
      <trkpt lat="49.79089" lon="4.80033">
        <ele>266</ele>
        <time>2022-06-06T07:20:32.000Z</time>
      </trkpt>
      <trkpt lat="49.79095" lon="4.80038">
        <ele>266</ele>
        <time>2022-06-06T07:20:33.000Z</time>
      </trkpt>
      <trkpt lat="49.79102" lon="4.80043">
        <ele>266</ele>
        <time>2022-06-06T07:20:34.000Z</time>
      </trkpt>
      <trkpt lat="49.79108" lon="4.80048">
        <ele>266</ele>
        <time>2022-06-06T07:20:35.000Z</time>
      </trkpt>
      <trkpt lat="49.79114" lon="4.80053">
        <ele>266</ele>
        <time>2022-06-06T07:20:36.000Z</time>
      </trkpt>
      <trkpt lat="49.7912" lon="4.80057">
        <ele>266</ele>
        <time>2022-06-06T07:20:37.000Z</time>
      </trkpt>
      <trkpt lat="49.79126" lon="4.80061">
        <ele>266</ele>
        <time>2022-06-06T07:20:38.000Z</time>
      </trkpt>
      <trkpt lat="49.79131" lon="4.80064">
        <ele>266</ele>
        <time>2022-06-06T07:20:39.000Z</time>
      </trkpt>
      <trkpt lat="49.79137" lon="4.80068">
        <ele>266</ele>
        <time>2022-06-06T07:20:40.000Z</time>
      </trkpt>
      <trkpt lat="49.79142" lon="4.8007">
        <ele>266</ele>
        <time>2022-06-06T07:20:41.000Z</time>
      </trkpt>
      <trkpt lat="49.79146" lon="4.80071">
        <ele>266</ele>
        <time>2022-06-06T07:20:42.000Z</time>
      </trkpt>
      <trkpt lat="49.79151" lon="4.8007">
        <ele>266</ele>
        <time>2022-06-06T07:20:43.000Z</time>
      </trkpt>
      <trkpt lat="49.79156" lon="4.8007">
        <ele>266</ele>
        <time>2022-06-06T07:20:44.000Z</time>
      </trkpt>
      <trkpt lat="49.7916" lon="4.80069">
        <ele>266</ele>
        <time>2022-06-06T07:20:45.000Z</time>
      </trkpt>
      <trkpt lat="49.79165" lon="4.80068">
        <ele>266</ele>
        <time>2022-06-06T07:20:46.000Z</time>
      </trkpt>
      <trkpt lat="49.79171" lon="4.80067">
        <ele>266</ele>
        <time>2022-06-06T07:20:47.000Z</time>
      </trkpt>
      <trkpt lat="49.79176" lon="4.80066">
        <ele>266</ele>
        <time>2022-06-06T07:20:48.000Z</time>
      </trkpt>
      <trkpt lat="49.79182" lon="4.80065">
        <ele>266</ele>
        <time>2022-06-06T07:20:49.000Z</time>
      </trkpt>
      <trkpt lat="49.79187" lon="4.80064">
        <ele>266</ele>
        <time>2022-06-06T07:20:50.000Z</time>
      </trkpt>
      <trkpt lat="49.79193" lon="4.80063">
        <ele>266</ele>
        <time>2022-06-06T07:20:51.000Z</time>
      </trkpt>
      <trkpt lat="49.79198" lon="4.80062">
        <ele>266</ele>
        <time>2022-06-06T07:20:52.000Z</time>
      </trkpt>
      <trkpt lat="49.79202" lon="4.80062">
        <ele>266</ele>
        <time>2022-06-06T07:20:53.000Z</time>
      </trkpt>
      <trkpt lat="49.79206" lon="4.80061">
        <ele>266</ele>
        <time>2022-06-06T07:20:54.000Z</time>
      </trkpt>
      <trkpt lat="49.7921" lon="4.8006">
        <ele>266</ele>
        <time>2022-06-06T07:20:55.000Z</time>
      </trkpt>
      <trkpt lat="49.79214" lon="4.8006">
        <ele>266</ele>
        <time>2022-06-06T07:20:56.000Z</time>
      </trkpt>
      <trkpt lat="49.79217" lon="4.80059">
        <ele>267</ele>
        <time>2022-06-06T07:20:57.000Z</time>
      </trkpt>
      <trkpt lat="49.79221" lon="4.80057">
        <ele>267</ele>
        <time>2022-06-06T07:20:58.000Z</time>
      </trkpt>
      <trkpt lat="49.79224" lon="4.80057">
        <ele>267</ele>
        <time>2022-06-06T07:20:59.000Z</time>
      </trkpt>
      <trkpt lat="49.79227" lon="4.80056">
        <ele>267</ele>
        <time>2022-06-06T07:21:00.000Z</time>
      </trkpt>
      <trkpt lat="49.79229" lon="4.80056">
        <ele>267</ele>
        <time>2022-06-06T07:21:01.000Z</time>
      </trkpt>
      <trkpt lat="49.79233" lon="4.80056">
        <ele>268</ele>
        <time>2022-06-06T07:21:02.000Z</time>
      </trkpt>
      <trkpt lat="49.79236" lon="4.80055">
        <ele>268</ele>
        <time>2022-06-06T07:21:03.000Z</time>
      </trkpt>
      <trkpt lat="49.79239" lon="4.80054">
        <ele>268</ele>
        <time>2022-06-06T07:21:04.000Z</time>
      </trkpt>
      <trkpt lat="49.79241" lon="4.80054">
        <ele>269</ele>
        <time>2022-06-06T07:21:05.000Z</time>
      </trkpt>
      <trkpt lat="49.79244" lon="4.80053">
        <ele>269</ele>
        <time>2022-06-06T07:21:06.000Z</time>
      </trkpt>
      <trkpt lat="49.79247" lon="4.80052">
        <ele>269</ele>
        <time>2022-06-06T07:21:07.000Z</time>
      </trkpt>
      <trkpt lat="49.79251" lon="4.80051">
        <ele>269</ele>
        <time>2022-06-06T07:21:08.000Z</time>
      </trkpt>
      <trkpt lat="49.79254" lon="4.8005">
        <ele>270</ele>
        <time>2022-06-06T07:21:09.000Z</time>
      </trkpt>
      <trkpt lat="49.79257" lon="4.80049">
        <ele>270</ele>
        <time>2022-06-06T07:21:10.000Z</time>
      </trkpt>
      <trkpt lat="49.79261" lon="4.80048">
        <ele>270</ele>
        <time>2022-06-06T07:21:11.000Z</time>
      </trkpt>
      <trkpt lat="49.79264" lon="4.80047">
        <ele>271</ele>
        <time>2022-06-06T07:21:12.000Z</time>
      </trkpt>
      <trkpt lat="49.79267" lon="4.80046">
        <ele>271</ele>
        <time>2022-06-06T07:21:13.000Z</time>
      </trkpt>
      <trkpt lat="49.7927" lon="4.80046">
        <ele>271</ele>
        <time>2022-06-06T07:21:14.000Z</time>
      </trkpt>
      <trkpt lat="49.79272" lon="4.80046">
        <ele>272</ele>
        <time>2022-06-06T07:21:15.000Z</time>
      </trkpt>
      <trkpt lat="49.79275" lon="4.80047">
        <ele>272</ele>
        <time>2022-06-06T07:21:16.000Z</time>
      </trkpt>
      <trkpt lat="49.79277" lon="4.80047">
        <ele>272</ele>
        <time>2022-06-06T07:21:17.000Z</time>
      </trkpt>
      <trkpt lat="49.7928" lon="4.80046">
        <ele>273</ele>
        <time>2022-06-06T07:21:18.000Z</time>
      </trkpt>
      <trkpt lat="49.79282" lon="4.80045">
        <ele>273</ele>
        <time>2022-06-06T07:21:19.000Z</time>
      </trkpt>
      <trkpt lat="49.79284" lon="4.80043">
        <ele>273</ele>
        <time>2022-06-06T07:21:20.000Z</time>
      </trkpt>
      <trkpt lat="49.79286" lon="4.80043">
        <ele>274</ele>
        <time>2022-06-06T07:21:21.000Z</time>
      </trkpt>
      <trkpt lat="49.79288" lon="4.80042">
        <ele>274</ele>
        <time>2022-06-06T07:21:22.000Z</time>
      </trkpt>
      <trkpt lat="49.79291" lon="4.80041">
        <ele>275</ele>
        <time>2022-06-06T07:21:23.000Z</time>
      </trkpt>
      <trkpt lat="49.79292" lon="4.8004">
        <ele>275</ele>
        <time>2022-06-06T07:21:24.000Z</time>
      </trkpt>
      <trkpt lat="49.79294" lon="4.8004">
        <ele>275</ele>
        <time>2022-06-06T07:21:25.000Z</time>
      </trkpt>
      <trkpt lat="49.79297" lon="4.80039">
        <ele>275</ele>
        <time>2022-06-06T07:21:26.000Z</time>
      </trkpt>
      <trkpt lat="49.79299" lon="4.80039">
        <ele>276</ele>
        <time>2022-06-06T07:21:27.000Z</time>
      </trkpt>
      <trkpt lat="49.79301" lon="4.80039">
        <ele>276</ele>
        <time>2022-06-06T07:21:28.000Z</time>
      </trkpt>
      <trkpt lat="49.79303" lon="4.80039">
        <ele>276</ele>
        <time>2022-06-06T07:21:29.000Z</time>
      </trkpt>
      <trkpt lat="49.79304" lon="4.80037">
        <ele>276</ele>
        <time>2022-06-06T07:21:30.000Z</time>
      </trkpt>
      <trkpt lat="49.79306" lon="4.80035">
        <ele>277</ele>
        <time>2022-06-06T07:21:31.000Z</time>
      </trkpt>
      <trkpt lat="49.79308" lon="4.80033">
        <ele>277</ele>
        <time>2022-06-06T07:21:32.000Z</time>
      </trkpt>
      <trkpt lat="49.79311" lon="4.80029">
        <ele>277</ele>
        <time>2022-06-06T07:21:33.000Z</time>
      </trkpt>
      <trkpt lat="49.79314" lon="4.80026">
        <ele>277</ele>
        <time>2022-06-06T07:21:34.000Z</time>
      </trkpt>
      <trkpt lat="49.79316" lon="4.80022">
        <ele>278</ele>
        <time>2022-06-06T07:21:35.000Z</time>
      </trkpt>
      <trkpt lat="49.79319" lon="4.80019">
        <ele>278</ele>
        <time>2022-06-06T07:21:36.000Z</time>
      </trkpt>
      <trkpt lat="49.79322" lon="4.80015">
        <ele>278</ele>
        <time>2022-06-06T07:21:37.000Z</time>
      </trkpt>
      <trkpt lat="49.79324" lon="4.80012">
        <ele>278</ele>
        <time>2022-06-06T07:21:38.000Z</time>
      </trkpt>
      <trkpt lat="49.79326" lon="4.80009">
        <ele>279</ele>
        <time>2022-06-06T07:21:39.000Z</time>
      </trkpt>
      <trkpt lat="49.79328" lon="4.80006">
        <ele>279</ele>
        <time>2022-06-06T07:21:40.000Z</time>
      </trkpt>
      <trkpt lat="49.7933" lon="4.80004">
        <ele>279</ele>
        <time>2022-06-06T07:21:41.000Z</time>
      </trkpt>
      <trkpt lat="49.79331" lon="4.80001">
        <ele>279</ele>
        <time>2022-06-06T07:21:42.000Z</time>
      </trkpt>
      <trkpt lat="49.79332" lon="4.79999">
        <ele>280</ele>
        <time>2022-06-06T07:21:43.000Z</time>
      </trkpt>
      <trkpt lat="49.79332" lon="4.79998">
        <ele>280</ele>
        <time>2022-06-06T07:21:44.000Z</time>
      </trkpt>
      <trkpt lat="49.79333" lon="4.79995">
        <ele>280</ele>
        <time>2022-06-06T07:21:45.000Z</time>
      </trkpt>
      <trkpt lat="49.79335" lon="4.79992">
        <ele>280</ele>
        <time>2022-06-06T07:21:46.000Z</time>
      </trkpt>
      <trkpt lat="49.79336" lon="4.79989">
        <ele>281</ele>
        <time>2022-06-06T07:21:47.000Z</time>
      </trkpt>
      <trkpt lat="49.79338" lon="4.79985">
        <ele>281</ele>
        <time>2022-06-06T07:21:48.000Z</time>
      </trkpt>
      <trkpt lat="49.79339" lon="4.79982">
        <ele>281</ele>
        <time>2022-06-06T07:21:49.000Z</time>
      </trkpt>
      <trkpt lat="49.79341" lon="4.79978">
        <ele>281</ele>
        <time>2022-06-06T07:21:50.000Z</time>
      </trkpt>
      <trkpt lat="49.79342" lon="4.79973">
        <ele>281</ele>
        <time>2022-06-06T07:21:51.000Z</time>
      </trkpt>
      <trkpt lat="49.79344" lon="4.79968">
        <ele>281</ele>
        <time>2022-06-06T07:21:52.000Z</time>
      </trkpt>
      <trkpt lat="49.79346" lon="4.79963">
        <ele>281</ele>
        <time>2022-06-06T07:21:53.000Z</time>
      </trkpt>
      <trkpt lat="49.79348" lon="4.79958">
        <ele>281</ele>
        <time>2022-06-06T07:21:54.000Z</time>
      </trkpt>
      <trkpt lat="49.7935" lon="4.79952">
        <ele>281</ele>
        <time>2022-06-06T07:21:55.000Z</time>
      </trkpt>
      <trkpt lat="49.79352" lon="4.79947">
        <ele>282</ele>
        <time>2022-06-06T07:21:56.000Z</time>
      </trkpt>
      <trkpt lat="49.79354" lon="4.79942">
        <ele>282</ele>
        <time>2022-06-06T07:21:57.000Z</time>
      </trkpt>
      <trkpt lat="49.79356" lon="4.79937">
        <ele>282</ele>
        <time>2022-06-06T07:21:58.000Z</time>
      </trkpt>
      <trkpt lat="49.79358" lon="4.79931">
        <ele>283</ele>
        <time>2022-06-06T07:21:59.000Z</time>
      </trkpt>
      <trkpt lat="49.7936" lon="4.79925">
        <ele>283</ele>
        <time>2022-06-06T07:22:00.000Z</time>
      </trkpt>
      <trkpt lat="49.79362" lon="4.79919">
        <ele>283</ele>
        <time>2022-06-06T07:22:01.000Z</time>
      </trkpt>
      <trkpt lat="49.79364" lon="4.79914">
        <ele>284</ele>
        <time>2022-06-06T07:22:02.000Z</time>
      </trkpt>
      <trkpt lat="49.79366" lon="4.7991">
        <ele>284</ele>
        <time>2022-06-06T07:22:03.000Z</time>
      </trkpt>
      <trkpt lat="49.79368" lon="4.79907">
        <ele>284</ele>
        <time>2022-06-06T07:22:04.000Z</time>
      </trkpt>
      <trkpt lat="49.79369" lon="4.79904">
        <ele>284</ele>
        <time>2022-06-06T07:22:05.000Z</time>
      </trkpt>
      <trkpt lat="49.7937" lon="4.79902">
        <ele>285</ele>
        <time>2022-06-06T07:22:06.000Z</time>
      </trkpt>
      <trkpt lat="49.79371" lon="4.79899">
        <ele>285</ele>
        <time>2022-06-06T07:22:07.000Z</time>
      </trkpt>
      <trkpt lat="49.79373" lon="4.79896">
        <ele>285</ele>
        <time>2022-06-06T07:22:08.000Z</time>
      </trkpt>
      <trkpt lat="49.79375" lon="4.79893">
        <ele>285</ele>
        <time>2022-06-06T07:22:09.000Z</time>
      </trkpt>
      <trkpt lat="49.79377" lon="4.79889">
        <ele>285</ele>
        <time>2022-06-06T07:22:10.000Z</time>
      </trkpt>
      <trkpt lat="49.79379" lon="4.79885">
        <ele>285</ele>
        <time>2022-06-06T07:22:11.000Z</time>
      </trkpt>
      <trkpt lat="49.79381" lon="4.79881">
        <ele>285</ele>
        <time>2022-06-06T07:22:12.000Z</time>
      </trkpt>
      <trkpt lat="49.79383" lon="4.79877">
        <ele>285</ele>
        <time>2022-06-06T07:22:13.000Z</time>
      </trkpt>
      <trkpt lat="49.79384" lon="4.79874">
        <ele>285</ele>
        <time>2022-06-06T07:22:14.000Z</time>
      </trkpt>
      <trkpt lat="49.79385" lon="4.7987">
        <ele>285</ele>
        <time>2022-06-06T07:22:15.000Z</time>
      </trkpt>
      <trkpt lat="49.79386" lon="4.79867">
        <ele>285</ele>
        <time>2022-06-06T07:22:16.000Z</time>
      </trkpt>
      <trkpt lat="49.79388" lon="4.79862">
        <ele>285</ele>
        <time>2022-06-06T07:22:17.000Z</time>
      </trkpt>
      <trkpt lat="49.7939" lon="4.79858">
        <ele>285</ele>
        <time>2022-06-06T07:22:18.000Z</time>
      </trkpt>
      <trkpt lat="49.79392" lon="4.79855">
        <ele>285</ele>
        <time>2022-06-06T07:22:19.000Z</time>
      </trkpt>
      <trkpt lat="49.79393" lon="4.79853">
        <ele>285</ele>
        <time>2022-06-06T07:22:20.000Z</time>
      </trkpt>
      <trkpt lat="49.79395" lon="4.79851">
        <ele>285</ele>
        <time>2022-06-06T07:22:21.000Z</time>
      </trkpt>
      <trkpt lat="49.79397" lon="4.7985">
        <ele>285</ele>
        <time>2022-06-06T07:22:22.000Z</time>
      </trkpt>
      <trkpt lat="49.79398" lon="4.79849">
        <ele>285</ele>
        <time>2022-06-06T07:22:23.000Z</time>
      </trkpt>
      <trkpt lat="49.794" lon="4.79848">
        <ele>285</ele>
        <time>2022-06-06T07:22:24.000Z</time>
      </trkpt>
      <trkpt lat="49.79402" lon="4.79847">
        <ele>285</ele>
        <time>2022-06-06T07:22:25.000Z</time>
      </trkpt>
      <trkpt lat="49.79404" lon="4.79846">
        <ele>285</ele>
        <time>2022-06-06T07:22:26.000Z</time>
      </trkpt>
      <trkpt lat="49.79405" lon="4.79845">
        <ele>285</ele>
        <time>2022-06-06T07:22:27.000Z</time>
      </trkpt>
      <trkpt lat="49.79407" lon="4.79844">
        <ele>285</ele>
        <time>2022-06-06T07:22:28.000Z</time>
      </trkpt>
      <trkpt lat="49.79409" lon="4.79843">
        <ele>286</ele>
        <time>2022-06-06T07:22:29.000Z</time>
      </trkpt>
      <trkpt lat="49.79411" lon="4.79843">
        <ele>286</ele>
        <time>2022-06-06T07:22:30.000Z</time>
      </trkpt>
      <trkpt lat="49.79413" lon="4.79842">
        <ele>286</ele>
        <time>2022-06-06T07:22:31.000Z</time>
      </trkpt>
      <trkpt lat="49.79415" lon="4.79842">
        <ele>286</ele>
        <time>2022-06-06T07:22:32.000Z</time>
      </trkpt>
      <trkpt lat="49.79417" lon="4.79841">
        <ele>286</ele>
        <time>2022-06-06T07:22:33.000Z</time>
      </trkpt>
      <trkpt lat="49.7942" lon="4.7984">
        <ele>286</ele>
        <time>2022-06-06T07:22:34.000Z</time>
      </trkpt>
      <trkpt lat="49.79423" lon="4.7984">
        <ele>285</ele>
        <time>2022-06-06T07:22:35.000Z</time>
      </trkpt>
      <trkpt lat="49.79425" lon="4.79839">
        <ele>285</ele>
        <time>2022-06-06T07:22:36.000Z</time>
      </trkpt>
      <trkpt lat="49.79428" lon="4.79838">
        <ele>285</ele>
        <time>2022-06-06T07:22:37.000Z</time>
      </trkpt>
      <trkpt lat="49.79431" lon="4.79838">
        <ele>285</ele>
        <time>2022-06-06T07:22:38.000Z</time>
      </trkpt>
      <trkpt lat="49.79435" lon="4.79838">
        <ele>285</ele>
        <time>2022-06-06T07:22:39.000Z</time>
      </trkpt>
      <trkpt lat="49.79438" lon="4.79837">
        <ele>285</ele>
        <time>2022-06-06T07:22:40.000Z</time>
      </trkpt>
      <trkpt lat="49.79441" lon="4.79837">
        <ele>285</ele>
        <time>2022-06-06T07:22:41.000Z</time>
      </trkpt>
      <trkpt lat="49.79443" lon="4.79838">
        <ele>285</ele>
        <time>2022-06-06T07:22:42.000Z</time>
      </trkpt>
      <trkpt lat="49.79445" lon="4.79837">
        <ele>285</ele>
        <time>2022-06-06T07:22:43.000Z</time>
      </trkpt>
      <trkpt lat="49.79448" lon="4.79837">
        <ele>285</ele>
        <time>2022-06-06T07:22:44.000Z</time>
      </trkpt>
      <trkpt lat="49.7945" lon="4.79836">
        <ele>285</ele>
        <time>2022-06-06T07:22:45.000Z</time>
      </trkpt>
      <trkpt lat="49.79453" lon="4.79835">
        <ele>285</ele>
        <time>2022-06-06T07:22:46.000Z</time>
      </trkpt>
      <trkpt lat="49.79456" lon="4.79835">
        <ele>285</ele>
        <time>2022-06-06T07:22:47.000Z</time>
      </trkpt>
      <trkpt lat="49.79458" lon="4.79836">
        <ele>285</ele>
        <time>2022-06-06T07:22:48.000Z</time>
      </trkpt>
      <trkpt lat="49.79462" lon="4.79836">
        <ele>286</ele>
        <time>2022-06-06T07:22:49.000Z</time>
      </trkpt>
      <trkpt lat="49.79465" lon="4.79835">
        <ele>286</ele>
        <time>2022-06-06T07:22:50.000Z</time>
      </trkpt>
      <trkpt lat="49.79468" lon="4.79835">
        <ele>286</ele>
        <time>2022-06-06T07:22:51.000Z</time>
      </trkpt>
      <trkpt lat="49.7947" lon="4.79835">
        <ele>286</ele>
        <time>2022-06-06T07:22:52.000Z</time>
      </trkpt>
      <trkpt lat="49.79473" lon="4.79834">
        <ele>286</ele>
        <time>2022-06-06T07:22:53.000Z</time>
      </trkpt>
      <trkpt lat="49.79476" lon="4.79834">
        <ele>286</ele>
        <time>2022-06-06T07:22:54.000Z</time>
      </trkpt>
      <trkpt lat="49.79479" lon="4.79833">
        <ele>286</ele>
        <time>2022-06-06T07:22:55.000Z</time>
      </trkpt>
      <trkpt lat="49.79481" lon="4.79833">
        <ele>286</ele>
        <time>2022-06-06T07:22:56.000Z</time>
      </trkpt>
      <trkpt lat="49.79484" lon="4.79833">
        <ele>287</ele>
        <time>2022-06-06T07:22:57.000Z</time>
      </trkpt>
      <trkpt lat="49.79486" lon="4.79833">
        <ele>287</ele>
        <time>2022-06-06T07:22:58.000Z</time>
      </trkpt>
      <trkpt lat="49.79488" lon="4.79834">
        <ele>287</ele>
        <time>2022-06-06T07:22:59.000Z</time>
      </trkpt>
      <trkpt lat="49.7949" lon="4.79834">
        <ele>287</ele>
        <time>2022-06-06T07:23:00.000Z</time>
      </trkpt>
      <trkpt lat="49.79492" lon="4.79833">
        <ele>287</ele>
        <time>2022-06-06T07:23:01.000Z</time>
      </trkpt>
      <trkpt lat="49.79495" lon="4.79833">
        <ele>287</ele>
        <time>2022-06-06T07:23:02.000Z</time>
      </trkpt>
      <trkpt lat="49.79498" lon="4.79833">
        <ele>287</ele>
        <time>2022-06-06T07:23:03.000Z</time>
      </trkpt>
      <trkpt lat="49.79501" lon="4.79833">
        <ele>287</ele>
        <time>2022-06-06T07:23:04.000Z</time>
      </trkpt>
      <trkpt lat="49.79505" lon="4.79833">
        <ele>287</ele>
        <time>2022-06-06T07:23:05.000Z</time>
      </trkpt>
      <trkpt lat="49.79508" lon="4.79832">
        <ele>288</ele>
        <time>2022-06-06T07:23:06.000Z</time>
      </trkpt>
      <trkpt lat="49.79512" lon="4.79831">
        <ele>288</ele>
        <time>2022-06-06T07:23:07.000Z</time>
      </trkpt>
      <trkpt lat="49.79515" lon="4.7983">
        <ele>288</ele>
        <time>2022-06-06T07:23:08.000Z</time>
      </trkpt>
      <trkpt lat="49.79518" lon="4.7983">
        <ele>288</ele>
        <time>2022-06-06T07:23:09.000Z</time>
      </trkpt>
      <trkpt lat="49.79521" lon="4.7983">
        <ele>288</ele>
        <time>2022-06-06T07:23:10.000Z</time>
      </trkpt>
      <trkpt lat="49.79524" lon="4.7983">
        <ele>288</ele>
        <time>2022-06-06T07:23:11.000Z</time>
      </trkpt>
      <trkpt lat="49.79527" lon="4.7983">
        <ele>288</ele>
        <time>2022-06-06T07:23:12.000Z</time>
      </trkpt>
      <trkpt lat="49.7953" lon="4.79829">
        <ele>289</ele>
        <time>2022-06-06T07:23:13.000Z</time>
      </trkpt>
      <trkpt lat="49.79533" lon="4.79829">
        <ele>289</ele>
        <time>2022-06-06T07:23:14.000Z</time>
      </trkpt>
      <trkpt lat="49.79536" lon="4.79828">
        <ele>289</ele>
        <time>2022-06-06T07:23:15.000Z</time>
      </trkpt>
      <trkpt lat="49.79539" lon="4.79829">
        <ele>289</ele>
        <time>2022-06-06T07:23:16.000Z</time>
      </trkpt>
      <trkpt lat="49.79542" lon="4.79829">
        <ele>289</ele>
        <time>2022-06-06T07:23:17.000Z</time>
      </trkpt>
      <trkpt lat="49.79545" lon="4.79829">
        <ele>289</ele>
        <time>2022-06-06T07:23:18.000Z</time>
      </trkpt>
      <trkpt lat="49.79548" lon="4.79829">
        <ele>289</ele>
        <time>2022-06-06T07:23:19.000Z</time>
      </trkpt>
      <trkpt lat="49.79551" lon="4.79829">
        <ele>289</ele>
        <time>2022-06-06T07:23:20.000Z</time>
      </trkpt>
      <trkpt lat="49.79554" lon="4.79828">
        <ele>290</ele>
        <time>2022-06-06T07:23:21.000Z</time>
      </trkpt>
      <trkpt lat="49.79558" lon="4.79828">
        <ele>290</ele>
        <time>2022-06-06T07:23:22.000Z</time>
      </trkpt>
      <trkpt lat="49.79561" lon="4.79827">
        <ele>290</ele>
        <time>2022-06-06T07:23:23.000Z</time>
      </trkpt>
      <trkpt lat="49.79563" lon="4.79827">
        <ele>290</ele>
        <time>2022-06-06T07:23:24.000Z</time>
      </trkpt>
      <trkpt lat="49.79566" lon="4.79827">
        <ele>290</ele>
        <time>2022-06-06T07:23:25.000Z</time>
      </trkpt>
      <trkpt lat="49.79569" lon="4.79827">
        <ele>290</ele>
        <time>2022-06-06T07:23:26.000Z</time>
      </trkpt>
      <trkpt lat="49.79572" lon="4.79826">
        <ele>290</ele>
        <time>2022-06-06T07:23:27.000Z</time>
      </trkpt>
      <trkpt lat="49.79575" lon="4.79825">
        <ele>290</ele>
        <time>2022-06-06T07:23:28.000Z</time>
      </trkpt>
      <trkpt lat="49.79579" lon="4.79825">
        <ele>290</ele>
        <time>2022-06-06T07:23:29.000Z</time>
      </trkpt>
      <trkpt lat="49.79582" lon="4.79825">
        <ele>290</ele>
        <time>2022-06-06T07:23:30.000Z</time>
      </trkpt>
      <trkpt lat="49.79585" lon="4.79824">
        <ele>291</ele>
        <time>2022-06-06T07:23:31.000Z</time>
      </trkpt>
      <trkpt lat="49.79589" lon="4.79824">
        <ele>291</ele>
        <time>2022-06-06T07:23:32.000Z</time>
      </trkpt>
      <trkpt lat="49.79592" lon="4.79824">
        <ele>291</ele>
        <time>2022-06-06T07:23:33.000Z</time>
      </trkpt>
      <trkpt lat="49.79595" lon="4.79824">
        <ele>291</ele>
        <time>2022-06-06T07:23:34.000Z</time>
      </trkpt>
      <trkpt lat="49.79597" lon="4.79824">
        <ele>291</ele>
        <time>2022-06-06T07:23:35.000Z</time>
      </trkpt>
      <trkpt lat="49.796" lon="4.79823">
        <ele>291</ele>
        <time>2022-06-06T07:23:36.000Z</time>
      </trkpt>
      <trkpt lat="49.79603" lon="4.79823">
        <ele>291</ele>
        <time>2022-06-06T07:23:37.000Z</time>
      </trkpt>
      <trkpt lat="49.79606" lon="4.79823">
        <ele>292</ele>
        <time>2022-06-06T07:23:38.000Z</time>
      </trkpt>
      <trkpt lat="49.79609" lon="4.79822">
        <ele>292</ele>
        <time>2022-06-06T07:23:39.000Z</time>
      </trkpt>
      <trkpt lat="49.79612" lon="4.79822">
        <ele>292</ele>
        <time>2022-06-06T07:23:40.000Z</time>
      </trkpt>
      <trkpt lat="49.79614" lon="4.79822">
        <ele>292</ele>
        <time>2022-06-06T07:23:41.000Z</time>
      </trkpt>
      <trkpt lat="49.79617" lon="4.79822">
        <ele>292</ele>
        <time>2022-06-06T07:23:42.000Z</time>
      </trkpt>
      <trkpt lat="49.7962" lon="4.79821">
        <ele>292</ele>
        <time>2022-06-06T07:23:43.000Z</time>
      </trkpt>
      <trkpt lat="49.79623" lon="4.79821">
        <ele>293</ele>
        <time>2022-06-06T07:23:44.000Z</time>
      </trkpt>
      <trkpt lat="49.79625" lon="4.79821">
        <ele>293</ele>
        <time>2022-06-06T07:23:45.000Z</time>
      </trkpt>
      <trkpt lat="49.79628" lon="4.79821">
        <ele>293</ele>
        <time>2022-06-06T07:23:46.000Z</time>
      </trkpt>
      <trkpt lat="49.79631" lon="4.79821">
        <ele>293</ele>
        <time>2022-06-06T07:23:47.000Z</time>
      </trkpt>
      <trkpt lat="49.79633" lon="4.79821">
        <ele>293</ele>
        <time>2022-06-06T07:23:48.000Z</time>
      </trkpt>
      <trkpt lat="49.79635" lon="4.7982">
        <ele>294</ele>
        <time>2022-06-06T07:23:49.000Z</time>
      </trkpt>
      <trkpt lat="49.79638" lon="4.7982">
        <ele>294</ele>
        <time>2022-06-06T07:23:50.000Z</time>
      </trkpt>
      <trkpt lat="49.79641" lon="4.7982">
        <ele>294</ele>
        <time>2022-06-06T07:23:51.000Z</time>
      </trkpt>
      <trkpt lat="49.79644" lon="4.7982">
        <ele>294</ele>
        <time>2022-06-06T07:23:52.000Z</time>
      </trkpt>
      <trkpt lat="49.79648" lon="4.79821">
        <ele>294</ele>
        <time>2022-06-06T07:23:53.000Z</time>
      </trkpt>
      <trkpt lat="49.79651" lon="4.79821">
        <ele>294</ele>
        <time>2022-06-06T07:23:54.000Z</time>
      </trkpt>
      <trkpt lat="49.79655" lon="4.7982">
        <ele>294</ele>
        <time>2022-06-06T07:23:55.000Z</time>
      </trkpt>
      <trkpt lat="49.7966" lon="4.7982">
        <ele>294</ele>
        <time>2022-06-06T07:23:56.000Z</time>
      </trkpt>
      <trkpt lat="49.79665" lon="4.79821">
        <ele>294</ele>
        <time>2022-06-06T07:23:57.000Z</time>
      </trkpt>
      <trkpt lat="49.79669" lon="4.79821">
        <ele>294</ele>
        <time>2022-06-06T07:23:58.000Z</time>
      </trkpt>
      <trkpt lat="49.79673" lon="4.7982">
        <ele>294</ele>
        <time>2022-06-06T07:23:59.000Z</time>
      </trkpt>
      <trkpt lat="49.79678" lon="4.7982">
        <ele>295</ele>
        <time>2022-06-06T07:24:00.000Z</time>
      </trkpt>
      <trkpt lat="49.79681" lon="4.79818">
        <ele>295</ele>
        <time>2022-06-06T07:24:01.000Z</time>
      </trkpt>
      <trkpt lat="49.79685" lon="4.79818">
        <ele>295</ele>
        <time>2022-06-06T07:24:02.000Z</time>
      </trkpt>
      <trkpt lat="49.79687" lon="4.79818">
        <ele>295</ele>
        <time>2022-06-06T07:24:03.000Z</time>
      </trkpt>
      <trkpt lat="49.7969" lon="4.79819">
        <ele>295</ele>
        <time>2022-06-06T07:24:04.000Z</time>
      </trkpt>
      <trkpt lat="49.79693" lon="4.79819">
        <ele>295</ele>
        <time>2022-06-06T07:24:05.000Z</time>
      </trkpt>
      <trkpt lat="49.79697" lon="4.79818">
        <ele>295</ele>
        <time>2022-06-06T07:24:06.000Z</time>
      </trkpt>
      <trkpt lat="49.797" lon="4.79819">
        <ele>296</ele>
        <time>2022-06-06T07:24:07.000Z</time>
      </trkpt>
      <trkpt lat="49.79704" lon="4.79819">
        <ele>296</ele>
        <time>2022-06-06T07:24:08.000Z</time>
      </trkpt>
      <trkpt lat="49.79708" lon="4.79819">
        <ele>296</ele>
        <time>2022-06-06T07:24:09.000Z</time>
      </trkpt>
      <trkpt lat="49.79712" lon="4.79818">
        <ele>296</ele>
        <time>2022-06-06T07:24:10.000Z</time>
      </trkpt>
      <trkpt lat="49.79717" lon="4.79817">
        <ele>296</ele>
        <time>2022-06-06T07:24:11.000Z</time>
      </trkpt>
      <trkpt lat="49.79722" lon="4.79816">
        <ele>296</ele>
        <time>2022-06-06T07:24:12.000Z</time>
      </trkpt>
      <trkpt lat="49.79726" lon="4.79816">
        <ele>296</ele>
        <time>2022-06-06T07:24:13.000Z</time>
      </trkpt>
      <trkpt lat="49.7973" lon="4.79816">
        <ele>296</ele>
        <time>2022-06-06T07:24:14.000Z</time>
      </trkpt>
      <trkpt lat="49.79735" lon="4.79815">
        <ele>296</ele>
        <time>2022-06-06T07:24:15.000Z</time>
      </trkpt>
      <trkpt lat="49.7974" lon="4.79815">
        <ele>296</ele>
        <time>2022-06-06T07:24:16.000Z</time>
      </trkpt>
      <trkpt lat="49.79746" lon="4.79816">
        <ele>296</ele>
        <time>2022-06-06T07:24:17.000Z</time>
      </trkpt>
      <trkpt lat="49.7975" lon="4.79815">
        <ele>296</ele>
        <time>2022-06-06T07:24:18.000Z</time>
      </trkpt>
      <trkpt lat="49.79754" lon="4.79816">
        <ele>296</ele>
        <time>2022-06-06T07:24:19.000Z</time>
      </trkpt>
      <trkpt lat="49.79757" lon="4.79817">
        <ele>296</ele>
        <time>2022-06-06T07:24:20.000Z</time>
      </trkpt>
      <trkpt lat="49.79761" lon="4.79817">
        <ele>296</ele>
        <time>2022-06-06T07:24:21.000Z</time>
      </trkpt>
      <trkpt lat="49.79765" lon="4.79816">
        <ele>296</ele>
        <time>2022-06-06T07:24:22.000Z</time>
      </trkpt>
      <trkpt lat="49.79769" lon="4.79816">
        <ele>296</ele>
        <time>2022-06-06T07:24:23.000Z</time>
      </trkpt>
      <trkpt lat="49.79774" lon="4.79815">
        <ele>296</ele>
        <time>2022-06-06T07:24:24.000Z</time>
      </trkpt>
      <trkpt lat="49.79778" lon="4.79814">
        <ele>296</ele>
        <time>2022-06-06T07:24:25.000Z</time>
      </trkpt>
      <trkpt lat="49.79784" lon="4.79814">
        <ele>296</ele>
        <time>2022-06-06T07:24:26.000Z</time>
      </trkpt>
      <trkpt lat="49.79789" lon="4.79814">
        <ele>296</ele>
        <time>2022-06-06T07:24:27.000Z</time>
      </trkpt>
      <trkpt lat="49.79795" lon="4.79813">
        <ele>296</ele>
        <time>2022-06-06T07:24:28.000Z</time>
      </trkpt>
      <trkpt lat="49.79801" lon="4.79813">
        <ele>296</ele>
        <time>2022-06-06T07:24:29.000Z</time>
      </trkpt>
      <trkpt lat="49.79806" lon="4.79813">
        <ele>297</ele>
        <time>2022-06-06T07:24:30.000Z</time>
      </trkpt>
      <trkpt lat="49.79813" lon="4.79812">
        <ele>297</ele>
        <time>2022-06-06T07:24:31.000Z</time>
      </trkpt>
      <trkpt lat="49.79819" lon="4.79811">
        <ele>297</ele>
        <time>2022-06-06T07:24:32.000Z</time>
      </trkpt>
      <trkpt lat="49.79825" lon="4.79811">
        <ele>297</ele>
        <time>2022-06-06T07:24:33.000Z</time>
      </trkpt>
      <trkpt lat="49.7983" lon="4.7981">
        <ele>297</ele>
        <time>2022-06-06T07:24:34.000Z</time>
      </trkpt>
      <trkpt lat="49.79835" lon="4.7981">
        <ele>297</ele>
        <time>2022-06-06T07:24:35.000Z</time>
      </trkpt>
      <trkpt lat="49.79841" lon="4.7981">
        <ele>297</ele>
        <time>2022-06-06T07:24:36.000Z</time>
      </trkpt>
      <trkpt lat="49.79845" lon="4.79809">
        <ele>297</ele>
        <time>2022-06-06T07:24:37.000Z</time>
      </trkpt>
      <trkpt lat="49.7985" lon="4.79809">
        <ele>297</ele>
        <time>2022-06-06T07:24:38.000Z</time>
      </trkpt>
      <trkpt lat="49.79855" lon="4.79808">
        <ele>297</ele>
        <time>2022-06-06T07:24:39.000Z</time>
      </trkpt>
      <trkpt lat="49.7986" lon="4.79807">
        <ele>297</ele>
        <time>2022-06-06T07:24:40.000Z</time>
      </trkpt>
      <trkpt lat="49.79865" lon="4.79808">
        <ele>297</ele>
        <time>2022-06-06T07:24:41.000Z</time>
      </trkpt>
      <trkpt lat="49.7987" lon="4.79807">
        <ele>297</ele>
        <time>2022-06-06T07:24:42.000Z</time>
      </trkpt>
      <trkpt lat="49.79874" lon="4.79807">
        <ele>297</ele>
        <time>2022-06-06T07:24:43.000Z</time>
      </trkpt>
      <trkpt lat="49.79878" lon="4.79806">
        <ele>297</ele>
        <time>2022-06-06T07:24:44.000Z</time>
      </trkpt>
      <trkpt lat="49.79882" lon="4.79804">
        <ele>297</ele>
        <time>2022-06-06T07:24:45.000Z</time>
      </trkpt>
      <trkpt lat="49.79885" lon="4.79803">
        <ele>297</ele>
        <time>2022-06-06T07:24:46.000Z</time>
      </trkpt>
      <trkpt lat="49.79889" lon="4.79803">
        <ele>297</ele>
        <time>2022-06-06T07:24:47.000Z</time>
      </trkpt>
      <trkpt lat="49.79892" lon="4.79803">
        <ele>297</ele>
        <time>2022-06-06T07:24:48.000Z</time>
      </trkpt>
      <trkpt lat="49.79897" lon="4.79802">
        <ele>298</ele>
        <time>2022-06-06T07:24:49.000Z</time>
      </trkpt>
      <trkpt lat="49.79901" lon="4.79802">
        <ele>298</ele>
        <time>2022-06-06T07:24:50.000Z</time>
      </trkpt>
      <trkpt lat="49.79905" lon="4.79802">
        <ele>298</ele>
        <time>2022-06-06T07:24:51.000Z</time>
      </trkpt>
      <trkpt lat="49.79909" lon="4.79802">
        <ele>298</ele>
        <time>2022-06-06T07:24:52.000Z</time>
      </trkpt>
      <trkpt lat="49.79913" lon="4.79801">
        <ele>298</ele>
        <time>2022-06-06T07:24:53.000Z</time>
      </trkpt>
      <trkpt lat="49.79918" lon="4.79801">
        <ele>298</ele>
        <time>2022-06-06T07:24:54.000Z</time>
      </trkpt>
      <trkpt lat="49.79923" lon="4.798">
        <ele>298</ele>
        <time>2022-06-06T07:24:55.000Z</time>
      </trkpt>
      <trkpt lat="49.79927" lon="4.79799">
        <ele>298</ele>
        <time>2022-06-06T07:24:56.000Z</time>
      </trkpt>
      <trkpt lat="49.79933" lon="4.79798">
        <ele>299</ele>
        <time>2022-06-06T07:24:57.000Z</time>
      </trkpt>
      <trkpt lat="49.79937" lon="4.79797">
        <ele>299</ele>
        <time>2022-06-06T07:24:58.000Z</time>
      </trkpt>
      <trkpt lat="49.79942" lon="4.79798">
        <ele>299</ele>
        <time>2022-06-06T07:24:59.000Z</time>
      </trkpt>
      <trkpt lat="49.79947" lon="4.79798">
        <ele>299</ele>
        <time>2022-06-06T07:25:00.000Z</time>
      </trkpt>
      <trkpt lat="49.79953" lon="4.79797">
        <ele>299</ele>
        <time>2022-06-06T07:25:01.000Z</time>
      </trkpt>
      <trkpt lat="49.79959" lon="4.79797">
        <ele>300</ele>
        <time>2022-06-06T07:25:02.000Z</time>
      </trkpt>
      <trkpt lat="49.79966" lon="4.79797">
        <ele>300</ele>
        <time>2022-06-06T07:25:03.000Z</time>
      </trkpt>
      <trkpt lat="49.79972" lon="4.79797">
        <ele>300</ele>
        <time>2022-06-06T07:25:04.000Z</time>
      </trkpt>
      <trkpt lat="49.79979" lon="4.79796">
        <ele>300</ele>
        <time>2022-06-06T07:25:05.000Z</time>
      </trkpt>
      <trkpt lat="49.79983" lon="4.79796">
        <ele>300</ele>
        <time>2022-06-06T07:25:06.000Z</time>
      </trkpt>
      <trkpt lat="49.79989" lon="4.79795">
        <ele>300</ele>
        <time>2022-06-06T07:25:07.000Z</time>
      </trkpt>
      <trkpt lat="49.79994" lon="4.79795">
        <ele>300</ele>
        <time>2022-06-06T07:25:08.000Z</time>
      </trkpt>
      <trkpt lat="49.79999" lon="4.79795">
        <ele>300</ele>
        <time>2022-06-06T07:25:09.000Z</time>
      </trkpt>
      <trkpt lat="49.80005" lon="4.79794">
        <ele>300</ele>
        <time>2022-06-06T07:25:10.000Z</time>
      </trkpt>
      <trkpt lat="49.8001" lon="4.79794">
        <ele>300</ele>
        <time>2022-06-06T07:25:11.000Z</time>
      </trkpt>
      <trkpt lat="49.80015" lon="4.79793">
        <ele>300</ele>
        <time>2022-06-06T07:25:12.000Z</time>
      </trkpt>
      <trkpt lat="49.8002" lon="4.79793">
        <ele>300</ele>
        <time>2022-06-06T07:25:13.000Z</time>
      </trkpt>
      <trkpt lat="49.80025" lon="4.79793">
        <ele>300</ele>
        <time>2022-06-06T07:25:14.000Z</time>
      </trkpt>
      <trkpt lat="49.8003" lon="4.79792">
        <ele>301</ele>
        <time>2022-06-06T07:25:15.000Z</time>
      </trkpt>
      <trkpt lat="49.80035" lon="4.79791">
        <ele>301</ele>
        <time>2022-06-06T07:25:16.000Z</time>
      </trkpt>
      <trkpt lat="49.8004" lon="4.79789">
        <ele>301</ele>
        <time>2022-06-06T07:25:17.000Z</time>
      </trkpt>
      <trkpt lat="49.80046" lon="4.79788">
        <ele>301</ele>
        <time>2022-06-06T07:25:18.000Z</time>
      </trkpt>
      <trkpt lat="49.80051" lon="4.79786">
        <ele>301</ele>
        <time>2022-06-06T07:25:19.000Z</time>
      </trkpt>
      <trkpt lat="49.80057" lon="4.79786">
        <ele>301</ele>
        <time>2022-06-06T07:25:20.000Z</time>
      </trkpt>
      <trkpt lat="49.80061" lon="4.79785">
        <ele>301</ele>
        <time>2022-06-06T07:25:21.000Z</time>
      </trkpt>
      <trkpt lat="49.80066" lon="4.79784">
        <ele>301</ele>
        <time>2022-06-06T07:25:22.000Z</time>
      </trkpt>
      <trkpt lat="49.8007" lon="4.79784">
        <ele>301</ele>
        <time>2022-06-06T07:25:23.000Z</time>
      </trkpt>
      <trkpt lat="49.80075" lon="4.79783">
        <ele>300</ele>
        <time>2022-06-06T07:25:24.000Z</time>
      </trkpt>
      <trkpt lat="49.8008" lon="4.79782">
        <ele>300</ele>
        <time>2022-06-06T07:25:25.000Z</time>
      </trkpt>
      <trkpt lat="49.80085" lon="4.79782">
        <ele>300</ele>
        <time>2022-06-06T07:25:26.000Z</time>
      </trkpt>
      <trkpt lat="49.80091" lon="4.79781">
        <ele>300</ele>
        <time>2022-06-06T07:25:27.000Z</time>
      </trkpt>
      <trkpt lat="49.80097" lon="4.79781">
        <ele>300</ele>
        <time>2022-06-06T07:25:28.000Z</time>
      </trkpt>
      <trkpt lat="49.80103" lon="4.79781">
        <ele>300</ele>
        <time>2022-06-06T07:25:29.000Z</time>
      </trkpt>
      <trkpt lat="49.80109" lon="4.7978">
        <ele>300</ele>
        <time>2022-06-06T07:25:30.000Z</time>
      </trkpt>
      <trkpt lat="49.80114" lon="4.7978">
        <ele>299</ele>
        <time>2022-06-06T07:25:31.000Z</time>
      </trkpt>
      <trkpt lat="49.80119" lon="4.79779">
        <ele>299</ele>
        <time>2022-06-06T07:25:32.000Z</time>
      </trkpt>
      <trkpt lat="49.80124" lon="4.79778">
        <ele>299</ele>
        <time>2022-06-06T07:25:33.000Z</time>
      </trkpt>
      <trkpt lat="49.80129" lon="4.79777">
        <ele>299</ele>
        <time>2022-06-06T07:25:34.000Z</time>
      </trkpt>
      <trkpt lat="49.80134" lon="4.79777">
        <ele>299</ele>
        <time>2022-06-06T07:25:35.000Z</time>
      </trkpt>
      <trkpt lat="49.80139" lon="4.79776">
        <ele>298</ele>
        <time>2022-06-06T07:25:36.000Z</time>
      </trkpt>
      <trkpt lat="49.80143" lon="4.79776">
        <ele>298</ele>
        <time>2022-06-06T07:25:37.000Z</time>
      </trkpt>
      <trkpt lat="49.80148" lon="4.79775">
        <ele>298</ele>
        <time>2022-06-06T07:25:38.000Z</time>
      </trkpt>
      <trkpt lat="49.80152" lon="4.79775">
        <ele>298</ele>
        <time>2022-06-06T07:25:39.000Z</time>
      </trkpt>
      <trkpt lat="49.80155" lon="4.79774">
        <ele>298</ele>
        <time>2022-06-06T07:25:40.000Z</time>
      </trkpt>
      <trkpt lat="49.80159" lon="4.79772">
        <ele>297</ele>
        <time>2022-06-06T07:25:41.000Z</time>
      </trkpt>
      <trkpt lat="49.80162" lon="4.79773">
        <ele>297</ele>
        <time>2022-06-06T07:25:42.000Z</time>
      </trkpt>
      <trkpt lat="49.80165" lon="4.79773">
        <ele>297</ele>
        <time>2022-06-06T07:25:43.000Z</time>
      </trkpt>
      <trkpt lat="49.80168" lon="4.79775">
        <ele>297</ele>
        <time>2022-06-06T07:25:44.000Z</time>
      </trkpt>
      <trkpt lat="49.80171" lon="4.79777">
        <ele>296</ele>
        <time>2022-06-06T07:25:45.000Z</time>
      </trkpt>
      <trkpt lat="49.80174" lon="4.7978">
        <ele>296</ele>
        <time>2022-06-06T07:25:46.000Z</time>
      </trkpt>
      <trkpt lat="49.80177" lon="4.79783">
        <ele>296</ele>
        <time>2022-06-06T07:25:47.000Z</time>
      </trkpt>
      <trkpt lat="49.80179" lon="4.79786">
        <ele>295</ele>
        <time>2022-06-06T07:25:48.000Z</time>
      </trkpt>
      <trkpt lat="49.80181" lon="4.7979">
        <ele>295</ele>
        <time>2022-06-06T07:25:49.000Z</time>
      </trkpt>
      <trkpt lat="49.80183" lon="4.79792">
        <ele>294</ele>
        <time>2022-06-06T07:25:50.000Z</time>
      </trkpt>
      <trkpt lat="49.80185" lon="4.79795">
        <ele>294</ele>
        <time>2022-06-06T07:25:51.000Z</time>
      </trkpt>
      <trkpt lat="49.80188" lon="4.79798">
        <ele>294</ele>
        <time>2022-06-06T07:25:52.000Z</time>
      </trkpt>
      <trkpt lat="49.8019" lon="4.79802">
        <ele>294</ele>
        <time>2022-06-06T07:25:53.000Z</time>
      </trkpt>
      <trkpt lat="49.80191" lon="4.79805">
        <ele>293</ele>
        <time>2022-06-06T07:25:54.000Z</time>
      </trkpt>
      <trkpt lat="49.80192" lon="4.79808">
        <ele>293</ele>
        <time>2022-06-06T07:25:55.000Z</time>
      </trkpt>
      <trkpt lat="49.80194" lon="4.7981">
        <ele>293</ele>
        <time>2022-06-06T07:25:56.000Z</time>
      </trkpt>
      <trkpt lat="49.80196" lon="4.7981">
        <ele>292</ele>
        <time>2022-06-06T07:25:57.000Z</time>
      </trkpt>
      <trkpt lat="49.80199" lon="4.79809">
        <ele>292</ele>
        <time>2022-06-06T07:25:58.000Z</time>
      </trkpt>
      <trkpt lat="49.80202" lon="4.7981">
        <ele>292</ele>
        <time>2022-06-06T07:25:59.000Z</time>
      </trkpt>
      <trkpt lat="49.80205" lon="4.79811">
        <ele>292</ele>
        <time>2022-06-06T07:26:00.000Z</time>
      </trkpt>
      <trkpt lat="49.80207" lon="4.79813">
        <ele>291</ele>
        <time>2022-06-06T07:26:01.000Z</time>
      </trkpt>
      <trkpt lat="49.80209" lon="4.79814">
        <ele>291</ele>
        <time>2022-06-06T07:26:02.000Z</time>
      </trkpt>
      <trkpt lat="49.80211" lon="4.79815">
        <ele>291</ele>
        <time>2022-06-06T07:26:03.000Z</time>
      </trkpt>
      <trkpt lat="49.80213" lon="4.79816">
        <ele>291</ele>
        <time>2022-06-06T07:26:04.000Z</time>
      </trkpt>
      <trkpt lat="49.80215" lon="4.79817">
        <ele>290</ele>
        <time>2022-06-06T07:26:05.000Z</time>
      </trkpt>
      <trkpt lat="49.80218" lon="4.79818">
        <ele>290</ele>
        <time>2022-06-06T07:26:06.000Z</time>
      </trkpt>
      <trkpt lat="49.8022" lon="4.79819">
        <ele>289</ele>
        <time>2022-06-06T07:26:07.000Z</time>
      </trkpt>
      <trkpt lat="49.80223" lon="4.7982">
        <ele>289</ele>
        <time>2022-06-06T07:26:08.000Z</time>
      </trkpt>
      <trkpt lat="49.80226" lon="4.7982">
        <ele>289</ele>
        <time>2022-06-06T07:26:09.000Z</time>
      </trkpt>
      <trkpt lat="49.80228" lon="4.79821">
        <ele>288</ele>
        <time>2022-06-06T07:26:10.000Z</time>
      </trkpt>
      <trkpt lat="49.80231" lon="4.79822">
        <ele>288</ele>
        <time>2022-06-06T07:26:11.000Z</time>
      </trkpt>
      <trkpt lat="49.80233" lon="4.79823">
        <ele>288</ele>
        <time>2022-06-06T07:26:12.000Z</time>
      </trkpt>
      <trkpt lat="49.80236" lon="4.79823">
        <ele>288</ele>
        <time>2022-06-06T07:26:13.000Z</time>
      </trkpt>
      <trkpt lat="49.80238" lon="4.79824">
        <ele>288</ele>
        <time>2022-06-06T07:26:14.000Z</time>
      </trkpt>
      <trkpt lat="49.80241" lon="4.79825">
        <ele>287</ele>
        <time>2022-06-06T07:26:15.000Z</time>
      </trkpt>
      <trkpt lat="49.80244" lon="4.79825">
        <ele>287</ele>
        <time>2022-06-06T07:26:16.000Z</time>
      </trkpt>
      <trkpt lat="49.80246" lon="4.79825">
        <ele>287</ele>
        <time>2022-06-06T07:26:17.000Z</time>
      </trkpt>
      <trkpt lat="49.8025" lon="4.79825">
        <ele>287</ele>
        <time>2022-06-06T07:26:18.000Z</time>
      </trkpt>
      <trkpt lat="49.80253" lon="4.79825">
        <ele>287</ele>
        <time>2022-06-06T07:26:19.000Z</time>
      </trkpt>
      <trkpt lat="49.80256" lon="4.79826">
        <ele>287</ele>
        <time>2022-06-06T07:26:20.000Z</time>
      </trkpt>
      <trkpt lat="49.80258" lon="4.79826">
        <ele>286</ele>
        <time>2022-06-06T07:26:21.000Z</time>
      </trkpt>
      <trkpt lat="49.80261" lon="4.79826">
        <ele>286</ele>
        <time>2022-06-06T07:26:22.000Z</time>
      </trkpt>
      <trkpt lat="49.80264" lon="4.79827">
        <ele>286</ele>
        <time>2022-06-06T07:26:23.000Z</time>
      </trkpt>
      <trkpt lat="49.80267" lon="4.79827">
        <ele>286</ele>
        <time>2022-06-06T07:26:24.000Z</time>
      </trkpt>
      <trkpt lat="49.8027" lon="4.79828">
        <ele>286</ele>
        <time>2022-06-06T07:26:25.000Z</time>
      </trkpt>
      <trkpt lat="49.80272" lon="4.79828">
        <ele>286</ele>
        <time>2022-06-06T07:26:26.000Z</time>
      </trkpt>
      <trkpt lat="49.80275" lon="4.79829">
        <ele>286</ele>
        <time>2022-06-06T07:26:27.000Z</time>
      </trkpt>
      <trkpt lat="49.80277" lon="4.79829">
        <ele>286</ele>
        <time>2022-06-06T07:26:28.000Z</time>
      </trkpt>
      <trkpt lat="49.8028" lon="4.7983">
        <ele>286</ele>
        <time>2022-06-06T07:26:29.000Z</time>
      </trkpt>
      <trkpt lat="49.80282" lon="4.79832">
        <ele>286</ele>
        <time>2022-06-06T07:26:30.000Z</time>
      </trkpt>
      <trkpt lat="49.80284" lon="4.79833">
        <ele>286</ele>
        <time>2022-06-06T07:26:31.000Z</time>
      </trkpt>
      <trkpt lat="49.80286" lon="4.79835">
        <ele>286</ele>
        <time>2022-06-06T07:26:32.000Z</time>
      </trkpt>
      <trkpt lat="49.80287" lon="4.79836">
        <ele>286</ele>
        <time>2022-06-06T07:26:33.000Z</time>
      </trkpt>
      <trkpt lat="49.80289" lon="4.79838">
        <ele>286</ele>
        <time>2022-06-06T07:26:34.000Z</time>
      </trkpt>
      <trkpt lat="49.8029" lon="4.7984">
        <ele>286</ele>
        <time>2022-06-06T07:26:35.000Z</time>
      </trkpt>
      <trkpt lat="49.80291" lon="4.79841">
        <ele>286</ele>
        <time>2022-06-06T07:26:36.000Z</time>
      </trkpt>
      <trkpt lat="49.80292" lon="4.79843">
        <ele>286</ele>
        <time>2022-06-06T07:26:37.000Z</time>
      </trkpt>
      <trkpt lat="49.80294" lon="4.79844">
        <ele>286</ele>
        <time>2022-06-06T07:26:38.000Z</time>
      </trkpt>
      <trkpt lat="49.80296" lon="4.79845">
        <ele>286</ele>
        <time>2022-06-06T07:26:39.000Z</time>
      </trkpt>
      <trkpt lat="49.80298" lon="4.79847">
        <ele>286</ele>
        <time>2022-06-06T07:26:40.000Z</time>
      </trkpt>
      <trkpt lat="49.803" lon="4.7985">
        <ele>286</ele>
        <time>2022-06-06T07:26:41.000Z</time>
      </trkpt>
      <trkpt lat="49.80302" lon="4.79852">
        <ele>286</ele>
        <time>2022-06-06T07:26:42.000Z</time>
      </trkpt>
      <trkpt lat="49.80304" lon="4.79854">
        <ele>286</ele>
        <time>2022-06-06T07:26:43.000Z</time>
      </trkpt>
      <trkpt lat="49.80306" lon="4.79856">
        <ele>286</ele>
        <time>2022-06-06T07:26:44.000Z</time>
      </trkpt>
      <trkpt lat="49.80308" lon="4.79858">
        <ele>286</ele>
        <time>2022-06-06T07:26:45.000Z</time>
      </trkpt>
      <trkpt lat="49.8031" lon="4.79861">
        <ele>286</ele>
        <time>2022-06-06T07:26:46.000Z</time>
      </trkpt>
      <trkpt lat="49.80312" lon="4.79864">
        <ele>286</ele>
        <time>2022-06-06T07:26:47.000Z</time>
      </trkpt>
      <trkpt lat="49.80313" lon="4.79868">
        <ele>286</ele>
        <time>2022-06-06T07:26:48.000Z</time>
      </trkpt>
      <trkpt lat="49.80313" lon="4.79873">
        <ele>287</ele>
        <time>2022-06-06T07:26:49.000Z</time>
      </trkpt>
      <trkpt lat="49.80313" lon="4.79878">
        <ele>287</ele>
        <time>2022-06-06T07:26:50.000Z</time>
      </trkpt>
      <trkpt lat="49.80313" lon="4.79883">
        <ele>287</ele>
        <time>2022-06-06T07:26:51.000Z</time>
      </trkpt>
      <trkpt lat="49.80312" lon="4.79889">
        <ele>287</ele>
        <time>2022-06-06T07:26:52.000Z</time>
      </trkpt>
      <trkpt lat="49.80312" lon="4.79894">
        <ele>287</ele>
        <time>2022-06-06T07:26:53.000Z</time>
      </trkpt>
      <trkpt lat="49.80311" lon="4.799">
        <ele>287</ele>
        <time>2022-06-06T07:26:54.000Z</time>
      </trkpt>
      <trkpt lat="49.80311" lon="4.79906">
        <ele>288</ele>
        <time>2022-06-06T07:26:55.000Z</time>
      </trkpt>
      <trkpt lat="49.80311" lon="4.79911">
        <ele>288</ele>
        <time>2022-06-06T07:26:56.000Z</time>
      </trkpt>
      <trkpt lat="49.80311" lon="4.79917">
        <ele>288</ele>
        <time>2022-06-06T07:26:57.000Z</time>
      </trkpt>
      <trkpt lat="49.8031" lon="4.79922">
        <ele>288</ele>
        <time>2022-06-06T07:26:58.000Z</time>
      </trkpt>
      <trkpt lat="49.8031" lon="4.79928">
        <ele>288</ele>
        <time>2022-06-06T07:26:59.000Z</time>
      </trkpt>
      <trkpt lat="49.8031" lon="4.79933">
        <ele>288</ele>
        <time>2022-06-06T07:27:00.000Z</time>
      </trkpt>
      <trkpt lat="49.80309" lon="4.79939">
        <ele>288</ele>
        <time>2022-06-06T07:27:01.000Z</time>
      </trkpt>
      <trkpt lat="49.80308" lon="4.79945">
        <ele>288</ele>
        <time>2022-06-06T07:27:02.000Z</time>
      </trkpt>
      <trkpt lat="49.80307" lon="4.79951">
        <ele>289</ele>
        <time>2022-06-06T07:27:03.000Z</time>
      </trkpt>
      <trkpt lat="49.80307" lon="4.79958">
        <ele>289</ele>
        <time>2022-06-06T07:27:04.000Z</time>
      </trkpt>
      <trkpt lat="49.80306" lon="4.79964">
        <ele>289</ele>
        <time>2022-06-06T07:27:05.000Z</time>
      </trkpt>
      <trkpt lat="49.80305" lon="4.7997">
        <ele>289</ele>
        <time>2022-06-06T07:27:06.000Z</time>
      </trkpt>
      <trkpt lat="49.80304" lon="4.79976">
        <ele>289</ele>
        <time>2022-06-06T07:27:07.000Z</time>
      </trkpt>
      <trkpt lat="49.80303" lon="4.79981">
        <ele>289</ele>
        <time>2022-06-06T07:27:08.000Z</time>
      </trkpt>
      <trkpt lat="49.80302" lon="4.79987">
        <ele>289</ele>
        <time>2022-06-06T07:27:09.000Z</time>
      </trkpt>
      <trkpt lat="49.80301" lon="4.79993">
        <ele>289</ele>
        <time>2022-06-06T07:27:10.000Z</time>
      </trkpt>
      <trkpt lat="49.803" lon="4.79998">
        <ele>290</ele>
        <time>2022-06-06T07:27:11.000Z</time>
      </trkpt>
      <trkpt lat="49.80299" lon="4.80004">
        <ele>290</ele>
        <time>2022-06-06T07:27:12.000Z</time>
      </trkpt>
      <trkpt lat="49.80298" lon="4.80009">
        <ele>290</ele>
        <time>2022-06-06T07:27:13.000Z</time>
      </trkpt>
      <trkpt lat="49.80298" lon="4.80015">
        <ele>290</ele>
        <time>2022-06-06T07:27:14.000Z</time>
      </trkpt>
      <trkpt lat="49.80299" lon="4.80021">
        <ele>290</ele>
        <time>2022-06-06T07:27:15.000Z</time>
      </trkpt>
      <trkpt lat="49.803" lon="4.80028">
        <ele>291</ele>
        <time>2022-06-06T07:27:16.000Z</time>
      </trkpt>
      <trkpt lat="49.80302" lon="4.80034">
        <ele>291</ele>
        <time>2022-06-06T07:27:17.000Z</time>
      </trkpt>
      <trkpt lat="49.80304" lon="4.80042">
        <ele>291</ele>
        <time>2022-06-06T07:27:18.000Z</time>
      </trkpt>
      <trkpt lat="49.80306" lon="4.80049">
        <ele>291</ele>
        <time>2022-06-06T07:27:19.000Z</time>
      </trkpt>
      <trkpt lat="49.80308" lon="4.80056">
        <ele>291</ele>
        <time>2022-06-06T07:27:20.000Z</time>
      </trkpt>
      <trkpt lat="49.8031" lon="4.80063">
        <ele>292</ele>
        <time>2022-06-06T07:27:21.000Z</time>
      </trkpt>
      <trkpt lat="49.80312" lon="4.80069">
        <ele>292</ele>
        <time>2022-06-06T07:27:22.000Z</time>
      </trkpt>
      <trkpt lat="49.80314" lon="4.80076">
        <ele>292</ele>
        <time>2022-06-06T07:27:23.000Z</time>
      </trkpt>
      <trkpt lat="49.80316" lon="4.80083">
        <ele>292</ele>
        <time>2022-06-06T07:27:24.000Z</time>
      </trkpt>
      <trkpt lat="49.80318" lon="4.8009">
        <ele>292</ele>
        <time>2022-06-06T07:27:25.000Z</time>
      </trkpt>
      <trkpt lat="49.80319" lon="4.80097">
        <ele>291</ele>
        <time>2022-06-06T07:27:26.000Z</time>
      </trkpt>
      <trkpt lat="49.80321" lon="4.80104">
        <ele>291</ele>
        <time>2022-06-06T07:27:27.000Z</time>
      </trkpt>
      <trkpt lat="49.80322" lon="4.80111">
        <ele>291</ele>
        <time>2022-06-06T07:27:28.000Z</time>
      </trkpt>
      <trkpt lat="49.80322" lon="4.80116">
        <ele>291</ele>
        <time>2022-06-06T07:27:29.000Z</time>
      </trkpt>
      <trkpt lat="49.80322" lon="4.80122">
        <ele>291</ele>
        <time>2022-06-06T07:27:30.000Z</time>
      </trkpt>
      <trkpt lat="49.80323" lon="4.80128">
        <ele>291</ele>
        <time>2022-06-06T07:27:31.000Z</time>
      </trkpt>
      <trkpt lat="49.80325" lon="4.80134">
        <ele>290</ele>
        <time>2022-06-06T07:27:32.000Z</time>
      </trkpt>
      <trkpt lat="49.80327" lon="4.80142">
        <ele>290</ele>
        <time>2022-06-06T07:27:33.000Z</time>
      </trkpt>
      <trkpt lat="49.80328" lon="4.8015">
        <ele>290</ele>
        <time>2022-06-06T07:27:34.000Z</time>
      </trkpt>
      <trkpt lat="49.80329" lon="4.80157">
        <ele>290</ele>
        <time>2022-06-06T07:27:35.000Z</time>
      </trkpt>
      <trkpt lat="49.8033" lon="4.80165">
        <ele>290</ele>
        <time>2022-06-06T07:27:36.000Z</time>
      </trkpt>
      <trkpt lat="49.80331" lon="4.80172">
        <ele>290</ele>
        <time>2022-06-06T07:27:37.000Z</time>
      </trkpt>
      <trkpt lat="49.80333" lon="4.80179">
        <ele>290</ele>
        <time>2022-06-06T07:27:38.000Z</time>
      </trkpt>
      <trkpt lat="49.80334" lon="4.80185">
        <ele>289</ele>
        <time>2022-06-06T07:27:39.000Z</time>
      </trkpt>
      <trkpt lat="49.80334" lon="4.80192">
        <ele>289</ele>
        <time>2022-06-06T07:27:40.000Z</time>
      </trkpt>
      <trkpt lat="49.80334" lon="4.80199">
        <ele>289</ele>
        <time>2022-06-06T07:27:41.000Z</time>
      </trkpt>
      <trkpt lat="49.80334" lon="4.80205">
        <ele>289</ele>
        <time>2022-06-06T07:27:42.000Z</time>
      </trkpt>
      <trkpt lat="49.80334" lon="4.8021">
        <ele>289</ele>
        <time>2022-06-06T07:27:43.000Z</time>
      </trkpt>
      <trkpt lat="49.80334" lon="4.80216">
        <ele>289</ele>
        <time>2022-06-06T07:27:44.000Z</time>
      </trkpt>
      <trkpt lat="49.80335" lon="4.80223">
        <ele>288</ele>
        <time>2022-06-06T07:27:45.000Z</time>
      </trkpt>
      <trkpt lat="49.80335" lon="4.8023">
        <ele>288</ele>
        <time>2022-06-06T07:27:46.000Z</time>
      </trkpt>
      <trkpt lat="49.80334" lon="4.80236">
        <ele>288</ele>
        <time>2022-06-06T07:27:47.000Z</time>
      </trkpt>
      <trkpt lat="49.80335" lon="4.80242">
        <ele>288</ele>
        <time>2022-06-06T07:27:48.000Z</time>
      </trkpt>
      <trkpt lat="49.80335" lon="4.80248">
        <ele>288</ele>
        <time>2022-06-06T07:27:49.000Z</time>
      </trkpt>
      <trkpt lat="49.80334" lon="4.80254">
        <ele>288</ele>
        <time>2022-06-06T07:27:50.000Z</time>
      </trkpt>
      <trkpt lat="49.80333" lon="4.80259">
        <ele>287</ele>
        <time>2022-06-06T07:27:51.000Z</time>
      </trkpt>
      <trkpt lat="49.80333" lon="4.80263">
        <ele>287</ele>
        <time>2022-06-06T07:27:52.000Z</time>
      </trkpt>
      <trkpt lat="49.80332" lon="4.80268">
        <ele>287</ele>
        <time>2022-06-06T07:27:53.000Z</time>
      </trkpt>
      <trkpt lat="49.80331" lon="4.80272">
        <ele>287</ele>
        <time>2022-06-06T07:27:54.000Z</time>
      </trkpt>
      <trkpt lat="49.8033" lon="4.80275">
        <ele>287</ele>
        <time>2022-06-06T07:27:55.000Z</time>
      </trkpt>
      <trkpt lat="49.8033" lon="4.80278">
        <ele>287</ele>
        <time>2022-06-06T07:27:56.000Z</time>
      </trkpt>
      <trkpt lat="49.80329" lon="4.80282">
        <ele>287</ele>
        <time>2022-06-06T07:27:57.000Z</time>
      </trkpt>
      <trkpt lat="49.80329" lon="4.80286">
        <ele>286</ele>
        <time>2022-06-06T07:27:58.000Z</time>
      </trkpt>
      <trkpt lat="49.80328" lon="4.8029">
        <ele>286</ele>
        <time>2022-06-06T07:27:59.000Z</time>
      </trkpt>
      <trkpt lat="49.80328" lon="4.80295">
        <ele>286</ele>
        <time>2022-06-06T07:28:00.000Z</time>
      </trkpt>
      <trkpt lat="49.80326" lon="4.80301">
        <ele>286</ele>
        <time>2022-06-06T07:28:01.000Z</time>
      </trkpt>
      <trkpt lat="49.80323" lon="4.80307">
        <ele>286</ele>
        <time>2022-06-06T07:28:02.000Z</time>
      </trkpt>
      <trkpt lat="49.80321" lon="4.80313">
        <ele>286</ele>
        <time>2022-06-06T07:28:03.000Z</time>
      </trkpt>
      <trkpt lat="49.8032" lon="4.80318">
        <ele>286</ele>
        <time>2022-06-06T07:28:04.000Z</time>
      </trkpt>
      <trkpt lat="49.80318" lon="4.80323">
        <ele>286</ele>
        <time>2022-06-06T07:28:05.000Z</time>
      </trkpt>
      <trkpt lat="49.80317" lon="4.80327">
        <ele>286</ele>
        <time>2022-06-06T07:28:06.000Z</time>
      </trkpt>
      <trkpt lat="49.80316" lon="4.80331">
        <ele>285</ele>
        <time>2022-06-06T07:28:07.000Z</time>
      </trkpt>
      <trkpt lat="49.80314" lon="4.80336">
        <ele>285</ele>
        <time>2022-06-06T07:28:08.000Z</time>
      </trkpt>
      <trkpt lat="49.80312" lon="4.80339">
        <ele>285</ele>
        <time>2022-06-06T07:28:09.000Z</time>
      </trkpt>
      <trkpt lat="49.80309" lon="4.80342">
        <ele>285</ele>
        <time>2022-06-06T07:28:10.000Z</time>
      </trkpt>
      <trkpt lat="49.80307" lon="4.80344">
        <ele>284</ele>
        <time>2022-06-06T07:28:11.000Z</time>
      </trkpt>
      <trkpt lat="49.80306" lon="4.80344">
        <ele>284</ele>
        <time>2022-06-06T07:28:12.000Z</time>
      </trkpt>
      <trkpt lat="49.80305" lon="4.80345">
        <ele>284</ele>
        <time>2022-06-06T07:28:13.000Z</time>
      </trkpt>
      <trkpt lat="49.80303" lon="4.80346">
        <ele>284</ele>
        <time>2022-06-06T07:28:14.000Z</time>
      </trkpt>
      <trkpt lat="49.80302" lon="4.80348">
        <ele>284</ele>
        <time>2022-06-06T07:28:15.000Z</time>
      </trkpt>
      <trkpt lat="49.80301" lon="4.8035">
        <ele>283</ele>
        <time>2022-06-06T07:28:16.000Z</time>
      </trkpt>
      <trkpt lat="49.80301" lon="4.80353">
        <ele>283</ele>
        <time>2022-06-06T07:28:17.000Z</time>
      </trkpt>
      <trkpt lat="49.80302" lon="4.80355">
        <ele>283</ele>
        <time>2022-06-06T07:28:18.000Z</time>
      </trkpt>
      <trkpt lat="49.80303" lon="4.80358">
        <ele>283</ele>
        <time>2022-06-06T07:28:19.000Z</time>
      </trkpt>
      <trkpt lat="49.80304" lon="4.80362">
        <ele>282</ele>
        <time>2022-06-06T07:28:20.000Z</time>
      </trkpt>
      <trkpt lat="49.80304" lon="4.80365">
        <ele>282</ele>
        <time>2022-06-06T07:28:21.000Z</time>
      </trkpt>
      <trkpt lat="49.80304" lon="4.8037">
        <ele>282</ele>
        <time>2022-06-06T07:28:22.000Z</time>
      </trkpt>
      <trkpt lat="49.80303" lon="4.80375">
        <ele>281</ele>
        <time>2022-06-06T07:28:23.000Z</time>
      </trkpt>
      <trkpt lat="49.80302" lon="4.80379">
        <ele>281</ele>
        <time>2022-06-06T07:28:24.000Z</time>
      </trkpt>
      <trkpt lat="49.803" lon="4.80382">
        <ele>281</ele>
        <time>2022-06-06T07:28:25.000Z</time>
      </trkpt>
      <trkpt lat="49.80298" lon="4.80385">
        <ele>281</ele>
        <time>2022-06-06T07:28:26.000Z</time>
      </trkpt>
      <trkpt lat="49.80296" lon="4.80386">
        <ele>280</ele>
        <time>2022-06-06T07:28:27.000Z</time>
      </trkpt>
      <trkpt lat="49.80294" lon="4.80389">
        <ele>280</ele>
        <time>2022-06-06T07:28:28.000Z</time>
      </trkpt>
      <trkpt lat="49.80292" lon="4.80392">
        <ele>280</ele>
        <time>2022-06-06T07:28:29.000Z</time>
      </trkpt>
      <trkpt lat="49.80289" lon="4.80394">
        <ele>280</ele>
        <time>2022-06-06T07:28:30.000Z</time>
      </trkpt>
      <trkpt lat="49.80286" lon="4.80396">
        <ele>280</ele>
        <time>2022-06-06T07:28:31.000Z</time>
      </trkpt>
      <trkpt lat="49.80284" lon="4.80398">
        <ele>279</ele>
        <time>2022-06-06T07:28:32.000Z</time>
      </trkpt>
      <trkpt lat="49.80282" lon="4.80399">
        <ele>279</ele>
        <time>2022-06-06T07:28:33.000Z</time>
      </trkpt>
      <trkpt lat="49.80281" lon="4.80401">
        <ele>279</ele>
        <time>2022-06-06T07:28:34.000Z</time>
      </trkpt>
      <trkpt lat="49.80279" lon="4.80404">
        <ele>279</ele>
        <time>2022-06-06T07:28:35.000Z</time>
      </trkpt>
      <trkpt lat="49.80278" lon="4.80407">
        <ele>279</ele>
        <time>2022-06-06T07:28:36.000Z</time>
      </trkpt>
      <trkpt lat="49.80278" lon="4.80409">
        <ele>279</ele>
        <time>2022-06-06T07:28:37.000Z</time>
      </trkpt>
      <trkpt lat="49.80279" lon="4.8041">
        <ele>278</ele>
        <time>2022-06-06T07:28:38.000Z</time>
      </trkpt>
      <trkpt lat="49.8028" lon="4.80411">
        <ele>278</ele>
        <time>2022-06-06T07:28:39.000Z</time>
      </trkpt>
      <trkpt lat="49.80281" lon="4.80412">
        <ele>278</ele>
        <time>2022-06-06T07:28:40.000Z</time>
      </trkpt>
      <trkpt lat="49.80284" lon="4.80412">
        <ele>278</ele>
        <time>2022-06-06T07:28:41.000Z</time>
      </trkpt>
      <trkpt lat="49.80288" lon="4.80413">
        <ele>278</ele>
        <time>2022-06-06T07:28:42.000Z</time>
      </trkpt>
      <trkpt lat="49.80293" lon="4.80414">
        <ele>278</ele>
        <time>2022-06-06T07:28:43.000Z</time>
      </trkpt>
      <trkpt lat="49.80297" lon="4.80415">
        <ele>277</ele>
        <time>2022-06-06T07:28:44.000Z</time>
      </trkpt>
      <trkpt lat="49.80301" lon="4.80416">
        <ele>277</ele>
        <time>2022-06-06T07:28:45.000Z</time>
      </trkpt>
      <trkpt lat="49.80305" lon="4.80417">
        <ele>277</ele>
        <time>2022-06-06T07:28:46.000Z</time>
      </trkpt>
      <trkpt lat="49.80308" lon="4.80417">
        <ele>277</ele>
        <time>2022-06-06T07:28:47.000Z</time>
      </trkpt>
      <trkpt lat="49.80311" lon="4.80419">
        <ele>277</ele>
        <time>2022-06-06T07:28:48.000Z</time>
      </trkpt>
      <trkpt lat="49.80314" lon="4.80419">
        <ele>276</ele>
        <time>2022-06-06T07:28:49.000Z</time>
      </trkpt>
      <trkpt lat="49.80318" lon="4.8042">
        <ele>276</ele>
        <time>2022-06-06T07:28:50.000Z</time>
      </trkpt>
      <trkpt lat="49.80321" lon="4.8042">
        <ele>276</ele>
        <time>2022-06-06T07:28:51.000Z</time>
      </trkpt>
      <trkpt lat="49.80325" lon="4.8042">
        <ele>275</ele>
        <time>2022-06-06T07:28:52.000Z</time>
      </trkpt>
      <trkpt lat="49.80328" lon="4.80422">
        <ele>275</ele>
        <time>2022-06-06T07:28:53.000Z</time>
      </trkpt>
      <trkpt lat="49.80331" lon="4.80423">
        <ele>275</ele>
        <time>2022-06-06T07:28:54.000Z</time>
      </trkpt>
      <trkpt lat="49.80334" lon="4.80425">
        <ele>274</ele>
        <time>2022-06-06T07:28:55.000Z</time>
      </trkpt>
      <trkpt lat="49.80336" lon="4.80426">
        <ele>274</ele>
        <time>2022-06-06T07:28:56.000Z</time>
      </trkpt>
      <trkpt lat="49.80338" lon="4.80427">
        <ele>274</ele>
        <time>2022-06-06T07:28:57.000Z</time>
      </trkpt>
      <trkpt lat="49.8034" lon="4.80427">
        <ele>273</ele>
        <time>2022-06-06T07:28:58.000Z</time>
      </trkpt>
      <trkpt lat="49.80342" lon="4.80428">
        <ele>273</ele>
        <time>2022-06-06T07:28:59.000Z</time>
      </trkpt>
      <trkpt lat="49.80343" lon="4.80428">
        <ele>272</ele>
        <time>2022-06-06T07:29:00.000Z</time>
      </trkpt>
      <trkpt lat="49.80345" lon="4.80429">
        <ele>272</ele>
        <time>2022-06-06T07:29:01.000Z</time>
      </trkpt>
      <trkpt lat="49.80347" lon="4.80429">
        <ele>272</ele>
        <time>2022-06-06T07:29:02.000Z</time>
      </trkpt>
      <trkpt lat="49.80349" lon="4.8043">
        <ele>271</ele>
        <time>2022-06-06T07:29:03.000Z</time>
      </trkpt>
      <trkpt lat="49.80352" lon="4.80431">
        <ele>271</ele>
        <time>2022-06-06T07:29:04.000Z</time>
      </trkpt>
      <trkpt lat="49.80354" lon="4.80431">
        <ele>271</ele>
        <time>2022-06-06T07:29:05.000Z</time>
      </trkpt>
      <trkpt lat="49.80356" lon="4.80431">
        <ele>270</ele>
        <time>2022-06-06T07:29:06.000Z</time>
      </trkpt>
      <trkpt lat="49.80359" lon="4.80431">
        <ele>270</ele>
        <time>2022-06-06T07:29:07.000Z</time>
      </trkpt>
      <trkpt lat="49.80363" lon="4.80432">
        <ele>270</ele>
        <time>2022-06-06T07:29:08.000Z</time>
      </trkpt>
      <trkpt lat="49.80366" lon="4.80433">
        <ele>269</ele>
        <time>2022-06-06T07:29:09.000Z</time>
      </trkpt>
      <trkpt lat="49.80369" lon="4.80435">
        <ele>269</ele>
        <time>2022-06-06T07:29:10.000Z</time>
      </trkpt>
      <trkpt lat="49.80372" lon="4.80436">
        <ele>269</ele>
        <time>2022-06-06T07:29:11.000Z</time>
      </trkpt>
      <trkpt lat="49.80375" lon="4.80437">
        <ele>268</ele>
        <time>2022-06-06T07:29:12.000Z</time>
      </trkpt>
      <trkpt lat="49.80378" lon="4.80437">
        <ele>268</ele>
        <time>2022-06-06T07:29:13.000Z</time>
      </trkpt>
      <trkpt lat="49.80381" lon="4.80437">
        <ele>268</ele>
        <time>2022-06-06T07:29:14.000Z</time>
      </trkpt>
      <trkpt lat="49.80384" lon="4.80437">
        <ele>268</ele>
        <time>2022-06-06T07:29:15.000Z</time>
      </trkpt>
      <trkpt lat="49.80387" lon="4.80436">
        <ele>267</ele>
        <time>2022-06-06T07:29:16.000Z</time>
      </trkpt>
      <trkpt lat="49.8039" lon="4.80435">
        <ele>267</ele>
        <time>2022-06-06T07:29:17.000Z</time>
      </trkpt>
      <trkpt lat="49.80394" lon="4.80435">
        <ele>267</ele>
        <time>2022-06-06T07:29:18.000Z</time>
      </trkpt>
      <trkpt lat="49.80398" lon="4.80434">
        <ele>266</ele>
        <time>2022-06-06T07:29:19.000Z</time>
      </trkpt>
      <trkpt lat="49.80403" lon="4.80434">
        <ele>266</ele>
        <time>2022-06-06T07:29:20.000Z</time>
      </trkpt>
      <trkpt lat="49.80407" lon="4.80434">
        <ele>266</ele>
        <time>2022-06-06T07:29:21.000Z</time>
      </trkpt>
      <trkpt lat="49.80412" lon="4.80434">
        <ele>265</ele>
        <time>2022-06-06T07:29:22.000Z</time>
      </trkpt>
      <trkpt lat="49.80415" lon="4.80433">
        <ele>265</ele>
        <time>2022-06-06T07:29:23.000Z</time>
      </trkpt>
      <trkpt lat="49.80418" lon="4.80433">
        <ele>265</ele>
        <time>2022-06-06T07:29:24.000Z</time>
      </trkpt>
      <trkpt lat="49.80421" lon="4.80432">
        <ele>264</ele>
        <time>2022-06-06T07:29:25.000Z</time>
      </trkpt>
      <trkpt lat="49.80424" lon="4.80432">
        <ele>264</ele>
        <time>2022-06-06T07:29:26.000Z</time>
      </trkpt>
      <trkpt lat="49.80428" lon="4.80431">
        <ele>264</ele>
        <time>2022-06-06T07:29:27.000Z</time>
      </trkpt>
      <trkpt lat="49.80431" lon="4.80431">
        <ele>264</ele>
        <time>2022-06-06T07:29:28.000Z</time>
      </trkpt>
      <trkpt lat="49.80435" lon="4.80432">
        <ele>263</ele>
        <time>2022-06-06T07:29:29.000Z</time>
      </trkpt>
      <trkpt lat="49.80439" lon="4.80432">
        <ele>263</ele>
        <time>2022-06-06T07:29:30.000Z</time>
      </trkpt>
      <trkpt lat="49.80443" lon="4.80432">
        <ele>263</ele>
        <time>2022-06-06T07:29:31.000Z</time>
      </trkpt>
      <trkpt lat="49.80448" lon="4.80432">
        <ele>263</ele>
        <time>2022-06-06T07:29:32.000Z</time>
      </trkpt>
      <trkpt lat="49.80453" lon="4.80431">
        <ele>262</ele>
        <time>2022-06-06T07:29:33.000Z</time>
      </trkpt>
      <trkpt lat="49.80459" lon="4.80429">
        <ele>262</ele>
        <time>2022-06-06T07:29:34.000Z</time>
      </trkpt>
      <trkpt lat="49.80466" lon="4.80427">
        <ele>262</ele>
        <time>2022-06-06T07:29:35.000Z</time>
      </trkpt>
      <trkpt lat="49.80473" lon="4.80425">
        <ele>261</ele>
        <time>2022-06-06T07:29:36.000Z</time>
      </trkpt>
      <trkpt lat="49.8048" lon="4.80422">
        <ele>261</ele>
        <time>2022-06-06T07:29:37.000Z</time>
      </trkpt>
      <trkpt lat="49.80488" lon="4.80419">
        <ele>260</ele>
        <time>2022-06-06T07:29:38.000Z</time>
      </trkpt>
      <trkpt lat="49.80495" lon="4.80417">
        <ele>260</ele>
        <time>2022-06-06T07:29:39.000Z</time>
      </trkpt>
      <trkpt lat="49.80503" lon="4.80415">
        <ele>259</ele>
        <time>2022-06-06T07:29:40.000Z</time>
      </trkpt>
      <trkpt lat="49.80509" lon="4.80413">
        <ele>258</ele>
        <time>2022-06-06T07:29:41.000Z</time>
      </trkpt>
      <trkpt lat="49.80513" lon="4.80412">
        <ele>258</ele>
        <time>2022-06-06T07:29:42.000Z</time>
      </trkpt>
      <trkpt lat="49.80518" lon="4.8041">
        <ele>257</ele>
        <time>2022-06-06T07:29:43.000Z</time>
      </trkpt>
      <trkpt lat="49.80523" lon="4.80407">
        <ele>256</ele>
        <time>2022-06-06T07:29:44.000Z</time>
      </trkpt>
      <trkpt lat="49.80527" lon="4.80404">
        <ele>256</ele>
        <time>2022-06-06T07:29:45.000Z</time>
      </trkpt>
      <trkpt lat="49.8053" lon="4.80399">
        <ele>255</ele>
        <time>2022-06-06T07:29:46.000Z</time>
      </trkpt>
      <trkpt lat="49.80533" lon="4.80394">
        <ele>255</ele>
        <time>2022-06-06T07:29:47.000Z</time>
      </trkpt>
      <trkpt lat="49.80537" lon="4.80388">
        <ele>254</ele>
        <time>2022-06-06T07:29:48.000Z</time>
      </trkpt>
      <trkpt lat="49.8054" lon="4.80382">
        <ele>254</ele>
        <time>2022-06-06T07:29:49.000Z</time>
      </trkpt>
      <trkpt lat="49.80544" lon="4.80374">
        <ele>253</ele>
        <time>2022-06-06T07:29:50.000Z</time>
      </trkpt>
      <trkpt lat="49.80548" lon="4.80367">
        <ele>253</ele>
        <time>2022-06-06T07:29:51.000Z</time>
      </trkpt>
      <trkpt lat="49.80551" lon="4.8036">
        <ele>253</ele>
        <time>2022-06-06T07:29:52.000Z</time>
      </trkpt>
      <trkpt lat="49.80555" lon="4.80353">
        <ele>252</ele>
        <time>2022-06-06T07:29:53.000Z</time>
      </trkpt>
      <trkpt lat="49.8056" lon="4.80347">
        <ele>252</ele>
        <time>2022-06-06T07:29:54.000Z</time>
      </trkpt>
      <trkpt lat="49.80563" lon="4.80341">
        <ele>251</ele>
        <time>2022-06-06T07:29:55.000Z</time>
      </trkpt>
      <trkpt lat="49.80567" lon="4.80336">
        <ele>251</ele>
        <time>2022-06-06T07:29:56.000Z</time>
      </trkpt>
      <trkpt lat="49.8057" lon="4.80333">
        <ele>251</ele>
        <time>2022-06-06T07:29:57.000Z</time>
      </trkpt>
      <trkpt lat="49.80573" lon="4.80329">
        <ele>250</ele>
        <time>2022-06-06T07:29:58.000Z</time>
      </trkpt>
      <trkpt lat="49.80577" lon="4.80325">
        <ele>250</ele>
        <time>2022-06-06T07:29:59.000Z</time>
      </trkpt>
      <trkpt lat="49.80581" lon="4.8032">
        <ele>249</ele>
        <time>2022-06-06T07:30:00.000Z</time>
      </trkpt>
      <trkpt lat="49.80585" lon="4.80314">
        <ele>249</ele>
        <time>2022-06-06T07:30:01.000Z</time>
      </trkpt>
      <trkpt lat="49.80588" lon="4.80309">
        <ele>249</ele>
        <time>2022-06-06T07:30:02.000Z</time>
      </trkpt>
      <trkpt lat="49.80592" lon="4.80303">
        <ele>248</ele>
        <time>2022-06-06T07:30:03.000Z</time>
      </trkpt>
      <trkpt lat="49.80596" lon="4.80297">
        <ele>248</ele>
        <time>2022-06-06T07:30:04.000Z</time>
      </trkpt>
      <trkpt lat="49.806" lon="4.80291">
        <ele>248</ele>
        <time>2022-06-06T07:30:05.000Z</time>
      </trkpt>
      <trkpt lat="49.80604" lon="4.80285">
        <ele>247</ele>
        <time>2022-06-06T07:30:06.000Z</time>
      </trkpt>
      <trkpt lat="49.80609" lon="4.80279">
        <ele>247</ele>
        <time>2022-06-06T07:30:07.000Z</time>
      </trkpt>
      <trkpt lat="49.80614" lon="4.80272">
        <ele>247</ele>
        <time>2022-06-06T07:30:08.000Z</time>
      </trkpt>
      <trkpt lat="49.80618" lon="4.80265">
        <ele>246</ele>
        <time>2022-06-06T07:30:09.000Z</time>
      </trkpt>
      <trkpt lat="49.80622" lon="4.80258">
        <ele>246</ele>
        <time>2022-06-06T07:30:10.000Z</time>
      </trkpt>
      <trkpt lat="49.80626" lon="4.80252">
        <ele>245</ele>
        <time>2022-06-06T07:30:11.000Z</time>
      </trkpt>
      <trkpt lat="49.8063" lon="4.80245">
        <ele>245</ele>
        <time>2022-06-06T07:30:12.000Z</time>
      </trkpt>
      <trkpt lat="49.80634" lon="4.80238">
        <ele>244</ele>
        <time>2022-06-06T07:30:13.000Z</time>
      </trkpt>
      <trkpt lat="49.80639" lon="4.80232">
        <ele>244</ele>
        <time>2022-06-06T07:30:14.000Z</time>
      </trkpt>
      <trkpt lat="49.80643" lon="4.80225">
        <ele>243</ele>
        <time>2022-06-06T07:30:15.000Z</time>
      </trkpt>
      <trkpt lat="49.80647" lon="4.80218">
        <ele>242</ele>
        <time>2022-06-06T07:30:16.000Z</time>
      </trkpt>
      <trkpt lat="49.80651" lon="4.80211">
        <ele>242</ele>
        <time>2022-06-06T07:30:17.000Z</time>
      </trkpt>
      <trkpt lat="49.80656" lon="4.80204">
        <ele>241</ele>
        <time>2022-06-06T07:30:18.000Z</time>
      </trkpt>
      <trkpt lat="49.8066" lon="4.80197">
        <ele>240</ele>
        <time>2022-06-06T07:30:19.000Z</time>
      </trkpt>
      <trkpt lat="49.80666" lon="4.8019">
        <ele>240</ele>
        <time>2022-06-06T07:30:20.000Z</time>
      </trkpt>
      <trkpt lat="49.80671" lon="4.80184">
        <ele>239</ele>
        <time>2022-06-06T07:30:21.000Z</time>
      </trkpt>
      <trkpt lat="49.80675" lon="4.80178">
        <ele>239</ele>
        <time>2022-06-06T07:30:22.000Z</time>
      </trkpt>
      <trkpt lat="49.8068" lon="4.80173">
        <ele>238</ele>
        <time>2022-06-06T07:30:23.000Z</time>
      </trkpt>
      <trkpt lat="49.80684" lon="4.80166">
        <ele>237</ele>
        <time>2022-06-06T07:30:24.000Z</time>
      </trkpt>
      <trkpt lat="49.80688" lon="4.8016">
        <ele>237</ele>
        <time>2022-06-06T07:30:25.000Z</time>
      </trkpt>
      <trkpt lat="49.80693" lon="4.80154">
        <ele>236</ele>
        <time>2022-06-06T07:30:26.000Z</time>
      </trkpt>
      <trkpt lat="49.80697" lon="4.80147">
        <ele>236</ele>
        <time>2022-06-06T07:30:27.000Z</time>
      </trkpt>
      <trkpt lat="49.80702" lon="4.80141">
        <ele>235</ele>
        <time>2022-06-06T07:30:28.000Z</time>
      </trkpt>
      <trkpt lat="49.80706" lon="4.80135">
        <ele>234</ele>
        <time>2022-06-06T07:30:29.000Z</time>
      </trkpt>
      <trkpt lat="49.80712" lon="4.80129">
        <ele>233</ele>
        <time>2022-06-06T07:30:30.000Z</time>
      </trkpt>
      <trkpt lat="49.80718" lon="4.80124">
        <ele>233</ele>
        <time>2022-06-06T07:30:31.000Z</time>
      </trkpt>
      <trkpt lat="49.80723" lon="4.80119">
        <ele>232</ele>
        <time>2022-06-06T07:30:32.000Z</time>
      </trkpt>
      <trkpt lat="49.80728" lon="4.80115">
        <ele>232</ele>
        <time>2022-06-06T07:30:33.000Z</time>
      </trkpt>
      <trkpt lat="49.80733" lon="4.80112">
        <ele>231</ele>
        <time>2022-06-06T07:30:34.000Z</time>
      </trkpt>
      <trkpt lat="49.80739" lon="4.8011">
        <ele>230</ele>
        <time>2022-06-06T07:30:35.000Z</time>
      </trkpt>
      <trkpt lat="49.80745" lon="4.80108">
        <ele>230</ele>
        <time>2022-06-06T07:30:36.000Z</time>
      </trkpt>
      <trkpt lat="49.8075" lon="4.80106">
        <ele>229</ele>
        <time>2022-06-06T07:30:37.000Z</time>
      </trkpt>
      <trkpt lat="49.80756" lon="4.80103">
        <ele>228</ele>
        <time>2022-06-06T07:30:38.000Z</time>
      </trkpt>
      <trkpt lat="49.80761" lon="4.80098">
        <ele>227</ele>
        <time>2022-06-06T07:30:39.000Z</time>
      </trkpt>
      <trkpt lat="49.80765" lon="4.8009">
        <ele>226</ele>
        <time>2022-06-06T07:30:40.000Z</time>
      </trkpt>
      <trkpt lat="49.80769" lon="4.80082">
        <ele>226</ele>
        <time>2022-06-06T07:30:41.000Z</time>
      </trkpt>
      <trkpt lat="49.80772" lon="4.80072">
        <ele>225</ele>
        <time>2022-06-06T07:30:42.000Z</time>
      </trkpt>
      <trkpt lat="49.80776" lon="4.80063">
        <ele>224</ele>
        <time>2022-06-06T07:30:43.000Z</time>
      </trkpt>
      <trkpt lat="49.8078" lon="4.80052">
        <ele>223</ele>
        <time>2022-06-06T07:30:44.000Z</time>
      </trkpt>
      <trkpt lat="49.80783" lon="4.80042">
        <ele>222</ele>
        <time>2022-06-06T07:30:45.000Z</time>
      </trkpt>
      <trkpt lat="49.80787" lon="4.80031">
        <ele>221</ele>
        <time>2022-06-06T07:30:46.000Z</time>
      </trkpt>
      <trkpt lat="49.8079" lon="4.80019">
        <ele>220</ele>
        <time>2022-06-06T07:30:47.000Z</time>
      </trkpt>
      <trkpt lat="49.80793" lon="4.80007">
        <ele>220</ele>
        <time>2022-06-06T07:30:48.000Z</time>
      </trkpt>
      <trkpt lat="49.80796" lon="4.79996">
        <ele>219</ele>
        <time>2022-06-06T07:30:49.000Z</time>
      </trkpt>
      <trkpt lat="49.80799" lon="4.79984">
        <ele>218</ele>
        <time>2022-06-06T07:30:50.000Z</time>
      </trkpt>
      <trkpt lat="49.80802" lon="4.79973">
        <ele>217</ele>
        <time>2022-06-06T07:30:51.000Z</time>
      </trkpt>
      <trkpt lat="49.80805" lon="4.79962">
        <ele>216</ele>
        <time>2022-06-06T07:30:52.000Z</time>
      </trkpt>
      <trkpt lat="49.80808" lon="4.79952">
        <ele>215</ele>
        <time>2022-06-06T07:30:53.000Z</time>
      </trkpt>
      <trkpt lat="49.80811" lon="4.79941">
        <ele>214</ele>
        <time>2022-06-06T07:30:54.000Z</time>
      </trkpt>
      <trkpt lat="49.80814" lon="4.79929">
        <ele>213</ele>
        <time>2022-06-06T07:30:55.000Z</time>
      </trkpt>
      <trkpt lat="49.80819" lon="4.79917">
        <ele>213</ele>
        <time>2022-06-06T07:30:56.000Z</time>
      </trkpt>
      <trkpt lat="49.80823" lon="4.79907">
        <ele>212</ele>
        <time>2022-06-06T07:30:57.000Z</time>
      </trkpt>
      <trkpt lat="49.80828" lon="4.79898">
        <ele>211</ele>
        <time>2022-06-06T07:30:58.000Z</time>
      </trkpt>
      <trkpt lat="49.80833" lon="4.7989">
        <ele>210</ele>
        <time>2022-06-06T07:30:59.000Z</time>
      </trkpt>
      <trkpt lat="49.80838" lon="4.79881">
        <ele>209</ele>
        <time>2022-06-06T07:31:00.000Z</time>
      </trkpt>
      <trkpt lat="49.80844" lon="4.79873">
        <ele>207</ele>
        <time>2022-06-06T07:31:01.000Z</time>
      </trkpt>
      <trkpt lat="49.80851" lon="4.79865">
        <ele>206</ele>
        <time>2022-06-06T07:31:02.000Z</time>
      </trkpt>
      <trkpt lat="49.80859" lon="4.79857">
        <ele>204</ele>
        <time>2022-06-06T07:31:03.000Z</time>
      </trkpt>
      <trkpt lat="49.80867" lon="4.79849">
        <ele>203</ele>
        <time>2022-06-06T07:31:04.000Z</time>
      </trkpt>
      <trkpt lat="49.80875" lon="4.79841">
        <ele>201</ele>
        <time>2022-06-06T07:31:05.000Z</time>
      </trkpt>
      <trkpt lat="49.80883" lon="4.79834">
        <ele>200</ele>
        <time>2022-06-06T07:31:06.000Z</time>
      </trkpt>
      <trkpt lat="49.80891" lon="4.79827">
        <ele>199</ele>
        <time>2022-06-06T07:31:07.000Z</time>
      </trkpt>
      <trkpt lat="49.80899" lon="4.7982">
        <ele>197</ele>
        <time>2022-06-06T07:31:08.000Z</time>
      </trkpt>
      <trkpt lat="49.80907" lon="4.79812">
        <ele>196</ele>
        <time>2022-06-06T07:31:09.000Z</time>
      </trkpt>
      <trkpt lat="49.80915" lon="4.79805">
        <ele>194</ele>
        <time>2022-06-06T07:31:10.000Z</time>
      </trkpt>
      <trkpt lat="49.80922" lon="4.79797">
        <ele>193</ele>
        <time>2022-06-06T07:31:11.000Z</time>
      </trkpt>
      <trkpt lat="49.8093" lon="4.79789">
        <ele>192</ele>
        <time>2022-06-06T07:31:12.000Z</time>
      </trkpt>
      <trkpt lat="49.80937" lon="4.79783">
        <ele>191</ele>
        <time>2022-06-06T07:31:13.000Z</time>
      </trkpt>
      <trkpt lat="49.80943" lon="4.79777">
        <ele>190</ele>
        <time>2022-06-06T07:31:14.000Z</time>
      </trkpt>
      <trkpt lat="49.8095" lon="4.79772">
        <ele>189</ele>
        <time>2022-06-06T07:31:15.000Z</time>
      </trkpt>
      <trkpt lat="49.80957" lon="4.79767">
        <ele>188</ele>
        <time>2022-06-06T07:31:16.000Z</time>
      </trkpt>
      <trkpt lat="49.80964" lon="4.79764">
        <ele>188</ele>
        <time>2022-06-06T07:31:17.000Z</time>
      </trkpt>
      <trkpt lat="49.80971" lon="4.7976">
        <ele>187</ele>
        <time>2022-06-06T07:31:18.000Z</time>
      </trkpt>
      <trkpt lat="49.80977" lon="4.79756">
        <ele>186</ele>
        <time>2022-06-06T07:31:19.000Z</time>
      </trkpt>
      <trkpt lat="49.80983" lon="4.7975">
        <ele>186</ele>
        <time>2022-06-06T07:31:20.000Z</time>
      </trkpt>
      <trkpt lat="49.80989" lon="4.79745">
        <ele>186</ele>
        <time>2022-06-06T07:31:21.000Z</time>
      </trkpt>
      <trkpt lat="49.80994" lon="4.7974">
        <ele>185</ele>
        <time>2022-06-06T07:31:22.000Z</time>
      </trkpt>
      <trkpt lat="49.81" lon="4.79734">
        <ele>185</ele>
        <time>2022-06-06T07:31:23.000Z</time>
      </trkpt>
      <trkpt lat="49.81005" lon="4.79729">
        <ele>185</ele>
        <time>2022-06-06T07:31:24.000Z</time>
      </trkpt>
      <trkpt lat="49.8101" lon="4.79724">
        <ele>185</ele>
        <time>2022-06-06T07:31:25.000Z</time>
      </trkpt>
      <trkpt lat="49.81016" lon="4.79723">
        <ele>185</ele>
        <time>2022-06-06T07:31:26.000Z</time>
      </trkpt>
      <trkpt lat="49.81021" lon="4.79725">
        <ele>185</ele>
        <time>2022-06-06T07:31:27.000Z</time>
      </trkpt>
      <trkpt lat="49.81026" lon="4.79731">
        <ele>185</ele>
        <time>2022-06-06T07:31:28.000Z</time>
      </trkpt>
      <trkpt lat="49.81031" lon="4.79737">
        <ele>185</ele>
        <time>2022-06-06T07:31:29.000Z</time>
      </trkpt>
      <trkpt lat="49.81036" lon="4.79743">
        <ele>184</ele>
        <time>2022-06-06T07:31:30.000Z</time>
      </trkpt>
      <trkpt lat="49.81041" lon="4.7975">
        <ele>184</ele>
        <time>2022-06-06T07:31:31.000Z</time>
      </trkpt>
      <trkpt lat="49.81046" lon="4.79757">
        <ele>184</ele>
        <time>2022-06-06T07:31:32.000Z</time>
      </trkpt>
      <trkpt lat="49.8105" lon="4.79765">
        <ele>184</ele>
        <time>2022-06-06T07:31:33.000Z</time>
      </trkpt>
      <trkpt lat="49.81054" lon="4.79774">
        <ele>184</ele>
        <time>2022-06-06T07:31:34.000Z</time>
      </trkpt>
      <trkpt lat="49.81058" lon="4.79783">
        <ele>183</ele>
        <time>2022-06-06T07:31:35.000Z</time>
      </trkpt>
      <trkpt lat="49.81062" lon="4.79792">
        <ele>183</ele>
        <time>2022-06-06T07:31:36.000Z</time>
      </trkpt>
      <trkpt lat="49.81065" lon="4.79801">
        <ele>183</ele>
        <time>2022-06-06T07:31:37.000Z</time>
      </trkpt>
      <trkpt lat="49.81069" lon="4.79811">
        <ele>182</ele>
        <time>2022-06-06T07:31:38.000Z</time>
      </trkpt>
      <trkpt lat="49.81072" lon="4.7982">
        <ele>182</ele>
        <time>2022-06-06T07:31:39.000Z</time>
      </trkpt>
      <trkpt lat="49.81076" lon="4.79829">
        <ele>182</ele>
        <time>2022-06-06T07:31:40.000Z</time>
      </trkpt>
      <trkpt lat="49.81079" lon="4.79838">
        <ele>181</ele>
        <time>2022-06-06T07:31:41.000Z</time>
      </trkpt>
      <trkpt lat="49.81083" lon="4.79847">
        <ele>181</ele>
        <time>2022-06-06T07:31:42.000Z</time>
      </trkpt>
      <trkpt lat="49.81086" lon="4.79856">
        <ele>181</ele>
        <time>2022-06-06T07:31:43.000Z</time>
      </trkpt>
      <trkpt lat="49.81089" lon="4.79865">
        <ele>180</ele>
        <time>2022-06-06T07:31:44.000Z</time>
      </trkpt>
      <trkpt lat="49.81093" lon="4.79874">
        <ele>180</ele>
        <time>2022-06-06T07:31:45.000Z</time>
      </trkpt>
      <trkpt lat="49.81097" lon="4.79882">
        <ele>180</ele>
        <time>2022-06-06T07:31:46.000Z</time>
      </trkpt>
      <trkpt lat="49.811" lon="4.7989">
        <ele>180</ele>
        <time>2022-06-06T07:31:47.000Z</time>
      </trkpt>
      <trkpt lat="49.81104" lon="4.79898">
        <ele>180</ele>
        <time>2022-06-06T07:31:48.000Z</time>
      </trkpt>
      <trkpt lat="49.81107" lon="4.79906">
        <ele>179</ele>
        <time>2022-06-06T07:31:49.000Z</time>
      </trkpt>
      <trkpt lat="49.81111" lon="4.79913">
        <ele>179</ele>
        <time>2022-06-06T07:31:50.000Z</time>
      </trkpt>
      <trkpt lat="49.81115" lon="4.79921">
        <ele>179</ele>
        <time>2022-06-06T07:31:51.000Z</time>
      </trkpt>
      <trkpt lat="49.81119" lon="4.79928">
        <ele>179</ele>
        <time>2022-06-06T07:31:52.000Z</time>
      </trkpt>
      <trkpt lat="49.81123" lon="4.79935">
        <ele>178</ele>
        <time>2022-06-06T07:31:53.000Z</time>
      </trkpt>
      <trkpt lat="49.81128" lon="4.79942">
        <ele>178</ele>
        <time>2022-06-06T07:31:54.000Z</time>
      </trkpt>
      <trkpt lat="49.81132" lon="4.79949">
        <ele>178</ele>
        <time>2022-06-06T07:31:55.000Z</time>
      </trkpt>
      <trkpt lat="49.81137" lon="4.79957">
        <ele>178</ele>
        <time>2022-06-06T07:31:56.000Z</time>
      </trkpt>
      <trkpt lat="49.8114" lon="4.79965">
        <ele>178</ele>
        <time>2022-06-06T07:31:57.000Z</time>
      </trkpt>
      <trkpt lat="49.81144" lon="4.79974">
        <ele>178</ele>
        <time>2022-06-06T07:31:58.000Z</time>
      </trkpt>
      <trkpt lat="49.81146" lon="4.79983">
        <ele>177</ele>
        <time>2022-06-06T07:31:59.000Z</time>
      </trkpt>
      <trkpt lat="49.81147" lon="4.79991">
        <ele>177</ele>
        <time>2022-06-06T07:32:00.000Z</time>
      </trkpt>
      <trkpt lat="49.81147" lon="4.79999">
        <ele>177</ele>
        <time>2022-06-06T07:32:01.000Z</time>
      </trkpt>
      <trkpt lat="49.81148" lon="4.80007">
        <ele>177</ele>
        <time>2022-06-06T07:32:02.000Z</time>
      </trkpt>
      <trkpt lat="49.81148" lon="4.80013">
        <ele>177</ele>
        <time>2022-06-06T07:32:03.000Z</time>
      </trkpt>
      <trkpt lat="49.81147" lon="4.80019">
        <ele>177</ele>
        <time>2022-06-06T07:32:04.000Z</time>
      </trkpt>
      <trkpt lat="49.81147" lon="4.80024">
        <ele>177</ele>
        <time>2022-06-06T07:32:05.000Z</time>
      </trkpt>
      <trkpt lat="49.81146" lon="4.80029">
        <ele>177</ele>
        <time>2022-06-06T07:32:06.000Z</time>
      </trkpt>
      <trkpt lat="49.81146" lon="4.80034">
        <ele>177</ele>
        <time>2022-06-06T07:32:07.000Z</time>
      </trkpt>
      <trkpt lat="49.81145" lon="4.80038">
        <ele>178</ele>
        <time>2022-06-06T07:32:08.000Z</time>
      </trkpt>
      <trkpt lat="49.81144" lon="4.80043">
        <ele>178</ele>
        <time>2022-06-06T07:32:09.000Z</time>
      </trkpt>
      <trkpt lat="49.81143" lon="4.80047">
        <ele>178</ele>
        <time>2022-06-06T07:32:10.000Z</time>
      </trkpt>
      <trkpt lat="49.81143" lon="4.80052">
        <ele>178</ele>
        <time>2022-06-06T07:32:11.000Z</time>
      </trkpt>
      <trkpt lat="49.81142" lon="4.80056">
        <ele>178</ele>
        <time>2022-06-06T07:32:12.000Z</time>
      </trkpt>
      <trkpt lat="49.81142" lon="4.80061">
        <ele>178</ele>
        <time>2022-06-06T07:32:13.000Z</time>
      </trkpt>
      <trkpt lat="49.81141" lon="4.80067">
        <ele>178</ele>
        <time>2022-06-06T07:32:14.000Z</time>
      </trkpt>
      <trkpt lat="49.81141" lon="4.80071">
        <ele>178</ele>
        <time>2022-06-06T07:32:15.000Z</time>
      </trkpt>
      <trkpt lat="49.8114" lon="4.80076">
        <ele>178</ele>
        <time>2022-06-06T07:32:16.000Z</time>
      </trkpt>
      <trkpt lat="49.81139" lon="4.80081">
        <ele>178</ele>
        <time>2022-06-06T07:32:17.000Z</time>
      </trkpt>
      <trkpt lat="49.81138" lon="4.80085">
        <ele>178</ele>
        <time>2022-06-06T07:32:18.000Z</time>
      </trkpt>
      <trkpt lat="49.81137" lon="4.80089">
        <ele>178</ele>
        <time>2022-06-06T07:32:19.000Z</time>
      </trkpt>
      <trkpt lat="49.81137" lon="4.80093">
        <ele>178</ele>
        <time>2022-06-06T07:32:20.000Z</time>
      </trkpt>
      <trkpt lat="49.81137" lon="4.80097">
        <ele>179</ele>
        <time>2022-06-06T07:32:21.000Z</time>
      </trkpt>
      <trkpt lat="49.81137" lon="4.80101">
        <ele>179</ele>
        <time>2022-06-06T07:32:22.000Z</time>
      </trkpt>
      <trkpt lat="49.81137" lon="4.80105">
        <ele>179</ele>
        <time>2022-06-06T07:32:23.000Z</time>
      </trkpt>
      <trkpt lat="49.81137" lon="4.8011">
        <ele>179</ele>
        <time>2022-06-06T07:32:24.000Z</time>
      </trkpt>
      <trkpt lat="49.81137" lon="4.80113">
        <ele>179</ele>
        <time>2022-06-06T07:32:25.000Z</time>
      </trkpt>
      <trkpt lat="49.81138" lon="4.80117">
        <ele>179</ele>
        <time>2022-06-06T07:32:26.000Z</time>
      </trkpt>
      <trkpt lat="49.81138" lon="4.80121">
        <ele>179</ele>
        <time>2022-06-06T07:32:27.000Z</time>
      </trkpt>
      <trkpt lat="49.81138" lon="4.80126">
        <ele>180</ele>
        <time>2022-06-06T07:32:28.000Z</time>
      </trkpt>
      <trkpt lat="49.81139" lon="4.8013">
        <ele>180</ele>
        <time>2022-06-06T07:32:29.000Z</time>
      </trkpt>
      <trkpt lat="49.81139" lon="4.80135">
        <ele>180</ele>
        <time>2022-06-06T07:32:30.000Z</time>
      </trkpt>
      <trkpt lat="49.81139" lon="4.8014">
        <ele>180</ele>
        <time>2022-06-06T07:32:31.000Z</time>
      </trkpt>
      <trkpt lat="49.81139" lon="4.80144">
        <ele>180</ele>
        <time>2022-06-06T07:32:32.000Z</time>
      </trkpt>
      <trkpt lat="49.81139" lon="4.80148">
        <ele>181</ele>
        <time>2022-06-06T07:32:33.000Z</time>
      </trkpt>
      <trkpt lat="49.81139" lon="4.80153">
        <ele>181</ele>
        <time>2022-06-06T07:32:34.000Z</time>
      </trkpt>
      <trkpt lat="49.81139" lon="4.80157">
        <ele>181</ele>
        <time>2022-06-06T07:32:35.000Z</time>
      </trkpt>
      <trkpt lat="49.81138" lon="4.8016">
        <ele>181</ele>
        <time>2022-06-06T07:32:36.000Z</time>
      </trkpt>
      <trkpt lat="49.81137" lon="4.80164">
        <ele>181</ele>
        <time>2022-06-06T07:32:37.000Z</time>
      </trkpt>
      <trkpt lat="49.81136" lon="4.80168">
        <ele>181</ele>
        <time>2022-06-06T07:32:38.000Z</time>
      </trkpt>
      <trkpt lat="49.81135" lon="4.80172">
        <ele>181</ele>
        <time>2022-06-06T07:32:39.000Z</time>
      </trkpt>
      <trkpt lat="49.81134" lon="4.80175">
        <ele>181</ele>
        <time>2022-06-06T07:32:40.000Z</time>
      </trkpt>
      <trkpt lat="49.81134" lon="4.80179">
        <ele>181</ele>
        <time>2022-06-06T07:32:41.000Z</time>
      </trkpt>
      <trkpt lat="49.81133" lon="4.80183">
        <ele>181</ele>
        <time>2022-06-06T07:32:42.000Z</time>
      </trkpt>
      <trkpt lat="49.81133" lon="4.80187">
        <ele>181</ele>
        <time>2022-06-06T07:32:43.000Z</time>
      </trkpt>
      <trkpt lat="49.81133" lon="4.80191">
        <ele>181</ele>
        <time>2022-06-06T07:32:44.000Z</time>
      </trkpt>
      <trkpt lat="49.81133" lon="4.80195">
        <ele>181</ele>
        <time>2022-06-06T07:32:45.000Z</time>
      </trkpt>
      <trkpt lat="49.81133" lon="4.80198">
        <ele>181</ele>
        <time>2022-06-06T07:32:46.000Z</time>
      </trkpt>
      <trkpt lat="49.81133" lon="4.80202">
        <ele>182</ele>
        <time>2022-06-06T07:32:47.000Z</time>
      </trkpt>
      <trkpt lat="49.81133" lon="4.80206">
        <ele>182</ele>
        <time>2022-06-06T07:32:48.000Z</time>
      </trkpt>
      <trkpt lat="49.81132" lon="4.8021">
        <ele>182</ele>
        <time>2022-06-06T07:32:49.000Z</time>
      </trkpt>
      <trkpt lat="49.81132" lon="4.80214">
        <ele>182</ele>
        <time>2022-06-06T07:32:50.000Z</time>
      </trkpt>
      <trkpt lat="49.81132" lon="4.80218">
        <ele>182</ele>
        <time>2022-06-06T07:32:51.000Z</time>
      </trkpt>
      <trkpt lat="49.81133" lon="4.80222">
        <ele>182</ele>
        <time>2022-06-06T07:32:52.000Z</time>
      </trkpt>
      <trkpt lat="49.81134" lon="4.80226">
        <ele>183</ele>
        <time>2022-06-06T07:32:53.000Z</time>
      </trkpt>
      <trkpt lat="49.81135" lon="4.80229">
        <ele>183</ele>
        <time>2022-06-06T07:32:54.000Z</time>
      </trkpt>
      <trkpt lat="49.81136" lon="4.80233">
        <ele>183</ele>
        <time>2022-06-06T07:32:55.000Z</time>
      </trkpt>
      <trkpt lat="49.81137" lon="4.80238">
        <ele>183</ele>
        <time>2022-06-06T07:32:56.000Z</time>
      </trkpt>
      <trkpt lat="49.81137" lon="4.80243">
        <ele>183</ele>
        <time>2022-06-06T07:32:57.000Z</time>
      </trkpt>
      <trkpt lat="49.81136" lon="4.80248">
        <ele>184</ele>
        <time>2022-06-06T07:32:58.000Z</time>
      </trkpt>
      <trkpt lat="49.81137" lon="4.80252">
        <ele>184</ele>
        <time>2022-06-06T07:32:59.000Z</time>
      </trkpt>
      <trkpt lat="49.81138" lon="4.80257">
        <ele>184</ele>
        <time>2022-06-06T07:33:00.000Z</time>
      </trkpt>
      <trkpt lat="49.81138" lon="4.80261">
        <ele>184</ele>
        <time>2022-06-06T07:33:01.000Z</time>
      </trkpt>
      <trkpt lat="49.81138" lon="4.80264">
        <ele>184</ele>
        <time>2022-06-06T07:33:02.000Z</time>
      </trkpt>
      <trkpt lat="49.81138" lon="4.80267">
        <ele>184</ele>
        <time>2022-06-06T07:33:03.000Z</time>
      </trkpt>
      <trkpt lat="49.81138" lon="4.80272">
        <ele>185</ele>
        <time>2022-06-06T07:33:04.000Z</time>
      </trkpt>
      <trkpt lat="49.81138" lon="4.80277">
        <ele>185</ele>
        <time>2022-06-06T07:33:05.000Z</time>
      </trkpt>
      <trkpt lat="49.81139" lon="4.80281">
        <ele>185</ele>
        <time>2022-06-06T07:33:06.000Z</time>
      </trkpt>
      <trkpt lat="49.8114" lon="4.80285">
        <ele>185</ele>
        <time>2022-06-06T07:33:07.000Z</time>
      </trkpt>
      <trkpt lat="49.81139" lon="4.8029">
        <ele>186</ele>
        <time>2022-06-06T07:33:08.000Z</time>
      </trkpt>
      <trkpt lat="49.81139" lon="4.80295">
        <ele>186</ele>
        <time>2022-06-06T07:33:09.000Z</time>
      </trkpt>
      <trkpt lat="49.8114" lon="4.803">
        <ele>186</ele>
        <time>2022-06-06T07:33:10.000Z</time>
      </trkpt>
      <trkpt lat="49.8114" lon="4.80305">
        <ele>186</ele>
        <time>2022-06-06T07:33:11.000Z</time>
      </trkpt>
      <trkpt lat="49.8114" lon="4.8031">
        <ele>187</ele>
        <time>2022-06-06T07:33:12.000Z</time>
      </trkpt>
      <trkpt lat="49.8114" lon="4.80314">
        <ele>187</ele>
        <time>2022-06-06T07:33:13.000Z</time>
      </trkpt>
      <trkpt lat="49.8114" lon="4.80318">
        <ele>187</ele>
        <time>2022-06-06T07:33:14.000Z</time>
      </trkpt>
      <trkpt lat="49.81141" lon="4.80322">
        <ele>188</ele>
        <time>2022-06-06T07:33:15.000Z</time>
      </trkpt>
      <trkpt lat="49.81142" lon="4.80325">
        <ele>188</ele>
        <time>2022-06-06T07:33:16.000Z</time>
      </trkpt>
      <trkpt lat="49.81143" lon="4.80328">
        <ele>188</ele>
        <time>2022-06-06T07:33:17.000Z</time>
      </trkpt>
      <trkpt lat="49.81144" lon="4.8033">
        <ele>188</ele>
        <time>2022-06-06T07:33:18.000Z</time>
      </trkpt>
      <trkpt lat="49.81146" lon="4.80332">
        <ele>189</ele>
        <time>2022-06-06T07:33:19.000Z</time>
      </trkpt>
      <trkpt lat="49.81147" lon="4.80334">
        <ele>189</ele>
        <time>2022-06-06T07:33:20.000Z</time>
      </trkpt>
      <trkpt lat="49.81149" lon="4.80337">
        <ele>189</ele>
        <time>2022-06-06T07:33:21.000Z</time>
      </trkpt>
      <trkpt lat="49.8115" lon="4.80338">
        <ele>190</ele>
        <time>2022-06-06T07:33:22.000Z</time>
      </trkpt>
      <trkpt lat="49.81152" lon="4.80339">
        <ele>190</ele>
        <time>2022-06-06T07:33:23.000Z</time>
      </trkpt>
      <trkpt lat="49.81153" lon="4.80339">
        <ele>190</ele>
        <time>2022-06-06T07:33:24.000Z</time>
      </trkpt>
      <trkpt lat="49.81154" lon="4.80339">
        <ele>191</ele>
        <time>2022-06-06T07:33:25.000Z</time>
      </trkpt>
      <trkpt lat="49.81156" lon="4.80338">
        <ele>191</ele>
        <time>2022-06-06T07:33:26.000Z</time>
      </trkpt>
      <trkpt lat="49.81158" lon="4.80335">
        <ele>191</ele>
        <time>2022-06-06T07:33:27.000Z</time>
      </trkpt>
      <trkpt lat="49.81159" lon="4.80333">
        <ele>192</ele>
        <time>2022-06-06T07:33:28.000Z</time>
      </trkpt>
      <trkpt lat="49.81161" lon="4.80331">
        <ele>192</ele>
        <time>2022-06-06T07:33:29.000Z</time>
      </trkpt>
      <trkpt lat="49.81163" lon="4.80329">
        <ele>192</ele>
        <time>2022-06-06T07:33:30.000Z</time>
      </trkpt>
      <trkpt lat="49.81165" lon="4.80326">
        <ele>193</ele>
        <time>2022-06-06T07:33:31.000Z</time>
      </trkpt>
      <trkpt lat="49.81167" lon="4.80322">
        <ele>193</ele>
        <time>2022-06-06T07:33:32.000Z</time>
      </trkpt>
      <trkpt lat="49.81168" lon="4.80319">
        <ele>193</ele>
        <time>2022-06-06T07:33:33.000Z</time>
      </trkpt>
      <trkpt lat="49.8117" lon="4.80315">
        <ele>194</ele>
        <time>2022-06-06T07:33:34.000Z</time>
      </trkpt>
      <trkpt lat="49.81172" lon="4.80311">
        <ele>194</ele>
        <time>2022-06-06T07:33:35.000Z</time>
      </trkpt>
      <trkpt lat="49.81174" lon="4.80306">
        <ele>194</ele>
        <time>2022-06-06T07:33:36.000Z</time>
      </trkpt>
      <trkpt lat="49.81176" lon="4.80301">
        <ele>194</ele>
        <time>2022-06-06T07:33:37.000Z</time>
      </trkpt>
      <trkpt lat="49.81178" lon="4.80296">
        <ele>195</ele>
        <time>2022-06-06T07:33:38.000Z</time>
      </trkpt>
      <trkpt lat="49.81181" lon="4.80292">
        <ele>195</ele>
        <time>2022-06-06T07:33:39.000Z</time>
      </trkpt>
      <trkpt lat="49.81184" lon="4.80288">
        <ele>195</ele>
        <time>2022-06-06T07:33:40.000Z</time>
      </trkpt>
      <trkpt lat="49.81187" lon="4.80284">
        <ele>196</ele>
        <time>2022-06-06T07:33:41.000Z</time>
      </trkpt>
      <trkpt lat="49.81189" lon="4.8028">
        <ele>196</ele>
        <time>2022-06-06T07:33:42.000Z</time>
      </trkpt>
      <trkpt lat="49.81192" lon="4.80275">
        <ele>196</ele>
        <time>2022-06-06T07:33:43.000Z</time>
      </trkpt>
      <trkpt lat="49.81195" lon="4.8027">
        <ele>197</ele>
        <time>2022-06-06T07:33:44.000Z</time>
      </trkpt>
      <trkpt lat="49.81198" lon="4.80264">
        <ele>197</ele>
        <time>2022-06-06T07:33:45.000Z</time>
      </trkpt>
      <trkpt lat="49.812" lon="4.80259">
        <ele>197</ele>
        <time>2022-06-06T07:33:46.000Z</time>
      </trkpt>
      <trkpt lat="49.81201" lon="4.80253">
        <ele>198</ele>
        <time>2022-06-06T07:33:47.000Z</time>
      </trkpt>
      <trkpt lat="49.81203" lon="4.80247">
        <ele>198</ele>
        <time>2022-06-06T07:33:48.000Z</time>
      </trkpt>
      <trkpt lat="49.81205" lon="4.80241">
        <ele>198</ele>
        <time>2022-06-06T07:33:49.000Z</time>
      </trkpt>
      <trkpt lat="49.81207" lon="4.80235">
        <ele>199</ele>
        <time>2022-06-06T07:33:50.000Z</time>
      </trkpt>
      <trkpt lat="49.81208" lon="4.80229">
        <ele>199</ele>
        <time>2022-06-06T07:33:51.000Z</time>
      </trkpt>
      <trkpt lat="49.81211" lon="4.80222">
        <ele>199</ele>
        <time>2022-06-06T07:33:52.000Z</time>
      </trkpt>
      <trkpt lat="49.81213" lon="4.80216">
        <ele>200</ele>
        <time>2022-06-06T07:33:53.000Z</time>
      </trkpt>
      <trkpt lat="49.81215" lon="4.8021">
        <ele>200</ele>
        <time>2022-06-06T07:33:54.000Z</time>
      </trkpt>
      <trkpt lat="49.81218" lon="4.80204">
        <ele>200</ele>
        <time>2022-06-06T07:33:55.000Z</time>
      </trkpt>
      <trkpt lat="49.81221" lon="4.80198">
        <ele>200</ele>
        <time>2022-06-06T07:33:56.000Z</time>
      </trkpt>
      <trkpt lat="49.81223" lon="4.80192">
        <ele>200</ele>
        <time>2022-06-06T07:33:57.000Z</time>
      </trkpt>
      <trkpt lat="49.81225" lon="4.80186">
        <ele>200</ele>
        <time>2022-06-06T07:33:58.000Z</time>
      </trkpt>
      <trkpt lat="49.81227" lon="4.8018">
        <ele>200</ele>
        <time>2022-06-06T07:33:59.000Z</time>
      </trkpt>
      <trkpt lat="49.81229" lon="4.80174">
        <ele>201</ele>
        <time>2022-06-06T07:34:00.000Z</time>
      </trkpt>
      <trkpt lat="49.81231" lon="4.80168">
        <ele>201</ele>
        <time>2022-06-06T07:34:01.000Z</time>
      </trkpt>
      <trkpt lat="49.81234" lon="4.80162">
        <ele>201</ele>
        <time>2022-06-06T07:34:02.000Z</time>
      </trkpt>
      <trkpt lat="49.81237" lon="4.80156">
        <ele>201</ele>
        <time>2022-06-06T07:34:03.000Z</time>
      </trkpt>
      <trkpt lat="49.8124" lon="4.8015">
        <ele>201</ele>
        <time>2022-06-06T07:34:04.000Z</time>
      </trkpt>
      <trkpt lat="49.81243" lon="4.80144">
        <ele>201</ele>
        <time>2022-06-06T07:34:05.000Z</time>
      </trkpt>
      <trkpt lat="49.81246" lon="4.80136">
        <ele>201</ele>
        <time>2022-06-06T07:34:06.000Z</time>
      </trkpt>
      <trkpt lat="49.81248" lon="4.80129">
        <ele>202</ele>
        <time>2022-06-06T07:34:07.000Z</time>
      </trkpt>
      <trkpt lat="49.8125" lon="4.80124">
        <ele>202</ele>
        <time>2022-06-06T07:34:08.000Z</time>
      </trkpt>
      <trkpt lat="49.81252" lon="4.80118">
        <ele>202</ele>
        <time>2022-06-06T07:34:09.000Z</time>
      </trkpt>
      <trkpt lat="49.81254" lon="4.80112">
        <ele>202</ele>
        <time>2022-06-06T07:34:10.000Z</time>
      </trkpt>
      <trkpt lat="49.81257" lon="4.80105">
        <ele>202</ele>
        <time>2022-06-06T07:34:11.000Z</time>
      </trkpt>
      <trkpt lat="49.81259" lon="4.80099">
        <ele>203</ele>
        <time>2022-06-06T07:34:12.000Z</time>
      </trkpt>
      <trkpt lat="49.81261" lon="4.80093">
        <ele>203</ele>
        <time>2022-06-06T07:34:13.000Z</time>
      </trkpt>
      <trkpt lat="49.81263" lon="4.80086">
        <ele>203</ele>
        <time>2022-06-06T07:34:14.000Z</time>
      </trkpt>
      <trkpt lat="49.81266" lon="4.80079">
        <ele>203</ele>
        <time>2022-06-06T07:34:15.000Z</time>
      </trkpt>
      <trkpt lat="49.81269" lon="4.80072">
        <ele>204</ele>
        <time>2022-06-06T07:34:16.000Z</time>
      </trkpt>
      <trkpt lat="49.81272" lon="4.80065">
        <ele>204</ele>
        <time>2022-06-06T07:34:17.000Z</time>
      </trkpt>
      <trkpt lat="49.81276" lon="4.80059">
        <ele>204</ele>
        <time>2022-06-06T07:34:18.000Z</time>
      </trkpt>
      <trkpt lat="49.8128" lon="4.80053">
        <ele>204</ele>
        <time>2022-06-06T07:34:19.000Z</time>
      </trkpt>
      <trkpt lat="49.81284" lon="4.80047">
        <ele>204</ele>
        <time>2022-06-06T07:34:20.000Z</time>
      </trkpt>
      <trkpt lat="49.81288" lon="4.80041">
        <ele>204</ele>
        <time>2022-06-06T07:34:21.000Z</time>
      </trkpt>
      <trkpt lat="49.81292" lon="4.80035">
        <ele>204</ele>
        <time>2022-06-06T07:34:22.000Z</time>
      </trkpt>
      <trkpt lat="49.81295" lon="4.80028">
        <ele>204</ele>
        <time>2022-06-06T07:34:23.000Z</time>
      </trkpt>
      <trkpt lat="49.81299" lon="4.80022">
        <ele>205</ele>
        <time>2022-06-06T07:34:24.000Z</time>
      </trkpt>
      <trkpt lat="49.81304" lon="4.80015">
        <ele>205</ele>
        <time>2022-06-06T07:34:25.000Z</time>
      </trkpt>
      <trkpt lat="49.81307" lon="4.80008">
        <ele>205</ele>
        <time>2022-06-06T07:34:26.000Z</time>
      </trkpt>
      <trkpt lat="49.81309" lon="4.80001">
        <ele>205</ele>
        <time>2022-06-06T07:34:27.000Z</time>
      </trkpt>
      <trkpt lat="49.81311" lon="4.79995">
        <ele>205</ele>
        <time>2022-06-06T07:34:28.000Z</time>
      </trkpt>
      <trkpt lat="49.81314" lon="4.79988">
        <ele>205</ele>
        <time>2022-06-06T07:34:29.000Z</time>
      </trkpt>
      <trkpt lat="49.81317" lon="4.79981">
        <ele>206</ele>
        <time>2022-06-06T07:34:30.000Z</time>
      </trkpt>
      <trkpt lat="49.81319" lon="4.79974">
        <ele>206</ele>
        <time>2022-06-06T07:34:31.000Z</time>
      </trkpt>
      <trkpt lat="49.81322" lon="4.79967">
        <ele>206</ele>
        <time>2022-06-06T07:34:32.000Z</time>
      </trkpt>
      <trkpt lat="49.81324" lon="4.79961">
        <ele>206</ele>
        <time>2022-06-06T07:34:33.000Z</time>
      </trkpt>
      <trkpt lat="49.81326" lon="4.79955">
        <ele>206</ele>
        <time>2022-06-06T07:34:34.000Z</time>
      </trkpt>
      <trkpt lat="49.81329" lon="4.79949">
        <ele>206</ele>
        <time>2022-06-06T07:34:35.000Z</time>
      </trkpt>
      <trkpt lat="49.81332" lon="4.79942">
        <ele>207</ele>
        <time>2022-06-06T07:34:36.000Z</time>
      </trkpt>
      <trkpt lat="49.81335" lon="4.79934">
        <ele>207</ele>
        <time>2022-06-06T07:34:37.000Z</time>
      </trkpt>
      <trkpt lat="49.81338" lon="4.79927">
        <ele>207</ele>
        <time>2022-06-06T07:34:38.000Z</time>
      </trkpt>
      <trkpt lat="49.81341" lon="4.7992">
        <ele>207</ele>
        <time>2022-06-06T07:34:39.000Z</time>
      </trkpt>
      <trkpt lat="49.81345" lon="4.79913">
        <ele>208</ele>
        <time>2022-06-06T07:34:40.000Z</time>
      </trkpt>
      <trkpt lat="49.81348" lon="4.79907">
        <ele>208</ele>
        <time>2022-06-06T07:34:41.000Z</time>
      </trkpt>
      <trkpt lat="49.81351" lon="4.799">
        <ele>208</ele>
        <time>2022-06-06T07:34:42.000Z</time>
      </trkpt>
      <trkpt lat="49.81354" lon="4.79893">
        <ele>208</ele>
        <time>2022-06-06T07:34:43.000Z</time>
      </trkpt>
      <trkpt lat="49.81357" lon="4.79885">
        <ele>208</ele>
        <time>2022-06-06T07:34:44.000Z</time>
      </trkpt>
      <trkpt lat="49.81359" lon="4.79878">
        <ele>209</ele>
        <time>2022-06-06T07:34:45.000Z</time>
      </trkpt>
      <trkpt lat="49.81362" lon="4.7987">
        <ele>209</ele>
        <time>2022-06-06T07:34:46.000Z</time>
      </trkpt>
      <trkpt lat="49.81364" lon="4.79862">
        <ele>209</ele>
        <time>2022-06-06T07:34:47.000Z</time>
      </trkpt>
      <trkpt lat="49.81366" lon="4.79854">
        <ele>209</ele>
        <time>2022-06-06T07:34:48.000Z</time>
      </trkpt>
      <trkpt lat="49.81369" lon="4.79845">
        <ele>209</ele>
        <time>2022-06-06T07:34:49.000Z</time>
      </trkpt>
      <trkpt lat="49.81371" lon="4.79837">
        <ele>209</ele>
        <time>2022-06-06T07:34:50.000Z</time>
      </trkpt>
      <trkpt lat="49.81374" lon="4.79829">
        <ele>209</ele>
        <time>2022-06-06T07:34:51.000Z</time>
      </trkpt>
      <trkpt lat="49.81377" lon="4.79821">
        <ele>209</ele>
        <time>2022-06-06T07:34:52.000Z</time>
      </trkpt>
      <trkpt lat="49.81379" lon="4.79812">
        <ele>209</ele>
        <time>2022-06-06T07:34:53.000Z</time>
      </trkpt>
      <trkpt lat="49.81382" lon="4.79804">
        <ele>209</ele>
        <time>2022-06-06T07:34:54.000Z</time>
      </trkpt>
      <trkpt lat="49.81384" lon="4.79796">
        <ele>209</ele>
        <time>2022-06-06T07:34:55.000Z</time>
      </trkpt>
      <trkpt lat="49.81387" lon="4.79788">
        <ele>209</ele>
        <time>2022-06-06T07:34:56.000Z</time>
      </trkpt>
      <trkpt lat="49.8139" lon="4.79781">
        <ele>209</ele>
        <time>2022-06-06T07:34:57.000Z</time>
      </trkpt>
      <trkpt lat="49.81393" lon="4.79773">
        <ele>209</ele>
        <time>2022-06-06T07:34:58.000Z</time>
      </trkpt>
      <trkpt lat="49.81396" lon="4.79764">
        <ele>209</ele>
        <time>2022-06-06T07:34:59.000Z</time>
      </trkpt>
      <trkpt lat="49.81398" lon="4.79756">
        <ele>209</ele>
        <time>2022-06-06T07:35:00.000Z</time>
      </trkpt>
      <trkpt lat="49.81401" lon="4.79748">
        <ele>209</ele>
        <time>2022-06-06T07:35:01.000Z</time>
      </trkpt>
      <trkpt lat="49.81403" lon="4.79739">
        <ele>209</ele>
        <time>2022-06-06T07:35:02.000Z</time>
      </trkpt>
      <trkpt lat="49.81406" lon="4.79731">
        <ele>209</ele>
        <time>2022-06-06T07:35:03.000Z</time>
      </trkpt>
      <trkpt lat="49.81408" lon="4.79723">
        <ele>209</ele>
        <time>2022-06-06T07:35:04.000Z</time>
      </trkpt>
      <trkpt lat="49.8141" lon="4.79715">
        <ele>209</ele>
        <time>2022-06-06T07:35:05.000Z</time>
      </trkpt>
      <trkpt lat="49.81412" lon="4.79706">
        <ele>209</ele>
        <time>2022-06-06T07:35:06.000Z</time>
      </trkpt>
      <trkpt lat="49.81414" lon="4.79698">
        <ele>209</ele>
        <time>2022-06-06T07:35:07.000Z</time>
      </trkpt>
      <trkpt lat="49.81416" lon="4.79689">
        <ele>209</ele>
        <time>2022-06-06T07:35:08.000Z</time>
      </trkpt>
      <trkpt lat="49.81419" lon="4.79682">
        <ele>209</ele>
        <time>2022-06-06T07:35:09.000Z</time>
      </trkpt>
      <trkpt lat="49.8142" lon="4.79674">
        <ele>209</ele>
        <time>2022-06-06T07:35:10.000Z</time>
      </trkpt>
      <trkpt lat="49.81422" lon="4.79667">
        <ele>209</ele>
        <time>2022-06-06T07:35:11.000Z</time>
      </trkpt>
      <trkpt lat="49.81424" lon="4.79659">
        <ele>209</ele>
        <time>2022-06-06T07:35:12.000Z</time>
      </trkpt>
      <trkpt lat="49.81426" lon="4.79651">
        <ele>209</ele>
        <time>2022-06-06T07:35:13.000Z</time>
      </trkpt>
      <trkpt lat="49.81428" lon="4.79643">
        <ele>209</ele>
        <time>2022-06-06T07:35:14.000Z</time>
      </trkpt>
      <trkpt lat="49.81429" lon="4.79636">
        <ele>209</ele>
        <time>2022-06-06T07:35:15.000Z</time>
      </trkpt>
      <trkpt lat="49.81431" lon="4.79629">
        <ele>209</ele>
        <time>2022-06-06T07:35:16.000Z</time>
      </trkpt>
      <trkpt lat="49.81432" lon="4.79622">
        <ele>209</ele>
        <time>2022-06-06T07:35:17.000Z</time>
      </trkpt>
      <trkpt lat="49.81434" lon="4.79616">
        <ele>209</ele>
        <time>2022-06-06T07:35:18.000Z</time>
      </trkpt>
      <trkpt lat="49.81436" lon="4.7961">
        <ele>209</ele>
        <time>2022-06-06T07:35:19.000Z</time>
      </trkpt>
      <trkpt lat="49.81438" lon="4.79604">
        <ele>209</ele>
        <time>2022-06-06T07:35:20.000Z</time>
      </trkpt>
      <trkpt lat="49.81439" lon="4.79598">
        <ele>209</ele>
        <time>2022-06-06T07:35:21.000Z</time>
      </trkpt>
      <trkpt lat="49.81441" lon="4.79591">
        <ele>209</ele>
        <time>2022-06-06T07:35:22.000Z</time>
      </trkpt>
      <trkpt lat="49.81443" lon="4.79583">
        <ele>209</ele>
        <time>2022-06-06T07:35:23.000Z</time>
      </trkpt>
      <trkpt lat="49.81444" lon="4.79573">
        <ele>209</ele>
        <time>2022-06-06T07:35:24.000Z</time>
      </trkpt>
      <trkpt lat="49.81445" lon="4.79564">
        <ele>209</ele>
        <time>2022-06-06T07:35:25.000Z</time>
      </trkpt>
      <trkpt lat="49.81446" lon="4.79554">
        <ele>208</ele>
        <time>2022-06-06T07:35:26.000Z</time>
      </trkpt>
      <trkpt lat="49.81446" lon="4.79545">
        <ele>208</ele>
        <time>2022-06-06T07:35:27.000Z</time>
      </trkpt>
      <trkpt lat="49.81447" lon="4.79536">
        <ele>208</ele>
        <time>2022-06-06T07:35:28.000Z</time>
      </trkpt>
      <trkpt lat="49.81449" lon="4.79527">
        <ele>208</ele>
        <time>2022-06-06T07:35:29.000Z</time>
      </trkpt>
      <trkpt lat="49.81451" lon="4.79519">
        <ele>208</ele>
        <time>2022-06-06T07:35:30.000Z</time>
      </trkpt>
      <trkpt lat="49.81452" lon="4.79511">
        <ele>208</ele>
        <time>2022-06-06T07:35:31.000Z</time>
      </trkpt>
      <trkpt lat="49.81452" lon="4.79502">
        <ele>208</ele>
        <time>2022-06-06T07:35:32.000Z</time>
      </trkpt>
      <trkpt lat="49.81452" lon="4.79495">
        <ele>208</ele>
        <time>2022-06-06T07:35:33.000Z</time>
      </trkpt>
      <trkpt lat="49.81452" lon="4.79487">
        <ele>208</ele>
        <time>2022-06-06T07:35:34.000Z</time>
      </trkpt>
      <trkpt lat="49.81453" lon="4.79479">
        <ele>207</ele>
        <time>2022-06-06T07:35:35.000Z</time>
      </trkpt>
      <trkpt lat="49.81453" lon="4.79472">
        <ele>207</ele>
        <time>2022-06-06T07:35:36.000Z</time>
      </trkpt>
      <trkpt lat="49.81453" lon="4.79464">
        <ele>207</ele>
        <time>2022-06-06T07:35:37.000Z</time>
      </trkpt>
      <trkpt lat="49.81452" lon="4.79457">
        <ele>207</ele>
        <time>2022-06-06T07:35:38.000Z</time>
      </trkpt>
      <trkpt lat="49.81452" lon="4.7945">
        <ele>207</ele>
        <time>2022-06-06T07:35:39.000Z</time>
      </trkpt>
      <trkpt lat="49.81452" lon="4.79443">
        <ele>206</ele>
        <time>2022-06-06T07:35:40.000Z</time>
      </trkpt>
      <trkpt lat="49.81453" lon="4.79435">
        <ele>206</ele>
        <time>2022-06-06T07:35:41.000Z</time>
      </trkpt>
      <trkpt lat="49.81454" lon="4.79428">
        <ele>206</ele>
        <time>2022-06-06T07:35:42.000Z</time>
      </trkpt>
      <trkpt lat="49.81455" lon="4.79421">
        <ele>206</ele>
        <time>2022-06-06T07:35:43.000Z</time>
      </trkpt>
      <trkpt lat="49.81457" lon="4.79415">
        <ele>206</ele>
        <time>2022-06-06T07:35:44.000Z</time>
      </trkpt>
      <trkpt lat="49.81458" lon="4.7941">
        <ele>206</ele>
        <time>2022-06-06T07:35:45.000Z</time>
      </trkpt>
      <trkpt lat="49.81459" lon="4.79406">
        <ele>206</ele>
        <time>2022-06-06T07:35:46.000Z</time>
      </trkpt>
      <trkpt lat="49.81461" lon="4.79402">
        <ele>206</ele>
        <time>2022-06-06T07:35:47.000Z</time>
      </trkpt>
      <trkpt lat="49.81462" lon="4.79398">
        <ele>206</ele>
        <time>2022-06-06T07:35:48.000Z</time>
      </trkpt>
      <trkpt lat="49.81463" lon="4.79394">
        <ele>206</ele>
        <time>2022-06-06T07:35:49.000Z</time>
      </trkpt>
      <trkpt lat="49.81463" lon="4.79389">
        <ele>206</ele>
        <time>2022-06-06T07:35:50.000Z</time>
      </trkpt>
      <trkpt lat="49.81462" lon="4.79383">
        <ele>206</ele>
        <time>2022-06-06T07:35:51.000Z</time>
      </trkpt>
      <trkpt lat="49.81462" lon="4.79376">
        <ele>207</ele>
        <time>2022-06-06T07:35:52.000Z</time>
      </trkpt>
      <trkpt lat="49.81461" lon="4.79369">
        <ele>207</ele>
        <time>2022-06-06T07:35:53.000Z</time>
      </trkpt>
      <trkpt lat="49.81461" lon="4.79362">
        <ele>207</ele>
        <time>2022-06-06T07:35:54.000Z</time>
      </trkpt>
      <trkpt lat="49.8146" lon="4.79356">
        <ele>207</ele>
        <time>2022-06-06T07:35:55.000Z</time>
      </trkpt>
      <trkpt lat="49.8146" lon="4.7935">
        <ele>207</ele>
        <time>2022-06-06T07:35:56.000Z</time>
      </trkpt>
      <trkpt lat="49.81459" lon="4.79344">
        <ele>207</ele>
        <time>2022-06-06T07:35:57.000Z</time>
      </trkpt>
      <trkpt lat="49.81459" lon="4.79338">
        <ele>207</ele>
        <time>2022-06-06T07:35:58.000Z</time>
      </trkpt>
      <trkpt lat="49.81459" lon="4.79332">
        <ele>207</ele>
        <time>2022-06-06T07:35:59.000Z</time>
      </trkpt>
      <trkpt lat="49.81459" lon="4.79325">
        <ele>207</ele>
        <time>2022-06-06T07:36:00.000Z</time>
      </trkpt>
      <trkpt lat="49.8146" lon="4.79318">
        <ele>206</ele>
        <time>2022-06-06T07:36:01.000Z</time>
      </trkpt>
      <trkpt lat="49.81461" lon="4.79311">
        <ele>206</ele>
        <time>2022-06-06T07:36:02.000Z</time>
      </trkpt>
      <trkpt lat="49.81461" lon="4.79303">
        <ele>206</ele>
        <time>2022-06-06T07:36:03.000Z</time>
      </trkpt>
      <trkpt lat="49.81461" lon="4.79295">
        <ele>206</ele>
        <time>2022-06-06T07:36:04.000Z</time>
      </trkpt>
      <trkpt lat="49.81462" lon="4.79287">
        <ele>206</ele>
        <time>2022-06-06T07:36:05.000Z</time>
      </trkpt>
      <trkpt lat="49.81462" lon="4.79279">
        <ele>206</ele>
        <time>2022-06-06T07:36:06.000Z</time>
      </trkpt>
      <trkpt lat="49.81463" lon="4.7927">
        <ele>206</ele>
        <time>2022-06-06T07:36:07.000Z</time>
      </trkpt>
      <trkpt lat="49.81463" lon="4.79262">
        <ele>206</ele>
        <time>2022-06-06T07:36:08.000Z</time>
      </trkpt>
      <trkpt lat="49.81465" lon="4.79253">
        <ele>205</ele>
        <time>2022-06-06T07:36:09.000Z</time>
      </trkpt>
      <trkpt lat="49.81467" lon="4.79244">
        <ele>205</ele>
        <time>2022-06-06T07:36:10.000Z</time>
      </trkpt>
      <trkpt lat="49.81469" lon="4.79236">
        <ele>205</ele>
        <time>2022-06-06T07:36:11.000Z</time>
      </trkpt>
      <trkpt lat="49.8147" lon="4.79228">
        <ele>205</ele>
        <time>2022-06-06T07:36:12.000Z</time>
      </trkpt>
      <trkpt lat="49.81471" lon="4.7922">
        <ele>205</ele>
        <time>2022-06-06T07:36:13.000Z</time>
      </trkpt>
      <trkpt lat="49.81471" lon="4.79211">
        <ele>204</ele>
        <time>2022-06-06T07:36:14.000Z</time>
      </trkpt>
      <trkpt lat="49.81472" lon="4.79203">
        <ele>204</ele>
        <time>2022-06-06T07:36:15.000Z</time>
      </trkpt>
      <trkpt lat="49.81472" lon="4.79194">
        <ele>204</ele>
        <time>2022-06-06T07:36:16.000Z</time>
      </trkpt>
      <trkpt lat="49.81471" lon="4.79184">
        <ele>204</ele>
        <time>2022-06-06T07:36:17.000Z</time>
      </trkpt>
      <trkpt lat="49.81471" lon="4.79174">
        <ele>204</ele>
        <time>2022-06-06T07:36:18.000Z</time>
      </trkpt>
      <trkpt lat="49.8147" lon="4.79164">
        <ele>204</ele>
        <time>2022-06-06T07:36:19.000Z</time>
      </trkpt>
      <trkpt lat="49.81471" lon="4.79154">
        <ele>204</ele>
        <time>2022-06-06T07:36:20.000Z</time>
      </trkpt>
      <trkpt lat="49.81472" lon="4.79143">
        <ele>204</ele>
        <time>2022-06-06T07:36:21.000Z</time>
      </trkpt>
      <trkpt lat="49.81473" lon="4.79133">
        <ele>204</ele>
        <time>2022-06-06T07:36:22.000Z</time>
      </trkpt>
      <trkpt lat="49.81474" lon="4.79124">
        <ele>203</ele>
        <time>2022-06-06T07:36:23.000Z</time>
      </trkpt>
      <trkpt lat="49.81475" lon="4.79114">
        <ele>203</ele>
        <time>2022-06-06T07:36:24.000Z</time>
      </trkpt>
      <trkpt lat="49.81477" lon="4.79104">
        <ele>203</ele>
        <time>2022-06-06T07:36:25.000Z</time>
      </trkpt>
      <trkpt lat="49.81479" lon="4.79095">
        <ele>202</ele>
        <time>2022-06-06T07:36:26.000Z</time>
      </trkpt>
      <trkpt lat="49.81481" lon="4.79086">
        <ele>202</ele>
        <time>2022-06-06T07:36:27.000Z</time>
      </trkpt>
      <trkpt lat="49.81483" lon="4.7908">
        <ele>202</ele>
        <time>2022-06-06T07:36:28.000Z</time>
      </trkpt>
      <trkpt lat="49.81484" lon="4.79074">
        <ele>202</ele>
        <time>2022-06-06T07:36:29.000Z</time>
      </trkpt>
      <trkpt lat="49.81485" lon="4.79069">
        <ele>201</ele>
        <time>2022-06-06T07:36:30.000Z</time>
      </trkpt>
      <trkpt lat="49.81486" lon="4.79064">
        <ele>201</ele>
        <time>2022-06-06T07:36:31.000Z</time>
      </trkpt>
      <trkpt lat="49.81487" lon="4.79057">
        <ele>201</ele>
        <time>2022-06-06T07:36:32.000Z</time>
      </trkpt>
      <trkpt lat="49.81489" lon="4.79051">
        <ele>201</ele>
        <time>2022-06-06T07:36:33.000Z</time>
      </trkpt>
      <trkpt lat="49.81489" lon="4.79044">
        <ele>201</ele>
        <time>2022-06-06T07:36:34.000Z</time>
      </trkpt>
      <trkpt lat="49.8149" lon="4.79038">
        <ele>201</ele>
        <time>2022-06-06T07:36:35.000Z</time>
      </trkpt>
      <trkpt lat="49.81491" lon="4.79031">
        <ele>201</ele>
        <time>2022-06-06T07:36:36.000Z</time>
      </trkpt>
      <trkpt lat="49.81491" lon="4.79024">
        <ele>201</ele>
        <time>2022-06-06T07:36:37.000Z</time>
      </trkpt>
      <trkpt lat="49.81492" lon="4.79017">
        <ele>201</ele>
        <time>2022-06-06T07:36:38.000Z</time>
      </trkpt>
      <trkpt lat="49.81494" lon="4.7901">
        <ele>201</ele>
        <time>2022-06-06T07:36:39.000Z</time>
      </trkpt>
      <trkpt lat="49.81496" lon="4.79003">
        <ele>201</ele>
        <time>2022-06-06T07:36:40.000Z</time>
      </trkpt>
      <trkpt lat="49.81497" lon="4.78995">
        <ele>201</ele>
        <time>2022-06-06T07:36:41.000Z</time>
      </trkpt>
      <trkpt lat="49.815" lon="4.78987">
        <ele>201</ele>
        <time>2022-06-06T07:36:42.000Z</time>
      </trkpt>
      <trkpt lat="49.81501" lon="4.7898">
        <ele>201</ele>
        <time>2022-06-06T07:36:43.000Z</time>
      </trkpt>
      <trkpt lat="49.81503" lon="4.78972">
        <ele>200</ele>
        <time>2022-06-06T07:36:44.000Z</time>
      </trkpt>
      <trkpt lat="49.81504" lon="4.78965">
        <ele>200</ele>
        <time>2022-06-06T07:36:45.000Z</time>
      </trkpt>
      <trkpt lat="49.81505" lon="4.78958">
        <ele>200</ele>
        <time>2022-06-06T07:36:46.000Z</time>
      </trkpt>
      <trkpt lat="49.81506" lon="4.78952">
        <ele>200</ele>
        <time>2022-06-06T07:36:47.000Z</time>
      </trkpt>
      <trkpt lat="49.81507" lon="4.78944">
        <ele>200</ele>
        <time>2022-06-06T07:36:48.000Z</time>
      </trkpt>
      <trkpt lat="49.81508" lon="4.78935">
        <ele>200</ele>
        <time>2022-06-06T07:36:49.000Z</time>
      </trkpt>
      <trkpt lat="49.81508" lon="4.78927">
        <ele>200</ele>
        <time>2022-06-06T07:36:50.000Z</time>
      </trkpt>
      <trkpt lat="49.81509" lon="4.78921">
        <ele>200</ele>
        <time>2022-06-06T07:36:51.000Z</time>
      </trkpt>
      <trkpt lat="49.8151" lon="4.78917">
        <ele>199</ele>
        <time>2022-06-06T07:36:52.000Z</time>
      </trkpt>
      <trkpt lat="49.81511" lon="4.78913">
        <ele>199</ele>
        <time>2022-06-06T07:36:53.000Z</time>
      </trkpt>
      <trkpt lat="49.81513" lon="4.78908">
        <ele>199</ele>
        <time>2022-06-06T07:36:54.000Z</time>
      </trkpt>
      <trkpt lat="49.81513" lon="4.78902">
        <ele>199</ele>
        <time>2022-06-06T07:36:55.000Z</time>
      </trkpt>
      <trkpt lat="49.81514" lon="4.78896">
        <ele>199</ele>
        <time>2022-06-06T07:36:56.000Z</time>
      </trkpt>
      <trkpt lat="49.81516" lon="4.7889">
        <ele>198</ele>
        <time>2022-06-06T07:36:57.000Z</time>
      </trkpt>
      <trkpt lat="49.81518" lon="4.78883">
        <ele>198</ele>
        <time>2022-06-06T07:36:58.000Z</time>
      </trkpt>
      <trkpt lat="49.8152" lon="4.78876">
        <ele>198</ele>
        <time>2022-06-06T07:36:59.000Z</time>
      </trkpt>
      <trkpt lat="49.81522" lon="4.78868">
        <ele>198</ele>
        <time>2022-06-06T07:37:00.000Z</time>
      </trkpt>
      <trkpt lat="49.81524" lon="4.7886">
        <ele>198</ele>
        <time>2022-06-06T07:37:01.000Z</time>
      </trkpt>
      <trkpt lat="49.81526" lon="4.78852">
        <ele>198</ele>
        <time>2022-06-06T07:37:02.000Z</time>
      </trkpt>
      <trkpt lat="49.81528" lon="4.78843">
        <ele>198</ele>
        <time>2022-06-06T07:37:03.000Z</time>
      </trkpt>
      <trkpt lat="49.8153" lon="4.78835">
        <ele>198</ele>
        <time>2022-06-06T07:37:04.000Z</time>
      </trkpt>
      <trkpt lat="49.81532" lon="4.78826">
        <ele>198</ele>
        <time>2022-06-06T07:37:05.000Z</time>
      </trkpt>
      <trkpt lat="49.81534" lon="4.78818">
        <ele>198</ele>
        <time>2022-06-06T07:37:06.000Z</time>
      </trkpt>
      <trkpt lat="49.81537" lon="4.7881">
        <ele>198</ele>
        <time>2022-06-06T07:37:07.000Z</time>
      </trkpt>
      <trkpt lat="49.8154" lon="4.78802">
        <ele>198</ele>
        <time>2022-06-06T07:37:08.000Z</time>
      </trkpt>
      <trkpt lat="49.81542" lon="4.78794">
        <ele>197</ele>
        <time>2022-06-06T07:37:09.000Z</time>
      </trkpt>
      <trkpt lat="49.81544" lon="4.78787">
        <ele>197</ele>
        <time>2022-06-06T07:37:10.000Z</time>
      </trkpt>
      <trkpt lat="49.81546" lon="4.7878">
        <ele>197</ele>
        <time>2022-06-06T07:37:11.000Z</time>
      </trkpt>
      <trkpt lat="49.81548" lon="4.78774">
        <ele>197</ele>
        <time>2022-06-06T07:37:12.000Z</time>
      </trkpt>
      <trkpt lat="49.81549" lon="4.78769">
        <ele>197</ele>
        <time>2022-06-06T07:37:13.000Z</time>
      </trkpt>
      <trkpt lat="49.81551" lon="4.78763">
        <ele>197</ele>
        <time>2022-06-06T07:37:14.000Z</time>
      </trkpt>
      <trkpt lat="49.81552" lon="4.78758">
        <ele>197</ele>
        <time>2022-06-06T07:37:15.000Z</time>
      </trkpt>
      <trkpt lat="49.81554" lon="4.78752">
        <ele>196</ele>
        <time>2022-06-06T07:37:16.000Z</time>
      </trkpt>
      <trkpt lat="49.81555" lon="4.78747">
        <ele>196</ele>
        <time>2022-06-06T07:37:17.000Z</time>
      </trkpt>
      <trkpt lat="49.81557" lon="4.78742">
        <ele>196</ele>
        <time>2022-06-06T07:37:18.000Z</time>
      </trkpt>
      <trkpt lat="49.81559" lon="4.78737">
        <ele>196</ele>
        <time>2022-06-06T07:37:19.000Z</time>
      </trkpt>
      <trkpt lat="49.81561" lon="4.78734">
        <ele>196</ele>
        <time>2022-06-06T07:37:20.000Z</time>
      </trkpt>
      <trkpt lat="49.81563" lon="4.78731">
        <ele>196</ele>
        <time>2022-06-06T07:37:21.000Z</time>
      </trkpt>
      <trkpt lat="49.81564" lon="4.7873">
        <ele>196</ele>
        <time>2022-06-06T07:37:22.000Z</time>
      </trkpt>
      <trkpt lat="49.81565" lon="4.78727">
        <ele>196</ele>
        <time>2022-06-06T07:37:23.000Z</time>
      </trkpt>
      <trkpt lat="49.81566" lon="4.78724">
        <ele>195</ele>
        <time>2022-06-06T07:37:24.000Z</time>
      </trkpt>
      <trkpt lat="49.81568" lon="4.78721">
        <ele>195</ele>
        <time>2022-06-06T07:37:25.000Z</time>
      </trkpt>
      <trkpt lat="49.81569" lon="4.78717">
        <ele>195</ele>
        <time>2022-06-06T07:37:26.000Z</time>
      </trkpt>
      <trkpt lat="49.81571" lon="4.78714">
        <ele>195</ele>
        <time>2022-06-06T07:37:27.000Z</time>
      </trkpt>
      <trkpt lat="49.81573" lon="4.78711">
        <ele>195</ele>
        <time>2022-06-06T07:37:28.000Z</time>
      </trkpt>
      <trkpt lat="49.81574" lon="4.78709">
        <ele>195</ele>
        <time>2022-06-06T07:37:29.000Z</time>
      </trkpt>
      <trkpt lat="49.81575" lon="4.78705">
        <ele>195</ele>
        <time>2022-06-06T07:37:30.000Z</time>
      </trkpt>
      <trkpt lat="49.81577" lon="4.78702">
        <ele>195</ele>
        <time>2022-06-06T07:37:31.000Z</time>
      </trkpt>
      <trkpt lat="49.81578" lon="4.78698">
        <ele>195</ele>
        <time>2022-06-06T07:37:32.000Z</time>
      </trkpt>
      <trkpt lat="49.8158" lon="4.78696">
        <ele>195</ele>
        <time>2022-06-06T07:37:33.000Z</time>
      </trkpt>
      <trkpt lat="49.81582" lon="4.78692">
        <ele>195</ele>
        <time>2022-06-06T07:37:34.000Z</time>
      </trkpt>
      <trkpt lat="49.81583" lon="4.78689">
        <ele>195</ele>
        <time>2022-06-06T07:37:35.000Z</time>
      </trkpt>
      <trkpt lat="49.81585" lon="4.78684">
        <ele>195</ele>
        <time>2022-06-06T07:37:36.000Z</time>
      </trkpt>
      <trkpt lat="49.81587" lon="4.78681">
        <ele>195</ele>
        <time>2022-06-06T07:37:37.000Z</time>
      </trkpt>
      <trkpt lat="49.81589" lon="4.78679">
        <ele>195</ele>
        <time>2022-06-06T07:37:38.000Z</time>
      </trkpt>
      <trkpt lat="49.81591" lon="4.78678">
        <ele>195</ele>
        <time>2022-06-06T07:37:39.000Z</time>
      </trkpt>
      <trkpt lat="49.81592" lon="4.78677">
        <ele>195</ele>
        <time>2022-06-06T07:37:40.000Z</time>
      </trkpt>
      <trkpt lat="49.81593" lon="4.78676">
        <ele>195</ele>
        <time>2022-06-06T07:37:41.000Z</time>
      </trkpt>
      <trkpt lat="49.81595" lon="4.78675">
        <ele>195</ele>
        <time>2022-06-06T07:37:42.000Z</time>
      </trkpt>
      <trkpt lat="49.81598" lon="4.78674">
        <ele>195</ele>
        <time>2022-06-06T07:37:43.000Z</time>
      </trkpt>
      <trkpt lat="49.816" lon="4.78674">
        <ele>195</ele>
        <time>2022-06-06T07:37:44.000Z</time>
      </trkpt>
      <trkpt lat="49.81603" lon="4.78673">
        <ele>195</ele>
        <time>2022-06-06T07:37:45.000Z</time>
      </trkpt>
      <trkpt lat="49.81606" lon="4.78673">
        <ele>195</ele>
        <time>2022-06-06T07:37:46.000Z</time>
      </trkpt>
      <trkpt lat="49.81609" lon="4.78674">
        <ele>195</ele>
        <time>2022-06-06T07:37:47.000Z</time>
      </trkpt>
      <trkpt lat="49.81612" lon="4.78675">
        <ele>195</ele>
        <time>2022-06-06T07:37:48.000Z</time>
      </trkpt>
      <trkpt lat="49.81614" lon="4.78676">
        <ele>195</ele>
        <time>2022-06-06T07:37:49.000Z</time>
      </trkpt>
      <trkpt lat="49.81617" lon="4.78678">
        <ele>195</ele>
        <time>2022-06-06T07:37:50.000Z</time>
      </trkpt>
      <trkpt lat="49.81619" lon="4.7868">
        <ele>195</ele>
        <time>2022-06-06T07:37:51.000Z</time>
      </trkpt>
      <trkpt lat="49.81621" lon="4.78681">
        <ele>194</ele>
        <time>2022-06-06T07:37:52.000Z</time>
      </trkpt>
      <trkpt lat="49.81624" lon="4.78682">
        <ele>194</ele>
        <time>2022-06-06T07:37:53.000Z</time>
      </trkpt>
      <trkpt lat="49.81628" lon="4.78682">
        <ele>194</ele>
        <time>2022-06-06T07:37:54.000Z</time>
      </trkpt>
      <trkpt lat="49.81632" lon="4.78683">
        <ele>194</ele>
        <time>2022-06-06T07:37:55.000Z</time>
      </trkpt>
      <trkpt lat="49.81636" lon="4.78684">
        <ele>194</ele>
        <time>2022-06-06T07:37:56.000Z</time>
      </trkpt>
      <trkpt lat="49.81639" lon="4.78685">
        <ele>194</ele>
        <time>2022-06-06T07:37:57.000Z</time>
      </trkpt>
      <trkpt lat="49.81642" lon="4.78687">
        <ele>194</ele>
        <time>2022-06-06T07:37:58.000Z</time>
      </trkpt>
      <trkpt lat="49.81645" lon="4.78688">
        <ele>194</ele>
        <time>2022-06-06T07:37:59.000Z</time>
      </trkpt>
      <trkpt lat="49.81648" lon="4.78688">
        <ele>194</ele>
        <time>2022-06-06T07:38:00.000Z</time>
      </trkpt>
      <trkpt lat="49.81652" lon="4.7869">
        <ele>194</ele>
        <time>2022-06-06T07:38:01.000Z</time>
      </trkpt>
      <trkpt lat="49.81655" lon="4.78692">
        <ele>194</ele>
        <time>2022-06-06T07:38:02.000Z</time>
      </trkpt>
      <trkpt lat="49.81658" lon="4.78693">
        <ele>194</ele>
        <time>2022-06-06T07:38:03.000Z</time>
      </trkpt>
      <trkpt lat="49.81661" lon="4.78694">
        <ele>193</ele>
        <time>2022-06-06T07:38:04.000Z</time>
      </trkpt>
      <trkpt lat="49.81664" lon="4.78696">
        <ele>193</ele>
        <time>2022-06-06T07:38:05.000Z</time>
      </trkpt>
      <trkpt lat="49.81667" lon="4.78698">
        <ele>193</ele>
        <time>2022-06-06T07:38:06.000Z</time>
      </trkpt>
      <trkpt lat="49.81669" lon="4.78699">
        <ele>193</ele>
        <time>2022-06-06T07:38:07.000Z</time>
      </trkpt>
      <trkpt lat="49.81672" lon="4.787">
        <ele>193</ele>
        <time>2022-06-06T07:38:08.000Z</time>
      </trkpt>
      <trkpt lat="49.81675" lon="4.78701">
        <ele>193</ele>
        <time>2022-06-06T07:38:09.000Z</time>
      </trkpt>
      <trkpt lat="49.81678" lon="4.78703">
        <ele>193</ele>
        <time>2022-06-06T07:38:10.000Z</time>
      </trkpt>
      <trkpt lat="49.81681" lon="4.78704">
        <ele>193</ele>
        <time>2022-06-06T07:38:11.000Z</time>
      </trkpt>
      <trkpt lat="49.81684" lon="4.78707">
        <ele>193</ele>
        <time>2022-06-06T07:38:12.000Z</time>
      </trkpt>
      <trkpt lat="49.81687" lon="4.78708">
        <ele>193</ele>
        <time>2022-06-06T07:38:13.000Z</time>
      </trkpt>
      <trkpt lat="49.81689" lon="4.78709">
        <ele>193</ele>
        <time>2022-06-06T07:38:14.000Z</time>
      </trkpt>
      <trkpt lat="49.81692" lon="4.78712">
        <ele>193</ele>
        <time>2022-06-06T07:38:15.000Z</time>
      </trkpt>
      <trkpt lat="49.81695" lon="4.78714">
        <ele>193</ele>
        <time>2022-06-06T07:38:16.000Z</time>
      </trkpt>
      <trkpt lat="49.81698" lon="4.78716">
        <ele>193</ele>
        <time>2022-06-06T07:38:17.000Z</time>
      </trkpt>
      <trkpt lat="49.81702" lon="4.78717">
        <ele>193</ele>
        <time>2022-06-06T07:38:18.000Z</time>
      </trkpt>
      <trkpt lat="49.81706" lon="4.78719">
        <ele>193</ele>
        <time>2022-06-06T07:38:19.000Z</time>
      </trkpt>
      <trkpt lat="49.81709" lon="4.78721">
        <ele>193</ele>
        <time>2022-06-06T07:38:20.000Z</time>
      </trkpt>
      <trkpt lat="49.81712" lon="4.78723">
        <ele>192</ele>
        <time>2022-06-06T07:38:21.000Z</time>
      </trkpt>
      <trkpt lat="49.81716" lon="4.78726">
        <ele>192</ele>
        <time>2022-06-06T07:38:22.000Z</time>
      </trkpt>
      <trkpt lat="49.81719" lon="4.78729">
        <ele>192</ele>
        <time>2022-06-06T07:38:23.000Z</time>
      </trkpt>
      <trkpt lat="49.81721" lon="4.78732">
        <ele>192</ele>
        <time>2022-06-06T07:38:24.000Z</time>
      </trkpt>
      <trkpt lat="49.81724" lon="4.78734">
        <ele>192</ele>
        <time>2022-06-06T07:38:25.000Z</time>
      </trkpt>
      <trkpt lat="49.81727" lon="4.78736">
        <ele>192</ele>
        <time>2022-06-06T07:38:26.000Z</time>
      </trkpt>
      <trkpt lat="49.81731" lon="4.78738">
        <ele>192</ele>
        <time>2022-06-06T07:38:27.000Z</time>
      </trkpt>
      <trkpt lat="49.81734" lon="4.78741">
        <ele>192</ele>
        <time>2022-06-06T07:38:28.000Z</time>
      </trkpt>
      <trkpt lat="49.81737" lon="4.78744">
        <ele>192</ele>
        <time>2022-06-06T07:38:29.000Z</time>
      </trkpt>
      <trkpt lat="49.8174" lon="4.78747">
        <ele>192</ele>
        <time>2022-06-06T07:38:30.000Z</time>
      </trkpt>
      <trkpt lat="49.81744" lon="4.78751">
        <ele>192</ele>
        <time>2022-06-06T07:38:31.000Z</time>
      </trkpt>
      <trkpt lat="49.81746" lon="4.78753">
        <ele>192</ele>
        <time>2022-06-06T07:38:32.000Z</time>
      </trkpt>
      <trkpt lat="49.8175" lon="4.78756">
        <ele>191</ele>
        <time>2022-06-06T07:38:33.000Z</time>
      </trkpt>
      <trkpt lat="49.81753" lon="4.78758">
        <ele>191</ele>
        <time>2022-06-06T07:38:34.000Z</time>
      </trkpt>
      <trkpt lat="49.81756" lon="4.78759">
        <ele>191</ele>
        <time>2022-06-06T07:38:35.000Z</time>
      </trkpt>
      <trkpt lat="49.81759" lon="4.78759">
        <ele>191</ele>
        <time>2022-06-06T07:38:36.000Z</time>
      </trkpt>
      <trkpt lat="49.81762" lon="4.78758">
        <ele>191</ele>
        <time>2022-06-06T07:38:37.000Z</time>
      </trkpt>
      <trkpt lat="49.81765" lon="4.78757">
        <ele>191</ele>
        <time>2022-06-06T07:38:38.000Z</time>
      </trkpt>
      <trkpt lat="49.81767" lon="4.78755">
        <ele>190</ele>
        <time>2022-06-06T07:38:39.000Z</time>
      </trkpt>
      <trkpt lat="49.8177" lon="4.78753">
        <ele>190</ele>
        <time>2022-06-06T07:38:40.000Z</time>
      </trkpt>
      <trkpt lat="49.81773" lon="4.7875">
        <ele>190</ele>
        <time>2022-06-06T07:38:41.000Z</time>
      </trkpt>
      <trkpt lat="49.81774" lon="4.78748">
        <ele>190</ele>
        <time>2022-06-06T07:38:42.000Z</time>
      </trkpt>
      <trkpt lat="49.81773" lon="4.78746">
        <ele>190</ele>
        <time>2022-06-06T07:38:43.000Z</time>
      </trkpt>
      <trkpt lat="49.81771" lon="4.78743">
        <ele>190</ele>
        <time>2022-06-06T07:38:44.000Z</time>
      </trkpt>
      <trkpt lat="49.81769" lon="4.78741">
        <ele>190</ele>
        <time>2022-06-06T07:38:45.000Z</time>
      </trkpt>
      <trkpt lat="49.81767" lon="4.78738">
        <ele>190</ele>
        <time>2022-06-06T07:38:46.000Z</time>
      </trkpt>
      <trkpt lat="49.81764" lon="4.78735">
        <ele>190</ele>
        <time>2022-06-06T07:38:47.000Z</time>
      </trkpt>
      <trkpt lat="49.81761" lon="4.78732">
        <ele>190</ele>
        <time>2022-06-06T07:38:48.000Z</time>
      </trkpt>
      <trkpt lat="49.81757" lon="4.78728">
        <ele>190</ele>
        <time>2022-06-06T07:38:49.000Z</time>
      </trkpt>
      <trkpt lat="49.81753" lon="4.78724">
        <ele>190</ele>
        <time>2022-06-06T07:38:50.000Z</time>
      </trkpt>
      <trkpt lat="49.81749" lon="4.7872">
        <ele>190</ele>
        <time>2022-06-06T07:38:51.000Z</time>
      </trkpt>
      <trkpt lat="49.81745" lon="4.78716">
        <ele>190</ele>
        <time>2022-06-06T07:38:52.000Z</time>
      </trkpt>
      <trkpt lat="49.81741" lon="4.78712">
        <ele>189</ele>
        <time>2022-06-06T07:38:53.000Z</time>
      </trkpt>
      <trkpt lat="49.81736" lon="4.78708">
        <ele>189</ele>
        <time>2022-06-06T07:38:54.000Z</time>
      </trkpt>
      <trkpt lat="49.81732" lon="4.78703">
        <ele>189</ele>
        <time>2022-06-06T07:38:55.000Z</time>
      </trkpt>
      <trkpt lat="49.81728" lon="4.78699">
        <ele>189</ele>
        <time>2022-06-06T07:38:56.000Z</time>
      </trkpt>
      <trkpt lat="49.81723" lon="4.78695">
        <ele>189</ele>
        <time>2022-06-06T07:38:57.000Z</time>
      </trkpt>
      <trkpt lat="49.81719" lon="4.78691">
        <ele>189</ele>
        <time>2022-06-06T07:38:58.000Z</time>
      </trkpt>
      <trkpt lat="49.81713" lon="4.78686">
        <ele>189</ele>
        <time>2022-06-06T07:38:59.000Z</time>
      </trkpt>
      <trkpt lat="49.81708" lon="4.78682">
        <ele>189</ele>
        <time>2022-06-06T07:39:00.000Z</time>
      </trkpt>
      <trkpt lat="49.81703" lon="4.78677">
        <ele>188</ele>
        <time>2022-06-06T07:39:01.000Z</time>
      </trkpt>
      <trkpt lat="49.81698" lon="4.78673">
        <ele>188</ele>
        <time>2022-06-06T07:39:02.000Z</time>
      </trkpt>
      <trkpt lat="49.81692" lon="4.78669">
        <ele>188</ele>
        <time>2022-06-06T07:39:03.000Z</time>
      </trkpt>
      <trkpt lat="49.81687" lon="4.78665">
        <ele>187</ele>
        <time>2022-06-06T07:39:04.000Z</time>
      </trkpt>
      <trkpt lat="49.81682" lon="4.7866">
        <ele>187</ele>
        <time>2022-06-06T07:39:05.000Z</time>
      </trkpt>
      <trkpt lat="49.81677" lon="4.78656">
        <ele>186</ele>
        <time>2022-06-06T07:39:06.000Z</time>
      </trkpt>
      <trkpt lat="49.81671" lon="4.78653">
        <ele>186</ele>
        <time>2022-06-06T07:39:07.000Z</time>
      </trkpt>
      <trkpt lat="49.81665" lon="4.78649">
        <ele>186</ele>
        <time>2022-06-06T07:39:08.000Z</time>
      </trkpt>
      <trkpt lat="49.81659" lon="4.78646">
        <ele>186</ele>
        <time>2022-06-06T07:39:09.000Z</time>
      </trkpt>
      <trkpt lat="49.81652" lon="4.78643">
        <ele>185</ele>
        <time>2022-06-06T07:39:10.000Z</time>
      </trkpt>
      <trkpt lat="49.81646" lon="4.78639">
        <ele>185</ele>
        <time>2022-06-06T07:39:11.000Z</time>
      </trkpt>
      <trkpt lat="49.8164" lon="4.78636">
        <ele>185</ele>
        <time>2022-06-06T07:39:12.000Z</time>
      </trkpt>
      <trkpt lat="49.81634" lon="4.78634">
        <ele>185</ele>
        <time>2022-06-06T07:39:13.000Z</time>
      </trkpt>
      <trkpt lat="49.81628" lon="4.78631">
        <ele>184</ele>
        <time>2022-06-06T07:39:14.000Z</time>
      </trkpt>
      <trkpt lat="49.81623" lon="4.78627">
        <ele>184</ele>
        <time>2022-06-06T07:39:15.000Z</time>
      </trkpt>
      <trkpt lat="49.81618" lon="4.78624">
        <ele>184</ele>
        <time>2022-06-06T07:39:16.000Z</time>
      </trkpt>
      <trkpt lat="49.81613" lon="4.78622">
        <ele>184</ele>
        <time>2022-06-06T07:39:17.000Z</time>
      </trkpt>
      <trkpt lat="49.81607" lon="4.78619">
        <ele>184</ele>
        <time>2022-06-06T07:39:18.000Z</time>
      </trkpt>
      <trkpt lat="49.81601" lon="4.78617">
        <ele>183</ele>
        <time>2022-06-06T07:39:19.000Z</time>
      </trkpt>
      <trkpt lat="49.81595" lon="4.78615">
        <ele>183</ele>
        <time>2022-06-06T07:39:20.000Z</time>
      </trkpt>
      <trkpt lat="49.81589" lon="4.78615">
        <ele>183</ele>
        <time>2022-06-06T07:39:21.000Z</time>
      </trkpt>
      <trkpt lat="49.81583" lon="4.78616">
        <ele>183</ele>
        <time>2022-06-06T07:39:22.000Z</time>
      </trkpt>
      <trkpt lat="49.81577" lon="4.78619">
        <ele>183</ele>
        <time>2022-06-06T07:39:23.000Z</time>
      </trkpt>
      <trkpt lat="49.81572" lon="4.78624">
        <ele>183</ele>
        <time>2022-06-06T07:39:24.000Z</time>
      </trkpt>
      <trkpt lat="49.81567" lon="4.78629">
        <ele>182</ele>
        <time>2022-06-06T07:39:25.000Z</time>
      </trkpt>
      <trkpt lat="49.81561" lon="4.78634">
        <ele>182</ele>
        <time>2022-06-06T07:39:26.000Z</time>
      </trkpt>
      <trkpt lat="49.81555" lon="4.78638">
        <ele>182</ele>
        <time>2022-06-06T07:39:27.000Z</time>
      </trkpt>
      <trkpt lat="49.8155" lon="4.78643">
        <ele>182</ele>
        <time>2022-06-06T07:39:28.000Z</time>
      </trkpt>
      <trkpt lat="49.81544" lon="4.78648">
        <ele>182</ele>
        <time>2022-06-06T07:39:29.000Z</time>
      </trkpt>
      <trkpt lat="49.81539" lon="4.78653">
        <ele>182</ele>
        <time>2022-06-06T07:39:30.000Z</time>
      </trkpt>
      <trkpt lat="49.81534" lon="4.78657">
        <ele>182</ele>
        <time>2022-06-06T07:39:31.000Z</time>
      </trkpt>
      <trkpt lat="49.81529" lon="4.78662">
        <ele>182</ele>
        <time>2022-06-06T07:39:32.000Z</time>
      </trkpt>
      <trkpt lat="49.81524" lon="4.78666">
        <ele>182</ele>
        <time>2022-06-06T07:39:33.000Z</time>
      </trkpt>
      <trkpt lat="49.81518" lon="4.78671">
        <ele>182</ele>
        <time>2022-06-06T07:39:34.000Z</time>
      </trkpt>
      <trkpt lat="49.81513" lon="4.78677">
        <ele>181</ele>
        <time>2022-06-06T07:39:35.000Z</time>
      </trkpt>
      <trkpt lat="49.81509" lon="4.78682">
        <ele>181</ele>
        <time>2022-06-06T07:39:36.000Z</time>
      </trkpt>
      <trkpt lat="49.81504" lon="4.78687">
        <ele>181</ele>
        <time>2022-06-06T07:39:37.000Z</time>
      </trkpt>
      <trkpt lat="49.815" lon="4.78691">
        <ele>181</ele>
        <time>2022-06-06T07:39:38.000Z</time>
      </trkpt>
      <trkpt lat="49.81495" lon="4.78693">
        <ele>181</ele>
        <time>2022-06-06T07:39:39.000Z</time>
      </trkpt>
      <trkpt lat="49.81491" lon="4.78691">
        <ele>181</ele>
        <time>2022-06-06T07:39:40.000Z</time>
      </trkpt>
      <trkpt lat="49.81486" lon="4.78687">
        <ele>180</ele>
        <time>2022-06-06T07:39:41.000Z</time>
      </trkpt>
      <trkpt lat="49.81482" lon="4.78679">
        <ele>180</ele>
        <time>2022-06-06T07:39:42.000Z</time>
      </trkpt>
      <trkpt lat="49.81478" lon="4.7867">
        <ele>180</ele>
        <time>2022-06-06T07:39:43.000Z</time>
      </trkpt>
      <trkpt lat="49.81475" lon="4.78661">
        <ele>180</ele>
        <time>2022-06-06T07:39:44.000Z</time>
      </trkpt>
      <trkpt lat="49.81473" lon="4.78651">
        <ele>179</ele>
        <time>2022-06-06T07:39:45.000Z</time>
      </trkpt>
      <trkpt lat="49.81472" lon="4.78639">
        <ele>179</ele>
        <time>2022-06-06T07:39:46.000Z</time>
      </trkpt>
      <trkpt lat="49.81473" lon="4.78629">
        <ele>179</ele>
        <time>2022-06-06T07:39:47.000Z</time>
      </trkpt>
      <trkpt lat="49.81474" lon="4.78618">
        <ele>178</ele>
        <time>2022-06-06T07:39:48.000Z</time>
      </trkpt>
      <trkpt lat="49.81477" lon="4.78607">
        <ele>178</ele>
        <time>2022-06-06T07:39:49.000Z</time>
      </trkpt>
      <trkpt lat="49.8148" lon="4.78596">
        <ele>178</ele>
        <time>2022-06-06T07:39:50.000Z</time>
      </trkpt>
      <trkpt lat="49.81483" lon="4.78586">
        <ele>177</ele>
        <time>2022-06-06T07:39:51.000Z</time>
      </trkpt>
      <trkpt lat="49.81487" lon="4.78576">
        <ele>177</ele>
        <time>2022-06-06T07:39:52.000Z</time>
      </trkpt>
      <trkpt lat="49.81491" lon="4.78566">
        <ele>177</ele>
        <time>2022-06-06T07:39:53.000Z</time>
      </trkpt>
      <trkpt lat="49.81495" lon="4.78556">
        <ele>176</ele>
        <time>2022-06-06T07:39:54.000Z</time>
      </trkpt>
      <trkpt lat="49.81499" lon="4.78547">
        <ele>176</ele>
        <time>2022-06-06T07:39:55.000Z</time>
      </trkpt>
      <trkpt lat="49.81504" lon="4.78538">
        <ele>176</ele>
        <time>2022-06-06T07:39:56.000Z</time>
      </trkpt>
      <trkpt lat="49.81509" lon="4.7853">
        <ele>175</ele>
        <time>2022-06-06T07:39:57.000Z</time>
      </trkpt>
      <trkpt lat="49.81515" lon="4.78522">
        <ele>175</ele>
        <time>2022-06-06T07:39:58.000Z</time>
      </trkpt>
      <trkpt lat="49.8152" lon="4.78514">
        <ele>174</ele>
        <time>2022-06-06T07:39:59.000Z</time>
      </trkpt>
      <trkpt lat="49.81526" lon="4.78507">
        <ele>174</ele>
        <time>2022-06-06T07:40:00.000Z</time>
      </trkpt>
      <trkpt lat="49.8153" lon="4.78499">
        <ele>173</ele>
        <time>2022-06-06T07:40:01.000Z</time>
      </trkpt>
      <trkpt lat="49.81535" lon="4.78491">
        <ele>173</ele>
        <time>2022-06-06T07:40:02.000Z</time>
      </trkpt>
      <trkpt lat="49.81539" lon="4.78483">
        <ele>172</ele>
        <time>2022-06-06T07:40:03.000Z</time>
      </trkpt>
      <trkpt lat="49.81542" lon="4.78475">
        <ele>172</ele>
        <time>2022-06-06T07:40:04.000Z</time>
      </trkpt>
      <trkpt lat="49.81544" lon="4.78467">
        <ele>171</ele>
        <time>2022-06-06T07:40:05.000Z</time>
      </trkpt>
      <trkpt lat="49.81544" lon="4.78458">
        <ele>171</ele>
        <time>2022-06-06T07:40:06.000Z</time>
      </trkpt>
      <trkpt lat="49.81545" lon="4.78449">
        <ele>171</ele>
        <time>2022-06-06T07:40:07.000Z</time>
      </trkpt>
      <trkpt lat="49.81545" lon="4.7844">
        <ele>170</ele>
        <time>2022-06-06T07:40:08.000Z</time>
      </trkpt>
      <trkpt lat="49.81545" lon="4.78431">
        <ele>170</ele>
        <time>2022-06-06T07:40:09.000Z</time>
      </trkpt>
      <trkpt lat="49.81545" lon="4.78421">
        <ele>170</ele>
        <time>2022-06-06T07:40:10.000Z</time>
      </trkpt>
      <trkpt lat="49.81545" lon="4.78412">
        <ele>170</ele>
        <time>2022-06-06T07:40:11.000Z</time>
      </trkpt>
      <trkpt lat="49.81545" lon="4.78402">
        <ele>169</ele>
        <time>2022-06-06T07:40:12.000Z</time>
      </trkpt>
      <trkpt lat="49.81546" lon="4.78393">
        <ele>169</ele>
        <time>2022-06-06T07:40:13.000Z</time>
      </trkpt>
      <trkpt lat="49.81547" lon="4.78384">
        <ele>169</ele>
        <time>2022-06-06T07:40:14.000Z</time>
      </trkpt>
      <trkpt lat="49.81549" lon="4.78376">
        <ele>169</ele>
        <time>2022-06-06T07:40:15.000Z</time>
      </trkpt>
      <trkpt lat="49.81551" lon="4.78369">
        <ele>169</ele>
        <time>2022-06-06T07:40:16.000Z</time>
      </trkpt>
      <trkpt lat="49.81553" lon="4.78362">
        <ele>168</ele>
        <time>2022-06-06T07:40:17.000Z</time>
      </trkpt>
      <trkpt lat="49.81554" lon="4.78355">
        <ele>168</ele>
        <time>2022-06-06T07:40:18.000Z</time>
      </trkpt>
      <trkpt lat="49.81555" lon="4.78348">
        <ele>168</ele>
        <time>2022-06-06T07:40:19.000Z</time>
      </trkpt>
      <trkpt lat="49.81556" lon="4.78341">
        <ele>168</ele>
        <time>2022-06-06T07:40:20.000Z</time>
      </trkpt>
      <trkpt lat="49.81558" lon="4.78336">
        <ele>168</ele>
        <time>2022-06-06T07:40:21.000Z</time>
      </trkpt>
      <trkpt lat="49.8156" lon="4.78332">
        <ele>168</ele>
        <time>2022-06-06T07:40:22.000Z</time>
      </trkpt>
      <trkpt lat="49.81562" lon="4.78329">
        <ele>168</ele>
        <time>2022-06-06T07:40:23.000Z</time>
      </trkpt>
      <trkpt lat="49.81565" lon="4.78325">
        <ele>169</ele>
        <time>2022-06-06T07:40:24.000Z</time>
      </trkpt>
      <trkpt lat="49.81568" lon="4.78321">
        <ele>169</ele>
        <time>2022-06-06T07:40:25.000Z</time>
      </trkpt>
      <trkpt lat="49.8157" lon="4.78318">
        <ele>169</ele>
        <time>2022-06-06T07:40:26.000Z</time>
      </trkpt>
      <trkpt lat="49.81572" lon="4.78315">
        <ele>169</ele>
        <time>2022-06-06T07:40:27.000Z</time>
      </trkpt>
      <trkpt lat="49.81574" lon="4.78311">
        <ele>169</ele>
        <time>2022-06-06T07:40:28.000Z</time>
      </trkpt>
      <trkpt lat="49.81575" lon="4.78306">
        <ele>169</ele>
        <time>2022-06-06T07:40:29.000Z</time>
      </trkpt>
      <trkpt lat="49.81577" lon="4.78301">
        <ele>169</ele>
        <time>2022-06-06T07:40:30.000Z</time>
      </trkpt>
      <trkpt lat="49.81578" lon="4.78297">
        <ele>169</ele>
        <time>2022-06-06T07:40:31.000Z</time>
      </trkpt>
      <trkpt lat="49.81579" lon="4.78294">
        <ele>169</ele>
        <time>2022-06-06T07:40:32.000Z</time>
      </trkpt>
      <trkpt lat="49.81581" lon="4.78291">
        <ele>169</ele>
        <time>2022-06-06T07:40:33.000Z</time>
      </trkpt>
      <trkpt lat="49.81582" lon="4.78289">
        <ele>169</ele>
        <time>2022-06-06T07:40:34.000Z</time>
      </trkpt>
      <trkpt lat="49.81584" lon="4.78289">
        <ele>169</ele>
        <time>2022-06-06T07:40:35.000Z</time>
      </trkpt>
      <trkpt lat="49.81585" lon="4.7829">
        <ele>169</ele>
        <time>2022-06-06T07:40:36.000Z</time>
      </trkpt>
      <trkpt lat="49.81586" lon="4.78292">
        <ele>169</ele>
        <time>2022-06-06T07:40:37.000Z</time>
      </trkpt>
      <trkpt lat="49.81586" lon="4.78294">
        <ele>169</ele>
        <time>2022-06-06T07:40:38.000Z</time>
      </trkpt>
      <trkpt lat="49.81587" lon="4.78297">
        <ele>169</ele>
        <time>2022-06-06T07:40:39.000Z</time>
      </trkpt>
      <trkpt lat="49.81587" lon="4.78299">
        <ele>169</ele>
        <time>2022-06-06T07:40:40.000Z</time>
      </trkpt>
      <trkpt lat="49.81586" lon="4.78302">
        <ele>169</ele>
        <time>2022-06-06T07:40:41.000Z</time>
      </trkpt>
      <trkpt lat="49.81586" lon="4.78305">
        <ele>169</ele>
        <time>2022-06-06T07:40:42.000Z</time>
      </trkpt>
      <trkpt lat="49.81586" lon="4.78309">
        <ele>169</ele>
        <time>2022-06-06T07:40:43.000Z</time>
      </trkpt>
      <trkpt lat="49.81584" lon="4.78312">
        <ele>169</ele>
        <time>2022-06-06T07:40:44.000Z</time>
      </trkpt>
      <trkpt lat="49.81582" lon="4.78314">
        <ele>169</ele>
        <time>2022-06-06T07:40:45.000Z</time>
      </trkpt>
      <trkpt lat="49.81579" lon="4.78315">
        <ele>169</ele>
        <time>2022-06-06T07:40:46.000Z</time>
      </trkpt>
      <trkpt lat="49.81577" lon="4.78316">
        <ele>169</ele>
        <time>2022-06-06T07:40:47.000Z</time>
      </trkpt>
      <trkpt lat="49.81575" lon="4.78317">
        <ele>169</ele>
        <time>2022-06-06T07:40:48.000Z</time>
      </trkpt>
      <trkpt lat="49.81573" lon="4.78319">
        <ele>169</ele>
        <time>2022-06-06T07:40:49.000Z</time>
      </trkpt>
      <trkpt lat="49.81571" lon="4.7832">
        <ele>169</ele>
        <time>2022-06-06T07:40:50.000Z</time>
      </trkpt>
      <trkpt lat="49.81569" lon="4.78321">
        <ele>169</ele>
        <time>2022-06-06T07:40:51.000Z</time>
      </trkpt>
      <trkpt lat="49.81568" lon="4.78323">
        <ele>169</ele>
        <time>2022-06-06T07:40:52.000Z</time>
      </trkpt>
      <trkpt lat="49.81568" lon="4.78324">
        <ele>169</ele>
        <time>2022-06-06T07:40:53.000Z</time>
      </trkpt>
      <trkpt lat="49.81568" lon="4.78324">
        <ele>169</ele>
        <time>2022-06-06T07:40:54.000Z</time>
      </trkpt>
      <trkpt lat="49.81568" lon="4.78323">
        <ele>169</ele>
        <time>2022-06-06T07:40:55.000Z</time>
      </trkpt>
      <trkpt lat="49.81569" lon="4.7832">
        <ele>169</ele>
        <time>2022-06-06T07:40:56.000Z</time>
      </trkpt>
      <trkpt lat="49.8157" lon="4.78317">
        <ele>169</ele>
        <time>2022-06-06T07:40:57.000Z</time>
      </trkpt>
      <trkpt lat="49.81572" lon="4.78313">
        <ele>169</ele>
        <time>2022-06-06T07:40:58.000Z</time>
      </trkpt>
      <trkpt lat="49.81573" lon="4.78308">
        <ele>169</ele>
        <time>2022-06-06T07:40:59.000Z</time>
      </trkpt>
      <trkpt lat="49.81574" lon="4.78304">
        <ele>169</ele>
        <time>2022-06-06T07:41:00.000Z</time>
      </trkpt>
      <trkpt lat="49.81576" lon="4.783">
        <ele>169</ele>
        <time>2022-06-06T07:41:01.000Z</time>
      </trkpt>
      <trkpt lat="49.81578" lon="4.78297">
        <ele>169</ele>
        <time>2022-06-06T07:41:02.000Z</time>
      </trkpt>
      <trkpt lat="49.81579" lon="4.78294">
        <ele>169</ele>
        <time>2022-06-06T07:41:03.000Z</time>
      </trkpt>
      <trkpt lat="49.81581" lon="4.78293">
        <ele>169</ele>
        <time>2022-06-06T07:41:04.000Z</time>
      </trkpt>
      <trkpt lat="49.81583" lon="4.78293">
        <ele>169</ele>
        <time>2022-06-06T07:41:05.000Z</time>
      </trkpt>
      <trkpt lat="49.81584" lon="4.78293">
        <ele>169</ele>
        <time>2022-06-06T07:41:06.000Z</time>
      </trkpt>
      <trkpt lat="49.81586" lon="4.78294">
        <ele>169</ele>
        <time>2022-06-06T07:41:07.000Z</time>
      </trkpt>
      <trkpt lat="49.81586" lon="4.78295">
        <ele>169</ele>
        <time>2022-06-06T07:41:08.000Z</time>
      </trkpt>
      <trkpt lat="49.81586" lon="4.78297">
        <ele>169</ele>
        <time>2022-06-06T07:41:09.000Z</time>
      </trkpt>
      <trkpt lat="49.81586" lon="4.783">
        <ele>169</ele>
        <time>2022-06-06T07:41:10.000Z</time>
      </trkpt>
      <trkpt lat="49.81586" lon="4.78303">
        <ele>169</ele>
        <time>2022-06-06T07:41:11.000Z</time>
      </trkpt>
      <trkpt lat="49.81586" lon="4.78306">
        <ele>169</ele>
        <time>2022-06-06T07:41:12.000Z</time>
      </trkpt>
      <trkpt lat="49.81586" lon="4.78309">
        <ele>169</ele>
        <time>2022-06-06T07:41:13.000Z</time>
      </trkpt>
      <trkpt lat="49.81586" lon="4.78312">
        <ele>169</ele>
        <time>2022-06-06T07:41:14.000Z</time>
      </trkpt>
      <trkpt lat="49.81588" lon="4.78315">
        <ele>169</ele>
        <time>2022-06-06T07:41:15.000Z</time>
      </trkpt>
      <trkpt lat="49.8159" lon="4.78318">
        <ele>170</ele>
        <time>2022-06-06T07:41:16.000Z</time>
      </trkpt>
      <trkpt lat="49.81591" lon="4.7832">
        <ele>170</ele>
        <time>2022-06-06T07:41:17.000Z</time>
      </trkpt>
      <trkpt lat="49.81593" lon="4.78322">
        <ele>170</ele>
        <time>2022-06-06T07:41:18.000Z</time>
      </trkpt>
      <trkpt lat="49.81595" lon="4.78322">
        <ele>170</ele>
        <time>2022-06-06T07:41:19.000Z</time>
      </trkpt>
      <trkpt lat="49.81597" lon="4.78321">
        <ele>171</ele>
        <time>2022-06-06T07:41:20.000Z</time>
      </trkpt>
      <trkpt lat="49.81599" lon="4.78319">
        <ele>171</ele>
        <time>2022-06-06T07:41:21.000Z</time>
      </trkpt>
      <trkpt lat="49.81601" lon="4.78316">
        <ele>171</ele>
        <time>2022-06-06T07:41:22.000Z</time>
      </trkpt>
      <trkpt lat="49.81602" lon="4.78314">
        <ele>171</ele>
        <time>2022-06-06T07:41:23.000Z</time>
      </trkpt>
      <trkpt lat="49.81603" lon="4.78313">
        <ele>171</ele>
        <time>2022-06-06T07:41:24.000Z</time>
      </trkpt>
      <trkpt lat="49.81605" lon="4.78312">
        <ele>171</ele>
        <time>2022-06-06T07:41:25.000Z</time>
      </trkpt>
      <trkpt lat="49.81606" lon="4.78313">
        <ele>172</ele>
        <time>2022-06-06T07:41:26.000Z</time>
      </trkpt>
      <trkpt lat="49.81607" lon="4.78312">
        <ele>172</ele>
        <time>2022-06-06T07:41:27.000Z</time>
      </trkpt>
      <trkpt lat="49.81608" lon="4.7831">
        <ele>172</ele>
        <time>2022-06-06T07:41:28.000Z</time>
      </trkpt>
      <trkpt lat="49.81608" lon="4.78309">
        <ele>172</ele>
        <time>2022-06-06T07:41:29.000Z</time>
      </trkpt>
      <trkpt lat="49.81608" lon="4.78309">
        <ele>173</ele>
        <time>2022-06-06T07:41:30.000Z</time>
      </trkpt>
      <trkpt lat="49.81607" lon="4.78309">
        <ele>173</ele>
        <time>2022-06-06T07:41:31.000Z</time>
      </trkpt>
      <trkpt lat="49.81606" lon="4.78311">
        <ele>173</ele>
        <time>2022-06-06T07:41:32.000Z</time>
      </trkpt>
      <trkpt lat="49.81605" lon="4.78315">
        <ele>173</ele>
        <time>2022-06-06T07:41:33.000Z</time>
      </trkpt>
      <trkpt lat="49.81603" lon="4.78319">
        <ele>173</ele>
        <time>2022-06-06T07:41:34.000Z</time>
      </trkpt>
      <trkpt lat="49.81601" lon="4.78324">
        <ele>173</ele>
        <time>2022-06-06T07:41:35.000Z</time>
      </trkpt>
      <trkpt lat="49.816" lon="4.78329">
        <ele>174</ele>
        <time>2022-06-06T07:41:36.000Z</time>
      </trkpt>
      <trkpt lat="49.81601" lon="4.78333">
        <ele>174</ele>
        <time>2022-06-06T07:41:37.000Z</time>
      </trkpt>
      <trkpt lat="49.81602" lon="4.78339">
        <ele>174</ele>
        <time>2022-06-06T07:41:38.000Z</time>
      </trkpt>
      <trkpt lat="49.81604" lon="4.78344">
        <ele>174</ele>
        <time>2022-06-06T07:41:39.000Z</time>
      </trkpt>
      <trkpt lat="49.81607" lon="4.7835">
        <ele>174</ele>
        <time>2022-06-06T07:41:40.000Z</time>
      </trkpt>
      <trkpt lat="49.8161" lon="4.78355">
        <ele>174</ele>
        <time>2022-06-06T07:41:41.000Z</time>
      </trkpt>
      <trkpt lat="49.81614" lon="4.78361">
        <ele>174</ele>
        <time>2022-06-06T07:41:42.000Z</time>
      </trkpt>
      <trkpt lat="49.81617" lon="4.78368">
        <ele>174</ele>
        <time>2022-06-06T07:41:43.000Z</time>
      </trkpt>
      <trkpt lat="49.8162" lon="4.78374">
        <ele>174</ele>
        <time>2022-06-06T07:41:44.000Z</time>
      </trkpt>
      <trkpt lat="49.81623" lon="4.7838">
        <ele>174</ele>
        <time>2022-06-06T07:41:45.000Z</time>
      </trkpt>
      <trkpt lat="49.81627" lon="4.78387">
        <ele>174</ele>
        <time>2022-06-06T07:41:46.000Z</time>
      </trkpt>
      <trkpt lat="49.8163" lon="4.78393">
        <ele>174</ele>
        <time>2022-06-06T07:41:47.000Z</time>
      </trkpt>
      <trkpt lat="49.81634" lon="4.78399">
        <ele>174</ele>
        <time>2022-06-06T07:41:48.000Z</time>
      </trkpt>
      <trkpt lat="49.81637" lon="4.78404">
        <ele>174</ele>
        <time>2022-06-06T07:41:49.000Z</time>
      </trkpt>
      <trkpt lat="49.81641" lon="4.7841">
        <ele>174</ele>
        <time>2022-06-06T07:41:50.000Z</time>
      </trkpt>
      <trkpt lat="49.81644" lon="4.78415">
        <ele>174</ele>
        <time>2022-06-06T07:41:51.000Z</time>
      </trkpt>
      <trkpt lat="49.81648" lon="4.7842">
        <ele>174</ele>
        <time>2022-06-06T07:41:52.000Z</time>
      </trkpt>
      <trkpt lat="49.81652" lon="4.78425">
        <ele>174</ele>
        <time>2022-06-06T07:41:53.000Z</time>
      </trkpt>
      <trkpt lat="49.81656" lon="4.78429">
        <ele>174</ele>
        <time>2022-06-06T07:41:54.000Z</time>
      </trkpt>
      <trkpt lat="49.8166" lon="4.78433">
        <ele>174</ele>
        <time>2022-06-06T07:41:55.000Z</time>
      </trkpt>
      <trkpt lat="49.81664" lon="4.78437">
        <ele>174</ele>
        <time>2022-06-06T07:41:56.000Z</time>
      </trkpt>
      <trkpt lat="49.81669" lon="4.78441">
        <ele>174</ele>
        <time>2022-06-06T07:41:57.000Z</time>
      </trkpt>
      <trkpt lat="49.81674" lon="4.78445">
        <ele>174</ele>
        <time>2022-06-06T07:41:58.000Z</time>
      </trkpt>
      <trkpt lat="49.81679" lon="4.78449">
        <ele>174</ele>
        <time>2022-06-06T07:41:59.000Z</time>
      </trkpt>
      <trkpt lat="49.81683" lon="4.78453">
        <ele>174</ele>
        <time>2022-06-06T07:42:00.000Z</time>
      </trkpt>
      <trkpt lat="49.81688" lon="4.78458">
        <ele>175</ele>
        <time>2022-06-06T07:42:01.000Z</time>
      </trkpt>
      <trkpt lat="49.81693" lon="4.78463">
        <ele>175</ele>
        <time>2022-06-06T07:42:02.000Z</time>
      </trkpt>
      <trkpt lat="49.81698" lon="4.78468">
        <ele>175</ele>
        <time>2022-06-06T07:42:03.000Z</time>
      </trkpt>
      <trkpt lat="49.81703" lon="4.78473">
        <ele>175</ele>
        <time>2022-06-06T07:42:04.000Z</time>
      </trkpt>
      <trkpt lat="49.81707" lon="4.78478">
        <ele>175</ele>
        <time>2022-06-06T07:42:05.000Z</time>
      </trkpt>
      <trkpt lat="49.81712" lon="4.78483">
        <ele>175</ele>
        <time>2022-06-06T07:42:06.000Z</time>
      </trkpt>
      <trkpt lat="49.81716" lon="4.78488">
        <ele>175</ele>
        <time>2022-06-06T07:42:07.000Z</time>
      </trkpt>
      <trkpt lat="49.8172" lon="4.78492">
        <ele>175</ele>
        <time>2022-06-06T07:42:08.000Z</time>
      </trkpt>
      <trkpt lat="49.81725" lon="4.78496">
        <ele>175</ele>
        <time>2022-06-06T07:42:09.000Z</time>
      </trkpt>
      <trkpt lat="49.81729" lon="4.785">
        <ele>175</ele>
        <time>2022-06-06T07:42:10.000Z</time>
      </trkpt>
      <trkpt lat="49.81733" lon="4.78503">
        <ele>176</ele>
        <time>2022-06-06T07:42:11.000Z</time>
      </trkpt>
      <trkpt lat="49.81738" lon="4.78504">
        <ele>176</ele>
        <time>2022-06-06T07:42:12.000Z</time>
      </trkpt>
      <trkpt lat="49.81742" lon="4.78507">
        <ele>176</ele>
        <time>2022-06-06T07:42:13.000Z</time>
      </trkpt>
      <trkpt lat="49.81745" lon="4.78509">
        <ele>176</ele>
        <time>2022-06-06T07:42:14.000Z</time>
      </trkpt>
      <trkpt lat="49.81749" lon="4.78511">
        <ele>176</ele>
        <time>2022-06-06T07:42:15.000Z</time>
      </trkpt>
      <trkpt lat="49.81752" lon="4.78513">
        <ele>176</ele>
        <time>2022-06-06T07:42:16.000Z</time>
      </trkpt>
      <trkpt lat="49.81756" lon="4.78516">
        <ele>176</ele>
        <time>2022-06-06T07:42:17.000Z</time>
      </trkpt>
      <trkpt lat="49.81759" lon="4.78518">
        <ele>176</ele>
        <time>2022-06-06T07:42:18.000Z</time>
      </trkpt>
      <trkpt lat="49.81763" lon="4.7852">
        <ele>176</ele>
        <time>2022-06-06T07:42:19.000Z</time>
      </trkpt>
      <trkpt lat="49.81766" lon="4.78522">
        <ele>176</ele>
        <time>2022-06-06T07:42:20.000Z</time>
      </trkpt>
      <trkpt lat="49.8177" lon="4.78524">
        <ele>176</ele>
        <time>2022-06-06T07:42:21.000Z</time>
      </trkpt>
      <trkpt lat="49.81774" lon="4.78526">
        <ele>177</ele>
        <time>2022-06-06T07:42:22.000Z</time>
      </trkpt>
      <trkpt lat="49.81777" lon="4.78528">
        <ele>177</ele>
        <time>2022-06-06T07:42:23.000Z</time>
      </trkpt>
      <trkpt lat="49.8178" lon="4.7853">
        <ele>177</ele>
        <time>2022-06-06T07:42:24.000Z</time>
      </trkpt>
      <trkpt lat="49.81783" lon="4.78532">
        <ele>177</ele>
        <time>2022-06-06T07:42:25.000Z</time>
      </trkpt>
      <trkpt lat="49.81787" lon="4.78535">
        <ele>177</ele>
        <time>2022-06-06T07:42:26.000Z</time>
      </trkpt>
      <trkpt lat="49.81791" lon="4.78538">
        <ele>178</ele>
        <time>2022-06-06T07:42:27.000Z</time>
      </trkpt>
      <trkpt lat="49.81795" lon="4.78541">
        <ele>178</ele>
        <time>2022-06-06T07:42:28.000Z</time>
      </trkpt>
      <trkpt lat="49.81799" lon="4.78544">
        <ele>178</ele>
        <time>2022-06-06T07:42:29.000Z</time>
      </trkpt>
      <trkpt lat="49.81802" lon="4.78548">
        <ele>178</ele>
        <time>2022-06-06T07:42:30.000Z</time>
      </trkpt>
      <trkpt lat="49.81806" lon="4.78551">
        <ele>178</ele>
        <time>2022-06-06T07:42:31.000Z</time>
      </trkpt>
      <trkpt lat="49.8181" lon="4.78554">
        <ele>179</ele>
        <time>2022-06-06T07:42:32.000Z</time>
      </trkpt>
      <trkpt lat="49.81814" lon="4.78558">
        <ele>179</ele>
        <time>2022-06-06T07:42:33.000Z</time>
      </trkpt>
      <trkpt lat="49.81817" lon="4.78562">
        <ele>179</ele>
        <time>2022-06-06T07:42:34.000Z</time>
      </trkpt>
      <trkpt lat="49.81821" lon="4.78566">
        <ele>179</ele>
        <time>2022-06-06T07:42:35.000Z</time>
      </trkpt>
      <trkpt lat="49.81825" lon="4.7857">
        <ele>180</ele>
        <time>2022-06-06T07:42:36.000Z</time>
      </trkpt>
      <trkpt lat="49.81829" lon="4.78574">
        <ele>180</ele>
        <time>2022-06-06T07:42:37.000Z</time>
      </trkpt>
      <trkpt lat="49.81833" lon="4.78577">
        <ele>180</ele>
        <time>2022-06-06T07:42:38.000Z</time>
      </trkpt>
      <trkpt lat="49.81836" lon="4.78581">
        <ele>180</ele>
        <time>2022-06-06T07:42:39.000Z</time>
      </trkpt>
      <trkpt lat="49.8184" lon="4.78585">
        <ele>181</ele>
        <time>2022-06-06T07:42:40.000Z</time>
      </trkpt>
      <trkpt lat="49.81843" lon="4.78589">
        <ele>181</ele>
        <time>2022-06-06T07:42:41.000Z</time>
      </trkpt>
      <trkpt lat="49.81847" lon="4.78593">
        <ele>181</ele>
        <time>2022-06-06T07:42:42.000Z</time>
      </trkpt>
      <trkpt lat="49.81851" lon="4.78597">
        <ele>181</ele>
        <time>2022-06-06T07:42:43.000Z</time>
      </trkpt>
      <trkpt lat="49.81855" lon="4.78601">
        <ele>182</ele>
        <time>2022-06-06T07:42:44.000Z</time>
      </trkpt>
      <trkpt lat="49.81858" lon="4.78605">
        <ele>182</ele>
        <time>2022-06-06T07:42:45.000Z</time>
      </trkpt>
      <trkpt lat="49.81862" lon="4.78609">
        <ele>182</ele>
        <time>2022-06-06T07:42:46.000Z</time>
      </trkpt>
      <trkpt lat="49.81865" lon="4.78613">
        <ele>182</ele>
        <time>2022-06-06T07:42:47.000Z</time>
      </trkpt>
      <trkpt lat="49.81869" lon="4.78617">
        <ele>182</ele>
        <time>2022-06-06T07:42:48.000Z</time>
      </trkpt>
      <trkpt lat="49.81873" lon="4.78621">
        <ele>183</ele>
        <time>2022-06-06T07:42:49.000Z</time>
      </trkpt>
      <trkpt lat="49.81877" lon="4.78625">
        <ele>183</ele>
        <time>2022-06-06T07:42:50.000Z</time>
      </trkpt>
      <trkpt lat="49.8188" lon="4.78629">
        <ele>183</ele>
        <time>2022-06-06T07:42:51.000Z</time>
      </trkpt>
      <trkpt lat="49.81884" lon="4.78633">
        <ele>183</ele>
        <time>2022-06-06T07:42:52.000Z</time>
      </trkpt>
      <trkpt lat="49.81888" lon="4.78637">
        <ele>183</ele>
        <time>2022-06-06T07:42:53.000Z</time>
      </trkpt>
      <trkpt lat="49.81892" lon="4.78641">
        <ele>183</ele>
        <time>2022-06-06T07:42:54.000Z</time>
      </trkpt>
      <trkpt lat="49.81896" lon="4.78646">
        <ele>183</ele>
        <time>2022-06-06T07:42:55.000Z</time>
      </trkpt>
      <trkpt lat="49.819" lon="4.7865">
        <ele>183</ele>
        <time>2022-06-06T07:42:56.000Z</time>
      </trkpt>
      <trkpt lat="49.81904" lon="4.78654">
        <ele>184</ele>
        <time>2022-06-06T07:42:57.000Z</time>
      </trkpt>
      <trkpt lat="49.81908" lon="4.78658">
        <ele>184</ele>
        <time>2022-06-06T07:42:58.000Z</time>
      </trkpt>
      <trkpt lat="49.81912" lon="4.78663">
        <ele>184</ele>
        <time>2022-06-06T07:42:59.000Z</time>
      </trkpt>
      <trkpt lat="49.81915" lon="4.78666">
        <ele>184</ele>
        <time>2022-06-06T07:43:00.000Z</time>
      </trkpt>
      <trkpt lat="49.81919" lon="4.7867">
        <ele>184</ele>
        <time>2022-06-06T07:43:01.000Z</time>
      </trkpt>
      <trkpt lat="49.81923" lon="4.78673">
        <ele>184</ele>
        <time>2022-06-06T07:43:02.000Z</time>
      </trkpt>
      <trkpt lat="49.81927" lon="4.78676">
        <ele>184</ele>
        <time>2022-06-06T07:43:03.000Z</time>
      </trkpt>
      <trkpt lat="49.81931" lon="4.7868">
        <ele>184</ele>
        <time>2022-06-06T07:43:04.000Z</time>
      </trkpt>
      <trkpt lat="49.81934" lon="4.78683">
        <ele>184</ele>
        <time>2022-06-06T07:43:05.000Z</time>
      </trkpt>
      <trkpt lat="49.81938" lon="4.78687">
        <ele>184</ele>
        <time>2022-06-06T07:43:06.000Z</time>
      </trkpt>
      <trkpt lat="49.81942" lon="4.7869">
        <ele>184</ele>
        <time>2022-06-06T07:43:07.000Z</time>
      </trkpt>
      <trkpt lat="49.81945" lon="4.78694">
        <ele>185</ele>
        <time>2022-06-06T07:43:08.000Z</time>
      </trkpt>
      <trkpt lat="49.81949" lon="4.78697">
        <ele>185</ele>
        <time>2022-06-06T07:43:09.000Z</time>
      </trkpt>
      <trkpt lat="49.81952" lon="4.78701">
        <ele>185</ele>
        <time>2022-06-06T07:43:10.000Z</time>
      </trkpt>
      <trkpt lat="49.81956" lon="4.78704">
        <ele>185</ele>
        <time>2022-06-06T07:43:11.000Z</time>
      </trkpt>
      <trkpt lat="49.8196" lon="4.78707">
        <ele>185</ele>
        <time>2022-06-06T07:43:12.000Z</time>
      </trkpt>
      <trkpt lat="49.81964" lon="4.7871">
        <ele>185</ele>
        <time>2022-06-06T07:43:13.000Z</time>
      </trkpt>
      <trkpt lat="49.81968" lon="4.78713">
        <ele>185</ele>
        <time>2022-06-06T07:43:14.000Z</time>
      </trkpt>
      <trkpt lat="49.81972" lon="4.78717">
        <ele>185</ele>
        <time>2022-06-06T07:43:15.000Z</time>
      </trkpt>
      <trkpt lat="49.81976" lon="4.7872">
        <ele>186</ele>
        <time>2022-06-06T07:43:16.000Z</time>
      </trkpt>
      <trkpt lat="49.8198" lon="4.78724">
        <ele>186</ele>
        <time>2022-06-06T07:43:17.000Z</time>
      </trkpt>
      <trkpt lat="49.81984" lon="4.78727">
        <ele>186</ele>
        <time>2022-06-06T07:43:18.000Z</time>
      </trkpt>
      <trkpt lat="49.81989" lon="4.78731">
        <ele>186</ele>
        <time>2022-06-06T07:43:19.000Z</time>
      </trkpt>
      <trkpt lat="49.81993" lon="4.78734">
        <ele>186</ele>
        <time>2022-06-06T07:43:20.000Z</time>
      </trkpt>
      <trkpt lat="49.81997" lon="4.78737">
        <ele>186</ele>
        <time>2022-06-06T07:43:21.000Z</time>
      </trkpt>
      <trkpt lat="49.82001" lon="4.7874">
        <ele>186</ele>
        <time>2022-06-06T07:43:22.000Z</time>
      </trkpt>
      <trkpt lat="49.82005" lon="4.78744">
        <ele>187</ele>
        <time>2022-06-06T07:43:23.000Z</time>
      </trkpt>
      <trkpt lat="49.82009" lon="4.78746">
        <ele>187</ele>
        <time>2022-06-06T07:43:24.000Z</time>
      </trkpt>
      <trkpt lat="49.82013" lon="4.78749">
        <ele>187</ele>
        <time>2022-06-06T07:43:25.000Z</time>
      </trkpt>
      <trkpt lat="49.82017" lon="4.78752">
        <ele>187</ele>
        <time>2022-06-06T07:43:26.000Z</time>
      </trkpt>
      <trkpt lat="49.8202" lon="4.78755">
        <ele>187</ele>
        <time>2022-06-06T07:43:27.000Z</time>
      </trkpt>
      <trkpt lat="49.82024" lon="4.78758">
        <ele>188</ele>
        <time>2022-06-06T07:43:28.000Z</time>
      </trkpt>
      <trkpt lat="49.82028" lon="4.78761">
        <ele>188</ele>
        <time>2022-06-06T07:43:29.000Z</time>
      </trkpt>
      <trkpt lat="49.82032" lon="4.78765">
        <ele>188</ele>
        <time>2022-06-06T07:43:30.000Z</time>
      </trkpt>
      <trkpt lat="49.82036" lon="4.78767">
        <ele>188</ele>
        <time>2022-06-06T07:43:31.000Z</time>
      </trkpt>
      <trkpt lat="49.8204" lon="4.78771">
        <ele>188</ele>
        <time>2022-06-06T07:43:32.000Z</time>
      </trkpt>
      <trkpt lat="49.82043" lon="4.78774">
        <ele>189</ele>
        <time>2022-06-06T07:43:33.000Z</time>
      </trkpt>
      <trkpt lat="49.82047" lon="4.78777">
        <ele>189</ele>
        <time>2022-06-06T07:43:34.000Z</time>
      </trkpt>
      <trkpt lat="49.82051" lon="4.7878">
        <ele>189</ele>
        <time>2022-06-06T07:43:35.000Z</time>
      </trkpt>
      <trkpt lat="49.82054" lon="4.78784">
        <ele>190</ele>
        <time>2022-06-06T07:43:36.000Z</time>
      </trkpt>
      <trkpt lat="49.82058" lon="4.78787">
        <ele>190</ele>
        <time>2022-06-06T07:43:37.000Z</time>
      </trkpt>
      <trkpt lat="49.82062" lon="4.78791">
        <ele>190</ele>
        <time>2022-06-06T07:43:38.000Z</time>
      </trkpt>
      <trkpt lat="49.82065" lon="4.78795">
        <ele>190</ele>
        <time>2022-06-06T07:43:39.000Z</time>
      </trkpt>
      <trkpt lat="49.82069" lon="4.78799">
        <ele>191</ele>
        <time>2022-06-06T07:43:40.000Z</time>
      </trkpt>
      <trkpt lat="49.82072" lon="4.78802">
        <ele>191</ele>
        <time>2022-06-06T07:43:41.000Z</time>
      </trkpt>
      <trkpt lat="49.82076" lon="4.78805">
        <ele>191</ele>
        <time>2022-06-06T07:43:42.000Z</time>
      </trkpt>
      <trkpt lat="49.82079" lon="4.78807">
        <ele>191</ele>
        <time>2022-06-06T07:43:43.000Z</time>
      </trkpt>
      <trkpt lat="49.82081" lon="4.78809">
        <ele>191</ele>
        <time>2022-06-06T07:43:44.000Z</time>
      </trkpt>
      <trkpt lat="49.82083" lon="4.78811">
        <ele>191</ele>
        <time>2022-06-06T07:43:45.000Z</time>
      </trkpt>
      <trkpt lat="49.82083" lon="4.78811">
        <ele>191</ele>
        <time>2022-06-06T07:43:46.000Z</time>
      </trkpt>
      <trkpt lat="49.82083" lon="4.78811">
        <ele>192</ele>
        <time>2022-06-06T07:43:47.000Z</time>
      </trkpt>
      <trkpt lat="49.82083" lon="4.78811">
        <ele>192</ele>
        <time>2022-06-06T07:43:48.000Z</time>
      </trkpt>
      <trkpt lat="49.82083" lon="4.78812">
        <ele>192</ele>
        <time>2022-06-06T07:43:49.000Z</time>
      </trkpt>
      <trkpt lat="49.82083" lon="4.78812">
        <ele>192</ele>
        <time>2022-06-06T07:43:50.000Z</time>
      </trkpt>
      <trkpt lat="49.82083" lon="4.78812">
        <ele>192</ele>
        <time>2022-06-06T07:43:51.000Z</time>
      </trkpt>
      <trkpt lat="49.82083" lon="4.78812">
        <ele>192</ele>
        <time>2022-06-06T07:43:52.000Z</time>
      </trkpt>
      <trkpt lat="49.82083" lon="4.78812">
        <ele>192</ele>
        <time>2022-06-06T07:43:53.000Z</time>
      </trkpt>
      <trkpt lat="49.82083" lon="4.78812">
        <ele>193</ele>
        <time>2022-06-06T07:43:54.000Z</time>
      </trkpt>
      <trkpt lat="49.82083" lon="4.78812">
        <ele>193</ele>
        <time>2022-06-06T07:43:55.000Z</time>
      </trkpt>
      <trkpt lat="49.82083" lon="4.78812">
        <ele>193</ele>
        <time>2022-06-06T07:43:56.000Z</time>
      </trkpt>
      <trkpt lat="49.82083" lon="4.78813">
        <ele>193</ele>
        <time>2022-06-06T07:43:57.000Z</time>
      </trkpt>
      <trkpt lat="49.82084" lon="4.78813">
        <ele>193</ele>
        <time>2022-06-06T07:43:58.000Z</time>
      </trkpt>
      <trkpt lat="49.82084" lon="4.78813">
        <ele>193</ele>
        <time>2022-06-06T07:43:59.000Z</time>
      </trkpt>
      <trkpt lat="49.82084" lon="4.78813">
        <ele>193</ele>
        <time>2022-06-06T07:44:00.000Z</time>
      </trkpt>
      <trkpt lat="49.82084" lon="4.78813">
        <ele>193</ele>
        <time>2022-06-06T07:44:01.000Z</time>
      </trkpt>
      <trkpt lat="49.82084" lon="4.78813">
        <ele>193</ele>
        <time>2022-06-06T07:44:02.000Z</time>
      </trkpt>
      <trkpt lat="49.82084" lon="4.78813">
        <ele>193</ele>
        <time>2022-06-06T07:44:03.000Z</time>
      </trkpt>
      <trkpt lat="49.82084" lon="4.78813">
        <ele>193</ele>
        <time>2022-06-06T07:44:04.000Z</time>
      </trkpt>
      <trkpt lat="49.82084" lon="4.78813">
        <ele>194</ele>
        <time>2022-06-06T07:44:05.000Z</time>
      </trkpt>
      <trkpt lat="49.82084" lon="4.78813">
        <ele>194</ele>
        <time>2022-06-06T07:44:06.000Z</time>
      </trkpt>
      <trkpt lat="49.82084" lon="4.78813">
        <ele>194</ele>
        <time>2022-06-06T07:44:07.000Z</time>
      </trkpt>
      <trkpt lat="49.82084" lon="4.78813">
        <ele>194</ele>
        <time>2022-06-06T07:44:08.000Z</time>
      </trkpt>
      <trkpt lat="49.82084" lon="4.78813">
        <ele>194</ele>
        <time>2022-06-06T07:44:09.000Z</time>
      </trkpt>
      <trkpt lat="49.82084" lon="4.78813">
        <ele>194</ele>
        <time>2022-06-06T07:44:10.000Z</time>
      </trkpt>
      <trkpt lat="49.82084" lon="4.78813">
        <ele>194</ele>
        <time>2022-06-06T07:44:11.000Z</time>
      </trkpt>
      <trkpt lat="49.82084" lon="4.78813">
        <ele>194</ele>
        <time>2022-06-06T07:44:12.000Z</time>
      </trkpt>
      <trkpt lat="49.82084" lon="4.78813">
        <ele>194</ele>
        <time>2022-06-06T07:44:13.000Z</time>
      </trkpt>
      <trkpt lat="49.82084" lon="4.78813">
        <ele>194</ele>
        <time>2022-06-06T07:44:14.000Z</time>
      </trkpt>
      <trkpt lat="49.82084" lon="4.78813">
        <ele>194</ele>
        <time>2022-06-06T07:44:15.000Z</time>
      </trkpt>
      <trkpt lat="49.82084" lon="4.78813">
        <ele>194</ele>
        <time>2022-06-06T07:44:16.000Z</time>
      </trkpt>
      <trkpt lat="49.82084" lon="4.78813">
        <ele>194</ele>
        <time>2022-06-06T07:44:17.000Z</time>
      </trkpt>
      <trkpt lat="49.82084" lon="4.78813">
        <ele>194</ele>
        <time>2022-06-06T07:44:18.000Z</time>
      </trkpt>
      <trkpt lat="49.82084" lon="4.78813">
        <ele>194</ele>
        <time>2022-06-06T07:44:19.000Z</time>
      </trkpt>
      <trkpt lat="49.82084" lon="4.78813">
        <ele>194</ele>
        <time>2022-06-06T07:44:20.000Z</time>
      </trkpt>
      <trkpt lat="49.82085" lon="4.78813">
        <ele>194</ele>
        <time>2022-06-06T07:44:21.000Z</time>
      </trkpt>
      <trkpt lat="49.82085" lon="4.78813">
        <ele>194</ele>
        <time>2022-06-06T07:44:22.000Z</time>
      </trkpt>
      <trkpt lat="49.82085" lon="4.78815">
        <ele>194</ele>
        <time>2022-06-06T07:44:23.000Z</time>
      </trkpt>
      <trkpt lat="49.82087" lon="4.78818">
        <ele>194</ele>
        <time>2022-06-06T07:44:24.000Z</time>
      </trkpt>
      <trkpt lat="49.82088" lon="4.78821">
        <ele>194</ele>
        <time>2022-06-06T07:44:25.000Z</time>
      </trkpt>
      <trkpt lat="49.8209" lon="4.78826">
        <ele>194</ele>
        <time>2022-06-06T07:44:26.000Z</time>
      </trkpt>
      <trkpt lat="49.82092" lon="4.7883">
        <ele>195</ele>
        <time>2022-06-06T07:44:27.000Z</time>
      </trkpt>
      <trkpt lat="49.82094" lon="4.78834">
        <ele>195</ele>
        <time>2022-06-06T07:44:28.000Z</time>
      </trkpt>
      <trkpt lat="49.82096" lon="4.78838">
        <ele>195</ele>
        <time>2022-06-06T07:44:29.000Z</time>
      </trkpt>
      <trkpt lat="49.82098" lon="4.78842">
        <ele>195</ele>
        <time>2022-06-06T07:44:30.000Z</time>
      </trkpt>
      <trkpt lat="49.82099" lon="4.78847">
        <ele>195</ele>
        <time>2022-06-06T07:44:31.000Z</time>
      </trkpt>
      <trkpt lat="49.821" lon="4.78852">
        <ele>195</ele>
        <time>2022-06-06T07:44:32.000Z</time>
      </trkpt>
      <trkpt lat="49.82101" lon="4.78858">
        <ele>196</ele>
        <time>2022-06-06T07:44:33.000Z</time>
      </trkpt>
      <trkpt lat="49.82103" lon="4.78863">
        <ele>196</ele>
        <time>2022-06-06T07:44:34.000Z</time>
      </trkpt>
      <trkpt lat="49.82104" lon="4.78869">
        <ele>196</ele>
        <time>2022-06-06T07:44:35.000Z</time>
      </trkpt>
      <trkpt lat="49.82106" lon="4.78874">
        <ele>196</ele>
        <time>2022-06-06T07:44:36.000Z</time>
      </trkpt>
      <trkpt lat="49.82108" lon="4.7888">
        <ele>196</ele>
        <time>2022-06-06T07:44:37.000Z</time>
      </trkpt>
      <trkpt lat="49.8211" lon="4.78886">
        <ele>195</ele>
        <time>2022-06-06T07:44:38.000Z</time>
      </trkpt>
      <trkpt lat="49.82113" lon="4.78891">
        <ele>195</ele>
        <time>2022-06-06T07:44:39.000Z</time>
      </trkpt>
      <trkpt lat="49.82115" lon="4.78896">
        <ele>195</ele>
        <time>2022-06-06T07:44:40.000Z</time>
      </trkpt>
      <trkpt lat="49.82118" lon="4.78902">
        <ele>195</ele>
        <time>2022-06-06T07:44:41.000Z</time>
      </trkpt>
      <trkpt lat="49.82121" lon="4.78907">
        <ele>195</ele>
        <time>2022-06-06T07:44:42.000Z</time>
      </trkpt>
      <trkpt lat="49.82124" lon="4.78912">
        <ele>195</ele>
        <time>2022-06-06T07:44:43.000Z</time>
      </trkpt>
      <trkpt lat="49.82126" lon="4.78916">
        <ele>195</ele>
        <time>2022-06-06T07:44:44.000Z</time>
      </trkpt>
      <trkpt lat="49.82129" lon="4.7892">
        <ele>195</ele>
        <time>2022-06-06T07:44:45.000Z</time>
      </trkpt>
      <trkpt lat="49.82132" lon="4.78925">
        <ele>195</ele>
        <time>2022-06-06T07:44:46.000Z</time>
      </trkpt>
      <trkpt lat="49.82135" lon="4.7893">
        <ele>195</ele>
        <time>2022-06-06T07:44:47.000Z</time>
      </trkpt>
      <trkpt lat="49.82139" lon="4.78934">
        <ele>195</ele>
        <time>2022-06-06T07:44:48.000Z</time>
      </trkpt>
      <trkpt lat="49.82142" lon="4.7894">
        <ele>195</ele>
        <time>2022-06-06T07:44:49.000Z</time>
      </trkpt>
      <trkpt lat="49.82145" lon="4.78945">
        <ele>194</ele>
        <time>2022-06-06T07:44:50.000Z</time>
      </trkpt>
      <trkpt lat="49.82149" lon="4.7895">
        <ele>194</ele>
        <time>2022-06-06T07:44:51.000Z</time>
      </trkpt>
      <trkpt lat="49.82152" lon="4.78956">
        <ele>194</ele>
        <time>2022-06-06T07:44:52.000Z</time>
      </trkpt>
      <trkpt lat="49.82156" lon="4.78961">
        <ele>194</ele>
        <time>2022-06-06T07:44:53.000Z</time>
      </trkpt>
      <trkpt lat="49.8216" lon="4.78967">
        <ele>194</ele>
        <time>2022-06-06T07:44:54.000Z</time>
      </trkpt>
      <trkpt lat="49.82163" lon="4.78972">
        <ele>194</ele>
        <time>2022-06-06T07:44:55.000Z</time>
      </trkpt>
      <trkpt lat="49.82167" lon="4.78978">
        <ele>194</ele>
        <time>2022-06-06T07:44:56.000Z</time>
      </trkpt>
      <trkpt lat="49.82171" lon="4.78982">
        <ele>194</ele>
        <time>2022-06-06T07:44:57.000Z</time>
      </trkpt>
      <trkpt lat="49.82176" lon="4.78986">
        <ele>193</ele>
        <time>2022-06-06T07:44:58.000Z</time>
      </trkpt>
      <trkpt lat="49.8218" lon="4.7899">
        <ele>193</ele>
        <time>2022-06-06T07:44:59.000Z</time>
      </trkpt>
      <trkpt lat="49.82184" lon="4.78993">
        <ele>193</ele>
        <time>2022-06-06T07:45:00.000Z</time>
      </trkpt>
      <trkpt lat="49.82188" lon="4.78995">
        <ele>193</ele>
        <time>2022-06-06T07:45:01.000Z</time>
      </trkpt>
      <trkpt lat="49.82192" lon="4.78997">
        <ele>193</ele>
        <time>2022-06-06T07:45:02.000Z</time>
      </trkpt>
      <trkpt lat="49.82197" lon="4.78999">
        <ele>193</ele>
        <time>2022-06-06T07:45:03.000Z</time>
      </trkpt>
      <trkpt lat="49.82202" lon="4.79001">
        <ele>193</ele>
        <time>2022-06-06T07:45:04.000Z</time>
      </trkpt>
      <trkpt lat="49.82207" lon="4.79002">
        <ele>192</ele>
        <time>2022-06-06T07:45:05.000Z</time>
      </trkpt>
      <trkpt lat="49.82212" lon="4.79004">
        <ele>192</ele>
        <time>2022-06-06T07:45:06.000Z</time>
      </trkpt>
      <trkpt lat="49.82217" lon="4.79004">
        <ele>192</ele>
        <time>2022-06-06T07:45:07.000Z</time>
      </trkpt>
      <trkpt lat="49.82223" lon="4.79005">
        <ele>192</ele>
        <time>2022-06-06T07:45:08.000Z</time>
      </trkpt>
      <trkpt lat="49.82228" lon="4.79006">
        <ele>192</ele>
        <time>2022-06-06T07:45:09.000Z</time>
      </trkpt>
      <trkpt lat="49.82234" lon="4.79007">
        <ele>192</ele>
        <time>2022-06-06T07:45:10.000Z</time>
      </trkpt>
      <trkpt lat="49.8224" lon="4.79008">
        <ele>192</ele>
        <time>2022-06-06T07:45:11.000Z</time>
      </trkpt>
      <trkpt lat="49.82245" lon="4.7901">
        <ele>191</ele>
        <time>2022-06-06T07:45:12.000Z</time>
      </trkpt>
      <trkpt lat="49.82251" lon="4.79011">
        <ele>191</ele>
        <time>2022-06-06T07:45:13.000Z</time>
      </trkpt>
      <trkpt lat="49.82257" lon="4.79014">
        <ele>191</ele>
        <time>2022-06-06T07:45:14.000Z</time>
      </trkpt>
      <trkpt lat="49.82263" lon="4.79016">
        <ele>191</ele>
        <time>2022-06-06T07:45:15.000Z</time>
      </trkpt>
      <trkpt lat="49.82268" lon="4.79018">
        <ele>191</ele>
        <time>2022-06-06T07:45:16.000Z</time>
      </trkpt>
      <trkpt lat="49.82273" lon="4.79021">
        <ele>191</ele>
        <time>2022-06-06T07:45:17.000Z</time>
      </trkpt>
      <trkpt lat="49.82277" lon="4.79024">
        <ele>191</ele>
        <time>2022-06-06T07:45:18.000Z</time>
      </trkpt>
      <trkpt lat="49.82282" lon="4.79026">
        <ele>191</ele>
        <time>2022-06-06T07:45:19.000Z</time>
      </trkpt>
      <trkpt lat="49.82286" lon="4.79028">
        <ele>191</ele>
        <time>2022-06-06T07:45:20.000Z</time>
      </trkpt>
      <trkpt lat="49.82291" lon="4.7903">
        <ele>191</ele>
        <time>2022-06-06T07:45:21.000Z</time>
      </trkpt>
      <trkpt lat="49.82296" lon="4.79032">
        <ele>191</ele>
        <time>2022-06-06T07:45:22.000Z</time>
      </trkpt>
      <trkpt lat="49.82301" lon="4.79035">
        <ele>191</ele>
        <time>2022-06-06T07:45:23.000Z</time>
      </trkpt>
      <trkpt lat="49.82306" lon="4.79037">
        <ele>191</ele>
        <time>2022-06-06T07:45:24.000Z</time>
      </trkpt>
      <trkpt lat="49.82312" lon="4.79039">
        <ele>191</ele>
        <time>2022-06-06T07:45:25.000Z</time>
      </trkpt>
      <trkpt lat="49.82317" lon="4.7904">
        <ele>191</ele>
        <time>2022-06-06T07:45:26.000Z</time>
      </trkpt>
      <trkpt lat="49.82322" lon="4.79042">
        <ele>191</ele>
        <time>2022-06-06T07:45:27.000Z</time>
      </trkpt>
      <trkpt lat="49.82328" lon="4.79043">
        <ele>191</ele>
        <time>2022-06-06T07:45:28.000Z</time>
      </trkpt>
      <trkpt lat="49.82333" lon="4.79044">
        <ele>191</ele>
        <time>2022-06-06T07:45:29.000Z</time>
      </trkpt>
      <trkpt lat="49.82338" lon="4.79045">
        <ele>191</ele>
        <time>2022-06-06T07:45:30.000Z</time>
      </trkpt>
      <trkpt lat="49.82343" lon="4.79046">
        <ele>191</ele>
        <time>2022-06-06T07:45:31.000Z</time>
      </trkpt>
      <trkpt lat="49.82348" lon="4.79047">
        <ele>191</ele>
        <time>2022-06-06T07:45:32.000Z</time>
      </trkpt>
      <trkpt lat="49.82353" lon="4.79047">
        <ele>191</ele>
        <time>2022-06-06T07:45:33.000Z</time>
      </trkpt>
      <trkpt lat="49.82359" lon="4.79047">
        <ele>191</ele>
        <time>2022-06-06T07:45:34.000Z</time>
      </trkpt>
      <trkpt lat="49.82365" lon="4.79047">
        <ele>191</ele>
        <time>2022-06-06T07:45:35.000Z</time>
      </trkpt>
      <trkpt lat="49.8237" lon="4.79047">
        <ele>191</ele>
        <time>2022-06-06T07:45:36.000Z</time>
      </trkpt>
      <trkpt lat="49.82375" lon="4.79049">
        <ele>191</ele>
        <time>2022-06-06T07:45:37.000Z</time>
      </trkpt>
      <trkpt lat="49.82381" lon="4.7905">
        <ele>192</ele>
        <time>2022-06-06T07:45:38.000Z</time>
      </trkpt>
      <trkpt lat="49.82386" lon="4.79052">
        <ele>192</ele>
        <time>2022-06-06T07:45:39.000Z</time>
      </trkpt>
      <trkpt lat="49.8239" lon="4.79054">
        <ele>192</ele>
        <time>2022-06-06T07:45:40.000Z</time>
      </trkpt>
      <trkpt lat="49.82394" lon="4.79056">
        <ele>192</ele>
        <time>2022-06-06T07:45:41.000Z</time>
      </trkpt>
      <trkpt lat="49.82399" lon="4.79057">
        <ele>192</ele>
        <time>2022-06-06T07:45:42.000Z</time>
      </trkpt>
      <trkpt lat="49.82403" lon="4.79059">
        <ele>192</ele>
        <time>2022-06-06T07:45:43.000Z</time>
      </trkpt>
      <trkpt lat="49.82408" lon="4.79061">
        <ele>193</ele>
        <time>2022-06-06T07:45:44.000Z</time>
      </trkpt>
      <trkpt lat="49.82413" lon="4.79064">
        <ele>193</ele>
        <time>2022-06-06T07:45:45.000Z</time>
      </trkpt>
      <trkpt lat="49.82419" lon="4.79066">
        <ele>193</ele>
        <time>2022-06-06T07:45:46.000Z</time>
      </trkpt>
      <trkpt lat="49.82424" lon="4.79067">
        <ele>193</ele>
        <time>2022-06-06T07:45:47.000Z</time>
      </trkpt>
      <trkpt lat="49.82429" lon="4.79068">
        <ele>194</ele>
        <time>2022-06-06T07:45:48.000Z</time>
      </trkpt>
      <trkpt lat="49.82435" lon="4.79068">
        <ele>194</ele>
        <time>2022-06-06T07:45:49.000Z</time>
      </trkpt>
      <trkpt lat="49.8244" lon="4.79068">
        <ele>194</ele>
        <time>2022-06-06T07:45:50.000Z</time>
      </trkpt>
      <trkpt lat="49.82445" lon="4.79068">
        <ele>194</ele>
        <time>2022-06-06T07:45:51.000Z</time>
      </trkpt>
      <trkpt lat="49.82451" lon="4.79066">
        <ele>194</ele>
        <time>2022-06-06T07:45:52.000Z</time>
      </trkpt>
      <trkpt lat="49.82457" lon="4.79064">
        <ele>194</ele>
        <time>2022-06-06T07:45:53.000Z</time>
      </trkpt>
      <trkpt lat="49.82463" lon="4.79062">
        <ele>194</ele>
        <time>2022-06-06T07:45:54.000Z</time>
      </trkpt>
      <trkpt lat="49.8247" lon="4.79061">
        <ele>195</ele>
        <time>2022-06-06T07:45:55.000Z</time>
      </trkpt>
      <trkpt lat="49.82476" lon="4.7906">
        <ele>195</ele>
        <time>2022-06-06T07:45:56.000Z</time>
      </trkpt>
      <trkpt lat="49.82483" lon="4.79059">
        <ele>195</ele>
        <time>2022-06-06T07:45:57.000Z</time>
      </trkpt>
      <trkpt lat="49.82489" lon="4.79059">
        <ele>195</ele>
        <time>2022-06-06T07:45:58.000Z</time>
      </trkpt>
      <trkpt lat="49.82495" lon="4.7906">
        <ele>195</ele>
        <time>2022-06-06T07:45:59.000Z</time>
      </trkpt>
      <trkpt lat="49.82501" lon="4.79062">
        <ele>195</ele>
        <time>2022-06-06T07:46:00.000Z</time>
      </trkpt>
      <trkpt lat="49.82507" lon="4.79063">
        <ele>195</ele>
        <time>2022-06-06T07:46:01.000Z</time>
      </trkpt>
      <trkpt lat="49.82513" lon="4.79065">
        <ele>195</ele>
        <time>2022-06-06T07:46:02.000Z</time>
      </trkpt>
      <trkpt lat="49.82518" lon="4.79067">
        <ele>196</ele>
        <time>2022-06-06T07:46:03.000Z</time>
      </trkpt>
      <trkpt lat="49.82523" lon="4.79068">
        <ele>196</ele>
        <time>2022-06-06T07:46:04.000Z</time>
      </trkpt>
      <trkpt lat="49.82528" lon="4.7907">
        <ele>196</ele>
        <time>2022-06-06T07:46:05.000Z</time>
      </trkpt>
      <trkpt lat="49.82535" lon="4.79071">
        <ele>196</ele>
        <time>2022-06-06T07:46:06.000Z</time>
      </trkpt>
      <trkpt lat="49.82541" lon="4.79072">
        <ele>196</ele>
        <time>2022-06-06T07:46:07.000Z</time>
      </trkpt>
      <trkpt lat="49.82547" lon="4.79074">
        <ele>196</ele>
        <time>2022-06-06T07:46:08.000Z</time>
      </trkpt>
      <trkpt lat="49.82553" lon="4.79075">
        <ele>196</ele>
        <time>2022-06-06T07:46:09.000Z</time>
      </trkpt>
      <trkpt lat="49.82558" lon="4.79076">
        <ele>196</ele>
        <time>2022-06-06T07:46:10.000Z</time>
      </trkpt>
      <trkpt lat="49.82563" lon="4.79078">
        <ele>196</ele>
        <time>2022-06-06T07:46:11.000Z</time>
      </trkpt>
      <trkpt lat="49.82568" lon="4.79079">
        <ele>196</ele>
        <time>2022-06-06T07:46:12.000Z</time>
      </trkpt>
      <trkpt lat="49.82573" lon="4.79079">
        <ele>197</ele>
        <time>2022-06-06T07:46:13.000Z</time>
      </trkpt>
      <trkpt lat="49.82578" lon="4.79081">
        <ele>197</ele>
        <time>2022-06-06T07:46:14.000Z</time>
      </trkpt>
      <trkpt lat="49.82584" lon="4.79082">
        <ele>197</ele>
        <time>2022-06-06T07:46:15.000Z</time>
      </trkpt>
      <trkpt lat="49.8259" lon="4.79082">
        <ele>197</ele>
        <time>2022-06-06T07:46:16.000Z</time>
      </trkpt>
      <trkpt lat="49.82596" lon="4.79083">
        <ele>197</ele>
        <time>2022-06-06T07:46:17.000Z</time>
      </trkpt>
      <trkpt lat="49.82601" lon="4.79084">
        <ele>198</ele>
        <time>2022-06-06T07:46:18.000Z</time>
      </trkpt>
      <trkpt lat="49.82607" lon="4.79085">
        <ele>198</ele>
        <time>2022-06-06T07:46:19.000Z</time>
      </trkpt>
      <trkpt lat="49.82613" lon="4.79086">
        <ele>198</ele>
        <time>2022-06-06T07:46:20.000Z</time>
      </trkpt>
      <trkpt lat="49.82617" lon="4.79088">
        <ele>198</ele>
        <time>2022-06-06T07:46:21.000Z</time>
      </trkpt>
      <trkpt lat="49.82623" lon="4.7909">
        <ele>198</ele>
        <time>2022-06-06T07:46:22.000Z</time>
      </trkpt>
      <trkpt lat="49.82629" lon="4.79093">
        <ele>198</ele>
        <time>2022-06-06T07:46:23.000Z</time>
      </trkpt>
      <trkpt lat="49.82634" lon="4.79096">
        <ele>198</ele>
        <time>2022-06-06T07:46:24.000Z</time>
      </trkpt>
      <trkpt lat="49.82639" lon="4.79099">
        <ele>199</ele>
        <time>2022-06-06T07:46:25.000Z</time>
      </trkpt>
      <trkpt lat="49.82644" lon="4.79101">
        <ele>199</ele>
        <time>2022-06-06T07:46:26.000Z</time>
      </trkpt>
      <trkpt lat="49.82648" lon="4.79102">
        <ele>199</ele>
        <time>2022-06-06T07:46:27.000Z</time>
      </trkpt>
      <trkpt lat="49.82653" lon="4.79103">
        <ele>199</ele>
        <time>2022-06-06T07:46:28.000Z</time>
      </trkpt>
      <trkpt lat="49.82657" lon="4.79104">
        <ele>199</ele>
        <time>2022-06-06T07:46:29.000Z</time>
      </trkpt>
      <trkpt lat="49.82661" lon="4.79104">
        <ele>199</ele>
        <time>2022-06-06T07:46:30.000Z</time>
      </trkpt>
      <trkpt lat="49.82665" lon="4.79105">
        <ele>200</ele>
        <time>2022-06-06T07:46:31.000Z</time>
      </trkpt>
      <trkpt lat="49.8267" lon="4.79105">
        <ele>200</ele>
        <time>2022-06-06T07:46:32.000Z</time>
      </trkpt>
      <trkpt lat="49.82673" lon="4.79105">
        <ele>200</ele>
        <time>2022-06-06T07:46:33.000Z</time>
      </trkpt>
      <trkpt lat="49.82677" lon="4.79106">
        <ele>200</ele>
        <time>2022-06-06T07:46:34.000Z</time>
      </trkpt>
      <trkpt lat="49.82681" lon="4.79106">
        <ele>200</ele>
        <time>2022-06-06T07:46:35.000Z</time>
      </trkpt>
      <trkpt lat="49.82686" lon="4.79107">
        <ele>200</ele>
        <time>2022-06-06T07:46:36.000Z</time>
      </trkpt>
      <trkpt lat="49.8269" lon="4.79109">
        <ele>200</ele>
        <time>2022-06-06T07:46:37.000Z</time>
      </trkpt>
      <trkpt lat="49.82694" lon="4.79111">
        <ele>200</ele>
        <time>2022-06-06T07:46:38.000Z</time>
      </trkpt>
      <trkpt lat="49.82699" lon="4.79113">
        <ele>201</ele>
        <time>2022-06-06T07:46:39.000Z</time>
      </trkpt>
      <trkpt lat="49.82703" lon="4.79116">
        <ele>201</ele>
        <time>2022-06-06T07:46:40.000Z</time>
      </trkpt>
      <trkpt lat="49.82707" lon="4.79119">
        <ele>201</ele>
        <time>2022-06-06T07:46:41.000Z</time>
      </trkpt>
      <trkpt lat="49.82712" lon="4.79123">
        <ele>201</ele>
        <time>2022-06-06T07:46:42.000Z</time>
      </trkpt>
      <trkpt lat="49.82716" lon="4.79127">
        <ele>201</ele>
        <time>2022-06-06T07:46:43.000Z</time>
      </trkpt>
      <trkpt lat="49.82721" lon="4.79131">
        <ele>201</ele>
        <time>2022-06-06T07:46:44.000Z</time>
      </trkpt>
      <trkpt lat="49.82727" lon="4.79134">
        <ele>201</ele>
        <time>2022-06-06T07:46:45.000Z</time>
      </trkpt>
      <trkpt lat="49.82732" lon="4.79138">
        <ele>201</ele>
        <time>2022-06-06T07:46:46.000Z</time>
      </trkpt>
      <trkpt lat="49.82738" lon="4.79142">
        <ele>201</ele>
        <time>2022-06-06T07:46:47.000Z</time>
      </trkpt>
      <trkpt lat="49.82743" lon="4.79146">
        <ele>201</ele>
        <time>2022-06-06T07:46:48.000Z</time>
      </trkpt>
      <trkpt lat="49.82748" lon="4.79151">
        <ele>201</ele>
        <time>2022-06-06T07:46:49.000Z</time>
      </trkpt>
      <trkpt lat="49.82754" lon="4.79155">
        <ele>201</ele>
        <time>2022-06-06T07:46:50.000Z</time>
      </trkpt>
      <trkpt lat="49.82759" lon="4.7916">
        <ele>201</ele>
        <time>2022-06-06T07:46:51.000Z</time>
      </trkpt>
      <trkpt lat="49.82764" lon="4.79164">
        <ele>201</ele>
        <time>2022-06-06T07:46:52.000Z</time>
      </trkpt>
      <trkpt lat="49.82769" lon="4.79169">
        <ele>201</ele>
        <time>2022-06-06T07:46:53.000Z</time>
      </trkpt>
      <trkpt lat="49.82774" lon="4.79175">
        <ele>200</ele>
        <time>2022-06-06T07:46:54.000Z</time>
      </trkpt>
      <trkpt lat="49.82779" lon="4.7918">
        <ele>200</ele>
        <time>2022-06-06T07:46:55.000Z</time>
      </trkpt>
      <trkpt lat="49.82783" lon="4.79187">
        <ele>200</ele>
        <time>2022-06-06T07:46:56.000Z</time>
      </trkpt>
      <trkpt lat="49.82787" lon="4.79193">
        <ele>200</ele>
        <time>2022-06-06T07:46:57.000Z</time>
      </trkpt>
      <trkpt lat="49.82791" lon="4.792">
        <ele>200</ele>
        <time>2022-06-06T07:46:58.000Z</time>
      </trkpt>
      <trkpt lat="49.82795" lon="4.79206">
        <ele>200</ele>
        <time>2022-06-06T07:46:59.000Z</time>
      </trkpt>
      <trkpt lat="49.82798" lon="4.79213">
        <ele>200</ele>
        <time>2022-06-06T07:47:00.000Z</time>
      </trkpt>
      <trkpt lat="49.82801" lon="4.79218">
        <ele>200</ele>
        <time>2022-06-06T07:47:01.000Z</time>
      </trkpt>
      <trkpt lat="49.82804" lon="4.79224">
        <ele>200</ele>
        <time>2022-06-06T07:47:02.000Z</time>
      </trkpt>
      <trkpt lat="49.82807" lon="4.7923">
        <ele>199</ele>
        <time>2022-06-06T07:47:03.000Z</time>
      </trkpt>
      <trkpt lat="49.8281" lon="4.79236">
        <ele>199</ele>
        <time>2022-06-06T07:47:04.000Z</time>
      </trkpt>
      <trkpt lat="49.82814" lon="4.79241">
        <ele>199</ele>
        <time>2022-06-06T07:47:05.000Z</time>
      </trkpt>
      <trkpt lat="49.82817" lon="4.79247">
        <ele>199</ele>
        <time>2022-06-06T07:47:06.000Z</time>
      </trkpt>
      <trkpt lat="49.82821" lon="4.79252">
        <ele>199</ele>
        <time>2022-06-06T07:47:07.000Z</time>
      </trkpt>
      <trkpt lat="49.82824" lon="4.79257">
        <ele>200</ele>
        <time>2022-06-06T07:47:08.000Z</time>
      </trkpt>
      <trkpt lat="49.82828" lon="4.79262">
        <ele>200</ele>
        <time>2022-06-06T07:47:09.000Z</time>
      </trkpt>
      <trkpt lat="49.82832" lon="4.79266">
        <ele>200</ele>
        <time>2022-06-06T07:47:10.000Z</time>
      </trkpt>
      <trkpt lat="49.82837" lon="4.7927">
        <ele>200</ele>
        <time>2022-06-06T07:47:11.000Z</time>
      </trkpt>
      <trkpt lat="49.82842" lon="4.79274">
        <ele>200</ele>
        <time>2022-06-06T07:47:12.000Z</time>
      </trkpt>
      <trkpt lat="49.82846" lon="4.79278">
        <ele>200</ele>
        <time>2022-06-06T07:47:13.000Z</time>
      </trkpt>
      <trkpt lat="49.82851" lon="4.79283">
        <ele>200</ele>
        <time>2022-06-06T07:47:14.000Z</time>
      </trkpt>
      <trkpt lat="49.82856" lon="4.79288">
        <ele>200</ele>
        <time>2022-06-06T07:47:15.000Z</time>
      </trkpt>
      <trkpt lat="49.8286" lon="4.79293">
        <ele>200</ele>
        <time>2022-06-06T07:47:16.000Z</time>
      </trkpt>
      <trkpt lat="49.82864" lon="4.79299">
        <ele>200</ele>
        <time>2022-06-06T07:47:17.000Z</time>
      </trkpt>
      <trkpt lat="49.82868" lon="4.79305">
        <ele>200</ele>
        <time>2022-06-06T07:47:18.000Z</time>
      </trkpt>
      <trkpt lat="49.82871" lon="4.79311">
        <ele>200</ele>
        <time>2022-06-06T07:47:19.000Z</time>
      </trkpt>
      <trkpt lat="49.82874" lon="4.79318">
        <ele>200</ele>
        <time>2022-06-06T07:47:20.000Z</time>
      </trkpt>
      <trkpt lat="49.82876" lon="4.79324">
        <ele>200</ele>
        <time>2022-06-06T07:47:21.000Z</time>
      </trkpt>
      <trkpt lat="49.82879" lon="4.7933">
        <ele>200</ele>
        <time>2022-06-06T07:47:22.000Z</time>
      </trkpt>
      <trkpt lat="49.82882" lon="4.79336">
        <ele>200</ele>
        <time>2022-06-06T07:47:23.000Z</time>
      </trkpt>
      <trkpt lat="49.82886" lon="4.79342">
        <ele>200</ele>
        <time>2022-06-06T07:47:24.000Z</time>
      </trkpt>
      <trkpt lat="49.82889" lon="4.79348">
        <ele>200</ele>
        <time>2022-06-06T07:47:25.000Z</time>
      </trkpt>
      <trkpt lat="49.82891" lon="4.79354">
        <ele>200</ele>
        <time>2022-06-06T07:47:26.000Z</time>
      </trkpt>
      <trkpt lat="49.82894" lon="4.7936">
        <ele>200</ele>
        <time>2022-06-06T07:47:27.000Z</time>
      </trkpt>
      <trkpt lat="49.82895" lon="4.79366">
        <ele>200</ele>
        <time>2022-06-06T07:47:28.000Z</time>
      </trkpt>
      <trkpt lat="49.82897" lon="4.79372">
        <ele>200</ele>
        <time>2022-06-06T07:47:29.000Z</time>
      </trkpt>
      <trkpt lat="49.829" lon="4.79378">
        <ele>200</ele>
        <time>2022-06-06T07:47:30.000Z</time>
      </trkpt>
      <trkpt lat="49.82902" lon="4.79385">
        <ele>200</ele>
        <time>2022-06-06T07:47:31.000Z</time>
      </trkpt>
      <trkpt lat="49.82904" lon="4.79391">
        <ele>200</ele>
        <time>2022-06-06T07:47:32.000Z</time>
      </trkpt>
      <trkpt lat="49.82907" lon="4.79397">
        <ele>200</ele>
        <time>2022-06-06T07:47:33.000Z</time>
      </trkpt>
      <trkpt lat="49.82909" lon="4.79404">
        <ele>200</ele>
        <time>2022-06-06T07:47:34.000Z</time>
      </trkpt>
      <trkpt lat="49.82911" lon="4.7941">
        <ele>201</ele>
        <time>2022-06-06T07:47:35.000Z</time>
      </trkpt>
      <trkpt lat="49.82913" lon="4.79416">
        <ele>201</ele>
        <time>2022-06-06T07:47:36.000Z</time>
      </trkpt>
      <trkpt lat="49.82915" lon="4.79422">
        <ele>201</ele>
        <time>2022-06-06T07:47:37.000Z</time>
      </trkpt>
      <trkpt lat="49.82917" lon="4.79427">
        <ele>201</ele>
        <time>2022-06-06T07:47:38.000Z</time>
      </trkpt>
      <trkpt lat="49.82919" lon="4.79432">
        <ele>201</ele>
        <time>2022-06-06T07:47:39.000Z</time>
      </trkpt>
      <trkpt lat="49.82921" lon="4.79436">
        <ele>201</ele>
        <time>2022-06-06T07:47:40.000Z</time>
      </trkpt>
      <trkpt lat="49.82924" lon="4.7944">
        <ele>201</ele>
        <time>2022-06-06T07:47:41.000Z</time>
      </trkpt>
      <trkpt lat="49.82925" lon="4.79444">
        <ele>201</ele>
        <time>2022-06-06T07:47:42.000Z</time>
      </trkpt>
      <trkpt lat="49.82927" lon="4.79447">
        <ele>201</ele>
        <time>2022-06-06T07:47:43.000Z</time>
      </trkpt>
      <trkpt lat="49.82928" lon="4.7945">
        <ele>201</ele>
        <time>2022-06-06T07:47:44.000Z</time>
      </trkpt>
      <trkpt lat="49.8293" lon="4.79453">
        <ele>202</ele>
        <time>2022-06-06T07:47:45.000Z</time>
      </trkpt>
      <trkpt lat="49.82931" lon="4.79456">
        <ele>202</ele>
        <time>2022-06-06T07:47:46.000Z</time>
      </trkpt>
      <trkpt lat="49.82932" lon="4.79459">
        <ele>202</ele>
        <time>2022-06-06T07:47:47.000Z</time>
      </trkpt>
      <trkpt lat="49.82935" lon="4.79461">
        <ele>202</ele>
        <time>2022-06-06T07:47:48.000Z</time>
      </trkpt>
      <trkpt lat="49.82938" lon="4.79463">
        <ele>202</ele>
        <time>2022-06-06T07:47:49.000Z</time>
      </trkpt>
      <trkpt lat="49.82942" lon="4.79465">
        <ele>202</ele>
        <time>2022-06-06T07:47:50.000Z</time>
      </trkpt>
      <trkpt lat="49.82945" lon="4.79466">
        <ele>203</ele>
        <time>2022-06-06T07:47:51.000Z</time>
      </trkpt>
      <trkpt lat="49.82948" lon="4.79468">
        <ele>203</ele>
        <time>2022-06-06T07:47:52.000Z</time>
      </trkpt>
      <trkpt lat="49.82951" lon="4.7947">
        <ele>203</ele>
        <time>2022-06-06T07:47:53.000Z</time>
      </trkpt>
      <trkpt lat="49.82954" lon="4.79471">
        <ele>203</ele>
        <time>2022-06-06T07:47:54.000Z</time>
      </trkpt>
      <trkpt lat="49.82957" lon="4.79472">
        <ele>203</ele>
        <time>2022-06-06T07:47:55.000Z</time>
      </trkpt>
      <trkpt lat="49.8296" lon="4.79473">
        <ele>204</ele>
        <time>2022-06-06T07:47:56.000Z</time>
      </trkpt>
      <trkpt lat="49.82963" lon="4.79475">
        <ele>204</ele>
        <time>2022-06-06T07:47:57.000Z</time>
      </trkpt>
      <trkpt lat="49.82967" lon="4.79477">
        <ele>204</ele>
        <time>2022-06-06T07:47:58.000Z</time>
      </trkpt>
      <trkpt lat="49.8297" lon="4.79479">
        <ele>204</ele>
        <time>2022-06-06T07:47:59.000Z</time>
      </trkpt>
      <trkpt lat="49.82972" lon="4.79481">
        <ele>204</ele>
        <time>2022-06-06T07:48:00.000Z</time>
      </trkpt>
      <trkpt lat="49.82974" lon="4.79482">
        <ele>205</ele>
        <time>2022-06-06T07:48:01.000Z</time>
      </trkpt>
      <trkpt lat="49.82976" lon="4.79482">
        <ele>205</ele>
        <time>2022-06-06T07:48:02.000Z</time>
      </trkpt>
      <trkpt lat="49.82978" lon="4.79483">
        <ele>205</ele>
        <time>2022-06-06T07:48:03.000Z</time>
      </trkpt>
      <trkpt lat="49.8298" lon="4.79483">
        <ele>205</ele>
        <time>2022-06-06T07:48:04.000Z</time>
      </trkpt>
      <trkpt lat="49.82982" lon="4.79483">
        <ele>206</ele>
        <time>2022-06-06T07:48:05.000Z</time>
      </trkpt>
      <trkpt lat="49.82984" lon="4.79483">
        <ele>206</ele>
        <time>2022-06-06T07:48:06.000Z</time>
      </trkpt>
      <trkpt lat="49.82985" lon="4.79484">
        <ele>206</ele>
        <time>2022-06-06T07:48:07.000Z</time>
      </trkpt>
      <trkpt lat="49.82986" lon="4.79484">
        <ele>207</ele>
        <time>2022-06-06T07:48:08.000Z</time>
      </trkpt>
      <trkpt lat="49.82988" lon="4.79485">
        <ele>207</ele>
        <time>2022-06-06T07:48:09.000Z</time>
      </trkpt>
      <trkpt lat="49.82989" lon="4.79485">
        <ele>207</ele>
        <time>2022-06-06T07:48:10.000Z</time>
      </trkpt>
      <trkpt lat="49.82991" lon="4.79485">
        <ele>207</ele>
        <time>2022-06-06T07:48:11.000Z</time>
      </trkpt>
      <trkpt lat="49.82993" lon="4.79485">
        <ele>208</ele>
        <time>2022-06-06T07:48:12.000Z</time>
      </trkpt>
      <trkpt lat="49.82995" lon="4.79485">
        <ele>208</ele>
        <time>2022-06-06T07:48:13.000Z</time>
      </trkpt>
      <trkpt lat="49.82996" lon="4.79485">
        <ele>208</ele>
        <time>2022-06-06T07:48:14.000Z</time>
      </trkpt>
      <trkpt lat="49.82998" lon="4.79485">
        <ele>209</ele>
        <time>2022-06-06T07:48:15.000Z</time>
      </trkpt>
      <trkpt lat="49.83" lon="4.79485">
        <ele>209</ele>
        <time>2022-06-06T07:48:16.000Z</time>
      </trkpt>
      <trkpt lat="49.83003" lon="4.79485">
        <ele>209</ele>
        <time>2022-06-06T07:48:17.000Z</time>
      </trkpt>
      <trkpt lat="49.83005" lon="4.79485">
        <ele>209</ele>
        <time>2022-06-06T07:48:18.000Z</time>
      </trkpt>
      <trkpt lat="49.83007" lon="4.79484">
        <ele>210</ele>
        <time>2022-06-06T07:48:19.000Z</time>
      </trkpt>
      <trkpt lat="49.8301" lon="4.79483">
        <ele>210</ele>
        <time>2022-06-06T07:48:20.000Z</time>
      </trkpt>
      <trkpt lat="49.83012" lon="4.79483">
        <ele>210</ele>
        <time>2022-06-06T07:48:21.000Z</time>
      </trkpt>
      <trkpt lat="49.83014" lon="4.79482">
        <ele>211</ele>
        <time>2022-06-06T07:48:22.000Z</time>
      </trkpt>
      <trkpt lat="49.83016" lon="4.79481">
        <ele>211</ele>
        <time>2022-06-06T07:48:23.000Z</time>
      </trkpt>
      <trkpt lat="49.83018" lon="4.79481">
        <ele>211</ele>
        <time>2022-06-06T07:48:24.000Z</time>
      </trkpt>
      <trkpt lat="49.8302" lon="4.7948">
        <ele>212</ele>
        <time>2022-06-06T07:48:25.000Z</time>
      </trkpt>
      <trkpt lat="49.83022" lon="4.7948">
        <ele>212</ele>
        <time>2022-06-06T07:48:26.000Z</time>
      </trkpt>
      <trkpt lat="49.83024" lon="4.79479">
        <ele>212</ele>
        <time>2022-06-06T07:48:27.000Z</time>
      </trkpt>
      <trkpt lat="49.83025" lon="4.79479">
        <ele>213</ele>
        <time>2022-06-06T07:48:28.000Z</time>
      </trkpt>
      <trkpt lat="49.83026" lon="4.79479">
        <ele>213</ele>
        <time>2022-06-06T07:48:29.000Z</time>
      </trkpt>
      <trkpt lat="49.83028" lon="4.79478">
        <ele>214</ele>
        <time>2022-06-06T07:48:30.000Z</time>
      </trkpt>
      <trkpt lat="49.8303" lon="4.79478">
        <ele>214</ele>
        <time>2022-06-06T07:48:31.000Z</time>
      </trkpt>
      <trkpt lat="49.83032" lon="4.79478">
        <ele>215</ele>
        <time>2022-06-06T07:48:32.000Z</time>
      </trkpt>
      <trkpt lat="49.83033" lon="4.79478">
        <ele>215</ele>
        <time>2022-06-06T07:48:33.000Z</time>
      </trkpt>
      <trkpt lat="49.83035" lon="4.79477">
        <ele>215</ele>
        <time>2022-06-06T07:48:34.000Z</time>
      </trkpt>
      <trkpt lat="49.83037" lon="4.79477">
        <ele>216</ele>
        <time>2022-06-06T07:48:35.000Z</time>
      </trkpt>
      <trkpt lat="49.83039" lon="4.79477">
        <ele>216</ele>
        <time>2022-06-06T07:48:36.000Z</time>
      </trkpt>
      <trkpt lat="49.83041" lon="4.79476">
        <ele>216</ele>
        <time>2022-06-06T07:48:37.000Z</time>
      </trkpt>
      <trkpt lat="49.83042" lon="4.79475">
        <ele>217</ele>
        <time>2022-06-06T07:48:38.000Z</time>
      </trkpt>
      <trkpt lat="49.83044" lon="4.79473">
        <ele>217</ele>
        <time>2022-06-06T07:48:39.000Z</time>
      </trkpt>
      <trkpt lat="49.83047" lon="4.79471">
        <ele>217</ele>
        <time>2022-06-06T07:48:40.000Z</time>
      </trkpt>
      <trkpt lat="49.83048" lon="4.79468">
        <ele>218</ele>
        <time>2022-06-06T07:48:41.000Z</time>
      </trkpt>
      <trkpt lat="49.83049" lon="4.79465">
        <ele>218</ele>
        <time>2022-06-06T07:48:42.000Z</time>
      </trkpt>
      <trkpt lat="49.83049" lon="4.79462">
        <ele>218</ele>
        <time>2022-06-06T07:48:43.000Z</time>
      </trkpt>
      <trkpt lat="49.83048" lon="4.79459">
        <ele>219</ele>
        <time>2022-06-06T07:48:44.000Z</time>
      </trkpt>
      <trkpt lat="49.83047" lon="4.79458">
        <ele>219</ele>
        <time>2022-06-06T07:48:45.000Z</time>
      </trkpt>
      <trkpt lat="49.83046" lon="4.79456">
        <ele>219</ele>
        <time>2022-06-06T07:48:46.000Z</time>
      </trkpt>
      <trkpt lat="49.83045" lon="4.79456">
        <ele>219</ele>
        <time>2022-06-06T07:48:47.000Z</time>
      </trkpt>
      <trkpt lat="49.83043" lon="4.79456">
        <ele>219</ele>
        <time>2022-06-06T07:48:48.000Z</time>
      </trkpt>
      <trkpt lat="49.83042" lon="4.79456">
        <ele>219</ele>
        <time>2022-06-06T07:48:49.000Z</time>
      </trkpt>
      <trkpt lat="49.83041" lon="4.79456">
        <ele>219</ele>
        <time>2022-06-06T07:48:50.000Z</time>
      </trkpt>
      <trkpt lat="49.83039" lon="4.79457">
        <ele>219</ele>
        <time>2022-06-06T07:48:51.000Z</time>
      </trkpt>
      <trkpt lat="49.83038" lon="4.79456">
        <ele>220</ele>
        <time>2022-06-06T07:48:52.000Z</time>
      </trkpt>
      <trkpt lat="49.83035" lon="4.79455">
        <ele>220</ele>
        <time>2022-06-06T07:48:53.000Z</time>
      </trkpt>
      <trkpt lat="49.83033" lon="4.79453">
        <ele>220</ele>
        <time>2022-06-06T07:48:54.000Z</time>
      </trkpt>
      <trkpt lat="49.83031" lon="4.79451">
        <ele>220</ele>
        <time>2022-06-06T07:48:55.000Z</time>
      </trkpt>
      <trkpt lat="49.83029" lon="4.79449">
        <ele>220</ele>
        <time>2022-06-06T07:48:56.000Z</time>
      </trkpt>
      <trkpt lat="49.83027" lon="4.79447">
        <ele>220</ele>
        <time>2022-06-06T07:48:57.000Z</time>
      </trkpt>
      <trkpt lat="49.83025" lon="4.79445">
        <ele>220</ele>
        <time>2022-06-06T07:48:58.000Z</time>
      </trkpt>
      <trkpt lat="49.83023" lon="4.79443">
        <ele>221</ele>
        <time>2022-06-06T07:48:59.000Z</time>
      </trkpt>
      <trkpt lat="49.83022" lon="4.79442">
        <ele>221</ele>
        <time>2022-06-06T07:49:00.000Z</time>
      </trkpt>
      <trkpt lat="49.83021" lon="4.7944">
        <ele>221</ele>
        <time>2022-06-06T07:49:01.000Z</time>
      </trkpt>
      <trkpt lat="49.8302" lon="4.79438">
        <ele>221</ele>
        <time>2022-06-06T07:49:02.000Z</time>
      </trkpt>
      <trkpt lat="49.83019" lon="4.79437">
        <ele>221</ele>
        <time>2022-06-06T07:49:03.000Z</time>
      </trkpt>
      <trkpt lat="49.83019" lon="4.79435">
        <ele>221</ele>
        <time>2022-06-06T07:49:04.000Z</time>
      </trkpt>
      <trkpt lat="49.83017" lon="4.79433">
        <ele>222</ele>
        <time>2022-06-06T07:49:05.000Z</time>
      </trkpt>
      <trkpt lat="49.83017" lon="4.79432">
        <ele>222</ele>
        <time>2022-06-06T07:49:06.000Z</time>
      </trkpt>
      <trkpt lat="49.83016" lon="4.7943">
        <ele>222</ele>
        <time>2022-06-06T07:49:07.000Z</time>
      </trkpt>
      <trkpt lat="49.83014" lon="4.79428">
        <ele>222</ele>
        <time>2022-06-06T07:49:08.000Z</time>
      </trkpt>
      <trkpt lat="49.83013" lon="4.79426">
        <ele>222</ele>
        <time>2022-06-06T07:49:09.000Z</time>
      </trkpt>
      <trkpt lat="49.83011" lon="4.79425">
        <ele>222</ele>
        <time>2022-06-06T07:49:10.000Z</time>
      </trkpt>
      <trkpt lat="49.83009" lon="4.79423">
        <ele>222</ele>
        <time>2022-06-06T07:49:11.000Z</time>
      </trkpt>
      <trkpt lat="49.83007" lon="4.79422">
        <ele>223</ele>
        <time>2022-06-06T07:49:12.000Z</time>
      </trkpt>
      <trkpt lat="49.83005" lon="4.79421">
        <ele>223</ele>
        <time>2022-06-06T07:49:13.000Z</time>
      </trkpt>
      <trkpt lat="49.83004" lon="4.79418">
        <ele>223</ele>
        <time>2022-06-06T07:49:14.000Z</time>
      </trkpt>
      <trkpt lat="49.83002" lon="4.79417">
        <ele>223</ele>
        <time>2022-06-06T07:49:15.000Z</time>
      </trkpt>
      <trkpt lat="49.83" lon="4.79415">
        <ele>223</ele>
        <time>2022-06-06T07:49:16.000Z</time>
      </trkpt>
      <trkpt lat="49.82998" lon="4.79413">
        <ele>223</ele>
        <time>2022-06-06T07:49:17.000Z</time>
      </trkpt>
      <trkpt lat="49.82996" lon="4.79412">
        <ele>223</ele>
        <time>2022-06-06T07:49:18.000Z</time>
      </trkpt>
      <trkpt lat="49.82994" lon="4.7941">
        <ele>223</ele>
        <time>2022-06-06T07:49:19.000Z</time>
      </trkpt>
      <trkpt lat="49.82993" lon="4.79408">
        <ele>224</ele>
        <time>2022-06-06T07:49:20.000Z</time>
      </trkpt>
      <trkpt lat="49.82991" lon="4.79406">
        <ele>224</ele>
        <time>2022-06-06T07:49:21.000Z</time>
      </trkpt>
      <trkpt lat="49.8299" lon="4.79404">
        <ele>224</ele>
        <time>2022-06-06T07:49:22.000Z</time>
      </trkpt>
      <trkpt lat="49.82988" lon="4.79401">
        <ele>224</ele>
        <time>2022-06-06T07:49:23.000Z</time>
      </trkpt>
      <trkpt lat="49.82986" lon="4.79399">
        <ele>224</ele>
        <time>2022-06-06T07:49:24.000Z</time>
      </trkpt>
      <trkpt lat="49.82985" lon="4.79397">
        <ele>225</ele>
        <time>2022-06-06T07:49:25.000Z</time>
      </trkpt>
      <trkpt lat="49.82983" lon="4.79395">
        <ele>225</ele>
        <time>2022-06-06T07:49:26.000Z</time>
      </trkpt>
      <trkpt lat="49.82982" lon="4.79393">
        <ele>225</ele>
        <time>2022-06-06T07:49:27.000Z</time>
      </trkpt>
      <trkpt lat="49.8298" lon="4.79391">
        <ele>225</ele>
        <time>2022-06-06T07:49:28.000Z</time>
      </trkpt>
      <trkpt lat="49.82978" lon="4.79389">
        <ele>226</ele>
        <time>2022-06-06T07:49:29.000Z</time>
      </trkpt>
      <trkpt lat="49.82977" lon="4.79387">
        <ele>226</ele>
        <time>2022-06-06T07:49:30.000Z</time>
      </trkpt>
      <trkpt lat="49.82976" lon="4.79384">
        <ele>226</ele>
        <time>2022-06-06T07:49:31.000Z</time>
      </trkpt>
      <trkpt lat="49.82975" lon="4.79382">
        <ele>226</ele>
        <time>2022-06-06T07:49:32.000Z</time>
      </trkpt>
      <trkpt lat="49.82973" lon="4.7938">
        <ele>227</ele>
        <time>2022-06-06T07:49:33.000Z</time>
      </trkpt>
      <trkpt lat="49.82972" lon="4.79378">
        <ele>227</ele>
        <time>2022-06-06T07:49:34.000Z</time>
      </trkpt>
      <trkpt lat="49.8297" lon="4.79376">
        <ele>227</ele>
        <time>2022-06-06T07:49:35.000Z</time>
      </trkpt>
      <trkpt lat="49.82969" lon="4.79374">
        <ele>228</ele>
        <time>2022-06-06T07:49:36.000Z</time>
      </trkpt>
      <trkpt lat="49.82967" lon="4.79372">
        <ele>228</ele>
        <time>2022-06-06T07:49:37.000Z</time>
      </trkpt>
      <trkpt lat="49.82965" lon="4.7937">
        <ele>228</ele>
        <time>2022-06-06T07:49:38.000Z</time>
      </trkpt>
      <trkpt lat="49.82964" lon="4.79367">
        <ele>229</ele>
        <time>2022-06-06T07:49:39.000Z</time>
      </trkpt>
      <trkpt lat="49.82962" lon="4.79365">
        <ele>229</ele>
        <time>2022-06-06T07:49:40.000Z</time>
      </trkpt>
      <trkpt lat="49.82961" lon="4.79363">
        <ele>229</ele>
        <time>2022-06-06T07:49:41.000Z</time>
      </trkpt>
      <trkpt lat="49.82959" lon="4.7936">
        <ele>229</ele>
        <time>2022-06-06T07:49:42.000Z</time>
      </trkpt>
      <trkpt lat="49.82958" lon="4.79358">
        <ele>230</ele>
        <time>2022-06-06T07:49:43.000Z</time>
      </trkpt>
      <trkpt lat="49.82956" lon="4.79355">
        <ele>230</ele>
        <time>2022-06-06T07:49:44.000Z</time>
      </trkpt>
      <trkpt lat="49.82955" lon="4.79353">
        <ele>230</ele>
        <time>2022-06-06T07:49:45.000Z</time>
      </trkpt>
      <trkpt lat="49.82953" lon="4.7935">
        <ele>230</ele>
        <time>2022-06-06T07:49:46.000Z</time>
      </trkpt>
      <trkpt lat="49.82952" lon="4.79348">
        <ele>230</ele>
        <time>2022-06-06T07:49:47.000Z</time>
      </trkpt>
      <trkpt lat="49.82952" lon="4.79344">
        <ele>230</ele>
        <time>2022-06-06T07:49:48.000Z</time>
      </trkpt>
      <trkpt lat="49.82951" lon="4.79342">
        <ele>230</ele>
        <time>2022-06-06T07:49:49.000Z</time>
      </trkpt>
      <trkpt lat="49.8295" lon="4.79339">
        <ele>230</ele>
        <time>2022-06-06T07:49:50.000Z</time>
      </trkpt>
      <trkpt lat="49.82949" lon="4.79336">
        <ele>231</ele>
        <time>2022-06-06T07:49:51.000Z</time>
      </trkpt>
      <trkpt lat="49.82948" lon="4.79333">
        <ele>231</ele>
        <time>2022-06-06T07:49:52.000Z</time>
      </trkpt>
      <trkpt lat="49.82947" lon="4.7933">
        <ele>231</ele>
        <time>2022-06-06T07:49:53.000Z</time>
      </trkpt>
      <trkpt lat="49.82947" lon="4.79327">
        <ele>231</ele>
        <time>2022-06-06T07:49:54.000Z</time>
      </trkpt>
      <trkpt lat="49.82946" lon="4.79324">
        <ele>231</ele>
        <time>2022-06-06T07:49:55.000Z</time>
      </trkpt>
      <trkpt lat="49.82945" lon="4.79321">
        <ele>231</ele>
        <time>2022-06-06T07:49:56.000Z</time>
      </trkpt>
      <trkpt lat="49.82945" lon="4.79318">
        <ele>231</ele>
        <time>2022-06-06T07:49:57.000Z</time>
      </trkpt>
      <trkpt lat="49.82944" lon="4.79315">
        <ele>231</ele>
        <time>2022-06-06T07:49:58.000Z</time>
      </trkpt>
      <trkpt lat="49.82944" lon="4.79311">
        <ele>231</ele>
        <time>2022-06-06T07:49:59.000Z</time>
      </trkpt>
      <trkpt lat="49.82944" lon="4.79308">
        <ele>231</ele>
        <time>2022-06-06T07:50:00.000Z</time>
      </trkpt>
      <trkpt lat="49.82943" lon="4.79305">
        <ele>232</ele>
        <time>2022-06-06T07:50:01.000Z</time>
      </trkpt>
      <trkpt lat="49.82942" lon="4.79302">
        <ele>232</ele>
        <time>2022-06-06T07:50:02.000Z</time>
      </trkpt>
      <trkpt lat="49.82942" lon="4.79299">
        <ele>232</ele>
        <time>2022-06-06T07:50:03.000Z</time>
      </trkpt>
      <trkpt lat="49.82942" lon="4.79295">
        <ele>232</ele>
        <time>2022-06-06T07:50:04.000Z</time>
      </trkpt>
      <trkpt lat="49.82942" lon="4.79292">
        <ele>232</ele>
        <time>2022-06-06T07:50:05.000Z</time>
      </trkpt>
      <trkpt lat="49.82941" lon="4.79288">
        <ele>233</ele>
        <time>2022-06-06T07:50:06.000Z</time>
      </trkpt>
      <trkpt lat="49.8294" lon="4.79285">
        <ele>233</ele>
        <time>2022-06-06T07:50:07.000Z</time>
      </trkpt>
      <trkpt lat="49.8294" lon="4.79281">
        <ele>233</ele>
        <time>2022-06-06T07:50:08.000Z</time>
      </trkpt>
      <trkpt lat="49.82939" lon="4.79277">
        <ele>233</ele>
        <time>2022-06-06T07:50:09.000Z</time>
      </trkpt>
      <trkpt lat="49.82939" lon="4.79274">
        <ele>233</ele>
        <time>2022-06-06T07:50:10.000Z</time>
      </trkpt>
      <trkpt lat="49.82938" lon="4.7927">
        <ele>234</ele>
        <time>2022-06-06T07:50:11.000Z</time>
      </trkpt>
      <trkpt lat="49.82938" lon="4.79267">
        <ele>234</ele>
        <time>2022-06-06T07:50:12.000Z</time>
      </trkpt>
      <trkpt lat="49.82938" lon="4.79263">
        <ele>234</ele>
        <time>2022-06-06T07:50:13.000Z</time>
      </trkpt>
      <trkpt lat="49.82938" lon="4.79258">
        <ele>234</ele>
        <time>2022-06-06T07:50:14.000Z</time>
      </trkpt>
      <trkpt lat="49.82938" lon="4.79254">
        <ele>234</ele>
        <time>2022-06-06T07:50:15.000Z</time>
      </trkpt>
      <trkpt lat="49.82938" lon="4.79249">
        <ele>235</ele>
        <time>2022-06-06T07:50:16.000Z</time>
      </trkpt>
      <trkpt lat="49.82939" lon="4.79244">
        <ele>235</ele>
        <time>2022-06-06T07:50:17.000Z</time>
      </trkpt>
      <trkpt lat="49.82938" lon="4.7924">
        <ele>235</ele>
        <time>2022-06-06T07:50:18.000Z</time>
      </trkpt>
      <trkpt lat="49.82938" lon="4.79235">
        <ele>235</ele>
        <time>2022-06-06T07:50:19.000Z</time>
      </trkpt>
      <trkpt lat="49.82939" lon="4.79231">
        <ele>236</ele>
        <time>2022-06-06T07:50:20.000Z</time>
      </trkpt>
      <trkpt lat="49.82939" lon="4.79227">
        <ele>236</ele>
        <time>2022-06-06T07:50:21.000Z</time>
      </trkpt>
      <trkpt lat="49.82939" lon="4.79222">
        <ele>236</ele>
        <time>2022-06-06T07:50:22.000Z</time>
      </trkpt>
      <trkpt lat="49.82939" lon="4.79219">
        <ele>237</ele>
        <time>2022-06-06T07:50:23.000Z</time>
      </trkpt>
      <trkpt lat="49.8294" lon="4.79216">
        <ele>237</ele>
        <time>2022-06-06T07:50:24.000Z</time>
      </trkpt>
      <trkpt lat="49.82941" lon="4.79214">
        <ele>237</ele>
        <time>2022-06-06T07:50:25.000Z</time>
      </trkpt>
      <trkpt lat="49.8294" lon="4.79212">
        <ele>237</ele>
        <time>2022-06-06T07:50:26.000Z</time>
      </trkpt>
      <trkpt lat="49.8294" lon="4.7921">
        <ele>238</ele>
        <time>2022-06-06T07:50:27.000Z</time>
      </trkpt>
      <trkpt lat="49.8294" lon="4.79206">
        <ele>238</ele>
        <time>2022-06-06T07:50:28.000Z</time>
      </trkpt>
      <trkpt lat="49.8294" lon="4.79202">
        <ele>238</ele>
        <time>2022-06-06T07:50:29.000Z</time>
      </trkpt>
      <trkpt lat="49.8294" lon="4.79199">
        <ele>238</ele>
        <time>2022-06-06T07:50:30.000Z</time>
      </trkpt>
      <trkpt lat="49.8294" lon="4.79195">
        <ele>239</ele>
        <time>2022-06-06T07:50:31.000Z</time>
      </trkpt>
      <trkpt lat="49.8294" lon="4.79192">
        <ele>239</ele>
        <time>2022-06-06T07:50:32.000Z</time>
      </trkpt>
      <trkpt lat="49.8294" lon="4.79188">
        <ele>240</ele>
        <time>2022-06-06T07:50:33.000Z</time>
      </trkpt>
      <trkpt lat="49.8294" lon="4.79184">
        <ele>240</ele>
        <time>2022-06-06T07:50:34.000Z</time>
      </trkpt>
      <trkpt lat="49.82939" lon="4.7918">
        <ele>241</ele>
        <time>2022-06-06T07:50:35.000Z</time>
      </trkpt>
      <trkpt lat="49.82938" lon="4.79177">
        <ele>241</ele>
        <time>2022-06-06T07:50:36.000Z</time>
      </trkpt>
      <trkpt lat="49.82937" lon="4.79173">
        <ele>241</ele>
        <time>2022-06-06T07:50:37.000Z</time>
      </trkpt>
      <trkpt lat="49.82936" lon="4.7917">
        <ele>242</ele>
        <time>2022-06-06T07:50:38.000Z</time>
      </trkpt>
      <trkpt lat="49.82935" lon="4.79166">
        <ele>242</ele>
        <time>2022-06-06T07:50:39.000Z</time>
      </trkpt>
      <trkpt lat="49.82935" lon="4.79162">
        <ele>243</ele>
        <time>2022-06-06T07:50:40.000Z</time>
      </trkpt>
      <trkpt lat="49.82934" lon="4.79159">
        <ele>243</ele>
        <time>2022-06-06T07:50:41.000Z</time>
      </trkpt>
      <trkpt lat="49.82934" lon="4.79156">
        <ele>244</ele>
        <time>2022-06-06T07:50:42.000Z</time>
      </trkpt>
      <trkpt lat="49.82933" lon="4.79153">
        <ele>244</ele>
        <time>2022-06-06T07:50:43.000Z</time>
      </trkpt>
      <trkpt lat="49.82932" lon="4.79149">
        <ele>245</ele>
        <time>2022-06-06T07:50:44.000Z</time>
      </trkpt>
      <trkpt lat="49.82932" lon="4.79146">
        <ele>245</ele>
        <time>2022-06-06T07:50:45.000Z</time>
      </trkpt>
      <trkpt lat="49.82931" lon="4.79142">
        <ele>245</ele>
        <time>2022-06-06T07:50:46.000Z</time>
      </trkpt>
      <trkpt lat="49.82931" lon="4.79138">
        <ele>246</ele>
        <time>2022-06-06T07:50:47.000Z</time>
      </trkpt>
      <trkpt lat="49.8293" lon="4.79135">
        <ele>246</ele>
        <time>2022-06-06T07:50:48.000Z</time>
      </trkpt>
      <trkpt lat="49.8293" lon="4.79132">
        <ele>246</ele>
        <time>2022-06-06T07:50:49.000Z</time>
      </trkpt>
      <trkpt lat="49.8293" lon="4.79129">
        <ele>246</ele>
        <time>2022-06-06T07:50:50.000Z</time>
      </trkpt>
      <trkpt lat="49.8293" lon="4.79126">
        <ele>247</ele>
        <time>2022-06-06T07:50:51.000Z</time>
      </trkpt>
      <trkpt lat="49.82929" lon="4.79123">
        <ele>247</ele>
        <time>2022-06-06T07:50:52.000Z</time>
      </trkpt>
      <trkpt lat="49.82929" lon="4.7912">
        <ele>247</ele>
        <time>2022-06-06T07:50:53.000Z</time>
      </trkpt>
      <trkpt lat="49.82928" lon="4.79117">
        <ele>247</ele>
        <time>2022-06-06T07:50:54.000Z</time>
      </trkpt>
      <trkpt lat="49.82928" lon="4.79114">
        <ele>247</ele>
        <time>2022-06-06T07:50:55.000Z</time>
      </trkpt>
      <trkpt lat="49.82927" lon="4.7911">
        <ele>248</ele>
        <time>2022-06-06T07:50:56.000Z</time>
      </trkpt>
      <trkpt lat="49.82926" lon="4.79107">
        <ele>248</ele>
        <time>2022-06-06T07:50:57.000Z</time>
      </trkpt>
      <trkpt lat="49.82925" lon="4.79104">
        <ele>248</ele>
        <time>2022-06-06T07:50:58.000Z</time>
      </trkpt>
      <trkpt lat="49.82925" lon="4.791">
        <ele>248</ele>
        <time>2022-06-06T07:50:59.000Z</time>
      </trkpt>
      <trkpt lat="49.82923" lon="4.79097">
        <ele>249</ele>
        <time>2022-06-06T07:51:00.000Z</time>
      </trkpt>
      <trkpt lat="49.82922" lon="4.79094">
        <ele>249</ele>
        <time>2022-06-06T07:51:01.000Z</time>
      </trkpt>
      <trkpt lat="49.8292" lon="4.79091">
        <ele>249</ele>
        <time>2022-06-06T07:51:02.000Z</time>
      </trkpt>
      <trkpt lat="49.82917" lon="4.79088">
        <ele>249</ele>
        <time>2022-06-06T07:51:03.000Z</time>
      </trkpt>
      <trkpt lat="49.82915" lon="4.79085">
        <ele>249</ele>
        <time>2022-06-06T07:51:04.000Z</time>
      </trkpt>
      <trkpt lat="49.82912" lon="4.79082">
        <ele>250</ele>
        <time>2022-06-06T07:51:05.000Z</time>
      </trkpt>
      <trkpt lat="49.82909" lon="4.79079">
        <ele>250</ele>
        <time>2022-06-06T07:51:06.000Z</time>
      </trkpt>
      <trkpt lat="49.82906" lon="4.79075">
        <ele>250</ele>
        <time>2022-06-06T07:51:07.000Z</time>
      </trkpt>
      <trkpt lat="49.82903" lon="4.79072">
        <ele>250</ele>
        <time>2022-06-06T07:51:08.000Z</time>
      </trkpt>
      <trkpt lat="49.829" lon="4.79068">
        <ele>250</ele>
        <time>2022-06-06T07:51:09.000Z</time>
      </trkpt>
      <trkpt lat="49.82897" lon="4.79065">
        <ele>250</ele>
        <time>2022-06-06T07:51:10.000Z</time>
      </trkpt>
      <trkpt lat="49.82896" lon="4.79062">
        <ele>250</ele>
        <time>2022-06-06T07:51:11.000Z</time>
      </trkpt>
      <trkpt lat="49.82893" lon="4.79059">
        <ele>250</ele>
        <time>2022-06-06T07:51:12.000Z</time>
      </trkpt>
      <trkpt lat="49.82891" lon="4.79058">
        <ele>251</ele>
        <time>2022-06-06T07:51:13.000Z</time>
      </trkpt>
      <trkpt lat="49.82889" lon="4.79056">
        <ele>251</ele>
        <time>2022-06-06T07:51:14.000Z</time>
      </trkpt>
      <trkpt lat="49.82887" lon="4.79053">
        <ele>251</ele>
        <time>2022-06-06T07:51:15.000Z</time>
      </trkpt>
      <trkpt lat="49.82885" lon="4.79051">
        <ele>251</ele>
        <time>2022-06-06T07:51:16.000Z</time>
      </trkpt>
      <trkpt lat="49.82882" lon="4.79048">
        <ele>251</ele>
        <time>2022-06-06T07:51:17.000Z</time>
      </trkpt>
      <trkpt lat="49.8288" lon="4.79046">
        <ele>252</ele>
        <time>2022-06-06T07:51:18.000Z</time>
      </trkpt>
      <trkpt lat="49.82878" lon="4.79043">
        <ele>252</ele>
        <time>2022-06-06T07:51:19.000Z</time>
      </trkpt>
      <trkpt lat="49.82875" lon="4.7904">
        <ele>252</ele>
        <time>2022-06-06T07:51:20.000Z</time>
      </trkpt>
      <trkpt lat="49.82873" lon="4.79037">
        <ele>252</ele>
        <time>2022-06-06T07:51:21.000Z</time>
      </trkpt>
      <trkpt lat="49.82871" lon="4.79035">
        <ele>253</ele>
        <time>2022-06-06T07:51:22.000Z</time>
      </trkpt>
      <trkpt lat="49.8287" lon="4.79031">
        <ele>253</ele>
        <time>2022-06-06T07:51:23.000Z</time>
      </trkpt>
      <trkpt lat="49.82869" lon="4.79028">
        <ele>253</ele>
        <time>2022-06-06T07:51:24.000Z</time>
      </trkpt>
      <trkpt lat="49.82867" lon="4.79026">
        <ele>253</ele>
        <time>2022-06-06T07:51:25.000Z</time>
      </trkpt>
      <trkpt lat="49.82865" lon="4.79023">
        <ele>253</ele>
        <time>2022-06-06T07:51:26.000Z</time>
      </trkpt>
      <trkpt lat="49.82863" lon="4.79021">
        <ele>253</ele>
        <time>2022-06-06T07:51:27.000Z</time>
      </trkpt>
      <trkpt lat="49.82861" lon="4.79018">
        <ele>253</ele>
        <time>2022-06-06T07:51:28.000Z</time>
      </trkpt>
      <trkpt lat="49.8286" lon="4.79016">
        <ele>253</ele>
        <time>2022-06-06T07:51:29.000Z</time>
      </trkpt>
      <trkpt lat="49.82858" lon="4.79013">
        <ele>253</ele>
        <time>2022-06-06T07:51:30.000Z</time>
      </trkpt>
      <trkpt lat="49.82857" lon="4.79009">
        <ele>253</ele>
        <time>2022-06-06T07:51:31.000Z</time>
      </trkpt>
      <trkpt lat="49.82856" lon="4.79006">
        <ele>253</ele>
        <time>2022-06-06T07:51:32.000Z</time>
      </trkpt>
      <trkpt lat="49.82855" lon="4.79002">
        <ele>253</ele>
        <time>2022-06-06T07:51:33.000Z</time>
      </trkpt>
      <trkpt lat="49.82855" lon="4.78999">
        <ele>253</ele>
        <time>2022-06-06T07:51:34.000Z</time>
      </trkpt>
      <trkpt lat="49.82855" lon="4.78995">
        <ele>253</ele>
        <time>2022-06-06T07:51:35.000Z</time>
      </trkpt>
      <trkpt lat="49.82854" lon="4.78992">
        <ele>253</ele>
        <time>2022-06-06T07:51:36.000Z</time>
      </trkpt>
      <trkpt lat="49.82854" lon="4.78989">
        <ele>253</ele>
        <time>2022-06-06T07:51:37.000Z</time>
      </trkpt>
      <trkpt lat="49.82853" lon="4.78985">
        <ele>253</ele>
        <time>2022-06-06T07:51:38.000Z</time>
      </trkpt>
      <trkpt lat="49.82854" lon="4.78982">
        <ele>253</ele>
        <time>2022-06-06T07:51:39.000Z</time>
      </trkpt>
      <trkpt lat="49.82854" lon="4.78979">
        <ele>254</ele>
        <time>2022-06-06T07:51:40.000Z</time>
      </trkpt>
      <trkpt lat="49.82855" lon="4.78977">
        <ele>254</ele>
        <time>2022-06-06T07:51:41.000Z</time>
      </trkpt>
      <trkpt lat="49.82856" lon="4.78974">
        <ele>254</ele>
        <time>2022-06-06T07:51:42.000Z</time>
      </trkpt>
      <trkpt lat="49.82858" lon="4.78972">
        <ele>254</ele>
        <time>2022-06-06T07:51:43.000Z</time>
      </trkpt>
      <trkpt lat="49.82859" lon="4.7897">
        <ele>254</ele>
        <time>2022-06-06T07:51:44.000Z</time>
      </trkpt>
      <trkpt lat="49.82861" lon="4.78968">
        <ele>255</ele>
        <time>2022-06-06T07:51:45.000Z</time>
      </trkpt>
      <trkpt lat="49.82863" lon="4.78967">
        <ele>255</ele>
        <time>2022-06-06T07:51:46.000Z</time>
      </trkpt>
      <trkpt lat="49.82865" lon="4.78966">
        <ele>255</ele>
        <time>2022-06-06T07:51:47.000Z</time>
      </trkpt>
      <trkpt lat="49.82867" lon="4.78966">
        <ele>256</ele>
        <time>2022-06-06T07:51:48.000Z</time>
      </trkpt>
      <trkpt lat="49.82869" lon="4.78966">
        <ele>256</ele>
        <time>2022-06-06T07:51:49.000Z</time>
      </trkpt>
      <trkpt lat="49.8287" lon="4.78968">
        <ele>256</ele>
        <time>2022-06-06T07:51:50.000Z</time>
      </trkpt>
      <trkpt lat="49.82872" lon="4.7897">
        <ele>257</ele>
        <time>2022-06-06T07:51:51.000Z</time>
      </trkpt>
      <trkpt lat="49.82873" lon="4.78971">
        <ele>257</ele>
        <time>2022-06-06T07:51:52.000Z</time>
      </trkpt>
      <trkpt lat="49.82875" lon="4.78973">
        <ele>257</ele>
        <time>2022-06-06T07:51:53.000Z</time>
      </trkpt>
      <trkpt lat="49.82876" lon="4.78975">
        <ele>258</ele>
        <time>2022-06-06T07:51:54.000Z</time>
      </trkpt>
      <trkpt lat="49.82877" lon="4.78977">
        <ele>258</ele>
        <time>2022-06-06T07:51:55.000Z</time>
      </trkpt>
      <trkpt lat="49.82879" lon="4.78979">
        <ele>258</ele>
        <time>2022-06-06T07:51:56.000Z</time>
      </trkpt>
      <trkpt lat="49.8288" lon="4.78981">
        <ele>258</ele>
        <time>2022-06-06T07:51:57.000Z</time>
      </trkpt>
      <trkpt lat="49.82882" lon="4.78983">
        <ele>259</ele>
        <time>2022-06-06T07:51:58.000Z</time>
      </trkpt>
      <trkpt lat="49.82883" lon="4.78986">
        <ele>259</ele>
        <time>2022-06-06T07:51:59.000Z</time>
      </trkpt>
      <trkpt lat="49.82885" lon="4.78988">
        <ele>259</ele>
        <time>2022-06-06T07:52:00.000Z</time>
      </trkpt>
      <trkpt lat="49.82886" lon="4.7899">
        <ele>259</ele>
        <time>2022-06-06T07:52:01.000Z</time>
      </trkpt>
      <trkpt lat="49.82888" lon="4.78993">
        <ele>260</ele>
        <time>2022-06-06T07:52:02.000Z</time>
      </trkpt>
      <trkpt lat="49.8289" lon="4.78995">
        <ele>260</ele>
        <time>2022-06-06T07:52:03.000Z</time>
      </trkpt>
      <trkpt lat="49.82891" lon="4.78997">
        <ele>260</ele>
        <time>2022-06-06T07:52:04.000Z</time>
      </trkpt>
      <trkpt lat="49.82893" lon="4.79">
        <ele>260</ele>
        <time>2022-06-06T07:52:05.000Z</time>
      </trkpt>
      <trkpt lat="49.82895" lon="4.79002">
        <ele>261</ele>
        <time>2022-06-06T07:52:06.000Z</time>
      </trkpt>
      <trkpt lat="49.82896" lon="4.79004">
        <ele>261</ele>
        <time>2022-06-06T07:52:07.000Z</time>
      </trkpt>
      <trkpt lat="49.82898" lon="4.79006">
        <ele>261</ele>
        <time>2022-06-06T07:52:08.000Z</time>
      </trkpt>
      <trkpt lat="49.82901" lon="4.79008">
        <ele>261</ele>
        <time>2022-06-06T07:52:09.000Z</time>
      </trkpt>
      <trkpt lat="49.82904" lon="4.7901">
        <ele>261</ele>
        <time>2022-06-06T07:52:10.000Z</time>
      </trkpt>
      <trkpt lat="49.82906" lon="4.79013">
        <ele>262</ele>
        <time>2022-06-06T07:52:11.000Z</time>
      </trkpt>
      <trkpt lat="49.82909" lon="4.79016">
        <ele>262</ele>
        <time>2022-06-06T07:52:12.000Z</time>
      </trkpt>
      <trkpt lat="49.82912" lon="4.79018">
        <ele>262</ele>
        <time>2022-06-06T07:52:13.000Z</time>
      </trkpt>
      <trkpt lat="49.82915" lon="4.7902">
        <ele>262</ele>
        <time>2022-06-06T07:52:14.000Z</time>
      </trkpt>
      <trkpt lat="49.82918" lon="4.79023">
        <ele>262</ele>
        <time>2022-06-06T07:52:15.000Z</time>
      </trkpt>
      <trkpt lat="49.82921" lon="4.79025">
        <ele>262</ele>
        <time>2022-06-06T07:52:16.000Z</time>
      </trkpt>
      <trkpt lat="49.82924" lon="4.79027">
        <ele>262</ele>
        <time>2022-06-06T07:52:17.000Z</time>
      </trkpt>
      <trkpt lat="49.82928" lon="4.79029">
        <ele>263</ele>
        <time>2022-06-06T07:52:18.000Z</time>
      </trkpt>
      <trkpt lat="49.8293" lon="4.79032">
        <ele>263</ele>
        <time>2022-06-06T07:52:19.000Z</time>
      </trkpt>
      <trkpt lat="49.82933" lon="4.79034">
        <ele>263</ele>
        <time>2022-06-06T07:52:20.000Z</time>
      </trkpt>
      <trkpt lat="49.82936" lon="4.79036">
        <ele>263</ele>
        <time>2022-06-06T07:52:21.000Z</time>
      </trkpt>
      <trkpt lat="49.82939" lon="4.79039">
        <ele>263</ele>
        <time>2022-06-06T07:52:22.000Z</time>
      </trkpt>
      <trkpt lat="49.82942" lon="4.79042">
        <ele>263</ele>
        <time>2022-06-06T07:52:23.000Z</time>
      </trkpt>
      <trkpt lat="49.82945" lon="4.79044">
        <ele>264</ele>
        <time>2022-06-06T07:52:24.000Z</time>
      </trkpt>
      <trkpt lat="49.82947" lon="4.79047">
        <ele>264</ele>
        <time>2022-06-06T07:52:25.000Z</time>
      </trkpt>
      <trkpt lat="49.8295" lon="4.79049">
        <ele>264</ele>
        <time>2022-06-06T07:52:26.000Z</time>
      </trkpt>
      <trkpt lat="49.82952" lon="4.79051">
        <ele>264</ele>
        <time>2022-06-06T07:52:27.000Z</time>
      </trkpt>
      <trkpt lat="49.82955" lon="4.79054">
        <ele>264</ele>
        <time>2022-06-06T07:52:28.000Z</time>
      </trkpt>
      <trkpt lat="49.82957" lon="4.79056">
        <ele>265</ele>
        <time>2022-06-06T07:52:29.000Z</time>
      </trkpt>
      <trkpt lat="49.8296" lon="4.79059">
        <ele>265</ele>
        <time>2022-06-06T07:52:30.000Z</time>
      </trkpt>
      <trkpt lat="49.82962" lon="4.79062">
        <ele>265</ele>
        <time>2022-06-06T07:52:31.000Z</time>
      </trkpt>
      <trkpt lat="49.82965" lon="4.79064">
        <ele>265</ele>
        <time>2022-06-06T07:52:32.000Z</time>
      </trkpt>
      <trkpt lat="49.82967" lon="4.79067">
        <ele>266</ele>
        <time>2022-06-06T07:52:33.000Z</time>
      </trkpt>
      <trkpt lat="49.8297" lon="4.79069">
        <ele>266</ele>
        <time>2022-06-06T07:52:34.000Z</time>
      </trkpt>
      <trkpt lat="49.82973" lon="4.79072">
        <ele>266</ele>
        <time>2022-06-06T07:52:35.000Z</time>
      </trkpt>
      <trkpt lat="49.82975" lon="4.79074">
        <ele>266</ele>
        <time>2022-06-06T07:52:36.000Z</time>
      </trkpt>
      <trkpt lat="49.82977" lon="4.79077">
        <ele>267</ele>
        <time>2022-06-06T07:52:37.000Z</time>
      </trkpt>
      <trkpt lat="49.8298" lon="4.79079">
        <ele>267</ele>
        <time>2022-06-06T07:52:38.000Z</time>
      </trkpt>
      <trkpt lat="49.82982" lon="4.79081">
        <ele>267</ele>
        <time>2022-06-06T07:52:39.000Z</time>
      </trkpt>
      <trkpt lat="49.82984" lon="4.79083">
        <ele>267</ele>
        <time>2022-06-06T07:52:40.000Z</time>
      </trkpt>
      <trkpt lat="49.82985" lon="4.79085">
        <ele>268</ele>
        <time>2022-06-06T07:52:41.000Z</time>
      </trkpt>
      <trkpt lat="49.82987" lon="4.79087">
        <ele>268</ele>
        <time>2022-06-06T07:52:42.000Z</time>
      </trkpt>
      <trkpt lat="49.82989" lon="4.79088">
        <ele>268</ele>
        <time>2022-06-06T07:52:43.000Z</time>
      </trkpt>
      <trkpt lat="49.82991" lon="4.7909">
        <ele>268</ele>
        <time>2022-06-06T07:52:44.000Z</time>
      </trkpt>
      <trkpt lat="49.82993" lon="4.79091">
        <ele>269</ele>
        <time>2022-06-06T07:52:45.000Z</time>
      </trkpt>
      <trkpt lat="49.82994" lon="4.79093">
        <ele>269</ele>
        <time>2022-06-06T07:52:46.000Z</time>
      </trkpt>
      <trkpt lat="49.82996" lon="4.79095">
        <ele>269</ele>
        <time>2022-06-06T07:52:47.000Z</time>
      </trkpt>
      <trkpt lat="49.82998" lon="4.79096">
        <ele>269</ele>
        <time>2022-06-06T07:52:48.000Z</time>
      </trkpt>
      <trkpt lat="49.83" lon="4.79097">
        <ele>270</ele>
        <time>2022-06-06T07:52:49.000Z</time>
      </trkpt>
      <trkpt lat="49.83002" lon="4.79098">
        <ele>270</ele>
        <time>2022-06-06T07:52:50.000Z</time>
      </trkpt>
      <trkpt lat="49.83004" lon="4.79099">
        <ele>270</ele>
        <time>2022-06-06T07:52:51.000Z</time>
      </trkpt>
      <trkpt lat="49.83006" lon="4.791">
        <ele>270</ele>
        <time>2022-06-06T07:52:52.000Z</time>
      </trkpt>
      <trkpt lat="49.83008" lon="4.79101">
        <ele>270</ele>
        <time>2022-06-06T07:52:53.000Z</time>
      </trkpt>
      <trkpt lat="49.83008" lon="4.79102">
        <ele>270</ele>
        <time>2022-06-06T07:52:54.000Z</time>
      </trkpt>
      <trkpt lat="49.8301" lon="4.79102">
        <ele>270</ele>
        <time>2022-06-06T07:52:55.000Z</time>
      </trkpt>
      <trkpt lat="49.83012" lon="4.79103">
        <ele>271</ele>
        <time>2022-06-06T07:52:56.000Z</time>
      </trkpt>
      <trkpt lat="49.83014" lon="4.79103">
        <ele>271</ele>
        <time>2022-06-06T07:52:57.000Z</time>
      </trkpt>
      <trkpt lat="49.83016" lon="4.79104">
        <ele>271</ele>
        <time>2022-06-06T07:52:58.000Z</time>
      </trkpt>
      <trkpt lat="49.83019" lon="4.79104">
        <ele>271</ele>
        <time>2022-06-06T07:52:59.000Z</time>
      </trkpt>
      <trkpt lat="49.83021" lon="4.79105">
        <ele>272</ele>
        <time>2022-06-06T07:53:00.000Z</time>
      </trkpt>
      <trkpt lat="49.83024" lon="4.79107">
        <ele>272</ele>
        <time>2022-06-06T07:53:01.000Z</time>
      </trkpt>
      <trkpt lat="49.83026" lon="4.79109">
        <ele>272</ele>
        <time>2022-06-06T07:53:02.000Z</time>
      </trkpt>
      <trkpt lat="49.83029" lon="4.79111">
        <ele>272</ele>
        <time>2022-06-06T07:53:03.000Z</time>
      </trkpt>
      <trkpt lat="49.83031" lon="4.79113">
        <ele>272</ele>
        <time>2022-06-06T07:53:04.000Z</time>
      </trkpt>
      <trkpt lat="49.83034" lon="4.79116">
        <ele>273</ele>
        <time>2022-06-06T07:53:05.000Z</time>
      </trkpt>
      <trkpt lat="49.83036" lon="4.79118">
        <ele>273</ele>
        <time>2022-06-06T07:53:06.000Z</time>
      </trkpt>
      <trkpt lat="49.83038" lon="4.79121">
        <ele>273</ele>
        <time>2022-06-06T07:53:07.000Z</time>
      </trkpt>
      <trkpt lat="49.83041" lon="4.79125">
        <ele>274</ele>
        <time>2022-06-06T07:53:08.000Z</time>
      </trkpt>
      <trkpt lat="49.83043" lon="4.79128">
        <ele>274</ele>
        <time>2022-06-06T07:53:09.000Z</time>
      </trkpt>
      <trkpt lat="49.83045" lon="4.79131">
        <ele>274</ele>
        <time>2022-06-06T07:53:10.000Z</time>
      </trkpt>
      <trkpt lat="49.83047" lon="4.79135">
        <ele>274</ele>
        <time>2022-06-06T07:53:11.000Z</time>
      </trkpt>
      <trkpt lat="49.83048" lon="4.79138">
        <ele>275</ele>
        <time>2022-06-06T07:53:12.000Z</time>
      </trkpt>
      <trkpt lat="49.8305" lon="4.79143">
        <ele>275</ele>
        <time>2022-06-06T07:53:13.000Z</time>
      </trkpt>
      <trkpt lat="49.83051" lon="4.79146">
        <ele>275</ele>
        <time>2022-06-06T07:53:14.000Z</time>
      </trkpt>
      <trkpt lat="49.83052" lon="4.7915">
        <ele>276</ele>
        <time>2022-06-06T07:53:15.000Z</time>
      </trkpt>
      <trkpt lat="49.83054" lon="4.79154">
        <ele>276</ele>
        <time>2022-06-06T07:53:16.000Z</time>
      </trkpt>
      <trkpt lat="49.83055" lon="4.79158">
        <ele>276</ele>
        <time>2022-06-06T07:53:17.000Z</time>
      </trkpt>
      <trkpt lat="49.83056" lon="4.79162">
        <ele>276</ele>
        <time>2022-06-06T07:53:18.000Z</time>
      </trkpt>
      <trkpt lat="49.83057" lon="4.79166">
        <ele>277</ele>
        <time>2022-06-06T07:53:19.000Z</time>
      </trkpt>
      <trkpt lat="49.83058" lon="4.7917">
        <ele>277</ele>
        <time>2022-06-06T07:53:20.000Z</time>
      </trkpt>
      <trkpt lat="49.83058" lon="4.79173">
        <ele>277</ele>
        <time>2022-06-06T07:53:21.000Z</time>
      </trkpt>
      <trkpt lat="49.83059" lon="4.79176">
        <ele>278</ele>
        <time>2022-06-06T07:53:22.000Z</time>
      </trkpt>
      <trkpt lat="49.8306" lon="4.79178">
        <ele>278</ele>
        <time>2022-06-06T07:53:23.000Z</time>
      </trkpt>
      <trkpt lat="49.8306" lon="4.79181">
        <ele>278</ele>
        <time>2022-06-06T07:53:24.000Z</time>
      </trkpt>
      <trkpt lat="49.83061" lon="4.79184">
        <ele>279</ele>
        <time>2022-06-06T07:53:25.000Z</time>
      </trkpt>
      <trkpt lat="49.83062" lon="4.79187">
        <ele>279</ele>
        <time>2022-06-06T07:53:26.000Z</time>
      </trkpt>
      <trkpt lat="49.83062" lon="4.79189">
        <ele>279</ele>
        <time>2022-06-06T07:53:27.000Z</time>
      </trkpt>
      <trkpt lat="49.83064" lon="4.79192">
        <ele>279</ele>
        <time>2022-06-06T07:53:28.000Z</time>
      </trkpt>
      <trkpt lat="49.83065" lon="4.79195">
        <ele>280</ele>
        <time>2022-06-06T07:53:29.000Z</time>
      </trkpt>
      <trkpt lat="49.83066" lon="4.79197">
        <ele>280</ele>
        <time>2022-06-06T07:53:30.000Z</time>
      </trkpt>
      <trkpt lat="49.83067" lon="4.792">
        <ele>280</ele>
        <time>2022-06-06T07:53:31.000Z</time>
      </trkpt>
      <trkpt lat="49.83069" lon="4.79202">
        <ele>281</ele>
        <time>2022-06-06T07:53:32.000Z</time>
      </trkpt>
      <trkpt lat="49.8307" lon="4.79205">
        <ele>281</ele>
        <time>2022-06-06T07:53:33.000Z</time>
      </trkpt>
      <trkpt lat="49.83071" lon="4.79207">
        <ele>281</ele>
        <time>2022-06-06T07:53:34.000Z</time>
      </trkpt>
      <trkpt lat="49.83074" lon="4.79209">
        <ele>281</ele>
        <time>2022-06-06T07:53:35.000Z</time>
      </trkpt>
      <trkpt lat="49.83075" lon="4.79211">
        <ele>281</ele>
        <time>2022-06-06T07:53:36.000Z</time>
      </trkpt>
      <trkpt lat="49.83077" lon="4.79212">
        <ele>282</ele>
        <time>2022-06-06T07:53:37.000Z</time>
      </trkpt>
      <trkpt lat="49.83079" lon="4.79212">
        <ele>282</ele>
        <time>2022-06-06T07:53:38.000Z</time>
      </trkpt>
      <trkpt lat="49.83081" lon="4.79212">
        <ele>282</ele>
        <time>2022-06-06T07:53:39.000Z</time>
      </trkpt>
      <trkpt lat="49.83084" lon="4.79211">
        <ele>282</ele>
        <time>2022-06-06T07:53:40.000Z</time>
      </trkpt>
      <trkpt lat="49.83087" lon="4.7921">
        <ele>282</ele>
        <time>2022-06-06T07:53:41.000Z</time>
      </trkpt>
      <trkpt lat="49.83091" lon="4.7921">
        <ele>282</ele>
        <time>2022-06-06T07:53:42.000Z</time>
      </trkpt>
      <trkpt lat="49.83094" lon="4.79209">
        <ele>283</ele>
        <time>2022-06-06T07:53:43.000Z</time>
      </trkpt>
      <trkpt lat="49.83098" lon="4.79209">
        <ele>283</ele>
        <time>2022-06-06T07:53:44.000Z</time>
      </trkpt>
      <trkpt lat="49.83101" lon="4.79209">
        <ele>283</ele>
        <time>2022-06-06T07:53:45.000Z</time>
      </trkpt>
      <trkpt lat="49.83104" lon="4.7921">
        <ele>283</ele>
        <time>2022-06-06T07:53:46.000Z</time>
      </trkpt>
      <trkpt lat="49.83107" lon="4.7921">
        <ele>283</ele>
        <time>2022-06-06T07:53:47.000Z</time>
      </trkpt>
      <trkpt lat="49.8311" lon="4.7921">
        <ele>283</ele>
        <time>2022-06-06T07:53:48.000Z</time>
      </trkpt>
      <trkpt lat="49.83113" lon="4.79211">
        <ele>283</ele>
        <time>2022-06-06T07:53:49.000Z</time>
      </trkpt>
      <trkpt lat="49.83116" lon="4.79212">
        <ele>284</ele>
        <time>2022-06-06T07:53:50.000Z</time>
      </trkpt>
      <trkpt lat="49.83118" lon="4.79213">
        <ele>284</ele>
        <time>2022-06-06T07:53:51.000Z</time>
      </trkpt>
      <trkpt lat="49.83121" lon="4.79214">
        <ele>284</ele>
        <time>2022-06-06T07:53:52.000Z</time>
      </trkpt>
      <trkpt lat="49.83123" lon="4.79215">
        <ele>284</ele>
        <time>2022-06-06T07:53:53.000Z</time>
      </trkpt>
      <trkpt lat="49.83126" lon="4.79216">
        <ele>284</ele>
        <time>2022-06-06T07:53:54.000Z</time>
      </trkpt>
      <trkpt lat="49.83129" lon="4.79217">
        <ele>284</ele>
        <time>2022-06-06T07:53:55.000Z</time>
      </trkpt>
      <trkpt lat="49.83131" lon="4.79218">
        <ele>284</ele>
        <time>2022-06-06T07:53:56.000Z</time>
      </trkpt>
      <trkpt lat="49.83134" lon="4.79218">
        <ele>284</ele>
        <time>2022-06-06T07:53:57.000Z</time>
      </trkpt>
      <trkpt lat="49.83137" lon="4.79219">
        <ele>284</ele>
        <time>2022-06-06T07:53:58.000Z</time>
      </trkpt>
      <trkpt lat="49.8314" lon="4.79219">
        <ele>284</ele>
        <time>2022-06-06T07:53:59.000Z</time>
      </trkpt>
      <trkpt lat="49.83142" lon="4.7922">
        <ele>284</ele>
        <time>2022-06-06T07:54:00.000Z</time>
      </trkpt>
      <trkpt lat="49.83144" lon="4.7922">
        <ele>284</ele>
        <time>2022-06-06T07:54:01.000Z</time>
      </trkpt>
      <trkpt lat="49.83146" lon="4.7922">
        <ele>284</ele>
        <time>2022-06-06T07:54:02.000Z</time>
      </trkpt>
      <trkpt lat="49.83148" lon="4.7922">
        <ele>284</ele>
        <time>2022-06-06T07:54:03.000Z</time>
      </trkpt>
      <trkpt lat="49.83151" lon="4.79219">
        <ele>284</ele>
        <time>2022-06-06T07:54:04.000Z</time>
      </trkpt>
      <trkpt lat="49.83154" lon="4.79218">
        <ele>285</ele>
        <time>2022-06-06T07:54:05.000Z</time>
      </trkpt>
      <trkpt lat="49.83156" lon="4.79218">
        <ele>285</ele>
        <time>2022-06-06T07:54:06.000Z</time>
      </trkpt>
      <trkpt lat="49.83159" lon="4.79217">
        <ele>285</ele>
        <time>2022-06-06T07:54:07.000Z</time>
      </trkpt>
      <trkpt lat="49.83163" lon="4.79216">
        <ele>285</ele>
        <time>2022-06-06T07:54:08.000Z</time>
      </trkpt>
      <trkpt lat="49.83166" lon="4.79216">
        <ele>285</ele>
        <time>2022-06-06T07:54:09.000Z</time>
      </trkpt>
      <trkpt lat="49.83169" lon="4.79215">
        <ele>286</ele>
        <time>2022-06-06T07:54:10.000Z</time>
      </trkpt>
      <trkpt lat="49.83172" lon="4.79214">
        <ele>286</ele>
        <time>2022-06-06T07:54:11.000Z</time>
      </trkpt>
      <trkpt lat="49.83175" lon="4.79214">
        <ele>286</ele>
        <time>2022-06-06T07:54:12.000Z</time>
      </trkpt>
      <trkpt lat="49.83178" lon="4.79212">
        <ele>286</ele>
        <time>2022-06-06T07:54:13.000Z</time>
      </trkpt>
      <trkpt lat="49.83181" lon="4.7921">
        <ele>287</ele>
        <time>2022-06-06T07:54:14.000Z</time>
      </trkpt>
      <trkpt lat="49.83183" lon="4.79208">
        <ele>287</ele>
        <time>2022-06-06T07:54:15.000Z</time>
      </trkpt>
      <trkpt lat="49.83185" lon="4.79205">
        <ele>287</ele>
        <time>2022-06-06T07:54:16.000Z</time>
      </trkpt>
      <trkpt lat="49.83187" lon="4.79201">
        <ele>287</ele>
        <time>2022-06-06T07:54:17.000Z</time>
      </trkpt>
      <trkpt lat="49.83189" lon="4.79198">
        <ele>287</ele>
        <time>2022-06-06T07:54:18.000Z</time>
      </trkpt>
      <trkpt lat="49.8319" lon="4.79194">
        <ele>287</ele>
        <time>2022-06-06T07:54:19.000Z</time>
      </trkpt>
      <trkpt lat="49.83192" lon="4.79191">
        <ele>287</ele>
        <time>2022-06-06T07:54:20.000Z</time>
      </trkpt>
      <trkpt lat="49.83193" lon="4.79188">
        <ele>287</ele>
        <time>2022-06-06T07:54:21.000Z</time>
      </trkpt>
      <trkpt lat="49.83195" lon="4.79184">
        <ele>288</ele>
        <time>2022-06-06T07:54:22.000Z</time>
      </trkpt>
      <trkpt lat="49.83196" lon="4.7918">
        <ele>288</ele>
        <time>2022-06-06T07:54:23.000Z</time>
      </trkpt>
      <trkpt lat="49.83197" lon="4.79176">
        <ele>288</ele>
        <time>2022-06-06T07:54:24.000Z</time>
      </trkpt>
      <trkpt lat="49.83198" lon="4.79172">
        <ele>288</ele>
        <time>2022-06-06T07:54:25.000Z</time>
      </trkpt>
      <trkpt lat="49.83199" lon="4.79168">
        <ele>289</ele>
        <time>2022-06-06T07:54:26.000Z</time>
      </trkpt>
      <trkpt lat="49.832" lon="4.79164">
        <ele>289</ele>
        <time>2022-06-06T07:54:27.000Z</time>
      </trkpt>
      <trkpt lat="49.83202" lon="4.7916">
        <ele>289</ele>
        <time>2022-06-06T07:54:28.000Z</time>
      </trkpt>
      <trkpt lat="49.83204" lon="4.79156">
        <ele>289</ele>
        <time>2022-06-06T07:54:29.000Z</time>
      </trkpt>
      <trkpt lat="49.83206" lon="4.79153">
        <ele>290</ele>
        <time>2022-06-06T07:54:30.000Z</time>
      </trkpt>
      <trkpt lat="49.83208" lon="4.79149">
        <ele>290</ele>
        <time>2022-06-06T07:54:31.000Z</time>
      </trkpt>
      <trkpt lat="49.8321" lon="4.79146">
        <ele>290</ele>
        <time>2022-06-06T07:54:32.000Z</time>
      </trkpt>
      <trkpt lat="49.83212" lon="4.79143">
        <ele>290</ele>
        <time>2022-06-06T07:54:33.000Z</time>
      </trkpt>
      <trkpt lat="49.83213" lon="4.79139">
        <ele>291</ele>
        <time>2022-06-06T07:54:34.000Z</time>
      </trkpt>
      <trkpt lat="49.83214" lon="4.79135">
        <ele>291</ele>
        <time>2022-06-06T07:54:35.000Z</time>
      </trkpt>
      <trkpt lat="49.83216" lon="4.79131">
        <ele>291</ele>
        <time>2022-06-06T07:54:36.000Z</time>
      </trkpt>
      <trkpt lat="49.83217" lon="4.79128">
        <ele>291</ele>
        <time>2022-06-06T07:54:37.000Z</time>
      </trkpt>
      <trkpt lat="49.83219" lon="4.79124">
        <ele>292</ele>
        <time>2022-06-06T07:54:38.000Z</time>
      </trkpt>
      <trkpt lat="49.83221" lon="4.79121">
        <ele>292</ele>
        <time>2022-06-06T07:54:39.000Z</time>
      </trkpt>
      <trkpt lat="49.83223" lon="4.79117">
        <ele>292</ele>
        <time>2022-06-06T07:54:40.000Z</time>
      </trkpt>
      <trkpt lat="49.83225" lon="4.79113">
        <ele>292</ele>
        <time>2022-06-06T07:54:41.000Z</time>
      </trkpt>
      <trkpt lat="49.83226" lon="4.7911">
        <ele>292</ele>
        <time>2022-06-06T07:54:42.000Z</time>
      </trkpt>
      <trkpt lat="49.83228" lon="4.79107">
        <ele>293</ele>
        <time>2022-06-06T07:54:43.000Z</time>
      </trkpt>
      <trkpt lat="49.8323" lon="4.79104">
        <ele>293</ele>
        <time>2022-06-06T07:54:44.000Z</time>
      </trkpt>
      <trkpt lat="49.83231" lon="4.79102">
        <ele>293</ele>
        <time>2022-06-06T07:54:45.000Z</time>
      </trkpt>
      <trkpt lat="49.83233" lon="4.79099">
        <ele>293</ele>
        <time>2022-06-06T07:54:46.000Z</time>
      </trkpt>
      <trkpt lat="49.83235" lon="4.79097">
        <ele>294</ele>
        <time>2022-06-06T07:54:47.000Z</time>
      </trkpt>
      <trkpt lat="49.83236" lon="4.79094">
        <ele>294</ele>
        <time>2022-06-06T07:54:48.000Z</time>
      </trkpt>
      <trkpt lat="49.83238" lon="4.79092">
        <ele>294</ele>
        <time>2022-06-06T07:54:49.000Z</time>
      </trkpt>
      <trkpt lat="49.83241" lon="4.7909">
        <ele>295</ele>
        <time>2022-06-06T07:54:50.000Z</time>
      </trkpt>
      <trkpt lat="49.83244" lon="4.79089">
        <ele>295</ele>
        <time>2022-06-06T07:54:51.000Z</time>
      </trkpt>
      <trkpt lat="49.83246" lon="4.79087">
        <ele>295</ele>
        <time>2022-06-06T07:54:52.000Z</time>
      </trkpt>
      <trkpt lat="49.83249" lon="4.79087">
        <ele>295</ele>
        <time>2022-06-06T07:54:53.000Z</time>
      </trkpt>
      <trkpt lat="49.83252" lon="4.79087">
        <ele>296</ele>
        <time>2022-06-06T07:54:54.000Z</time>
      </trkpt>
      <trkpt lat="49.83256" lon="4.79088">
        <ele>296</ele>
        <time>2022-06-06T07:54:55.000Z</time>
      </trkpt>
      <trkpt lat="49.8326" lon="4.79088">
        <ele>296</ele>
        <time>2022-06-06T07:54:56.000Z</time>
      </trkpt>
      <trkpt lat="49.83265" lon="4.79088">
        <ele>297</ele>
        <time>2022-06-06T07:54:57.000Z</time>
      </trkpt>
      <trkpt lat="49.8327" lon="4.79088">
        <ele>297</ele>
        <time>2022-06-06T07:54:58.000Z</time>
      </trkpt>
      <trkpt lat="49.83275" lon="4.79087">
        <ele>297</ele>
        <time>2022-06-06T07:54:59.000Z</time>
      </trkpt>
      <trkpt lat="49.83281" lon="4.79086">
        <ele>297</ele>
        <time>2022-06-06T07:55:00.000Z</time>
      </trkpt>
      <trkpt lat="49.83286" lon="4.79085">
        <ele>298</ele>
        <time>2022-06-06T07:55:01.000Z</time>
      </trkpt>
      <trkpt lat="49.83292" lon="4.79083">
        <ele>298</ele>
        <time>2022-06-06T07:55:02.000Z</time>
      </trkpt>
      <trkpt lat="49.83298" lon="4.7908">
        <ele>298</ele>
        <time>2022-06-06T07:55:03.000Z</time>
      </trkpt>
      <trkpt lat="49.83305" lon="4.79077">
        <ele>298</ele>
        <time>2022-06-06T07:55:04.000Z</time>
      </trkpt>
      <trkpt lat="49.83311" lon="4.79071">
        <ele>298</ele>
        <time>2022-06-06T07:55:05.000Z</time>
      </trkpt>
      <trkpt lat="49.83318" lon="4.79065">
        <ele>298</ele>
        <time>2022-06-06T07:55:06.000Z</time>
      </trkpt>
      <trkpt lat="49.83325" lon="4.79057">
        <ele>298</ele>
        <time>2022-06-06T07:55:07.000Z</time>
      </trkpt>
      <trkpt lat="49.83331" lon="4.79047">
        <ele>298</ele>
        <time>2022-06-06T07:55:08.000Z</time>
      </trkpt>
      <trkpt lat="49.83337" lon="4.79037">
        <ele>298</ele>
        <time>2022-06-06T07:55:09.000Z</time>
      </trkpt>
      <trkpt lat="49.83341" lon="4.79028">
        <ele>297</ele>
        <time>2022-06-06T07:55:10.000Z</time>
      </trkpt>
      <trkpt lat="49.83346" lon="4.79018">
        <ele>297</ele>
        <time>2022-06-06T07:55:11.000Z</time>
      </trkpt>
      <trkpt lat="49.8335" lon="4.79009">
        <ele>297</ele>
        <time>2022-06-06T07:55:12.000Z</time>
      </trkpt>
      <trkpt lat="49.83354" lon="4.79">
        <ele>297</ele>
        <time>2022-06-06T07:55:13.000Z</time>
      </trkpt>
      <trkpt lat="49.83359" lon="4.78991">
        <ele>297</ele>
        <time>2022-06-06T07:55:14.000Z</time>
      </trkpt>
      <trkpt lat="49.83363" lon="4.78981">
        <ele>297</ele>
        <time>2022-06-06T07:55:15.000Z</time>
      </trkpt>
      <trkpt lat="49.83366" lon="4.78972">
        <ele>296</ele>
        <time>2022-06-06T07:55:16.000Z</time>
      </trkpt>
      <trkpt lat="49.83369" lon="4.78962">
        <ele>296</ele>
        <time>2022-06-06T07:55:17.000Z</time>
      </trkpt>
      <trkpt lat="49.83372" lon="4.78953">
        <ele>296</ele>
        <time>2022-06-06T07:55:18.000Z</time>
      </trkpt>
      <trkpt lat="49.83377" lon="4.78945">
        <ele>296</ele>
        <time>2022-06-06T07:55:19.000Z</time>
      </trkpt>
      <trkpt lat="49.83382" lon="4.78937">
        <ele>296</ele>
        <time>2022-06-06T07:55:20.000Z</time>
      </trkpt>
      <trkpt lat="49.83388" lon="4.7893">
        <ele>296</ele>
        <time>2022-06-06T07:55:21.000Z</time>
      </trkpt>
      <trkpt lat="49.83392" lon="4.78924">
        <ele>296</ele>
        <time>2022-06-06T07:55:22.000Z</time>
      </trkpt>
      <trkpt lat="49.83396" lon="4.78918">
        <ele>296</ele>
        <time>2022-06-06T07:55:23.000Z</time>
      </trkpt>
      <trkpt lat="49.83399" lon="4.78913">
        <ele>296</ele>
        <time>2022-06-06T07:55:24.000Z</time>
      </trkpt>
      <trkpt lat="49.83401" lon="4.78909">
        <ele>296</ele>
        <time>2022-06-06T07:55:25.000Z</time>
      </trkpt>
      <trkpt lat="49.83404" lon="4.78906">
        <ele>296</ele>
        <time>2022-06-06T07:55:26.000Z</time>
      </trkpt>
      <trkpt lat="49.83406" lon="4.78904">
        <ele>297</ele>
        <time>2022-06-06T07:55:27.000Z</time>
      </trkpt>
      <trkpt lat="49.83409" lon="4.78903">
        <ele>297</ele>
        <time>2022-06-06T07:55:28.000Z</time>
      </trkpt>
      <trkpt lat="49.83412" lon="4.78901">
        <ele>297</ele>
        <time>2022-06-06T07:55:29.000Z</time>
      </trkpt>
      <trkpt lat="49.83416" lon="4.789">
        <ele>297</ele>
        <time>2022-06-06T07:55:30.000Z</time>
      </trkpt>
      <trkpt lat="49.8342" lon="4.78898">
        <ele>297</ele>
        <time>2022-06-06T07:55:31.000Z</time>
      </trkpt>
      <trkpt lat="49.83424" lon="4.78897">
        <ele>297</ele>
        <time>2022-06-06T07:55:32.000Z</time>
      </trkpt>
      <trkpt lat="49.83428" lon="4.78896">
        <ele>297</ele>
        <time>2022-06-06T07:55:33.000Z</time>
      </trkpt>
      <trkpt lat="49.83432" lon="4.78893">
        <ele>297</ele>
        <time>2022-06-06T07:55:34.000Z</time>
      </trkpt>
      <trkpt lat="49.83436" lon="4.78892">
        <ele>297</ele>
        <time>2022-06-06T07:55:35.000Z</time>
      </trkpt>
      <trkpt lat="49.83441" lon="4.78891">
        <ele>298</ele>
        <time>2022-06-06T07:55:36.000Z</time>
      </trkpt>
      <trkpt lat="49.83444" lon="4.7889">
        <ele>298</ele>
        <time>2022-06-06T07:55:37.000Z</time>
      </trkpt>
      <trkpt lat="49.83448" lon="4.78888">
        <ele>298</ele>
        <time>2022-06-06T07:55:38.000Z</time>
      </trkpt>
      <trkpt lat="49.83452" lon="4.78886">
        <ele>298</ele>
        <time>2022-06-06T07:55:39.000Z</time>
      </trkpt>
      <trkpt lat="49.83455" lon="4.78882">
        <ele>299</ele>
        <time>2022-06-06T07:55:40.000Z</time>
      </trkpt>
      <trkpt lat="49.83459" lon="4.78879">
        <ele>299</ele>
        <time>2022-06-06T07:55:41.000Z</time>
      </trkpt>
      <trkpt lat="49.83462" lon="4.78875">
        <ele>299</ele>
        <time>2022-06-06T07:55:42.000Z</time>
      </trkpt>
      <trkpt lat="49.83464" lon="4.78871">
        <ele>299</ele>
        <time>2022-06-06T07:55:43.000Z</time>
      </trkpt>
      <trkpt lat="49.83468" lon="4.78866">
        <ele>299</ele>
        <time>2022-06-06T07:55:44.000Z</time>
      </trkpt>
      <trkpt lat="49.8347" lon="4.78861">
        <ele>299</ele>
        <time>2022-06-06T07:55:45.000Z</time>
      </trkpt>
      <trkpt lat="49.83472" lon="4.78856">
        <ele>299</ele>
        <time>2022-06-06T07:55:46.000Z</time>
      </trkpt>
      <trkpt lat="49.83473" lon="4.7885">
        <ele>300</ele>
        <time>2022-06-06T07:55:47.000Z</time>
      </trkpt>
      <trkpt lat="49.83473" lon="4.78844">
        <ele>300</ele>
        <time>2022-06-06T07:55:48.000Z</time>
      </trkpt>
      <trkpt lat="49.83472" lon="4.78839">
        <ele>300</ele>
        <time>2022-06-06T07:55:49.000Z</time>
      </trkpt>
      <trkpt lat="49.83472" lon="4.78832">
        <ele>300</ele>
        <time>2022-06-06T07:55:50.000Z</time>
      </trkpt>
      <trkpt lat="49.83472" lon="4.78826">
        <ele>300</ele>
        <time>2022-06-06T07:55:51.000Z</time>
      </trkpt>
      <trkpt lat="49.83474" lon="4.78821">
        <ele>300</ele>
        <time>2022-06-06T07:55:52.000Z</time>
      </trkpt>
      <trkpt lat="49.83477" lon="4.78817">
        <ele>300</ele>
        <time>2022-06-06T07:55:53.000Z</time>
      </trkpt>
      <trkpt lat="49.83481" lon="4.78814">
        <ele>300</ele>
        <time>2022-06-06T07:55:54.000Z</time>
      </trkpt>
      <trkpt lat="49.83485" lon="4.78812">
        <ele>300</ele>
        <time>2022-06-06T07:55:55.000Z</time>
      </trkpt>
      <trkpt lat="49.8349" lon="4.78809">
        <ele>300</ele>
        <time>2022-06-06T07:55:56.000Z</time>
      </trkpt>
      <trkpt lat="49.83494" lon="4.78807">
        <ele>301</ele>
        <time>2022-06-06T07:55:57.000Z</time>
      </trkpt>
      <trkpt lat="49.83498" lon="4.78804">
        <ele>301</ele>
        <time>2022-06-06T07:55:58.000Z</time>
      </trkpt>
      <trkpt lat="49.83502" lon="4.78801">
        <ele>301</ele>
        <time>2022-06-06T07:55:59.000Z</time>
      </trkpt>
      <trkpt lat="49.83505" lon="4.78798">
        <ele>301</ele>
        <time>2022-06-06T07:56:00.000Z</time>
      </trkpt>
      <trkpt lat="49.83509" lon="4.78794">
        <ele>301</ele>
        <time>2022-06-06T07:56:01.000Z</time>
      </trkpt>
      <trkpt lat="49.83511" lon="4.78791">
        <ele>301</ele>
        <time>2022-06-06T07:56:02.000Z</time>
      </trkpt>
      <trkpt lat="49.83514" lon="4.78787">
        <ele>301</ele>
        <time>2022-06-06T07:56:03.000Z</time>
      </trkpt>
      <trkpt lat="49.83515" lon="4.78782">
        <ele>301</ele>
        <time>2022-06-06T07:56:04.000Z</time>
      </trkpt>
      <trkpt lat="49.83517" lon="4.78779">
        <ele>301</ele>
        <time>2022-06-06T07:56:05.000Z</time>
      </trkpt>
      <trkpt lat="49.83519" lon="4.78776">
        <ele>301</ele>
        <time>2022-06-06T07:56:06.000Z</time>
      </trkpt>
      <trkpt lat="49.83521" lon="4.78773">
        <ele>301</ele>
        <time>2022-06-06T07:56:07.000Z</time>
      </trkpt>
      <trkpt lat="49.83524" lon="4.78772">
        <ele>301</ele>
        <time>2022-06-06T07:56:08.000Z</time>
      </trkpt>
      <trkpt lat="49.83525" lon="4.78771">
        <ele>301</ele>
        <time>2022-06-06T07:56:09.000Z</time>
      </trkpt>
      <trkpt lat="49.83525" lon="4.78771">
        <ele>301</ele>
        <time>2022-06-06T07:56:10.000Z</time>
      </trkpt>
      <trkpt lat="49.83525" lon="4.78771">
        <ele>301</ele>
        <time>2022-06-06T07:56:11.000Z</time>
      </trkpt>
      <trkpt lat="49.83526" lon="4.7877">
        <ele>301</ele>
        <time>2022-06-06T07:56:12.000Z</time>
      </trkpt>
      <trkpt lat="49.83527" lon="4.7877">
        <ele>300</ele>
        <time>2022-06-06T07:56:13.000Z</time>
      </trkpt>
      <trkpt lat="49.83528" lon="4.7877">
        <ele>300</ele>
        <time>2022-06-06T07:56:14.000Z</time>
      </trkpt>
      <trkpt lat="49.83529" lon="4.78769">
        <ele>300</ele>
        <time>2022-06-06T07:56:15.000Z</time>
      </trkpt>
      <trkpt lat="49.8353" lon="4.78767">
        <ele>300</ele>
        <time>2022-06-06T07:56:16.000Z</time>
      </trkpt>
      <trkpt lat="49.83532" lon="4.78766">
        <ele>300</ele>
        <time>2022-06-06T07:56:17.000Z</time>
      </trkpt>
      <trkpt lat="49.83534" lon="4.78766">
        <ele>300</ele>
        <time>2022-06-06T07:56:18.000Z</time>
      </trkpt>
      <trkpt lat="49.83536" lon="4.78765">
        <ele>300</ele>
        <time>2022-06-06T07:56:19.000Z</time>
      </trkpt>
      <trkpt lat="49.83539" lon="4.78765">
        <ele>300</ele>
        <time>2022-06-06T07:56:20.000Z</time>
      </trkpt>
      <trkpt lat="49.83541" lon="4.78764">
        <ele>300</ele>
        <time>2022-06-06T07:56:21.000Z</time>
      </trkpt>
      <trkpt lat="49.83544" lon="4.78764">
        <ele>300</ele>
        <time>2022-06-06T07:56:22.000Z</time>
      </trkpt>
      <trkpt lat="49.83546" lon="4.78763">
        <ele>300</ele>
        <time>2022-06-06T07:56:23.000Z</time>
      </trkpt>
      <trkpt lat="49.83547" lon="4.78762">
        <ele>301</ele>
        <time>2022-06-06T07:56:24.000Z</time>
      </trkpt>
      <trkpt lat="49.8355" lon="4.78761">
        <ele>301</ele>
        <time>2022-06-06T07:56:25.000Z</time>
      </trkpt>
      <trkpt lat="49.83552" lon="4.78759">
        <ele>301</ele>
        <time>2022-06-06T07:56:26.000Z</time>
      </trkpt>
      <trkpt lat="49.83554" lon="4.78758">
        <ele>301</ele>
        <time>2022-06-06T07:56:27.000Z</time>
      </trkpt>
      <trkpt lat="49.83557" lon="4.78756">
        <ele>301</ele>
        <time>2022-06-06T07:56:28.000Z</time>
      </trkpt>
      <trkpt lat="49.8356" lon="4.78754">
        <ele>301</ele>
        <time>2022-06-06T07:56:29.000Z</time>
      </trkpt>
      <trkpt lat="49.83562" lon="4.78753">
        <ele>301</ele>
        <time>2022-06-06T07:56:30.000Z</time>
      </trkpt>
      <trkpt lat="49.83564" lon="4.78751">
        <ele>301</ele>
        <time>2022-06-06T07:56:31.000Z</time>
      </trkpt>
      <trkpt lat="49.83566" lon="4.7875">
        <ele>301</ele>
        <time>2022-06-06T07:56:32.000Z</time>
      </trkpt>
      <trkpt lat="49.83569" lon="4.78749">
        <ele>301</ele>
        <time>2022-06-06T07:56:33.000Z</time>
      </trkpt>
      <trkpt lat="49.83571" lon="4.78747">
        <ele>301</ele>
        <time>2022-06-06T07:56:34.000Z</time>
      </trkpt>
      <trkpt lat="49.83573" lon="4.78746">
        <ele>301</ele>
        <time>2022-06-06T07:56:35.000Z</time>
      </trkpt>
      <trkpt lat="49.83575" lon="4.78744">
        <ele>302</ele>
        <time>2022-06-06T07:56:36.000Z</time>
      </trkpt>
      <trkpt lat="49.83578" lon="4.78743">
        <ele>302</ele>
        <time>2022-06-06T07:56:37.000Z</time>
      </trkpt>
      <trkpt lat="49.8358" lon="4.78741">
        <ele>302</ele>
        <time>2022-06-06T07:56:38.000Z</time>
      </trkpt>
      <trkpt lat="49.83583" lon="4.7874">
        <ele>302</ele>
        <time>2022-06-06T07:56:39.000Z</time>
      </trkpt>
      <trkpt lat="49.83585" lon="4.78738">
        <ele>302</ele>
        <time>2022-06-06T07:56:40.000Z</time>
      </trkpt>
      <trkpt lat="49.83588" lon="4.78737">
        <ele>302</ele>
        <time>2022-06-06T07:56:41.000Z</time>
      </trkpt>
      <trkpt lat="49.83591" lon="4.78736">
        <ele>302</ele>
        <time>2022-06-06T07:56:42.000Z</time>
      </trkpt>
      <trkpt lat="49.83593" lon="4.78735">
        <ele>302</ele>
        <time>2022-06-06T07:56:43.000Z</time>
      </trkpt>
      <trkpt lat="49.83595" lon="4.78734">
        <ele>302</ele>
        <time>2022-06-06T07:56:44.000Z</time>
      </trkpt>
      <trkpt lat="49.83598" lon="4.78734">
        <ele>302</ele>
        <time>2022-06-06T07:56:45.000Z</time>
      </trkpt>
      <trkpt lat="49.83601" lon="4.78733">
        <ele>302</ele>
        <time>2022-06-06T07:56:46.000Z</time>
      </trkpt>
      <trkpt lat="49.83604" lon="4.78733">
        <ele>302</ele>
        <time>2022-06-06T07:56:47.000Z</time>
      </trkpt>
      <trkpt lat="49.83607" lon="4.78732">
        <ele>302</ele>
        <time>2022-06-06T07:56:48.000Z</time>
      </trkpt>
      <trkpt lat="49.8361" lon="4.78732">
        <ele>303</ele>
        <time>2022-06-06T07:56:49.000Z</time>
      </trkpt>
      <trkpt lat="49.83613" lon="4.78732">
        <ele>303</ele>
        <time>2022-06-06T07:56:50.000Z</time>
      </trkpt>
      <trkpt lat="49.83616" lon="4.78732">
        <ele>303</ele>
        <time>2022-06-06T07:56:51.000Z</time>
      </trkpt>
      <trkpt lat="49.83619" lon="4.78732">
        <ele>303</ele>
        <time>2022-06-06T07:56:52.000Z</time>
      </trkpt>
      <trkpt lat="49.83622" lon="4.78732">
        <ele>303</ele>
        <time>2022-06-06T07:56:53.000Z</time>
      </trkpt>
      <trkpt lat="49.83624" lon="4.78733">
        <ele>303</ele>
        <time>2022-06-06T07:56:54.000Z</time>
      </trkpt>
      <trkpt lat="49.83627" lon="4.78733">
        <ele>304</ele>
        <time>2022-06-06T07:56:55.000Z</time>
      </trkpt>
      <trkpt lat="49.83629" lon="4.78733">
        <ele>304</ele>
        <time>2022-06-06T07:56:56.000Z</time>
      </trkpt>
      <trkpt lat="49.83631" lon="4.78734">
        <ele>304</ele>
        <time>2022-06-06T07:56:57.000Z</time>
      </trkpt>
      <trkpt lat="49.83633" lon="4.78735">
        <ele>304</ele>
        <time>2022-06-06T07:56:58.000Z</time>
      </trkpt>
      <trkpt lat="49.83636" lon="4.78735">
        <ele>304</ele>
        <time>2022-06-06T07:56:59.000Z</time>
      </trkpt>
      <trkpt lat="49.83638" lon="4.78736">
        <ele>304</ele>
        <time>2022-06-06T07:57:00.000Z</time>
      </trkpt>
      <trkpt lat="49.8364" lon="4.78736">
        <ele>304</ele>
        <time>2022-06-06T07:57:01.000Z</time>
      </trkpt>
      <trkpt lat="49.83643" lon="4.78737">
        <ele>304</ele>
        <time>2022-06-06T07:57:02.000Z</time>
      </trkpt>
      <trkpt lat="49.83645" lon="4.78738">
        <ele>305</ele>
        <time>2022-06-06T07:57:03.000Z</time>
      </trkpt>
      <trkpt lat="49.83647" lon="4.78738">
        <ele>305</ele>
        <time>2022-06-06T07:57:04.000Z</time>
      </trkpt>
      <trkpt lat="49.83649" lon="4.78739">
        <ele>305</ele>
        <time>2022-06-06T07:57:05.000Z</time>
      </trkpt>
      <trkpt lat="49.83652" lon="4.7874">
        <ele>305</ele>
        <time>2022-06-06T07:57:06.000Z</time>
      </trkpt>
      <trkpt lat="49.83654" lon="4.78741">
        <ele>305</ele>
        <time>2022-06-06T07:57:07.000Z</time>
      </trkpt>
      <trkpt lat="49.83656" lon="4.78742">
        <ele>305</ele>
        <time>2022-06-06T07:57:08.000Z</time>
      </trkpt>
      <trkpt lat="49.83659" lon="4.78743">
        <ele>305</ele>
        <time>2022-06-06T07:57:09.000Z</time>
      </trkpt>
      <trkpt lat="49.83661" lon="4.78744">
        <ele>305</ele>
        <time>2022-06-06T07:57:10.000Z</time>
      </trkpt>
      <trkpt lat="49.83661" lon="4.78744">
        <ele>305</ele>
        <time>2022-06-06T07:57:11.000Z</time>
      </trkpt>
      <trkpt lat="49.83663" lon="4.78745">
        <ele>305</ele>
        <time>2022-06-06T07:57:12.000Z</time>
      </trkpt>
      <trkpt lat="49.83665" lon="4.78747">
        <ele>305</ele>
        <time>2022-06-06T07:57:13.000Z</time>
      </trkpt>
      <trkpt lat="49.83668" lon="4.78748">
        <ele>306</ele>
        <time>2022-06-06T07:57:14.000Z</time>
      </trkpt>
      <trkpt lat="49.8367" lon="4.78749">
        <ele>306</ele>
        <time>2022-06-06T07:57:15.000Z</time>
      </trkpt>
      <trkpt lat="49.83673" lon="4.78751">
        <ele>306</ele>
        <time>2022-06-06T07:57:16.000Z</time>
      </trkpt>
      <trkpt lat="49.83676" lon="4.78753">
        <ele>306</ele>
        <time>2022-06-06T07:57:17.000Z</time>
      </trkpt>
      <trkpt lat="49.83678" lon="4.78755">
        <ele>306</ele>
        <time>2022-06-06T07:57:18.000Z</time>
      </trkpt>
      <trkpt lat="49.83681" lon="4.78757">
        <ele>306</ele>
        <time>2022-06-06T07:57:19.000Z</time>
      </trkpt>
      <trkpt lat="49.83683" lon="4.7876">
        <ele>307</ele>
        <time>2022-06-06T07:57:20.000Z</time>
      </trkpt>
      <trkpt lat="49.83686" lon="4.78763">
        <ele>307</ele>
        <time>2022-06-06T07:57:21.000Z</time>
      </trkpt>
      <trkpt lat="49.83689" lon="4.78765">
        <ele>307</ele>
        <time>2022-06-06T07:57:22.000Z</time>
      </trkpt>
      <trkpt lat="49.83691" lon="4.78767">
        <ele>307</ele>
        <time>2022-06-06T07:57:23.000Z</time>
      </trkpt>
      <trkpt lat="49.83693" lon="4.78768">
        <ele>307</ele>
        <time>2022-06-06T07:57:24.000Z</time>
      </trkpt>
      <trkpt lat="49.83695" lon="4.7877">
        <ele>307</ele>
        <time>2022-06-06T07:57:25.000Z</time>
      </trkpt>
      <trkpt lat="49.83697" lon="4.78771">
        <ele>308</ele>
        <time>2022-06-06T07:57:26.000Z</time>
      </trkpt>
      <trkpt lat="49.83699" lon="4.78773">
        <ele>308</ele>
        <time>2022-06-06T07:57:27.000Z</time>
      </trkpt>
      <trkpt lat="49.83701" lon="4.78774">
        <ele>308</ele>
        <time>2022-06-06T07:57:28.000Z</time>
      </trkpt>
      <trkpt lat="49.83703" lon="4.78775">
        <ele>308</ele>
        <time>2022-06-06T07:57:29.000Z</time>
      </trkpt>
      <trkpt lat="49.83705" lon="4.78775">
        <ele>308</ele>
        <time>2022-06-06T07:57:30.000Z</time>
      </trkpt>
      <trkpt lat="49.83707" lon="4.78776">
        <ele>308</ele>
        <time>2022-06-06T07:57:31.000Z</time>
      </trkpt>
      <trkpt lat="49.83709" lon="4.78777">
        <ele>308</ele>
        <time>2022-06-06T07:57:32.000Z</time>
      </trkpt>
      <trkpt lat="49.83711" lon="4.78779">
        <ele>308</ele>
        <time>2022-06-06T07:57:33.000Z</time>
      </trkpt>
      <trkpt lat="49.83714" lon="4.7878">
        <ele>308</ele>
        <time>2022-06-06T07:57:34.000Z</time>
      </trkpt>
      <trkpt lat="49.83716" lon="4.78781">
        <ele>308</ele>
        <time>2022-06-06T07:57:35.000Z</time>
      </trkpt>
      <trkpt lat="49.83718" lon="4.78781">
        <ele>309</ele>
        <time>2022-06-06T07:57:36.000Z</time>
      </trkpt>
      <trkpt lat="49.8372" lon="4.78782">
        <ele>309</ele>
        <time>2022-06-06T07:57:37.000Z</time>
      </trkpt>
      <trkpt lat="49.83722" lon="4.78782">
        <ele>309</ele>
        <time>2022-06-06T07:57:38.000Z</time>
      </trkpt>
      <trkpt lat="49.83724" lon="4.78783">
        <ele>309</ele>
        <time>2022-06-06T07:57:39.000Z</time>
      </trkpt>
      <trkpt lat="49.83726" lon="4.78783">
        <ele>309</ele>
        <time>2022-06-06T07:57:40.000Z</time>
      </trkpt>
      <trkpt lat="49.83728" lon="4.78784">
        <ele>310</ele>
        <time>2022-06-06T07:57:41.000Z</time>
      </trkpt>
      <trkpt lat="49.83731" lon="4.78785">
        <ele>310</ele>
        <time>2022-06-06T07:57:42.000Z</time>
      </trkpt>
      <trkpt lat="49.83733" lon="4.78785">
        <ele>310</ele>
        <time>2022-06-06T07:57:43.000Z</time>
      </trkpt>
      <trkpt lat="49.83736" lon="4.78786">
        <ele>310</ele>
        <time>2022-06-06T07:57:44.000Z</time>
      </trkpt>
      <trkpt lat="49.83738" lon="4.78787">
        <ele>311</ele>
        <time>2022-06-06T07:57:45.000Z</time>
      </trkpt>
      <trkpt lat="49.83741" lon="4.78789">
        <ele>311</ele>
        <time>2022-06-06T07:57:46.000Z</time>
      </trkpt>
      <trkpt lat="49.83744" lon="4.78791">
        <ele>311</ele>
        <time>2022-06-06T07:57:47.000Z</time>
      </trkpt>
      <trkpt lat="49.83746" lon="4.78794">
        <ele>312</ele>
        <time>2022-06-06T07:57:48.000Z</time>
      </trkpt>
      <trkpt lat="49.83748" lon="4.78797">
        <ele>312</ele>
        <time>2022-06-06T07:57:49.000Z</time>
      </trkpt>
      <trkpt lat="49.83751" lon="4.788">
        <ele>312</ele>
        <time>2022-06-06T07:57:50.000Z</time>
      </trkpt>
      <trkpt lat="49.83753" lon="4.78802">
        <ele>312</ele>
        <time>2022-06-06T07:57:51.000Z</time>
      </trkpt>
      <trkpt lat="49.83756" lon="4.78805">
        <ele>312</ele>
        <time>2022-06-06T07:57:52.000Z</time>
      </trkpt>
      <trkpt lat="49.83758" lon="4.78808">
        <ele>312</ele>
        <time>2022-06-06T07:57:53.000Z</time>
      </trkpt>
      <trkpt lat="49.83761" lon="4.78811">
        <ele>312</ele>
        <time>2022-06-06T07:57:54.000Z</time>
      </trkpt>
      <trkpt lat="49.83763" lon="4.78814">
        <ele>312</ele>
        <time>2022-06-06T07:57:55.000Z</time>
      </trkpt>
      <trkpt lat="49.83767" lon="4.78817">
        <ele>312</ele>
        <time>2022-06-06T07:57:56.000Z</time>
      </trkpt>
      <trkpt lat="49.8377" lon="4.78819">
        <ele>312</ele>
        <time>2022-06-06T07:57:57.000Z</time>
      </trkpt>
      <trkpt lat="49.83772" lon="4.78821">
        <ele>312</ele>
        <time>2022-06-06T07:57:58.000Z</time>
      </trkpt>
      <trkpt lat="49.83775" lon="4.78822">
        <ele>312</ele>
        <time>2022-06-06T07:57:59.000Z</time>
      </trkpt>
      <trkpt lat="49.83777" lon="4.78823">
        <ele>313</ele>
        <time>2022-06-06T07:58:00.000Z</time>
      </trkpt>
      <trkpt lat="49.83778" lon="4.78823">
        <ele>313</ele>
        <time>2022-06-06T07:58:01.000Z</time>
      </trkpt>
      <trkpt lat="49.8378" lon="4.78824">
        <ele>313</ele>
        <time>2022-06-06T07:58:02.000Z</time>
      </trkpt>
      <trkpt lat="49.83782" lon="4.78824">
        <ele>313</ele>
        <time>2022-06-06T07:58:03.000Z</time>
      </trkpt>
      <trkpt lat="49.83784" lon="4.78825">
        <ele>313</ele>
        <time>2022-06-06T07:58:04.000Z</time>
      </trkpt>
      <trkpt lat="49.83786" lon="4.78825">
        <ele>313</ele>
        <time>2022-06-06T07:58:05.000Z</time>
      </trkpt>
      <trkpt lat="49.83788" lon="4.78826">
        <ele>313</ele>
        <time>2022-06-06T07:58:06.000Z</time>
      </trkpt>
      <trkpt lat="49.8379" lon="4.78826">
        <ele>313</ele>
        <time>2022-06-06T07:58:07.000Z</time>
      </trkpt>
      <trkpt lat="49.83792" lon="4.78827">
        <ele>313</ele>
        <time>2022-06-06T07:58:08.000Z</time>
      </trkpt>
      <trkpt lat="49.83794" lon="4.78827">
        <ele>314</ele>
        <time>2022-06-06T07:58:09.000Z</time>
      </trkpt>
      <trkpt lat="49.83794" lon="4.78827">
        <ele>314</ele>
        <time>2022-06-06T07:58:10.000Z</time>
      </trkpt>
      <trkpt lat="49.83796" lon="4.78827">
        <ele>314</ele>
        <time>2022-06-06T07:58:11.000Z</time>
      </trkpt>
      <trkpt lat="49.83798" lon="4.78827">
        <ele>314</ele>
        <time>2022-06-06T07:58:12.000Z</time>
      </trkpt>
      <trkpt lat="49.83799" lon="4.78827">
        <ele>314</ele>
        <time>2022-06-06T07:58:13.000Z</time>
      </trkpt>
      <trkpt lat="49.83801" lon="4.78828">
        <ele>314</ele>
        <time>2022-06-06T07:58:14.000Z</time>
      </trkpt>
      <trkpt lat="49.83802" lon="4.78828">
        <ele>314</ele>
        <time>2022-06-06T07:58:15.000Z</time>
      </trkpt>
      <trkpt lat="49.83804" lon="4.78828">
        <ele>315</ele>
        <time>2022-06-06T07:58:16.000Z</time>
      </trkpt>
      <trkpt lat="49.83806" lon="4.78829">
        <ele>315</ele>
        <time>2022-06-06T07:58:17.000Z</time>
      </trkpt>
      <trkpt lat="49.83807" lon="4.78829">
        <ele>315</ele>
        <time>2022-06-06T07:58:18.000Z</time>
      </trkpt>
      <trkpt lat="49.83808" lon="4.78829">
        <ele>315</ele>
        <time>2022-06-06T07:58:19.000Z</time>
      </trkpt>
      <trkpt lat="49.83808" lon="4.78829">
        <ele>315</ele>
        <time>2022-06-06T07:58:20.000Z</time>
      </trkpt>
      <trkpt lat="49.83809" lon="4.78829">
        <ele>316</ele>
        <time>2022-06-06T07:58:21.000Z</time>
      </trkpt>
      <trkpt lat="49.8381" lon="4.78829">
        <ele>316</ele>
        <time>2022-06-06T07:58:22.000Z</time>
      </trkpt>
      <trkpt lat="49.83811" lon="4.78829">
        <ele>316</ele>
        <time>2022-06-06T07:58:23.000Z</time>
      </trkpt>
      <trkpt lat="49.83813" lon="4.7883">
        <ele>316</ele>
        <time>2022-06-06T07:58:24.000Z</time>
      </trkpt>
      <trkpt lat="49.83815" lon="4.7883">
        <ele>316</ele>
        <time>2022-06-06T07:58:25.000Z</time>
      </trkpt>
      <trkpt lat="49.83818" lon="4.78831">
        <ele>316</ele>
        <time>2022-06-06T07:58:26.000Z</time>
      </trkpt>
      <trkpt lat="49.8382" lon="4.78831">
        <ele>317</ele>
        <time>2022-06-06T07:58:27.000Z</time>
      </trkpt>
      <trkpt lat="49.83822" lon="4.78832">
        <ele>317</ele>
        <time>2022-06-06T07:58:28.000Z</time>
      </trkpt>
      <trkpt lat="49.83824" lon="4.78832">
        <ele>317</ele>
        <time>2022-06-06T07:58:29.000Z</time>
      </trkpt>
      <trkpt lat="49.83826" lon="4.78833">
        <ele>317</ele>
        <time>2022-06-06T07:58:30.000Z</time>
      </trkpt>
      <trkpt lat="49.83827" lon="4.78833">
        <ele>318</ele>
        <time>2022-06-06T07:58:31.000Z</time>
      </trkpt>
      <trkpt lat="49.83829" lon="4.78833">
        <ele>318</ele>
        <time>2022-06-06T07:58:32.000Z</time>
      </trkpt>
      <trkpt lat="49.83831" lon="4.78833">
        <ele>318</ele>
        <time>2022-06-06T07:58:33.000Z</time>
      </trkpt>
      <trkpt lat="49.83834" lon="4.78833">
        <ele>319</ele>
        <time>2022-06-06T07:58:34.000Z</time>
      </trkpt>
      <trkpt lat="49.83836" lon="4.78833">
        <ele>319</ele>
        <time>2022-06-06T07:58:35.000Z</time>
      </trkpt>
      <trkpt lat="49.83838" lon="4.78834">
        <ele>319</ele>
        <time>2022-06-06T07:58:36.000Z</time>
      </trkpt>
      <trkpt lat="49.8384" lon="4.78834">
        <ele>320</ele>
        <time>2022-06-06T07:58:37.000Z</time>
      </trkpt>
      <trkpt lat="49.83842" lon="4.78835">
        <ele>320</ele>
        <time>2022-06-06T07:58:38.000Z</time>
      </trkpt>
      <trkpt lat="49.83844" lon="4.78835">
        <ele>320</ele>
        <time>2022-06-06T07:58:39.000Z</time>
      </trkpt>
      <trkpt lat="49.83846" lon="4.78836">
        <ele>321</ele>
        <time>2022-06-06T07:58:40.000Z</time>
      </trkpt>
      <trkpt lat="49.83848" lon="4.78836">
        <ele>321</ele>
        <time>2022-06-06T07:58:41.000Z</time>
      </trkpt>
      <trkpt lat="49.8385" lon="4.78837">
        <ele>321</ele>
        <time>2022-06-06T07:58:42.000Z</time>
      </trkpt>
      <trkpt lat="49.83852" lon="4.78837">
        <ele>321</ele>
        <time>2022-06-06T07:58:43.000Z</time>
      </trkpt>
      <trkpt lat="49.83854" lon="4.78837">
        <ele>322</ele>
        <time>2022-06-06T07:58:44.000Z</time>
      </trkpt>
      <trkpt lat="49.83857" lon="4.78838">
        <ele>322</ele>
        <time>2022-06-06T07:58:45.000Z</time>
      </trkpt>
      <trkpt lat="49.83859" lon="4.78838">
        <ele>322</ele>
        <time>2022-06-06T07:58:46.000Z</time>
      </trkpt>
      <trkpt lat="49.83861" lon="4.78838">
        <ele>323</ele>
        <time>2022-06-06T07:58:47.000Z</time>
      </trkpt>
      <trkpt lat="49.83863" lon="4.78839">
        <ele>323</ele>
        <time>2022-06-06T07:58:48.000Z</time>
      </trkpt>
      <trkpt lat="49.83865" lon="4.78839">
        <ele>323</ele>
        <time>2022-06-06T07:58:49.000Z</time>
      </trkpt>
      <trkpt lat="49.83867" lon="4.78839">
        <ele>324</ele>
        <time>2022-06-06T07:58:50.000Z</time>
      </trkpt>
      <trkpt lat="49.83869" lon="4.7884">
        <ele>324</ele>
        <time>2022-06-06T07:58:51.000Z</time>
      </trkpt>
      <trkpt lat="49.83871" lon="4.7884">
        <ele>324</ele>
        <time>2022-06-06T07:58:52.000Z</time>
      </trkpt>
      <trkpt lat="49.83873" lon="4.7884">
        <ele>324</ele>
        <time>2022-06-06T07:58:53.000Z</time>
      </trkpt>
      <trkpt lat="49.83876" lon="4.78841">
        <ele>325</ele>
        <time>2022-06-06T07:58:54.000Z</time>
      </trkpt>
      <trkpt lat="49.83878" lon="4.78841">
        <ele>325</ele>
        <time>2022-06-06T07:58:55.000Z</time>
      </trkpt>
      <trkpt lat="49.8388" lon="4.78842">
        <ele>325</ele>
        <time>2022-06-06T07:58:56.000Z</time>
      </trkpt>
      <trkpt lat="49.83882" lon="4.78842">
        <ele>326</ele>
        <time>2022-06-06T07:58:57.000Z</time>
      </trkpt>
      <trkpt lat="49.83884" lon="4.78842">
        <ele>326</ele>
        <time>2022-06-06T07:58:58.000Z</time>
      </trkpt>
      <trkpt lat="49.83886" lon="4.78843">
        <ele>327</ele>
        <time>2022-06-06T07:58:59.000Z</time>
      </trkpt>
      <trkpt lat="49.83888" lon="4.78843">
        <ele>327</ele>
        <time>2022-06-06T07:59:00.000Z</time>
      </trkpt>
      <trkpt lat="49.83889" lon="4.78843">
        <ele>327</ele>
        <time>2022-06-06T07:59:01.000Z</time>
      </trkpt>
      <trkpt lat="49.83891" lon="4.78843">
        <ele>328</ele>
        <time>2022-06-06T07:59:02.000Z</time>
      </trkpt>
      <trkpt lat="49.83893" lon="4.78844">
        <ele>328</ele>
        <time>2022-06-06T07:59:03.000Z</time>
      </trkpt>
      <trkpt lat="49.83895" lon="4.78844">
        <ele>329</ele>
        <time>2022-06-06T07:59:04.000Z</time>
      </trkpt>
      <trkpt lat="49.83896" lon="4.78844">
        <ele>329</ele>
        <time>2022-06-06T07:59:05.000Z</time>
      </trkpt>
      <trkpt lat="49.83898" lon="4.78844">
        <ele>329</ele>
        <time>2022-06-06T07:59:06.000Z</time>
      </trkpt>
      <trkpt lat="49.839" lon="4.78844">
        <ele>330</ele>
        <time>2022-06-06T07:59:07.000Z</time>
      </trkpt>
      <trkpt lat="49.83901" lon="4.78844">
        <ele>330</ele>
        <time>2022-06-06T07:59:08.000Z</time>
      </trkpt>
      <trkpt lat="49.83903" lon="4.78844">
        <ele>330</ele>
        <time>2022-06-06T07:59:09.000Z</time>
      </trkpt>
      <trkpt lat="49.83905" lon="4.78845">
        <ele>331</ele>
        <time>2022-06-06T07:59:10.000Z</time>
      </trkpt>
      <trkpt lat="49.83907" lon="4.78845">
        <ele>331</ele>
        <time>2022-06-06T07:59:11.000Z</time>
      </trkpt>
      <trkpt lat="49.8391" lon="4.78845">
        <ele>331</ele>
        <time>2022-06-06T07:59:12.000Z</time>
      </trkpt>
      <trkpt lat="49.83912" lon="4.78846">
        <ele>331</ele>
        <time>2022-06-06T07:59:13.000Z</time>
      </trkpt>
      <trkpt lat="49.83914" lon="4.78846">
        <ele>331</ele>
        <time>2022-06-06T07:59:14.000Z</time>
      </trkpt>
      <trkpt lat="49.83916" lon="4.78847">
        <ele>332</ele>
        <time>2022-06-06T07:59:15.000Z</time>
      </trkpt>
      <trkpt lat="49.83919" lon="4.78847">
        <ele>332</ele>
        <time>2022-06-06T07:59:16.000Z</time>
      </trkpt>
      <trkpt lat="49.83921" lon="4.78847">
        <ele>332</ele>
        <time>2022-06-06T07:59:17.000Z</time>
      </trkpt>
      <trkpt lat="49.83922" lon="4.78848">
        <ele>332</ele>
        <time>2022-06-06T07:59:18.000Z</time>
      </trkpt>
      <trkpt lat="49.83924" lon="4.78848">
        <ele>333</ele>
        <time>2022-06-06T07:59:19.000Z</time>
      </trkpt>
      <trkpt lat="49.83926" lon="4.78849">
        <ele>333</ele>
        <time>2022-06-06T07:59:20.000Z</time>
      </trkpt>
      <trkpt lat="49.83928" lon="4.78849">
        <ele>333</ele>
        <time>2022-06-06T07:59:21.000Z</time>
      </trkpt>
      <trkpt lat="49.8393" lon="4.7885">
        <ele>333</ele>
        <time>2022-06-06T07:59:22.000Z</time>
      </trkpt>
      <trkpt lat="49.83931" lon="4.7885">
        <ele>333</ele>
        <time>2022-06-06T07:59:23.000Z</time>
      </trkpt>
      <trkpt lat="49.83933" lon="4.7885">
        <ele>334</ele>
        <time>2022-06-06T07:59:24.000Z</time>
      </trkpt>
      <trkpt lat="49.83935" lon="4.78851">
        <ele>334</ele>
        <time>2022-06-06T07:59:25.000Z</time>
      </trkpt>
      <trkpt lat="49.83937" lon="4.78851">
        <ele>334</ele>
        <time>2022-06-06T07:59:26.000Z</time>
      </trkpt>
      <trkpt lat="49.83939" lon="4.78852">
        <ele>334</ele>
        <time>2022-06-06T07:59:27.000Z</time>
      </trkpt>
      <trkpt lat="49.83941" lon="4.78852">
        <ele>335</ele>
        <time>2022-06-06T07:59:28.000Z</time>
      </trkpt>
      <trkpt lat="49.83943" lon="4.78853">
        <ele>335</ele>
        <time>2022-06-06T07:59:29.000Z</time>
      </trkpt>
      <trkpt lat="49.83946" lon="4.78853">
        <ele>335</ele>
        <time>2022-06-06T07:59:30.000Z</time>
      </trkpt>
      <trkpt lat="49.83948" lon="4.78854">
        <ele>336</ele>
        <time>2022-06-06T07:59:31.000Z</time>
      </trkpt>
      <trkpt lat="49.8395" lon="4.78854">
        <ele>336</ele>
        <time>2022-06-06T07:59:32.000Z</time>
      </trkpt>
      <trkpt lat="49.83953" lon="4.78854">
        <ele>336</ele>
        <time>2022-06-06T07:59:33.000Z</time>
      </trkpt>
      <trkpt lat="49.83955" lon="4.78855">
        <ele>336</ele>
        <time>2022-06-06T07:59:34.000Z</time>
      </trkpt>
      <trkpt lat="49.83957" lon="4.78855">
        <ele>337</ele>
        <time>2022-06-06T07:59:35.000Z</time>
      </trkpt>
      <trkpt lat="49.83959" lon="4.78856">
        <ele>337</ele>
        <time>2022-06-06T07:59:36.000Z</time>
      </trkpt>
      <trkpt lat="49.8396" lon="4.78856">
        <ele>337</ele>
        <time>2022-06-06T07:59:37.000Z</time>
      </trkpt>
      <trkpt lat="49.83962" lon="4.78856">
        <ele>337</ele>
        <time>2022-06-06T07:59:38.000Z</time>
      </trkpt>
      <trkpt lat="49.83965" lon="4.78856">
        <ele>337</ele>
        <time>2022-06-06T07:59:39.000Z</time>
      </trkpt>
      <trkpt lat="49.83967" lon="4.78857">
        <ele>338</ele>
        <time>2022-06-06T07:59:40.000Z</time>
      </trkpt>
      <trkpt lat="49.83969" lon="4.78857">
        <ele>338</ele>
        <time>2022-06-06T07:59:41.000Z</time>
      </trkpt>
      <trkpt lat="49.83971" lon="4.78858">
        <ele>338</ele>
        <time>2022-06-06T07:59:42.000Z</time>
      </trkpt>
      <trkpt lat="49.83973" lon="4.78858">
        <ele>338</ele>
        <time>2022-06-06T07:59:43.000Z</time>
      </trkpt>
      <trkpt lat="49.83975" lon="4.78858">
        <ele>339</ele>
        <time>2022-06-06T07:59:44.000Z</time>
      </trkpt>
      <trkpt lat="49.83977" lon="4.78858">
        <ele>339</ele>
        <time>2022-06-06T07:59:45.000Z</time>
      </trkpt>
      <trkpt lat="49.83979" lon="4.78858">
        <ele>339</ele>
        <time>2022-06-06T07:59:46.000Z</time>
      </trkpt>
      <trkpt lat="49.83981" lon="4.78859">
        <ele>340</ele>
        <time>2022-06-06T07:59:47.000Z</time>
      </trkpt>
      <trkpt lat="49.83983" lon="4.78859">
        <ele>340</ele>
        <time>2022-06-06T07:59:48.000Z</time>
      </trkpt>
      <trkpt lat="49.83985" lon="4.78859">
        <ele>340</ele>
        <time>2022-06-06T07:59:49.000Z</time>
      </trkpt>
      <trkpt lat="49.83987" lon="4.7886">
        <ele>340</ele>
        <time>2022-06-06T07:59:50.000Z</time>
      </trkpt>
      <trkpt lat="49.83988" lon="4.7886">
        <ele>341</ele>
        <time>2022-06-06T07:59:51.000Z</time>
      </trkpt>
      <trkpt lat="49.8399" lon="4.7886">
        <ele>341</ele>
        <time>2022-06-06T07:59:52.000Z</time>
      </trkpt>
      <trkpt lat="49.83992" lon="4.7886">
        <ele>341</ele>
        <time>2022-06-06T07:59:53.000Z</time>
      </trkpt>
      <trkpt lat="49.83994" lon="4.7886">
        <ele>342</ele>
        <time>2022-06-06T07:59:54.000Z</time>
      </trkpt>
      <trkpt lat="49.83996" lon="4.78861">
        <ele>342</ele>
        <time>2022-06-06T07:59:55.000Z</time>
      </trkpt>
      <trkpt lat="49.83998" lon="4.78861">
        <ele>342</ele>
        <time>2022-06-06T07:59:56.000Z</time>
      </trkpt>
      <trkpt lat="49.84" lon="4.78861">
        <ele>342</ele>
        <time>2022-06-06T07:59:57.000Z</time>
      </trkpt>
      <trkpt lat="49.84002" lon="4.78862">
        <ele>342</ele>
        <time>2022-06-06T07:59:58.000Z</time>
      </trkpt>
      <trkpt lat="49.84004" lon="4.78863">
        <ele>342</ele>
        <time>2022-06-06T07:59:59.000Z</time>
      </trkpt>
      <trkpt lat="49.84006" lon="4.78863">
        <ele>343</ele>
        <time>2022-06-06T08:00:00.000Z</time>
      </trkpt>
      <trkpt lat="49.84009" lon="4.78863">
        <ele>343</ele>
        <time>2022-06-06T08:00:01.000Z</time>
      </trkpt>
      <trkpt lat="49.84011" lon="4.78864">
        <ele>343</ele>
        <time>2022-06-06T08:00:02.000Z</time>
      </trkpt>
      <trkpt lat="49.84013" lon="4.78864">
        <ele>343</ele>
        <time>2022-06-06T08:00:03.000Z</time>
      </trkpt>
      <trkpt lat="49.84016" lon="4.78865">
        <ele>343</ele>
        <time>2022-06-06T08:00:04.000Z</time>
      </trkpt>
      <trkpt lat="49.84019" lon="4.78866">
        <ele>343</ele>
        <time>2022-06-06T08:00:05.000Z</time>
      </trkpt>
      <trkpt lat="49.84021" lon="4.78867">
        <ele>344</ele>
        <time>2022-06-06T08:00:06.000Z</time>
      </trkpt>
      <trkpt lat="49.84024" lon="4.78868">
        <ele>344</ele>
        <time>2022-06-06T08:00:07.000Z</time>
      </trkpt>
      <trkpt lat="49.84027" lon="4.78869">
        <ele>344</ele>
        <time>2022-06-06T08:00:08.000Z</time>
      </trkpt>
      <trkpt lat="49.8403" lon="4.7887">
        <ele>344</ele>
        <time>2022-06-06T08:00:09.000Z</time>
      </trkpt>
      <trkpt lat="49.84032" lon="4.78871">
        <ele>345</ele>
        <time>2022-06-06T08:00:10.000Z</time>
      </trkpt>
      <trkpt lat="49.84035" lon="4.78872">
        <ele>345</ele>
        <time>2022-06-06T08:00:11.000Z</time>
      </trkpt>
      <trkpt lat="49.84037" lon="4.78873">
        <ele>345</ele>
        <time>2022-06-06T08:00:12.000Z</time>
      </trkpt>
      <trkpt lat="49.84038" lon="4.78876">
        <ele>345</ele>
        <time>2022-06-06T08:00:13.000Z</time>
      </trkpt>
      <trkpt lat="49.8404" lon="4.78878">
        <ele>346</ele>
        <time>2022-06-06T08:00:14.000Z</time>
      </trkpt>
      <trkpt lat="49.84041" lon="4.78881">
        <ele>346</ele>
        <time>2022-06-06T08:00:15.000Z</time>
      </trkpt>
      <trkpt lat="49.84042" lon="4.78884">
        <ele>346</ele>
        <time>2022-06-06T08:00:16.000Z</time>
      </trkpt>
      <trkpt lat="49.84043" lon="4.78886">
        <ele>346</ele>
        <time>2022-06-06T08:00:17.000Z</time>
      </trkpt>
      <trkpt lat="49.84044" lon="4.78888">
        <ele>346</ele>
        <time>2022-06-06T08:00:18.000Z</time>
      </trkpt>
      <trkpt lat="49.84046" lon="4.78888">
        <ele>347</ele>
        <time>2022-06-06T08:00:19.000Z</time>
      </trkpt>
      <trkpt lat="49.84049" lon="4.78888">
        <ele>347</ele>
        <time>2022-06-06T08:00:20.000Z</time>
      </trkpt>
      <trkpt lat="49.84051" lon="4.78888">
        <ele>347</ele>
        <time>2022-06-06T08:00:21.000Z</time>
      </trkpt>
      <trkpt lat="49.84054" lon="4.78888">
        <ele>347</ele>
        <time>2022-06-06T08:00:22.000Z</time>
      </trkpt>
      <trkpt lat="49.84056" lon="4.78887">
        <ele>347</ele>
        <time>2022-06-06T08:00:23.000Z</time>
      </trkpt>
      <trkpt lat="49.84059" lon="4.78887">
        <ele>347</ele>
        <time>2022-06-06T08:00:24.000Z</time>
      </trkpt>
      <trkpt lat="49.84062" lon="4.78887">
        <ele>348</ele>
        <time>2022-06-06T08:00:25.000Z</time>
      </trkpt>
      <trkpt lat="49.84065" lon="4.78888">
        <ele>348</ele>
        <time>2022-06-06T08:00:26.000Z</time>
      </trkpt>
      <trkpt lat="49.84067" lon="4.78889">
        <ele>348</ele>
        <time>2022-06-06T08:00:27.000Z</time>
      </trkpt>
      <trkpt lat="49.8407" lon="4.7889">
        <ele>348</ele>
        <time>2022-06-06T08:00:28.000Z</time>
      </trkpt>
      <trkpt lat="49.84072" lon="4.78891">
        <ele>348</ele>
        <time>2022-06-06T08:00:29.000Z</time>
      </trkpt>
      <trkpt lat="49.84075" lon="4.78893">
        <ele>349</ele>
        <time>2022-06-06T08:00:30.000Z</time>
      </trkpt>
      <trkpt lat="49.84078" lon="4.78894">
        <ele>349</ele>
        <time>2022-06-06T08:00:31.000Z</time>
      </trkpt>
      <trkpt lat="49.84081" lon="4.78895">
        <ele>349</ele>
        <time>2022-06-06T08:00:32.000Z</time>
      </trkpt>
      <trkpt lat="49.84084" lon="4.78896">
        <ele>349</ele>
        <time>2022-06-06T08:00:33.000Z</time>
      </trkpt>
      <trkpt lat="49.84086" lon="4.78898">
        <ele>349</ele>
        <time>2022-06-06T08:00:34.000Z</time>
      </trkpt>
      <trkpt lat="49.84089" lon="4.78899">
        <ele>350</ele>
        <time>2022-06-06T08:00:35.000Z</time>
      </trkpt>
      <trkpt lat="49.84092" lon="4.789">
        <ele>350</ele>
        <time>2022-06-06T08:00:36.000Z</time>
      </trkpt>
      <trkpt lat="49.84095" lon="4.78902">
        <ele>350</ele>
        <time>2022-06-06T08:00:37.000Z</time>
      </trkpt>
      <trkpt lat="49.84098" lon="4.78902">
        <ele>350</ele>
        <time>2022-06-06T08:00:38.000Z</time>
      </trkpt>
      <trkpt lat="49.84101" lon="4.78903">
        <ele>350</ele>
        <time>2022-06-06T08:00:39.000Z</time>
      </trkpt>
      <trkpt lat="49.84104" lon="4.78904">
        <ele>351</ele>
        <time>2022-06-06T08:00:40.000Z</time>
      </trkpt>
      <trkpt lat="49.84107" lon="4.78905">
        <ele>351</ele>
        <time>2022-06-06T08:00:41.000Z</time>
      </trkpt>
      <trkpt lat="49.8411" lon="4.78905">
        <ele>351</ele>
        <time>2022-06-06T08:00:42.000Z</time>
      </trkpt>
      <trkpt lat="49.84113" lon="4.78906">
        <ele>351</ele>
        <time>2022-06-06T08:00:43.000Z</time>
      </trkpt>
      <trkpt lat="49.84116" lon="4.78906">
        <ele>352</ele>
        <time>2022-06-06T08:00:44.000Z</time>
      </trkpt>
      <trkpt lat="49.84119" lon="4.78908">
        <ele>352</ele>
        <time>2022-06-06T08:00:45.000Z</time>
      </trkpt>
      <trkpt lat="49.84122" lon="4.78908">
        <ele>352</ele>
        <time>2022-06-06T08:00:46.000Z</time>
      </trkpt>
      <trkpt lat="49.84125" lon="4.78909">
        <ele>352</ele>
        <time>2022-06-06T08:00:47.000Z</time>
      </trkpt>
      <trkpt lat="49.84128" lon="4.7891">
        <ele>352</ele>
        <time>2022-06-06T08:00:48.000Z</time>
      </trkpt>
      <trkpt lat="49.8413" lon="4.78911">
        <ele>352</ele>
        <time>2022-06-06T08:00:49.000Z</time>
      </trkpt>
      <trkpt lat="49.84133" lon="4.78913">
        <ele>352</ele>
        <time>2022-06-06T08:00:50.000Z</time>
      </trkpt>
      <trkpt lat="49.84136" lon="4.78914">
        <ele>353</ele>
        <time>2022-06-06T08:00:51.000Z</time>
      </trkpt>
      <trkpt lat="49.84138" lon="4.78915">
        <ele>353</ele>
        <time>2022-06-06T08:00:52.000Z</time>
      </trkpt>
      <trkpt lat="49.84141" lon="4.78916">
        <ele>353</ele>
        <time>2022-06-06T08:00:53.000Z</time>
      </trkpt>
      <trkpt lat="49.84144" lon="4.78917">
        <ele>353</ele>
        <time>2022-06-06T08:00:54.000Z</time>
      </trkpt>
      <trkpt lat="49.84146" lon="4.78918">
        <ele>353</ele>
        <time>2022-06-06T08:00:55.000Z</time>
      </trkpt>
      <trkpt lat="49.84148" lon="4.78919">
        <ele>353</ele>
        <time>2022-06-06T08:00:56.000Z</time>
      </trkpt>
      <trkpt lat="49.8415" lon="4.78919">
        <ele>353</ele>
        <time>2022-06-06T08:00:57.000Z</time>
      </trkpt>
      <trkpt lat="49.84152" lon="4.7892">
        <ele>353</ele>
        <time>2022-06-06T08:00:58.000Z</time>
      </trkpt>
      <trkpt lat="49.84154" lon="4.78922">
        <ele>353</ele>
        <time>2022-06-06T08:00:59.000Z</time>
      </trkpt>
      <trkpt lat="49.84157" lon="4.78923">
        <ele>353</ele>
        <time>2022-06-06T08:01:00.000Z</time>
      </trkpt>
      <trkpt lat="49.84159" lon="4.78925">
        <ele>353</ele>
        <time>2022-06-06T08:01:01.000Z</time>
      </trkpt>
      <trkpt lat="49.84161" lon="4.78926">
        <ele>354</ele>
        <time>2022-06-06T08:01:02.000Z</time>
      </trkpt>
      <trkpt lat="49.84163" lon="4.78928">
        <ele>354</ele>
        <time>2022-06-06T08:01:03.000Z</time>
      </trkpt>
      <trkpt lat="49.84165" lon="4.7893">
        <ele>354</ele>
        <time>2022-06-06T08:01:04.000Z</time>
      </trkpt>
      <trkpt lat="49.84167" lon="4.78931">
        <ele>354</ele>
        <time>2022-06-06T08:01:05.000Z</time>
      </trkpt>
      <trkpt lat="49.84169" lon="4.78932">
        <ele>355</ele>
        <time>2022-06-06T08:01:06.000Z</time>
      </trkpt>
      <trkpt lat="49.84171" lon="4.78933">
        <ele>355</ele>
        <time>2022-06-06T08:01:07.000Z</time>
      </trkpt>
      <trkpt lat="49.84174" lon="4.78934">
        <ele>355</ele>
        <time>2022-06-06T08:01:08.000Z</time>
      </trkpt>
      <trkpt lat="49.84177" lon="4.78935">
        <ele>356</ele>
        <time>2022-06-06T08:01:09.000Z</time>
      </trkpt>
      <trkpt lat="49.8418" lon="4.78936">
        <ele>356</ele>
        <time>2022-06-06T08:01:10.000Z</time>
      </trkpt>
      <trkpt lat="49.84183" lon="4.78937">
        <ele>357</ele>
        <time>2022-06-06T08:01:11.000Z</time>
      </trkpt>
      <trkpt lat="49.84185" lon="4.78938">
        <ele>357</ele>
        <time>2022-06-06T08:01:12.000Z</time>
      </trkpt>
      <trkpt lat="49.84188" lon="4.78939">
        <ele>358</ele>
        <time>2022-06-06T08:01:13.000Z</time>
      </trkpt>
      <trkpt lat="49.84191" lon="4.7894">
        <ele>358</ele>
        <time>2022-06-06T08:01:14.000Z</time>
      </trkpt>
      <trkpt lat="49.84193" lon="4.78941">
        <ele>359</ele>
        <time>2022-06-06T08:01:15.000Z</time>
      </trkpt>
      <trkpt lat="49.84196" lon="4.78943">
        <ele>359</ele>
        <time>2022-06-06T08:01:16.000Z</time>
      </trkpt>
      <trkpt lat="49.842" lon="4.78945">
        <ele>360</ele>
        <time>2022-06-06T08:01:17.000Z</time>
      </trkpt>
      <trkpt lat="49.84204" lon="4.78947">
        <ele>360</ele>
        <time>2022-06-06T08:01:18.000Z</time>
      </trkpt>
      <trkpt lat="49.84207" lon="4.78949">
        <ele>360</ele>
        <time>2022-06-06T08:01:19.000Z</time>
      </trkpt>
      <trkpt lat="49.84211" lon="4.78951">
        <ele>361</ele>
        <time>2022-06-06T08:01:20.000Z</time>
      </trkpt>
      <trkpt lat="49.84214" lon="4.78953">
        <ele>361</ele>
        <time>2022-06-06T08:01:21.000Z</time>
      </trkpt>
      <trkpt lat="49.84218" lon="4.78955">
        <ele>361</ele>
        <time>2022-06-06T08:01:22.000Z</time>
      </trkpt>
      <trkpt lat="49.84221" lon="4.78957">
        <ele>361</ele>
        <time>2022-06-06T08:01:23.000Z</time>
      </trkpt>
      <trkpt lat="49.84224" lon="4.7896">
        <ele>361</ele>
        <time>2022-06-06T08:01:24.000Z</time>
      </trkpt>
      <trkpt lat="49.84227" lon="4.78963">
        <ele>361</ele>
        <time>2022-06-06T08:01:25.000Z</time>
      </trkpt>
      <trkpt lat="49.8423" lon="4.78966">
        <ele>362</ele>
        <time>2022-06-06T08:01:26.000Z</time>
      </trkpt>
      <trkpt lat="49.84234" lon="4.78969">
        <ele>362</ele>
        <time>2022-06-06T08:01:27.000Z</time>
      </trkpt>
      <trkpt lat="49.84237" lon="4.78972">
        <ele>362</ele>
        <time>2022-06-06T08:01:28.000Z</time>
      </trkpt>
      <trkpt lat="49.8424" lon="4.78975">
        <ele>363</ele>
        <time>2022-06-06T08:01:29.000Z</time>
      </trkpt>
      <trkpt lat="49.84243" lon="4.78979">
        <ele>363</ele>
        <time>2022-06-06T08:01:30.000Z</time>
      </trkpt>
      <trkpt lat="49.84246" lon="4.78982">
        <ele>363</ele>
        <time>2022-06-06T08:01:31.000Z</time>
      </trkpt>
      <trkpt lat="49.84249" lon="4.78986">
        <ele>363</ele>
        <time>2022-06-06T08:01:32.000Z</time>
      </trkpt>
      <trkpt lat="49.84252" lon="4.7899">
        <ele>364</ele>
        <time>2022-06-06T08:01:33.000Z</time>
      </trkpt>
      <trkpt lat="49.84255" lon="4.78993">
        <ele>364</ele>
        <time>2022-06-06T08:01:34.000Z</time>
      </trkpt>
      <trkpt lat="49.84258" lon="4.78997">
        <ele>364</ele>
        <time>2022-06-06T08:01:35.000Z</time>
      </trkpt>
      <trkpt lat="49.84261" lon="4.79001">
        <ele>365</ele>
        <time>2022-06-06T08:01:36.000Z</time>
      </trkpt>
      <trkpt lat="49.84264" lon="4.79005">
        <ele>365</ele>
        <time>2022-06-06T08:01:37.000Z</time>
      </trkpt>
      <trkpt lat="49.84267" lon="4.79009">
        <ele>365</ele>
        <time>2022-06-06T08:01:38.000Z</time>
      </trkpt>
      <trkpt lat="49.8427" lon="4.79013">
        <ele>365</ele>
        <time>2022-06-06T08:01:39.000Z</time>
      </trkpt>
      <trkpt lat="49.84273" lon="4.79018">
        <ele>366</ele>
        <time>2022-06-06T08:01:40.000Z</time>
      </trkpt>
      <trkpt lat="49.84276" lon="4.79023">
        <ele>366</ele>
        <time>2022-06-06T08:01:41.000Z</time>
      </trkpt>
      <trkpt lat="49.84278" lon="4.79026">
        <ele>366</ele>
        <time>2022-06-06T08:01:42.000Z</time>
      </trkpt>
      <trkpt lat="49.8428" lon="4.7903">
        <ele>366</ele>
        <time>2022-06-06T08:01:43.000Z</time>
      </trkpt>
      <trkpt lat="49.84283" lon="4.79034">
        <ele>367</ele>
        <time>2022-06-06T08:01:44.000Z</time>
      </trkpt>
      <trkpt lat="49.84285" lon="4.79037">
        <ele>367</ele>
        <time>2022-06-06T08:01:45.000Z</time>
      </trkpt>
      <trkpt lat="49.84287" lon="4.7904">
        <ele>367</ele>
        <time>2022-06-06T08:01:46.000Z</time>
      </trkpt>
      <trkpt lat="49.84289" lon="4.79043">
        <ele>367</ele>
        <time>2022-06-06T08:01:47.000Z</time>
      </trkpt>
      <trkpt lat="49.84291" lon="4.79046">
        <ele>368</ele>
        <time>2022-06-06T08:01:48.000Z</time>
      </trkpt>
      <trkpt lat="49.84293" lon="4.79048">
        <ele>368</ele>
        <time>2022-06-06T08:01:49.000Z</time>
      </trkpt>
      <trkpt lat="49.84295" lon="4.79051">
        <ele>369</ele>
        <time>2022-06-06T08:01:50.000Z</time>
      </trkpt>
      <trkpt lat="49.84297" lon="4.79053">
        <ele>369</ele>
        <time>2022-06-06T08:01:51.000Z</time>
      </trkpt>
      <trkpt lat="49.84298" lon="4.79056">
        <ele>369</ele>
        <time>2022-06-06T08:01:52.000Z</time>
      </trkpt>
      <trkpt lat="49.843" lon="4.79057">
        <ele>369</ele>
        <time>2022-06-06T08:01:53.000Z</time>
      </trkpt>
      <trkpt lat="49.84302" lon="4.79059">
        <ele>370</ele>
        <time>2022-06-06T08:01:54.000Z</time>
      </trkpt>
      <trkpt lat="49.84304" lon="4.79062">
        <ele>370</ele>
        <time>2022-06-06T08:01:55.000Z</time>
      </trkpt>
      <trkpt lat="49.84307" lon="4.79064">
        <ele>370</ele>
        <time>2022-06-06T08:01:56.000Z</time>
      </trkpt>
      <trkpt lat="49.84309" lon="4.79066">
        <ele>370</ele>
        <time>2022-06-06T08:01:57.000Z</time>
      </trkpt>
      <trkpt lat="49.84312" lon="4.79068">
        <ele>371</ele>
        <time>2022-06-06T08:01:58.000Z</time>
      </trkpt>
      <trkpt lat="49.84315" lon="4.79069">
        <ele>371</ele>
        <time>2022-06-06T08:01:59.000Z</time>
      </trkpt>
      <trkpt lat="49.84317" lon="4.7907">
        <ele>371</ele>
        <time>2022-06-06T08:02:00.000Z</time>
      </trkpt>
      <trkpt lat="49.84319" lon="4.79071">
        <ele>372</ele>
        <time>2022-06-06T08:02:01.000Z</time>
      </trkpt>
      <trkpt lat="49.84321" lon="4.79072">
        <ele>372</ele>
        <time>2022-06-06T08:02:02.000Z</time>
      </trkpt>
      <trkpt lat="49.84323" lon="4.79073">
        <ele>372</ele>
        <time>2022-06-06T08:02:03.000Z</time>
      </trkpt>
      <trkpt lat="49.84325" lon="4.79074">
        <ele>373</ele>
        <time>2022-06-06T08:02:04.000Z</time>
      </trkpt>
      <trkpt lat="49.84326" lon="4.79075">
        <ele>373</ele>
        <time>2022-06-06T08:02:05.000Z</time>
      </trkpt>
      <trkpt lat="49.84328" lon="4.79077">
        <ele>374</ele>
        <time>2022-06-06T08:02:06.000Z</time>
      </trkpt>
      <trkpt lat="49.8433" lon="4.79078">
        <ele>374</ele>
        <time>2022-06-06T08:02:07.000Z</time>
      </trkpt>
      <trkpt lat="49.84332" lon="4.7908">
        <ele>374</ele>
        <time>2022-06-06T08:02:08.000Z</time>
      </trkpt>
      <trkpt lat="49.84333" lon="4.79081">
        <ele>374</ele>
        <time>2022-06-06T08:02:09.000Z</time>
      </trkpt>
      <trkpt lat="49.84336" lon="4.79082">
        <ele>375</ele>
        <time>2022-06-06T08:02:10.000Z</time>
      </trkpt>
      <trkpt lat="49.84339" lon="4.79084">
        <ele>375</ele>
        <time>2022-06-06T08:02:11.000Z</time>
      </trkpt>
      <trkpt lat="49.84343" lon="4.79086">
        <ele>375</ele>
        <time>2022-06-06T08:02:12.000Z</time>
      </trkpt>
      <trkpt lat="49.84347" lon="4.79089">
        <ele>375</ele>
        <time>2022-06-06T08:02:13.000Z</time>
      </trkpt>
      <trkpt lat="49.84352" lon="4.79092">
        <ele>375</ele>
        <time>2022-06-06T08:02:14.000Z</time>
      </trkpt>
      <trkpt lat="49.84356" lon="4.79095">
        <ele>375</ele>
        <time>2022-06-06T08:02:15.000Z</time>
      </trkpt>
      <trkpt lat="49.84361" lon="4.79098">
        <ele>376</ele>
        <time>2022-06-06T08:02:16.000Z</time>
      </trkpt>
      <trkpt lat="49.84365" lon="4.79101">
        <ele>376</ele>
        <time>2022-06-06T08:02:17.000Z</time>
      </trkpt>
      <trkpt lat="49.84369" lon="4.79105">
        <ele>376</ele>
        <time>2022-06-06T08:02:18.000Z</time>
      </trkpt>
      <trkpt lat="49.84373" lon="4.79109">
        <ele>376</ele>
        <time>2022-06-06T08:02:19.000Z</time>
      </trkpt>
      <trkpt lat="49.84377" lon="4.79113">
        <ele>376</ele>
        <time>2022-06-06T08:02:20.000Z</time>
      </trkpt>
      <trkpt lat="49.84381" lon="4.79117">
        <ele>376</ele>
        <time>2022-06-06T08:02:21.000Z</time>
      </trkpt>
      <trkpt lat="49.84385" lon="4.79121">
        <ele>376</ele>
        <time>2022-06-06T08:02:22.000Z</time>
      </trkpt>
      <trkpt lat="49.84387" lon="4.79125">
        <ele>377</ele>
        <time>2022-06-06T08:02:23.000Z</time>
      </trkpt>
      <trkpt lat="49.8439" lon="4.79128">
        <ele>377</ele>
        <time>2022-06-06T08:02:24.000Z</time>
      </trkpt>
      <trkpt lat="49.84392" lon="4.79132">
        <ele>377</ele>
        <time>2022-06-06T08:02:25.000Z</time>
      </trkpt>
      <trkpt lat="49.84394" lon="4.79136">
        <ele>377</ele>
        <time>2022-06-06T08:02:26.000Z</time>
      </trkpt>
      <trkpt lat="49.84396" lon="4.7914">
        <ele>378</ele>
        <time>2022-06-06T08:02:27.000Z</time>
      </trkpt>
      <trkpt lat="49.84399" lon="4.79144">
        <ele>378</ele>
        <time>2022-06-06T08:02:28.000Z</time>
      </trkpt>
      <trkpt lat="49.84401" lon="4.79147">
        <ele>378</ele>
        <time>2022-06-06T08:02:29.000Z</time>
      </trkpt>
      <trkpt lat="49.84403" lon="4.7915">
        <ele>378</ele>
        <time>2022-06-06T08:02:30.000Z</time>
      </trkpt>
      <trkpt lat="49.84405" lon="4.79153">
        <ele>378</ele>
        <time>2022-06-06T08:02:31.000Z</time>
      </trkpt>
      <trkpt lat="49.84406" lon="4.79156">
        <ele>379</ele>
        <time>2022-06-06T08:02:32.000Z</time>
      </trkpt>
      <trkpt lat="49.84408" lon="4.7916">
        <ele>379</ele>
        <time>2022-06-06T08:02:33.000Z</time>
      </trkpt>
      <trkpt lat="49.8441" lon="4.79163">
        <ele>379</ele>
        <time>2022-06-06T08:02:34.000Z</time>
      </trkpt>
      <trkpt lat="49.84412" lon="4.79167">
        <ele>379</ele>
        <time>2022-06-06T08:02:35.000Z</time>
      </trkpt>
      <trkpt lat="49.84413" lon="4.7917">
        <ele>379</ele>
        <time>2022-06-06T08:02:36.000Z</time>
      </trkpt>
      <trkpt lat="49.84414" lon="4.79174">
        <ele>379</ele>
        <time>2022-06-06T08:02:37.000Z</time>
      </trkpt>
      <trkpt lat="49.84416" lon="4.79177">
        <ele>379</ele>
        <time>2022-06-06T08:02:38.000Z</time>
      </trkpt>
      <trkpt lat="49.84418" lon="4.79181">
        <ele>379</ele>
        <time>2022-06-06T08:02:39.000Z</time>
      </trkpt>
      <trkpt lat="49.84421" lon="4.79185">
        <ele>379</ele>
        <time>2022-06-06T08:02:40.000Z</time>
      </trkpt>
      <trkpt lat="49.84423" lon="4.79189">
        <ele>379</ele>
        <time>2022-06-06T08:02:41.000Z</time>
      </trkpt>
      <trkpt lat="49.84426" lon="4.79194">
        <ele>379</ele>
        <time>2022-06-06T08:02:42.000Z</time>
      </trkpt>
      <trkpt lat="49.84429" lon="4.79199">
        <ele>379</ele>
        <time>2022-06-06T08:02:43.000Z</time>
      </trkpt>
      <trkpt lat="49.8443" lon="4.79204">
        <ele>379</ele>
        <time>2022-06-06T08:02:44.000Z</time>
      </trkpt>
      <trkpt lat="49.84432" lon="4.7921">
        <ele>379</ele>
        <time>2022-06-06T08:02:45.000Z</time>
      </trkpt>
      <trkpt lat="49.84434" lon="4.79216">
        <ele>379</ele>
        <time>2022-06-06T08:02:46.000Z</time>
      </trkpt>
      <trkpt lat="49.84435" lon="4.79221">
        <ele>379</ele>
        <time>2022-06-06T08:02:47.000Z</time>
      </trkpt>
      <trkpt lat="49.84436" lon="4.79227">
        <ele>379</ele>
        <time>2022-06-06T08:02:48.000Z</time>
      </trkpt>
      <trkpt lat="49.84437" lon="4.79233">
        <ele>379</ele>
        <time>2022-06-06T08:02:49.000Z</time>
      </trkpt>
      <trkpt lat="49.84438" lon="4.79238">
        <ele>380</ele>
        <time>2022-06-06T08:02:50.000Z</time>
      </trkpt>
      <trkpt lat="49.84438" lon="4.79244">
        <ele>380</ele>
        <time>2022-06-06T08:02:51.000Z</time>
      </trkpt>
      <trkpt lat="49.84439" lon="4.79249">
        <ele>380</ele>
        <time>2022-06-06T08:02:52.000Z</time>
      </trkpt>
      <trkpt lat="49.8444" lon="4.79254">
        <ele>380</ele>
        <time>2022-06-06T08:02:53.000Z</time>
      </trkpt>
      <trkpt lat="49.84441" lon="4.7926">
        <ele>380</ele>
        <time>2022-06-06T08:02:54.000Z</time>
      </trkpt>
      <trkpt lat="49.84443" lon="4.79266">
        <ele>380</ele>
        <time>2022-06-06T08:02:55.000Z</time>
      </trkpt>
      <trkpt lat="49.84444" lon="4.79271">
        <ele>381</ele>
        <time>2022-06-06T08:02:56.000Z</time>
      </trkpt>
      <trkpt lat="49.84445" lon="4.79276">
        <ele>381</ele>
        <time>2022-06-06T08:02:57.000Z</time>
      </trkpt>
      <trkpt lat="49.84447" lon="4.79281">
        <ele>381</ele>
        <time>2022-06-06T08:02:58.000Z</time>
      </trkpt>
      <trkpt lat="49.84448" lon="4.79285">
        <ele>381</ele>
        <time>2022-06-06T08:02:59.000Z</time>
      </trkpt>
      <trkpt lat="49.8445" lon="4.79289">
        <ele>381</ele>
        <time>2022-06-06T08:03:00.000Z</time>
      </trkpt>
      <trkpt lat="49.84451" lon="4.79293">
        <ele>381</ele>
        <time>2022-06-06T08:03:01.000Z</time>
      </trkpt>
      <trkpt lat="49.84452" lon="4.79298">
        <ele>382</ele>
        <time>2022-06-06T08:03:02.000Z</time>
      </trkpt>
      <trkpt lat="49.84452" lon="4.79303">
        <ele>382</ele>
        <time>2022-06-06T08:03:03.000Z</time>
      </trkpt>
      <trkpt lat="49.84454" lon="4.79308">
        <ele>382</ele>
        <time>2022-06-06T08:03:04.000Z</time>
      </trkpt>
      <trkpt lat="49.84455" lon="4.79314">
        <ele>382</ele>
        <time>2022-06-06T08:03:05.000Z</time>
      </trkpt>
      <trkpt lat="49.84455" lon="4.79319">
        <ele>382</ele>
        <time>2022-06-06T08:03:06.000Z</time>
      </trkpt>
      <trkpt lat="49.84456" lon="4.79324">
        <ele>382</ele>
        <time>2022-06-06T08:03:07.000Z</time>
      </trkpt>
      <trkpt lat="49.84457" lon="4.7933">
        <ele>382</ele>
        <time>2022-06-06T08:03:08.000Z</time>
      </trkpt>
      <trkpt lat="49.84458" lon="4.79335">
        <ele>383</ele>
        <time>2022-06-06T08:03:09.000Z</time>
      </trkpt>
      <trkpt lat="49.84458" lon="4.79341">
        <ele>383</ele>
        <time>2022-06-06T08:03:10.000Z</time>
      </trkpt>
      <trkpt lat="49.84458" lon="4.79348">
        <ele>383</ele>
        <time>2022-06-06T08:03:11.000Z</time>
      </trkpt>
      <trkpt lat="49.84459" lon="4.79354">
        <ele>383</ele>
        <time>2022-06-06T08:03:12.000Z</time>
      </trkpt>
      <trkpt lat="49.8446" lon="4.79361">
        <ele>383</ele>
        <time>2022-06-06T08:03:13.000Z</time>
      </trkpt>
      <trkpt lat="49.84461" lon="4.79368">
        <ele>383</ele>
        <time>2022-06-06T08:03:14.000Z</time>
      </trkpt>
      <trkpt lat="49.84462" lon="4.79375">
        <ele>383</ele>
        <time>2022-06-06T08:03:15.000Z</time>
      </trkpt>
      <trkpt lat="49.84463" lon="4.79382">
        <ele>383</ele>
        <time>2022-06-06T08:03:16.000Z</time>
      </trkpt>
      <trkpt lat="49.84464" lon="4.79389">
        <ele>383</ele>
        <time>2022-06-06T08:03:17.000Z</time>
      </trkpt>
      <trkpt lat="49.84465" lon="4.79397">
        <ele>383</ele>
        <time>2022-06-06T08:03:18.000Z</time>
      </trkpt>
      <trkpt lat="49.84466" lon="4.79404">
        <ele>384</ele>
        <time>2022-06-06T08:03:19.000Z</time>
      </trkpt>
      <trkpt lat="49.84467" lon="4.79411">
        <ele>384</ele>
        <time>2022-06-06T08:03:20.000Z</time>
      </trkpt>
      <trkpt lat="49.84468" lon="4.79418">
        <ele>384</ele>
        <time>2022-06-06T08:03:21.000Z</time>
      </trkpt>
      <trkpt lat="49.84468" lon="4.79425">
        <ele>384</ele>
        <time>2022-06-06T08:03:22.000Z</time>
      </trkpt>
      <trkpt lat="49.84468" lon="4.79431">
        <ele>384</ele>
        <time>2022-06-06T08:03:23.000Z</time>
      </trkpt>
      <trkpt lat="49.84467" lon="4.79438">
        <ele>384</ele>
        <time>2022-06-06T08:03:24.000Z</time>
      </trkpt>
      <trkpt lat="49.84467" lon="4.79445">
        <ele>384</ele>
        <time>2022-06-06T08:03:25.000Z</time>
      </trkpt>
      <trkpt lat="49.84467" lon="4.79452">
        <ele>384</ele>
        <time>2022-06-06T08:03:26.000Z</time>
      </trkpt>
      <trkpt lat="49.84466" lon="4.79459">
        <ele>384</ele>
        <time>2022-06-06T08:03:27.000Z</time>
      </trkpt>
      <trkpt lat="49.84464" lon="4.79465">
        <ele>384</ele>
        <time>2022-06-06T08:03:28.000Z</time>
      </trkpt>
      <trkpt lat="49.84462" lon="4.7947">
        <ele>384</ele>
        <time>2022-06-06T08:03:29.000Z</time>
      </trkpt>
      <trkpt lat="49.8446" lon="4.79475">
        <ele>384</ele>
        <time>2022-06-06T08:03:30.000Z</time>
      </trkpt>
      <trkpt lat="49.84459" lon="4.79479">
        <ele>384</ele>
        <time>2022-06-06T08:03:31.000Z</time>
      </trkpt>
      <trkpt lat="49.84459" lon="4.79483">
        <ele>384</ele>
        <time>2022-06-06T08:03:32.000Z</time>
      </trkpt>
      <trkpt lat="49.84459" lon="4.79486">
        <ele>384</ele>
        <time>2022-06-06T08:03:33.000Z</time>
      </trkpt>
      <trkpt lat="49.84459" lon="4.7949">
        <ele>384</ele>
        <time>2022-06-06T08:03:34.000Z</time>
      </trkpt>
      <trkpt lat="49.84459" lon="4.79493">
        <ele>384</ele>
        <time>2022-06-06T08:03:35.000Z</time>
      </trkpt>
      <trkpt lat="49.8446" lon="4.79497">
        <ele>384</ele>
        <time>2022-06-06T08:03:36.000Z</time>
      </trkpt>
      <trkpt lat="49.8446" lon="4.79499">
        <ele>384</ele>
        <time>2022-06-06T08:03:37.000Z</time>
      </trkpt>
      <trkpt lat="49.84461" lon="4.79504">
        <ele>385</ele>
        <time>2022-06-06T08:03:38.000Z</time>
      </trkpt>
      <trkpt lat="49.84461" lon="4.79509">
        <ele>385</ele>
        <time>2022-06-06T08:03:39.000Z</time>
      </trkpt>
      <trkpt lat="49.84461" lon="4.79515">
        <ele>385</ele>
        <time>2022-06-06T08:03:40.000Z</time>
      </trkpt>
      <trkpt lat="49.84462" lon="4.79522">
        <ele>385</ele>
        <time>2022-06-06T08:03:41.000Z</time>
      </trkpt>
      <trkpt lat="49.84462" lon="4.7953">
        <ele>385</ele>
        <time>2022-06-06T08:03:42.000Z</time>
      </trkpt>
      <trkpt lat="49.84463" lon="4.79537">
        <ele>385</ele>
        <time>2022-06-06T08:03:43.000Z</time>
      </trkpt>
      <trkpt lat="49.84462" lon="4.79545">
        <ele>385</ele>
        <time>2022-06-06T08:03:44.000Z</time>
      </trkpt>
      <trkpt lat="49.84462" lon="4.79553">
        <ele>385</ele>
        <time>2022-06-06T08:03:45.000Z</time>
      </trkpt>
      <trkpt lat="49.84461" lon="4.79561">
        <ele>385</ele>
        <time>2022-06-06T08:03:46.000Z</time>
      </trkpt>
      <trkpt lat="49.8446" lon="4.79568">
        <ele>385</ele>
        <time>2022-06-06T08:03:47.000Z</time>
      </trkpt>
      <trkpt lat="49.8446" lon="4.79575">
        <ele>385</ele>
        <time>2022-06-06T08:03:48.000Z</time>
      </trkpt>
      <trkpt lat="49.84459" lon="4.79583">
        <ele>385</ele>
        <time>2022-06-06T08:03:49.000Z</time>
      </trkpt>
      <trkpt lat="49.84459" lon="4.7959">
        <ele>385</ele>
        <time>2022-06-06T08:03:50.000Z</time>
      </trkpt>
      <trkpt lat="49.84458" lon="4.79597">
        <ele>386</ele>
        <time>2022-06-06T08:03:51.000Z</time>
      </trkpt>
      <trkpt lat="49.84456" lon="4.79604">
        <ele>386</ele>
        <time>2022-06-06T08:03:52.000Z</time>
      </trkpt>
      <trkpt lat="49.84455" lon="4.7961">
        <ele>386</ele>
        <time>2022-06-06T08:03:53.000Z</time>
      </trkpt>
      <trkpt lat="49.84455" lon="4.79617">
        <ele>386</ele>
        <time>2022-06-06T08:03:54.000Z</time>
      </trkpt>
      <trkpt lat="49.84456" lon="4.79623">
        <ele>386</ele>
        <time>2022-06-06T08:03:55.000Z</time>
      </trkpt>
      <trkpt lat="49.84458" lon="4.79628">
        <ele>385</ele>
        <time>2022-06-06T08:03:56.000Z</time>
      </trkpt>
      <trkpt lat="49.8446" lon="4.79631">
        <ele>385</ele>
        <time>2022-06-06T08:03:57.000Z</time>
      </trkpt>
      <trkpt lat="49.84463" lon="4.79632">
        <ele>385</ele>
        <time>2022-06-06T08:03:58.000Z</time>
      </trkpt>
      <trkpt lat="49.84465" lon="4.79633">
        <ele>385</ele>
        <time>2022-06-06T08:03:59.000Z</time>
      </trkpt>
      <trkpt lat="49.84468" lon="4.79634">
        <ele>385</ele>
        <time>2022-06-06T08:04:00.000Z</time>
      </trkpt>
      <trkpt lat="49.84471" lon="4.79634">
        <ele>385</ele>
        <time>2022-06-06T08:04:01.000Z</time>
      </trkpt>
      <trkpt lat="49.84474" lon="4.79634">
        <ele>384</ele>
        <time>2022-06-06T08:04:02.000Z</time>
      </trkpt>
      <trkpt lat="49.84477" lon="4.79634">
        <ele>384</ele>
        <time>2022-06-06T08:04:03.000Z</time>
      </trkpt>
      <trkpt lat="49.8448" lon="4.79634">
        <ele>384</ele>
        <time>2022-06-06T08:04:04.000Z</time>
      </trkpt>
      <trkpt lat="49.84483" lon="4.79636">
        <ele>384</ele>
        <time>2022-06-06T08:04:05.000Z</time>
      </trkpt>
      <trkpt lat="49.84485" lon="4.79639">
        <ele>384</ele>
        <time>2022-06-06T08:04:06.000Z</time>
      </trkpt>
      <trkpt lat="49.84487" lon="4.79644">
        <ele>384</ele>
        <time>2022-06-06T08:04:07.000Z</time>
      </trkpt>
      <trkpt lat="49.84488" lon="4.79649">
        <ele>385</ele>
        <time>2022-06-06T08:04:08.000Z</time>
      </trkpt>
      <trkpt lat="49.84489" lon="4.79656">
        <ele>385</ele>
        <time>2022-06-06T08:04:09.000Z</time>
      </trkpt>
      <trkpt lat="49.8449" lon="4.79663">
        <ele>385</ele>
        <time>2022-06-06T08:04:10.000Z</time>
      </trkpt>
      <trkpt lat="49.84492" lon="4.79669">
        <ele>385</ele>
        <time>2022-06-06T08:04:11.000Z</time>
      </trkpt>
      <trkpt lat="49.84493" lon="4.79676">
        <ele>385</ele>
        <time>2022-06-06T08:04:12.000Z</time>
      </trkpt>
      <trkpt lat="49.84494" lon="4.79683">
        <ele>386</ele>
        <time>2022-06-06T08:04:13.000Z</time>
      </trkpt>
      <trkpt lat="49.84495" lon="4.7969">
        <ele>386</ele>
        <time>2022-06-06T08:04:14.000Z</time>
      </trkpt>
      <trkpt lat="49.84496" lon="4.79696">
        <ele>386</ele>
        <time>2022-06-06T08:04:15.000Z</time>
      </trkpt>
      <trkpt lat="49.84496" lon="4.79703">
        <ele>386</ele>
        <time>2022-06-06T08:04:16.000Z</time>
      </trkpt>
      <trkpt lat="49.84498" lon="4.7971">
        <ele>387</ele>
        <time>2022-06-06T08:04:17.000Z</time>
      </trkpt>
      <trkpt lat="49.84499" lon="4.79717">
        <ele>387</ele>
        <time>2022-06-06T08:04:18.000Z</time>
      </trkpt>
      <trkpt lat="49.84501" lon="4.79723">
        <ele>387</ele>
        <time>2022-06-06T08:04:19.000Z</time>
      </trkpt>
      <trkpt lat="49.84503" lon="4.7973">
        <ele>387</ele>
        <time>2022-06-06T08:04:20.000Z</time>
      </trkpt>
      <trkpt lat="49.84504" lon="4.79737">
        <ele>387</ele>
        <time>2022-06-06T08:04:21.000Z</time>
      </trkpt>
      <trkpt lat="49.84505" lon="4.79742">
        <ele>388</ele>
        <time>2022-06-06T08:04:22.000Z</time>
      </trkpt>
      <trkpt lat="49.84505" lon="4.79748">
        <ele>388</ele>
        <time>2022-06-06T08:04:23.000Z</time>
      </trkpt>
      <trkpt lat="49.84504" lon="4.79754">
        <ele>388</ele>
        <time>2022-06-06T08:04:24.000Z</time>
      </trkpt>
      <trkpt lat="49.84505" lon="4.79761">
        <ele>388</ele>
        <time>2022-06-06T08:04:25.000Z</time>
      </trkpt>
      <trkpt lat="49.84505" lon="4.79767">
        <ele>388</ele>
        <time>2022-06-06T08:04:26.000Z</time>
      </trkpt>
      <trkpt lat="49.84505" lon="4.79774">
        <ele>389</ele>
        <time>2022-06-06T08:04:27.000Z</time>
      </trkpt>
      <trkpt lat="49.84506" lon="4.79781">
        <ele>389</ele>
        <time>2022-06-06T08:04:28.000Z</time>
      </trkpt>
      <trkpt lat="49.84506" lon="4.79787">
        <ele>389</ele>
        <time>2022-06-06T08:04:29.000Z</time>
      </trkpt>
      <trkpt lat="49.84506" lon="4.79793">
        <ele>389</ele>
        <time>2022-06-06T08:04:30.000Z</time>
      </trkpt>
      <trkpt lat="49.84508" lon="4.79799">
        <ele>390</ele>
        <time>2022-06-06T08:04:31.000Z</time>
      </trkpt>
      <trkpt lat="49.84508" lon="4.79806">
        <ele>390</ele>
        <time>2022-06-06T08:04:32.000Z</time>
      </trkpt>
      <trkpt lat="49.84508" lon="4.79813">
        <ele>390</ele>
        <time>2022-06-06T08:04:33.000Z</time>
      </trkpt>
      <trkpt lat="49.84509" lon="4.79819">
        <ele>390</ele>
        <time>2022-06-06T08:04:34.000Z</time>
      </trkpt>
      <trkpt lat="49.8451" lon="4.79826">
        <ele>390</ele>
        <time>2022-06-06T08:04:35.000Z</time>
      </trkpt>
      <trkpt lat="49.84511" lon="4.79832">
        <ele>390</ele>
        <time>2022-06-06T08:04:36.000Z</time>
      </trkpt>
      <trkpt lat="49.84511" lon="4.79839">
        <ele>391</ele>
        <time>2022-06-06T08:04:37.000Z</time>
      </trkpt>
      <trkpt lat="49.84511" lon="4.79846">
        <ele>391</ele>
        <time>2022-06-06T08:04:38.000Z</time>
      </trkpt>
      <trkpt lat="49.84512" lon="4.79852">
        <ele>391</ele>
        <time>2022-06-06T08:04:39.000Z</time>
      </trkpt>
      <trkpt lat="49.84513" lon="4.79859">
        <ele>391</ele>
        <time>2022-06-06T08:04:40.000Z</time>
      </trkpt>
      <trkpt lat="49.84514" lon="4.79865">
        <ele>391</ele>
        <time>2022-06-06T08:04:41.000Z</time>
      </trkpt>
      <trkpt lat="49.84515" lon="4.79872">
        <ele>392</ele>
        <time>2022-06-06T08:04:42.000Z</time>
      </trkpt>
      <trkpt lat="49.84516" lon="4.79878">
        <ele>392</ele>
        <time>2022-06-06T08:04:43.000Z</time>
      </trkpt>
      <trkpt lat="49.84517" lon="4.79884">
        <ele>392</ele>
        <time>2022-06-06T08:04:44.000Z</time>
      </trkpt>
      <trkpt lat="49.84518" lon="4.7989">
        <ele>392</ele>
        <time>2022-06-06T08:04:45.000Z</time>
      </trkpt>
      <trkpt lat="49.84518" lon="4.79897">
        <ele>392</ele>
        <time>2022-06-06T08:04:46.000Z</time>
      </trkpt>
      <trkpt lat="49.84519" lon="4.79903">
        <ele>392</ele>
        <time>2022-06-06T08:04:47.000Z</time>
      </trkpt>
      <trkpt lat="49.8452" lon="4.7991">
        <ele>392</ele>
        <time>2022-06-06T08:04:48.000Z</time>
      </trkpt>
      <trkpt lat="49.84521" lon="4.79916">
        <ele>393</ele>
        <time>2022-06-06T08:04:49.000Z</time>
      </trkpt>
      <trkpt lat="49.84522" lon="4.79922">
        <ele>393</ele>
        <time>2022-06-06T08:04:50.000Z</time>
      </trkpt>
      <trkpt lat="49.84524" lon="4.79928">
        <ele>393</ele>
        <time>2022-06-06T08:04:51.000Z</time>
      </trkpt>
      <trkpt lat="49.84525" lon="4.79933">
        <ele>393</ele>
        <time>2022-06-06T08:04:52.000Z</time>
      </trkpt>
      <trkpt lat="49.84526" lon="4.79938">
        <ele>393</ele>
        <time>2022-06-06T08:04:53.000Z</time>
      </trkpt>
      <trkpt lat="49.84527" lon="4.79942">
        <ele>393</ele>
        <time>2022-06-06T08:04:54.000Z</time>
      </trkpt>
      <trkpt lat="49.84529" lon="4.79947">
        <ele>393</ele>
        <time>2022-06-06T08:04:55.000Z</time>
      </trkpt>
      <trkpt lat="49.8453" lon="4.79952">
        <ele>393</ele>
        <time>2022-06-06T08:04:56.000Z</time>
      </trkpt>
      <trkpt lat="49.84532" lon="4.79958">
        <ele>394</ele>
        <time>2022-06-06T08:04:57.000Z</time>
      </trkpt>
      <trkpt lat="49.84534" lon="4.79963">
        <ele>394</ele>
        <time>2022-06-06T08:04:58.000Z</time>
      </trkpt>
      <trkpt lat="49.84536" lon="4.7997">
        <ele>394</ele>
        <time>2022-06-06T08:04:59.000Z</time>
      </trkpt>
      <trkpt lat="49.84538" lon="4.79976">
        <ele>394</ele>
        <time>2022-06-06T08:05:00.000Z</time>
      </trkpt>
      <trkpt lat="49.8454" lon="4.79982">
        <ele>394</ele>
        <time>2022-06-06T08:05:01.000Z</time>
      </trkpt>
      <trkpt lat="49.84543" lon="4.79988">
        <ele>394</ele>
        <time>2022-06-06T08:05:02.000Z</time>
      </trkpt>
      <trkpt lat="49.84546" lon="4.79994">
        <ele>394</ele>
        <time>2022-06-06T08:05:03.000Z</time>
      </trkpt>
      <trkpt lat="49.84549" lon="4.79999">
        <ele>394</ele>
        <time>2022-06-06T08:05:04.000Z</time>
      </trkpt>
      <trkpt lat="49.84553" lon="4.80005">
        <ele>395</ele>
        <time>2022-06-06T08:05:05.000Z</time>
      </trkpt>
      <trkpt lat="49.84557" lon="4.80011">
        <ele>395</ele>
        <time>2022-06-06T08:05:06.000Z</time>
      </trkpt>
      <trkpt lat="49.8456" lon="4.80017">
        <ele>395</ele>
        <time>2022-06-06T08:05:07.000Z</time>
      </trkpt>
      <trkpt lat="49.84563" lon="4.80022">
        <ele>395</ele>
        <time>2022-06-06T08:05:08.000Z</time>
      </trkpt>
      <trkpt lat="49.84565" lon="4.80028">
        <ele>396</ele>
        <time>2022-06-06T08:05:09.000Z</time>
      </trkpt>
      <trkpt lat="49.84568" lon="4.80033">
        <ele>396</ele>
        <time>2022-06-06T08:05:10.000Z</time>
      </trkpt>
      <trkpt lat="49.8457" lon="4.80038">
        <ele>396</ele>
        <time>2022-06-06T08:05:11.000Z</time>
      </trkpt>
      <trkpt lat="49.84572" lon="4.80043">
        <ele>396</ele>
        <time>2022-06-06T08:05:12.000Z</time>
      </trkpt>
      <trkpt lat="49.84575" lon="4.80049">
        <ele>396</ele>
        <time>2022-06-06T08:05:13.000Z</time>
      </trkpt>
      <trkpt lat="49.84577" lon="4.80055">
        <ele>397</ele>
        <time>2022-06-06T08:05:14.000Z</time>
      </trkpt>
      <trkpt lat="49.84579" lon="4.80061">
        <ele>397</ele>
        <time>2022-06-06T08:05:15.000Z</time>
      </trkpt>
      <trkpt lat="49.84581" lon="4.80067">
        <ele>397</ele>
        <time>2022-06-06T08:05:16.000Z</time>
      </trkpt>
      <trkpt lat="49.84584" lon="4.80073">
        <ele>397</ele>
        <time>2022-06-06T08:05:17.000Z</time>
      </trkpt>
      <trkpt lat="49.84586" lon="4.80079">
        <ele>397</ele>
        <time>2022-06-06T08:05:18.000Z</time>
      </trkpt>
      <trkpt lat="49.84588" lon="4.80086">
        <ele>397</ele>
        <time>2022-06-06T08:05:19.000Z</time>
      </trkpt>
      <trkpt lat="49.84591" lon="4.80092">
        <ele>397</ele>
        <time>2022-06-06T08:05:20.000Z</time>
      </trkpt>
      <trkpt lat="49.84593" lon="4.80098">
        <ele>397</ele>
        <time>2022-06-06T08:05:21.000Z</time>
      </trkpt>
      <trkpt lat="49.84596" lon="4.80105">
        <ele>397</ele>
        <time>2022-06-06T08:05:22.000Z</time>
      </trkpt>
      <trkpt lat="49.84598" lon="4.80111">
        <ele>397</ele>
        <time>2022-06-06T08:05:23.000Z</time>
      </trkpt>
      <trkpt lat="49.846" lon="4.80117">
        <ele>397</ele>
        <time>2022-06-06T08:05:24.000Z</time>
      </trkpt>
      <trkpt lat="49.84602" lon="4.80123">
        <ele>398</ele>
        <time>2022-06-06T08:05:25.000Z</time>
      </trkpt>
      <trkpt lat="49.84604" lon="4.8013">
        <ele>398</ele>
        <time>2022-06-06T08:05:26.000Z</time>
      </trkpt>
      <trkpt lat="49.84606" lon="4.80136">
        <ele>398</ele>
        <time>2022-06-06T08:05:27.000Z</time>
      </trkpt>
      <trkpt lat="49.84608" lon="4.80143">
        <ele>398</ele>
        <time>2022-06-06T08:05:28.000Z</time>
      </trkpt>
      <trkpt lat="49.84609" lon="4.80149">
        <ele>398</ele>
        <time>2022-06-06T08:05:29.000Z</time>
      </trkpt>
      <trkpt lat="49.84611" lon="4.80157">
        <ele>398</ele>
        <time>2022-06-06T08:05:30.000Z</time>
      </trkpt>
      <trkpt lat="49.84611" lon="4.80164">
        <ele>398</ele>
        <time>2022-06-06T08:05:31.000Z</time>
      </trkpt>
      <trkpt lat="49.84612" lon="4.80171">
        <ele>399</ele>
        <time>2022-06-06T08:05:32.000Z</time>
      </trkpt>
      <trkpt lat="49.84612" lon="4.80177">
        <ele>399</ele>
        <time>2022-06-06T08:05:33.000Z</time>
      </trkpt>
      <trkpt lat="49.84612" lon="4.80182">
        <ele>399</ele>
        <time>2022-06-06T08:05:34.000Z</time>
      </trkpt>
      <trkpt lat="49.84613" lon="4.80188">
        <ele>399</ele>
        <time>2022-06-06T08:05:35.000Z</time>
      </trkpt>
      <trkpt lat="49.84614" lon="4.80195">
        <ele>399</ele>
        <time>2022-06-06T08:05:36.000Z</time>
      </trkpt>
      <trkpt lat="49.84615" lon="4.802">
        <ele>399</ele>
        <time>2022-06-06T08:05:37.000Z</time>
      </trkpt>
      <trkpt lat="49.84616" lon="4.80205">
        <ele>400</ele>
        <time>2022-06-06T08:05:38.000Z</time>
      </trkpt>
      <trkpt lat="49.84617" lon="4.80209">
        <ele>400</ele>
        <time>2022-06-06T08:05:39.000Z</time>
      </trkpt>
      <trkpt lat="49.84617" lon="4.80214">
        <ele>400</ele>
        <time>2022-06-06T08:05:40.000Z</time>
      </trkpt>
      <trkpt lat="49.84617" lon="4.80218">
        <ele>400</ele>
        <time>2022-06-06T08:05:41.000Z</time>
      </trkpt>
      <trkpt lat="49.84618" lon="4.80223">
        <ele>401</ele>
        <time>2022-06-06T08:05:42.000Z</time>
      </trkpt>
      <trkpt lat="49.84619" lon="4.80227">
        <ele>401</ele>
        <time>2022-06-06T08:05:43.000Z</time>
      </trkpt>
      <trkpt lat="49.8462" lon="4.80231">
        <ele>401</ele>
        <time>2022-06-06T08:05:44.000Z</time>
      </trkpt>
      <trkpt lat="49.84622" lon="4.80236">
        <ele>401</ele>
        <time>2022-06-06T08:05:45.000Z</time>
      </trkpt>
      <trkpt lat="49.84623" lon="4.80241">
        <ele>401</ele>
        <time>2022-06-06T08:05:46.000Z</time>
      </trkpt>
      <trkpt lat="49.84624" lon="4.80246">
        <ele>401</ele>
        <time>2022-06-06T08:05:47.000Z</time>
      </trkpt>
      <trkpt lat="49.84625" lon="4.80251">
        <ele>401</ele>
        <time>2022-06-06T08:05:48.000Z</time>
      </trkpt>
      <trkpt lat="49.84626" lon="4.80257">
        <ele>401</ele>
        <time>2022-06-06T08:05:49.000Z</time>
      </trkpt>
      <trkpt lat="49.84627" lon="4.80263">
        <ele>402</ele>
        <time>2022-06-06T08:05:50.000Z</time>
      </trkpt>
      <trkpt lat="49.84628" lon="4.80269">
        <ele>402</ele>
        <time>2022-06-06T08:05:51.000Z</time>
      </trkpt>
      <trkpt lat="49.84629" lon="4.80274">
        <ele>402</ele>
        <time>2022-06-06T08:05:52.000Z</time>
      </trkpt>
      <trkpt lat="49.84631" lon="4.80279">
        <ele>402</ele>
        <time>2022-06-06T08:05:53.000Z</time>
      </trkpt>
      <trkpt lat="49.84632" lon="4.80285">
        <ele>402</ele>
        <time>2022-06-06T08:05:54.000Z</time>
      </trkpt>
      <trkpt lat="49.84634" lon="4.80291">
        <ele>402</ele>
        <time>2022-06-06T08:05:55.000Z</time>
      </trkpt>
      <trkpt lat="49.84636" lon="4.80298">
        <ele>402</ele>
        <time>2022-06-06T08:05:56.000Z</time>
      </trkpt>
      <trkpt lat="49.84638" lon="4.80304">
        <ele>402</ele>
        <time>2022-06-06T08:05:57.000Z</time>
      </trkpt>
      <trkpt lat="49.8464" lon="4.8031">
        <ele>402</ele>
        <time>2022-06-06T08:05:58.000Z</time>
      </trkpt>
      <trkpt lat="49.84642" lon="4.80316">
        <ele>402</ele>
        <time>2022-06-06T08:05:59.000Z</time>
      </trkpt>
      <trkpt lat="49.84643" lon="4.80321">
        <ele>402</ele>
        <time>2022-06-06T08:06:00.000Z</time>
      </trkpt>
      <trkpt lat="49.84645" lon="4.80327">
        <ele>402</ele>
        <time>2022-06-06T08:06:01.000Z</time>
      </trkpt>
      <trkpt lat="49.84647" lon="4.80334">
        <ele>402</ele>
        <time>2022-06-06T08:06:02.000Z</time>
      </trkpt>
      <trkpt lat="49.8465" lon="4.80339">
        <ele>402</ele>
        <time>2022-06-06T08:06:03.000Z</time>
      </trkpt>
      <trkpt lat="49.84652" lon="4.80345">
        <ele>402</ele>
        <time>2022-06-06T08:06:04.000Z</time>
      </trkpt>
      <trkpt lat="49.84654" lon="4.8035">
        <ele>402</ele>
        <time>2022-06-06T08:06:05.000Z</time>
      </trkpt>
      <trkpt lat="49.84657" lon="4.80356">
        <ele>402</ele>
        <time>2022-06-06T08:06:06.000Z</time>
      </trkpt>
      <trkpt lat="49.84659" lon="4.80363">
        <ele>402</ele>
        <time>2022-06-06T08:06:07.000Z</time>
      </trkpt>
      <trkpt lat="49.84662" lon="4.80371">
        <ele>402</ele>
        <time>2022-06-06T08:06:08.000Z</time>
      </trkpt>
      <trkpt lat="49.84666" lon="4.80379">
        <ele>401</ele>
        <time>2022-06-06T08:06:09.000Z</time>
      </trkpt>
      <trkpt lat="49.8467" lon="4.80387">
        <ele>401</ele>
        <time>2022-06-06T08:06:10.000Z</time>
      </trkpt>
      <trkpt lat="49.84674" lon="4.80394">
        <ele>401</ele>
        <time>2022-06-06T08:06:11.000Z</time>
      </trkpt>
      <trkpt lat="49.84678" lon="4.80403">
        <ele>401</ele>
        <time>2022-06-06T08:06:12.000Z</time>
      </trkpt>
      <trkpt lat="49.84682" lon="4.80412">
        <ele>401</ele>
        <time>2022-06-06T08:06:13.000Z</time>
      </trkpt>
      <trkpt lat="49.84686" lon="4.8042">
        <ele>400</ele>
        <time>2022-06-06T08:06:14.000Z</time>
      </trkpt>
      <trkpt lat="49.84689" lon="4.80428">
        <ele>400</ele>
        <time>2022-06-06T08:06:15.000Z</time>
      </trkpt>
      <trkpt lat="49.84692" lon="4.80436">
        <ele>400</ele>
        <time>2022-06-06T08:06:16.000Z</time>
      </trkpt>
      <trkpt lat="49.84695" lon="4.80444">
        <ele>400</ele>
        <time>2022-06-06T08:06:17.000Z</time>
      </trkpt>
      <trkpt lat="49.84698" lon="4.80451">
        <ele>400</ele>
        <time>2022-06-06T08:06:18.000Z</time>
      </trkpt>
      <trkpt lat="49.84701" lon="4.80459">
        <ele>399</ele>
        <time>2022-06-06T08:06:19.000Z</time>
      </trkpt>
      <trkpt lat="49.84705" lon="4.80466">
        <ele>399</ele>
        <time>2022-06-06T08:06:20.000Z</time>
      </trkpt>
      <trkpt lat="49.84708" lon="4.80474">
        <ele>399</ele>
        <time>2022-06-06T08:06:21.000Z</time>
      </trkpt>
      <trkpt lat="49.84712" lon="4.80481">
        <ele>399</ele>
        <time>2022-06-06T08:06:22.000Z</time>
      </trkpt>
      <trkpt lat="49.84715" lon="4.80488">
        <ele>398</ele>
        <time>2022-06-06T08:06:23.000Z</time>
      </trkpt>
      <trkpt lat="49.84719" lon="4.80496">
        <ele>398</ele>
        <time>2022-06-06T08:06:24.000Z</time>
      </trkpt>
      <trkpt lat="49.84722" lon="4.80503">
        <ele>398</ele>
        <time>2022-06-06T08:06:25.000Z</time>
      </trkpt>
      <trkpt lat="49.84726" lon="4.80511">
        <ele>397</ele>
        <time>2022-06-06T08:06:26.000Z</time>
      </trkpt>
      <trkpt lat="49.84729" lon="4.80518">
        <ele>397</ele>
        <time>2022-06-06T08:06:27.000Z</time>
      </trkpt>
      <trkpt lat="49.84733" lon="4.80526">
        <ele>396</ele>
        <time>2022-06-06T08:06:28.000Z</time>
      </trkpt>
      <trkpt lat="49.84736" lon="4.80531">
        <ele>396</ele>
        <time>2022-06-06T08:06:29.000Z</time>
      </trkpt>
      <trkpt lat="49.8474" lon="4.80535">
        <ele>396</ele>
        <time>2022-06-06T08:06:30.000Z</time>
      </trkpt>
      <trkpt lat="49.84742" lon="4.80537">
        <ele>395</ele>
        <time>2022-06-06T08:06:31.000Z</time>
      </trkpt>
      <trkpt lat="49.84745" lon="4.80537">
        <ele>395</ele>
        <time>2022-06-06T08:06:32.000Z</time>
      </trkpt>
      <trkpt lat="49.84747" lon="4.80537">
        <ele>395</ele>
        <time>2022-06-06T08:06:33.000Z</time>
      </trkpt>
      <trkpt lat="49.8475" lon="4.80537">
        <ele>395</ele>
        <time>2022-06-06T08:06:34.000Z</time>
      </trkpt>
      <trkpt lat="49.84752" lon="4.80536">
        <ele>394</ele>
        <time>2022-06-06T08:06:35.000Z</time>
      </trkpt>
      <trkpt lat="49.84753" lon="4.80535">
        <ele>394</ele>
        <time>2022-06-06T08:06:36.000Z</time>
      </trkpt>
      <trkpt lat="49.84755" lon="4.80533">
        <ele>394</ele>
        <time>2022-06-06T08:06:37.000Z</time>
      </trkpt>
      <trkpt lat="49.84756" lon="4.80531">
        <ele>394</ele>
        <time>2022-06-06T08:06:38.000Z</time>
      </trkpt>
      <trkpt lat="49.84756" lon="4.80527">
        <ele>394</ele>
        <time>2022-06-06T08:06:39.000Z</time>
      </trkpt>
      <trkpt lat="49.84756" lon="4.80523">
        <ele>393</ele>
        <time>2022-06-06T08:06:40.000Z</time>
      </trkpt>
      <trkpt lat="49.84756" lon="4.80517">
        <ele>393</ele>
        <time>2022-06-06T08:06:41.000Z</time>
      </trkpt>
      <trkpt lat="49.84757" lon="4.80512">
        <ele>393</ele>
        <time>2022-06-06T08:06:42.000Z</time>
      </trkpt>
      <trkpt lat="49.84757" lon="4.80507">
        <ele>393</ele>
        <time>2022-06-06T08:06:43.000Z</time>
      </trkpt>
      <trkpt lat="49.84756" lon="4.80502">
        <ele>393</ele>
        <time>2022-06-06T08:06:44.000Z</time>
      </trkpt>
      <trkpt lat="49.84755" lon="4.80496">
        <ele>393</ele>
        <time>2022-06-06T08:06:45.000Z</time>
      </trkpt>
      <trkpt lat="49.84754" lon="4.80489">
        <ele>393</ele>
        <time>2022-06-06T08:06:46.000Z</time>
      </trkpt>
      <trkpt lat="49.84752" lon="4.80482">
        <ele>393</ele>
        <time>2022-06-06T08:06:47.000Z</time>
      </trkpt>
      <trkpt lat="49.84751" lon="4.80476">
        <ele>393</ele>
        <time>2022-06-06T08:06:48.000Z</time>
      </trkpt>
      <trkpt lat="49.8475" lon="4.80469">
        <ele>392</ele>
        <time>2022-06-06T08:06:49.000Z</time>
      </trkpt>
      <trkpt lat="49.84749" lon="4.80463">
        <ele>392</ele>
        <time>2022-06-06T08:06:50.000Z</time>
      </trkpt>
      <trkpt lat="49.84748" lon="4.80457">
        <ele>392</ele>
        <time>2022-06-06T08:06:51.000Z</time>
      </trkpt>
      <trkpt lat="49.84747" lon="4.80451">
        <ele>392</ele>
        <time>2022-06-06T08:06:52.000Z</time>
      </trkpt>
      <trkpt lat="49.84746" lon="4.80445">
        <ele>392</ele>
        <time>2022-06-06T08:06:53.000Z</time>
      </trkpt>
      <trkpt lat="49.84745" lon="4.80438">
        <ele>392</ele>
        <time>2022-06-06T08:06:54.000Z</time>
      </trkpt>
      <trkpt lat="49.84745" lon="4.80432">
        <ele>392</ele>
        <time>2022-06-06T08:06:55.000Z</time>
      </trkpt>
      <trkpt lat="49.84745" lon="4.80425">
        <ele>393</ele>
        <time>2022-06-06T08:06:56.000Z</time>
      </trkpt>
      <trkpt lat="49.84745" lon="4.80419">
        <ele>393</ele>
        <time>2022-06-06T08:06:57.000Z</time>
      </trkpt>
      <trkpt lat="49.84745" lon="4.80412">
        <ele>393</ele>
        <time>2022-06-06T08:06:58.000Z</time>
      </trkpt>
      <trkpt lat="49.84746" lon="4.80405">
        <ele>393</ele>
        <time>2022-06-06T08:06:59.000Z</time>
      </trkpt>
      <trkpt lat="49.84746" lon="4.80398">
        <ele>393</ele>
        <time>2022-06-06T08:07:00.000Z</time>
      </trkpt>
      <trkpt lat="49.84746" lon="4.80391">
        <ele>393</ele>
        <time>2022-06-06T08:07:01.000Z</time>
      </trkpt>
      <trkpt lat="49.84746" lon="4.80384">
        <ele>393</ele>
        <time>2022-06-06T08:07:02.000Z</time>
      </trkpt>
      <trkpt lat="49.84746" lon="4.80376">
        <ele>393</ele>
        <time>2022-06-06T08:07:03.000Z</time>
      </trkpt>
      <trkpt lat="49.84747" lon="4.80368">
        <ele>393</ele>
        <time>2022-06-06T08:07:04.000Z</time>
      </trkpt>
      <trkpt lat="49.84747" lon="4.8036">
        <ele>392</ele>
        <time>2022-06-06T08:07:05.000Z</time>
      </trkpt>
      <trkpt lat="49.84747" lon="4.80352">
        <ele>392</ele>
        <time>2022-06-06T08:07:06.000Z</time>
      </trkpt>
      <trkpt lat="49.84746" lon="4.80345">
        <ele>392</ele>
        <time>2022-06-06T08:07:07.000Z</time>
      </trkpt>
      <trkpt lat="49.84746" lon="4.80339">
        <ele>392</ele>
        <time>2022-06-06T08:07:08.000Z</time>
      </trkpt>
      <trkpt lat="49.84746" lon="4.80334">
        <ele>392</ele>
        <time>2022-06-06T08:07:09.000Z</time>
      </trkpt>
      <trkpt lat="49.84746" lon="4.80328">
        <ele>392</ele>
        <time>2022-06-06T08:07:10.000Z</time>
      </trkpt>
      <trkpt lat="49.84746" lon="4.80322">
        <ele>392</ele>
        <time>2022-06-06T08:07:11.000Z</time>
      </trkpt>
      <trkpt lat="49.84747" lon="4.80316">
        <ele>392</ele>
        <time>2022-06-06T08:07:12.000Z</time>
      </trkpt>
      <trkpt lat="49.84747" lon="4.80309">
        <ele>392</ele>
        <time>2022-06-06T08:07:13.000Z</time>
      </trkpt>
      <trkpt lat="49.84747" lon="4.80301">
        <ele>392</ele>
        <time>2022-06-06T08:07:14.000Z</time>
      </trkpt>
      <trkpt lat="49.84747" lon="4.80292">
        <ele>392</ele>
        <time>2022-06-06T08:07:15.000Z</time>
      </trkpt>
      <trkpt lat="49.84749" lon="4.80282">
        <ele>392</ele>
        <time>2022-06-06T08:07:16.000Z</time>
      </trkpt>
      <trkpt lat="49.8475" lon="4.80273">
        <ele>392</ele>
        <time>2022-06-06T08:07:17.000Z</time>
      </trkpt>
      <trkpt lat="49.84752" lon="4.80263">
        <ele>392</ele>
        <time>2022-06-06T08:07:18.000Z</time>
      </trkpt>
      <trkpt lat="49.84754" lon="4.80254">
        <ele>392</ele>
        <time>2022-06-06T08:07:19.000Z</time>
      </trkpt>
      <trkpt lat="49.84755" lon="4.80245">
        <ele>392</ele>
        <time>2022-06-06T08:07:20.000Z</time>
      </trkpt>
      <trkpt lat="49.84756" lon="4.80236">
        <ele>391</ele>
        <time>2022-06-06T08:07:21.000Z</time>
      </trkpt>
      <trkpt lat="49.84756" lon="4.80227">
        <ele>391</ele>
        <time>2022-06-06T08:07:22.000Z</time>
      </trkpt>
      <trkpt lat="49.84757" lon="4.80219">
        <ele>391</ele>
        <time>2022-06-06T08:07:23.000Z</time>
      </trkpt>
      <trkpt lat="49.84757" lon="4.8021">
        <ele>391</ele>
        <time>2022-06-06T08:07:24.000Z</time>
      </trkpt>
      <trkpt lat="49.84757" lon="4.80202">
        <ele>391</ele>
        <time>2022-06-06T08:07:25.000Z</time>
      </trkpt>
      <trkpt lat="49.84758" lon="4.80195">
        <ele>391</ele>
        <time>2022-06-06T08:07:26.000Z</time>
      </trkpt>
      <trkpt lat="49.8476" lon="4.80188">
        <ele>391</ele>
        <time>2022-06-06T08:07:27.000Z</time>
      </trkpt>
      <trkpt lat="49.84762" lon="4.80183">
        <ele>390</ele>
        <time>2022-06-06T08:07:28.000Z</time>
      </trkpt>
      <trkpt lat="49.84765" lon="4.80177">
        <ele>390</ele>
        <time>2022-06-06T08:07:29.000Z</time>
      </trkpt>
      <trkpt lat="49.84768" lon="4.8017">
        <ele>390</ele>
        <time>2022-06-06T08:07:30.000Z</time>
      </trkpt>
      <trkpt lat="49.84771" lon="4.80163">
        <ele>390</ele>
        <time>2022-06-06T08:07:31.000Z</time>
      </trkpt>
      <trkpt lat="49.84773" lon="4.80155">
        <ele>390</ele>
        <time>2022-06-06T08:07:32.000Z</time>
      </trkpt>
      <trkpt lat="49.84775" lon="4.80148">
        <ele>390</ele>
        <time>2022-06-06T08:07:33.000Z</time>
      </trkpt>
      <trkpt lat="49.84776" lon="4.80141">
        <ele>390</ele>
        <time>2022-06-06T08:07:34.000Z</time>
      </trkpt>
      <trkpt lat="49.84777" lon="4.80134">
        <ele>390</ele>
        <time>2022-06-06T08:07:35.000Z</time>
      </trkpt>
      <trkpt lat="49.84778" lon="4.80126">
        <ele>390</ele>
        <time>2022-06-06T08:07:36.000Z</time>
      </trkpt>
      <trkpt lat="49.8478" lon="4.80118">
        <ele>389</ele>
        <time>2022-06-06T08:07:37.000Z</time>
      </trkpt>
      <trkpt lat="49.84782" lon="4.8011">
        <ele>389</ele>
        <time>2022-06-06T08:07:38.000Z</time>
      </trkpt>
      <trkpt lat="49.84784" lon="4.801">
        <ele>389</ele>
        <time>2022-06-06T08:07:39.000Z</time>
      </trkpt>
      <trkpt lat="49.84787" lon="4.80091">
        <ele>389</ele>
        <time>2022-06-06T08:07:40.000Z</time>
      </trkpt>
      <trkpt lat="49.84789" lon="4.80081">
        <ele>389</ele>
        <time>2022-06-06T08:07:41.000Z</time>
      </trkpt>
      <trkpt lat="49.84791" lon="4.80071">
        <ele>388</ele>
        <time>2022-06-06T08:07:42.000Z</time>
      </trkpt>
      <trkpt lat="49.84793" lon="4.80062">
        <ele>388</ele>
        <time>2022-06-06T08:07:43.000Z</time>
      </trkpt>
      <trkpt lat="49.84795" lon="4.80054">
        <ele>388</ele>
        <time>2022-06-06T08:07:44.000Z</time>
      </trkpt>
      <trkpt lat="49.84798" lon="4.80047">
        <ele>388</ele>
        <time>2022-06-06T08:07:45.000Z</time>
      </trkpt>
      <trkpt lat="49.84801" lon="4.80041">
        <ele>388</ele>
        <time>2022-06-06T08:07:46.000Z</time>
      </trkpt>
      <trkpt lat="49.84805" lon="4.80034">
        <ele>387</ele>
        <time>2022-06-06T08:07:47.000Z</time>
      </trkpt>
      <trkpt lat="49.84808" lon="4.80026">
        <ele>387</ele>
        <time>2022-06-06T08:07:48.000Z</time>
      </trkpt>
      <trkpt lat="49.84812" lon="4.80018">
        <ele>387</ele>
        <time>2022-06-06T08:07:49.000Z</time>
      </trkpt>
      <trkpt lat="49.84817" lon="4.80009">
        <ele>387</ele>
        <time>2022-06-06T08:07:50.000Z</time>
      </trkpt>
      <trkpt lat="49.8482" lon="4.79999">
        <ele>386</ele>
        <time>2022-06-06T08:07:51.000Z</time>
      </trkpt>
      <trkpt lat="49.84823" lon="4.79989">
        <ele>386</ele>
        <time>2022-06-06T08:07:52.000Z</time>
      </trkpt>
      <trkpt lat="49.84825" lon="4.7998">
        <ele>386</ele>
        <time>2022-06-06T08:07:53.000Z</time>
      </trkpt>
      <trkpt lat="49.84826" lon="4.7997">
        <ele>385</ele>
        <time>2022-06-06T08:07:54.000Z</time>
      </trkpt>
      <trkpt lat="49.84827" lon="4.79959">
        <ele>385</ele>
        <time>2022-06-06T08:07:55.000Z</time>
      </trkpt>
      <trkpt lat="49.84828" lon="4.79949">
        <ele>385</ele>
        <time>2022-06-06T08:07:56.000Z</time>
      </trkpt>
      <trkpt lat="49.84829" lon="4.79939">
        <ele>384</ele>
        <time>2022-06-06T08:07:57.000Z</time>
      </trkpt>
      <trkpt lat="49.8483" lon="4.79929">
        <ele>384</ele>
        <time>2022-06-06T08:07:58.000Z</time>
      </trkpt>
      <trkpt lat="49.8483" lon="4.79919">
        <ele>383</ele>
        <time>2022-06-06T08:07:59.000Z</time>
      </trkpt>
      <trkpt lat="49.8483" lon="4.7991">
        <ele>383</ele>
        <time>2022-06-06T08:08:00.000Z</time>
      </trkpt>
      <trkpt lat="49.8483" lon="4.79901">
        <ele>382</ele>
        <time>2022-06-06T08:08:01.000Z</time>
      </trkpt>
      <trkpt lat="49.84829" lon="4.79892">
        <ele>382</ele>
        <time>2022-06-06T08:08:02.000Z</time>
      </trkpt>
      <trkpt lat="49.84828" lon="4.79882">
        <ele>382</ele>
        <time>2022-06-06T08:08:03.000Z</time>
      </trkpt>
      <trkpt lat="49.84826" lon="4.79873">
        <ele>381</ele>
        <time>2022-06-06T08:08:04.000Z</time>
      </trkpt>
      <trkpt lat="49.84824" lon="4.79864">
        <ele>381</ele>
        <time>2022-06-06T08:08:05.000Z</time>
      </trkpt>
      <trkpt lat="49.84823" lon="4.79855">
        <ele>381</ele>
        <time>2022-06-06T08:08:06.000Z</time>
      </trkpt>
      <trkpt lat="49.84821" lon="4.79846">
        <ele>380</ele>
        <time>2022-06-06T08:08:07.000Z</time>
      </trkpt>
      <trkpt lat="49.8482" lon="4.79837">
        <ele>380</ele>
        <time>2022-06-06T08:08:08.000Z</time>
      </trkpt>
      <trkpt lat="49.84819" lon="4.79829">
        <ele>380</ele>
        <time>2022-06-06T08:08:09.000Z</time>
      </trkpt>
      <trkpt lat="49.84818" lon="4.79819">
        <ele>380</ele>
        <time>2022-06-06T08:08:10.000Z</time>
      </trkpt>
      <trkpt lat="49.84816" lon="4.7981">
        <ele>380</ele>
        <time>2022-06-06T08:08:11.000Z</time>
      </trkpt>
      <trkpt lat="49.84814" lon="4.798">
        <ele>379</ele>
        <time>2022-06-06T08:08:12.000Z</time>
      </trkpt>
      <trkpt lat="49.84811" lon="4.79791">
        <ele>379</ele>
        <time>2022-06-06T08:08:13.000Z</time>
      </trkpt>
      <trkpt lat="49.84809" lon="4.79781">
        <ele>379</ele>
        <time>2022-06-06T08:08:14.000Z</time>
      </trkpt>
      <trkpt lat="49.84808" lon="4.79772">
        <ele>378</ele>
        <time>2022-06-06T08:08:15.000Z</time>
      </trkpt>
      <trkpt lat="49.84807" lon="4.79763">
        <ele>378</ele>
        <time>2022-06-06T08:08:16.000Z</time>
      </trkpt>
      <trkpt lat="49.84806" lon="4.79753">
        <ele>378</ele>
        <time>2022-06-06T08:08:17.000Z</time>
      </trkpt>
      <trkpt lat="49.84805" lon="4.79743">
        <ele>378</ele>
        <time>2022-06-06T08:08:18.000Z</time>
      </trkpt>
      <trkpt lat="49.84804" lon="4.79733">
        <ele>377</ele>
        <time>2022-06-06T08:08:19.000Z</time>
      </trkpt>
      <trkpt lat="49.84804" lon="4.79722">
        <ele>377</ele>
        <time>2022-06-06T08:08:20.000Z</time>
      </trkpt>
      <trkpt lat="49.84803" lon="4.79711">
        <ele>376</ele>
        <time>2022-06-06T08:08:21.000Z</time>
      </trkpt>
      <trkpt lat="49.84804" lon="4.797">
        <ele>376</ele>
        <time>2022-06-06T08:08:22.000Z</time>
      </trkpt>
      <trkpt lat="49.84805" lon="4.79688">
        <ele>376</ele>
        <time>2022-06-06T08:08:23.000Z</time>
      </trkpt>
      <trkpt lat="49.84805" lon="4.79677">
        <ele>375</ele>
        <time>2022-06-06T08:08:24.000Z</time>
      </trkpt>
      <trkpt lat="49.84805" lon="4.79665">
        <ele>375</ele>
        <time>2022-06-06T08:08:25.000Z</time>
      </trkpt>
      <trkpt lat="49.84804" lon="4.79655">
        <ele>375</ele>
        <time>2022-06-06T08:08:26.000Z</time>
      </trkpt>
      <trkpt lat="49.84804" lon="4.79645">
        <ele>375</ele>
        <time>2022-06-06T08:08:27.000Z</time>
      </trkpt>
      <trkpt lat="49.84803" lon="4.79637">
        <ele>374</ele>
        <time>2022-06-06T08:08:28.000Z</time>
      </trkpt>
      <trkpt lat="49.84801" lon="4.79628">
        <ele>374</ele>
        <time>2022-06-06T08:08:29.000Z</time>
      </trkpt>
      <trkpt lat="49.848" lon="4.7962">
        <ele>374</ele>
        <time>2022-06-06T08:08:30.000Z</time>
      </trkpt>
      <trkpt lat="49.848" lon="4.79611">
        <ele>373</ele>
        <time>2022-06-06T08:08:31.000Z</time>
      </trkpt>
      <trkpt lat="49.84799" lon="4.79602">
        <ele>373</ele>
        <time>2022-06-06T08:08:32.000Z</time>
      </trkpt>
      <trkpt lat="49.84797" lon="4.79593">
        <ele>373</ele>
        <time>2022-06-06T08:08:33.000Z</time>
      </trkpt>
      <trkpt lat="49.84796" lon="4.79585">
        <ele>372</ele>
        <time>2022-06-06T08:08:34.000Z</time>
      </trkpt>
      <trkpt lat="49.84796" lon="4.79578">
        <ele>372</ele>
        <time>2022-06-06T08:08:35.000Z</time>
      </trkpt>
      <trkpt lat="49.84796" lon="4.7957">
        <ele>372</ele>
        <time>2022-06-06T08:08:36.000Z</time>
      </trkpt>
      <trkpt lat="49.84796" lon="4.79562">
        <ele>371</ele>
        <time>2022-06-06T08:08:37.000Z</time>
      </trkpt>
      <trkpt lat="49.84797" lon="4.79553">
        <ele>371</ele>
        <time>2022-06-06T08:08:38.000Z</time>
      </trkpt>
      <trkpt lat="49.84798" lon="4.79546">
        <ele>371</ele>
        <time>2022-06-06T08:08:39.000Z</time>
      </trkpt>
      <trkpt lat="49.848" lon="4.79539">
        <ele>370</ele>
        <time>2022-06-06T08:08:40.000Z</time>
      </trkpt>
      <trkpt lat="49.84802" lon="4.79531">
        <ele>370</ele>
        <time>2022-06-06T08:08:41.000Z</time>
      </trkpt>
      <trkpt lat="49.84804" lon="4.79524">
        <ele>370</ele>
        <time>2022-06-06T08:08:42.000Z</time>
      </trkpt>
      <trkpt lat="49.84805" lon="4.79517">
        <ele>369</ele>
        <time>2022-06-06T08:08:43.000Z</time>
      </trkpt>
      <trkpt lat="49.84808" lon="4.7951">
        <ele>369</ele>
        <time>2022-06-06T08:08:44.000Z</time>
      </trkpt>
      <trkpt lat="49.84812" lon="4.79504">
        <ele>369</ele>
        <time>2022-06-06T08:08:45.000Z</time>
      </trkpt>
      <trkpt lat="49.84815" lon="4.79497">
        <ele>368</ele>
        <time>2022-06-06T08:08:46.000Z</time>
      </trkpt>
      <trkpt lat="49.84819" lon="4.79489">
        <ele>368</ele>
        <time>2022-06-06T08:08:47.000Z</time>
      </trkpt>
      <trkpt lat="49.84823" lon="4.7948">
        <ele>368</ele>
        <time>2022-06-06T08:08:48.000Z</time>
      </trkpt>
      <trkpt lat="49.84826" lon="4.79471">
        <ele>368</ele>
        <time>2022-06-06T08:08:49.000Z</time>
      </trkpt>
      <trkpt lat="49.8483" lon="4.79462">
        <ele>367</ele>
        <time>2022-06-06T08:08:50.000Z</time>
      </trkpt>
      <trkpt lat="49.84834" lon="4.79454">
        <ele>367</ele>
        <time>2022-06-06T08:08:51.000Z</time>
      </trkpt>
      <trkpt lat="49.84838" lon="4.79446">
        <ele>366</ele>
        <time>2022-06-06T08:08:52.000Z</time>
      </trkpt>
      <trkpt lat="49.84842" lon="4.79438">
        <ele>366</ele>
        <time>2022-06-06T08:08:53.000Z</time>
      </trkpt>
      <trkpt lat="49.84844" lon="4.7943">
        <ele>365</ele>
        <time>2022-06-06T08:08:54.000Z</time>
      </trkpt>
      <trkpt lat="49.84847" lon="4.79422">
        <ele>365</ele>
        <time>2022-06-06T08:08:55.000Z</time>
      </trkpt>
      <trkpt lat="49.8485" lon="4.79414">
        <ele>364</ele>
        <time>2022-06-06T08:08:56.000Z</time>
      </trkpt>
      <trkpt lat="49.84853" lon="4.79407">
        <ele>364</ele>
        <time>2022-06-06T08:08:57.000Z</time>
      </trkpt>
      <trkpt lat="49.84854" lon="4.794">
        <ele>364</ele>
        <time>2022-06-06T08:08:58.000Z</time>
      </trkpt>
      <trkpt lat="49.84856" lon="4.79395">
        <ele>363</ele>
        <time>2022-06-06T08:08:59.000Z</time>
      </trkpt>
      <trkpt lat="49.84858" lon="4.7939">
        <ele>363</ele>
        <time>2022-06-06T08:09:00.000Z</time>
      </trkpt>
      <trkpt lat="49.8486" lon="4.79384">
        <ele>362</ele>
        <time>2022-06-06T08:09:01.000Z</time>
      </trkpt>
      <trkpt lat="49.84863" lon="4.79377">
        <ele>362</ele>
        <time>2022-06-06T08:09:02.000Z</time>
      </trkpt>
      <trkpt lat="49.84865" lon="4.79369">
        <ele>362</ele>
        <time>2022-06-06T08:09:03.000Z</time>
      </trkpt>
      <trkpt lat="49.84865" lon="4.79362">
        <ele>362</ele>
        <time>2022-06-06T08:09:04.000Z</time>
      </trkpt>
      <trkpt lat="49.84865" lon="4.79355">
        <ele>361</ele>
        <time>2022-06-06T08:09:05.000Z</time>
      </trkpt>
      <trkpt lat="49.84864" lon="4.79347">
        <ele>361</ele>
        <time>2022-06-06T08:09:06.000Z</time>
      </trkpt>
      <trkpt lat="49.84864" lon="4.7934">
        <ele>361</ele>
        <time>2022-06-06T08:09:07.000Z</time>
      </trkpt>
      <trkpt lat="49.84865" lon="4.79335">
        <ele>360</ele>
        <time>2022-06-06T08:09:08.000Z</time>
      </trkpt>
      <trkpt lat="49.84866" lon="4.7933">
        <ele>360</ele>
        <time>2022-06-06T08:09:09.000Z</time>
      </trkpt>
      <trkpt lat="49.84868" lon="4.79324">
        <ele>360</ele>
        <time>2022-06-06T08:09:10.000Z</time>
      </trkpt>
      <trkpt lat="49.84868" lon="4.79318">
        <ele>360</ele>
        <time>2022-06-06T08:09:11.000Z</time>
      </trkpt>
      <trkpt lat="49.84869" lon="4.79311">
        <ele>359</ele>
        <time>2022-06-06T08:09:12.000Z</time>
      </trkpt>
      <trkpt lat="49.84871" lon="4.79305">
        <ele>359</ele>
        <time>2022-06-06T08:09:13.000Z</time>
      </trkpt>
      <trkpt lat="49.84873" lon="4.79299">
        <ele>359</ele>
        <time>2022-06-06T08:09:14.000Z</time>
      </trkpt>
      <trkpt lat="49.84874" lon="4.79294">
        <ele>359</ele>
        <time>2022-06-06T08:09:15.000Z</time>
      </trkpt>
      <trkpt lat="49.84875" lon="4.79287">
        <ele>359</ele>
        <time>2022-06-06T08:09:16.000Z</time>
      </trkpt>
      <trkpt lat="49.84877" lon="4.79281">
        <ele>358</ele>
        <time>2022-06-06T08:09:17.000Z</time>
      </trkpt>
      <trkpt lat="49.84878" lon="4.79275">
        <ele>358</ele>
        <time>2022-06-06T08:09:18.000Z</time>
      </trkpt>
      <trkpt lat="49.84879" lon="4.79269">
        <ele>358</ele>
        <time>2022-06-06T08:09:19.000Z</time>
      </trkpt>
      <trkpt lat="49.84881" lon="4.79262">
        <ele>358</ele>
        <time>2022-06-06T08:09:20.000Z</time>
      </trkpt>
      <trkpt lat="49.84882" lon="4.79254">
        <ele>357</ele>
        <time>2022-06-06T08:09:21.000Z</time>
      </trkpt>
      <trkpt lat="49.84884" lon="4.79247">
        <ele>357</ele>
        <time>2022-06-06T08:09:22.000Z</time>
      </trkpt>
      <trkpt lat="49.84885" lon="4.79239">
        <ele>357</ele>
        <time>2022-06-06T08:09:23.000Z</time>
      </trkpt>
      <trkpt lat="49.84887" lon="4.79232">
        <ele>357</ele>
        <time>2022-06-06T08:09:24.000Z</time>
      </trkpt>
      <trkpt lat="49.84888" lon="4.79225">
        <ele>357</ele>
        <time>2022-06-06T08:09:25.000Z</time>
      </trkpt>
      <trkpt lat="49.84889" lon="4.7922">
        <ele>356</ele>
        <time>2022-06-06T08:09:26.000Z</time>
      </trkpt>
      <trkpt lat="49.84889" lon="4.79213">
        <ele>356</ele>
        <time>2022-06-06T08:09:27.000Z</time>
      </trkpt>
      <trkpt lat="49.8489" lon="4.79207">
        <ele>356</ele>
        <time>2022-06-06T08:09:28.000Z</time>
      </trkpt>
      <trkpt lat="49.8489" lon="4.79201">
        <ele>356</ele>
        <time>2022-06-06T08:09:29.000Z</time>
      </trkpt>
      <trkpt lat="49.84891" lon="4.79196">
        <ele>355</ele>
        <time>2022-06-06T08:09:30.000Z</time>
      </trkpt>
      <trkpt lat="49.84892" lon="4.79189">
        <ele>355</ele>
        <time>2022-06-06T08:09:31.000Z</time>
      </trkpt>
      <trkpt lat="49.84893" lon="4.79182">
        <ele>355</ele>
        <time>2022-06-06T08:09:32.000Z</time>
      </trkpt>
      <trkpt lat="49.84893" lon="4.79174">
        <ele>355</ele>
        <time>2022-06-06T08:09:33.000Z</time>
      </trkpt>
      <trkpt lat="49.84893" lon="4.79166">
        <ele>354</ele>
        <time>2022-06-06T08:09:34.000Z</time>
      </trkpt>
      <trkpt lat="49.84894" lon="4.79158">
        <ele>354</ele>
        <time>2022-06-06T08:09:35.000Z</time>
      </trkpt>
      <trkpt lat="49.84896" lon="4.79151">
        <ele>354</ele>
        <time>2022-06-06T08:09:36.000Z</time>
      </trkpt>
      <trkpt lat="49.84897" lon="4.79145">
        <ele>354</ele>
        <time>2022-06-06T08:09:37.000Z</time>
      </trkpt>
      <trkpt lat="49.84899" lon="4.79138">
        <ele>353</ele>
        <time>2022-06-06T08:09:38.000Z</time>
      </trkpt>
      <trkpt lat="49.849" lon="4.79132">
        <ele>353</ele>
        <time>2022-06-06T08:09:39.000Z</time>
      </trkpt>
      <trkpt lat="49.84902" lon="4.79125">
        <ele>353</ele>
        <time>2022-06-06T08:09:40.000Z</time>
      </trkpt>
      <trkpt lat="49.84903" lon="4.79118">
        <ele>353</ele>
        <time>2022-06-06T08:09:41.000Z</time>
      </trkpt>
      <trkpt lat="49.84904" lon="4.79112">
        <ele>353</ele>
        <time>2022-06-06T08:09:42.000Z</time>
      </trkpt>
      <trkpt lat="49.84905" lon="4.79105">
        <ele>353</ele>
        <time>2022-06-06T08:09:43.000Z</time>
      </trkpt>
      <trkpt lat="49.84907" lon="4.79098">
        <ele>353</ele>
        <time>2022-06-06T08:09:44.000Z</time>
      </trkpt>
      <trkpt lat="49.84908" lon="4.79092">
        <ele>352</ele>
        <time>2022-06-06T08:09:45.000Z</time>
      </trkpt>
      <trkpt lat="49.8491" lon="4.79084">
        <ele>352</ele>
        <time>2022-06-06T08:09:46.000Z</time>
      </trkpt>
      <trkpt lat="49.84913" lon="4.79077">
        <ele>352</ele>
        <time>2022-06-06T08:09:47.000Z</time>
      </trkpt>
      <trkpt lat="49.84915" lon="4.79069">
        <ele>352</ele>
        <time>2022-06-06T08:09:48.000Z</time>
      </trkpt>
      <trkpt lat="49.84915" lon="4.79062">
        <ele>352</ele>
        <time>2022-06-06T08:09:49.000Z</time>
      </trkpt>
      <trkpt lat="49.84915" lon="4.79053">
        <ele>352</ele>
        <time>2022-06-06T08:09:50.000Z</time>
      </trkpt>
      <trkpt lat="49.84916" lon="4.79045">
        <ele>352</ele>
        <time>2022-06-06T08:09:51.000Z</time>
      </trkpt>
      <trkpt lat="49.84916" lon="4.79037">
        <ele>352</ele>
        <time>2022-06-06T08:09:52.000Z</time>
      </trkpt>
      <trkpt lat="49.84917" lon="4.7903">
        <ele>352</ele>
        <time>2022-06-06T08:09:53.000Z</time>
      </trkpt>
      <trkpt lat="49.84919" lon="4.79024">
        <ele>352</ele>
        <time>2022-06-06T08:09:54.000Z</time>
      </trkpt>
      <trkpt lat="49.84922" lon="4.79019">
        <ele>352</ele>
        <time>2022-06-06T08:09:55.000Z</time>
      </trkpt>
      <trkpt lat="49.84924" lon="4.79013">
        <ele>352</ele>
        <time>2022-06-06T08:09:56.000Z</time>
      </trkpt>
      <trkpt lat="49.84927" lon="4.79009">
        <ele>352</ele>
        <time>2022-06-06T08:09:57.000Z</time>
      </trkpt>
      <trkpt lat="49.8493" lon="4.79004">
        <ele>352</ele>
        <time>2022-06-06T08:09:58.000Z</time>
      </trkpt>
      <trkpt lat="49.84933" lon="4.78999">
        <ele>352</ele>
        <time>2022-06-06T08:09:59.000Z</time>
      </trkpt>
      <trkpt lat="49.84936" lon="4.78995">
        <ele>352</ele>
        <time>2022-06-06T08:10:00.000Z</time>
      </trkpt>
      <trkpt lat="49.84939" lon="4.78991">
        <ele>352</ele>
        <time>2022-06-06T08:10:01.000Z</time>
      </trkpt>
      <trkpt lat="49.84943" lon="4.78987">
        <ele>352</ele>
        <time>2022-06-06T08:10:02.000Z</time>
      </trkpt>
      <trkpt lat="49.84945" lon="4.78984">
        <ele>352</ele>
        <time>2022-06-06T08:10:03.000Z</time>
      </trkpt>
      <trkpt lat="49.84948" lon="4.7898">
        <ele>352</ele>
        <time>2022-06-06T08:10:04.000Z</time>
      </trkpt>
      <trkpt lat="49.8495" lon="4.78974">
        <ele>351</ele>
        <time>2022-06-06T08:10:05.000Z</time>
      </trkpt>
      <trkpt lat="49.84953" lon="4.78968">
        <ele>351</ele>
        <time>2022-06-06T08:10:06.000Z</time>
      </trkpt>
      <trkpt lat="49.84956" lon="4.78961">
        <ele>351</ele>
        <time>2022-06-06T08:10:07.000Z</time>
      </trkpt>
      <trkpt lat="49.84958" lon="4.78954">
        <ele>351</ele>
        <time>2022-06-06T08:10:08.000Z</time>
      </trkpt>
      <trkpt lat="49.8496" lon="4.78948">
        <ele>351</ele>
        <time>2022-06-06T08:10:09.000Z</time>
      </trkpt>
      <trkpt lat="49.84962" lon="4.78941">
        <ele>351</ele>
        <time>2022-06-06T08:10:10.000Z</time>
      </trkpt>
      <trkpt lat="49.84965" lon="4.78935">
        <ele>351</ele>
        <time>2022-06-06T08:10:11.000Z</time>
      </trkpt>
      <trkpt lat="49.84968" lon="4.78929">
        <ele>351</ele>
        <time>2022-06-06T08:10:12.000Z</time>
      </trkpt>
      <trkpt lat="49.84972" lon="4.78922">
        <ele>350</ele>
        <time>2022-06-06T08:10:13.000Z</time>
      </trkpt>
      <trkpt lat="49.84975" lon="4.78916">
        <ele>350</ele>
        <time>2022-06-06T08:10:14.000Z</time>
      </trkpt>
      <trkpt lat="49.84978" lon="4.78911">
        <ele>350</ele>
        <time>2022-06-06T08:10:15.000Z</time>
      </trkpt>
      <trkpt lat="49.84981" lon="4.78906">
        <ele>350</ele>
        <time>2022-06-06T08:10:16.000Z</time>
      </trkpt>
      <trkpt lat="49.84984" lon="4.78901">
        <ele>350</ele>
        <time>2022-06-06T08:10:17.000Z</time>
      </trkpt>
      <trkpt lat="49.84986" lon="4.78898">
        <ele>349</ele>
        <time>2022-06-06T08:10:18.000Z</time>
      </trkpt>
      <trkpt lat="49.84988" lon="4.78895">
        <ele>349</ele>
        <time>2022-06-06T08:10:19.000Z</time>
      </trkpt>
      <trkpt lat="49.8499" lon="4.78892">
        <ele>349</ele>
        <time>2022-06-06T08:10:20.000Z</time>
      </trkpt>
      <trkpt lat="49.84992" lon="4.78889">
        <ele>349</ele>
        <time>2022-06-06T08:10:21.000Z</time>
      </trkpt>
      <trkpt lat="49.84994" lon="4.78885">
        <ele>349</ele>
        <time>2022-06-06T08:10:22.000Z</time>
      </trkpt>
      <trkpt lat="49.84996" lon="4.7888">
        <ele>348</ele>
        <time>2022-06-06T08:10:23.000Z</time>
      </trkpt>
      <trkpt lat="49.84997" lon="4.78876">
        <ele>348</ele>
        <time>2022-06-06T08:10:24.000Z</time>
      </trkpt>
      <trkpt lat="49.85" lon="4.78872">
        <ele>348</ele>
        <time>2022-06-06T08:10:25.000Z</time>
      </trkpt>
      <trkpt lat="49.85002" lon="4.78869">
        <ele>348</ele>
        <time>2022-06-06T08:10:26.000Z</time>
      </trkpt>
      <trkpt lat="49.85004" lon="4.78865">
        <ele>348</ele>
        <time>2022-06-06T08:10:27.000Z</time>
      </trkpt>
      <trkpt lat="49.85006" lon="4.78861">
        <ele>348</ele>
        <time>2022-06-06T08:10:28.000Z</time>
      </trkpt>
      <trkpt lat="49.85009" lon="4.78857">
        <ele>348</ele>
        <time>2022-06-06T08:10:29.000Z</time>
      </trkpt>
      <trkpt lat="49.85012" lon="4.78854">
        <ele>347</ele>
        <time>2022-06-06T08:10:30.000Z</time>
      </trkpt>
      <trkpt lat="49.85015" lon="4.78851">
        <ele>347</ele>
        <time>2022-06-06T08:10:31.000Z</time>
      </trkpt>
      <trkpt lat="49.85019" lon="4.78847">
        <ele>347</ele>
        <time>2022-06-06T08:10:32.000Z</time>
      </trkpt>
      <trkpt lat="49.85022" lon="4.78843">
        <ele>347</ele>
        <time>2022-06-06T08:10:33.000Z</time>
      </trkpt>
      <trkpt lat="49.85025" lon="4.78839">
        <ele>347</ele>
        <time>2022-06-06T08:10:34.000Z</time>
      </trkpt>
      <trkpt lat="49.85028" lon="4.78833">
        <ele>346</ele>
        <time>2022-06-06T08:10:35.000Z</time>
      </trkpt>
      <trkpt lat="49.85031" lon="4.78828">
        <ele>346</ele>
        <time>2022-06-06T08:10:36.000Z</time>
      </trkpt>
      <trkpt lat="49.85034" lon="4.78821">
        <ele>346</ele>
        <time>2022-06-06T08:10:37.000Z</time>
      </trkpt>
      <trkpt lat="49.85036" lon="4.78814">
        <ele>346</ele>
        <time>2022-06-06T08:10:38.000Z</time>
      </trkpt>
      <trkpt lat="49.85039" lon="4.78806">
        <ele>346</ele>
        <time>2022-06-06T08:10:39.000Z</time>
      </trkpt>
      <trkpt lat="49.85041" lon="4.788">
        <ele>346</ele>
        <time>2022-06-06T08:10:40.000Z</time>
      </trkpt>
      <trkpt lat="49.85044" lon="4.78792">
        <ele>346</ele>
        <time>2022-06-06T08:10:41.000Z</time>
      </trkpt>
      <trkpt lat="49.85047" lon="4.78785">
        <ele>345</ele>
        <time>2022-06-06T08:10:42.000Z</time>
      </trkpt>
      <trkpt lat="49.85051" lon="4.78778">
        <ele>345</ele>
        <time>2022-06-06T08:10:43.000Z</time>
      </trkpt>
      <trkpt lat="49.85055" lon="4.78772">
        <ele>345</ele>
        <time>2022-06-06T08:10:44.000Z</time>
      </trkpt>
      <trkpt lat="49.85059" lon="4.78765">
        <ele>345</ele>
        <time>2022-06-06T08:10:45.000Z</time>
      </trkpt>
      <trkpt lat="49.85064" lon="4.78758">
        <ele>345</ele>
        <time>2022-06-06T08:10:46.000Z</time>
      </trkpt>
      <trkpt lat="49.85068" lon="4.78752">
        <ele>345</ele>
        <time>2022-06-06T08:10:47.000Z</time>
      </trkpt>
      <trkpt lat="49.85072" lon="4.78746">
        <ele>345</ele>
        <time>2022-06-06T08:10:48.000Z</time>
      </trkpt>
      <trkpt lat="49.85076" lon="4.78741">
        <ele>345</ele>
        <time>2022-06-06T08:10:49.000Z</time>
      </trkpt>
      <trkpt lat="49.85079" lon="4.78737">
        <ele>345</ele>
        <time>2022-06-06T08:10:50.000Z</time>
      </trkpt>
      <trkpt lat="49.85083" lon="4.78733">
        <ele>344</ele>
        <time>2022-06-06T08:10:51.000Z</time>
      </trkpt>
      <trkpt lat="49.85087" lon="4.78728">
        <ele>344</ele>
        <time>2022-06-06T08:10:52.000Z</time>
      </trkpt>
      <trkpt lat="49.85091" lon="4.78723">
        <ele>344</ele>
        <time>2022-06-06T08:10:53.000Z</time>
      </trkpt>
      <trkpt lat="49.85095" lon="4.78718">
        <ele>344</ele>
        <time>2022-06-06T08:10:54.000Z</time>
      </trkpt>
      <trkpt lat="49.85099" lon="4.78712">
        <ele>343</ele>
        <time>2022-06-06T08:10:55.000Z</time>
      </trkpt>
      <trkpt lat="49.85102" lon="4.78707">
        <ele>343</ele>
        <time>2022-06-06T08:10:56.000Z</time>
      </trkpt>
      <trkpt lat="49.85105" lon="4.78701">
        <ele>343</ele>
        <time>2022-06-06T08:10:57.000Z</time>
      </trkpt>
      <trkpt lat="49.85108" lon="4.78696">
        <ele>343</ele>
        <time>2022-06-06T08:10:58.000Z</time>
      </trkpt>
      <trkpt lat="49.85111" lon="4.78691">
        <ele>343</ele>
        <time>2022-06-06T08:10:59.000Z</time>
      </trkpt>
      <trkpt lat="49.85115" lon="4.78685">
        <ele>342</ele>
        <time>2022-06-06T08:11:00.000Z</time>
      </trkpt>
      <trkpt lat="49.85118" lon="4.7868">
        <ele>342</ele>
        <time>2022-06-06T08:11:01.000Z</time>
      </trkpt>
      <trkpt lat="49.85123" lon="4.78674">
        <ele>342</ele>
        <time>2022-06-06T08:11:02.000Z</time>
      </trkpt>
      <trkpt lat="49.85127" lon="4.78668">
        <ele>342</ele>
        <time>2022-06-06T08:11:03.000Z</time>
      </trkpt>
      <trkpt lat="49.85131" lon="4.78662">
        <ele>342</ele>
        <time>2022-06-06T08:11:04.000Z</time>
      </trkpt>
      <trkpt lat="49.85136" lon="4.78657">
        <ele>342</ele>
        <time>2022-06-06T08:11:05.000Z</time>
      </trkpt>
      <trkpt lat="49.85139" lon="4.78652">
        <ele>342</ele>
        <time>2022-06-06T08:11:06.000Z</time>
      </trkpt>
      <trkpt lat="49.85144" lon="4.78648">
        <ele>342</ele>
        <time>2022-06-06T08:11:07.000Z</time>
      </trkpt>
      <trkpt lat="49.85147" lon="4.78644">
        <ele>342</ele>
        <time>2022-06-06T08:11:08.000Z</time>
      </trkpt>
      <trkpt lat="49.85152" lon="4.78639">
        <ele>341</ele>
        <time>2022-06-06T08:11:09.000Z</time>
      </trkpt>
      <trkpt lat="49.85156" lon="4.78634">
        <ele>341</ele>
        <time>2022-06-06T08:11:10.000Z</time>
      </trkpt>
      <trkpt lat="49.85161" lon="4.78629">
        <ele>341</ele>
        <time>2022-06-06T08:11:11.000Z</time>
      </trkpt>
      <trkpt lat="49.85166" lon="4.78624">
        <ele>341</ele>
        <time>2022-06-06T08:11:12.000Z</time>
      </trkpt>
      <trkpt lat="49.8517" lon="4.78618">
        <ele>341</ele>
        <time>2022-06-06T08:11:13.000Z</time>
      </trkpt>
      <trkpt lat="49.85175" lon="4.78612">
        <ele>341</ele>
        <time>2022-06-06T08:11:14.000Z</time>
      </trkpt>
      <trkpt lat="49.8518" lon="4.78606">
        <ele>341</ele>
        <time>2022-06-06T08:11:15.000Z</time>
      </trkpt>
      <trkpt lat="49.85185" lon="4.78601">
        <ele>340</ele>
        <time>2022-06-06T08:11:16.000Z</time>
      </trkpt>
      <trkpt lat="49.8519" lon="4.78595">
        <ele>340</ele>
        <time>2022-06-06T08:11:17.000Z</time>
      </trkpt>
      <trkpt lat="49.85195" lon="4.7859">
        <ele>340</ele>
        <time>2022-06-06T08:11:18.000Z</time>
      </trkpt>
      <trkpt lat="49.852" lon="4.78585">
        <ele>340</ele>
        <time>2022-06-06T08:11:19.000Z</time>
      </trkpt>
      <trkpt lat="49.85204" lon="4.78579">
        <ele>340</ele>
        <time>2022-06-06T08:11:20.000Z</time>
      </trkpt>
      <trkpt lat="49.85208" lon="4.78572">
        <ele>340</ele>
        <time>2022-06-06T08:11:21.000Z</time>
      </trkpt>
      <trkpt lat="49.85213" lon="4.78566">
        <ele>340</ele>
        <time>2022-06-06T08:11:22.000Z</time>
      </trkpt>
      <trkpt lat="49.85217" lon="4.78559">
        <ele>339</ele>
        <time>2022-06-06T08:11:23.000Z</time>
      </trkpt>
      <trkpt lat="49.85221" lon="4.78553">
        <ele>339</ele>
        <time>2022-06-06T08:11:24.000Z</time>
      </trkpt>
      <trkpt lat="49.85225" lon="4.78546">
        <ele>339</ele>
        <time>2022-06-06T08:11:25.000Z</time>
      </trkpt>
      <trkpt lat="49.85229" lon="4.7854">
        <ele>339</ele>
        <time>2022-06-06T08:11:26.000Z</time>
      </trkpt>
      <trkpt lat="49.85233" lon="4.78534">
        <ele>339</ele>
        <time>2022-06-06T08:11:27.000Z</time>
      </trkpt>
      <trkpt lat="49.85237" lon="4.78529">
        <ele>339</ele>
        <time>2022-06-06T08:11:28.000Z</time>
      </trkpt>
      <trkpt lat="49.8524" lon="4.78522">
        <ele>339</ele>
        <time>2022-06-06T08:11:29.000Z</time>
      </trkpt>
      <trkpt lat="49.85244" lon="4.78516">
        <ele>339</ele>
        <time>2022-06-06T08:11:30.000Z</time>
      </trkpt>
      <trkpt lat="49.85247" lon="4.78512">
        <ele>339</ele>
        <time>2022-06-06T08:11:31.000Z</time>
      </trkpt>
      <trkpt lat="49.8525" lon="4.78508">
        <ele>339</ele>
        <time>2022-06-06T08:11:32.000Z</time>
      </trkpt>
      <trkpt lat="49.85253" lon="4.78503">
        <ele>339</ele>
        <time>2022-06-06T08:11:33.000Z</time>
      </trkpt>
      <trkpt lat="49.85256" lon="4.78498">
        <ele>339</ele>
        <time>2022-06-06T08:11:34.000Z</time>
      </trkpt>
      <trkpt lat="49.85261" lon="4.78493">
        <ele>339</ele>
        <time>2022-06-06T08:11:35.000Z</time>
      </trkpt>
      <trkpt lat="49.85265" lon="4.78486">
        <ele>338</ele>
        <time>2022-06-06T08:11:36.000Z</time>
      </trkpt>
      <trkpt lat="49.85269" lon="4.78478">
        <ele>338</ele>
        <time>2022-06-06T08:11:37.000Z</time>
      </trkpt>
      <trkpt lat="49.85272" lon="4.7847">
        <ele>338</ele>
        <time>2022-06-06T08:11:38.000Z</time>
      </trkpt>
      <trkpt lat="49.85277" lon="4.78461">
        <ele>338</ele>
        <time>2022-06-06T08:11:39.000Z</time>
      </trkpt>
      <trkpt lat="49.85281" lon="4.78454">
        <ele>338</ele>
        <time>2022-06-06T08:11:40.000Z</time>
      </trkpt>
      <trkpt lat="49.85287" lon="4.78446">
        <ele>338</ele>
        <time>2022-06-06T08:11:41.000Z</time>
      </trkpt>
      <trkpt lat="49.85292" lon="4.78438">
        <ele>337</ele>
        <time>2022-06-06T08:11:42.000Z</time>
      </trkpt>
      <trkpt lat="49.85296" lon="4.7843">
        <ele>337</ele>
        <time>2022-06-06T08:11:43.000Z</time>
      </trkpt>
      <trkpt lat="49.853" lon="4.78421">
        <ele>337</ele>
        <time>2022-06-06T08:11:44.000Z</time>
      </trkpt>
      <trkpt lat="49.85304" lon="4.78412">
        <ele>336</ele>
        <time>2022-06-06T08:11:45.000Z</time>
      </trkpt>
      <trkpt lat="49.85307" lon="4.78405">
        <ele>336</ele>
        <time>2022-06-06T08:11:46.000Z</time>
      </trkpt>
      <trkpt lat="49.8531" lon="4.78398">
        <ele>336</ele>
        <time>2022-06-06T08:11:47.000Z</time>
      </trkpt>
      <trkpt lat="49.85315" lon="4.78391">
        <ele>335</ele>
        <time>2022-06-06T08:11:48.000Z</time>
      </trkpt>
      <trkpt lat="49.8532" lon="4.78384">
        <ele>335</ele>
        <time>2022-06-06T08:11:49.000Z</time>
      </trkpt>
      <trkpt lat="49.85325" lon="4.78377">
        <ele>334</ele>
        <time>2022-06-06T08:11:50.000Z</time>
      </trkpt>
      <trkpt lat="49.8533" lon="4.78371">
        <ele>334</ele>
        <time>2022-06-06T08:11:51.000Z</time>
      </trkpt>
      <trkpt lat="49.85334" lon="4.78365">
        <ele>334</ele>
        <time>2022-06-06T08:11:52.000Z</time>
      </trkpt>
      <trkpt lat="49.85338" lon="4.78359">
        <ele>333</ele>
        <time>2022-06-06T08:11:53.000Z</time>
      </trkpt>
      <trkpt lat="49.8534" lon="4.78352">
        <ele>333</ele>
        <time>2022-06-06T08:11:54.000Z</time>
      </trkpt>
      <trkpt lat="49.85342" lon="4.78347">
        <ele>333</ele>
        <time>2022-06-06T08:11:55.000Z</time>
      </trkpt>
      <trkpt lat="49.85344" lon="4.78342">
        <ele>332</ele>
        <time>2022-06-06T08:11:56.000Z</time>
      </trkpt>
      <trkpt lat="49.85347" lon="4.78337">
        <ele>332</ele>
        <time>2022-06-06T08:11:57.000Z</time>
      </trkpt>
      <trkpt lat="49.8535" lon="4.78331">
        <ele>331</ele>
        <time>2022-06-06T08:11:58.000Z</time>
      </trkpt>
      <trkpt lat="49.85354" lon="4.78326">
        <ele>331</ele>
        <time>2022-06-06T08:11:59.000Z</time>
      </trkpt>
      <trkpt lat="49.85358" lon="4.78319">
        <ele>331</ele>
        <time>2022-06-06T08:12:00.000Z</time>
      </trkpt>
      <trkpt lat="49.85363" lon="4.78312">
        <ele>330</ele>
        <time>2022-06-06T08:12:01.000Z</time>
      </trkpt>
      <trkpt lat="49.85367" lon="4.78305">
        <ele>330</ele>
        <time>2022-06-06T08:12:02.000Z</time>
      </trkpt>
      <trkpt lat="49.85372" lon="4.78298">
        <ele>329</ele>
        <time>2022-06-06T08:12:03.000Z</time>
      </trkpt>
      <trkpt lat="49.85378" lon="4.78291">
        <ele>329</ele>
        <time>2022-06-06T08:12:04.000Z</time>
      </trkpt>
      <trkpt lat="49.85384" lon="4.78285">
        <ele>328</ele>
        <time>2022-06-06T08:12:05.000Z</time>
      </trkpt>
      <trkpt lat="49.85391" lon="4.78278">
        <ele>328</ele>
        <time>2022-06-06T08:12:06.000Z</time>
      </trkpt>
      <trkpt lat="49.85398" lon="4.78271">
        <ele>327</ele>
        <time>2022-06-06T08:12:07.000Z</time>
      </trkpt>
      <trkpt lat="49.85404" lon="4.78265">
        <ele>327</ele>
        <time>2022-06-06T08:12:08.000Z</time>
      </trkpt>
      <trkpt lat="49.8541" lon="4.78258">
        <ele>326</ele>
        <time>2022-06-06T08:12:09.000Z</time>
      </trkpt>
      <trkpt lat="49.85416" lon="4.78252">
        <ele>326</ele>
        <time>2022-06-06T08:12:10.000Z</time>
      </trkpt>
      <trkpt lat="49.85421" lon="4.78246">
        <ele>325</ele>
        <time>2022-06-06T08:12:11.000Z</time>
      </trkpt>
      <trkpt lat="49.85426" lon="4.78241">
        <ele>324</ele>
        <time>2022-06-06T08:12:12.000Z</time>
      </trkpt>
      <trkpt lat="49.8543" lon="4.78235">
        <ele>324</ele>
        <time>2022-06-06T08:12:13.000Z</time>
      </trkpt>
      <trkpt lat="49.85435" lon="4.78229">
        <ele>324</ele>
        <time>2022-06-06T08:12:14.000Z</time>
      </trkpt>
      <trkpt lat="49.8544" lon="4.78223">
        <ele>323</ele>
        <time>2022-06-06T08:12:15.000Z</time>
      </trkpt>
      <trkpt lat="49.85445" lon="4.78217">
        <ele>323</ele>
        <time>2022-06-06T08:12:16.000Z</time>
      </trkpt>
      <trkpt lat="49.8545" lon="4.78212">
        <ele>323</ele>
        <time>2022-06-06T08:12:17.000Z</time>
      </trkpt>
      <trkpt lat="49.85454" lon="4.78207">
        <ele>322</ele>
        <time>2022-06-06T08:12:18.000Z</time>
      </trkpt>
      <trkpt lat="49.85458" lon="4.78201">
        <ele>322</ele>
        <time>2022-06-06T08:12:19.000Z</time>
      </trkpt>
      <trkpt lat="49.85462" lon="4.78195">
        <ele>321</ele>
        <time>2022-06-06T08:12:20.000Z</time>
      </trkpt>
      <trkpt lat="49.85465" lon="4.78188">
        <ele>321</ele>
        <time>2022-06-06T08:12:21.000Z</time>
      </trkpt>
      <trkpt lat="49.85469" lon="4.78181">
        <ele>320</ele>
        <time>2022-06-06T08:12:22.000Z</time>
      </trkpt>
      <trkpt lat="49.85472" lon="4.78174">
        <ele>320</ele>
        <time>2022-06-06T08:12:23.000Z</time>
      </trkpt>
      <trkpt lat="49.85476" lon="4.78167">
        <ele>320</ele>
        <time>2022-06-06T08:12:24.000Z</time>
      </trkpt>
      <trkpt lat="49.8548" lon="4.78159">
        <ele>319</ele>
        <time>2022-06-06T08:12:25.000Z</time>
      </trkpt>
      <trkpt lat="49.85484" lon="4.78151">
        <ele>319</ele>
        <time>2022-06-06T08:12:26.000Z</time>
      </trkpt>
      <trkpt lat="49.85488" lon="4.78144">
        <ele>319</ele>
        <time>2022-06-06T08:12:27.000Z</time>
      </trkpt>
      <trkpt lat="49.85492" lon="4.78137">
        <ele>318</ele>
        <time>2022-06-06T08:12:28.000Z</time>
      </trkpt>
      <trkpt lat="49.85496" lon="4.78129">
        <ele>318</ele>
        <time>2022-06-06T08:12:29.000Z</time>
      </trkpt>
      <trkpt lat="49.85499" lon="4.78122">
        <ele>317</ele>
        <time>2022-06-06T08:12:30.000Z</time>
      </trkpt>
      <trkpt lat="49.85501" lon="4.78114">
        <ele>317</ele>
        <time>2022-06-06T08:12:31.000Z</time>
      </trkpt>
      <trkpt lat="49.85503" lon="4.78107">
        <ele>317</ele>
        <time>2022-06-06T08:12:32.000Z</time>
      </trkpt>
      <trkpt lat="49.85505" lon="4.78101">
        <ele>316</ele>
        <time>2022-06-06T08:12:33.000Z</time>
      </trkpt>
      <trkpt lat="49.85507" lon="4.78097">
        <ele>316</ele>
        <time>2022-06-06T08:12:34.000Z</time>
      </trkpt>
      <trkpt lat="49.8551" lon="4.78092">
        <ele>316</ele>
        <time>2022-06-06T08:12:35.000Z</time>
      </trkpt>
      <trkpt lat="49.85512" lon="4.78087">
        <ele>316</ele>
        <time>2022-06-06T08:12:36.000Z</time>
      </trkpt>
      <trkpt lat="49.85515" lon="4.78082">
        <ele>316</ele>
        <time>2022-06-06T08:12:37.000Z</time>
      </trkpt>
      <trkpt lat="49.85518" lon="4.78075">
        <ele>315</ele>
        <time>2022-06-06T08:12:38.000Z</time>
      </trkpt>
      <trkpt lat="49.8552" lon="4.78069">
        <ele>315</ele>
        <time>2022-06-06T08:12:39.000Z</time>
      </trkpt>
      <trkpt lat="49.85522" lon="4.78063">
        <ele>315</ele>
        <time>2022-06-06T08:12:40.000Z</time>
      </trkpt>
      <trkpt lat="49.85523" lon="4.78058">
        <ele>315</ele>
        <time>2022-06-06T08:12:41.000Z</time>
      </trkpt>
      <trkpt lat="49.85524" lon="4.78052">
        <ele>315</ele>
        <time>2022-06-06T08:12:42.000Z</time>
      </trkpt>
      <trkpt lat="49.85525" lon="4.78047">
        <ele>315</ele>
        <time>2022-06-06T08:12:43.000Z</time>
      </trkpt>
      <trkpt lat="49.85527" lon="4.78041">
        <ele>314</ele>
        <time>2022-06-06T08:12:44.000Z</time>
      </trkpt>
      <trkpt lat="49.8553" lon="4.78035">
        <ele>314</ele>
        <time>2022-06-06T08:12:45.000Z</time>
      </trkpt>
      <trkpt lat="49.85532" lon="4.78029">
        <ele>314</ele>
        <time>2022-06-06T08:12:46.000Z</time>
      </trkpt>
      <trkpt lat="49.85534" lon="4.78021">
        <ele>314</ele>
        <time>2022-06-06T08:12:47.000Z</time>
      </trkpt>
      <trkpt lat="49.85536" lon="4.78014">
        <ele>314</ele>
        <time>2022-06-06T08:12:48.000Z</time>
      </trkpt>
      <trkpt lat="49.85538" lon="4.78007">
        <ele>314</ele>
        <time>2022-06-06T08:12:49.000Z</time>
      </trkpt>
      <trkpt lat="49.85541" lon="4.78001">
        <ele>314</ele>
        <time>2022-06-06T08:12:50.000Z</time>
      </trkpt>
      <trkpt lat="49.85543" lon="4.77995">
        <ele>313</ele>
        <time>2022-06-06T08:12:51.000Z</time>
      </trkpt>
      <trkpt lat="49.85546" lon="4.77989">
        <ele>313</ele>
        <time>2022-06-06T08:12:52.000Z</time>
      </trkpt>
      <trkpt lat="49.85549" lon="4.77982">
        <ele>313</ele>
        <time>2022-06-06T08:12:53.000Z</time>
      </trkpt>
      <trkpt lat="49.85553" lon="4.77975">
        <ele>313</ele>
        <time>2022-06-06T08:12:54.000Z</time>
      </trkpt>
      <trkpt lat="49.85556" lon="4.77966">
        <ele>313</ele>
        <time>2022-06-06T08:12:55.000Z</time>
      </trkpt>
      <trkpt lat="49.85559" lon="4.77956">
        <ele>313</ele>
        <time>2022-06-06T08:12:56.000Z</time>
      </trkpt>
      <trkpt lat="49.85561" lon="4.77947">
        <ele>313</ele>
        <time>2022-06-06T08:12:57.000Z</time>
      </trkpt>
      <trkpt lat="49.85562" lon="4.77939">
        <ele>313</ele>
        <time>2022-06-06T08:12:58.000Z</time>
      </trkpt>
      <trkpt lat="49.85564" lon="4.7793">
        <ele>312</ele>
        <time>2022-06-06T08:12:59.000Z</time>
      </trkpt>
      <trkpt lat="49.85565" lon="4.77921">
        <ele>312</ele>
        <time>2022-06-06T08:13:00.000Z</time>
      </trkpt>
      <trkpt lat="49.85567" lon="4.77913">
        <ele>312</ele>
        <time>2022-06-06T08:13:01.000Z</time>
      </trkpt>
      <trkpt lat="49.85569" lon="4.77905">
        <ele>312</ele>
        <time>2022-06-06T08:13:02.000Z</time>
      </trkpt>
      <trkpt lat="49.8557" lon="4.77899">
        <ele>312</ele>
        <time>2022-06-06T08:13:03.000Z</time>
      </trkpt>
      <trkpt lat="49.85572" lon="4.77892">
        <ele>312</ele>
        <time>2022-06-06T08:13:04.000Z</time>
      </trkpt>
      <trkpt lat="49.85573" lon="4.77886">
        <ele>312</ele>
        <time>2022-06-06T08:13:05.000Z</time>
      </trkpt>
      <trkpt lat="49.85574" lon="4.77879">
        <ele>312</ele>
        <time>2022-06-06T08:13:06.000Z</time>
      </trkpt>
      <trkpt lat="49.85576" lon="4.77871">
        <ele>312</ele>
        <time>2022-06-06T08:13:07.000Z</time>
      </trkpt>
      <trkpt lat="49.85578" lon="4.77865">
        <ele>311</ele>
        <time>2022-06-06T08:13:08.000Z</time>
      </trkpt>
      <trkpt lat="49.85581" lon="4.77861">
        <ele>311</ele>
        <time>2022-06-06T08:13:09.000Z</time>
      </trkpt>
      <trkpt lat="49.85585" lon="4.77857">
        <ele>311</ele>
        <time>2022-06-06T08:13:10.000Z</time>
      </trkpt>
      <trkpt lat="49.85588" lon="4.77853">
        <ele>311</ele>
        <time>2022-06-06T08:13:11.000Z</time>
      </trkpt>
      <trkpt lat="49.85592" lon="4.77849">
        <ele>311</ele>
        <time>2022-06-06T08:13:12.000Z</time>
      </trkpt>
      <trkpt lat="49.85596" lon="4.77844">
        <ele>311</ele>
        <time>2022-06-06T08:13:13.000Z</time>
      </trkpt>
      <trkpt lat="49.85601" lon="4.77839">
        <ele>311</ele>
        <time>2022-06-06T08:13:14.000Z</time>
      </trkpt>
      <trkpt lat="49.85605" lon="4.77835">
        <ele>311</ele>
        <time>2022-06-06T08:13:15.000Z</time>
      </trkpt>
      <trkpt lat="49.85608" lon="4.77832">
        <ele>311</ele>
        <time>2022-06-06T08:13:16.000Z</time>
      </trkpt>
      <trkpt lat="49.85611" lon="4.7783">
        <ele>311</ele>
        <time>2022-06-06T08:13:17.000Z</time>
      </trkpt>
      <trkpt lat="49.85614" lon="4.77828">
        <ele>311</ele>
        <time>2022-06-06T08:13:18.000Z</time>
      </trkpt>
      <trkpt lat="49.85617" lon="4.77825">
        <ele>311</ele>
        <time>2022-06-06T08:13:19.000Z</time>
      </trkpt>
      <trkpt lat="49.8562" lon="4.77822">
        <ele>311</ele>
        <time>2022-06-06T08:13:20.000Z</time>
      </trkpt>
      <trkpt lat="49.85624" lon="4.77819">
        <ele>311</ele>
        <time>2022-06-06T08:13:21.000Z</time>
      </trkpt>
      <trkpt lat="49.85628" lon="4.77815">
        <ele>311</ele>
        <time>2022-06-06T08:13:22.000Z</time>
      </trkpt>
      <trkpt lat="49.85631" lon="4.77813">
        <ele>311</ele>
        <time>2022-06-06T08:13:23.000Z</time>
      </trkpt>
      <trkpt lat="49.85634" lon="4.7781">
        <ele>310</ele>
        <time>2022-06-06T08:13:24.000Z</time>
      </trkpt>
      <trkpt lat="49.85637" lon="4.77808">
        <ele>310</ele>
        <time>2022-06-06T08:13:25.000Z</time>
      </trkpt>
      <trkpt lat="49.85639" lon="4.77806">
        <ele>310</ele>
        <time>2022-06-06T08:13:26.000Z</time>
      </trkpt>
      <trkpt lat="49.85642" lon="4.77804">
        <ele>310</ele>
        <time>2022-06-06T08:13:27.000Z</time>
      </trkpt>
      <trkpt lat="49.85645" lon="4.77803">
        <ele>310</ele>
        <time>2022-06-06T08:13:28.000Z</time>
      </trkpt>
      <trkpt lat="49.85647" lon="4.77802">
        <ele>310</ele>
        <time>2022-06-06T08:13:29.000Z</time>
      </trkpt>
      <trkpt lat="49.8565" lon="4.778">
        <ele>310</ele>
        <time>2022-06-06T08:13:30.000Z</time>
      </trkpt>
      <trkpt lat="49.85653" lon="4.77797">
        <ele>310</ele>
        <time>2022-06-06T08:13:31.000Z</time>
      </trkpt>
      <trkpt lat="49.85656" lon="4.77794">
        <ele>310</ele>
        <time>2022-06-06T08:13:32.000Z</time>
      </trkpt>
      <trkpt lat="49.8566" lon="4.77792">
        <ele>310</ele>
        <time>2022-06-06T08:13:33.000Z</time>
      </trkpt>
      <trkpt lat="49.85665" lon="4.77789">
        <ele>310</ele>
        <time>2022-06-06T08:13:34.000Z</time>
      </trkpt>
      <trkpt lat="49.85669" lon="4.77786">
        <ele>311</ele>
        <time>2022-06-06T08:13:35.000Z</time>
      </trkpt>
      <trkpt lat="49.85673" lon="4.77782">
        <ele>311</ele>
        <time>2022-06-06T08:13:36.000Z</time>
      </trkpt>
      <trkpt lat="49.85678" lon="4.77779">
        <ele>311</ele>
        <time>2022-06-06T08:13:37.000Z</time>
      </trkpt>
      <trkpt lat="49.85684" lon="4.77777">
        <ele>311</ele>
        <time>2022-06-06T08:13:38.000Z</time>
      </trkpt>
      <trkpt lat="49.85689" lon="4.77775">
        <ele>311</ele>
        <time>2022-06-06T08:13:39.000Z</time>
      </trkpt>
      <trkpt lat="49.85695" lon="4.77772">
        <ele>311</ele>
        <time>2022-06-06T08:13:40.000Z</time>
      </trkpt>
      <trkpt lat="49.85701" lon="4.77769">
        <ele>311</ele>
        <time>2022-06-06T08:13:41.000Z</time>
      </trkpt>
      <trkpt lat="49.85707" lon="4.77765">
        <ele>311</ele>
        <time>2022-06-06T08:13:42.000Z</time>
      </trkpt>
      <trkpt lat="49.85713" lon="4.77761">
        <ele>311</ele>
        <time>2022-06-06T08:13:43.000Z</time>
      </trkpt>
      <trkpt lat="49.85719" lon="4.77757">
        <ele>311</ele>
        <time>2022-06-06T08:13:44.000Z</time>
      </trkpt>
      <trkpt lat="49.85725" lon="4.77753">
        <ele>311</ele>
        <time>2022-06-06T08:13:45.000Z</time>
      </trkpt>
      <trkpt lat="49.85731" lon="4.7775">
        <ele>311</ele>
        <time>2022-06-06T08:13:46.000Z</time>
      </trkpt>
      <trkpt lat="49.85736" lon="4.77748">
        <ele>310</ele>
        <time>2022-06-06T08:13:47.000Z</time>
      </trkpt>
      <trkpt lat="49.85742" lon="4.77746">
        <ele>310</ele>
        <time>2022-06-06T08:13:48.000Z</time>
      </trkpt>
      <trkpt lat="49.85746" lon="4.77744">
        <ele>309</ele>
        <time>2022-06-06T08:13:49.000Z</time>
      </trkpt>
      <trkpt lat="49.8575" lon="4.77741">
        <ele>309</ele>
        <time>2022-06-06T08:13:50.000Z</time>
      </trkpt>
      <trkpt lat="49.85753" lon="4.7774">
        <ele>309</ele>
        <time>2022-06-06T08:13:51.000Z</time>
      </trkpt>
      <trkpt lat="49.85755" lon="4.77738">
        <ele>309</ele>
        <time>2022-06-06T08:13:52.000Z</time>
      </trkpt>
      <trkpt lat="49.85757" lon="4.77738">
        <ele>308</ele>
        <time>2022-06-06T08:13:53.000Z</time>
      </trkpt>
      <trkpt lat="49.85759" lon="4.77739">
        <ele>308</ele>
        <time>2022-06-06T08:13:54.000Z</time>
      </trkpt>
      <trkpt lat="49.8576" lon="4.77742">
        <ele>308</ele>
        <time>2022-06-06T08:13:55.000Z</time>
      </trkpt>
      <trkpt lat="49.85759" lon="4.77744">
        <ele>308</ele>
        <time>2022-06-06T08:13:56.000Z</time>
      </trkpt>
      <trkpt lat="49.85758" lon="4.77743">
        <ele>308</ele>
        <time>2022-06-06T08:13:57.000Z</time>
      </trkpt>
      <trkpt lat="49.85758" lon="4.77741">
        <ele>308</ele>
        <time>2022-06-06T08:13:58.000Z</time>
      </trkpt>
      <trkpt lat="49.85757" lon="4.77738">
        <ele>307</ele>
        <time>2022-06-06T08:13:59.000Z</time>
      </trkpt>
      <trkpt lat="49.85756" lon="4.77735">
        <ele>307</ele>
        <time>2022-06-06T08:14:00.000Z</time>
      </trkpt>
      <trkpt lat="49.85755" lon="4.77731">
        <ele>307</ele>
        <time>2022-06-06T08:14:01.000Z</time>
      </trkpt>
      <trkpt lat="49.85755" lon="4.77728">
        <ele>307</ele>
        <time>2022-06-06T08:14:02.000Z</time>
      </trkpt>
      <trkpt lat="49.85754" lon="4.77726">
        <ele>307</ele>
        <time>2022-06-06T08:14:03.000Z</time>
      </trkpt>
      <trkpt lat="49.85754" lon="4.77726">
        <ele>307</ele>
        <time>2022-06-06T08:14:04.000Z</time>
      </trkpt>
      <trkpt lat="49.85755" lon="4.77725">
        <ele>307</ele>
        <time>2022-06-06T08:14:05.000Z</time>
      </trkpt>
      <trkpt lat="49.85755" lon="4.77725">
        <ele>307</ele>
        <time>2022-06-06T08:14:06.000Z</time>
      </trkpt>
      <trkpt lat="49.85755" lon="4.77725">
        <ele>307</ele>
        <time>2022-06-06T08:14:07.000Z</time>
      </trkpt>
      <trkpt lat="49.85755" lon="4.77725">
        <ele>307</ele>
        <time>2022-06-06T08:14:08.000Z</time>
      </trkpt>
      <trkpt lat="49.85756" lon="4.77724">
        <ele>307</ele>
        <time>2022-06-06T08:14:09.000Z</time>
      </trkpt>
      <trkpt lat="49.85757" lon="4.77725">
        <ele>307</ele>
        <time>2022-06-06T08:14:10.000Z</time>
      </trkpt>
      <trkpt lat="49.85757" lon="4.77726">
        <ele>307</ele>
        <time>2022-06-06T08:14:11.000Z</time>
      </trkpt>
      <trkpt lat="49.85758" lon="4.77726">
        <ele>307</ele>
        <time>2022-06-06T08:14:12.000Z</time>
      </trkpt>
      <trkpt lat="49.85758" lon="4.77727">
        <ele>307</ele>
        <time>2022-06-06T08:14:13.000Z</time>
      </trkpt>
      <trkpt lat="49.85758" lon="4.77728">
        <ele>307</ele>
        <time>2022-06-06T08:14:14.000Z</time>
      </trkpt>
      <trkpt lat="49.85758" lon="4.7773">
        <ele>307</ele>
        <time>2022-06-06T08:14:15.000Z</time>
      </trkpt>
      <trkpt lat="49.85758" lon="4.77731">
        <ele>307</ele>
        <time>2022-06-06T08:14:16.000Z</time>
      </trkpt>
      <trkpt lat="49.85758" lon="4.77732">
        <ele>307</ele>
        <time>2022-06-06T08:14:17.000Z</time>
      </trkpt>
      <trkpt lat="49.8576" lon="4.77732">
        <ele>307</ele>
        <time>2022-06-06T08:14:18.000Z</time>
      </trkpt>
      <trkpt lat="49.85762" lon="4.77732">
        <ele>307</ele>
        <time>2022-06-06T08:14:19.000Z</time>
      </trkpt>
      <trkpt lat="49.85765" lon="4.7773">
        <ele>307</ele>
        <time>2022-06-06T08:14:20.000Z</time>
      </trkpt>
      <trkpt lat="49.85767" lon="4.77728">
        <ele>307</ele>
        <time>2022-06-06T08:14:21.000Z</time>
      </trkpt>
      <trkpt lat="49.8577" lon="4.77725">
        <ele>307</ele>
        <time>2022-06-06T08:14:22.000Z</time>
      </trkpt>
      <trkpt lat="49.85771" lon="4.77723">
        <ele>307</ele>
        <time>2022-06-06T08:14:23.000Z</time>
      </trkpt>
      <trkpt lat="49.85771" lon="4.7772">
        <ele>307</ele>
        <time>2022-06-06T08:14:24.000Z</time>
      </trkpt>
      <trkpt lat="49.8577" lon="4.77718">
        <ele>307</ele>
        <time>2022-06-06T08:14:25.000Z</time>
      </trkpt>
      <trkpt lat="49.85769" lon="4.77715">
        <ele>307</ele>
        <time>2022-06-06T08:14:26.000Z</time>
      </trkpt>
      <trkpt lat="49.85769" lon="4.77713">
        <ele>307</ele>
        <time>2022-06-06T08:14:27.000Z</time>
      </trkpt>
      <trkpt lat="49.85768" lon="4.7771">
        <ele>307</ele>
        <time>2022-06-06T08:14:28.000Z</time>
      </trkpt>
      <trkpt lat="49.85768" lon="4.77708">
        <ele>307</ele>
        <time>2022-06-06T08:14:29.000Z</time>
      </trkpt>
      <trkpt lat="49.85768" lon="4.77708">
        <ele>307</ele>
        <time>2022-06-06T08:14:30.000Z</time>
      </trkpt>
      <trkpt lat="49.85768" lon="4.77708">
        <ele>307</ele>
        <time>2022-06-06T08:14:31.000Z</time>
      </trkpt>
      <trkpt lat="49.85768" lon="4.77708">
        <ele>307</ele>
        <time>2022-06-06T08:14:32.000Z</time>
      </trkpt>
      <trkpt lat="49.85769" lon="4.77708">
        <ele>307</ele>
        <time>2022-06-06T08:14:33.000Z</time>
      </trkpt>
      <trkpt lat="49.8577" lon="4.77709">
        <ele>307</ele>
        <time>2022-06-06T08:14:34.000Z</time>
      </trkpt>
      <trkpt lat="49.8577" lon="4.7771">
        <ele>307</ele>
        <time>2022-06-06T08:14:35.000Z</time>
      </trkpt>
      <trkpt lat="49.85771" lon="4.77712">
        <ele>307</ele>
        <time>2022-06-06T08:14:36.000Z</time>
      </trkpt>
      <trkpt lat="49.85772" lon="4.77714">
        <ele>307</ele>
        <time>2022-06-06T08:14:37.000Z</time>
      </trkpt>
      <trkpt lat="49.85774" lon="4.77714">
        <ele>307</ele>
        <time>2022-06-06T08:14:38.000Z</time>
      </trkpt>
      <trkpt lat="49.85775" lon="4.77714">
        <ele>307</ele>
        <time>2022-06-06T08:14:39.000Z</time>
      </trkpt>
      <trkpt lat="49.85776" lon="4.77711">
        <ele>307</ele>
        <time>2022-06-06T08:14:40.000Z</time>
      </trkpt>
      <trkpt lat="49.85777" lon="4.77708">
        <ele>307</ele>
        <time>2022-06-06T08:14:41.000Z</time>
      </trkpt>
      <trkpt lat="49.85779" lon="4.77704">
        <ele>306</ele>
        <time>2022-06-06T08:14:42.000Z</time>
      </trkpt>
      <trkpt lat="49.85781" lon="4.77701">
        <ele>306</ele>
        <time>2022-06-06T08:14:43.000Z</time>
      </trkpt>
      <trkpt lat="49.85783" lon="4.77697">
        <ele>306</ele>
        <time>2022-06-06T08:14:44.000Z</time>
      </trkpt>
      <trkpt lat="49.85786" lon="4.77693">
        <ele>306</ele>
        <time>2022-06-06T08:14:45.000Z</time>
      </trkpt>
      <trkpt lat="49.85788" lon="4.77689">
        <ele>305</ele>
        <time>2022-06-06T08:14:46.000Z</time>
      </trkpt>
      <trkpt lat="49.85789" lon="4.77685">
        <ele>305</ele>
        <time>2022-06-06T08:14:47.000Z</time>
      </trkpt>
      <trkpt lat="49.85791" lon="4.7768">
        <ele>305</ele>
        <time>2022-06-06T08:14:48.000Z</time>
      </trkpt>
      <trkpt lat="49.85791" lon="4.77676">
        <ele>305</ele>
        <time>2022-06-06T08:14:49.000Z</time>
      </trkpt>
      <trkpt lat="49.85792" lon="4.77672">
        <ele>305</ele>
        <time>2022-06-06T08:14:50.000Z</time>
      </trkpt>
      <trkpt lat="49.85794" lon="4.77668">
        <ele>305</ele>
        <time>2022-06-06T08:14:51.000Z</time>
      </trkpt>
      <trkpt lat="49.85795" lon="4.77664">
        <ele>304</ele>
        <time>2022-06-06T08:14:52.000Z</time>
      </trkpt>
      <trkpt lat="49.85796" lon="4.7766">
        <ele>304</ele>
        <time>2022-06-06T08:14:53.000Z</time>
      </trkpt>
      <trkpt lat="49.85796" lon="4.77654">
        <ele>304</ele>
        <time>2022-06-06T08:14:54.000Z</time>
      </trkpt>
      <trkpt lat="49.85797" lon="4.77649">
        <ele>304</ele>
        <time>2022-06-06T08:14:55.000Z</time>
      </trkpt>
      <trkpt lat="49.85797" lon="4.77646">
        <ele>304</ele>
        <time>2022-06-06T08:14:56.000Z</time>
      </trkpt>
      <trkpt lat="49.85797" lon="4.77643">
        <ele>304</ele>
        <time>2022-06-06T08:14:57.000Z</time>
      </trkpt>
      <trkpt lat="49.85798" lon="4.77639">
        <ele>303</ele>
        <time>2022-06-06T08:14:58.000Z</time>
      </trkpt>
      <trkpt lat="49.85799" lon="4.77636">
        <ele>303</ele>
        <time>2022-06-06T08:14:59.000Z</time>
      </trkpt>
      <trkpt lat="49.85799" lon="4.77633">
        <ele>303</ele>
        <time>2022-06-06T08:15:00.000Z</time>
      </trkpt>
      <trkpt lat="49.858" lon="4.77629">
        <ele>303</ele>
        <time>2022-06-06T08:15:01.000Z</time>
      </trkpt>
      <trkpt lat="49.85801" lon="4.77625">
        <ele>303</ele>
        <time>2022-06-06T08:15:02.000Z</time>
      </trkpt>
      <trkpt lat="49.85801" lon="4.77621">
        <ele>303</ele>
        <time>2022-06-06T08:15:03.000Z</time>
      </trkpt>
      <trkpt lat="49.85801" lon="4.77616">
        <ele>302</ele>
        <time>2022-06-06T08:15:04.000Z</time>
      </trkpt>
      <trkpt lat="49.85802" lon="4.77612">
        <ele>302</ele>
        <time>2022-06-06T08:15:05.000Z</time>
      </trkpt>
      <trkpt lat="49.85802" lon="4.77608">
        <ele>302</ele>
        <time>2022-06-06T08:15:06.000Z</time>
      </trkpt>
      <trkpt lat="49.85802" lon="4.77604">
        <ele>301</ele>
        <time>2022-06-06T08:15:07.000Z</time>
      </trkpt>
      <trkpt lat="49.85803" lon="4.77601">
        <ele>301</ele>
        <time>2022-06-06T08:15:08.000Z</time>
      </trkpt>
      <trkpt lat="49.85803" lon="4.77597">
        <ele>301</ele>
        <time>2022-06-06T08:15:09.000Z</time>
      </trkpt>
      <trkpt lat="49.85803" lon="4.77593">
        <ele>301</ele>
        <time>2022-06-06T08:15:10.000Z</time>
      </trkpt>
      <trkpt lat="49.85803" lon="4.77589">
        <ele>300</ele>
        <time>2022-06-06T08:15:11.000Z</time>
      </trkpt>
      <trkpt lat="49.85804" lon="4.77587">
        <ele>300</ele>
        <time>2022-06-06T08:15:12.000Z</time>
      </trkpt>
      <trkpt lat="49.85805" lon="4.77586">
        <ele>300</ele>
        <time>2022-06-06T08:15:13.000Z</time>
      </trkpt>
      <trkpt lat="49.85807" lon="4.77587">
        <ele>300</ele>
        <time>2022-06-06T08:15:14.000Z</time>
      </trkpt>
      <trkpt lat="49.85807" lon="4.77589">
        <ele>299</ele>
        <time>2022-06-06T08:15:15.000Z</time>
      </trkpt>
      <trkpt lat="49.85805" lon="4.77592">
        <ele>299</ele>
        <time>2022-06-06T08:15:16.000Z</time>
      </trkpt>
      <trkpt lat="49.85804" lon="4.77597">
        <ele>299</ele>
        <time>2022-06-06T08:15:17.000Z</time>
      </trkpt>
      <trkpt lat="49.85805" lon="4.77602">
        <ele>299</ele>
        <time>2022-06-06T08:15:18.000Z</time>
      </trkpt>
      <trkpt lat="49.85805" lon="4.77607">
        <ele>299</ele>
        <time>2022-06-06T08:15:19.000Z</time>
      </trkpt>
      <trkpt lat="49.85804" lon="4.77612">
        <ele>299</ele>
        <time>2022-06-06T08:15:20.000Z</time>
      </trkpt>
      <trkpt lat="49.85804" lon="4.77617">
        <ele>298</ele>
        <time>2022-06-06T08:15:21.000Z</time>
      </trkpt>
      <trkpt lat="49.85803" lon="4.77623">
        <ele>298</ele>
        <time>2022-06-06T08:15:22.000Z</time>
      </trkpt>
      <trkpt lat="49.85803" lon="4.77629">
        <ele>298</ele>
        <time>2022-06-06T08:15:23.000Z</time>
      </trkpt>
      <trkpt lat="49.85803" lon="4.77634">
        <ele>298</ele>
        <time>2022-06-06T08:15:24.000Z</time>
      </trkpt>
      <trkpt lat="49.85802" lon="4.77639">
        <ele>298</ele>
        <time>2022-06-06T08:15:25.000Z</time>
      </trkpt>
      <trkpt lat="49.85801" lon="4.77644">
        <ele>298</ele>
        <time>2022-06-06T08:15:26.000Z</time>
      </trkpt>
      <trkpt lat="49.85801" lon="4.77649">
        <ele>298</ele>
        <time>2022-06-06T08:15:27.000Z</time>
      </trkpt>
      <trkpt lat="49.858" lon="4.77655">
        <ele>298</ele>
        <time>2022-06-06T08:15:28.000Z</time>
      </trkpt>
      <trkpt lat="49.858" lon="4.7766">
        <ele>298</ele>
        <time>2022-06-06T08:15:29.000Z</time>
      </trkpt>
      <trkpt lat="49.85799" lon="4.77666">
        <ele>298</ele>
        <time>2022-06-06T08:15:30.000Z</time>
      </trkpt>
      <trkpt lat="49.85798" lon="4.77671">
        <ele>298</ele>
        <time>2022-06-06T08:15:31.000Z</time>
      </trkpt>
      <trkpt lat="49.85797" lon="4.77676">
        <ele>298</ele>
        <time>2022-06-06T08:15:32.000Z</time>
      </trkpt>
      <trkpt lat="49.85796" lon="4.77681">
        <ele>298</ele>
        <time>2022-06-06T08:15:33.000Z</time>
      </trkpt>
      <trkpt lat="49.85795" lon="4.77686">
        <ele>298</ele>
        <time>2022-06-06T08:15:34.000Z</time>
      </trkpt>
      <trkpt lat="49.85793" lon="4.7769">
        <ele>298</ele>
        <time>2022-06-06T08:15:35.000Z</time>
      </trkpt>
      <trkpt lat="49.85792" lon="4.77695">
        <ele>298</ele>
        <time>2022-06-06T08:15:36.000Z</time>
      </trkpt>
      <trkpt lat="49.85791" lon="4.77699">
        <ele>298</ele>
        <time>2022-06-06T08:15:37.000Z</time>
      </trkpt>
      <trkpt lat="49.85789" lon="4.77703">
        <ele>298</ele>
        <time>2022-06-06T08:15:38.000Z</time>
      </trkpt>
      <trkpt lat="49.85787" lon="4.77707">
        <ele>299</ele>
        <time>2022-06-06T08:15:39.000Z</time>
      </trkpt>
      <trkpt lat="49.85786" lon="4.7771">
        <ele>299</ele>
        <time>2022-06-06T08:15:40.000Z</time>
      </trkpt>
      <trkpt lat="49.85784" lon="4.77714">
        <ele>299</ele>
        <time>2022-06-06T08:15:41.000Z</time>
      </trkpt>
      <trkpt lat="49.85783" lon="4.77718">
        <ele>299</ele>
        <time>2022-06-06T08:15:42.000Z</time>
      </trkpt>
      <trkpt lat="49.85781" lon="4.77719">
        <ele>299</ele>
        <time>2022-06-06T08:15:43.000Z</time>
      </trkpt>
      <trkpt lat="49.8578" lon="4.77719">
        <ele>299</ele>
        <time>2022-06-06T08:15:44.000Z</time>
      </trkpt>
      <trkpt lat="49.85779" lon="4.77718">
        <ele>299</ele>
        <time>2022-06-06T08:15:45.000Z</time>
      </trkpt>
      <trkpt lat="49.85777" lon="4.77716">
        <ele>299</ele>
        <time>2022-06-06T08:15:46.000Z</time>
      </trkpt>
      <trkpt lat="49.85777" lon="4.77714">
        <ele>299</ele>
        <time>2022-06-06T08:15:47.000Z</time>
      </trkpt>
      <trkpt lat="49.85775" lon="4.77712">
        <ele>299</ele>
        <time>2022-06-06T08:15:48.000Z</time>
      </trkpt>
      <trkpt lat="49.85774" lon="4.7771">
        <ele>300</ele>
        <time>2022-06-06T08:15:49.000Z</time>
      </trkpt>
      <trkpt lat="49.85774" lon="4.77709">
        <ele>300</ele>
        <time>2022-06-06T08:15:50.000Z</time>
      </trkpt>
      <trkpt lat="49.85774" lon="4.77708">
        <ele>300</ele>
        <time>2022-06-06T08:15:51.000Z</time>
      </trkpt>
      <trkpt lat="49.85773" lon="4.77707">
        <ele>300</ele>
        <time>2022-06-06T08:15:52.000Z</time>
      </trkpt>
      <trkpt lat="49.85773" lon="4.77706">
        <ele>300</ele>
        <time>2022-06-06T08:15:53.000Z</time>
      </trkpt>
      <trkpt lat="49.85774" lon="4.77705">
        <ele>300</ele>
        <time>2022-06-06T08:15:54.000Z</time>
      </trkpt>
      <trkpt lat="49.85774" lon="4.77702">
        <ele>300</ele>
        <time>2022-06-06T08:15:55.000Z</time>
      </trkpt>
      <trkpt lat="49.85774" lon="4.77698">
        <ele>300</ele>
        <time>2022-06-06T08:15:56.000Z</time>
      </trkpt>
      <trkpt lat="49.85774" lon="4.77694">
        <ele>300</ele>
        <time>2022-06-06T08:15:57.000Z</time>
      </trkpt>
      <trkpt lat="49.85774" lon="4.77689">
        <ele>300</ele>
        <time>2022-06-06T08:15:58.000Z</time>
      </trkpt>
      <trkpt lat="49.85774" lon="4.77684">
        <ele>300</ele>
        <time>2022-06-06T08:15:59.000Z</time>
      </trkpt>
      <trkpt lat="49.85774" lon="4.77678">
        <ele>300</ele>
        <time>2022-06-06T08:16:00.000Z</time>
      </trkpt>
      <trkpt lat="49.85774" lon="4.77673">
        <ele>300</ele>
        <time>2022-06-06T08:16:01.000Z</time>
      </trkpt>
      <trkpt lat="49.85775" lon="4.77668">
        <ele>300</ele>
        <time>2022-06-06T08:16:02.000Z</time>
      </trkpt>
      <trkpt lat="49.85775" lon="4.77661">
        <ele>300</ele>
        <time>2022-06-06T08:16:03.000Z</time>
      </trkpt>
      <trkpt lat="49.85776" lon="4.77654">
        <ele>299</ele>
        <time>2022-06-06T08:16:04.000Z</time>
      </trkpt>
      <trkpt lat="49.85776" lon="4.77647">
        <ele>299</ele>
        <time>2022-06-06T08:16:05.000Z</time>
      </trkpt>
      <trkpt lat="49.85777" lon="4.7764">
        <ele>299</ele>
        <time>2022-06-06T08:16:06.000Z</time>
      </trkpt>
      <trkpt lat="49.85778" lon="4.77633">
        <ele>299</ele>
        <time>2022-06-06T08:16:07.000Z</time>
      </trkpt>
      <trkpt lat="49.85779" lon="4.77625">
        <ele>299</ele>
        <time>2022-06-06T08:16:08.000Z</time>
      </trkpt>
      <trkpt lat="49.85779" lon="4.77619">
        <ele>299</ele>
        <time>2022-06-06T08:16:09.000Z</time>
      </trkpt>
      <trkpt lat="49.85779" lon="4.77612">
        <ele>298</ele>
        <time>2022-06-06T08:16:10.000Z</time>
      </trkpt>
      <trkpt lat="49.85779" lon="4.77605">
        <ele>298</ele>
        <time>2022-06-06T08:16:11.000Z</time>
      </trkpt>
      <trkpt lat="49.85777" lon="4.77599">
        <ele>298</ele>
        <time>2022-06-06T08:16:12.000Z</time>
      </trkpt>
      <trkpt lat="49.85776" lon="4.77593">
        <ele>298</ele>
        <time>2022-06-06T08:16:13.000Z</time>
      </trkpt>
      <trkpt lat="49.85773" lon="4.77588">
        <ele>298</ele>
        <time>2022-06-06T08:16:14.000Z</time>
      </trkpt>
      <trkpt lat="49.85772" lon="4.77582">
        <ele>298</ele>
        <time>2022-06-06T08:16:15.000Z</time>
      </trkpt>
      <trkpt lat="49.8577" lon="4.77577">
        <ele>297</ele>
        <time>2022-06-06T08:16:16.000Z</time>
      </trkpt>
      <trkpt lat="49.85769" lon="4.77572">
        <ele>297</ele>
        <time>2022-06-06T08:16:17.000Z</time>
      </trkpt>
      <trkpt lat="49.85767" lon="4.77568">
        <ele>297</ele>
        <time>2022-06-06T08:16:18.000Z</time>
      </trkpt>
      <trkpt lat="49.85766" lon="4.77565">
        <ele>297</ele>
        <time>2022-06-06T08:16:19.000Z</time>
      </trkpt>
      <trkpt lat="49.85765" lon="4.77563">
        <ele>296</ele>
        <time>2022-06-06T08:16:20.000Z</time>
      </trkpt>
      <trkpt lat="49.85764" lon="4.7756">
        <ele>296</ele>
        <time>2022-06-06T08:16:21.000Z</time>
      </trkpt>
      <trkpt lat="49.85763" lon="4.77557">
        <ele>296</ele>
        <time>2022-06-06T08:16:22.000Z</time>
      </trkpt>
      <trkpt lat="49.85763" lon="4.77555">
        <ele>296</ele>
        <time>2022-06-06T08:16:23.000Z</time>
      </trkpt>
      <trkpt lat="49.85763" lon="4.77553">
        <ele>295</ele>
        <time>2022-06-06T08:16:24.000Z</time>
      </trkpt>
      <trkpt lat="49.85763" lon="4.77552">
        <ele>295</ele>
        <time>2022-06-06T08:16:25.000Z</time>
      </trkpt>
      <trkpt lat="49.85763" lon="4.77551">
        <ele>295</ele>
        <time>2022-06-06T08:16:26.000Z</time>
      </trkpt>
      <trkpt lat="49.85764" lon="4.7755">
        <ele>295</ele>
        <time>2022-06-06T08:16:27.000Z</time>
      </trkpt>
      <trkpt lat="49.85764" lon="4.77549">
        <ele>295</ele>
        <time>2022-06-06T08:16:28.000Z</time>
      </trkpt>
      <trkpt lat="49.85764" lon="4.77548">
        <ele>294</ele>
        <time>2022-06-06T08:16:29.000Z</time>
      </trkpt>
      <trkpt lat="49.85764" lon="4.77547">
        <ele>294</ele>
        <time>2022-06-06T08:16:30.000Z</time>
      </trkpt>
      <trkpt lat="49.85764" lon="4.77546">
        <ele>294</ele>
        <time>2022-06-06T08:16:31.000Z</time>
      </trkpt>
      <trkpt lat="49.85764" lon="4.77545">
        <ele>294</ele>
        <time>2022-06-06T08:16:32.000Z</time>
      </trkpt>
      <trkpt lat="49.85764" lon="4.77543">
        <ele>294</ele>
        <time>2022-06-06T08:16:33.000Z</time>
      </trkpt>
      <trkpt lat="49.85764" lon="4.77542">
        <ele>294</ele>
        <time>2022-06-06T08:16:34.000Z</time>
      </trkpt>
      <trkpt lat="49.85765" lon="4.77541">
        <ele>293</ele>
        <time>2022-06-06T08:16:35.000Z</time>
      </trkpt>
      <trkpt lat="49.85764" lon="4.7754">
        <ele>293</ele>
        <time>2022-06-06T08:16:36.000Z</time>
      </trkpt>
      <trkpt lat="49.85764" lon="4.77538">
        <ele>293</ele>
        <time>2022-06-06T08:16:37.000Z</time>
      </trkpt>
      <trkpt lat="49.85763" lon="4.77536">
        <ele>293</ele>
        <time>2022-06-06T08:16:38.000Z</time>
      </trkpt>
      <trkpt lat="49.85762" lon="4.77534">
        <ele>292</ele>
        <time>2022-06-06T08:16:39.000Z</time>
      </trkpt>
      <trkpt lat="49.8576" lon="4.77531">
        <ele>292</ele>
        <time>2022-06-06T08:16:40.000Z</time>
      </trkpt>
      <trkpt lat="49.85758" lon="4.77528">
        <ele>292</ele>
        <time>2022-06-06T08:16:41.000Z</time>
      </trkpt>
      <trkpt lat="49.85756" lon="4.77525">
        <ele>291</ele>
        <time>2022-06-06T08:16:42.000Z</time>
      </trkpt>
      <trkpt lat="49.85754" lon="4.77521">
        <ele>291</ele>
        <time>2022-06-06T08:16:43.000Z</time>
      </trkpt>
      <trkpt lat="49.85753" lon="4.77518">
        <ele>291</ele>
        <time>2022-06-06T08:16:44.000Z</time>
      </trkpt>
      <trkpt lat="49.85752" lon="4.77516">
        <ele>290</ele>
        <time>2022-06-06T08:16:45.000Z</time>
      </trkpt>
      <trkpt lat="49.85751" lon="4.77513">
        <ele>290</ele>
        <time>2022-06-06T08:16:46.000Z</time>
      </trkpt>
      <trkpt lat="49.85751" lon="4.7751">
        <ele>290</ele>
        <time>2022-06-06T08:16:47.000Z</time>
      </trkpt>
      <trkpt lat="49.85751" lon="4.77507">
        <ele>289</ele>
        <time>2022-06-06T08:16:48.000Z</time>
      </trkpt>
      <trkpt lat="49.85751" lon="4.77504">
        <ele>289</ele>
        <time>2022-06-06T08:16:49.000Z</time>
      </trkpt>
      <trkpt lat="49.8575" lon="4.77501">
        <ele>289</ele>
        <time>2022-06-06T08:16:50.000Z</time>
      </trkpt>
      <trkpt lat="49.85749" lon="4.77498">
        <ele>288</ele>
        <time>2022-06-06T08:16:51.000Z</time>
      </trkpt>
      <trkpt lat="49.85749" lon="4.77495">
        <ele>288</ele>
        <time>2022-06-06T08:16:52.000Z</time>
      </trkpt>
      <trkpt lat="49.85747" lon="4.77491">
        <ele>288</ele>
        <time>2022-06-06T08:16:53.000Z</time>
      </trkpt>
      <trkpt lat="49.85746" lon="4.77487">
        <ele>287</ele>
        <time>2022-06-06T08:16:54.000Z</time>
      </trkpt>
      <trkpt lat="49.85746" lon="4.77484">
        <ele>287</ele>
        <time>2022-06-06T08:16:55.000Z</time>
      </trkpt>
      <trkpt lat="49.85745" lon="4.77481">
        <ele>287</ele>
        <time>2022-06-06T08:16:56.000Z</time>
      </trkpt>
      <trkpt lat="49.85744" lon="4.77477">
        <ele>286</ele>
        <time>2022-06-06T08:16:57.000Z</time>
      </trkpt>
      <trkpt lat="49.85743" lon="4.77473">
        <ele>286</ele>
        <time>2022-06-06T08:16:58.000Z</time>
      </trkpt>
      <trkpt lat="49.85742" lon="4.77469">
        <ele>285</ele>
        <time>2022-06-06T08:16:59.000Z</time>
      </trkpt>
      <trkpt lat="49.85741" lon="4.77465">
        <ele>285</ele>
        <time>2022-06-06T08:17:00.000Z</time>
      </trkpt>
      <trkpt lat="49.8574" lon="4.77461">
        <ele>284</ele>
        <time>2022-06-06T08:17:01.000Z</time>
      </trkpt>
      <trkpt lat="49.8574" lon="4.77457">
        <ele>284</ele>
        <time>2022-06-06T08:17:02.000Z</time>
      </trkpt>
      <trkpt lat="49.85739" lon="4.77453">
        <ele>283</ele>
        <time>2022-06-06T08:17:03.000Z</time>
      </trkpt>
      <trkpt lat="49.85739" lon="4.77448">
        <ele>283</ele>
        <time>2022-06-06T08:17:04.000Z</time>
      </trkpt>
      <trkpt lat="49.85739" lon="4.77444">
        <ele>282</ele>
        <time>2022-06-06T08:17:05.000Z</time>
      </trkpt>
      <trkpt lat="49.85738" lon="4.77439">
        <ele>282</ele>
        <time>2022-06-06T08:17:06.000Z</time>
      </trkpt>
      <trkpt lat="49.85737" lon="4.77433">
        <ele>281</ele>
        <time>2022-06-06T08:17:07.000Z</time>
      </trkpt>
      <trkpt lat="49.85737" lon="4.77427">
        <ele>281</ele>
        <time>2022-06-06T08:17:08.000Z</time>
      </trkpt>
      <trkpt lat="49.85737" lon="4.77422">
        <ele>280</ele>
        <time>2022-06-06T08:17:09.000Z</time>
      </trkpt>
      <trkpt lat="49.85737" lon="4.77418">
        <ele>280</ele>
        <time>2022-06-06T08:17:10.000Z</time>
      </trkpt>
      <trkpt lat="49.85737" lon="4.77414">
        <ele>279</ele>
        <time>2022-06-06T08:17:11.000Z</time>
      </trkpt>
      <trkpt lat="49.85737" lon="4.77411">
        <ele>279</ele>
        <time>2022-06-06T08:17:12.000Z</time>
      </trkpt>
      <trkpt lat="49.85737" lon="4.77409">
        <ele>278</ele>
        <time>2022-06-06T08:17:13.000Z</time>
      </trkpt>
      <trkpt lat="49.85737" lon="4.77406">
        <ele>277</ele>
        <time>2022-06-06T08:17:14.000Z</time>
      </trkpt>
      <trkpt lat="49.85737" lon="4.77402">
        <ele>277</ele>
        <time>2022-06-06T08:17:15.000Z</time>
      </trkpt>
      <trkpt lat="49.85738" lon="4.77398">
        <ele>276</ele>
        <time>2022-06-06T08:17:16.000Z</time>
      </trkpt>
      <trkpt lat="49.85739" lon="4.77392">
        <ele>276</ele>
        <time>2022-06-06T08:17:17.000Z</time>
      </trkpt>
      <trkpt lat="49.85739" lon="4.77385">
        <ele>275</ele>
        <time>2022-06-06T08:17:18.000Z</time>
      </trkpt>
      <trkpt lat="49.85739" lon="4.77379">
        <ele>275</ele>
        <time>2022-06-06T08:17:19.000Z</time>
      </trkpt>
      <trkpt lat="49.85738" lon="4.77373">
        <ele>274</ele>
        <time>2022-06-06T08:17:20.000Z</time>
      </trkpt>
      <trkpt lat="49.85737" lon="4.77368">
        <ele>273</ele>
        <time>2022-06-06T08:17:21.000Z</time>
      </trkpt>
      <trkpt lat="49.85736" lon="4.77363">
        <ele>273</ele>
        <time>2022-06-06T08:17:22.000Z</time>
      </trkpt>
      <trkpt lat="49.85735" lon="4.77358">
        <ele>272</ele>
        <time>2022-06-06T08:17:23.000Z</time>
      </trkpt>
      <trkpt lat="49.85734" lon="4.77353">
        <ele>272</ele>
        <time>2022-06-06T08:17:24.000Z</time>
      </trkpt>
      <trkpt lat="49.85733" lon="4.77348">
        <ele>271</ele>
        <time>2022-06-06T08:17:25.000Z</time>
      </trkpt>
      <trkpt lat="49.85731" lon="4.77343">
        <ele>271</ele>
        <time>2022-06-06T08:17:26.000Z</time>
      </trkpt>
      <trkpt lat="49.8573" lon="4.77338">
        <ele>271</ele>
        <time>2022-06-06T08:17:27.000Z</time>
      </trkpt>
      <trkpt lat="49.85728" lon="4.77333">
        <ele>270</ele>
        <time>2022-06-06T08:17:28.000Z</time>
      </trkpt>
      <trkpt lat="49.85727" lon="4.77327">
        <ele>270</ele>
        <time>2022-06-06T08:17:29.000Z</time>
      </trkpt>
      <trkpt lat="49.85725" lon="4.77322">
        <ele>269</ele>
        <time>2022-06-06T08:17:30.000Z</time>
      </trkpt>
      <trkpt lat="49.85724" lon="4.77316">
        <ele>269</ele>
        <time>2022-06-06T08:17:31.000Z</time>
      </trkpt>
      <trkpt lat="49.85722" lon="4.77311">
        <ele>268</ele>
        <time>2022-06-06T08:17:32.000Z</time>
      </trkpt>
      <trkpt lat="49.85721" lon="4.77306">
        <ele>268</ele>
        <time>2022-06-06T08:17:33.000Z</time>
      </trkpt>
      <trkpt lat="49.8572" lon="4.773">
        <ele>267</ele>
        <time>2022-06-06T08:17:34.000Z</time>
      </trkpt>
      <trkpt lat="49.85719" lon="4.77295">
        <ele>267</ele>
        <time>2022-06-06T08:17:35.000Z</time>
      </trkpt>
      <trkpt lat="49.85717" lon="4.77289">
        <ele>266</ele>
        <time>2022-06-06T08:17:36.000Z</time>
      </trkpt>
      <trkpt lat="49.85715" lon="4.77284">
        <ele>266</ele>
        <time>2022-06-06T08:17:37.000Z</time>
      </trkpt>
      <trkpt lat="49.85713" lon="4.77279">
        <ele>265</ele>
        <time>2022-06-06T08:17:38.000Z</time>
      </trkpt>
      <trkpt lat="49.85711" lon="4.77274">
        <ele>265</ele>
        <time>2022-06-06T08:17:39.000Z</time>
      </trkpt>
      <trkpt lat="49.85709" lon="4.77268">
        <ele>264</ele>
        <time>2022-06-06T08:17:40.000Z</time>
      </trkpt>
      <trkpt lat="49.85707" lon="4.77262">
        <ele>264</ele>
        <time>2022-06-06T08:17:41.000Z</time>
      </trkpt>
      <trkpt lat="49.85705" lon="4.77256">
        <ele>263</ele>
        <time>2022-06-06T08:17:42.000Z</time>
      </trkpt>
      <trkpt lat="49.85705" lon="4.77249">
        <ele>263</ele>
        <time>2022-06-06T08:17:43.000Z</time>
      </trkpt>
      <trkpt lat="49.85706" lon="4.77243">
        <ele>262</ele>
        <time>2022-06-06T08:17:44.000Z</time>
      </trkpt>
      <trkpt lat="49.85708" lon="4.77239">
        <ele>261</ele>
        <time>2022-06-06T08:17:45.000Z</time>
      </trkpt>
      <trkpt lat="49.8571" lon="4.77235">
        <ele>261</ele>
        <time>2022-06-06T08:17:46.000Z</time>
      </trkpt>
      <trkpt lat="49.85712" lon="4.77231">
        <ele>260</ele>
        <time>2022-06-06T08:17:47.000Z</time>
      </trkpt>
      <trkpt lat="49.85714" lon="4.77226">
        <ele>259</ele>
        <time>2022-06-06T08:17:48.000Z</time>
      </trkpt>
      <trkpt lat="49.85716" lon="4.77222">
        <ele>258</ele>
        <time>2022-06-06T08:17:49.000Z</time>
      </trkpt>
      <trkpt lat="49.85717" lon="4.77217">
        <ele>258</ele>
        <time>2022-06-06T08:17:50.000Z</time>
      </trkpt>
      <trkpt lat="49.85719" lon="4.77212">
        <ele>257</ele>
        <time>2022-06-06T08:17:51.000Z</time>
      </trkpt>
      <trkpt lat="49.8572" lon="4.77208">
        <ele>256</ele>
        <time>2022-06-06T08:17:52.000Z</time>
      </trkpt>
      <trkpt lat="49.85721" lon="4.77205">
        <ele>255</ele>
        <time>2022-06-06T08:17:53.000Z</time>
      </trkpt>
      <trkpt lat="49.85722" lon="4.77202">
        <ele>255</ele>
        <time>2022-06-06T08:17:54.000Z</time>
      </trkpt>
      <trkpt lat="49.85723" lon="4.772">
        <ele>254</ele>
        <time>2022-06-06T08:17:55.000Z</time>
      </trkpt>
      <trkpt lat="49.85723" lon="4.77198">
        <ele>253</ele>
        <time>2022-06-06T08:17:56.000Z</time>
      </trkpt>
      <trkpt lat="49.85723" lon="4.77196">
        <ele>253</ele>
        <time>2022-06-06T08:17:57.000Z</time>
      </trkpt>
      <trkpt lat="49.85722" lon="4.77195">
        <ele>252</ele>
        <time>2022-06-06T08:17:58.000Z</time>
      </trkpt>
      <trkpt lat="49.85721" lon="4.77192">
        <ele>251</ele>
        <time>2022-06-06T08:17:59.000Z</time>
      </trkpt>
      <trkpt lat="49.85719" lon="4.7719">
        <ele>251</ele>
        <time>2022-06-06T08:18:00.000Z</time>
      </trkpt>
      <trkpt lat="49.85717" lon="4.77185">
        <ele>250</ele>
        <time>2022-06-06T08:18:01.000Z</time>
      </trkpt>
      <trkpt lat="49.85715" lon="4.77179">
        <ele>250</ele>
        <time>2022-06-06T08:18:02.000Z</time>
      </trkpt>
      <trkpt lat="49.85713" lon="4.77171">
        <ele>249</ele>
        <time>2022-06-06T08:18:03.000Z</time>
      </trkpt>
      <trkpt lat="49.8571" lon="4.77163">
        <ele>249</ele>
        <time>2022-06-06T08:18:04.000Z</time>
      </trkpt>
      <trkpt lat="49.85707" lon="4.77155">
        <ele>248</ele>
        <time>2022-06-06T08:18:05.000Z</time>
      </trkpt>
      <trkpt lat="49.85704" lon="4.77146">
        <ele>248</ele>
        <time>2022-06-06T08:18:06.000Z</time>
      </trkpt>
      <trkpt lat="49.857" lon="4.77137">
        <ele>248</ele>
        <time>2022-06-06T08:18:07.000Z</time>
      </trkpt>
      <trkpt lat="49.85696" lon="4.77127">
        <ele>247</ele>
        <time>2022-06-06T08:18:08.000Z</time>
      </trkpt>
      <trkpt lat="49.85692" lon="4.77117">
        <ele>247</ele>
        <time>2022-06-06T08:18:09.000Z</time>
      </trkpt>
      <trkpt lat="49.85688" lon="4.77107">
        <ele>247</ele>
        <time>2022-06-06T08:18:10.000Z</time>
      </trkpt>
      <trkpt lat="49.85684" lon="4.77097">
        <ele>246</ele>
        <time>2022-06-06T08:18:11.000Z</time>
      </trkpt>
      <trkpt lat="49.8568" lon="4.77088">
        <ele>246</ele>
        <time>2022-06-06T08:18:12.000Z</time>
      </trkpt>
      <trkpt lat="49.85676" lon="4.77078">
        <ele>245</ele>
        <time>2022-06-06T08:18:13.000Z</time>
      </trkpt>
      <trkpt lat="49.85672" lon="4.77068">
        <ele>245</ele>
        <time>2022-06-06T08:18:14.000Z</time>
      </trkpt>
      <trkpt lat="49.85669" lon="4.77059">
        <ele>244</ele>
        <time>2022-06-06T08:18:15.000Z</time>
      </trkpt>
      <trkpt lat="49.85664" lon="4.7705">
        <ele>244</ele>
        <time>2022-06-06T08:18:16.000Z</time>
      </trkpt>
      <trkpt lat="49.8566" lon="4.77041">
        <ele>243</ele>
        <time>2022-06-06T08:18:17.000Z</time>
      </trkpt>
      <trkpt lat="49.85656" lon="4.77032">
        <ele>242</ele>
        <time>2022-06-06T08:18:18.000Z</time>
      </trkpt>
      <trkpt lat="49.85652" lon="4.77023">
        <ele>241</ele>
        <time>2022-06-06T08:18:19.000Z</time>
      </trkpt>
      <trkpt lat="49.85647" lon="4.77013">
        <ele>241</ele>
        <time>2022-06-06T08:18:20.000Z</time>
      </trkpt>
      <trkpt lat="49.85642" lon="4.77003">
        <ele>240</ele>
        <time>2022-06-06T08:18:21.000Z</time>
      </trkpt>
      <trkpt lat="49.85637" lon="4.76994">
        <ele>239</ele>
        <time>2022-06-06T08:18:22.000Z</time>
      </trkpt>
      <trkpt lat="49.85632" lon="4.76984">
        <ele>238</ele>
        <time>2022-06-06T08:18:23.000Z</time>
      </trkpt>
      <trkpt lat="49.85628" lon="4.76975">
        <ele>237</ele>
        <time>2022-06-06T08:18:24.000Z</time>
      </trkpt>
      <trkpt lat="49.85624" lon="4.76965">
        <ele>236</ele>
        <time>2022-06-06T08:18:25.000Z</time>
      </trkpt>
      <trkpt lat="49.85621" lon="4.76955">
        <ele>235</ele>
        <time>2022-06-06T08:18:26.000Z</time>
      </trkpt>
      <trkpt lat="49.85617" lon="4.76946">
        <ele>233</ele>
        <time>2022-06-06T08:18:27.000Z</time>
      </trkpt>
      <trkpt lat="49.85614" lon="4.76936">
        <ele>232</ele>
        <time>2022-06-06T08:18:28.000Z</time>
      </trkpt>
      <trkpt lat="49.85611" lon="4.76925">
        <ele>230</ele>
        <time>2022-06-06T08:18:29.000Z</time>
      </trkpt>
      <trkpt lat="49.85608" lon="4.76914">
        <ele>228</ele>
        <time>2022-06-06T08:18:30.000Z</time>
      </trkpt>
      <trkpt lat="49.85607" lon="4.76904">
        <ele>227</ele>
        <time>2022-06-06T08:18:31.000Z</time>
      </trkpt>
      <trkpt lat="49.85606" lon="4.76895">
        <ele>225</ele>
        <time>2022-06-06T08:18:32.000Z</time>
      </trkpt>
      <trkpt lat="49.85605" lon="4.76886">
        <ele>223</ele>
        <time>2022-06-06T08:18:33.000Z</time>
      </trkpt>
      <trkpt lat="49.85605" lon="4.76878">
        <ele>221</ele>
        <time>2022-06-06T08:18:34.000Z</time>
      </trkpt>
      <trkpt lat="49.85605" lon="4.7687">
        <ele>220</ele>
        <time>2022-06-06T08:18:35.000Z</time>
      </trkpt>
      <trkpt lat="49.85605" lon="4.76862">
        <ele>218</ele>
        <time>2022-06-06T08:18:36.000Z</time>
      </trkpt>
      <trkpt lat="49.85606" lon="4.76855">
        <ele>217</ele>
        <time>2022-06-06T08:18:37.000Z</time>
      </trkpt>
      <trkpt lat="49.85606" lon="4.76848">
        <ele>215</ele>
        <time>2022-06-06T08:18:38.000Z</time>
      </trkpt>
      <trkpt lat="49.85606" lon="4.76841">
        <ele>214</ele>
        <time>2022-06-06T08:18:39.000Z</time>
      </trkpt>
      <trkpt lat="49.85606" lon="4.76834">
        <ele>213</ele>
        <time>2022-06-06T08:18:40.000Z</time>
      </trkpt>
      <trkpt lat="49.85607" lon="4.76828">
        <ele>212</ele>
        <time>2022-06-06T08:18:41.000Z</time>
      </trkpt>
      <trkpt lat="49.85607" lon="4.76822">
        <ele>211</ele>
        <time>2022-06-06T08:18:42.000Z</time>
      </trkpt>
      <trkpt lat="49.85608" lon="4.76816">
        <ele>210</ele>
        <time>2022-06-06T08:18:43.000Z</time>
      </trkpt>
      <trkpt lat="49.85608" lon="4.7681">
        <ele>209</ele>
        <time>2022-06-06T08:18:44.000Z</time>
      </trkpt>
      <trkpt lat="49.85609" lon="4.76804">
        <ele>208</ele>
        <time>2022-06-06T08:18:45.000Z</time>
      </trkpt>
      <trkpt lat="49.8561" lon="4.76798">
        <ele>207</ele>
        <time>2022-06-06T08:18:46.000Z</time>
      </trkpt>
      <trkpt lat="49.8561" lon="4.76793">
        <ele>206</ele>
        <time>2022-06-06T08:18:47.000Z</time>
      </trkpt>
      <trkpt lat="49.85611" lon="4.76787">
        <ele>205</ele>
        <time>2022-06-06T08:18:48.000Z</time>
      </trkpt>
      <trkpt lat="49.85613" lon="4.76783">
        <ele>204</ele>
        <time>2022-06-06T08:18:49.000Z</time>
      </trkpt>
      <trkpt lat="49.85615" lon="4.76778">
        <ele>203</ele>
        <time>2022-06-06T08:18:50.000Z</time>
      </trkpt>
      <trkpt lat="49.85618" lon="4.76774">
        <ele>202</ele>
        <time>2022-06-06T08:18:51.000Z</time>
      </trkpt>
      <trkpt lat="49.85622" lon="4.7677">
        <ele>202</ele>
        <time>2022-06-06T08:18:52.000Z</time>
      </trkpt>
      <trkpt lat="49.85626" lon="4.76766">
        <ele>201</ele>
        <time>2022-06-06T08:18:53.000Z</time>
      </trkpt>
      <trkpt lat="49.85631" lon="4.76762">
        <ele>200</ele>
        <time>2022-06-06T08:18:54.000Z</time>
      </trkpt>
      <trkpt lat="49.85636" lon="4.76757">
        <ele>199</ele>
        <time>2022-06-06T08:18:55.000Z</time>
      </trkpt>
      <trkpt lat="49.8564" lon="4.76752">
        <ele>198</ele>
        <time>2022-06-06T08:18:56.000Z</time>
      </trkpt>
      <trkpt lat="49.85645" lon="4.76748">
        <ele>198</ele>
        <time>2022-06-06T08:18:57.000Z</time>
      </trkpt>
      <trkpt lat="49.8565" lon="4.76744">
        <ele>197</ele>
        <time>2022-06-06T08:18:58.000Z</time>
      </trkpt>
      <trkpt lat="49.85656" lon="4.76739">
        <ele>196</ele>
        <time>2022-06-06T08:18:59.000Z</time>
      </trkpt>
      <trkpt lat="49.85661" lon="4.76734">
        <ele>196</ele>
        <time>2022-06-06T08:19:00.000Z</time>
      </trkpt>
      <trkpt lat="49.85666" lon="4.76729">
        <ele>195</ele>
        <time>2022-06-06T08:19:01.000Z</time>
      </trkpt>
      <trkpt lat="49.8567" lon="4.76724">
        <ele>195</ele>
        <time>2022-06-06T08:19:02.000Z</time>
      </trkpt>
      <trkpt lat="49.85673" lon="4.76719">
        <ele>194</ele>
        <time>2022-06-06T08:19:03.000Z</time>
      </trkpt>
      <trkpt lat="49.85676" lon="4.76716">
        <ele>194</ele>
        <time>2022-06-06T08:19:04.000Z</time>
      </trkpt>
      <trkpt lat="49.85678" lon="4.76713">
        <ele>193</ele>
        <time>2022-06-06T08:19:05.000Z</time>
      </trkpt>
      <trkpt lat="49.85681" lon="4.7671">
        <ele>193</ele>
        <time>2022-06-06T08:19:06.000Z</time>
      </trkpt>
      <trkpt lat="49.85684" lon="4.76708">
        <ele>193</ele>
        <time>2022-06-06T08:19:07.000Z</time>
      </trkpt>
      <trkpt lat="49.85687" lon="4.76706">
        <ele>192</ele>
        <time>2022-06-06T08:19:08.000Z</time>
      </trkpt>
      <trkpt lat="49.85691" lon="4.76704">
        <ele>192</ele>
        <time>2022-06-06T08:19:09.000Z</time>
      </trkpt>
      <trkpt lat="49.85696" lon="4.76701">
        <ele>192</ele>
        <time>2022-06-06T08:19:10.000Z</time>
      </trkpt>
      <trkpt lat="49.857" lon="4.76699">
        <ele>192</ele>
        <time>2022-06-06T08:19:11.000Z</time>
      </trkpt>
      <trkpt lat="49.85705" lon="4.76698">
        <ele>192</ele>
        <time>2022-06-06T08:19:12.000Z</time>
      </trkpt>
      <trkpt lat="49.8571" lon="4.76697">
        <ele>191</ele>
        <time>2022-06-06T08:19:13.000Z</time>
      </trkpt>
      <trkpt lat="49.85714" lon="4.76696">
        <ele>191</ele>
        <time>2022-06-06T08:19:14.000Z</time>
      </trkpt>
      <trkpt lat="49.85718" lon="4.76695">
        <ele>191</ele>
        <time>2022-06-06T08:19:15.000Z</time>
      </trkpt>
      <trkpt lat="49.85722" lon="4.76694">
        <ele>191</ele>
        <time>2022-06-06T08:19:16.000Z</time>
      </trkpt>
      <trkpt lat="49.85726" lon="4.76692">
        <ele>191</ele>
        <time>2022-06-06T08:19:17.000Z</time>
      </trkpt>
      <trkpt lat="49.85731" lon="4.76691">
        <ele>191</ele>
        <time>2022-06-06T08:19:18.000Z</time>
      </trkpt>
      <trkpt lat="49.85736" lon="4.7669">
        <ele>191</ele>
        <time>2022-06-06T08:19:19.000Z</time>
      </trkpt>
      <trkpt lat="49.85741" lon="4.76688">
        <ele>190</ele>
        <time>2022-06-06T08:19:20.000Z</time>
      </trkpt>
      <trkpt lat="49.85745" lon="4.76685">
        <ele>190</ele>
        <time>2022-06-06T08:19:21.000Z</time>
      </trkpt>
      <trkpt lat="49.8575" lon="4.76683">
        <ele>190</ele>
        <time>2022-06-06T08:19:22.000Z</time>
      </trkpt>
      <trkpt lat="49.85754" lon="4.76681">
        <ele>190</ele>
        <time>2022-06-06T08:19:23.000Z</time>
      </trkpt>
      <trkpt lat="49.85759" lon="4.7668">
        <ele>190</ele>
        <time>2022-06-06T08:19:24.000Z</time>
      </trkpt>
      <trkpt lat="49.85763" lon="4.76679">
        <ele>190</ele>
        <time>2022-06-06T08:19:25.000Z</time>
      </trkpt>
      <trkpt lat="49.85767" lon="4.76677">
        <ele>190</ele>
        <time>2022-06-06T08:19:26.000Z</time>
      </trkpt>
      <trkpt lat="49.8577" lon="4.76676">
        <ele>190</ele>
        <time>2022-06-06T08:19:27.000Z</time>
      </trkpt>
      <trkpt lat="49.85773" lon="4.76675">
        <ele>189</ele>
        <time>2022-06-06T08:19:28.000Z</time>
      </trkpt>
      <trkpt lat="49.85775" lon="4.76675">
        <ele>189</ele>
        <time>2022-06-06T08:19:29.000Z</time>
      </trkpt>
      <trkpt lat="49.85778" lon="4.76674">
        <ele>189</ele>
        <time>2022-06-06T08:19:30.000Z</time>
      </trkpt>
      <trkpt lat="49.85782" lon="4.76674">
        <ele>189</ele>
        <time>2022-06-06T08:19:31.000Z</time>
      </trkpt>
      <trkpt lat="49.85785" lon="4.76672">
        <ele>189</ele>
        <time>2022-06-06T08:19:32.000Z</time>
      </trkpt>
      <trkpt lat="49.8579" lon="4.7667">
        <ele>189</ele>
        <time>2022-06-06T08:19:33.000Z</time>
      </trkpt>
      <trkpt lat="49.85795" lon="4.76666">
        <ele>189</ele>
        <time>2022-06-06T08:19:34.000Z</time>
      </trkpt>
      <trkpt lat="49.85799" lon="4.76665">
        <ele>189</ele>
        <time>2022-06-06T08:19:35.000Z</time>
      </trkpt>
      <trkpt lat="49.85804" lon="4.76664">
        <ele>189</ele>
        <time>2022-06-06T08:19:36.000Z</time>
      </trkpt>
      <trkpt lat="49.85808" lon="4.76663">
        <ele>189</ele>
        <time>2022-06-06T08:19:37.000Z</time>
      </trkpt>
      <trkpt lat="49.85812" lon="4.76663">
        <ele>189</ele>
        <time>2022-06-06T08:19:38.000Z</time>
      </trkpt>
      <trkpt lat="49.85814" lon="4.76662">
        <ele>189</ele>
        <time>2022-06-06T08:19:39.000Z</time>
      </trkpt>
      <trkpt lat="49.85817" lon="4.76662">
        <ele>189</ele>
        <time>2022-06-06T08:19:40.000Z</time>
      </trkpt>
      <trkpt lat="49.85818" lon="4.76661">
        <ele>189</ele>
        <time>2022-06-06T08:19:41.000Z</time>
      </trkpt>
      <trkpt lat="49.85821" lon="4.76661">
        <ele>189</ele>
        <time>2022-06-06T08:19:42.000Z</time>
      </trkpt>
      <trkpt lat="49.85823" lon="4.76661">
        <ele>189</ele>
        <time>2022-06-06T08:19:43.000Z</time>
      </trkpt>
      <trkpt lat="49.85825" lon="4.76661">
        <ele>189</ele>
        <time>2022-06-06T08:19:44.000Z</time>
      </trkpt>
      <trkpt lat="49.85827" lon="4.76661">
        <ele>190</ele>
        <time>2022-06-06T08:19:45.000Z</time>
      </trkpt>
      <trkpt lat="49.85829" lon="4.76661">
        <ele>190</ele>
        <time>2022-06-06T08:19:46.000Z</time>
      </trkpt>
      <trkpt lat="49.8583" lon="4.7666">
        <ele>190</ele>
        <time>2022-06-06T08:19:47.000Z</time>
      </trkpt>
      <trkpt lat="49.85831" lon="4.76661">
        <ele>190</ele>
        <time>2022-06-06T08:19:48.000Z</time>
      </trkpt>
      <trkpt lat="49.85833" lon="4.76661">
        <ele>190</ele>
        <time>2022-06-06T08:19:49.000Z</time>
      </trkpt>
      <trkpt lat="49.85834" lon="4.76661">
        <ele>191</ele>
        <time>2022-06-06T08:19:50.000Z</time>
      </trkpt>
      <trkpt lat="49.85836" lon="4.76661">
        <ele>191</ele>
        <time>2022-06-06T08:19:51.000Z</time>
      </trkpt>
      <trkpt lat="49.85838" lon="4.76661">
        <ele>191</ele>
        <time>2022-06-06T08:19:52.000Z</time>
      </trkpt>
      <trkpt lat="49.8584" lon="4.76661">
        <ele>191</ele>
        <time>2022-06-06T08:19:53.000Z</time>
      </trkpt>
      <trkpt lat="49.85841" lon="4.76661">
        <ele>192</ele>
        <time>2022-06-06T08:19:54.000Z</time>
      </trkpt>
      <trkpt lat="49.85844" lon="4.76661">
        <ele>192</ele>
        <time>2022-06-06T08:19:55.000Z</time>
      </trkpt>
      <trkpt lat="49.85846" lon="4.76662">
        <ele>192</ele>
        <time>2022-06-06T08:19:56.000Z</time>
      </trkpt>
      <trkpt lat="49.85848" lon="4.76662">
        <ele>192</ele>
        <time>2022-06-06T08:19:57.000Z</time>
      </trkpt>
      <trkpt lat="49.8585" lon="4.76661">
        <ele>193</ele>
        <time>2022-06-06T08:19:58.000Z</time>
      </trkpt>
      <trkpt lat="49.85853" lon="4.76662">
        <ele>193</ele>
        <time>2022-06-06T08:19:59.000Z</time>
      </trkpt>
      <trkpt lat="49.85856" lon="4.76662">
        <ele>193</ele>
        <time>2022-06-06T08:20:00.000Z</time>
      </trkpt>
      <trkpt lat="49.85859" lon="4.76663">
        <ele>193</ele>
        <time>2022-06-06T08:20:01.000Z</time>
      </trkpt>
      <trkpt lat="49.85862" lon="4.76663">
        <ele>194</ele>
        <time>2022-06-06T08:20:02.000Z</time>
      </trkpt>
      <trkpt lat="49.85865" lon="4.76664">
        <ele>194</ele>
        <time>2022-06-06T08:20:03.000Z</time>
      </trkpt>
      <trkpt lat="49.85867" lon="4.76664">
        <ele>194</ele>
        <time>2022-06-06T08:20:04.000Z</time>
      </trkpt>
      <trkpt lat="49.8587" lon="4.76664">
        <ele>194</ele>
        <time>2022-06-06T08:20:05.000Z</time>
      </trkpt>
      <trkpt lat="49.85872" lon="4.76664">
        <ele>194</ele>
        <time>2022-06-06T08:20:06.000Z</time>
      </trkpt>
      <trkpt lat="49.85875" lon="4.76664">
        <ele>195</ele>
        <time>2022-06-06T08:20:07.000Z</time>
      </trkpt>
      <trkpt lat="49.85878" lon="4.76665">
        <ele>195</ele>
        <time>2022-06-06T08:20:08.000Z</time>
      </trkpt>
      <trkpt lat="49.85881" lon="4.76665">
        <ele>195</ele>
        <time>2022-06-06T08:20:09.000Z</time>
      </trkpt>
      <trkpt lat="49.85884" lon="4.76666">
        <ele>195</ele>
        <time>2022-06-06T08:20:10.000Z</time>
      </trkpt>
      <trkpt lat="49.85886" lon="4.76666">
        <ele>195</ele>
        <time>2022-06-06T08:20:11.000Z</time>
      </trkpt>
      <trkpt lat="49.85889" lon="4.76666">
        <ele>196</ele>
        <time>2022-06-06T08:20:12.000Z</time>
      </trkpt>
      <trkpt lat="49.85891" lon="4.76667">
        <ele>196</ele>
        <time>2022-06-06T08:20:13.000Z</time>
      </trkpt>
      <trkpt lat="49.85894" lon="4.76667">
        <ele>196</ele>
        <time>2022-06-06T08:20:14.000Z</time>
      </trkpt>
      <trkpt lat="49.85896" lon="4.76668">
        <ele>196</ele>
        <time>2022-06-06T08:20:15.000Z</time>
      </trkpt>
      <trkpt lat="49.85898" lon="4.76669">
        <ele>197</ele>
        <time>2022-06-06T08:20:16.000Z</time>
      </trkpt>
      <trkpt lat="49.85901" lon="4.7667">
        <ele>197</ele>
        <time>2022-06-06T08:20:17.000Z</time>
      </trkpt>
      <trkpt lat="49.85904" lon="4.76671">
        <ele>197</ele>
        <time>2022-06-06T08:20:18.000Z</time>
      </trkpt>
      <trkpt lat="49.85907" lon="4.76672">
        <ele>197</ele>
        <time>2022-06-06T08:20:19.000Z</time>
      </trkpt>
      <trkpt lat="49.85909" lon="4.76672">
        <ele>197</ele>
        <time>2022-06-06T08:20:20.000Z</time>
      </trkpt>
      <trkpt lat="49.85912" lon="4.76673">
        <ele>198</ele>
        <time>2022-06-06T08:20:21.000Z</time>
      </trkpt>
      <trkpt lat="49.85915" lon="4.76674">
        <ele>198</ele>
        <time>2022-06-06T08:20:22.000Z</time>
      </trkpt>
      <trkpt lat="49.85918" lon="4.76675">
        <ele>198</ele>
        <time>2022-06-06T08:20:23.000Z</time>
      </trkpt>
      <trkpt lat="49.8592" lon="4.76675">
        <ele>199</ele>
        <time>2022-06-06T08:20:24.000Z</time>
      </trkpt>
      <trkpt lat="49.85922" lon="4.76676">
        <ele>199</ele>
        <time>2022-06-06T08:20:25.000Z</time>
      </trkpt>
      <trkpt lat="49.85924" lon="4.76677">
        <ele>199</ele>
        <time>2022-06-06T08:20:26.000Z</time>
      </trkpt>
      <trkpt lat="49.85926" lon="4.76677">
        <ele>200</ele>
        <time>2022-06-06T08:20:27.000Z</time>
      </trkpt>
      <trkpt lat="49.85928" lon="4.76677">
        <ele>200</ele>
        <time>2022-06-06T08:20:28.000Z</time>
      </trkpt>
      <trkpt lat="49.85931" lon="4.76679">
        <ele>200</ele>
        <time>2022-06-06T08:20:29.000Z</time>
      </trkpt>
      <trkpt lat="49.85932" lon="4.76679">
        <ele>200</ele>
        <time>2022-06-06T08:20:30.000Z</time>
      </trkpt>
      <trkpt lat="49.85934" lon="4.7668">
        <ele>201</ele>
        <time>2022-06-06T08:20:31.000Z</time>
      </trkpt>
      <trkpt lat="49.85936" lon="4.76681">
        <ele>201</ele>
        <time>2022-06-06T08:20:32.000Z</time>
      </trkpt>
      <trkpt lat="49.85937" lon="4.76681">
        <ele>201</ele>
        <time>2022-06-06T08:20:33.000Z</time>
      </trkpt>
      <trkpt lat="49.85939" lon="4.76682">
        <ele>201</ele>
        <time>2022-06-06T08:20:34.000Z</time>
      </trkpt>
      <trkpt lat="49.85941" lon="4.76682">
        <ele>202</ele>
        <time>2022-06-06T08:20:35.000Z</time>
      </trkpt>
      <trkpt lat="49.85943" lon="4.76682">
        <ele>202</ele>
        <time>2022-06-06T08:20:36.000Z</time>
      </trkpt>
      <trkpt lat="49.85946" lon="4.76682">
        <ele>202</ele>
        <time>2022-06-06T08:20:37.000Z</time>
      </trkpt>
      <trkpt lat="49.85948" lon="4.76682">
        <ele>202</ele>
        <time>2022-06-06T08:20:38.000Z</time>
      </trkpt>
      <trkpt lat="49.8595" lon="4.76681">
        <ele>202</ele>
        <time>2022-06-06T08:20:39.000Z</time>
      </trkpt>
      <trkpt lat="49.85952" lon="4.76679">
        <ele>203</ele>
        <time>2022-06-06T08:20:40.000Z</time>
      </trkpt>
      <trkpt lat="49.85954" lon="4.76677">
        <ele>203</ele>
        <time>2022-06-06T08:20:41.000Z</time>
      </trkpt>
      <trkpt lat="49.85956" lon="4.76675">
        <ele>203</ele>
        <time>2022-06-06T08:20:42.000Z</time>
      </trkpt>
      <trkpt lat="49.85959" lon="4.76673">
        <ele>203</ele>
        <time>2022-06-06T08:20:43.000Z</time>
      </trkpt>
      <trkpt lat="49.85961" lon="4.76671">
        <ele>203</ele>
        <time>2022-06-06T08:20:44.000Z</time>
      </trkpt>
      <trkpt lat="49.85965" lon="4.76669">
        <ele>204</ele>
        <time>2022-06-06T08:20:45.000Z</time>
      </trkpt>
      <trkpt lat="49.85969" lon="4.76667">
        <ele>204</ele>
        <time>2022-06-06T08:20:46.000Z</time>
      </trkpt>
      <trkpt lat="49.85974" lon="4.76665">
        <ele>204</ele>
        <time>2022-06-06T08:20:47.000Z</time>
      </trkpt>
      <trkpt lat="49.85979" lon="4.76662">
        <ele>204</ele>
        <time>2022-06-06T08:20:48.000Z</time>
      </trkpt>
      <trkpt lat="49.85985" lon="4.7666">
        <ele>204</ele>
        <time>2022-06-06T08:20:49.000Z</time>
      </trkpt>
      <trkpt lat="49.85992" lon="4.76657">
        <ele>204</ele>
        <time>2022-06-06T08:20:50.000Z</time>
      </trkpt>
      <trkpt lat="49.86" lon="4.76654">
        <ele>204</ele>
        <time>2022-06-06T08:20:51.000Z</time>
      </trkpt>
      <trkpt lat="49.86008" lon="4.76651">
        <ele>204</ele>
        <time>2022-06-06T08:20:52.000Z</time>
      </trkpt>
      <trkpt lat="49.86016" lon="4.76649">
        <ele>204</ele>
        <time>2022-06-06T08:20:53.000Z</time>
      </trkpt>
      <trkpt lat="49.86026" lon="4.7665">
        <ele>204</ele>
        <time>2022-06-06T08:20:54.000Z</time>
      </trkpt>
      <trkpt lat="49.86035" lon="4.7665">
        <ele>203</ele>
        <time>2022-06-06T08:20:55.000Z</time>
      </trkpt>
      <trkpt lat="49.86045" lon="4.76651">
        <ele>203</ele>
        <time>2022-06-06T08:20:56.000Z</time>
      </trkpt>
      <trkpt lat="49.86054" lon="4.76654">
        <ele>203</ele>
        <time>2022-06-06T08:20:57.000Z</time>
      </trkpt>
      <trkpt lat="49.86064" lon="4.76657">
        <ele>202</ele>
        <time>2022-06-06T08:20:58.000Z</time>
      </trkpt>
      <trkpt lat="49.86074" lon="4.7666">
        <ele>202</ele>
        <time>2022-06-06T08:20:59.000Z</time>
      </trkpt>
      <trkpt lat="49.86084" lon="4.76662">
        <ele>201</ele>
        <time>2022-06-06T08:21:00.000Z</time>
      </trkpt>
      <trkpt lat="49.86094" lon="4.76664">
        <ele>200</ele>
        <time>2022-06-06T08:21:01.000Z</time>
      </trkpt>
      <trkpt lat="49.86103" lon="4.76666">
        <ele>199</ele>
        <time>2022-06-06T08:21:02.000Z</time>
      </trkpt>
      <trkpt lat="49.86113" lon="4.76666">
        <ele>198</ele>
        <time>2022-06-06T08:21:03.000Z</time>
      </trkpt>
      <trkpt lat="49.86121" lon="4.76665">
        <ele>198</ele>
        <time>2022-06-06T08:21:04.000Z</time>
      </trkpt>
      <trkpt lat="49.8613" lon="4.76662">
        <ele>197</ele>
        <time>2022-06-06T08:21:05.000Z</time>
      </trkpt>
      <trkpt lat="49.86137" lon="4.76659">
        <ele>196</ele>
        <time>2022-06-06T08:21:06.000Z</time>
      </trkpt>
      <trkpt lat="49.86144" lon="4.76653">
        <ele>195</ele>
        <time>2022-06-06T08:21:07.000Z</time>
      </trkpt>
      <trkpt lat="49.86149" lon="4.76645">
        <ele>194</ele>
        <time>2022-06-06T08:21:08.000Z</time>
      </trkpt>
      <trkpt lat="49.86151" lon="4.76635">
        <ele>193</ele>
        <time>2022-06-06T08:21:09.000Z</time>
      </trkpt>
      <trkpt lat="49.86152" lon="4.76624">
        <ele>192</ele>
        <time>2022-06-06T08:21:10.000Z</time>
      </trkpt>
      <trkpt lat="49.8615" lon="4.76612">
        <ele>191</ele>
        <time>2022-06-06T08:21:11.000Z</time>
      </trkpt>
      <trkpt lat="49.86147" lon="4.766">
        <ele>190</ele>
        <time>2022-06-06T08:21:12.000Z</time>
      </trkpt>
      <trkpt lat="49.86143" lon="4.76588">
        <ele>189</ele>
        <time>2022-06-06T08:21:13.000Z</time>
      </trkpt>
      <trkpt lat="49.86139" lon="4.76574">
        <ele>188</ele>
        <time>2022-06-06T08:21:14.000Z</time>
      </trkpt>
      <trkpt lat="49.86136" lon="4.7656">
        <ele>187</ele>
        <time>2022-06-06T08:21:15.000Z</time>
      </trkpt>
      <trkpt lat="49.86134" lon="4.76545">
        <ele>185</ele>
        <time>2022-06-06T08:21:16.000Z</time>
      </trkpt>
      <trkpt lat="49.86132" lon="4.7653">
        <ele>184</ele>
        <time>2022-06-06T08:21:17.000Z</time>
      </trkpt>
      <trkpt lat="49.8613" lon="4.76516">
        <ele>183</ele>
        <time>2022-06-06T08:21:18.000Z</time>
      </trkpt>
      <trkpt lat="49.86128" lon="4.76503">
        <ele>181</ele>
        <time>2022-06-06T08:21:19.000Z</time>
      </trkpt>
      <trkpt lat="49.86126" lon="4.76489">
        <ele>180</ele>
        <time>2022-06-06T08:21:20.000Z</time>
      </trkpt>
      <trkpt lat="49.86124" lon="4.76476">
        <ele>179</ele>
        <time>2022-06-06T08:21:21.000Z</time>
      </trkpt>
      <trkpt lat="49.86122" lon="4.76464">
        <ele>178</ele>
        <time>2022-06-06T08:21:22.000Z</time>
      </trkpt>
      <trkpt lat="49.86119" lon="4.76452">
        <ele>177</ele>
        <time>2022-06-06T08:21:23.000Z</time>
      </trkpt>
      <trkpt lat="49.86117" lon="4.7644">
        <ele>175</ele>
        <time>2022-06-06T08:21:24.000Z</time>
      </trkpt>
      <trkpt lat="49.86115" lon="4.76429">
        <ele>174</ele>
        <time>2022-06-06T08:21:25.000Z</time>
      </trkpt>
      <trkpt lat="49.86113" lon="4.76418">
        <ele>173</ele>
        <time>2022-06-06T08:21:26.000Z</time>
      </trkpt>
      <trkpt lat="49.86111" lon="4.76408">
        <ele>173</ele>
        <time>2022-06-06T08:21:27.000Z</time>
      </trkpt>
      <trkpt lat="49.86109" lon="4.76399">
        <ele>172</ele>
        <time>2022-06-06T08:21:28.000Z</time>
      </trkpt>
      <trkpt lat="49.86107" lon="4.76392">
        <ele>171</ele>
        <time>2022-06-06T08:21:29.000Z</time>
      </trkpt>
      <trkpt lat="49.86106" lon="4.76387">
        <ele>170</ele>
        <time>2022-06-06T08:21:30.000Z</time>
      </trkpt>
      <trkpt lat="49.86105" lon="4.76382">
        <ele>170</ele>
        <time>2022-06-06T08:21:31.000Z</time>
      </trkpt>
      <trkpt lat="49.86104" lon="4.76378">
        <ele>170</ele>
        <time>2022-06-06T08:21:32.000Z</time>
      </trkpt>
      <trkpt lat="49.86103" lon="4.76373">
        <ele>169</ele>
        <time>2022-06-06T08:21:33.000Z</time>
      </trkpt>
      <trkpt lat="49.86101" lon="4.76368">
        <ele>169</ele>
        <time>2022-06-06T08:21:34.000Z</time>
      </trkpt>
      <trkpt lat="49.861" lon="4.76362">
        <ele>168</ele>
        <time>2022-06-06T08:21:35.000Z</time>
      </trkpt>
      <trkpt lat="49.86098" lon="4.76355">
        <ele>168</ele>
        <time>2022-06-06T08:21:36.000Z</time>
      </trkpt>
      <trkpt lat="49.86095" lon="4.76348">
        <ele>167</ele>
        <time>2022-06-06T08:21:37.000Z</time>
      </trkpt>
      <trkpt lat="49.86093" lon="4.76342">
        <ele>167</ele>
        <time>2022-06-06T08:21:38.000Z</time>
      </trkpt>
      <trkpt lat="49.8609" lon="4.76337">
        <ele>166</ele>
        <time>2022-06-06T08:21:39.000Z</time>
      </trkpt>
      <trkpt lat="49.86088" lon="4.76333">
        <ele>166</ele>
        <time>2022-06-06T08:21:40.000Z</time>
      </trkpt>
      <trkpt lat="49.86087" lon="4.7633">
        <ele>166</ele>
        <time>2022-06-06T08:21:41.000Z</time>
      </trkpt>
      <trkpt lat="49.86087" lon="4.76327">
        <ele>165</ele>
        <time>2022-06-06T08:21:42.000Z</time>
      </trkpt>
      <trkpt lat="49.86087" lon="4.76325">
        <ele>165</ele>
        <time>2022-06-06T08:21:43.000Z</time>
      </trkpt>
      <trkpt lat="49.86089" lon="4.76324">
        <ele>165</ele>
        <time>2022-06-06T08:21:44.000Z</time>
      </trkpt>
      <trkpt lat="49.8609" lon="4.76323">
        <ele>164</ele>
        <time>2022-06-06T08:21:45.000Z</time>
      </trkpt>
      <trkpt lat="49.86092" lon="4.76322">
        <ele>164</ele>
        <time>2022-06-06T08:21:46.000Z</time>
      </trkpt>
      <trkpt lat="49.86095" lon="4.76321">
        <ele>164</ele>
        <time>2022-06-06T08:21:47.000Z</time>
      </trkpt>
      <trkpt lat="49.86098" lon="4.76321">
        <ele>164</ele>
        <time>2022-06-06T08:21:48.000Z</time>
      </trkpt>
      <trkpt lat="49.86101" lon="4.76321">
        <ele>163</ele>
        <time>2022-06-06T08:21:49.000Z</time>
      </trkpt>
      <trkpt lat="49.86105" lon="4.76321">
        <ele>163</ele>
        <time>2022-06-06T08:21:50.000Z</time>
      </trkpt>
      <trkpt lat="49.86108" lon="4.76321">
        <ele>163</ele>
        <time>2022-06-06T08:21:51.000Z</time>
      </trkpt>
      <trkpt lat="49.86112" lon="4.76321">
        <ele>163</ele>
        <time>2022-06-06T08:21:52.000Z</time>
      </trkpt>
      <trkpt lat="49.86116" lon="4.76321">
        <ele>163</ele>
        <time>2022-06-06T08:21:53.000Z</time>
      </trkpt>
      <trkpt lat="49.8612" lon="4.76322">
        <ele>163</ele>
        <time>2022-06-06T08:21:54.000Z</time>
      </trkpt>
      <trkpt lat="49.86124" lon="4.76322">
        <ele>163</ele>
        <time>2022-06-06T08:21:55.000Z</time>
      </trkpt>
      <trkpt lat="49.86129" lon="4.76322">
        <ele>162</ele>
        <time>2022-06-06T08:21:56.000Z</time>
      </trkpt>
      <trkpt lat="49.86133" lon="4.76323">
        <ele>162</ele>
        <time>2022-06-06T08:21:57.000Z</time>
      </trkpt>
      <trkpt lat="49.86137" lon="4.76323">
        <ele>162</ele>
        <time>2022-06-06T08:21:58.000Z</time>
      </trkpt>
      <trkpt lat="49.86141" lon="4.76324">
        <ele>162</ele>
        <time>2022-06-06T08:21:59.000Z</time>
      </trkpt>
      <trkpt lat="49.86146" lon="4.76324">
        <ele>162</ele>
        <time>2022-06-06T08:22:00.000Z</time>
      </trkpt>
      <trkpt lat="49.8615" lon="4.76325">
        <ele>161</ele>
        <time>2022-06-06T08:22:01.000Z</time>
      </trkpt>
      <trkpt lat="49.86154" lon="4.76325">
        <ele>161</ele>
        <time>2022-06-06T08:22:02.000Z</time>
      </trkpt>
      <trkpt lat="49.86157" lon="4.76326">
        <ele>161</ele>
        <time>2022-06-06T08:22:03.000Z</time>
      </trkpt>
      <trkpt lat="49.86161" lon="4.76326">
        <ele>161</ele>
        <time>2022-06-06T08:22:04.000Z</time>
      </trkpt>
      <trkpt lat="49.86165" lon="4.76326">
        <ele>161</ele>
        <time>2022-06-06T08:22:05.000Z</time>
      </trkpt>
      <trkpt lat="49.86168" lon="4.76326">
        <ele>161</ele>
        <time>2022-06-06T08:22:06.000Z</time>
      </trkpt>
      <trkpt lat="49.86172" lon="4.76324">
        <ele>161</ele>
        <time>2022-06-06T08:22:07.000Z</time>
      </trkpt>
      <trkpt lat="49.86177" lon="4.76323">
        <ele>161</ele>
        <time>2022-06-06T08:22:08.000Z</time>
      </trkpt>
      <trkpt lat="49.86181" lon="4.76322">
        <ele>160</ele>
        <time>2022-06-06T08:22:09.000Z</time>
      </trkpt>
      <trkpt lat="49.86185" lon="4.76322">
        <ele>160</ele>
        <time>2022-06-06T08:22:10.000Z</time>
      </trkpt>
      <trkpt lat="49.86189" lon="4.76322">
        <ele>160</ele>
        <time>2022-06-06T08:22:11.000Z</time>
      </trkpt>
      <trkpt lat="49.86194" lon="4.76323">
        <ele>160</ele>
        <time>2022-06-06T08:22:12.000Z</time>
      </trkpt>
      <trkpt lat="49.86197" lon="4.76324">
        <ele>160</ele>
        <time>2022-06-06T08:22:13.000Z</time>
      </trkpt>
      <trkpt lat="49.86201" lon="4.76325">
        <ele>159</ele>
        <time>2022-06-06T08:22:14.000Z</time>
      </trkpt>
      <trkpt lat="49.86205" lon="4.76325">
        <ele>159</ele>
        <time>2022-06-06T08:22:15.000Z</time>
      </trkpt>
      <trkpt lat="49.8621" lon="4.76325">
        <ele>159</ele>
        <time>2022-06-06T08:22:16.000Z</time>
      </trkpt>
      <trkpt lat="49.86214" lon="4.76326">
        <ele>159</ele>
        <time>2022-06-06T08:22:17.000Z</time>
      </trkpt>
      <trkpt lat="49.86218" lon="4.76326">
        <ele>159</ele>
        <time>2022-06-06T08:22:18.000Z</time>
      </trkpt>
      <trkpt lat="49.86223" lon="4.76326">
        <ele>159</ele>
        <time>2022-06-06T08:22:19.000Z</time>
      </trkpt>
      <trkpt lat="49.86228" lon="4.76325">
        <ele>159</ele>
        <time>2022-06-06T08:22:20.000Z</time>
      </trkpt>
      <trkpt lat="49.86233" lon="4.76324">
        <ele>159</ele>
        <time>2022-06-06T08:22:21.000Z</time>
      </trkpt>
      <trkpt lat="49.86238" lon="4.76323">
        <ele>159</ele>
        <time>2022-06-06T08:22:22.000Z</time>
      </trkpt>
      <trkpt lat="49.86243" lon="4.76321">
        <ele>159</ele>
        <time>2022-06-06T08:22:23.000Z</time>
      </trkpt>
      <trkpt lat="49.86247" lon="4.76319">
        <ele>159</ele>
        <time>2022-06-06T08:22:24.000Z</time>
      </trkpt>
      <trkpt lat="49.86252" lon="4.76317">
        <ele>159</ele>
        <time>2022-06-06T08:22:25.000Z</time>
      </trkpt>
      <trkpt lat="49.86257" lon="4.76315">
        <ele>159</ele>
        <time>2022-06-06T08:22:26.000Z</time>
      </trkpt>
      <trkpt lat="49.86261" lon="4.76313">
        <ele>160</ele>
        <time>2022-06-06T08:22:27.000Z</time>
      </trkpt>
      <trkpt lat="49.86265" lon="4.76311">
        <ele>160</ele>
        <time>2022-06-06T08:22:28.000Z</time>
      </trkpt>
      <trkpt lat="49.86269" lon="4.76309">
        <ele>160</ele>
        <time>2022-06-06T08:22:29.000Z</time>
      </trkpt>
      <trkpt lat="49.86271" lon="4.76307">
        <ele>160</ele>
        <time>2022-06-06T08:22:30.000Z</time>
      </trkpt>
      <trkpt lat="49.86274" lon="4.76304">
        <ele>160</ele>
        <time>2022-06-06T08:22:31.000Z</time>
      </trkpt>
      <trkpt lat="49.86276" lon="4.76301">
        <ele>160</ele>
        <time>2022-06-06T08:22:32.000Z</time>
      </trkpt>
      <trkpt lat="49.86277" lon="4.76297">
        <ele>160</ele>
        <time>2022-06-06T08:22:33.000Z</time>
      </trkpt>
      <trkpt lat="49.86276" lon="4.76293">
        <ele>159</ele>
        <time>2022-06-06T08:22:34.000Z</time>
      </trkpt>
      <trkpt lat="49.86275" lon="4.76288">
        <ele>159</ele>
        <time>2022-06-06T08:22:35.000Z</time>
      </trkpt>
      <trkpt lat="49.86272" lon="4.76284">
        <ele>159</ele>
        <time>2022-06-06T08:22:36.000Z</time>
      </trkpt>
      <trkpt lat="49.86269" lon="4.76279">
        <ele>159</ele>
        <time>2022-06-06T08:22:37.000Z</time>
      </trkpt>
      <trkpt lat="49.86265" lon="4.76274">
        <ele>158</ele>
        <time>2022-06-06T08:22:38.000Z</time>
      </trkpt>
      <trkpt lat="49.86261" lon="4.76269">
        <ele>158</ele>
        <time>2022-06-06T08:22:39.000Z</time>
      </trkpt>
      <trkpt lat="49.86256" lon="4.76264">
        <ele>158</ele>
        <time>2022-06-06T08:22:40.000Z</time>
      </trkpt>
      <trkpt lat="49.86252" lon="4.76258">
        <ele>157</ele>
        <time>2022-06-06T08:22:41.000Z</time>
      </trkpt>
      <trkpt lat="49.86247" lon="4.76252">
        <ele>157</ele>
        <time>2022-06-06T08:22:42.000Z</time>
      </trkpt>
      <trkpt lat="49.86242" lon="4.76245">
        <ele>156</ele>
        <time>2022-06-06T08:22:43.000Z</time>
      </trkpt>
      <trkpt lat="49.86236" lon="4.76239">
        <ele>156</ele>
        <time>2022-06-06T08:22:44.000Z</time>
      </trkpt>
      <trkpt lat="49.8623" lon="4.76233">
        <ele>156</ele>
        <time>2022-06-06T08:22:45.000Z</time>
      </trkpt>
      <trkpt lat="49.86225" lon="4.76227">
        <ele>155</ele>
        <time>2022-06-06T08:22:46.000Z</time>
      </trkpt>
      <trkpt lat="49.86219" lon="4.76221">
        <ele>155</ele>
        <time>2022-06-06T08:22:47.000Z</time>
      </trkpt>
      <trkpt lat="49.86216" lon="4.76216">
        <ele>154</ele>
        <time>2022-06-06T08:22:48.000Z</time>
      </trkpt>
      <trkpt lat="49.86214" lon="4.76209">
        <ele>154</ele>
        <time>2022-06-06T08:22:49.000Z</time>
      </trkpt>
      <trkpt lat="49.86215" lon="4.76203">
        <ele>154</ele>
        <time>2022-06-06T08:22:50.000Z</time>
      </trkpt>
      <trkpt lat="49.86218" lon="4.76198">
        <ele>154</ele>
        <time>2022-06-06T08:22:51.000Z</time>
      </trkpt>
      <trkpt lat="49.86223" lon="4.76196">
        <ele>154</ele>
        <time>2022-06-06T08:22:52.000Z</time>
      </trkpt>
      <trkpt lat="49.86227" lon="4.76193">
        <ele>154</ele>
        <time>2022-06-06T08:22:53.000Z</time>
      </trkpt>
      <trkpt lat="49.86231" lon="4.7619">
        <ele>154</ele>
        <time>2022-06-06T08:22:54.000Z</time>
      </trkpt>
      <trkpt lat="49.86234" lon="4.76186">
        <ele>154</ele>
        <time>2022-06-06T08:22:55.000Z</time>
      </trkpt>
      <trkpt lat="49.86238" lon="4.76183">
        <ele>154</ele>
        <time>2022-06-06T08:22:56.000Z</time>
      </trkpt>
      <trkpt lat="49.86241" lon="4.7618">
        <ele>155</ele>
        <time>2022-06-06T08:22:57.000Z</time>
      </trkpt>
      <trkpt lat="49.86244" lon="4.76176">
        <ele>155</ele>
        <time>2022-06-06T08:22:58.000Z</time>
      </trkpt>
      <trkpt lat="49.86248" lon="4.76173">
        <ele>155</ele>
        <time>2022-06-06T08:22:59.000Z</time>
      </trkpt>
      <trkpt lat="49.86251" lon="4.76171">
        <ele>155</ele>
        <time>2022-06-06T08:23:00.000Z</time>
      </trkpt>
      <trkpt lat="49.86254" lon="4.76167">
        <ele>155</ele>
        <time>2022-06-06T08:23:01.000Z</time>
      </trkpt>
      <trkpt lat="49.86257" lon="4.76164">
        <ele>155</ele>
        <time>2022-06-06T08:23:02.000Z</time>
      </trkpt>
      <trkpt lat="49.86259" lon="4.76162">
        <ele>156</ele>
        <time>2022-06-06T08:23:03.000Z</time>
      </trkpt>
      <trkpt lat="49.86262" lon="4.76159">
        <ele>156</ele>
        <time>2022-06-06T08:23:04.000Z</time>
      </trkpt>
      <trkpt lat="49.86264" lon="4.76156">
        <ele>156</ele>
        <time>2022-06-06T08:23:05.000Z</time>
      </trkpt>
      <trkpt lat="49.86266" lon="4.76152">
        <ele>156</ele>
        <time>2022-06-06T08:23:06.000Z</time>
      </trkpt>
      <trkpt lat="49.86269" lon="4.76149">
        <ele>156</ele>
        <time>2022-06-06T08:23:07.000Z</time>
      </trkpt>
      <trkpt lat="49.86271" lon="4.76147">
        <ele>156</ele>
        <time>2022-06-06T08:23:08.000Z</time>
      </trkpt>
      <trkpt lat="49.86274" lon="4.76145">
        <ele>157</ele>
        <time>2022-06-06T08:23:09.000Z</time>
      </trkpt>
      <trkpt lat="49.86276" lon="4.76144">
        <ele>157</ele>
        <time>2022-06-06T08:23:10.000Z</time>
      </trkpt>
      <trkpt lat="49.86278" lon="4.76142">
        <ele>157</ele>
        <time>2022-06-06T08:23:11.000Z</time>
      </trkpt>
      <trkpt lat="49.8628" lon="4.76139">
        <ele>157</ele>
        <time>2022-06-06T08:23:12.000Z</time>
      </trkpt>
      <trkpt lat="49.86282" lon="4.76136">
        <ele>157</ele>
        <time>2022-06-06T08:23:13.000Z</time>
      </trkpt>
      <trkpt lat="49.86284" lon="4.76132">
        <ele>158</ele>
        <time>2022-06-06T08:23:14.000Z</time>
      </trkpt>
      <trkpt lat="49.86287" lon="4.7613">
        <ele>158</ele>
        <time>2022-06-06T08:23:15.000Z</time>
      </trkpt>
      <trkpt lat="49.86289" lon="4.76127">
        <ele>158</ele>
        <time>2022-06-06T08:23:16.000Z</time>
      </trkpt>
      <trkpt lat="49.86291" lon="4.76124">
        <ele>158</ele>
        <time>2022-06-06T08:23:17.000Z</time>
      </trkpt>
      <trkpt lat="49.86294" lon="4.76122">
        <ele>159</ele>
        <time>2022-06-06T08:23:18.000Z</time>
      </trkpt>
      <trkpt lat="49.86296" lon="4.76119">
        <ele>159</ele>
        <time>2022-06-06T08:23:19.000Z</time>
      </trkpt>
      <trkpt lat="49.86298" lon="4.76117">
        <ele>159</ele>
        <time>2022-06-06T08:23:20.000Z</time>
      </trkpt>
      <trkpt lat="49.863" lon="4.76114">
        <ele>159</ele>
        <time>2022-06-06T08:23:21.000Z</time>
      </trkpt>
      <trkpt lat="49.86303" lon="4.76111">
        <ele>160</ele>
        <time>2022-06-06T08:23:22.000Z</time>
      </trkpt>
      <trkpt lat="49.86305" lon="4.76109">
        <ele>160</ele>
        <time>2022-06-06T08:23:23.000Z</time>
      </trkpt>
      <trkpt lat="49.86307" lon="4.76106">
        <ele>160</ele>
        <time>2022-06-06T08:23:24.000Z</time>
      </trkpt>
      <trkpt lat="49.8631" lon="4.76104">
        <ele>160</ele>
        <time>2022-06-06T08:23:25.000Z</time>
      </trkpt>
      <trkpt lat="49.86312" lon="4.76102">
        <ele>160</ele>
        <time>2022-06-06T08:23:26.000Z</time>
      </trkpt>
      <trkpt lat="49.86314" lon="4.76099">
        <ele>161</ele>
        <time>2022-06-06T08:23:27.000Z</time>
      </trkpt>
      <trkpt lat="49.86316" lon="4.76096">
        <ele>161</ele>
        <time>2022-06-06T08:23:28.000Z</time>
      </trkpt>
      <trkpt lat="49.86318" lon="4.76094">
        <ele>161</ele>
        <time>2022-06-06T08:23:29.000Z</time>
      </trkpt>
      <trkpt lat="49.86321" lon="4.76092">
        <ele>161</ele>
        <time>2022-06-06T08:23:30.000Z</time>
      </trkpt>
      <trkpt lat="49.86323" lon="4.76089">
        <ele>162</ele>
        <time>2022-06-06T08:23:31.000Z</time>
      </trkpt>
      <trkpt lat="49.86325" lon="4.76087">
        <ele>162</ele>
        <time>2022-06-06T08:23:32.000Z</time>
      </trkpt>
      <trkpt lat="49.86327" lon="4.76085">
        <ele>162</ele>
        <time>2022-06-06T08:23:33.000Z</time>
      </trkpt>
      <trkpt lat="49.86329" lon="4.76083">
        <ele>162</ele>
        <time>2022-06-06T08:23:34.000Z</time>
      </trkpt>
      <trkpt lat="49.86332" lon="4.7608">
        <ele>163</ele>
        <time>2022-06-06T08:23:35.000Z</time>
      </trkpt>
      <trkpt lat="49.86334" lon="4.76078">
        <ele>163</ele>
        <time>2022-06-06T08:23:36.000Z</time>
      </trkpt>
      <trkpt lat="49.86336" lon="4.76075">
        <ele>163</ele>
        <time>2022-06-06T08:23:37.000Z</time>
      </trkpt>
      <trkpt lat="49.86338" lon="4.76073">
        <ele>164</ele>
        <time>2022-06-06T08:23:38.000Z</time>
      </trkpt>
      <trkpt lat="49.8634" lon="4.7607">
        <ele>164</ele>
        <time>2022-06-06T08:23:39.000Z</time>
      </trkpt>
      <trkpt lat="49.86342" lon="4.76068">
        <ele>164</ele>
        <time>2022-06-06T08:23:40.000Z</time>
      </trkpt>
      <trkpt lat="49.86344" lon="4.76065">
        <ele>165</ele>
        <time>2022-06-06T08:23:41.000Z</time>
      </trkpt>
      <trkpt lat="49.86346" lon="4.76063">
        <ele>165</ele>
        <time>2022-06-06T08:23:42.000Z</time>
      </trkpt>
      <trkpt lat="49.86348" lon="4.7606">
        <ele>165</ele>
        <time>2022-06-06T08:23:43.000Z</time>
      </trkpt>
      <trkpt lat="49.86349" lon="4.76057">
        <ele>166</ele>
        <time>2022-06-06T08:23:44.000Z</time>
      </trkpt>
      <trkpt lat="49.86351" lon="4.76054">
        <ele>166</ele>
        <time>2022-06-06T08:23:45.000Z</time>
      </trkpt>
      <trkpt lat="49.86353" lon="4.76051">
        <ele>166</ele>
        <time>2022-06-06T08:23:46.000Z</time>
      </trkpt>
      <trkpt lat="49.86354" lon="4.76048">
        <ele>166</ele>
        <time>2022-06-06T08:23:47.000Z</time>
      </trkpt>
      <trkpt lat="49.86356" lon="4.76046">
        <ele>167</ele>
        <time>2022-06-06T08:23:48.000Z</time>
      </trkpt>
      <trkpt lat="49.86358" lon="4.76043">
        <ele>167</ele>
        <time>2022-06-06T08:23:49.000Z</time>
      </trkpt>
      <trkpt lat="49.8636" lon="4.7604">
        <ele>167</ele>
        <time>2022-06-06T08:23:50.000Z</time>
      </trkpt>
      <trkpt lat="49.86361" lon="4.76037">
        <ele>167</ele>
        <time>2022-06-06T08:23:51.000Z</time>
      </trkpt>
      <trkpt lat="49.86363" lon="4.76035">
        <ele>168</ele>
        <time>2022-06-06T08:23:52.000Z</time>
      </trkpt>
      <trkpt lat="49.86365" lon="4.76032">
        <ele>168</ele>
        <time>2022-06-06T08:23:53.000Z</time>
      </trkpt>
      <trkpt lat="49.86366" lon="4.76029">
        <ele>168</ele>
        <time>2022-06-06T08:23:54.000Z</time>
      </trkpt>
      <trkpt lat="49.86368" lon="4.76026">
        <ele>168</ele>
        <time>2022-06-06T08:23:55.000Z</time>
      </trkpt>
      <trkpt lat="49.8637" lon="4.76023">
        <ele>168</ele>
        <time>2022-06-06T08:23:56.000Z</time>
      </trkpt>
      <trkpt lat="49.86372" lon="4.76021">
        <ele>169</ele>
        <time>2022-06-06T08:23:57.000Z</time>
      </trkpt>
      <trkpt lat="49.86373" lon="4.76018">
        <ele>169</ele>
        <time>2022-06-06T08:23:58.000Z</time>
      </trkpt>
      <trkpt lat="49.86375" lon="4.76014">
        <ele>169</ele>
        <time>2022-06-06T08:23:59.000Z</time>
      </trkpt>
      <trkpt lat="49.86376" lon="4.76011">
        <ele>169</ele>
        <time>2022-06-06T08:24:00.000Z</time>
      </trkpt>
      <trkpt lat="49.86378" lon="4.76008">
        <ele>170</ele>
        <time>2022-06-06T08:24:01.000Z</time>
      </trkpt>
      <trkpt lat="49.86379" lon="4.76005">
        <ele>170</ele>
        <time>2022-06-06T08:24:02.000Z</time>
      </trkpt>
      <trkpt lat="49.86381" lon="4.76002">
        <ele>170</ele>
        <time>2022-06-06T08:24:03.000Z</time>
      </trkpt>
      <trkpt lat="49.86383" lon="4.76">
        <ele>170</ele>
        <time>2022-06-06T08:24:04.000Z</time>
      </trkpt>
      <trkpt lat="49.86384" lon="4.75997">
        <ele>171</ele>
        <time>2022-06-06T08:24:05.000Z</time>
      </trkpt>
      <trkpt lat="49.86386" lon="4.75994">
        <ele>171</ele>
        <time>2022-06-06T08:24:06.000Z</time>
      </trkpt>
      <trkpt lat="49.86387" lon="4.75991">
        <ele>171</ele>
        <time>2022-06-06T08:24:07.000Z</time>
      </trkpt>
      <trkpt lat="49.86389" lon="4.75988">
        <ele>172</ele>
        <time>2022-06-06T08:24:08.000Z</time>
      </trkpt>
      <trkpt lat="49.8639" lon="4.75985">
        <ele>172</ele>
        <time>2022-06-06T08:24:09.000Z</time>
      </trkpt>
      <trkpt lat="49.86392" lon="4.75982">
        <ele>172</ele>
        <time>2022-06-06T08:24:10.000Z</time>
      </trkpt>
      <trkpt lat="49.86394" lon="4.75979">
        <ele>173</ele>
        <time>2022-06-06T08:24:11.000Z</time>
      </trkpt>
      <trkpt lat="49.86396" lon="4.75976">
        <ele>173</ele>
        <time>2022-06-06T08:24:12.000Z</time>
      </trkpt>
      <trkpt lat="49.86397" lon="4.75974">
        <ele>174</ele>
        <time>2022-06-06T08:24:13.000Z</time>
      </trkpt>
      <trkpt lat="49.86399" lon="4.75971">
        <ele>174</ele>
        <time>2022-06-06T08:24:14.000Z</time>
      </trkpt>
      <trkpt lat="49.86401" lon="4.75969">
        <ele>174</ele>
        <time>2022-06-06T08:24:15.000Z</time>
      </trkpt>
      <trkpt lat="49.86403" lon="4.75966">
        <ele>175</ele>
        <time>2022-06-06T08:24:16.000Z</time>
      </trkpt>
      <trkpt lat="49.86405" lon="4.75964">
        <ele>175</ele>
        <time>2022-06-06T08:24:17.000Z</time>
      </trkpt>
      <trkpt lat="49.86407" lon="4.75961">
        <ele>176</ele>
        <time>2022-06-06T08:24:18.000Z</time>
      </trkpt>
      <trkpt lat="49.86408" lon="4.75959">
        <ele>176</ele>
        <time>2022-06-06T08:24:19.000Z</time>
      </trkpt>
      <trkpt lat="49.8641" lon="4.75956">
        <ele>176</ele>
        <time>2022-06-06T08:24:20.000Z</time>
      </trkpt>
      <trkpt lat="49.86412" lon="4.75954">
        <ele>177</ele>
        <time>2022-06-06T08:24:21.000Z</time>
      </trkpt>
      <trkpt lat="49.86414" lon="4.75952">
        <ele>177</ele>
        <time>2022-06-06T08:24:22.000Z</time>
      </trkpt>
      <trkpt lat="49.86416" lon="4.7595">
        <ele>178</ele>
        <time>2022-06-06T08:24:23.000Z</time>
      </trkpt>
      <trkpt lat="49.86418" lon="4.75947">
        <ele>178</ele>
        <time>2022-06-06T08:24:24.000Z</time>
      </trkpt>
      <trkpt lat="49.8642" lon="4.75945">
        <ele>178</ele>
        <time>2022-06-06T08:24:25.000Z</time>
      </trkpt>
      <trkpt lat="49.86422" lon="4.75943">
        <ele>179</ele>
        <time>2022-06-06T08:24:26.000Z</time>
      </trkpt>
      <trkpt lat="49.86424" lon="4.75941">
        <ele>179</ele>
        <time>2022-06-06T08:24:27.000Z</time>
      </trkpt>
      <trkpt lat="49.86426" lon="4.7594">
        <ele>180</ele>
        <time>2022-06-06T08:24:28.000Z</time>
      </trkpt>
      <trkpt lat="49.86428" lon="4.75939">
        <ele>180</ele>
        <time>2022-06-06T08:24:29.000Z</time>
      </trkpt>
      <trkpt lat="49.86431" lon="4.75938">
        <ele>180</ele>
        <time>2022-06-06T08:24:30.000Z</time>
      </trkpt>
      <trkpt lat="49.86433" lon="4.75938">
        <ele>181</ele>
        <time>2022-06-06T08:24:31.000Z</time>
      </trkpt>
      <trkpt lat="49.86435" lon="4.75939">
        <ele>181</ele>
        <time>2022-06-06T08:24:32.000Z</time>
      </trkpt>
      <trkpt lat="49.86437" lon="4.7594">
        <ele>182</ele>
        <time>2022-06-06T08:24:33.000Z</time>
      </trkpt>
      <trkpt lat="49.86439" lon="4.75941">
        <ele>182</ele>
        <time>2022-06-06T08:24:34.000Z</time>
      </trkpt>
      <trkpt lat="49.86441" lon="4.75942">
        <ele>182</ele>
        <time>2022-06-06T08:24:35.000Z</time>
      </trkpt>
      <trkpt lat="49.86442" lon="4.75943">
        <ele>182</ele>
        <time>2022-06-06T08:24:36.000Z</time>
      </trkpt>
      <trkpt lat="49.86444" lon="4.75945">
        <ele>183</ele>
        <time>2022-06-06T08:24:37.000Z</time>
      </trkpt>
      <trkpt lat="49.86445" lon="4.75946">
        <ele>183</ele>
        <time>2022-06-06T08:24:38.000Z</time>
      </trkpt>
      <trkpt lat="49.86447" lon="4.75948">
        <ele>183</ele>
        <time>2022-06-06T08:24:39.000Z</time>
      </trkpt>
      <trkpt lat="49.86449" lon="4.7595">
        <ele>183</ele>
        <time>2022-06-06T08:24:40.000Z</time>
      </trkpt>
      <trkpt lat="49.8645" lon="4.75951">
        <ele>183</ele>
        <time>2022-06-06T08:24:41.000Z</time>
      </trkpt>
      <trkpt lat="49.86452" lon="4.75953">
        <ele>184</ele>
        <time>2022-06-06T08:24:42.000Z</time>
      </trkpt>
      <trkpt lat="49.86453" lon="4.75954">
        <ele>184</ele>
        <time>2022-06-06T08:24:43.000Z</time>
      </trkpt>
      <trkpt lat="49.86455" lon="4.75956">
        <ele>184</ele>
        <time>2022-06-06T08:24:44.000Z</time>
      </trkpt>
      <trkpt lat="49.86456" lon="4.75958">
        <ele>184</ele>
        <time>2022-06-06T08:24:45.000Z</time>
      </trkpt>
      <trkpt lat="49.86457" lon="4.7596">
        <ele>185</ele>
        <time>2022-06-06T08:24:46.000Z</time>
      </trkpt>
      <trkpt lat="49.86459" lon="4.75962">
        <ele>185</ele>
        <time>2022-06-06T08:24:47.000Z</time>
      </trkpt>
      <trkpt lat="49.8646" lon="4.75964">
        <ele>185</ele>
        <time>2022-06-06T08:24:48.000Z</time>
      </trkpt>
      <trkpt lat="49.86461" lon="4.75966">
        <ele>185</ele>
        <time>2022-06-06T08:24:49.000Z</time>
      </trkpt>
      <trkpt lat="49.86463" lon="4.75968">
        <ele>185</ele>
        <time>2022-06-06T08:24:50.000Z</time>
      </trkpt>
      <trkpt lat="49.86464" lon="4.7597">
        <ele>186</ele>
        <time>2022-06-06T08:24:51.000Z</time>
      </trkpt>
      <trkpt lat="49.86466" lon="4.75972">
        <ele>186</ele>
        <time>2022-06-06T08:24:52.000Z</time>
      </trkpt>
      <trkpt lat="49.86468" lon="4.75974">
        <ele>186</ele>
        <time>2022-06-06T08:24:53.000Z</time>
      </trkpt>
      <trkpt lat="49.86469" lon="4.75976">
        <ele>186</ele>
        <time>2022-06-06T08:24:54.000Z</time>
      </trkpt>
      <trkpt lat="49.86471" lon="4.75979">
        <ele>187</ele>
        <time>2022-06-06T08:24:55.000Z</time>
      </trkpt>
      <trkpt lat="49.86472" lon="4.75981">
        <ele>187</ele>
        <time>2022-06-06T08:24:56.000Z</time>
      </trkpt>
      <trkpt lat="49.86474" lon="4.75984">
        <ele>187</ele>
        <time>2022-06-06T08:24:57.000Z</time>
      </trkpt>
      <trkpt lat="49.86475" lon="4.75986">
        <ele>188</ele>
        <time>2022-06-06T08:24:58.000Z</time>
      </trkpt>
      <trkpt lat="49.86477" lon="4.75988">
        <ele>188</ele>
        <time>2022-06-06T08:24:59.000Z</time>
      </trkpt>
      <trkpt lat="49.86478" lon="4.75991">
        <ele>189</ele>
        <time>2022-06-06T08:25:00.000Z</time>
      </trkpt>
      <trkpt lat="49.8648" lon="4.75993">
        <ele>189</ele>
        <time>2022-06-06T08:25:01.000Z</time>
      </trkpt>
      <trkpt lat="49.86481" lon="4.75996">
        <ele>189</ele>
        <time>2022-06-06T08:25:02.000Z</time>
      </trkpt>
      <trkpt lat="49.86483" lon="4.75998">
        <ele>190</ele>
        <time>2022-06-06T08:25:03.000Z</time>
      </trkpt>
      <trkpt lat="49.86485" lon="4.76">
        <ele>190</ele>
        <time>2022-06-06T08:25:04.000Z</time>
      </trkpt>
      <trkpt lat="49.86486" lon="4.76003">
        <ele>190</ele>
        <time>2022-06-06T08:25:05.000Z</time>
      </trkpt>
      <trkpt lat="49.86488" lon="4.76005">
        <ele>191</ele>
        <time>2022-06-06T08:25:06.000Z</time>
      </trkpt>
      <trkpt lat="49.86489" lon="4.76007">
        <ele>191</ele>
        <time>2022-06-06T08:25:07.000Z</time>
      </trkpt>
      <trkpt lat="49.86491" lon="4.76009">
        <ele>192</ele>
        <time>2022-06-06T08:25:08.000Z</time>
      </trkpt>
      <trkpt lat="49.86493" lon="4.76011">
        <ele>192</ele>
        <time>2022-06-06T08:25:09.000Z</time>
      </trkpt>
      <trkpt lat="49.86494" lon="4.76014">
        <ele>192</ele>
        <time>2022-06-06T08:25:10.000Z</time>
      </trkpt>
      <trkpt lat="49.86496" lon="4.76016">
        <ele>193</ele>
        <time>2022-06-06T08:25:11.000Z</time>
      </trkpt>
      <trkpt lat="49.86497" lon="4.76018">
        <ele>193</ele>
        <time>2022-06-06T08:25:12.000Z</time>
      </trkpt>
      <trkpt lat="49.86499" lon="4.76021">
        <ele>193</ele>
        <time>2022-06-06T08:25:13.000Z</time>
      </trkpt>
      <trkpt lat="49.86501" lon="4.76023">
        <ele>194</ele>
        <time>2022-06-06T08:25:14.000Z</time>
      </trkpt>
      <trkpt lat="49.86503" lon="4.76026">
        <ele>194</ele>
        <time>2022-06-06T08:25:15.000Z</time>
      </trkpt>
      <trkpt lat="49.86504" lon="4.76028">
        <ele>194</ele>
        <time>2022-06-06T08:25:16.000Z</time>
      </trkpt>
      <trkpt lat="49.86506" lon="4.76031">
        <ele>194</ele>
        <time>2022-06-06T08:25:17.000Z</time>
      </trkpt>
      <trkpt lat="49.86507" lon="4.76033">
        <ele>195</ele>
        <time>2022-06-06T08:25:18.000Z</time>
      </trkpt>
      <trkpt lat="49.86509" lon="4.76035">
        <ele>195</ele>
        <time>2022-06-06T08:25:19.000Z</time>
      </trkpt>
      <trkpt lat="49.86511" lon="4.76038">
        <ele>195</ele>
        <time>2022-06-06T08:25:20.000Z</time>
      </trkpt>
      <trkpt lat="49.86513" lon="4.7604">
        <ele>196</ele>
        <time>2022-06-06T08:25:21.000Z</time>
      </trkpt>
      <trkpt lat="49.86514" lon="4.76042">
        <ele>196</ele>
        <time>2022-06-06T08:25:22.000Z</time>
      </trkpt>
      <trkpt lat="49.86516" lon="4.76045">
        <ele>196</ele>
        <time>2022-06-06T08:25:23.000Z</time>
      </trkpt>
      <trkpt lat="49.86517" lon="4.76047">
        <ele>196</ele>
        <time>2022-06-06T08:25:24.000Z</time>
      </trkpt>
      <trkpt lat="49.86519" lon="4.7605">
        <ele>197</ele>
        <time>2022-06-06T08:25:25.000Z</time>
      </trkpt>
      <trkpt lat="49.8652" lon="4.76052">
        <ele>197</ele>
        <time>2022-06-06T08:25:26.000Z</time>
      </trkpt>
      <trkpt lat="49.86522" lon="4.76054">
        <ele>197</ele>
        <time>2022-06-06T08:25:27.000Z</time>
      </trkpt>
      <trkpt lat="49.86523" lon="4.76056">
        <ele>197</ele>
        <time>2022-06-06T08:25:28.000Z</time>
      </trkpt>
      <trkpt lat="49.86525" lon="4.76059">
        <ele>198</ele>
        <time>2022-06-06T08:25:29.000Z</time>
      </trkpt>
      <trkpt lat="49.86526" lon="4.76061">
        <ele>198</ele>
        <time>2022-06-06T08:25:30.000Z</time>
      </trkpt>
      <trkpt lat="49.86528" lon="4.76063">
        <ele>198</ele>
        <time>2022-06-06T08:25:31.000Z</time>
      </trkpt>
      <trkpt lat="49.8653" lon="4.76065">
        <ele>199</ele>
        <time>2022-06-06T08:25:32.000Z</time>
      </trkpt>
      <trkpt lat="49.86531" lon="4.76067">
        <ele>199</ele>
        <time>2022-06-06T08:25:33.000Z</time>
      </trkpt>
      <trkpt lat="49.86533" lon="4.76069">
        <ele>199</ele>
        <time>2022-06-06T08:25:34.000Z</time>
      </trkpt>
      <trkpt lat="49.86534" lon="4.76071">
        <ele>199</ele>
        <time>2022-06-06T08:25:35.000Z</time>
      </trkpt>
      <trkpt lat="49.86536" lon="4.76074">
        <ele>199</ele>
        <time>2022-06-06T08:25:36.000Z</time>
      </trkpt>
      <trkpt lat="49.86537" lon="4.76077">
        <ele>200</ele>
        <time>2022-06-06T08:25:37.000Z</time>
      </trkpt>
      <trkpt lat="49.86539" lon="4.76079">
        <ele>200</ele>
        <time>2022-06-06T08:25:38.000Z</time>
      </trkpt>
      <trkpt lat="49.8654" lon="4.76081">
        <ele>200</ele>
        <time>2022-06-06T08:25:39.000Z</time>
      </trkpt>
      <trkpt lat="49.86542" lon="4.76084">
        <ele>200</ele>
        <time>2022-06-06T08:25:40.000Z</time>
      </trkpt>
      <trkpt lat="49.86543" lon="4.76086">
        <ele>200</ele>
        <time>2022-06-06T08:25:41.000Z</time>
      </trkpt>
      <trkpt lat="49.86545" lon="4.76088">
        <ele>201</ele>
        <time>2022-06-06T08:25:42.000Z</time>
      </trkpt>
      <trkpt lat="49.86547" lon="4.7609">
        <ele>201</ele>
        <time>2022-06-06T08:25:43.000Z</time>
      </trkpt>
      <trkpt lat="49.86549" lon="4.76092">
        <ele>201</ele>
        <time>2022-06-06T08:25:44.000Z</time>
      </trkpt>
      <trkpt lat="49.8655" lon="4.76094">
        <ele>201</ele>
        <time>2022-06-06T08:25:45.000Z</time>
      </trkpt>
      <trkpt lat="49.86552" lon="4.76097">
        <ele>201</ele>
        <time>2022-06-06T08:25:46.000Z</time>
      </trkpt>
      <trkpt lat="49.86554" lon="4.76099">
        <ele>201</ele>
        <time>2022-06-06T08:25:47.000Z</time>
      </trkpt>
      <trkpt lat="49.86555" lon="4.76101">
        <ele>202</ele>
        <time>2022-06-06T08:25:48.000Z</time>
      </trkpt>
      <trkpt lat="49.86557" lon="4.76103">
        <ele>202</ele>
        <time>2022-06-06T08:25:49.000Z</time>
      </trkpt>
      <trkpt lat="49.86558" lon="4.76106">
        <ele>202</ele>
        <time>2022-06-06T08:25:50.000Z</time>
      </trkpt>
      <trkpt lat="49.8656" lon="4.76108">
        <ele>202</ele>
        <time>2022-06-06T08:25:51.000Z</time>
      </trkpt>
      <trkpt lat="49.86562" lon="4.7611">
        <ele>202</ele>
        <time>2022-06-06T08:25:52.000Z</time>
      </trkpt>
      <trkpt lat="49.86563" lon="4.76112">
        <ele>202</ele>
        <time>2022-06-06T08:25:53.000Z</time>
      </trkpt>
      <trkpt lat="49.86565" lon="4.76115">
        <ele>203</ele>
        <time>2022-06-06T08:25:54.000Z</time>
      </trkpt>
      <trkpt lat="49.86566" lon="4.76117">
        <ele>203</ele>
        <time>2022-06-06T08:25:55.000Z</time>
      </trkpt>
      <trkpt lat="49.86567" lon="4.7612">
        <ele>203</ele>
        <time>2022-06-06T08:25:56.000Z</time>
      </trkpt>
      <trkpt lat="49.86569" lon="4.76122">
        <ele>204</ele>
        <time>2022-06-06T08:25:57.000Z</time>
      </trkpt>
      <trkpt lat="49.86571" lon="4.76124">
        <ele>204</ele>
        <time>2022-06-06T08:25:58.000Z</time>
      </trkpt>
      <trkpt lat="49.86572" lon="4.76126">
        <ele>204</ele>
        <time>2022-06-06T08:25:59.000Z</time>
      </trkpt>
      <trkpt lat="49.86574" lon="4.76128">
        <ele>204</ele>
        <time>2022-06-06T08:26:00.000Z</time>
      </trkpt>
      <trkpt lat="49.86575" lon="4.76131">
        <ele>205</ele>
        <time>2022-06-06T08:26:01.000Z</time>
      </trkpt>
      <trkpt lat="49.86577" lon="4.76132">
        <ele>205</ele>
        <time>2022-06-06T08:26:02.000Z</time>
      </trkpt>
      <trkpt lat="49.86579" lon="4.76134">
        <ele>205</ele>
        <time>2022-06-06T08:26:03.000Z</time>
      </trkpt>
      <trkpt lat="49.86581" lon="4.76135">
        <ele>206</ele>
        <time>2022-06-06T08:26:04.000Z</time>
      </trkpt>
      <trkpt lat="49.86582" lon="4.76138">
        <ele>206</ele>
        <time>2022-06-06T08:26:05.000Z</time>
      </trkpt>
      <trkpt lat="49.86584" lon="4.76139">
        <ele>206</ele>
        <time>2022-06-06T08:26:06.000Z</time>
      </trkpt>
      <trkpt lat="49.86586" lon="4.76141">
        <ele>206</ele>
        <time>2022-06-06T08:26:07.000Z</time>
      </trkpt>
      <trkpt lat="49.86588" lon="4.76142">
        <ele>207</ele>
        <time>2022-06-06T08:26:08.000Z</time>
      </trkpt>
      <trkpt lat="49.8659" lon="4.76144">
        <ele>207</ele>
        <time>2022-06-06T08:26:09.000Z</time>
      </trkpt>
      <trkpt lat="49.86591" lon="4.76145">
        <ele>207</ele>
        <time>2022-06-06T08:26:10.000Z</time>
      </trkpt>
      <trkpt lat="49.86593" lon="4.76147">
        <ele>208</ele>
        <time>2022-06-06T08:26:11.000Z</time>
      </trkpt>
      <trkpt lat="49.86595" lon="4.76148">
        <ele>208</ele>
        <time>2022-06-06T08:26:12.000Z</time>
      </trkpt>
      <trkpt lat="49.86597" lon="4.7615">
        <ele>208</ele>
        <time>2022-06-06T08:26:13.000Z</time>
      </trkpt>
      <trkpt lat="49.86599" lon="4.76152">
        <ele>208</ele>
        <time>2022-06-06T08:26:14.000Z</time>
      </trkpt>
      <trkpt lat="49.86601" lon="4.76153">
        <ele>208</ele>
        <time>2022-06-06T08:26:15.000Z</time>
      </trkpt>
      <trkpt lat="49.86602" lon="4.76155">
        <ele>209</ele>
        <time>2022-06-06T08:26:16.000Z</time>
      </trkpt>
      <trkpt lat="49.86604" lon="4.76157">
        <ele>209</ele>
        <time>2022-06-06T08:26:17.000Z</time>
      </trkpt>
      <trkpt lat="49.86606" lon="4.76158">
        <ele>209</ele>
        <time>2022-06-06T08:26:18.000Z</time>
      </trkpt>
      <trkpt lat="49.86608" lon="4.76159">
        <ele>210</ele>
        <time>2022-06-06T08:26:19.000Z</time>
      </trkpt>
      <trkpt lat="49.8661" lon="4.76159">
        <ele>210</ele>
        <time>2022-06-06T08:26:20.000Z</time>
      </trkpt>
      <trkpt lat="49.86611" lon="4.76159">
        <ele>210</ele>
        <time>2022-06-06T08:26:21.000Z</time>
      </trkpt>
      <trkpt lat="49.86612" lon="4.76158">
        <ele>211</ele>
        <time>2022-06-06T08:26:22.000Z</time>
      </trkpt>
      <trkpt lat="49.86614" lon="4.76157">
        <ele>211</ele>
        <time>2022-06-06T08:26:23.000Z</time>
      </trkpt>
      <trkpt lat="49.86614" lon="4.76155">
        <ele>212</ele>
        <time>2022-06-06T08:26:24.000Z</time>
      </trkpt>
      <trkpt lat="49.86615" lon="4.76153">
        <ele>212</ele>
        <time>2022-06-06T08:26:25.000Z</time>
      </trkpt>
      <trkpt lat="49.86615" lon="4.76151">
        <ele>212</ele>
        <time>2022-06-06T08:26:26.000Z</time>
      </trkpt>
      <trkpt lat="49.86615" lon="4.76149">
        <ele>213</ele>
        <time>2022-06-06T08:26:27.000Z</time>
      </trkpt>
      <trkpt lat="49.86615" lon="4.76147">
        <ele>213</ele>
        <time>2022-06-06T08:26:28.000Z</time>
      </trkpt>
      <trkpt lat="49.86615" lon="4.76144">
        <ele>214</ele>
        <time>2022-06-06T08:26:29.000Z</time>
      </trkpt>
      <trkpt lat="49.86614" lon="4.7614">
        <ele>214</ele>
        <time>2022-06-06T08:26:30.000Z</time>
      </trkpt>
      <trkpt lat="49.86613" lon="4.76137">
        <ele>214</ele>
        <time>2022-06-06T08:26:31.000Z</time>
      </trkpt>
      <trkpt lat="49.86613" lon="4.76133">
        <ele>215</ele>
        <time>2022-06-06T08:26:32.000Z</time>
      </trkpt>
      <trkpt lat="49.86612" lon="4.76129">
        <ele>215</ele>
        <time>2022-06-06T08:26:33.000Z</time>
      </trkpt>
      <trkpt lat="49.86611" lon="4.76124">
        <ele>216</ele>
        <time>2022-06-06T08:26:34.000Z</time>
      </trkpt>
      <trkpt lat="49.86611" lon="4.7612">
        <ele>216</ele>
        <time>2022-06-06T08:26:35.000Z</time>
      </trkpt>
      <trkpt lat="49.8661" lon="4.76116">
        <ele>216</ele>
        <time>2022-06-06T08:26:36.000Z</time>
      </trkpt>
      <trkpt lat="49.8661" lon="4.76111">
        <ele>217</ele>
        <time>2022-06-06T08:26:37.000Z</time>
      </trkpt>
      <trkpt lat="49.86609" lon="4.76106">
        <ele>217</ele>
        <time>2022-06-06T08:26:38.000Z</time>
      </trkpt>
      <trkpt lat="49.86609" lon="4.76102">
        <ele>217</ele>
        <time>2022-06-06T08:26:39.000Z</time>
      </trkpt>
      <trkpt lat="49.86608" lon="4.76096">
        <ele>217</ele>
        <time>2022-06-06T08:26:40.000Z</time>
      </trkpt>
      <trkpt lat="49.86608" lon="4.76091">
        <ele>218</ele>
        <time>2022-06-06T08:26:41.000Z</time>
      </trkpt>
      <trkpt lat="49.86607" lon="4.76086">
        <ele>218</ele>
        <time>2022-06-06T08:26:42.000Z</time>
      </trkpt>
      <trkpt lat="49.86607" lon="4.76081">
        <ele>218</ele>
        <time>2022-06-06T08:26:43.000Z</time>
      </trkpt>
      <trkpt lat="49.86607" lon="4.76075">
        <ele>218</ele>
        <time>2022-06-06T08:26:44.000Z</time>
      </trkpt>
      <trkpt lat="49.86606" lon="4.7607">
        <ele>218</ele>
        <time>2022-06-06T08:26:45.000Z</time>
      </trkpt>
      <trkpt lat="49.86606" lon="4.76065">
        <ele>219</ele>
        <time>2022-06-06T08:26:46.000Z</time>
      </trkpt>
      <trkpt lat="49.86606" lon="4.76059">
        <ele>219</ele>
        <time>2022-06-06T08:26:47.000Z</time>
      </trkpt>
      <trkpt lat="49.86605" lon="4.76053">
        <ele>219</ele>
        <time>2022-06-06T08:26:48.000Z</time>
      </trkpt>
      <trkpt lat="49.86605" lon="4.76047">
        <ele>219</ele>
        <time>2022-06-06T08:26:49.000Z</time>
      </trkpt>
      <trkpt lat="49.86605" lon="4.76041">
        <ele>219</ele>
        <time>2022-06-06T08:26:50.000Z</time>
      </trkpt>
      <trkpt lat="49.86605" lon="4.76035">
        <ele>220</ele>
        <time>2022-06-06T08:26:51.000Z</time>
      </trkpt>
      <trkpt lat="49.86604" lon="4.7603">
        <ele>220</ele>
        <time>2022-06-06T08:26:52.000Z</time>
      </trkpt>
      <trkpt lat="49.86604" lon="4.76024">
        <ele>220</ele>
        <time>2022-06-06T08:26:53.000Z</time>
      </trkpt>
      <trkpt lat="49.86604" lon="4.76018">
        <ele>221</ele>
        <time>2022-06-06T08:26:54.000Z</time>
      </trkpt>
      <trkpt lat="49.86603" lon="4.76013">
        <ele>221</ele>
        <time>2022-06-06T08:26:55.000Z</time>
      </trkpt>
      <trkpt lat="49.86603" lon="4.76007">
        <ele>221</ele>
        <time>2022-06-06T08:26:56.000Z</time>
      </trkpt>
      <trkpt lat="49.86603" lon="4.76002">
        <ele>221</ele>
        <time>2022-06-06T08:26:57.000Z</time>
      </trkpt>
      <trkpt lat="49.86603" lon="4.75996">
        <ele>221</ele>
        <time>2022-06-06T08:26:58.000Z</time>
      </trkpt>
      <trkpt lat="49.86602" lon="4.7599">
        <ele>222</ele>
        <time>2022-06-06T08:26:59.000Z</time>
      </trkpt>
      <trkpt lat="49.86602" lon="4.75985">
        <ele>222</ele>
        <time>2022-06-06T08:27:00.000Z</time>
      </trkpt>
      <trkpt lat="49.86602" lon="4.75979">
        <ele>222</ele>
        <time>2022-06-06T08:27:01.000Z</time>
      </trkpt>
      <trkpt lat="49.86601" lon="4.75973">
        <ele>222</ele>
        <time>2022-06-06T08:27:02.000Z</time>
      </trkpt>
      <trkpt lat="49.86601" lon="4.75968">
        <ele>222</ele>
        <time>2022-06-06T08:27:03.000Z</time>
      </trkpt>
      <trkpt lat="49.866" lon="4.75962">
        <ele>223</ele>
        <time>2022-06-06T08:27:04.000Z</time>
      </trkpt>
      <trkpt lat="49.866" lon="4.75956">
        <ele>223</ele>
        <time>2022-06-06T08:27:05.000Z</time>
      </trkpt>
      <trkpt lat="49.866" lon="4.7595">
        <ele>223</ele>
        <time>2022-06-06T08:27:06.000Z</time>
      </trkpt>
      <trkpt lat="49.866" lon="4.75945">
        <ele>223</ele>
        <time>2022-06-06T08:27:07.000Z</time>
      </trkpt>
      <trkpt lat="49.86601" lon="4.75939">
        <ele>223</ele>
        <time>2022-06-06T08:27:08.000Z</time>
      </trkpt>
      <trkpt lat="49.86602" lon="4.75933">
        <ele>223</ele>
        <time>2022-06-06T08:27:09.000Z</time>
      </trkpt>
      <trkpt lat="49.86603" lon="4.75928">
        <ele>223</ele>
        <time>2022-06-06T08:27:10.000Z</time>
      </trkpt>
      <trkpt lat="49.86602" lon="4.75922">
        <ele>223</ele>
        <time>2022-06-06T08:27:11.000Z</time>
      </trkpt>
      <trkpt lat="49.86602" lon="4.75915">
        <ele>223</ele>
        <time>2022-06-06T08:27:12.000Z</time>
      </trkpt>
      <trkpt lat="49.86601" lon="4.75909">
        <ele>224</ele>
        <time>2022-06-06T08:27:13.000Z</time>
      </trkpt>
      <trkpt lat="49.86601" lon="4.75902">
        <ele>224</ele>
        <time>2022-06-06T08:27:14.000Z</time>
      </trkpt>
      <trkpt lat="49.866" lon="4.75896">
        <ele>224</ele>
        <time>2022-06-06T08:27:15.000Z</time>
      </trkpt>
      <trkpt lat="49.866" lon="4.7589">
        <ele>224</ele>
        <time>2022-06-06T08:27:16.000Z</time>
      </trkpt>
      <trkpt lat="49.86599" lon="4.75883">
        <ele>224</ele>
        <time>2022-06-06T08:27:17.000Z</time>
      </trkpt>
      <trkpt lat="49.86598" lon="4.75878">
        <ele>224</ele>
        <time>2022-06-06T08:27:18.000Z</time>
      </trkpt>
      <trkpt lat="49.86598" lon="4.75872">
        <ele>224</ele>
        <time>2022-06-06T08:27:19.000Z</time>
      </trkpt>
      <trkpt lat="49.86598" lon="4.75866">
        <ele>224</ele>
        <time>2022-06-06T08:27:20.000Z</time>
      </trkpt>
      <trkpt lat="49.86598" lon="4.7586">
        <ele>224</ele>
        <time>2022-06-06T08:27:21.000Z</time>
      </trkpt>
      <trkpt lat="49.86598" lon="4.75853">
        <ele>224</ele>
        <time>2022-06-06T08:27:22.000Z</time>
      </trkpt>
      <trkpt lat="49.86597" lon="4.75847">
        <ele>224</ele>
        <time>2022-06-06T08:27:23.000Z</time>
      </trkpt>
      <trkpt lat="49.86597" lon="4.75841">
        <ele>224</ele>
        <time>2022-06-06T08:27:24.000Z</time>
      </trkpt>
      <trkpt lat="49.86598" lon="4.75834">
        <ele>224</ele>
        <time>2022-06-06T08:27:25.000Z</time>
      </trkpt>
      <trkpt lat="49.86598" lon="4.75828">
        <ele>224</ele>
        <time>2022-06-06T08:27:26.000Z</time>
      </trkpt>
      <trkpt lat="49.86599" lon="4.75821">
        <ele>224</ele>
        <time>2022-06-06T08:27:27.000Z</time>
      </trkpt>
      <trkpt lat="49.86599" lon="4.75815">
        <ele>224</ele>
        <time>2022-06-06T08:27:28.000Z</time>
      </trkpt>
      <trkpt lat="49.86599" lon="4.75809">
        <ele>224</ele>
        <time>2022-06-06T08:27:29.000Z</time>
      </trkpt>
      <trkpt lat="49.86599" lon="4.75803">
        <ele>224</ele>
        <time>2022-06-06T08:27:30.000Z</time>
      </trkpt>
      <trkpt lat="49.86598" lon="4.75797">
        <ele>225</ele>
        <time>2022-06-06T08:27:31.000Z</time>
      </trkpt>
      <trkpt lat="49.86597" lon="4.75792">
        <ele>225</ele>
        <time>2022-06-06T08:27:32.000Z</time>
      </trkpt>
      <trkpt lat="49.86597" lon="4.75786">
        <ele>225</ele>
        <time>2022-06-06T08:27:33.000Z</time>
      </trkpt>
      <trkpt lat="49.86597" lon="4.7578">
        <ele>225</ele>
        <time>2022-06-06T08:27:34.000Z</time>
      </trkpt>
      <trkpt lat="49.86596" lon="4.75774">
        <ele>225</ele>
        <time>2022-06-06T08:27:35.000Z</time>
      </trkpt>
      <trkpt lat="49.86596" lon="4.75769">
        <ele>225</ele>
        <time>2022-06-06T08:27:36.000Z</time>
      </trkpt>
      <trkpt lat="49.86595" lon="4.75764">
        <ele>225</ele>
        <time>2022-06-06T08:27:37.000Z</time>
      </trkpt>
      <trkpt lat="49.86594" lon="4.75758">
        <ele>225</ele>
        <time>2022-06-06T08:27:38.000Z</time>
      </trkpt>
      <trkpt lat="49.86593" lon="4.75752">
        <ele>226</ele>
        <time>2022-06-06T08:27:39.000Z</time>
      </trkpt>
      <trkpt lat="49.86591" lon="4.75744">
        <ele>226</ele>
        <time>2022-06-06T08:27:40.000Z</time>
      </trkpt>
      <trkpt lat="49.86588" lon="4.75736">
        <ele>226</ele>
        <time>2022-06-06T08:27:41.000Z</time>
      </trkpt>
      <trkpt lat="49.86586" lon="4.75726">
        <ele>226</ele>
        <time>2022-06-06T08:27:42.000Z</time>
      </trkpt>
      <trkpt lat="49.86584" lon="4.75716">
        <ele>226</ele>
        <time>2022-06-06T08:27:43.000Z</time>
      </trkpt>
      <trkpt lat="49.86581" lon="4.75707">
        <ele>226</ele>
        <time>2022-06-06T08:27:44.000Z</time>
      </trkpt>
      <trkpt lat="49.86578" lon="4.75697">
        <ele>226</ele>
        <time>2022-06-06T08:27:45.000Z</time>
      </trkpt>
      <trkpt lat="49.86575" lon="4.75687">
        <ele>226</ele>
        <time>2022-06-06T08:27:46.000Z</time>
      </trkpt>
      <trkpt lat="49.86573" lon="4.75676">
        <ele>226</ele>
        <time>2022-06-06T08:27:47.000Z</time>
      </trkpt>
      <trkpt lat="49.86571" lon="4.75665">
        <ele>226</ele>
        <time>2022-06-06T08:27:48.000Z</time>
      </trkpt>
      <trkpt lat="49.8657" lon="4.75654">
        <ele>226</ele>
        <time>2022-06-06T08:27:49.000Z</time>
      </trkpt>
      <trkpt lat="49.86568" lon="4.75642">
        <ele>226</ele>
        <time>2022-06-06T08:27:50.000Z</time>
      </trkpt>
      <trkpt lat="49.86566" lon="4.75631">
        <ele>226</ele>
        <time>2022-06-06T08:27:51.000Z</time>
      </trkpt>
      <trkpt lat="49.86564" lon="4.75618">
        <ele>226</ele>
        <time>2022-06-06T08:27:52.000Z</time>
      </trkpt>
      <trkpt lat="49.86561" lon="4.75606">
        <ele>225</ele>
        <time>2022-06-06T08:27:53.000Z</time>
      </trkpt>
      <trkpt lat="49.86559" lon="4.75594">
        <ele>225</ele>
        <time>2022-06-06T08:27:54.000Z</time>
      </trkpt>
      <trkpt lat="49.86557" lon="4.75582">
        <ele>225</ele>
        <time>2022-06-06T08:27:55.000Z</time>
      </trkpt>
      <trkpt lat="49.86555" lon="4.75569">
        <ele>224</ele>
        <time>2022-06-06T08:27:56.000Z</time>
      </trkpt>
      <trkpt lat="49.86552" lon="4.75557">
        <ele>224</ele>
        <time>2022-06-06T08:27:57.000Z</time>
      </trkpt>
      <trkpt lat="49.86549" lon="4.75544">
        <ele>223</ele>
        <time>2022-06-06T08:27:58.000Z</time>
      </trkpt>
      <trkpt lat="49.86547" lon="4.75531">
        <ele>223</ele>
        <time>2022-06-06T08:27:59.000Z</time>
      </trkpt>
      <trkpt lat="49.86544" lon="4.75518">
        <ele>223</ele>
        <time>2022-06-06T08:28:00.000Z</time>
      </trkpt>
      <trkpt lat="49.86542" lon="4.75505">
        <ele>222</ele>
        <time>2022-06-06T08:28:01.000Z</time>
      </trkpt>
      <trkpt lat="49.8654" lon="4.75492">
        <ele>222</ele>
        <time>2022-06-06T08:28:02.000Z</time>
      </trkpt>
      <trkpt lat="49.86537" lon="4.75479">
        <ele>221</ele>
        <time>2022-06-06T08:28:03.000Z</time>
      </trkpt>
      <trkpt lat="49.86535" lon="4.75467">
        <ele>221</ele>
        <time>2022-06-06T08:28:04.000Z</time>
      </trkpt>
      <trkpt lat="49.86533" lon="4.75457">
        <ele>221</ele>
        <time>2022-06-06T08:28:05.000Z</time>
      </trkpt>
      <trkpt lat="49.86532" lon="4.75447">
        <ele>220</ele>
        <time>2022-06-06T08:28:06.000Z</time>
      </trkpt>
      <trkpt lat="49.86531" lon="4.75438">
        <ele>220</ele>
        <time>2022-06-06T08:28:07.000Z</time>
      </trkpt>
      <trkpt lat="49.8653" lon="4.75429">
        <ele>220</ele>
        <time>2022-06-06T08:28:08.000Z</time>
      </trkpt>
      <trkpt lat="49.86529" lon="4.7542">
        <ele>219</ele>
        <time>2022-06-06T08:28:09.000Z</time>
      </trkpt>
      <trkpt lat="49.86529" lon="4.75411">
        <ele>219</ele>
        <time>2022-06-06T08:28:10.000Z</time>
      </trkpt>
      <trkpt lat="49.86529" lon="4.75403">
        <ele>219</ele>
        <time>2022-06-06T08:28:11.000Z</time>
      </trkpt>
      <trkpt lat="49.86529" lon="4.75396">
        <ele>219</ele>
        <time>2022-06-06T08:28:12.000Z</time>
      </trkpt>
      <trkpt lat="49.8653" lon="4.75389">
        <ele>218</ele>
        <time>2022-06-06T08:28:13.000Z</time>
      </trkpt>
      <trkpt lat="49.8653" lon="4.75383">
        <ele>218</ele>
        <time>2022-06-06T08:28:14.000Z</time>
      </trkpt>
      <trkpt lat="49.86531" lon="4.75378">
        <ele>218</ele>
        <time>2022-06-06T08:28:15.000Z</time>
      </trkpt>
      <trkpt lat="49.86531" lon="4.75373">
        <ele>217</ele>
        <time>2022-06-06T08:28:16.000Z</time>
      </trkpt>
      <trkpt lat="49.86532" lon="4.75368">
        <ele>217</ele>
        <time>2022-06-06T08:28:17.000Z</time>
      </trkpt>
      <trkpt lat="49.86532" lon="4.75362">
        <ele>217</ele>
        <time>2022-06-06T08:28:18.000Z</time>
      </trkpt>
      <trkpt lat="49.86532" lon="4.75355">
        <ele>217</ele>
        <time>2022-06-06T08:28:19.000Z</time>
      </trkpt>
      <trkpt lat="49.86531" lon="4.7535">
        <ele>217</ele>
        <time>2022-06-06T08:28:20.000Z</time>
      </trkpt>
      <trkpt lat="49.86531" lon="4.75344">
        <ele>217</ele>
        <time>2022-06-06T08:28:21.000Z</time>
      </trkpt>
      <trkpt lat="49.86531" lon="4.7534">
        <ele>217</ele>
        <time>2022-06-06T08:28:22.000Z</time>
      </trkpt>
      <trkpt lat="49.86531" lon="4.75335">
        <ele>216</ele>
        <time>2022-06-06T08:28:23.000Z</time>
      </trkpt>
      <trkpt lat="49.86531" lon="4.75331">
        <ele>216</ele>
        <time>2022-06-06T08:28:24.000Z</time>
      </trkpt>
      <trkpt lat="49.86532" lon="4.75326">
        <ele>216</ele>
        <time>2022-06-06T08:28:25.000Z</time>
      </trkpt>
      <trkpt lat="49.86532" lon="4.75321">
        <ele>216</ele>
        <time>2022-06-06T08:28:26.000Z</time>
      </trkpt>
      <trkpt lat="49.86532" lon="4.75315">
        <ele>216</ele>
        <time>2022-06-06T08:28:27.000Z</time>
      </trkpt>
      <trkpt lat="49.86531" lon="4.75309">
        <ele>215</ele>
        <time>2022-06-06T08:28:28.000Z</time>
      </trkpt>
      <trkpt lat="49.8653" lon="4.75303">
        <ele>215</ele>
        <time>2022-06-06T08:28:29.000Z</time>
      </trkpt>
      <trkpt lat="49.86529" lon="4.75298">
        <ele>215</ele>
        <time>2022-06-06T08:28:30.000Z</time>
      </trkpt>
      <trkpt lat="49.86526" lon="4.75295">
        <ele>215</ele>
        <time>2022-06-06T08:28:31.000Z</time>
      </trkpt>
      <trkpt lat="49.86525" lon="4.75293">
        <ele>215</ele>
        <time>2022-06-06T08:28:32.000Z</time>
      </trkpt>
      <trkpt lat="49.86523" lon="4.75293">
        <ele>215</ele>
        <time>2022-06-06T08:28:33.000Z</time>
      </trkpt>
      <trkpt lat="49.86522" lon="4.75295">
        <ele>214</ele>
        <time>2022-06-06T08:28:34.000Z</time>
      </trkpt>
      <trkpt lat="49.86521" lon="4.75297">
        <ele>214</ele>
        <time>2022-06-06T08:28:35.000Z</time>
      </trkpt>
      <trkpt lat="49.86521" lon="4.75301">
        <ele>214</ele>
        <time>2022-06-06T08:28:36.000Z</time>
      </trkpt>
      <trkpt lat="49.86521" lon="4.75305">
        <ele>214</ele>
        <time>2022-06-06T08:28:37.000Z</time>
      </trkpt>
      <trkpt lat="49.86522" lon="4.7531">
        <ele>213</ele>
        <time>2022-06-06T08:28:38.000Z</time>
      </trkpt>
      <trkpt lat="49.86523" lon="4.75315">
        <ele>213</ele>
        <time>2022-06-06T08:28:39.000Z</time>
      </trkpt>
      <trkpt lat="49.86524" lon="4.75319">
        <ele>213</ele>
        <time>2022-06-06T08:28:40.000Z</time>
      </trkpt>
      <trkpt lat="49.86527" lon="4.75322">
        <ele>213</ele>
        <time>2022-06-06T08:28:41.000Z</time>
      </trkpt>
      <trkpt lat="49.86529" lon="4.75324">
        <ele>213</ele>
        <time>2022-06-06T08:28:42.000Z</time>
      </trkpt>
      <trkpt lat="49.86532" lon="4.75326">
        <ele>213</ele>
        <time>2022-06-06T08:28:43.000Z</time>
      </trkpt>
      <trkpt lat="49.86533" lon="4.7533">
        <ele>213</ele>
        <time>2022-06-06T08:28:44.000Z</time>
      </trkpt>
      <trkpt lat="49.86533" lon="4.75334">
        <ele>213</ele>
        <time>2022-06-06T08:28:45.000Z</time>
      </trkpt>
      <trkpt lat="49.86533" lon="4.75337">
        <ele>213</ele>
        <time>2022-06-06T08:28:46.000Z</time>
      </trkpt>
      <trkpt lat="49.86534" lon="4.75339">
        <ele>213</ele>
        <time>2022-06-06T08:28:47.000Z</time>
      </trkpt>
      <trkpt lat="49.86534" lon="4.75342">
        <ele>213</ele>
        <time>2022-06-06T08:28:48.000Z</time>
      </trkpt>
      <trkpt lat="49.86535" lon="4.75345">
        <ele>213</ele>
        <time>2022-06-06T08:28:49.000Z</time>
      </trkpt>
      <trkpt lat="49.86535" lon="4.75349">
        <ele>213</ele>
        <time>2022-06-06T08:28:50.000Z</time>
      </trkpt>
      <trkpt lat="49.86535" lon="4.75352">
        <ele>213</ele>
        <time>2022-06-06T08:28:51.000Z</time>
      </trkpt>
      <trkpt lat="49.86535" lon="4.75357">
        <ele>213</ele>
        <time>2022-06-06T08:28:52.000Z</time>
      </trkpt>
      <trkpt lat="49.86534" lon="4.75362">
        <ele>213</ele>
        <time>2022-06-06T08:28:53.000Z</time>
      </trkpt>
      <trkpt lat="49.86534" lon="4.75367">
        <ele>213</ele>
        <time>2022-06-06T08:28:54.000Z</time>
      </trkpt>
      <trkpt lat="49.86533" lon="4.75371">
        <ele>213</ele>
        <time>2022-06-06T08:28:55.000Z</time>
      </trkpt>
      <trkpt lat="49.86533" lon="4.75377">
        <ele>213</ele>
        <time>2022-06-06T08:28:56.000Z</time>
      </trkpt>
      <trkpt lat="49.86532" lon="4.75382">
        <ele>213</ele>
        <time>2022-06-06T08:28:57.000Z</time>
      </trkpt>
      <trkpt lat="49.86531" lon="4.75387">
        <ele>213</ele>
        <time>2022-06-06T08:28:58.000Z</time>
      </trkpt>
      <trkpt lat="49.86531" lon="4.75392">
        <ele>213</ele>
        <time>2022-06-06T08:28:59.000Z</time>
      </trkpt>
      <trkpt lat="49.86531" lon="4.75398">
        <ele>213</ele>
        <time>2022-06-06T08:29:00.000Z</time>
      </trkpt>
      <trkpt lat="49.86532" lon="4.75404">
        <ele>213</ele>
        <time>2022-06-06T08:29:01.000Z</time>
      </trkpt>
      <trkpt lat="49.86532" lon="4.75408">
        <ele>213</ele>
        <time>2022-06-06T08:29:02.000Z</time>
      </trkpt>
      <trkpt lat="49.86532" lon="4.75411">
        <ele>213</ele>
        <time>2022-06-06T08:29:03.000Z</time>
      </trkpt>
      <trkpt lat="49.86532" lon="4.75413">
        <ele>213</ele>
        <time>2022-06-06T08:29:04.000Z</time>
      </trkpt>
      <trkpt lat="49.86531" lon="4.75415">
        <ele>213</ele>
        <time>2022-06-06T08:29:05.000Z</time>
      </trkpt>
      <trkpt lat="49.8653" lon="4.75417">
        <ele>213</ele>
        <time>2022-06-06T08:29:06.000Z</time>
      </trkpt>
      <trkpt lat="49.86528" lon="4.75418">
        <ele>213</ele>
        <time>2022-06-06T08:29:07.000Z</time>
      </trkpt>
      <trkpt lat="49.86526" lon="4.75417">
        <ele>212</ele>
        <time>2022-06-06T08:29:08.000Z</time>
      </trkpt>
      <trkpt lat="49.86523" lon="4.75415">
        <ele>212</ele>
        <time>2022-06-06T08:29:09.000Z</time>
      </trkpt>
      <trkpt lat="49.8652" lon="4.75413">
        <ele>212</ele>
        <time>2022-06-06T08:29:10.000Z</time>
      </trkpt>
      <trkpt lat="49.86516" lon="4.75412">
        <ele>212</ele>
        <time>2022-06-06T08:29:11.000Z</time>
      </trkpt>
      <trkpt lat="49.86512" lon="4.7541">
        <ele>212</ele>
        <time>2022-06-06T08:29:12.000Z</time>
      </trkpt>
      <trkpt lat="49.86508" lon="4.75407">
        <ele>212</ele>
        <time>2022-06-06T08:29:13.000Z</time>
      </trkpt>
      <trkpt lat="49.86504" lon="4.75403">
        <ele>212</ele>
        <time>2022-06-06T08:29:14.000Z</time>
      </trkpt>
      <trkpt lat="49.865" lon="4.754">
        <ele>211</ele>
        <time>2022-06-06T08:29:15.000Z</time>
      </trkpt>
      <trkpt lat="49.86496" lon="4.75397">
        <ele>211</ele>
        <time>2022-06-06T08:29:16.000Z</time>
      </trkpt>
      <trkpt lat="49.86492" lon="4.75393">
        <ele>211</ele>
        <time>2022-06-06T08:29:17.000Z</time>
      </trkpt>
      <trkpt lat="49.8649" lon="4.75389">
        <ele>211</ele>
        <time>2022-06-06T08:29:18.000Z</time>
      </trkpt>
      <trkpt lat="49.86487" lon="4.75385">
        <ele>211</ele>
        <time>2022-06-06T08:29:19.000Z</time>
      </trkpt>
      <trkpt lat="49.86484" lon="4.7538">
        <ele>211</ele>
        <time>2022-06-06T08:29:20.000Z</time>
      </trkpt>
      <trkpt lat="49.86481" lon="4.75373">
        <ele>210</ele>
        <time>2022-06-06T08:29:21.000Z</time>
      </trkpt>
      <trkpt lat="49.86479" lon="4.75366">
        <ele>210</ele>
        <time>2022-06-06T08:29:22.000Z</time>
      </trkpt>
      <trkpt lat="49.86475" lon="4.75358">
        <ele>210</ele>
        <time>2022-06-06T08:29:23.000Z</time>
      </trkpt>
      <trkpt lat="49.86472" lon="4.7535">
        <ele>210</ele>
        <time>2022-06-06T08:29:24.000Z</time>
      </trkpt>
      <trkpt lat="49.86469" lon="4.75342">
        <ele>210</ele>
        <time>2022-06-06T08:29:25.000Z</time>
      </trkpt>
      <trkpt lat="49.86466" lon="4.75335">
        <ele>209</ele>
        <time>2022-06-06T08:29:26.000Z</time>
      </trkpt>
      <trkpt lat="49.86463" lon="4.75328">
        <ele>209</ele>
        <time>2022-06-06T08:29:27.000Z</time>
      </trkpt>
      <trkpt lat="49.8646" lon="4.7532">
        <ele>209</ele>
        <time>2022-06-06T08:29:28.000Z</time>
      </trkpt>
      <trkpt lat="49.86457" lon="4.75313">
        <ele>209</ele>
        <time>2022-06-06T08:29:29.000Z</time>
      </trkpt>
      <trkpt lat="49.86454" lon="4.75306">
        <ele>208</ele>
        <time>2022-06-06T08:29:30.000Z</time>
      </trkpt>
      <trkpt lat="49.8645" lon="4.75298">
        <ele>208</ele>
        <time>2022-06-06T08:29:31.000Z</time>
      </trkpt>
      <trkpt lat="49.86447" lon="4.7529">
        <ele>208</ele>
        <time>2022-06-06T08:29:32.000Z</time>
      </trkpt>
      <trkpt lat="49.86443" lon="4.75282">
        <ele>208</ele>
        <time>2022-06-06T08:29:33.000Z</time>
      </trkpt>
      <trkpt lat="49.8644" lon="4.75274">
        <ele>207</ele>
        <time>2022-06-06T08:29:34.000Z</time>
      </trkpt>
      <trkpt lat="49.86437" lon="4.75267">
        <ele>207</ele>
        <time>2022-06-06T08:29:35.000Z</time>
      </trkpt>
      <trkpt lat="49.86434" lon="4.7526">
        <ele>207</ele>
        <time>2022-06-06T08:29:36.000Z</time>
      </trkpt>
      <trkpt lat="49.86431" lon="4.75253">
        <ele>206</ele>
        <time>2022-06-06T08:29:37.000Z</time>
      </trkpt>
      <trkpt lat="49.86428" lon="4.75245">
        <ele>206</ele>
        <time>2022-06-06T08:29:38.000Z</time>
      </trkpt>
      <trkpt lat="49.86425" lon="4.75238">
        <ele>206</ele>
        <time>2022-06-06T08:29:39.000Z</time>
      </trkpt>
      <trkpt lat="49.86422" lon="4.75231">
        <ele>205</ele>
        <time>2022-06-06T08:29:40.000Z</time>
      </trkpt>
      <trkpt lat="49.86418" lon="4.75223">
        <ele>205</ele>
        <time>2022-06-06T08:29:41.000Z</time>
      </trkpt>
      <trkpt lat="49.86415" lon="4.75216">
        <ele>204</ele>
        <time>2022-06-06T08:29:42.000Z</time>
      </trkpt>
      <trkpt lat="49.86413" lon="4.75207">
        <ele>204</ele>
        <time>2022-06-06T08:29:43.000Z</time>
      </trkpt>
      <trkpt lat="49.8641" lon="4.75199">
        <ele>203</ele>
        <time>2022-06-06T08:29:44.000Z</time>
      </trkpt>
      <trkpt lat="49.86407" lon="4.75191">
        <ele>202</ele>
        <time>2022-06-06T08:29:45.000Z</time>
      </trkpt>
      <trkpt lat="49.86404" lon="4.75184">
        <ele>202</ele>
        <time>2022-06-06T08:29:46.000Z</time>
      </trkpt>
      <trkpt lat="49.86401" lon="4.75176">
        <ele>201</ele>
        <time>2022-06-06T08:29:47.000Z</time>
      </trkpt>
      <trkpt lat="49.86398" lon="4.75169">
        <ele>200</ele>
        <time>2022-06-06T08:29:48.000Z</time>
      </trkpt>
      <trkpt lat="49.86396" lon="4.75162">
        <ele>199</ele>
        <time>2022-06-06T08:29:49.000Z</time>
      </trkpt>
      <trkpt lat="49.86394" lon="4.75157">
        <ele>198</ele>
        <time>2022-06-06T08:29:50.000Z</time>
      </trkpt>
      <trkpt lat="49.86392" lon="4.75151">
        <ele>197</ele>
        <time>2022-06-06T08:29:51.000Z</time>
      </trkpt>
      <trkpt lat="49.86391" lon="4.75146">
        <ele>196</ele>
        <time>2022-06-06T08:29:52.000Z</time>
      </trkpt>
      <trkpt lat="49.86391" lon="4.75142">
        <ele>196</ele>
        <time>2022-06-06T08:29:53.000Z</time>
      </trkpt>
      <trkpt lat="49.86391" lon="4.75138">
        <ele>195</ele>
        <time>2022-06-06T08:29:54.000Z</time>
      </trkpt>
      <trkpt lat="49.8639" lon="4.75137">
        <ele>194</ele>
        <time>2022-06-06T08:29:55.000Z</time>
      </trkpt>
      <trkpt lat="49.86389" lon="4.75138">
        <ele>193</ele>
        <time>2022-06-06T08:29:56.000Z</time>
      </trkpt>
      <trkpt lat="49.86389" lon="4.7514">
        <ele>193</ele>
        <time>2022-06-06T08:29:57.000Z</time>
      </trkpt>
      <trkpt lat="49.8639" lon="4.75143">
        <ele>192</ele>
        <time>2022-06-06T08:29:58.000Z</time>
      </trkpt>
      <trkpt lat="49.86392" lon="4.75146">
        <ele>191</ele>
        <time>2022-06-06T08:29:59.000Z</time>
      </trkpt>
      <trkpt lat="49.86393" lon="4.7515">
        <ele>191</ele>
        <time>2022-06-06T08:30:00.000Z</time>
      </trkpt>
      <trkpt lat="49.86395" lon="4.75153">
        <ele>190</ele>
        <time>2022-06-06T08:30:01.000Z</time>
      </trkpt>
      <trkpt lat="49.86397" lon="4.75157">
        <ele>190</ele>
        <time>2022-06-06T08:30:02.000Z</time>
      </trkpt>
      <trkpt lat="49.86399" lon="4.75162">
        <ele>189</ele>
        <time>2022-06-06T08:30:03.000Z</time>
      </trkpt>
      <trkpt lat="49.86401" lon="4.75166">
        <ele>189</ele>
        <time>2022-06-06T08:30:04.000Z</time>
      </trkpt>
      <trkpt lat="49.86402" lon="4.7517">
        <ele>188</ele>
        <time>2022-06-06T08:30:05.000Z</time>
      </trkpt>
      <trkpt lat="49.86404" lon="4.75174">
        <ele>188</ele>
        <time>2022-06-06T08:30:06.000Z</time>
      </trkpt>
      <trkpt lat="49.86405" lon="4.75177">
        <ele>188</ele>
        <time>2022-06-06T08:30:07.000Z</time>
      </trkpt>
      <trkpt lat="49.86406" lon="4.75181">
        <ele>188</ele>
        <time>2022-06-06T08:30:08.000Z</time>
      </trkpt>
      <trkpt lat="49.86408" lon="4.75184">
        <ele>187</ele>
        <time>2022-06-06T08:30:09.000Z</time>
      </trkpt>
      <trkpt lat="49.86409" lon="4.75187">
        <ele>187</ele>
        <time>2022-06-06T08:30:10.000Z</time>
      </trkpt>
      <trkpt lat="49.8641" lon="4.75189">
        <ele>187</ele>
        <time>2022-06-06T08:30:11.000Z</time>
      </trkpt>
      <trkpt lat="49.86412" lon="4.75193">
        <ele>187</ele>
        <time>2022-06-06T08:30:12.000Z</time>
      </trkpt>
      <trkpt lat="49.86413" lon="4.75196">
        <ele>186</ele>
        <time>2022-06-06T08:30:13.000Z</time>
      </trkpt>
      <trkpt lat="49.86415" lon="4.752">
        <ele>186</ele>
        <time>2022-06-06T08:30:14.000Z</time>
      </trkpt>
      <trkpt lat="49.86416" lon="4.75204">
        <ele>186</ele>
        <time>2022-06-06T08:30:15.000Z</time>
      </trkpt>
      <trkpt lat="49.86418" lon="4.75209">
        <ele>186</ele>
        <time>2022-06-06T08:30:16.000Z</time>
      </trkpt>
      <trkpt lat="49.86419" lon="4.75213">
        <ele>185</ele>
        <time>2022-06-06T08:30:17.000Z</time>
      </trkpt>
      <trkpt lat="49.86421" lon="4.75217">
        <ele>185</ele>
        <time>2022-06-06T08:30:18.000Z</time>
      </trkpt>
      <trkpt lat="49.86423" lon="4.7522">
        <ele>185</ele>
        <time>2022-06-06T08:30:19.000Z</time>
      </trkpt>
      <trkpt lat="49.86425" lon="4.75224">
        <ele>185</ele>
        <time>2022-06-06T08:30:20.000Z</time>
      </trkpt>
      <trkpt lat="49.86428" lon="4.75227">
        <ele>185</ele>
        <time>2022-06-06T08:30:21.000Z</time>
      </trkpt>
      <trkpt lat="49.86431" lon="4.7523">
        <ele>185</ele>
        <time>2022-06-06T08:30:22.000Z</time>
      </trkpt>
      <trkpt lat="49.86433" lon="4.75234">
        <ele>185</ele>
        <time>2022-06-06T08:30:23.000Z</time>
      </trkpt>
      <trkpt lat="49.86435" lon="4.75238">
        <ele>185</ele>
        <time>2022-06-06T08:30:24.000Z</time>
      </trkpt>
      <trkpt lat="49.86436" lon="4.75242">
        <ele>185</ele>
        <time>2022-06-06T08:30:25.000Z</time>
      </trkpt>
      <trkpt lat="49.86438" lon="4.75245">
        <ele>185</ele>
        <time>2022-06-06T08:30:26.000Z</time>
      </trkpt>
      <trkpt lat="49.8644" lon="4.75249">
        <ele>185</ele>
        <time>2022-06-06T08:30:27.000Z</time>
      </trkpt>
      <trkpt lat="49.86441" lon="4.75253">
        <ele>185</ele>
        <time>2022-06-06T08:30:28.000Z</time>
      </trkpt>
      <trkpt lat="49.86442" lon="4.75256">
        <ele>185</ele>
        <time>2022-06-06T08:30:29.000Z</time>
      </trkpt>
      <trkpt lat="49.86444" lon="4.75259">
        <ele>186</ele>
        <time>2022-06-06T08:30:30.000Z</time>
      </trkpt>
      <trkpt lat="49.86446" lon="4.75263">
        <ele>186</ele>
        <time>2022-06-06T08:30:31.000Z</time>
      </trkpt>
      <trkpt lat="49.86447" lon="4.75265">
        <ele>186</ele>
        <time>2022-06-06T08:30:32.000Z</time>
      </trkpt>
      <trkpt lat="49.86449" lon="4.75269">
        <ele>186</ele>
        <time>2022-06-06T08:30:33.000Z</time>
      </trkpt>
      <trkpt lat="49.8645" lon="4.75273">
        <ele>186</ele>
        <time>2022-06-06T08:30:34.000Z</time>
      </trkpt>
      <trkpt lat="49.86452" lon="4.75276">
        <ele>187</ele>
        <time>2022-06-06T08:30:35.000Z</time>
      </trkpt>
      <trkpt lat="49.86453" lon="4.75279">
        <ele>187</ele>
        <time>2022-06-06T08:30:36.000Z</time>
      </trkpt>
      <trkpt lat="49.86454" lon="4.75283">
        <ele>187</ele>
        <time>2022-06-06T08:30:37.000Z</time>
      </trkpt>
      <trkpt lat="49.86455" lon="4.75286">
        <ele>187</ele>
        <time>2022-06-06T08:30:38.000Z</time>
      </trkpt>
      <trkpt lat="49.86457" lon="4.75289">
        <ele>187</ele>
        <time>2022-06-06T08:30:39.000Z</time>
      </trkpt>
      <trkpt lat="49.86458" lon="4.75293">
        <ele>187</ele>
        <time>2022-06-06T08:30:40.000Z</time>
      </trkpt>
      <trkpt lat="49.86459" lon="4.75296">
        <ele>188</ele>
        <time>2022-06-06T08:30:41.000Z</time>
      </trkpt>
      <trkpt lat="49.8646" lon="4.75299">
        <ele>188</ele>
        <time>2022-06-06T08:30:42.000Z</time>
      </trkpt>
      <trkpt lat="49.86461" lon="4.75302">
        <ele>188</ele>
        <time>2022-06-06T08:30:43.000Z</time>
      </trkpt>
      <trkpt lat="49.86462" lon="4.75305">
        <ele>188</ele>
        <time>2022-06-06T08:30:44.000Z</time>
      </trkpt>
      <trkpt lat="49.86463" lon="4.75307">
        <ele>188</ele>
        <time>2022-06-06T08:30:45.000Z</time>
      </trkpt>
      <trkpt lat="49.86464" lon="4.7531">
        <ele>189</ele>
        <time>2022-06-06T08:30:46.000Z</time>
      </trkpt>
      <trkpt lat="49.86465" lon="4.75313">
        <ele>189</ele>
        <time>2022-06-06T08:30:47.000Z</time>
      </trkpt>
      <trkpt lat="49.86466" lon="4.75317">
        <ele>189</ele>
        <time>2022-06-06T08:30:48.000Z</time>
      </trkpt>
      <trkpt lat="49.86467" lon="4.7532">
        <ele>189</ele>
        <time>2022-06-06T08:30:49.000Z</time>
      </trkpt>
      <trkpt lat="49.86468" lon="4.75323">
        <ele>190</ele>
        <time>2022-06-06T08:30:50.000Z</time>
      </trkpt>
      <trkpt lat="49.8647" lon="4.75326">
        <ele>190</ele>
        <time>2022-06-06T08:30:51.000Z</time>
      </trkpt>
      <trkpt lat="49.86471" lon="4.75329">
        <ele>190</ele>
        <time>2022-06-06T08:30:52.000Z</time>
      </trkpt>
      <trkpt lat="49.86472" lon="4.75332">
        <ele>190</ele>
        <time>2022-06-06T08:30:53.000Z</time>
      </trkpt>
      <trkpt lat="49.86473" lon="4.75335">
        <ele>190</ele>
        <time>2022-06-06T08:30:54.000Z</time>
      </trkpt>
      <trkpt lat="49.86474" lon="4.75338">
        <ele>191</ele>
        <time>2022-06-06T08:30:55.000Z</time>
      </trkpt>
      <trkpt lat="49.86475" lon="4.7534">
        <ele>191</ele>
        <time>2022-06-06T08:30:56.000Z</time>
      </trkpt>
      <trkpt lat="49.86477" lon="4.75343">
        <ele>191</ele>
        <time>2022-06-06T08:30:57.000Z</time>
      </trkpt>
      <trkpt lat="49.86478" lon="4.75346">
        <ele>191</ele>
        <time>2022-06-06T08:30:58.000Z</time>
      </trkpt>
      <trkpt lat="49.86479" lon="4.75349">
        <ele>192</ele>
        <time>2022-06-06T08:30:59.000Z</time>
      </trkpt>
      <trkpt lat="49.8648" lon="4.75353">
        <ele>192</ele>
        <time>2022-06-06T08:31:00.000Z</time>
      </trkpt>
      <trkpt lat="49.86482" lon="4.75355">
        <ele>192</ele>
        <time>2022-06-06T08:31:01.000Z</time>
      </trkpt>
      <trkpt lat="49.86483" lon="4.75358">
        <ele>192</ele>
        <time>2022-06-06T08:31:02.000Z</time>
      </trkpt>
      <trkpt lat="49.86484" lon="4.75361">
        <ele>192</ele>
        <time>2022-06-06T08:31:03.000Z</time>
      </trkpt>
      <trkpt lat="49.86485" lon="4.75363">
        <ele>193</ele>
        <time>2022-06-06T08:31:04.000Z</time>
      </trkpt>
      <trkpt lat="49.86485" lon="4.75365">
        <ele>193</ele>
        <time>2022-06-06T08:31:05.000Z</time>
      </trkpt>
      <trkpt lat="49.86486" lon="4.75368">
        <ele>193</ele>
        <time>2022-06-06T08:31:06.000Z</time>
      </trkpt>
      <trkpt lat="49.86487" lon="4.75371">
        <ele>194</ele>
        <time>2022-06-06T08:31:07.000Z</time>
      </trkpt>
      <trkpt lat="49.86488" lon="4.75373">
        <ele>194</ele>
        <time>2022-06-06T08:31:08.000Z</time>
      </trkpt>
      <trkpt lat="49.8649" lon="4.75376">
        <ele>194</ele>
        <time>2022-06-06T08:31:09.000Z</time>
      </trkpt>
      <trkpt lat="49.86491" lon="4.75378">
        <ele>195</ele>
        <time>2022-06-06T08:31:10.000Z</time>
      </trkpt>
      <trkpt lat="49.86492" lon="4.7538">
        <ele>195</ele>
        <time>2022-06-06T08:31:11.000Z</time>
      </trkpt>
      <trkpt lat="49.86494" lon="4.75383">
        <ele>195</ele>
        <time>2022-06-06T08:31:12.000Z</time>
      </trkpt>
      <trkpt lat="49.86496" lon="4.75385">
        <ele>196</ele>
        <time>2022-06-06T08:31:13.000Z</time>
      </trkpt>
      <trkpt lat="49.86498" lon="4.75388">
        <ele>196</ele>
        <time>2022-06-06T08:31:14.000Z</time>
      </trkpt>
      <trkpt lat="49.865" lon="4.7539">
        <ele>196</ele>
        <time>2022-06-06T08:31:15.000Z</time>
      </trkpt>
      <trkpt lat="49.86502" lon="4.75393">
        <ele>196</ele>
        <time>2022-06-06T08:31:16.000Z</time>
      </trkpt>
      <trkpt lat="49.86504" lon="4.75395">
        <ele>197</ele>
        <time>2022-06-06T08:31:17.000Z</time>
      </trkpt>
      <trkpt lat="49.86506" lon="4.75397">
        <ele>197</ele>
        <time>2022-06-06T08:31:18.000Z</time>
      </trkpt>
      <trkpt lat="49.86508" lon="4.754">
        <ele>197</ele>
        <time>2022-06-06T08:31:19.000Z</time>
      </trkpt>
      <trkpt lat="49.8651" lon="4.75402">
        <ele>198</ele>
        <time>2022-06-06T08:31:20.000Z</time>
      </trkpt>
      <trkpt lat="49.86511" lon="4.75404">
        <ele>198</ele>
        <time>2022-06-06T08:31:21.000Z</time>
      </trkpt>
      <trkpt lat="49.86513" lon="4.75406">
        <ele>198</ele>
        <time>2022-06-06T08:31:22.000Z</time>
      </trkpt>
      <trkpt lat="49.86515" lon="4.75407">
        <ele>198</ele>
        <time>2022-06-06T08:31:23.000Z</time>
      </trkpt>
      <trkpt lat="49.86516" lon="4.75409">
        <ele>199</ele>
        <time>2022-06-06T08:31:24.000Z</time>
      </trkpt>
      <trkpt lat="49.86518" lon="4.7541">
        <ele>199</ele>
        <time>2022-06-06T08:31:25.000Z</time>
      </trkpt>
      <trkpt lat="49.86519" lon="4.75411">
        <ele>199</ele>
        <time>2022-06-06T08:31:26.000Z</time>
      </trkpt>
      <trkpt lat="49.8652" lon="4.75413">
        <ele>199</ele>
        <time>2022-06-06T08:31:27.000Z</time>
      </trkpt>
      <trkpt lat="49.86522" lon="4.75414">
        <ele>199</ele>
        <time>2022-06-06T08:31:28.000Z</time>
      </trkpt>
      <trkpt lat="49.86523" lon="4.75415">
        <ele>200</ele>
        <time>2022-06-06T08:31:29.000Z</time>
      </trkpt>
      <trkpt lat="49.86524" lon="4.75416">
        <ele>200</ele>
        <time>2022-06-06T08:31:30.000Z</time>
      </trkpt>
      <trkpt lat="49.86525" lon="4.75417">
        <ele>200</ele>
        <time>2022-06-06T08:31:31.000Z</time>
      </trkpt>
      <trkpt lat="49.86526" lon="4.75419">
        <ele>201</ele>
        <time>2022-06-06T08:31:32.000Z</time>
      </trkpt>
      <trkpt lat="49.86528" lon="4.75421">
        <ele>201</ele>
        <time>2022-06-06T08:31:33.000Z</time>
      </trkpt>
      <trkpt lat="49.86529" lon="4.75421">
        <ele>201</ele>
        <time>2022-06-06T08:31:34.000Z</time>
      </trkpt>
      <trkpt lat="49.8653" lon="4.75421">
        <ele>201</ele>
        <time>2022-06-06T08:31:35.000Z</time>
      </trkpt>
      <trkpt lat="49.86531" lon="4.75419">
        <ele>202</ele>
        <time>2022-06-06T08:31:36.000Z</time>
      </trkpt>
      <trkpt lat="49.8653" lon="4.75416">
        <ele>202</ele>
        <time>2022-06-06T08:31:37.000Z</time>
      </trkpt>
      <trkpt lat="49.8653" lon="4.75413">
        <ele>202</ele>
        <time>2022-06-06T08:31:38.000Z</time>
      </trkpt>
      <trkpt lat="49.8653" lon="4.75411">
        <ele>202</ele>
        <time>2022-06-06T08:31:39.000Z</time>
      </trkpt>
      <trkpt lat="49.8653" lon="4.75408">
        <ele>203</ele>
        <time>2022-06-06T08:31:40.000Z</time>
      </trkpt>
      <trkpt lat="49.8653" lon="4.75407">
        <ele>203</ele>
        <time>2022-06-06T08:31:41.000Z</time>
      </trkpt>
      <trkpt lat="49.86531" lon="4.75405">
        <ele>204</ele>
        <time>2022-06-06T08:31:42.000Z</time>
      </trkpt>
      <trkpt lat="49.86531" lon="4.75404">
        <ele>204</ele>
        <time>2022-06-06T08:31:43.000Z</time>
      </trkpt>
      <trkpt lat="49.86531" lon="4.75404">
        <ele>204</ele>
        <time>2022-06-06T08:31:44.000Z</time>
      </trkpt>
      <trkpt lat="49.8653" lon="4.75403">
        <ele>205</ele>
        <time>2022-06-06T08:31:45.000Z</time>
      </trkpt>
      <trkpt lat="49.86529" lon="4.75402">
        <ele>205</ele>
        <time>2022-06-06T08:31:46.000Z</time>
      </trkpt>
      <trkpt lat="49.86528" lon="4.75401">
        <ele>206</ele>
        <time>2022-06-06T08:31:47.000Z</time>
      </trkpt>
      <trkpt lat="49.86528" lon="4.75401">
        <ele>206</ele>
        <time>2022-06-06T08:31:48.000Z</time>
      </trkpt>
      <trkpt lat="49.86528" lon="4.75402">
        <ele>206</ele>
        <time>2022-06-06T08:31:49.000Z</time>
      </trkpt>
      <trkpt lat="49.86528" lon="4.75406">
        <ele>207</ele>
        <time>2022-06-06T08:31:50.000Z</time>
      </trkpt>
      <trkpt lat="49.86529" lon="4.75409">
        <ele>207</ele>
        <time>2022-06-06T08:31:51.000Z</time>
      </trkpt>
      <trkpt lat="49.86529" lon="4.75413">
        <ele>207</ele>
        <time>2022-06-06T08:31:52.000Z</time>
      </trkpt>
      <trkpt lat="49.86529" lon="4.75416">
        <ele>207</ele>
        <time>2022-06-06T08:31:53.000Z</time>
      </trkpt>
      <trkpt lat="49.86529" lon="4.7542">
        <ele>208</ele>
        <time>2022-06-06T08:31:54.000Z</time>
      </trkpt>
      <trkpt lat="49.8653" lon="4.75424">
        <ele>208</ele>
        <time>2022-06-06T08:31:55.000Z</time>
      </trkpt>
      <trkpt lat="49.86531" lon="4.75427">
        <ele>208</ele>
        <time>2022-06-06T08:31:56.000Z</time>
      </trkpt>
      <trkpt lat="49.86532" lon="4.75431">
        <ele>208</ele>
        <time>2022-06-06T08:31:57.000Z</time>
      </trkpt>
      <trkpt lat="49.86533" lon="4.75435">
        <ele>209</ele>
        <time>2022-06-06T08:31:58.000Z</time>
      </trkpt>
      <trkpt lat="49.86534" lon="4.7544">
        <ele>209</ele>
        <time>2022-06-06T08:31:59.000Z</time>
      </trkpt>
      <trkpt lat="49.86535" lon="4.75444">
        <ele>209</ele>
        <time>2022-06-06T08:32:00.000Z</time>
      </trkpt>
      <trkpt lat="49.86536" lon="4.75448">
        <ele>209</ele>
        <time>2022-06-06T08:32:01.000Z</time>
      </trkpt>
      <trkpt lat="49.86537" lon="4.75453">
        <ele>209</ele>
        <time>2022-06-06T08:32:02.000Z</time>
      </trkpt>
      <trkpt lat="49.86538" lon="4.75457">
        <ele>210</ele>
        <time>2022-06-06T08:32:03.000Z</time>
      </trkpt>
      <trkpt lat="49.86538" lon="4.75461">
        <ele>210</ele>
        <time>2022-06-06T08:32:04.000Z</time>
      </trkpt>
      <trkpt lat="49.86539" lon="4.75465">
        <ele>210</ele>
        <time>2022-06-06T08:32:05.000Z</time>
      </trkpt>
      <trkpt lat="49.8654" lon="4.7547">
        <ele>210</ele>
        <time>2022-06-06T08:32:06.000Z</time>
      </trkpt>
      <trkpt lat="49.86541" lon="4.75474">
        <ele>211</ele>
        <time>2022-06-06T08:32:07.000Z</time>
      </trkpt>
      <trkpt lat="49.86543" lon="4.75478">
        <ele>211</ele>
        <time>2022-06-06T08:32:08.000Z</time>
      </trkpt>
      <trkpt lat="49.86544" lon="4.75483">
        <ele>211</ele>
        <time>2022-06-06T08:32:09.000Z</time>
      </trkpt>
      <trkpt lat="49.86544" lon="4.75488">
        <ele>211</ele>
        <time>2022-06-06T08:32:10.000Z</time>
      </trkpt>
      <trkpt lat="49.86546" lon="4.75494">
        <ele>211</ele>
        <time>2022-06-06T08:32:11.000Z</time>
      </trkpt>
      <trkpt lat="49.86547" lon="4.75498">
        <ele>211</ele>
        <time>2022-06-06T08:32:12.000Z</time>
      </trkpt>
      <trkpt lat="49.86548" lon="4.75503">
        <ele>212</ele>
        <time>2022-06-06T08:32:13.000Z</time>
      </trkpt>
      <trkpt lat="49.86548" lon="4.75508">
        <ele>212</ele>
        <time>2022-06-06T08:32:14.000Z</time>
      </trkpt>
      <trkpt lat="49.86548" lon="4.75512">
        <ele>212</ele>
        <time>2022-06-06T08:32:15.000Z</time>
      </trkpt>
      <trkpt lat="49.86549" lon="4.75516">
        <ele>212</ele>
        <time>2022-06-06T08:32:16.000Z</time>
      </trkpt>
      <trkpt lat="49.86551" lon="4.75522">
        <ele>212</ele>
        <time>2022-06-06T08:32:17.000Z</time>
      </trkpt>
      <trkpt lat="49.86552" lon="4.75527">
        <ele>213</ele>
        <time>2022-06-06T08:32:18.000Z</time>
      </trkpt>
      <trkpt lat="49.86553" lon="4.75531">
        <ele>213</ele>
        <time>2022-06-06T08:32:19.000Z</time>
      </trkpt>
      <trkpt lat="49.86554" lon="4.75536">
        <ele>213</ele>
        <time>2022-06-06T08:32:20.000Z</time>
      </trkpt>
      <trkpt lat="49.86555" lon="4.75541">
        <ele>213</ele>
        <time>2022-06-06T08:32:21.000Z</time>
      </trkpt>
      <trkpt lat="49.86556" lon="4.75545">
        <ele>214</ele>
        <time>2022-06-06T08:32:22.000Z</time>
      </trkpt>
      <trkpt lat="49.86558" lon="4.75549">
        <ele>214</ele>
        <time>2022-06-06T08:32:23.000Z</time>
      </trkpt>
      <trkpt lat="49.86559" lon="4.75554">
        <ele>214</ele>
        <time>2022-06-06T08:32:24.000Z</time>
      </trkpt>
      <trkpt lat="49.8656" lon="4.75559">
        <ele>215</ele>
        <time>2022-06-06T08:32:25.000Z</time>
      </trkpt>
      <trkpt lat="49.86561" lon="4.75564">
        <ele>215</ele>
        <time>2022-06-06T08:32:26.000Z</time>
      </trkpt>
      <trkpt lat="49.86562" lon="4.75569">
        <ele>215</ele>
        <time>2022-06-06T08:32:27.000Z</time>
      </trkpt>
      <trkpt lat="49.86563" lon="4.75574">
        <ele>216</ele>
        <time>2022-06-06T08:32:28.000Z</time>
      </trkpt>
      <trkpt lat="49.86564" lon="4.7558">
        <ele>216</ele>
        <time>2022-06-06T08:32:29.000Z</time>
      </trkpt>
      <trkpt lat="49.86565" lon="4.75585">
        <ele>216</ele>
        <time>2022-06-06T08:32:30.000Z</time>
      </trkpt>
      <trkpt lat="49.86565" lon="4.75591">
        <ele>217</ele>
        <time>2022-06-06T08:32:31.000Z</time>
      </trkpt>
      <trkpt lat="49.86566" lon="4.75596">
        <ele>217</ele>
        <time>2022-06-06T08:32:32.000Z</time>
      </trkpt>
      <trkpt lat="49.86566" lon="4.75602">
        <ele>217</ele>
        <time>2022-06-06T08:32:33.000Z</time>
      </trkpt>
      <trkpt lat="49.86567" lon="4.75607">
        <ele>218</ele>
        <time>2022-06-06T08:32:34.000Z</time>
      </trkpt>
      <trkpt lat="49.86568" lon="4.75612">
        <ele>218</ele>
        <time>2022-06-06T08:32:35.000Z</time>
      </trkpt>
      <trkpt lat="49.86569" lon="4.75618">
        <ele>219</ele>
        <time>2022-06-06T08:32:36.000Z</time>
      </trkpt>
      <trkpt lat="49.86571" lon="4.75623">
        <ele>219</ele>
        <time>2022-06-06T08:32:37.000Z</time>
      </trkpt>
      <trkpt lat="49.86572" lon="4.75628">
        <ele>219</ele>
        <time>2022-06-06T08:32:38.000Z</time>
      </trkpt>
      <trkpt lat="49.86573" lon="4.75634">
        <ele>220</ele>
        <time>2022-06-06T08:32:39.000Z</time>
      </trkpt>
      <trkpt lat="49.86573" lon="4.75639">
        <ele>220</ele>
        <time>2022-06-06T08:32:40.000Z</time>
      </trkpt>
      <trkpt lat="49.86574" lon="4.75643">
        <ele>221</ele>
        <time>2022-06-06T08:32:41.000Z</time>
      </trkpt>
      <trkpt lat="49.86575" lon="4.75648">
        <ele>221</ele>
        <time>2022-06-06T08:32:42.000Z</time>
      </trkpt>
      <trkpt lat="49.86576" lon="4.75652">
        <ele>222</ele>
        <time>2022-06-06T08:32:43.000Z</time>
      </trkpt>
      <trkpt lat="49.86577" lon="4.75657">
        <ele>222</ele>
        <time>2022-06-06T08:32:44.000Z</time>
      </trkpt>
      <trkpt lat="49.86579" lon="4.75662">
        <ele>222</ele>
        <time>2022-06-06T08:32:45.000Z</time>
      </trkpt>
      <trkpt lat="49.8658" lon="4.75668">
        <ele>223</ele>
        <time>2022-06-06T08:32:46.000Z</time>
      </trkpt>
      <trkpt lat="49.86581" lon="4.75672">
        <ele>223</ele>
        <time>2022-06-06T08:32:47.000Z</time>
      </trkpt>
      <trkpt lat="49.86582" lon="4.75677">
        <ele>223</ele>
        <time>2022-06-06T08:32:48.000Z</time>
      </trkpt>
      <trkpt lat="49.86583" lon="4.75683">
        <ele>224</ele>
        <time>2022-06-06T08:32:49.000Z</time>
      </trkpt>
      <trkpt lat="49.86585" lon="4.75688">
        <ele>224</ele>
        <time>2022-06-06T08:32:50.000Z</time>
      </trkpt>
      <trkpt lat="49.86586" lon="4.75694">
        <ele>225</ele>
        <time>2022-06-06T08:32:51.000Z</time>
      </trkpt>
      <trkpt lat="49.86587" lon="4.75699">
        <ele>225</ele>
        <time>2022-06-06T08:32:52.000Z</time>
      </trkpt>
      <trkpt lat="49.86588" lon="4.75704">
        <ele>225</ele>
        <time>2022-06-06T08:32:53.000Z</time>
      </trkpt>
      <trkpt lat="49.86589" lon="4.75709">
        <ele>225</ele>
        <time>2022-06-06T08:32:54.000Z</time>
      </trkpt>
      <trkpt lat="49.86591" lon="4.75715">
        <ele>226</ele>
        <time>2022-06-06T08:32:55.000Z</time>
      </trkpt>
      <trkpt lat="49.86592" lon="4.7572">
        <ele>226</ele>
        <time>2022-06-06T08:32:56.000Z</time>
      </trkpt>
      <trkpt lat="49.86593" lon="4.75725">
        <ele>226</ele>
        <time>2022-06-06T08:32:57.000Z</time>
      </trkpt>
      <trkpt lat="49.86594" lon="4.7573">
        <ele>227</ele>
        <time>2022-06-06T08:32:58.000Z</time>
      </trkpt>
      <trkpt lat="49.86595" lon="4.75735">
        <ele>227</ele>
        <time>2022-06-06T08:32:59.000Z</time>
      </trkpt>
      <trkpt lat="49.86596" lon="4.75739">
        <ele>227</ele>
        <time>2022-06-06T08:33:00.000Z</time>
      </trkpt>
      <trkpt lat="49.86596" lon="4.75744">
        <ele>228</ele>
        <time>2022-06-06T08:33:01.000Z</time>
      </trkpt>
      <trkpt lat="49.86597" lon="4.75748">
        <ele>228</ele>
        <time>2022-06-06T08:33:02.000Z</time>
      </trkpt>
      <trkpt lat="49.86597" lon="4.75753">
        <ele>228</ele>
        <time>2022-06-06T08:33:03.000Z</time>
      </trkpt>
      <trkpt lat="49.86598" lon="4.75758">
        <ele>228</ele>
        <time>2022-06-06T08:33:04.000Z</time>
      </trkpt>
      <trkpt lat="49.86598" lon="4.75762">
        <ele>229</ele>
        <time>2022-06-06T08:33:05.000Z</time>
      </trkpt>
      <trkpt lat="49.866" lon="4.75766">
        <ele>229</ele>
        <time>2022-06-06T08:33:06.000Z</time>
      </trkpt>
      <trkpt lat="49.86602" lon="4.75769">
        <ele>229</ele>
        <time>2022-06-06T08:33:07.000Z</time>
      </trkpt>
      <trkpt lat="49.86603" lon="4.75771">
        <ele>230</ele>
        <time>2022-06-06T08:33:08.000Z</time>
      </trkpt>
      <trkpt lat="49.86603" lon="4.75771">
        <ele>230</ele>
        <time>2022-06-06T08:33:09.000Z</time>
      </trkpt>
      <trkpt lat="49.86604" lon="4.7577">
        <ele>231</ele>
        <time>2022-06-06T08:33:10.000Z</time>
      </trkpt>
      <trkpt lat="49.86604" lon="4.75769">
        <ele>231</ele>
        <time>2022-06-06T08:33:11.000Z</time>
      </trkpt>
      <trkpt lat="49.86604" lon="4.75767">
        <ele>231</ele>
        <time>2022-06-06T08:33:12.000Z</time>
      </trkpt>
      <trkpt lat="49.86605" lon="4.75766">
        <ele>231</ele>
        <time>2022-06-06T08:33:13.000Z</time>
      </trkpt>
      <trkpt lat="49.86606" lon="4.75765">
        <ele>232</ele>
        <time>2022-06-06T08:33:14.000Z</time>
      </trkpt>
      <trkpt lat="49.86606" lon="4.75764">
        <ele>232</ele>
        <time>2022-06-06T08:33:15.000Z</time>
      </trkpt>
      <trkpt lat="49.86607" lon="4.75763">
        <ele>232</ele>
        <time>2022-06-06T08:33:16.000Z</time>
      </trkpt>
      <trkpt lat="49.86608" lon="4.75762">
        <ele>232</ele>
        <time>2022-06-06T08:33:17.000Z</time>
      </trkpt>
      <trkpt lat="49.86608" lon="4.75762">
        <ele>232</ele>
        <time>2022-06-06T08:33:18.000Z</time>
      </trkpt>
      <trkpt lat="49.86609" lon="4.75762">
        <ele>233</ele>
        <time>2022-06-06T08:33:19.000Z</time>
      </trkpt>
      <trkpt lat="49.86609" lon="4.75761">
        <ele>233</ele>
        <time>2022-06-06T08:33:20.000Z</time>
      </trkpt>
      <trkpt lat="49.8661" lon="4.75761">
        <ele>233</ele>
        <time>2022-06-06T08:33:21.000Z</time>
      </trkpt>
      <trkpt lat="49.8661" lon="4.7576">
        <ele>233</ele>
        <time>2022-06-06T08:33:22.000Z</time>
      </trkpt>
      <trkpt lat="49.86611" lon="4.75758">
        <ele>233</ele>
        <time>2022-06-06T08:33:23.000Z</time>
      </trkpt>
      <trkpt lat="49.86612" lon="4.75756">
        <ele>233</ele>
        <time>2022-06-06T08:33:24.000Z</time>
      </trkpt>
      <trkpt lat="49.86614" lon="4.75754">
        <ele>233</ele>
        <time>2022-06-06T08:33:25.000Z</time>
      </trkpt>
      <trkpt lat="49.86615" lon="4.75751">
        <ele>234</ele>
        <time>2022-06-06T08:33:26.000Z</time>
      </trkpt>
      <trkpt lat="49.86616" lon="4.75749">
        <ele>234</ele>
        <time>2022-06-06T08:33:27.000Z</time>
      </trkpt>
      <trkpt lat="49.86617" lon="4.75746">
        <ele>234</ele>
        <time>2022-06-06T08:33:28.000Z</time>
      </trkpt>
      <trkpt lat="49.86617" lon="4.75744">
        <ele>234</ele>
        <time>2022-06-06T08:33:29.000Z</time>
      </trkpt>
      <trkpt lat="49.86617" lon="4.75741">
        <ele>234</ele>
        <time>2022-06-06T08:33:30.000Z</time>
      </trkpt>
      <trkpt lat="49.86618" lon="4.75739">
        <ele>235</ele>
        <time>2022-06-06T08:33:31.000Z</time>
      </trkpt>
      <trkpt lat="49.86618" lon="4.75736">
        <ele>235</ele>
        <time>2022-06-06T08:33:32.000Z</time>
      </trkpt>
      <trkpt lat="49.86619" lon="4.75733">
        <ele>235</ele>
        <time>2022-06-06T08:33:33.000Z</time>
      </trkpt>
      <trkpt lat="49.8662" lon="4.7573">
        <ele>236</ele>
        <time>2022-06-06T08:33:34.000Z</time>
      </trkpt>
      <trkpt lat="49.86621" lon="4.75728">
        <ele>236</ele>
        <time>2022-06-06T08:33:35.000Z</time>
      </trkpt>
      <trkpt lat="49.86621" lon="4.75726">
        <ele>236</ele>
        <time>2022-06-06T08:33:36.000Z</time>
      </trkpt>
      <trkpt lat="49.86622" lon="4.75724">
        <ele>236</ele>
        <time>2022-06-06T08:33:37.000Z</time>
      </trkpt>
      <trkpt lat="49.86623" lon="4.75722">
        <ele>237</ele>
        <time>2022-06-06T08:33:38.000Z</time>
      </trkpt>
      <trkpt lat="49.86624" lon="4.7572">
        <ele>237</ele>
        <time>2022-06-06T08:33:39.000Z</time>
      </trkpt>
      <trkpt lat="49.86625" lon="4.75718">
        <ele>237</ele>
        <time>2022-06-06T08:33:40.000Z</time>
      </trkpt>
      <trkpt lat="49.86626" lon="4.75715">
        <ele>238</ele>
        <time>2022-06-06T08:33:41.000Z</time>
      </trkpt>
      <trkpt lat="49.86627" lon="4.75713">
        <ele>238</ele>
        <time>2022-06-06T08:33:42.000Z</time>
      </trkpt>
      <trkpt lat="49.86628" lon="4.7571">
        <ele>238</ele>
        <time>2022-06-06T08:33:43.000Z</time>
      </trkpt>
      <trkpt lat="49.86629" lon="4.75708">
        <ele>238</ele>
        <time>2022-06-06T08:33:44.000Z</time>
      </trkpt>
      <trkpt lat="49.8663" lon="4.75705">
        <ele>239</ele>
        <time>2022-06-06T08:33:45.000Z</time>
      </trkpt>
      <trkpt lat="49.86632" lon="4.75702">
        <ele>239</ele>
        <time>2022-06-06T08:33:46.000Z</time>
      </trkpt>
      <trkpt lat="49.86633" lon="4.75699">
        <ele>239</ele>
        <time>2022-06-06T08:33:47.000Z</time>
      </trkpt>
      <trkpt lat="49.86634" lon="4.75698">
        <ele>239</ele>
        <time>2022-06-06T08:33:48.000Z</time>
      </trkpt>
      <trkpt lat="49.86634" lon="4.75696">
        <ele>239</ele>
        <time>2022-06-06T08:33:49.000Z</time>
      </trkpt>
      <trkpt lat="49.86635" lon="4.75693">
        <ele>239</ele>
        <time>2022-06-06T08:33:50.000Z</time>
      </trkpt>
      <trkpt lat="49.86637" lon="4.75691">
        <ele>239</ele>
        <time>2022-06-06T08:33:51.000Z</time>
      </trkpt>
      <trkpt lat="49.86638" lon="4.75688">
        <ele>239</ele>
        <time>2022-06-06T08:33:52.000Z</time>
      </trkpt>
      <trkpt lat="49.8664" lon="4.75685">
        <ele>239</ele>
        <time>2022-06-06T08:33:53.000Z</time>
      </trkpt>
      <trkpt lat="49.86641" lon="4.75683">
        <ele>239</ele>
        <time>2022-06-06T08:33:54.000Z</time>
      </trkpt>
      <trkpt lat="49.86642" lon="4.7568">
        <ele>239</ele>
        <time>2022-06-06T08:33:55.000Z</time>
      </trkpt>
      <trkpt lat="49.86643" lon="4.75677">
        <ele>239</ele>
        <time>2022-06-06T08:33:56.000Z</time>
      </trkpt>
      <trkpt lat="49.86645" lon="4.75675">
        <ele>239</ele>
        <time>2022-06-06T08:33:57.000Z</time>
      </trkpt>
      <trkpt lat="49.86646" lon="4.75672">
        <ele>239</ele>
        <time>2022-06-06T08:33:58.000Z</time>
      </trkpt>
      <trkpt lat="49.86647" lon="4.75669">
        <ele>239</ele>
        <time>2022-06-06T08:33:59.000Z</time>
      </trkpt>
      <trkpt lat="49.86648" lon="4.75667">
        <ele>239</ele>
        <time>2022-06-06T08:34:00.000Z</time>
      </trkpt>
      <trkpt lat="49.86649" lon="4.75664">
        <ele>239</ele>
        <time>2022-06-06T08:34:01.000Z</time>
      </trkpt>
      <trkpt lat="49.8665" lon="4.75661">
        <ele>239</ele>
        <time>2022-06-06T08:34:02.000Z</time>
      </trkpt>
      <trkpt lat="49.8665" lon="4.75659">
        <ele>239</ele>
        <time>2022-06-06T08:34:03.000Z</time>
      </trkpt>
      <trkpt lat="49.86651" lon="4.75656">
        <ele>239</ele>
        <time>2022-06-06T08:34:04.000Z</time>
      </trkpt>
      <trkpt lat="49.86651" lon="4.75652">
        <ele>239</ele>
        <time>2022-06-06T08:34:05.000Z</time>
      </trkpt>
      <trkpt lat="49.86651" lon="4.7565">
        <ele>239</ele>
        <time>2022-06-06T08:34:06.000Z</time>
      </trkpt>
      <trkpt lat="49.86652" lon="4.75647">
        <ele>239</ele>
        <time>2022-06-06T08:34:07.000Z</time>
      </trkpt>
      <trkpt lat="49.86653" lon="4.75643">
        <ele>239</ele>
        <time>2022-06-06T08:34:08.000Z</time>
      </trkpt>
      <trkpt lat="49.86653" lon="4.7564">
        <ele>239</ele>
        <time>2022-06-06T08:34:09.000Z</time>
      </trkpt>
      <trkpt lat="49.86654" lon="4.75636">
        <ele>239</ele>
        <time>2022-06-06T08:34:10.000Z</time>
      </trkpt>
      <trkpt lat="49.86654" lon="4.75634">
        <ele>240</ele>
        <time>2022-06-06T08:34:11.000Z</time>
      </trkpt>
      <trkpt lat="49.86655" lon="4.75631">
        <ele>240</ele>
        <time>2022-06-06T08:34:12.000Z</time>
      </trkpt>
      <trkpt lat="49.86656" lon="4.75628">
        <ele>240</ele>
        <time>2022-06-06T08:34:13.000Z</time>
      </trkpt>
      <trkpt lat="49.86656" lon="4.75625">
        <ele>240</ele>
        <time>2022-06-06T08:34:14.000Z</time>
      </trkpt>
      <trkpt lat="49.86657" lon="4.75622">
        <ele>240</ele>
        <time>2022-06-06T08:34:15.000Z</time>
      </trkpt>
      <trkpt lat="49.86657" lon="4.75618">
        <ele>240</ele>
        <time>2022-06-06T08:34:16.000Z</time>
      </trkpt>
      <trkpt lat="49.86657" lon="4.75615">
        <ele>240</ele>
        <time>2022-06-06T08:34:17.000Z</time>
      </trkpt>
      <trkpt lat="49.86658" lon="4.75612">
        <ele>240</ele>
        <time>2022-06-06T08:34:18.000Z</time>
      </trkpt>
      <trkpt lat="49.86658" lon="4.75608">
        <ele>241</ele>
        <time>2022-06-06T08:34:19.000Z</time>
      </trkpt>
      <trkpt lat="49.86659" lon="4.75605">
        <ele>241</ele>
        <time>2022-06-06T08:34:20.000Z</time>
      </trkpt>
      <trkpt lat="49.86659" lon="4.75603">
        <ele>241</ele>
        <time>2022-06-06T08:34:21.000Z</time>
      </trkpt>
      <trkpt lat="49.86659" lon="4.756">
        <ele>241</ele>
        <time>2022-06-06T08:34:22.000Z</time>
      </trkpt>
      <trkpt lat="49.86659" lon="4.75598">
        <ele>241</ele>
        <time>2022-06-06T08:34:23.000Z</time>
      </trkpt>
      <trkpt lat="49.86659" lon="4.75594">
        <ele>242</ele>
        <time>2022-06-06T08:34:24.000Z</time>
      </trkpt>
      <trkpt lat="49.86659" lon="4.75592">
        <ele>242</ele>
        <time>2022-06-06T08:34:25.000Z</time>
      </trkpt>
      <trkpt lat="49.86659" lon="4.75589">
        <ele>242</ele>
        <time>2022-06-06T08:34:26.000Z</time>
      </trkpt>
      <trkpt lat="49.86659" lon="4.75586">
        <ele>242</ele>
        <time>2022-06-06T08:34:27.000Z</time>
      </trkpt>
      <trkpt lat="49.86659" lon="4.75582">
        <ele>242</ele>
        <time>2022-06-06T08:34:28.000Z</time>
      </trkpt>
      <trkpt lat="49.86659" lon="4.75579">
        <ele>243</ele>
        <time>2022-06-06T08:34:29.000Z</time>
      </trkpt>
      <trkpt lat="49.8666" lon="4.75576">
        <ele>243</ele>
        <time>2022-06-06T08:34:30.000Z</time>
      </trkpt>
      <trkpt lat="49.8666" lon="4.75574">
        <ele>243</ele>
        <time>2022-06-06T08:34:31.000Z</time>
      </trkpt>
      <trkpt lat="49.8666" lon="4.7557">
        <ele>243</ele>
        <time>2022-06-06T08:34:32.000Z</time>
      </trkpt>
      <trkpt lat="49.8666" lon="4.75567">
        <ele>244</ele>
        <time>2022-06-06T08:34:33.000Z</time>
      </trkpt>
      <trkpt lat="49.8666" lon="4.75563">
        <ele>244</ele>
        <time>2022-06-06T08:34:34.000Z</time>
      </trkpt>
      <trkpt lat="49.8666" lon="4.7556">
        <ele>244</ele>
        <time>2022-06-06T08:34:35.000Z</time>
      </trkpt>
      <trkpt lat="49.8666" lon="4.75557">
        <ele>245</ele>
        <time>2022-06-06T08:34:36.000Z</time>
      </trkpt>
      <trkpt lat="49.8666" lon="4.75553">
        <ele>245</ele>
        <time>2022-06-06T08:34:37.000Z</time>
      </trkpt>
      <trkpt lat="49.8666" lon="4.75548">
        <ele>245</ele>
        <time>2022-06-06T08:34:38.000Z</time>
      </trkpt>
      <trkpt lat="49.8666" lon="4.75544">
        <ele>245</ele>
        <time>2022-06-06T08:34:39.000Z</time>
      </trkpt>
      <trkpt lat="49.86659" lon="4.7554">
        <ele>245</ele>
        <time>2022-06-06T08:34:40.000Z</time>
      </trkpt>
      <trkpt lat="49.86659" lon="4.75536">
        <ele>245</ele>
        <time>2022-06-06T08:34:41.000Z</time>
      </trkpt>
      <trkpt lat="49.86659" lon="4.75531">
        <ele>245</ele>
        <time>2022-06-06T08:34:42.000Z</time>
      </trkpt>
      <trkpt lat="49.86658" lon="4.75526">
        <ele>245</ele>
        <time>2022-06-06T08:34:43.000Z</time>
      </trkpt>
      <trkpt lat="49.86658" lon="4.75521">
        <ele>245</ele>
        <time>2022-06-06T08:34:44.000Z</time>
      </trkpt>
      <trkpt lat="49.86657" lon="4.75516">
        <ele>245</ele>
        <time>2022-06-06T08:34:45.000Z</time>
      </trkpt>
      <trkpt lat="49.86657" lon="4.75511">
        <ele>245</ele>
        <time>2022-06-06T08:34:46.000Z</time>
      </trkpt>
      <trkpt lat="49.86656" lon="4.75506">
        <ele>246</ele>
        <time>2022-06-06T08:34:47.000Z</time>
      </trkpt>
      <trkpt lat="49.86656" lon="4.75501">
        <ele>246</ele>
        <time>2022-06-06T08:34:48.000Z</time>
      </trkpt>
      <trkpt lat="49.86655" lon="4.75495">
        <ele>246</ele>
        <time>2022-06-06T08:34:49.000Z</time>
      </trkpt>
      <trkpt lat="49.86655" lon="4.75491">
        <ele>246</ele>
        <time>2022-06-06T08:34:50.000Z</time>
      </trkpt>
      <trkpt lat="49.86656" lon="4.75487">
        <ele>246</ele>
        <time>2022-06-06T08:34:51.000Z</time>
      </trkpt>
      <trkpt lat="49.86656" lon="4.75482">
        <ele>246</ele>
        <time>2022-06-06T08:34:52.000Z</time>
      </trkpt>
      <trkpt lat="49.86657" lon="4.75479">
        <ele>246</ele>
        <time>2022-06-06T08:34:53.000Z</time>
      </trkpt>
      <trkpt lat="49.86657" lon="4.75475">
        <ele>246</ele>
        <time>2022-06-06T08:34:54.000Z</time>
      </trkpt>
      <trkpt lat="49.86658" lon="4.75471">
        <ele>246</ele>
        <time>2022-06-06T08:34:55.000Z</time>
      </trkpt>
      <trkpt lat="49.86658" lon="4.75468">
        <ele>246</ele>
        <time>2022-06-06T08:34:56.000Z</time>
      </trkpt>
      <trkpt lat="49.86659" lon="4.75464">
        <ele>246</ele>
        <time>2022-06-06T08:34:57.000Z</time>
      </trkpt>
      <trkpt lat="49.86659" lon="4.7546">
        <ele>246</ele>
        <time>2022-06-06T08:34:58.000Z</time>
      </trkpt>
      <trkpt lat="49.86659" lon="4.75456">
        <ele>246</ele>
        <time>2022-06-06T08:34:59.000Z</time>
      </trkpt>
      <trkpt lat="49.86659" lon="4.75451">
        <ele>246</ele>
        <time>2022-06-06T08:35:00.000Z</time>
      </trkpt>
      <trkpt lat="49.86658" lon="4.75446">
        <ele>246</ele>
        <time>2022-06-06T08:35:01.000Z</time>
      </trkpt>
      <trkpt lat="49.86658" lon="4.7544">
        <ele>246</ele>
        <time>2022-06-06T08:35:02.000Z</time>
      </trkpt>
      <trkpt lat="49.86658" lon="4.75434">
        <ele>246</ele>
        <time>2022-06-06T08:35:03.000Z</time>
      </trkpt>
      <trkpt lat="49.86658" lon="4.75428">
        <ele>246</ele>
        <time>2022-06-06T08:35:04.000Z</time>
      </trkpt>
      <trkpt lat="49.86659" lon="4.75423">
        <ele>246</ele>
        <time>2022-06-06T08:35:05.000Z</time>
      </trkpt>
      <trkpt lat="49.86659" lon="4.75418">
        <ele>246</ele>
        <time>2022-06-06T08:35:06.000Z</time>
      </trkpt>
      <trkpt lat="49.86659" lon="4.75412">
        <ele>246</ele>
        <time>2022-06-06T08:35:07.000Z</time>
      </trkpt>
      <trkpt lat="49.86658" lon="4.75406">
        <ele>246</ele>
        <time>2022-06-06T08:35:08.000Z</time>
      </trkpt>
      <trkpt lat="49.86658" lon="4.754">
        <ele>246</ele>
        <time>2022-06-06T08:35:09.000Z</time>
      </trkpt>
      <trkpt lat="49.86657" lon="4.75393">
        <ele>246</ele>
        <time>2022-06-06T08:35:10.000Z</time>
      </trkpt>
      <trkpt lat="49.86657" lon="4.75386">
        <ele>246</ele>
        <time>2022-06-06T08:35:11.000Z</time>
      </trkpt>
      <trkpt lat="49.86657" lon="4.75379">
        <ele>246</ele>
        <time>2022-06-06T08:35:12.000Z</time>
      </trkpt>
      <trkpt lat="49.86656" lon="4.75373">
        <ele>246</ele>
        <time>2022-06-06T08:35:13.000Z</time>
      </trkpt>
      <trkpt lat="49.86656" lon="4.75368">
        <ele>246</ele>
        <time>2022-06-06T08:35:14.000Z</time>
      </trkpt>
      <trkpt lat="49.86656" lon="4.75362">
        <ele>246</ele>
        <time>2022-06-06T08:35:15.000Z</time>
      </trkpt>
      <trkpt lat="49.86655" lon="4.75356">
        <ele>246</ele>
        <time>2022-06-06T08:35:16.000Z</time>
      </trkpt>
      <trkpt lat="49.86655" lon="4.7535">
        <ele>246</ele>
        <time>2022-06-06T08:35:17.000Z</time>
      </trkpt>
      <trkpt lat="49.86654" lon="4.75344">
        <ele>246</ele>
        <time>2022-06-06T08:35:18.000Z</time>
      </trkpt>
      <trkpt lat="49.86654" lon="4.75338">
        <ele>246</ele>
        <time>2022-06-06T08:35:19.000Z</time>
      </trkpt>
      <trkpt lat="49.86654" lon="4.75332">
        <ele>246</ele>
        <time>2022-06-06T08:35:20.000Z</time>
      </trkpt>
      <trkpt lat="49.86654" lon="4.75326">
        <ele>245</ele>
        <time>2022-06-06T08:35:21.000Z</time>
      </trkpt>
      <trkpt lat="49.86653" lon="4.7532">
        <ele>245</ele>
        <time>2022-06-06T08:35:22.000Z</time>
      </trkpt>
      <trkpt lat="49.86653" lon="4.75315">
        <ele>245</ele>
        <time>2022-06-06T08:35:23.000Z</time>
      </trkpt>
      <trkpt lat="49.86654" lon="4.75311">
        <ele>245</ele>
        <time>2022-06-06T08:35:24.000Z</time>
      </trkpt>
      <trkpt lat="49.86654" lon="4.75309">
        <ele>245</ele>
        <time>2022-06-06T08:35:25.000Z</time>
      </trkpt>
      <trkpt lat="49.86654" lon="4.75307">
        <ele>245</ele>
        <time>2022-06-06T08:35:26.000Z</time>
      </trkpt>
      <trkpt lat="49.86655" lon="4.75304">
        <ele>245</ele>
        <time>2022-06-06T08:35:27.000Z</time>
      </trkpt>
      <trkpt lat="49.86655" lon="4.75301">
        <ele>245</ele>
        <time>2022-06-06T08:35:28.000Z</time>
      </trkpt>
      <trkpt lat="49.86656" lon="4.75298">
        <ele>245</ele>
        <time>2022-06-06T08:35:29.000Z</time>
      </trkpt>
      <trkpt lat="49.86657" lon="4.75295">
        <ele>245</ele>
        <time>2022-06-06T08:35:30.000Z</time>
      </trkpt>
      <trkpt lat="49.86657" lon="4.75292">
        <ele>245</ele>
        <time>2022-06-06T08:35:31.000Z</time>
      </trkpt>
      <trkpt lat="49.86657" lon="4.7529">
        <ele>245</ele>
        <time>2022-06-06T08:35:32.000Z</time>
      </trkpt>
      <trkpt lat="49.86658" lon="4.75288">
        <ele>245</ele>
        <time>2022-06-06T08:35:33.000Z</time>
      </trkpt>
      <trkpt lat="49.86658" lon="4.75287">
        <ele>245</ele>
        <time>2022-06-06T08:35:34.000Z</time>
      </trkpt>
      <trkpt lat="49.86658" lon="4.75287">
        <ele>245</ele>
        <time>2022-06-06T08:35:35.000Z</time>
      </trkpt>
      <trkpt lat="49.86658" lon="4.75288">
        <ele>245</ele>
        <time>2022-06-06T08:35:36.000Z</time>
      </trkpt>
      <trkpt lat="49.86658" lon="4.75289">
        <ele>245</ele>
        <time>2022-06-06T08:35:37.000Z</time>
      </trkpt>
      <trkpt lat="49.86658" lon="4.7529">
        <ele>245</ele>
        <time>2022-06-06T08:35:38.000Z</time>
      </trkpt>
      <trkpt lat="49.86658" lon="4.7529">
        <ele>244</ele>
        <time>2022-06-06T08:35:39.000Z</time>
      </trkpt>
      <trkpt lat="49.86658" lon="4.75291">
        <ele>244</ele>
        <time>2022-06-06T08:35:40.000Z</time>
      </trkpt>
      <trkpt lat="49.86658" lon="4.75294">
        <ele>244</ele>
        <time>2022-06-06T08:35:41.000Z</time>
      </trkpt>
      <trkpt lat="49.86657" lon="4.75297">
        <ele>244</ele>
        <time>2022-06-06T08:35:42.000Z</time>
      </trkpt>
      <trkpt lat="49.86657" lon="4.753">
        <ele>244</ele>
        <time>2022-06-06T08:35:43.000Z</time>
      </trkpt>
      <trkpt lat="49.86656" lon="4.75302">
        <ele>244</ele>
        <time>2022-06-06T08:35:44.000Z</time>
      </trkpt>
      <trkpt lat="49.86654" lon="4.75302">
        <ele>244</ele>
        <time>2022-06-06T08:35:45.000Z</time>
      </trkpt>
      <trkpt lat="49.86652" lon="4.753">
        <ele>244</ele>
        <time>2022-06-06T08:35:46.000Z</time>
      </trkpt>
      <trkpt lat="49.86651" lon="4.75297">
        <ele>244</ele>
        <time>2022-06-06T08:35:47.000Z</time>
      </trkpt>
      <trkpt lat="49.8665" lon="4.75293">
        <ele>244</ele>
        <time>2022-06-06T08:35:48.000Z</time>
      </trkpt>
      <trkpt lat="49.86649" lon="4.75289">
        <ele>243</ele>
        <time>2022-06-06T08:35:49.000Z</time>
      </trkpt>
      <trkpt lat="49.86649" lon="4.75284">
        <ele>243</ele>
        <time>2022-06-06T08:35:50.000Z</time>
      </trkpt>
      <trkpt lat="49.86647" lon="4.75279">
        <ele>243</ele>
        <time>2022-06-06T08:35:51.000Z</time>
      </trkpt>
      <trkpt lat="49.86645" lon="4.75274">
        <ele>243</ele>
        <time>2022-06-06T08:35:52.000Z</time>
      </trkpt>
      <trkpt lat="49.86643" lon="4.75268">
        <ele>243</ele>
        <time>2022-06-06T08:35:53.000Z</time>
      </trkpt>
      <trkpt lat="49.86641" lon="4.75262">
        <ele>243</ele>
        <time>2022-06-06T08:35:54.000Z</time>
      </trkpt>
      <trkpt lat="49.86639" lon="4.75256">
        <ele>243</ele>
        <time>2022-06-06T08:35:55.000Z</time>
      </trkpt>
      <trkpt lat="49.86636" lon="4.7525">
        <ele>243</ele>
        <time>2022-06-06T08:35:56.000Z</time>
      </trkpt>
      <trkpt lat="49.86634" lon="4.75244">
        <ele>243</ele>
        <time>2022-06-06T08:35:57.000Z</time>
      </trkpt>
      <trkpt lat="49.86631" lon="4.75237">
        <ele>243</ele>
        <time>2022-06-06T08:35:58.000Z</time>
      </trkpt>
      <trkpt lat="49.8663" lon="4.75231">
        <ele>243</ele>
        <time>2022-06-06T08:35:59.000Z</time>
      </trkpt>
      <trkpt lat="49.86628" lon="4.75226">
        <ele>243</ele>
        <time>2022-06-06T08:36:00.000Z</time>
      </trkpt>
      <trkpt lat="49.86626" lon="4.7522">
        <ele>243</ele>
        <time>2022-06-06T08:36:01.000Z</time>
      </trkpt>
      <trkpt lat="49.86623" lon="4.75215">
        <ele>243</ele>
        <time>2022-06-06T08:36:02.000Z</time>
      </trkpt>
      <trkpt lat="49.86621" lon="4.7521">
        <ele>243</ele>
        <time>2022-06-06T08:36:03.000Z</time>
      </trkpt>
      <trkpt lat="49.86619" lon="4.75206">
        <ele>243</ele>
        <time>2022-06-06T08:36:04.000Z</time>
      </trkpt>
      <trkpt lat="49.86616" lon="4.75202">
        <ele>243</ele>
        <time>2022-06-06T08:36:05.000Z</time>
      </trkpt>
      <trkpt lat="49.86614" lon="4.75198">
        <ele>243</ele>
        <time>2022-06-06T08:36:06.000Z</time>
      </trkpt>
      <trkpt lat="49.86613" lon="4.75193">
        <ele>243</ele>
        <time>2022-06-06T08:36:07.000Z</time>
      </trkpt>
      <trkpt lat="49.86611" lon="4.75188">
        <ele>243</ele>
        <time>2022-06-06T08:36:08.000Z</time>
      </trkpt>
      <trkpt lat="49.86608" lon="4.75181">
        <ele>243</ele>
        <time>2022-06-06T08:36:09.000Z</time>
      </trkpt>
      <trkpt lat="49.86605" lon="4.75174">
        <ele>243</ele>
        <time>2022-06-06T08:36:10.000Z</time>
      </trkpt>
      <trkpt lat="49.86602" lon="4.75166">
        <ele>243</ele>
        <time>2022-06-06T08:36:11.000Z</time>
      </trkpt>
      <trkpt lat="49.86598" lon="4.75157">
        <ele>243</ele>
        <time>2022-06-06T08:36:12.000Z</time>
      </trkpt>
      <trkpt lat="49.86595" lon="4.7515">
        <ele>243</ele>
        <time>2022-06-06T08:36:13.000Z</time>
      </trkpt>
      <trkpt lat="49.86591" lon="4.75142">
        <ele>244</ele>
        <time>2022-06-06T08:36:14.000Z</time>
      </trkpt>
      <trkpt lat="49.86588" lon="4.75134">
        <ele>244</ele>
        <time>2022-06-06T08:36:15.000Z</time>
      </trkpt>
      <trkpt lat="49.86585" lon="4.75127">
        <ele>244</ele>
        <time>2022-06-06T08:36:16.000Z</time>
      </trkpt>
      <trkpt lat="49.86583" lon="4.75122">
        <ele>244</ele>
        <time>2022-06-06T08:36:17.000Z</time>
      </trkpt>
      <trkpt lat="49.86582" lon="4.75119">
        <ele>244</ele>
        <time>2022-06-06T08:36:18.000Z</time>
      </trkpt>
      <trkpt lat="49.86581" lon="4.75118">
        <ele>244</ele>
        <time>2022-06-06T08:36:19.000Z</time>
      </trkpt>
      <trkpt lat="49.8658" lon="4.75115">
        <ele>244</ele>
        <time>2022-06-06T08:36:20.000Z</time>
      </trkpt>
      <trkpt lat="49.86578" lon="4.75114">
        <ele>243</ele>
        <time>2022-06-06T08:36:21.000Z</time>
      </trkpt>
      <trkpt lat="49.86576" lon="4.75111">
        <ele>243</ele>
        <time>2022-06-06T08:36:22.000Z</time>
      </trkpt>
      <trkpt lat="49.86573" lon="4.75108">
        <ele>243</ele>
        <time>2022-06-06T08:36:23.000Z</time>
      </trkpt>
      <trkpt lat="49.86571" lon="4.75104">
        <ele>243</ele>
        <time>2022-06-06T08:36:24.000Z</time>
      </trkpt>
      <trkpt lat="49.86567" lon="4.75101">
        <ele>243</ele>
        <time>2022-06-06T08:36:25.000Z</time>
      </trkpt>
      <trkpt lat="49.86564" lon="4.75097">
        <ele>243</ele>
        <time>2022-06-06T08:36:26.000Z</time>
      </trkpt>
      <trkpt lat="49.86561" lon="4.75094">
        <ele>243</ele>
        <time>2022-06-06T08:36:27.000Z</time>
      </trkpt>
      <trkpt lat="49.86558" lon="4.75092">
        <ele>243</ele>
        <time>2022-06-06T08:36:28.000Z</time>
      </trkpt>
      <trkpt lat="49.86554" lon="4.75089">
        <ele>243</ele>
        <time>2022-06-06T08:36:29.000Z</time>
      </trkpt>
      <trkpt lat="49.86551" lon="4.75086">
        <ele>243</ele>
        <time>2022-06-06T08:36:30.000Z</time>
      </trkpt>
      <trkpt lat="49.86548" lon="4.75081">
        <ele>243</ele>
        <time>2022-06-06T08:36:31.000Z</time>
      </trkpt>
      <trkpt lat="49.86544" lon="4.75076">
        <ele>243</ele>
        <time>2022-06-06T08:36:32.000Z</time>
      </trkpt>
      <trkpt lat="49.8654" lon="4.75072">
        <ele>243</ele>
        <time>2022-06-06T08:36:33.000Z</time>
      </trkpt>
      <trkpt lat="49.86536" lon="4.75067">
        <ele>243</ele>
        <time>2022-06-06T08:36:34.000Z</time>
      </trkpt>
      <trkpt lat="49.86532" lon="4.75062">
        <ele>243</ele>
        <time>2022-06-06T08:36:35.000Z</time>
      </trkpt>
      <trkpt lat="49.86528" lon="4.75058">
        <ele>243</ele>
        <time>2022-06-06T08:36:36.000Z</time>
      </trkpt>
      <trkpt lat="49.86525" lon="4.75054">
        <ele>243</ele>
        <time>2022-06-06T08:36:37.000Z</time>
      </trkpt>
      <trkpt lat="49.86522" lon="4.7505">
        <ele>243</ele>
        <time>2022-06-06T08:36:38.000Z</time>
      </trkpt>
      <trkpt lat="49.86519" lon="4.75046">
        <ele>243</ele>
        <time>2022-06-06T08:36:39.000Z</time>
      </trkpt>
      <trkpt lat="49.86516" lon="4.75042">
        <ele>243</ele>
        <time>2022-06-06T08:36:40.000Z</time>
      </trkpt>
      <trkpt lat="49.86514" lon="4.75038">
        <ele>243</ele>
        <time>2022-06-06T08:36:41.000Z</time>
      </trkpt>
      <trkpt lat="49.86512" lon="4.75036">
        <ele>243</ele>
        <time>2022-06-06T08:36:42.000Z</time>
      </trkpt>
      <trkpt lat="49.86511" lon="4.75034">
        <ele>243</ele>
        <time>2022-06-06T08:36:43.000Z</time>
      </trkpt>
      <trkpt lat="49.86509" lon="4.75031">
        <ele>243</ele>
        <time>2022-06-06T08:36:44.000Z</time>
      </trkpt>
      <trkpt lat="49.86509" lon="4.7503">
        <ele>243</ele>
        <time>2022-06-06T08:36:45.000Z</time>
      </trkpt>
      <trkpt lat="49.86509" lon="4.7503">
        <ele>243</ele>
        <time>2022-06-06T08:36:46.000Z</time>
      </trkpt>
      <trkpt lat="49.86509" lon="4.75029">
        <ele>243</ele>
        <time>2022-06-06T08:36:47.000Z</time>
      </trkpt>
      <trkpt lat="49.86509" lon="4.75029">
        <ele>243</ele>
        <time>2022-06-06T08:36:48.000Z</time>
      </trkpt>
      <trkpt lat="49.86509" lon="4.75028">
        <ele>243</ele>
        <time>2022-06-06T08:36:49.000Z</time>
      </trkpt>
      <trkpt lat="49.8651" lon="4.75028">
        <ele>243</ele>
        <time>2022-06-06T08:36:50.000Z</time>
      </trkpt>
      <trkpt lat="49.8651" lon="4.75028">
        <ele>243</ele>
        <time>2022-06-06T08:36:51.000Z</time>
      </trkpt>
      <trkpt lat="49.86511" lon="4.75028">
        <ele>243</ele>
        <time>2022-06-06T08:36:52.000Z</time>
      </trkpt>
      <trkpt lat="49.86511" lon="4.75029">
        <ele>243</ele>
        <time>2022-06-06T08:36:53.000Z</time>
      </trkpt>
      <trkpt lat="49.86513" lon="4.7503">
        <ele>243</ele>
        <time>2022-06-06T08:36:54.000Z</time>
      </trkpt>
      <trkpt lat="49.86515" lon="4.75031">
        <ele>243</ele>
        <time>2022-06-06T08:36:55.000Z</time>
      </trkpt>
      <trkpt lat="49.86517" lon="4.75032">
        <ele>243</ele>
        <time>2022-06-06T08:36:56.000Z</time>
      </trkpt>
      <trkpt lat="49.86518" lon="4.75034">
        <ele>243</ele>
        <time>2022-06-06T08:36:57.000Z</time>
      </trkpt>
      <trkpt lat="49.86519" lon="4.75036">
        <ele>243</ele>
        <time>2022-06-06T08:36:58.000Z</time>
      </trkpt>
      <trkpt lat="49.8652" lon="4.75037">
        <ele>243</ele>
        <time>2022-06-06T08:36:59.000Z</time>
      </trkpt>
      <trkpt lat="49.86521" lon="4.75039">
        <ele>243</ele>
        <time>2022-06-06T08:37:00.000Z</time>
      </trkpt>
      <trkpt lat="49.86522" lon="4.75041">
        <ele>243</ele>
        <time>2022-06-06T08:37:01.000Z</time>
      </trkpt>
      <trkpt lat="49.86524" lon="4.75043">
        <ele>243</ele>
        <time>2022-06-06T08:37:02.000Z</time>
      </trkpt>
      <trkpt lat="49.86525" lon="4.75045">
        <ele>243</ele>
        <time>2022-06-06T08:37:03.000Z</time>
      </trkpt>
      <trkpt lat="49.86526" lon="4.75046">
        <ele>243</ele>
        <time>2022-06-06T08:37:04.000Z</time>
      </trkpt>
      <trkpt lat="49.86527" lon="4.75047">
        <ele>243</ele>
        <time>2022-06-06T08:37:05.000Z</time>
      </trkpt>
      <trkpt lat="49.86528" lon="4.75048">
        <ele>243</ele>
        <time>2022-06-06T08:37:06.000Z</time>
      </trkpt>
      <trkpt lat="49.8653" lon="4.75049">
        <ele>243</ele>
        <time>2022-06-06T08:37:07.000Z</time>
      </trkpt>
      <trkpt lat="49.86531" lon="4.75051">
        <ele>243</ele>
        <time>2022-06-06T08:37:08.000Z</time>
      </trkpt>
      <trkpt lat="49.86533" lon="4.75052">
        <ele>243</ele>
        <time>2022-06-06T08:37:09.000Z</time>
      </trkpt>
      <trkpt lat="49.86534" lon="4.75054">
        <ele>243</ele>
        <time>2022-06-06T08:37:10.000Z</time>
      </trkpt>
      <trkpt lat="49.86535" lon="4.75056">
        <ele>243</ele>
        <time>2022-06-06T08:37:11.000Z</time>
      </trkpt>
      <trkpt lat="49.86536" lon="4.75058">
        <ele>243</ele>
        <time>2022-06-06T08:37:12.000Z</time>
      </trkpt>
      <trkpt lat="49.86538" lon="4.75059">
        <ele>243</ele>
        <time>2022-06-06T08:37:13.000Z</time>
      </trkpt>
      <trkpt lat="49.86539" lon="4.7506">
        <ele>243</ele>
        <time>2022-06-06T08:37:14.000Z</time>
      </trkpt>
      <trkpt lat="49.86541" lon="4.75062">
        <ele>243</ele>
        <time>2022-06-06T08:37:15.000Z</time>
      </trkpt>
      <trkpt lat="49.86542" lon="4.75063">
        <ele>243</ele>
        <time>2022-06-06T08:37:16.000Z</time>
      </trkpt>
      <trkpt lat="49.86544" lon="4.75065">
        <ele>243</ele>
        <time>2022-06-06T08:37:17.000Z</time>
      </trkpt>
      <trkpt lat="49.86545" lon="4.75066">
        <ele>244</ele>
        <time>2022-06-06T08:37:18.000Z</time>
      </trkpt>
      <trkpt lat="49.86547" lon="4.75068">
        <ele>244</ele>
        <time>2022-06-06T08:37:19.000Z</time>
      </trkpt>
      <trkpt lat="49.86548" lon="4.7507">
        <ele>244</ele>
        <time>2022-06-06T08:37:20.000Z</time>
      </trkpt>
      <trkpt lat="49.8655" lon="4.75072">
        <ele>244</ele>
        <time>2022-06-06T08:37:21.000Z</time>
      </trkpt>
      <trkpt lat="49.86551" lon="4.75074">
        <ele>244</ele>
        <time>2022-06-06T08:37:22.000Z</time>
      </trkpt>
      <trkpt lat="49.86553" lon="4.75075">
        <ele>244</ele>
        <time>2022-06-06T08:37:23.000Z</time>
      </trkpt>
      <trkpt lat="49.86554" lon="4.75077">
        <ele>244</ele>
        <time>2022-06-06T08:37:24.000Z</time>
      </trkpt>
      <trkpt lat="49.86555" lon="4.75079">
        <ele>244</ele>
        <time>2022-06-06T08:37:25.000Z</time>
      </trkpt>
      <trkpt lat="49.86556" lon="4.7508">
        <ele>245</ele>
        <time>2022-06-06T08:37:26.000Z</time>
      </trkpt>
      <trkpt lat="49.86557" lon="4.75081">
        <ele>245</ele>
        <time>2022-06-06T08:37:27.000Z</time>
      </trkpt>
      <trkpt lat="49.86558" lon="4.75082">
        <ele>245</ele>
        <time>2022-06-06T08:37:28.000Z</time>
      </trkpt>
      <trkpt lat="49.86559" lon="4.75083">
        <ele>245</ele>
        <time>2022-06-06T08:37:29.000Z</time>
      </trkpt>
      <trkpt lat="49.86561" lon="4.75084">
        <ele>245</ele>
        <time>2022-06-06T08:37:30.000Z</time>
      </trkpt>
      <trkpt lat="49.86563" lon="4.75086">
        <ele>245</ele>
        <time>2022-06-06T08:37:31.000Z</time>
      </trkpt>
      <trkpt lat="49.86564" lon="4.75088">
        <ele>245</ele>
        <time>2022-06-06T08:37:32.000Z</time>
      </trkpt>
      <trkpt lat="49.86566" lon="4.7509">
        <ele>245</ele>
        <time>2022-06-06T08:37:33.000Z</time>
      </trkpt>
      <trkpt lat="49.86568" lon="4.75092">
        <ele>246</ele>
        <time>2022-06-06T08:37:34.000Z</time>
      </trkpt>
      <trkpt lat="49.86569" lon="4.75093">
        <ele>246</ele>
        <time>2022-06-06T08:37:35.000Z</time>
      </trkpt>
      <trkpt lat="49.8657" lon="4.75094">
        <ele>246</ele>
        <time>2022-06-06T08:37:36.000Z</time>
      </trkpt>
      <trkpt lat="49.86571" lon="4.75095">
        <ele>246</ele>
        <time>2022-06-06T08:37:37.000Z</time>
      </trkpt>
      <trkpt lat="49.86572" lon="4.75096">
        <ele>246</ele>
        <time>2022-06-06T08:37:38.000Z</time>
      </trkpt>
      <trkpt lat="49.86573" lon="4.75097">
        <ele>246</ele>
        <time>2022-06-06T08:37:39.000Z</time>
      </trkpt>
      <trkpt lat="49.86574" lon="4.75099">
        <ele>246</ele>
        <time>2022-06-06T08:37:40.000Z</time>
      </trkpt>
      <trkpt lat="49.86575" lon="4.75101">
        <ele>246</ele>
        <time>2022-06-06T08:37:41.000Z</time>
      </trkpt>
      <trkpt lat="49.86576" lon="4.75102">
        <ele>246</ele>
        <time>2022-06-06T08:37:42.000Z</time>
      </trkpt>
      <trkpt lat="49.86578" lon="4.75102">
        <ele>246</ele>
        <time>2022-06-06T08:37:43.000Z</time>
      </trkpt>
      <trkpt lat="49.86579" lon="4.75102">
        <ele>246</ele>
        <time>2022-06-06T08:37:44.000Z</time>
      </trkpt>
      <trkpt lat="49.8658" lon="4.751">
        <ele>246</ele>
        <time>2022-06-06T08:37:45.000Z</time>
      </trkpt>
      <trkpt lat="49.8658" lon="4.75099">
        <ele>246</ele>
        <time>2022-06-06T08:37:46.000Z</time>
      </trkpt>
      <trkpt lat="49.86581" lon="4.75097">
        <ele>246</ele>
        <time>2022-06-06T08:37:47.000Z</time>
      </trkpt>
      <trkpt lat="49.86582" lon="4.75095">
        <ele>246</ele>
        <time>2022-06-06T08:37:48.000Z</time>
      </trkpt>
      <trkpt lat="49.86582" lon="4.75093">
        <ele>246</ele>
        <time>2022-06-06T08:37:49.000Z</time>
      </trkpt>
      <trkpt lat="49.86582" lon="4.75091">
        <ele>246</ele>
        <time>2022-06-06T08:37:50.000Z</time>
      </trkpt>
      <trkpt lat="49.86582" lon="4.75088">
        <ele>246</ele>
        <time>2022-06-06T08:37:51.000Z</time>
      </trkpt>
      <trkpt lat="49.86581" lon="4.75086">
        <ele>246</ele>
        <time>2022-06-06T08:37:52.000Z</time>
      </trkpt>
      <trkpt lat="49.86581" lon="4.75084">
        <ele>246</ele>
        <time>2022-06-06T08:37:53.000Z</time>
      </trkpt>
      <trkpt lat="49.86581" lon="4.75083">
        <ele>246</ele>
        <time>2022-06-06T08:37:54.000Z</time>
      </trkpt>
      <trkpt lat="49.8658" lon="4.7508">
        <ele>246</ele>
        <time>2022-06-06T08:37:55.000Z</time>
      </trkpt>
      <trkpt lat="49.8658" lon="4.75078">
        <ele>246</ele>
        <time>2022-06-06T08:37:56.000Z</time>
      </trkpt>
      <trkpt lat="49.8658" lon="4.75075">
        <ele>246</ele>
        <time>2022-06-06T08:37:57.000Z</time>
      </trkpt>
      <trkpt lat="49.86581" lon="4.75073">
        <ele>246</ele>
        <time>2022-06-06T08:37:58.000Z</time>
      </trkpt>
      <trkpt lat="49.8658" lon="4.75071">
        <ele>246</ele>
        <time>2022-06-06T08:37:59.000Z</time>
      </trkpt>
      <trkpt lat="49.8658" lon="4.75069">
        <ele>246</ele>
        <time>2022-06-06T08:38:00.000Z</time>
      </trkpt>
      <trkpt lat="49.8658" lon="4.75066">
        <ele>246</ele>
        <time>2022-06-06T08:38:01.000Z</time>
      </trkpt>
      <trkpt lat="49.86579" lon="4.75063">
        <ele>246</ele>
        <time>2022-06-06T08:38:02.000Z</time>
      </trkpt>
      <trkpt lat="49.86579" lon="4.75061">
        <ele>246</ele>
        <time>2022-06-06T08:38:03.000Z</time>
      </trkpt>
      <trkpt lat="49.86578" lon="4.75058">
        <ele>246</ele>
        <time>2022-06-06T08:38:04.000Z</time>
      </trkpt>
      <trkpt lat="49.86578" lon="4.75054">
        <ele>246</ele>
        <time>2022-06-06T08:38:05.000Z</time>
      </trkpt>
      <trkpt lat="49.86578" lon="4.75051">
        <ele>246</ele>
        <time>2022-06-06T08:38:06.000Z</time>
      </trkpt>
      <trkpt lat="49.86578" lon="4.75048">
        <ele>246</ele>
        <time>2022-06-06T08:38:07.000Z</time>
      </trkpt>
      <trkpt lat="49.86578" lon="4.75045">
        <ele>246</ele>
        <time>2022-06-06T08:38:08.000Z</time>
      </trkpt>
      <trkpt lat="49.86577" lon="4.75042">
        <ele>246</ele>
        <time>2022-06-06T08:38:09.000Z</time>
      </trkpt>
      <trkpt lat="49.86577" lon="4.75039">
        <ele>246</ele>
        <time>2022-06-06T08:38:10.000Z</time>
      </trkpt>
      <trkpt lat="49.86577" lon="4.75037">
        <ele>246</ele>
        <time>2022-06-06T08:38:11.000Z</time>
      </trkpt>
      <trkpt lat="49.86576" lon="4.75034">
        <ele>246</ele>
        <time>2022-06-06T08:38:12.000Z</time>
      </trkpt>
      <trkpt lat="49.86575" lon="4.7503">
        <ele>246</ele>
        <time>2022-06-06T08:38:13.000Z</time>
      </trkpt>
      <trkpt lat="49.86574" lon="4.75027">
        <ele>246</ele>
        <time>2022-06-06T08:38:14.000Z</time>
      </trkpt>
      <trkpt lat="49.86572" lon="4.75024">
        <ele>246</ele>
        <time>2022-06-06T08:38:15.000Z</time>
      </trkpt>
      <trkpt lat="49.86571" lon="4.7502">
        <ele>246</ele>
        <time>2022-06-06T08:38:16.000Z</time>
      </trkpt>
      <trkpt lat="49.8657" lon="4.75016">
        <ele>246</ele>
        <time>2022-06-06T08:38:17.000Z</time>
      </trkpt>
      <trkpt lat="49.86569" lon="4.75012">
        <ele>246</ele>
        <time>2022-06-06T08:38:18.000Z</time>
      </trkpt>
      <trkpt lat="49.86568" lon="4.75008">
        <ele>246</ele>
        <time>2022-06-06T08:38:19.000Z</time>
      </trkpt>
      <trkpt lat="49.86568" lon="4.75004">
        <ele>246</ele>
        <time>2022-06-06T08:38:20.000Z</time>
      </trkpt>
      <trkpt lat="49.86567" lon="4.75001">
        <ele>246</ele>
        <time>2022-06-06T08:38:21.000Z</time>
      </trkpt>
      <trkpt lat="49.86567" lon="4.74998">
        <ele>246</ele>
        <time>2022-06-06T08:38:22.000Z</time>
      </trkpt>
      <trkpt lat="49.86566" lon="4.74994">
        <ele>246</ele>
        <time>2022-06-06T08:38:23.000Z</time>
      </trkpt>
      <trkpt lat="49.86566" lon="4.7499">
        <ele>246</ele>
        <time>2022-06-06T08:38:24.000Z</time>
      </trkpt>
      <trkpt lat="49.86565" lon="4.74986">
        <ele>246</ele>
        <time>2022-06-06T08:38:25.000Z</time>
      </trkpt>
      <trkpt lat="49.86564" lon="4.74981">
        <ele>246</ele>
        <time>2022-06-06T08:38:26.000Z</time>
      </trkpt>
      <trkpt lat="49.86564" lon="4.74977">
        <ele>246</ele>
        <time>2022-06-06T08:38:27.000Z</time>
      </trkpt>
      <trkpt lat="49.86563" lon="4.74972">
        <ele>246</ele>
        <time>2022-06-06T08:38:28.000Z</time>
      </trkpt>
      <trkpt lat="49.86562" lon="4.74968">
        <ele>246</ele>
        <time>2022-06-06T08:38:29.000Z</time>
      </trkpt>
      <trkpt lat="49.86562" lon="4.74964">
        <ele>246</ele>
        <time>2022-06-06T08:38:30.000Z</time>
      </trkpt>
      <trkpt lat="49.86561" lon="4.7496">
        <ele>246</ele>
        <time>2022-06-06T08:38:31.000Z</time>
      </trkpt>
      <trkpt lat="49.8656" lon="4.74956">
        <ele>246</ele>
        <time>2022-06-06T08:38:32.000Z</time>
      </trkpt>
      <trkpt lat="49.86559" lon="4.74952">
        <ele>246</ele>
        <time>2022-06-06T08:38:33.000Z</time>
      </trkpt>
      <trkpt lat="49.86558" lon="4.74949">
        <ele>246</ele>
        <time>2022-06-06T08:38:34.000Z</time>
      </trkpt>
      <trkpt lat="49.86557" lon="4.74945">
        <ele>246</ele>
        <time>2022-06-06T08:38:35.000Z</time>
      </trkpt>
      <trkpt lat="49.86556" lon="4.7494">
        <ele>246</ele>
        <time>2022-06-06T08:38:36.000Z</time>
      </trkpt>
      <trkpt lat="49.86555" lon="4.74936">
        <ele>246</ele>
        <time>2022-06-06T08:38:37.000Z</time>
      </trkpt>
      <trkpt lat="49.86554" lon="4.74933">
        <ele>246</ele>
        <time>2022-06-06T08:38:38.000Z</time>
      </trkpt>
      <trkpt lat="49.86552" lon="4.74928">
        <ele>246</ele>
        <time>2022-06-06T08:38:39.000Z</time>
      </trkpt>
      <trkpt lat="49.86551" lon="4.74925">
        <ele>246</ele>
        <time>2022-06-06T08:38:40.000Z</time>
      </trkpt>
      <trkpt lat="49.8655" lon="4.7492">
        <ele>246</ele>
        <time>2022-06-06T08:38:41.000Z</time>
      </trkpt>
      <trkpt lat="49.86548" lon="4.74917">
        <ele>246</ele>
        <time>2022-06-06T08:38:42.000Z</time>
      </trkpt>
      <trkpt lat="49.86546" lon="4.74914">
        <ele>246</ele>
        <time>2022-06-06T08:38:43.000Z</time>
      </trkpt>
      <trkpt lat="49.86545" lon="4.74912">
        <ele>246</ele>
        <time>2022-06-06T08:38:44.000Z</time>
      </trkpt>
      <trkpt lat="49.86543" lon="4.7491">
        <ele>246</ele>
        <time>2022-06-06T08:38:45.000Z</time>
      </trkpt>
      <trkpt lat="49.86542" lon="4.74909">
        <ele>246</ele>
        <time>2022-06-06T08:38:46.000Z</time>
      </trkpt>
      <trkpt lat="49.86541" lon="4.74907">
        <ele>246</ele>
        <time>2022-06-06T08:38:47.000Z</time>
      </trkpt>
      <trkpt lat="49.8654" lon="4.74905">
        <ele>246</ele>
        <time>2022-06-06T08:38:48.000Z</time>
      </trkpt>
      <trkpt lat="49.86539" lon="4.74903">
        <ele>246</ele>
        <time>2022-06-06T08:38:49.000Z</time>
      </trkpt>
      <trkpt lat="49.86538" lon="4.74901">
        <ele>246</ele>
        <time>2022-06-06T08:38:50.000Z</time>
      </trkpt>
      <trkpt lat="49.86538" lon="4.749">
        <ele>246</ele>
        <time>2022-06-06T08:38:51.000Z</time>
      </trkpt>
      <trkpt lat="49.86537" lon="4.74899">
        <ele>245</ele>
        <time>2022-06-06T08:38:52.000Z</time>
      </trkpt>
      <trkpt lat="49.86537" lon="4.74897">
        <ele>245</ele>
        <time>2022-06-06T08:38:53.000Z</time>
      </trkpt>
      <trkpt lat="49.86536" lon="4.74895">
        <ele>245</ele>
        <time>2022-06-06T08:38:54.000Z</time>
      </trkpt>
      <trkpt lat="49.86535" lon="4.74893">
        <ele>245</ele>
        <time>2022-06-06T08:38:55.000Z</time>
      </trkpt>
      <trkpt lat="49.86535" lon="4.74891">
        <ele>245</ele>
        <time>2022-06-06T08:38:56.000Z</time>
      </trkpt>
      <trkpt lat="49.86535" lon="4.74888">
        <ele>245</ele>
        <time>2022-06-06T08:38:57.000Z</time>
      </trkpt>
      <trkpt lat="49.86534" lon="4.74886">
        <ele>245</ele>
        <time>2022-06-06T08:38:58.000Z</time>
      </trkpt>
      <trkpt lat="49.86534" lon="4.74883">
        <ele>245</ele>
        <time>2022-06-06T08:38:59.000Z</time>
      </trkpt>
      <trkpt lat="49.86534" lon="4.7488">
        <ele>245</ele>
        <time>2022-06-06T08:39:00.000Z</time>
      </trkpt>
      <trkpt lat="49.86534" lon="4.74877">
        <ele>245</ele>
        <time>2022-06-06T08:39:01.000Z</time>
      </trkpt>
      <trkpt lat="49.86535" lon="4.74874">
        <ele>245</ele>
        <time>2022-06-06T08:39:02.000Z</time>
      </trkpt>
      <trkpt lat="49.86535" lon="4.74872">
        <ele>245</ele>
        <time>2022-06-06T08:39:03.000Z</time>
      </trkpt>
      <trkpt lat="49.86536" lon="4.74869">
        <ele>245</ele>
        <time>2022-06-06T08:39:04.000Z</time>
      </trkpt>
      <trkpt lat="49.86536" lon="4.74867">
        <ele>244</ele>
        <time>2022-06-06T08:39:05.000Z</time>
      </trkpt>
      <trkpt lat="49.86537" lon="4.74865">
        <ele>244</ele>
        <time>2022-06-06T08:39:06.000Z</time>
      </trkpt>
      <trkpt lat="49.86536" lon="4.74863">
        <ele>244</ele>
        <time>2022-06-06T08:39:07.000Z</time>
      </trkpt>
      <trkpt lat="49.86536" lon="4.7486">
        <ele>244</ele>
        <time>2022-06-06T08:39:08.000Z</time>
      </trkpt>
      <trkpt lat="49.86536" lon="4.74858">
        <ele>244</ele>
        <time>2022-06-06T08:39:09.000Z</time>
      </trkpt>
      <trkpt lat="49.86536" lon="4.74856">
        <ele>244</ele>
        <time>2022-06-06T08:39:10.000Z</time>
      </trkpt>
      <trkpt lat="49.86536" lon="4.74854">
        <ele>244</ele>
        <time>2022-06-06T08:39:11.000Z</time>
      </trkpt>
      <trkpt lat="49.86536" lon="4.74852">
        <ele>244</ele>
        <time>2022-06-06T08:39:12.000Z</time>
      </trkpt>
      <trkpt lat="49.86536" lon="4.7485">
        <ele>244</ele>
        <time>2022-06-06T08:39:13.000Z</time>
      </trkpt>
      <trkpt lat="49.86535" lon="4.74847">
        <ele>244</ele>
        <time>2022-06-06T08:39:14.000Z</time>
      </trkpt>
      <trkpt lat="49.86535" lon="4.74844">
        <ele>245</ele>
        <time>2022-06-06T08:39:15.000Z</time>
      </trkpt>
      <trkpt lat="49.86534" lon="4.74841">
        <ele>245</ele>
        <time>2022-06-06T08:39:16.000Z</time>
      </trkpt>
      <trkpt lat="49.86534" lon="4.74838">
        <ele>245</ele>
        <time>2022-06-06T08:39:17.000Z</time>
      </trkpt>
      <trkpt lat="49.86534" lon="4.74835">
        <ele>245</ele>
        <time>2022-06-06T08:39:18.000Z</time>
      </trkpt>
      <trkpt lat="49.86534" lon="4.74832">
        <ele>245</ele>
        <time>2022-06-06T08:39:19.000Z</time>
      </trkpt>
      <trkpt lat="49.86534" lon="4.74829">
        <ele>245</ele>
        <time>2022-06-06T08:39:20.000Z</time>
      </trkpt>
      <trkpt lat="49.86534" lon="4.74826">
        <ele>245</ele>
        <time>2022-06-06T08:39:21.000Z</time>
      </trkpt>
      <trkpt lat="49.86534" lon="4.74823">
        <ele>245</ele>
        <time>2022-06-06T08:39:22.000Z</time>
      </trkpt>
      <trkpt lat="49.86534" lon="4.7482">
        <ele>246</ele>
        <time>2022-06-06T08:39:23.000Z</time>
      </trkpt>
      <trkpt lat="49.86534" lon="4.74817">
        <ele>246</ele>
        <time>2022-06-06T08:39:24.000Z</time>
      </trkpt>
      <trkpt lat="49.86535" lon="4.74814">
        <ele>246</ele>
        <time>2022-06-06T08:39:25.000Z</time>
      </trkpt>
      <trkpt lat="49.86535" lon="4.74811">
        <ele>246</ele>
        <time>2022-06-06T08:39:26.000Z</time>
      </trkpt>
      <trkpt lat="49.86536" lon="4.74809">
        <ele>246</ele>
        <time>2022-06-06T08:39:27.000Z</time>
      </trkpt>
      <trkpt lat="49.86536" lon="4.74807">
        <ele>246</ele>
        <time>2022-06-06T08:39:28.000Z</time>
      </trkpt>
      <trkpt lat="49.86537" lon="4.74804">
        <ele>246</ele>
        <time>2022-06-06T08:39:29.000Z</time>
      </trkpt>
      <trkpt lat="49.86537" lon="4.74802">
        <ele>246</ele>
        <time>2022-06-06T08:39:30.000Z</time>
      </trkpt>
      <trkpt lat="49.86538" lon="4.74799">
        <ele>246</ele>
        <time>2022-06-06T08:39:31.000Z</time>
      </trkpt>
      <trkpt lat="49.86538" lon="4.74797">
        <ele>246</ele>
        <time>2022-06-06T08:39:32.000Z</time>
      </trkpt>
      <trkpt lat="49.86539" lon="4.74795">
        <ele>246</ele>
        <time>2022-06-06T08:39:33.000Z</time>
      </trkpt>
      <trkpt lat="49.86539" lon="4.74792">
        <ele>246</ele>
        <time>2022-06-06T08:39:34.000Z</time>
      </trkpt>
      <trkpt lat="49.86539" lon="4.74788">
        <ele>246</ele>
        <time>2022-06-06T08:39:35.000Z</time>
      </trkpt>
      <trkpt lat="49.86539" lon="4.74785">
        <ele>246</ele>
        <time>2022-06-06T08:39:36.000Z</time>
      </trkpt>
      <trkpt lat="49.86539" lon="4.74782">
        <ele>246</ele>
        <time>2022-06-06T08:39:37.000Z</time>
      </trkpt>
      <trkpt lat="49.86539" lon="4.7478">
        <ele>246</ele>
        <time>2022-06-06T08:39:38.000Z</time>
      </trkpt>
      <trkpt lat="49.86538" lon="4.74777">
        <ele>246</ele>
        <time>2022-06-06T08:39:39.000Z</time>
      </trkpt>
      <trkpt lat="49.86538" lon="4.74775">
        <ele>247</ele>
        <time>2022-06-06T08:39:40.000Z</time>
      </trkpt>
      <trkpt lat="49.86538" lon="4.74772">
        <ele>247</ele>
        <time>2022-06-06T08:39:41.000Z</time>
      </trkpt>
      <trkpt lat="49.86538" lon="4.74769">
        <ele>247</ele>
        <time>2022-06-06T08:39:42.000Z</time>
      </trkpt>
      <trkpt lat="49.86538" lon="4.74767">
        <ele>247</ele>
        <time>2022-06-06T08:39:43.000Z</time>
      </trkpt>
      <trkpt lat="49.86537" lon="4.74764">
        <ele>247</ele>
        <time>2022-06-06T08:39:44.000Z</time>
      </trkpt>
      <trkpt lat="49.86537" lon="4.74762">
        <ele>247</ele>
        <time>2022-06-06T08:39:45.000Z</time>
      </trkpt>
      <trkpt lat="49.86536" lon="4.74759">
        <ele>247</ele>
        <time>2022-06-06T08:39:46.000Z</time>
      </trkpt>
      <trkpt lat="49.86536" lon="4.74756">
        <ele>247</ele>
        <time>2022-06-06T08:39:47.000Z</time>
      </trkpt>
      <trkpt lat="49.86536" lon="4.74753">
        <ele>248</ele>
        <time>2022-06-06T08:39:48.000Z</time>
      </trkpt>
      <trkpt lat="49.86536" lon="4.7475">
        <ele>248</ele>
        <time>2022-06-06T08:39:49.000Z</time>
      </trkpt>
      <trkpt lat="49.86536" lon="4.74747">
        <ele>248</ele>
        <time>2022-06-06T08:39:50.000Z</time>
      </trkpt>
      <trkpt lat="49.86535" lon="4.74744">
        <ele>248</ele>
        <time>2022-06-06T08:39:51.000Z</time>
      </trkpt>
      <trkpt lat="49.86535" lon="4.74742">
        <ele>248</ele>
        <time>2022-06-06T08:39:52.000Z</time>
      </trkpt>
      <trkpt lat="49.86535" lon="4.74739">
        <ele>248</ele>
        <time>2022-06-06T08:39:53.000Z</time>
      </trkpt>
      <trkpt lat="49.86535" lon="4.74736">
        <ele>248</ele>
        <time>2022-06-06T08:39:54.000Z</time>
      </trkpt>
      <trkpt lat="49.86535" lon="4.74733">
        <ele>249</ele>
        <time>2022-06-06T08:39:55.000Z</time>
      </trkpt>
      <trkpt lat="49.86535" lon="4.74731">
        <ele>249</ele>
        <time>2022-06-06T08:39:56.000Z</time>
      </trkpt>
      <trkpt lat="49.86535" lon="4.74728">
        <ele>249</ele>
        <time>2022-06-06T08:39:57.000Z</time>
      </trkpt>
      <trkpt lat="49.86535" lon="4.74725">
        <ele>249</ele>
        <time>2022-06-06T08:39:58.000Z</time>
      </trkpt>
      <trkpt lat="49.86534" lon="4.74723">
        <ele>249</ele>
        <time>2022-06-06T08:39:59.000Z</time>
      </trkpt>
      <trkpt lat="49.86534" lon="4.7472">
        <ele>249</ele>
        <time>2022-06-06T08:40:00.000Z</time>
      </trkpt>
      <trkpt lat="49.86534" lon="4.74717">
        <ele>250</ele>
        <time>2022-06-06T08:40:01.000Z</time>
      </trkpt>
      <trkpt lat="49.86534" lon="4.74714">
        <ele>250</ele>
        <time>2022-06-06T08:40:02.000Z</time>
      </trkpt>
      <trkpt lat="49.86533" lon="4.7471">
        <ele>250</ele>
        <time>2022-06-06T08:40:03.000Z</time>
      </trkpt>
      <trkpt lat="49.86534" lon="4.74707">
        <ele>250</ele>
        <time>2022-06-06T08:40:04.000Z</time>
      </trkpt>
      <trkpt lat="49.86533" lon="4.74703">
        <ele>250</ele>
        <time>2022-06-06T08:40:05.000Z</time>
      </trkpt>
      <trkpt lat="49.86533" lon="4.74699">
        <ele>250</ele>
        <time>2022-06-06T08:40:06.000Z</time>
      </trkpt>
      <trkpt lat="49.86534" lon="4.74696">
        <ele>250</ele>
        <time>2022-06-06T08:40:07.000Z</time>
      </trkpt>
      <trkpt lat="49.86535" lon="4.74693">
        <ele>251</ele>
        <time>2022-06-06T08:40:08.000Z</time>
      </trkpt>
      <trkpt lat="49.86535" lon="4.74691">
        <ele>251</ele>
        <time>2022-06-06T08:40:09.000Z</time>
      </trkpt>
      <trkpt lat="49.86536" lon="4.74688">
        <ele>251</ele>
        <time>2022-06-06T08:40:10.000Z</time>
      </trkpt>
      <trkpt lat="49.86537" lon="4.74685">
        <ele>251</ele>
        <time>2022-06-06T08:40:11.000Z</time>
      </trkpt>
      <trkpt lat="49.86537" lon="4.74682">
        <ele>251</ele>
        <time>2022-06-06T08:40:12.000Z</time>
      </trkpt>
      <trkpt lat="49.86538" lon="4.74679">
        <ele>251</ele>
        <time>2022-06-06T08:40:13.000Z</time>
      </trkpt>
      <trkpt lat="49.86538" lon="4.74676">
        <ele>251</ele>
        <time>2022-06-06T08:40:14.000Z</time>
      </trkpt>
      <trkpt lat="49.86539" lon="4.74673">
        <ele>251</ele>
        <time>2022-06-06T08:40:15.000Z</time>
      </trkpt>
      <trkpt lat="49.8654" lon="4.7467">
        <ele>252</ele>
        <time>2022-06-06T08:40:16.000Z</time>
      </trkpt>
      <trkpt lat="49.8654" lon="4.74666">
        <ele>252</ele>
        <time>2022-06-06T08:40:17.000Z</time>
      </trkpt>
      <trkpt lat="49.8654" lon="4.74663">
        <ele>252</ele>
        <time>2022-06-06T08:40:18.000Z</time>
      </trkpt>
      <trkpt lat="49.86541" lon="4.7466">
        <ele>252</ele>
        <time>2022-06-06T08:40:19.000Z</time>
      </trkpt>
      <trkpt lat="49.86541" lon="4.74657">
        <ele>253</ele>
        <time>2022-06-06T08:40:20.000Z</time>
      </trkpt>
      <trkpt lat="49.86541" lon="4.74655">
        <ele>253</ele>
        <time>2022-06-06T08:40:21.000Z</time>
      </trkpt>
      <trkpt lat="49.86541" lon="4.74652">
        <ele>253</ele>
        <time>2022-06-06T08:40:22.000Z</time>
      </trkpt>
      <trkpt lat="49.86541" lon="4.74649">
        <ele>254</ele>
        <time>2022-06-06T08:40:23.000Z</time>
      </trkpt>
      <trkpt lat="49.86542" lon="4.74647">
        <ele>254</ele>
        <time>2022-06-06T08:40:24.000Z</time>
      </trkpt>
      <trkpt lat="49.86542" lon="4.74645">
        <ele>255</ele>
        <time>2022-06-06T08:40:25.000Z</time>
      </trkpt>
      <trkpt lat="49.86542" lon="4.74642">
        <ele>255</ele>
        <time>2022-06-06T08:40:26.000Z</time>
      </trkpt>
      <trkpt lat="49.86542" lon="4.74639">
        <ele>255</ele>
        <time>2022-06-06T08:40:27.000Z</time>
      </trkpt>
      <trkpt lat="49.86543" lon="4.74637">
        <ele>256</ele>
        <time>2022-06-06T08:40:28.000Z</time>
      </trkpt>
      <trkpt lat="49.86543" lon="4.74635">
        <ele>256</ele>
        <time>2022-06-06T08:40:29.000Z</time>
      </trkpt>
      <trkpt lat="49.86544" lon="4.74632">
        <ele>256</ele>
        <time>2022-06-06T08:40:30.000Z</time>
      </trkpt>
      <trkpt lat="49.86545" lon="4.7463">
        <ele>257</ele>
        <time>2022-06-06T08:40:31.000Z</time>
      </trkpt>
      <trkpt lat="49.86546" lon="4.74627">
        <ele>257</ele>
        <time>2022-06-06T08:40:32.000Z</time>
      </trkpt>
      <trkpt lat="49.86547" lon="4.74624">
        <ele>257</ele>
        <time>2022-06-06T08:40:33.000Z</time>
      </trkpt>
      <trkpt lat="49.86547" lon="4.74621">
        <ele>257</ele>
        <time>2022-06-06T08:40:34.000Z</time>
      </trkpt>
      <trkpt lat="49.86547" lon="4.74619">
        <ele>257</ele>
        <time>2022-06-06T08:40:35.000Z</time>
      </trkpt>
      <trkpt lat="49.86548" lon="4.74616">
        <ele>258</ele>
        <time>2022-06-06T08:40:36.000Z</time>
      </trkpt>
      <trkpt lat="49.86549" lon="4.74613">
        <ele>258</ele>
        <time>2022-06-06T08:40:37.000Z</time>
      </trkpt>
      <trkpt lat="49.86549" lon="4.7461">
        <ele>258</ele>
        <time>2022-06-06T08:40:38.000Z</time>
      </trkpt>
      <trkpt lat="49.86549" lon="4.74607">
        <ele>258</ele>
        <time>2022-06-06T08:40:39.000Z</time>
      </trkpt>
      <trkpt lat="49.8655" lon="4.74603">
        <ele>258</ele>
        <time>2022-06-06T08:40:40.000Z</time>
      </trkpt>
      <trkpt lat="49.86549" lon="4.746">
        <ele>259</ele>
        <time>2022-06-06T08:40:41.000Z</time>
      </trkpt>
      <trkpt lat="49.86549" lon="4.74597">
        <ele>259</ele>
        <time>2022-06-06T08:40:42.000Z</time>
      </trkpt>
      <trkpt lat="49.86549" lon="4.74595">
        <ele>259</ele>
        <time>2022-06-06T08:40:43.000Z</time>
      </trkpt>
      <trkpt lat="49.86549" lon="4.74592">
        <ele>259</ele>
        <time>2022-06-06T08:40:44.000Z</time>
      </trkpt>
      <trkpt lat="49.86549" lon="4.7459">
        <ele>260</ele>
        <time>2022-06-06T08:40:45.000Z</time>
      </trkpt>
      <trkpt lat="49.86548" lon="4.74587">
        <ele>260</ele>
        <time>2022-06-06T08:40:46.000Z</time>
      </trkpt>
      <trkpt lat="49.86548" lon="4.74583">
        <ele>260</ele>
        <time>2022-06-06T08:40:47.000Z</time>
      </trkpt>
      <trkpt lat="49.86548" lon="4.7458">
        <ele>260</ele>
        <time>2022-06-06T08:40:48.000Z</time>
      </trkpt>
      <trkpt lat="49.86548" lon="4.74578">
        <ele>261</ele>
        <time>2022-06-06T08:40:49.000Z</time>
      </trkpt>
      <trkpt lat="49.86547" lon="4.74576">
        <ele>261</ele>
        <time>2022-06-06T08:40:50.000Z</time>
      </trkpt>
      <trkpt lat="49.86547" lon="4.74573">
        <ele>261</ele>
        <time>2022-06-06T08:40:51.000Z</time>
      </trkpt>
      <trkpt lat="49.86547" lon="4.74571">
        <ele>261</ele>
        <time>2022-06-06T08:40:52.000Z</time>
      </trkpt>
      <trkpt lat="49.86546" lon="4.74569">
        <ele>262</ele>
        <time>2022-06-06T08:40:53.000Z</time>
      </trkpt>
      <trkpt lat="49.86545" lon="4.74567">
        <ele>262</ele>
        <time>2022-06-06T08:40:54.000Z</time>
      </trkpt>
      <trkpt lat="49.86545" lon="4.74564">
        <ele>262</ele>
        <time>2022-06-06T08:40:55.000Z</time>
      </trkpt>
      <trkpt lat="49.86545" lon="4.74561">
        <ele>263</ele>
        <time>2022-06-06T08:40:56.000Z</time>
      </trkpt>
      <trkpt lat="49.86546" lon="4.74559">
        <ele>263</ele>
        <time>2022-06-06T08:40:57.000Z</time>
      </trkpt>
      <trkpt lat="49.86547" lon="4.74558">
        <ele>263</ele>
        <time>2022-06-06T08:40:58.000Z</time>
      </trkpt>
      <trkpt lat="49.86548" lon="4.74557">
        <ele>264</ele>
        <time>2022-06-06T08:40:59.000Z</time>
      </trkpt>
      <trkpt lat="49.8655" lon="4.74555">
        <ele>264</ele>
        <time>2022-06-06T08:41:00.000Z</time>
      </trkpt>
      <trkpt lat="49.86551" lon="4.74554">
        <ele>264</ele>
        <time>2022-06-06T08:41:01.000Z</time>
      </trkpt>
      <trkpt lat="49.86552" lon="4.74552">
        <ele>265</ele>
        <time>2022-06-06T08:41:02.000Z</time>
      </trkpt>
      <trkpt lat="49.86553" lon="4.7455">
        <ele>265</ele>
        <time>2022-06-06T08:41:03.000Z</time>
      </trkpt>
      <trkpt lat="49.86553" lon="4.7455">
        <ele>265</ele>
        <time>2022-06-06T08:41:04.000Z</time>
      </trkpt>
      <trkpt lat="49.86553" lon="4.74549">
        <ele>266</ele>
        <time>2022-06-06T08:41:05.000Z</time>
      </trkpt>
      <trkpt lat="49.86553" lon="4.74549">
        <ele>266</ele>
        <time>2022-06-06T08:41:06.000Z</time>
      </trkpt>
      <trkpt lat="49.86553" lon="4.74549">
        <ele>266</ele>
        <time>2022-06-06T08:41:07.000Z</time>
      </trkpt>
      <trkpt lat="49.86554" lon="4.74548">
        <ele>266</ele>
        <time>2022-06-06T08:41:08.000Z</time>
      </trkpt>
      <trkpt lat="49.86555" lon="4.74548">
        <ele>267</ele>
        <time>2022-06-06T08:41:09.000Z</time>
      </trkpt>
      <trkpt lat="49.86556" lon="4.74548">
        <ele>267</ele>
        <time>2022-06-06T08:41:10.000Z</time>
      </trkpt>
      <trkpt lat="49.86557" lon="4.74548">
        <ele>267</ele>
        <time>2022-06-06T08:41:11.000Z</time>
      </trkpt>
      <trkpt lat="49.86558" lon="4.74548">
        <ele>267</ele>
        <time>2022-06-06T08:41:12.000Z</time>
      </trkpt>
      <trkpt lat="49.8656" lon="4.74548">
        <ele>268</ele>
        <time>2022-06-06T08:41:13.000Z</time>
      </trkpt>
      <trkpt lat="49.86561" lon="4.74549">
        <ele>268</ele>
        <time>2022-06-06T08:41:14.000Z</time>
      </trkpt>
      <trkpt lat="49.86562" lon="4.74549">
        <ele>268</ele>
        <time>2022-06-06T08:41:15.000Z</time>
      </trkpt>
      <trkpt lat="49.86564" lon="4.74549">
        <ele>268</ele>
        <time>2022-06-06T08:41:16.000Z</time>
      </trkpt>
      <trkpt lat="49.86566" lon="4.7455">
        <ele>269</ele>
        <time>2022-06-06T08:41:17.000Z</time>
      </trkpt>
      <trkpt lat="49.86567" lon="4.74551">
        <ele>269</ele>
        <time>2022-06-06T08:41:18.000Z</time>
      </trkpt>
      <trkpt lat="49.86569" lon="4.74551">
        <ele>269</ele>
        <time>2022-06-06T08:41:19.000Z</time>
      </trkpt>
      <trkpt lat="49.86572" lon="4.74551">
        <ele>269</ele>
        <time>2022-06-06T08:41:20.000Z</time>
      </trkpt>
      <trkpt lat="49.86576" lon="4.74551">
        <ele>269</ele>
        <time>2022-06-06T08:41:21.000Z</time>
      </trkpt>
      <trkpt lat="49.8658" lon="4.7455">
        <ele>269</ele>
        <time>2022-06-06T08:41:22.000Z</time>
      </trkpt>
      <trkpt lat="49.86583" lon="4.74551">
        <ele>270</ele>
        <time>2022-06-06T08:41:23.000Z</time>
      </trkpt>
      <trkpt lat="49.86587" lon="4.74552">
        <ele>270</ele>
        <time>2022-06-06T08:41:24.000Z</time>
      </trkpt>
      <trkpt lat="49.86592" lon="4.74552">
        <ele>270</ele>
        <time>2022-06-06T08:41:25.000Z</time>
      </trkpt>
      <trkpt lat="49.86596" lon="4.74552">
        <ele>271</ele>
        <time>2022-06-06T08:41:26.000Z</time>
      </trkpt>
      <trkpt lat="49.866" lon="4.74554">
        <ele>271</ele>
        <time>2022-06-06T08:41:27.000Z</time>
      </trkpt>
      <trkpt lat="49.86604" lon="4.74556">
        <ele>271</ele>
        <time>2022-06-06T08:41:28.000Z</time>
      </trkpt>
      <trkpt lat="49.86608" lon="4.74558">
        <ele>271</ele>
        <time>2022-06-06T08:41:29.000Z</time>
      </trkpt>
      <trkpt lat="49.86611" lon="4.74561">
        <ele>272</ele>
        <time>2022-06-06T08:41:30.000Z</time>
      </trkpt>
      <trkpt lat="49.86615" lon="4.74563">
        <ele>272</ele>
        <time>2022-06-06T08:41:31.000Z</time>
      </trkpt>
      <trkpt lat="49.86618" lon="4.74565">
        <ele>272</ele>
        <time>2022-06-06T08:41:32.000Z</time>
      </trkpt>
      <trkpt lat="49.86622" lon="4.74567">
        <ele>272</ele>
        <time>2022-06-06T08:41:33.000Z</time>
      </trkpt>
      <trkpt lat="49.86626" lon="4.74567">
        <ele>272</ele>
        <time>2022-06-06T08:41:34.000Z</time>
      </trkpt>
      <trkpt lat="49.86629" lon="4.74567">
        <ele>272</ele>
        <time>2022-06-06T08:41:35.000Z</time>
      </trkpt>
      <trkpt lat="49.86631" lon="4.74566">
        <ele>272</ele>
        <time>2022-06-06T08:41:36.000Z</time>
      </trkpt>
      <trkpt lat="49.86634" lon="4.74565">
        <ele>272</ele>
        <time>2022-06-06T08:41:37.000Z</time>
      </trkpt>
      <trkpt lat="49.86636" lon="4.74563">
        <ele>273</ele>
        <time>2022-06-06T08:41:38.000Z</time>
      </trkpt>
      <trkpt lat="49.86638" lon="4.74562">
        <ele>273</ele>
        <time>2022-06-06T08:41:39.000Z</time>
      </trkpt>
      <trkpt lat="49.8664" lon="4.74562">
        <ele>273</ele>
        <time>2022-06-06T08:41:40.000Z</time>
      </trkpt>
      <trkpt lat="49.86643" lon="4.74561">
        <ele>273</ele>
        <time>2022-06-06T08:41:41.000Z</time>
      </trkpt>
      <trkpt lat="49.86646" lon="4.7456">
        <ele>273</ele>
        <time>2022-06-06T08:41:42.000Z</time>
      </trkpt>
      <trkpt lat="49.86648" lon="4.7456">
        <ele>273</ele>
        <time>2022-06-06T08:41:43.000Z</time>
      </trkpt>
      <trkpt lat="49.86651" lon="4.7456">
        <ele>273</ele>
        <time>2022-06-06T08:41:44.000Z</time>
      </trkpt>
      <trkpt lat="49.86654" lon="4.7456">
        <ele>274</ele>
        <time>2022-06-06T08:41:45.000Z</time>
      </trkpt>
      <trkpt lat="49.86657" lon="4.74561">
        <ele>274</ele>
        <time>2022-06-06T08:41:46.000Z</time>
      </trkpt>
      <trkpt lat="49.8666" lon="4.74562">
        <ele>274</ele>
        <time>2022-06-06T08:41:47.000Z</time>
      </trkpt>
      <trkpt lat="49.86663" lon="4.74563">
        <ele>274</ele>
        <time>2022-06-06T08:41:48.000Z</time>
      </trkpt>
      <trkpt lat="49.86666" lon="4.74563">
        <ele>274</ele>
        <time>2022-06-06T08:41:49.000Z</time>
      </trkpt>
      <trkpt lat="49.86669" lon="4.74564">
        <ele>274</ele>
        <time>2022-06-06T08:41:50.000Z</time>
      </trkpt>
      <trkpt lat="49.86672" lon="4.74565">
        <ele>274</ele>
        <time>2022-06-06T08:41:51.000Z</time>
      </trkpt>
      <trkpt lat="49.86676" lon="4.74566">
        <ele>275</ele>
        <time>2022-06-06T08:41:52.000Z</time>
      </trkpt>
      <trkpt lat="49.86679" lon="4.74567">
        <ele>275</ele>
        <time>2022-06-06T08:41:53.000Z</time>
      </trkpt>
      <trkpt lat="49.86683" lon="4.74567">
        <ele>275</ele>
        <time>2022-06-06T08:41:54.000Z</time>
      </trkpt>
      <trkpt lat="49.86687" lon="4.74568">
        <ele>275</ele>
        <time>2022-06-06T08:41:55.000Z</time>
      </trkpt>
      <trkpt lat="49.86691" lon="4.74569">
        <ele>275</ele>
        <time>2022-06-06T08:41:56.000Z</time>
      </trkpt>
      <trkpt lat="49.86694" lon="4.7457">
        <ele>275</ele>
        <time>2022-06-06T08:41:57.000Z</time>
      </trkpt>
      <trkpt lat="49.86697" lon="4.74569">
        <ele>276</ele>
        <time>2022-06-06T08:41:58.000Z</time>
      </trkpt>
      <trkpt lat="49.86698" lon="4.74569">
        <ele>276</ele>
        <time>2022-06-06T08:41:59.000Z</time>
      </trkpt>
      <trkpt lat="49.86699" lon="4.74569">
        <ele>276</ele>
        <time>2022-06-06T08:42:00.000Z</time>
      </trkpt>
      <trkpt lat="49.86699" lon="4.74569">
        <ele>276</ele>
        <time>2022-06-06T08:42:01.000Z</time>
      </trkpt>
      <trkpt lat="49.867" lon="4.74569">
        <ele>276</ele>
        <time>2022-06-06T08:42:02.000Z</time>
      </trkpt>
      <trkpt lat="49.86701" lon="4.7457">
        <ele>276</ele>
        <time>2022-06-06T08:42:03.000Z</time>
      </trkpt>
      <trkpt lat="49.86703" lon="4.74571">
        <ele>276</ele>
        <time>2022-06-06T08:42:04.000Z</time>
      </trkpt>
      <trkpt lat="49.86705" lon="4.74571">
        <ele>276</ele>
        <time>2022-06-06T08:42:05.000Z</time>
      </trkpt>
      <trkpt lat="49.86707" lon="4.74572">
        <ele>276</ele>
        <time>2022-06-06T08:42:06.000Z</time>
      </trkpt>
      <trkpt lat="49.8671" lon="4.74572">
        <ele>276</ele>
        <time>2022-06-06T08:42:07.000Z</time>
      </trkpt>
      <trkpt lat="49.86712" lon="4.74572">
        <ele>276</ele>
        <time>2022-06-06T08:42:08.000Z</time>
      </trkpt>
      <trkpt lat="49.86715" lon="4.74572">
        <ele>276</ele>
        <time>2022-06-06T08:42:09.000Z</time>
      </trkpt>
      <trkpt lat="49.86717" lon="4.7457">
        <ele>276</ele>
        <time>2022-06-06T08:42:10.000Z</time>
      </trkpt>
      <trkpt lat="49.86719" lon="4.74569">
        <ele>276</ele>
        <time>2022-06-06T08:42:11.000Z</time>
      </trkpt>
      <trkpt lat="49.86721" lon="4.74567">
        <ele>276</ele>
        <time>2022-06-06T08:42:12.000Z</time>
      </trkpt>
      <trkpt lat="49.86723" lon="4.74566">
        <ele>276</ele>
        <time>2022-06-06T08:42:13.000Z</time>
      </trkpt>
      <trkpt lat="49.86725" lon="4.74565">
        <ele>276</ele>
        <time>2022-06-06T08:42:14.000Z</time>
      </trkpt>
      <trkpt lat="49.86727" lon="4.74564">
        <ele>276</ele>
        <time>2022-06-06T08:42:15.000Z</time>
      </trkpt>
      <trkpt lat="49.86729" lon="4.74564">
        <ele>275</ele>
        <time>2022-06-06T08:42:16.000Z</time>
      </trkpt>
      <trkpt lat="49.86731" lon="4.74563">
        <ele>275</ele>
        <time>2022-06-06T08:42:17.000Z</time>
      </trkpt>
      <trkpt lat="49.86734" lon="4.74562">
        <ele>275</ele>
        <time>2022-06-06T08:42:18.000Z</time>
      </trkpt>
      <trkpt lat="49.86737" lon="4.74561">
        <ele>275</ele>
        <time>2022-06-06T08:42:19.000Z</time>
      </trkpt>
      <trkpt lat="49.86741" lon="4.7456">
        <ele>275</ele>
        <time>2022-06-06T08:42:20.000Z</time>
      </trkpt>
      <trkpt lat="49.86745" lon="4.74559">
        <ele>275</ele>
        <time>2022-06-06T08:42:21.000Z</time>
      </trkpt>
      <trkpt lat="49.86748" lon="4.74557">
        <ele>275</ele>
        <time>2022-06-06T08:42:22.000Z</time>
      </trkpt>
      <trkpt lat="49.86751" lon="4.74556">
        <ele>275</ele>
        <time>2022-06-06T08:42:23.000Z</time>
      </trkpt>
      <trkpt lat="49.86753" lon="4.74554">
        <ele>275</ele>
        <time>2022-06-06T08:42:24.000Z</time>
      </trkpt>
      <trkpt lat="49.86756" lon="4.74553">
        <ele>274</ele>
        <time>2022-06-06T08:42:25.000Z</time>
      </trkpt>
      <trkpt lat="49.86757" lon="4.74552">
        <ele>274</ele>
        <time>2022-06-06T08:42:26.000Z</time>
      </trkpt>
      <trkpt lat="49.86759" lon="4.74551">
        <ele>274</ele>
        <time>2022-06-06T08:42:27.000Z</time>
      </trkpt>
      <trkpt lat="49.86761" lon="4.74551">
        <ele>273</ele>
        <time>2022-06-06T08:42:28.000Z</time>
      </trkpt>
      <trkpt lat="49.86762" lon="4.7455">
        <ele>273</ele>
        <time>2022-06-06T08:42:29.000Z</time>
      </trkpt>
      <trkpt lat="49.86764" lon="4.74548">
        <ele>273</ele>
        <time>2022-06-06T08:42:30.000Z</time>
      </trkpt>
      <trkpt lat="49.86767" lon="4.74546">
        <ele>273</ele>
        <time>2022-06-06T08:42:31.000Z</time>
      </trkpt>
      <trkpt lat="49.8677" lon="4.74543">
        <ele>272</ele>
        <time>2022-06-06T08:42:32.000Z</time>
      </trkpt>
      <trkpt lat="49.86773" lon="4.74539">
        <ele>272</ele>
        <time>2022-06-06T08:42:33.000Z</time>
      </trkpt>
      <trkpt lat="49.86775" lon="4.74537">
        <ele>272</ele>
        <time>2022-06-06T08:42:34.000Z</time>
      </trkpt>
      <trkpt lat="49.86777" lon="4.74535">
        <ele>272</ele>
        <time>2022-06-06T08:42:35.000Z</time>
      </trkpt>
      <trkpt lat="49.86779" lon="4.74533">
        <ele>272</ele>
        <time>2022-06-06T08:42:36.000Z</time>
      </trkpt>
      <trkpt lat="49.86781" lon="4.7453">
        <ele>272</ele>
        <time>2022-06-06T08:42:37.000Z</time>
      </trkpt>
      <trkpt lat="49.86784" lon="4.74528">
        <ele>272</ele>
        <time>2022-06-06T08:42:38.000Z</time>
      </trkpt>
      <trkpt lat="49.86786" lon="4.74526">
        <ele>271</ele>
        <time>2022-06-06T08:42:39.000Z</time>
      </trkpt>
      <trkpt lat="49.86788" lon="4.74525">
        <ele>271</ele>
        <time>2022-06-06T08:42:40.000Z</time>
      </trkpt>
      <trkpt lat="49.86791" lon="4.74523">
        <ele>271</ele>
        <time>2022-06-06T08:42:41.000Z</time>
      </trkpt>
      <trkpt lat="49.86793" lon="4.74521">
        <ele>271</ele>
        <time>2022-06-06T08:42:42.000Z</time>
      </trkpt>
      <trkpt lat="49.86796" lon="4.74521">
        <ele>271</ele>
        <time>2022-06-06T08:42:43.000Z</time>
      </trkpt>
      <trkpt lat="49.86799" lon="4.74521">
        <ele>271</ele>
        <time>2022-06-06T08:42:44.000Z</time>
      </trkpt>
      <trkpt lat="49.86803" lon="4.7452">
        <ele>270</ele>
        <time>2022-06-06T08:42:45.000Z</time>
      </trkpt>
      <trkpt lat="49.86807" lon="4.7452">
        <ele>270</ele>
        <time>2022-06-06T08:42:46.000Z</time>
      </trkpt>
      <trkpt lat="49.86811" lon="4.7452">
        <ele>270</ele>
        <time>2022-06-06T08:42:47.000Z</time>
      </trkpt>
      <trkpt lat="49.86815" lon="4.7452">
        <ele>270</ele>
        <time>2022-06-06T08:42:48.000Z</time>
      </trkpt>
      <trkpt lat="49.86819" lon="4.74519">
        <ele>270</ele>
        <time>2022-06-06T08:42:49.000Z</time>
      </trkpt>
      <trkpt lat="49.86822" lon="4.74518">
        <ele>270</ele>
        <time>2022-06-06T08:42:50.000Z</time>
      </trkpt>
      <trkpt lat="49.86826" lon="4.74515">
        <ele>269</ele>
        <time>2022-06-06T08:42:51.000Z</time>
      </trkpt>
      <trkpt lat="49.8683" lon="4.74512">
        <ele>269</ele>
        <time>2022-06-06T08:42:52.000Z</time>
      </trkpt>
      <trkpt lat="49.86833" lon="4.7451">
        <ele>269</ele>
        <time>2022-06-06T08:42:53.000Z</time>
      </trkpt>
      <trkpt lat="49.86836" lon="4.7451">
        <ele>269</ele>
        <time>2022-06-06T08:42:54.000Z</time>
      </trkpt>
      <trkpt lat="49.86838" lon="4.7451">
        <ele>268</ele>
        <time>2022-06-06T08:42:55.000Z</time>
      </trkpt>
      <trkpt lat="49.86839" lon="4.74509">
        <ele>268</ele>
        <time>2022-06-06T08:42:56.000Z</time>
      </trkpt>
      <trkpt lat="49.86841" lon="4.7451">
        <ele>268</ele>
        <time>2022-06-06T08:42:57.000Z</time>
      </trkpt>
      <trkpt lat="49.86843" lon="4.7451">
        <ele>267</ele>
        <time>2022-06-06T08:42:58.000Z</time>
      </trkpt>
      <trkpt lat="49.86845" lon="4.7451">
        <ele>267</ele>
        <time>2022-06-06T08:42:59.000Z</time>
      </trkpt>
      <trkpt lat="49.86848" lon="4.74513">
        <ele>266</ele>
        <time>2022-06-06T08:43:00.000Z</time>
      </trkpt>
      <trkpt lat="49.86852" lon="4.74515">
        <ele>266</ele>
        <time>2022-06-06T08:43:01.000Z</time>
      </trkpt>
      <trkpt lat="49.86855" lon="4.74517">
        <ele>265</ele>
        <time>2022-06-06T08:43:02.000Z</time>
      </trkpt>
      <trkpt lat="49.86858" lon="4.7452">
        <ele>265</ele>
        <time>2022-06-06T08:43:03.000Z</time>
      </trkpt>
      <trkpt lat="49.86862" lon="4.74523">
        <ele>264</ele>
        <time>2022-06-06T08:43:04.000Z</time>
      </trkpt>
      <trkpt lat="49.86865" lon="4.74525">
        <ele>264</ele>
        <time>2022-06-06T08:43:05.000Z</time>
      </trkpt>
      <trkpt lat="49.86868" lon="4.74527">
        <ele>264</ele>
        <time>2022-06-06T08:43:06.000Z</time>
      </trkpt>
      <trkpt lat="49.86871" lon="4.74529">
        <ele>263</ele>
        <time>2022-06-06T08:43:07.000Z</time>
      </trkpt>
      <trkpt lat="49.86873" lon="4.74531">
        <ele>263</ele>
        <time>2022-06-06T08:43:08.000Z</time>
      </trkpt>
      <trkpt lat="49.86875" lon="4.74533">
        <ele>262</ele>
        <time>2022-06-06T08:43:09.000Z</time>
      </trkpt>
      <trkpt lat="49.86878" lon="4.74534">
        <ele>262</ele>
        <time>2022-06-06T08:43:10.000Z</time>
      </trkpt>
      <trkpt lat="49.8688" lon="4.74534">
        <ele>262</ele>
        <time>2022-06-06T08:43:11.000Z</time>
      </trkpt>
      <trkpt lat="49.86881" lon="4.74535">
        <ele>261</ele>
        <time>2022-06-06T08:43:12.000Z</time>
      </trkpt>
      <trkpt lat="49.86883" lon="4.74535">
        <ele>261</ele>
        <time>2022-06-06T08:43:13.000Z</time>
      </trkpt>
      <trkpt lat="49.86885" lon="4.74536">
        <ele>260</ele>
        <time>2022-06-06T08:43:14.000Z</time>
      </trkpt>
      <trkpt lat="49.86887" lon="4.74536">
        <ele>260</ele>
        <time>2022-06-06T08:43:15.000Z</time>
      </trkpt>
      <trkpt lat="49.86889" lon="4.74537">
        <ele>260</ele>
        <time>2022-06-06T08:43:16.000Z</time>
      </trkpt>
      <trkpt lat="49.86892" lon="4.74538">
        <ele>259</ele>
        <time>2022-06-06T08:43:17.000Z</time>
      </trkpt>
      <trkpt lat="49.86896" lon="4.7454">
        <ele>259</ele>
        <time>2022-06-06T08:43:18.000Z</time>
      </trkpt>
      <trkpt lat="49.86899" lon="4.74542">
        <ele>259</ele>
        <time>2022-06-06T08:43:19.000Z</time>
      </trkpt>
      <trkpt lat="49.86903" lon="4.74543">
        <ele>258</ele>
        <time>2022-06-06T08:43:20.000Z</time>
      </trkpt>
      <trkpt lat="49.86906" lon="4.74543">
        <ele>258</ele>
        <time>2022-06-06T08:43:21.000Z</time>
      </trkpt>
      <trkpt lat="49.86909" lon="4.74543">
        <ele>258</ele>
        <time>2022-06-06T08:43:22.000Z</time>
      </trkpt>
      <trkpt lat="49.86913" lon="4.74542">
        <ele>258</ele>
        <time>2022-06-06T08:43:23.000Z</time>
      </trkpt>
      <trkpt lat="49.86918" lon="4.7454">
        <ele>257</ele>
        <time>2022-06-06T08:43:24.000Z</time>
      </trkpt>
      <trkpt lat="49.86922" lon="4.74538">
        <ele>257</ele>
        <time>2022-06-06T08:43:25.000Z</time>
      </trkpt>
      <trkpt lat="49.86926" lon="4.74536">
        <ele>257</ele>
        <time>2022-06-06T08:43:26.000Z</time>
      </trkpt>
      <trkpt lat="49.8693" lon="4.74534">
        <ele>257</ele>
        <time>2022-06-06T08:43:27.000Z</time>
      </trkpt>
      <trkpt lat="49.86933" lon="4.74531">
        <ele>256</ele>
        <time>2022-06-06T08:43:28.000Z</time>
      </trkpt>
      <trkpt lat="49.86937" lon="4.74529">
        <ele>256</ele>
        <time>2022-06-06T08:43:29.000Z</time>
      </trkpt>
      <trkpt lat="49.8694" lon="4.74528">
        <ele>256</ele>
        <time>2022-06-06T08:43:30.000Z</time>
      </trkpt>
      <trkpt lat="49.86943" lon="4.74527">
        <ele>256</ele>
        <time>2022-06-06T08:43:31.000Z</time>
      </trkpt>
      <trkpt lat="49.86946" lon="4.74526">
        <ele>255</ele>
        <time>2022-06-06T08:43:32.000Z</time>
      </trkpt>
      <trkpt lat="49.86949" lon="4.74525">
        <ele>255</ele>
        <time>2022-06-06T08:43:33.000Z</time>
      </trkpt>
      <trkpt lat="49.86953" lon="4.74522">
        <ele>255</ele>
        <time>2022-06-06T08:43:34.000Z</time>
      </trkpt>
      <trkpt lat="49.86956" lon="4.74521">
        <ele>254</ele>
        <time>2022-06-06T08:43:35.000Z</time>
      </trkpt>
      <trkpt lat="49.8696" lon="4.74521">
        <ele>254</ele>
        <time>2022-06-06T08:43:36.000Z</time>
      </trkpt>
      <trkpt lat="49.86963" lon="4.74522">
        <ele>254</ele>
        <time>2022-06-06T08:43:37.000Z</time>
      </trkpt>
      <trkpt lat="49.86966" lon="4.74522">
        <ele>254</ele>
        <time>2022-06-06T08:43:38.000Z</time>
      </trkpt>
      <trkpt lat="49.8697" lon="4.74521">
        <ele>253</ele>
        <time>2022-06-06T08:43:39.000Z</time>
      </trkpt>
      <trkpt lat="49.86975" lon="4.7452">
        <ele>253</ele>
        <time>2022-06-06T08:43:40.000Z</time>
      </trkpt>
      <trkpt lat="49.86979" lon="4.74519">
        <ele>253</ele>
        <time>2022-06-06T08:43:41.000Z</time>
      </trkpt>
      <trkpt lat="49.86984" lon="4.7452">
        <ele>252</ele>
        <time>2022-06-06T08:43:42.000Z</time>
      </trkpt>
      <trkpt lat="49.86988" lon="4.7452">
        <ele>252</ele>
        <time>2022-06-06T08:43:43.000Z</time>
      </trkpt>
      <trkpt lat="49.86993" lon="4.7452">
        <ele>252</ele>
        <time>2022-06-06T08:43:44.000Z</time>
      </trkpt>
      <trkpt lat="49.86997" lon="4.7452">
        <ele>251</ele>
        <time>2022-06-06T08:43:45.000Z</time>
      </trkpt>
      <trkpt lat="49.87002" lon="4.7452">
        <ele>251</ele>
        <time>2022-06-06T08:43:46.000Z</time>
      </trkpt>
      <trkpt lat="49.87007" lon="4.74519">
        <ele>251</ele>
        <time>2022-06-06T08:43:47.000Z</time>
      </trkpt>
      <trkpt lat="49.87011" lon="4.74518">
        <ele>251</ele>
        <time>2022-06-06T08:43:48.000Z</time>
      </trkpt>
      <trkpt lat="49.87016" lon="4.74518">
        <ele>250</ele>
        <time>2022-06-06T08:43:49.000Z</time>
      </trkpt>
      <trkpt lat="49.8702" lon="4.74517">
        <ele>250</ele>
        <time>2022-06-06T08:43:50.000Z</time>
      </trkpt>
      <trkpt lat="49.87024" lon="4.74517">
        <ele>249</ele>
        <time>2022-06-06T08:43:51.000Z</time>
      </trkpt>
      <trkpt lat="49.87029" lon="4.74516">
        <ele>249</ele>
        <time>2022-06-06T08:43:52.000Z</time>
      </trkpt>
      <trkpt lat="49.87033" lon="4.74514">
        <ele>249</ele>
        <time>2022-06-06T08:43:53.000Z</time>
      </trkpt>
      <trkpt lat="49.87037" lon="4.74513">
        <ele>248</ele>
        <time>2022-06-06T08:43:54.000Z</time>
      </trkpt>
      <trkpt lat="49.8704" lon="4.74512">
        <ele>248</ele>
        <time>2022-06-06T08:43:55.000Z</time>
      </trkpt>
      <trkpt lat="49.87045" lon="4.74511">
        <ele>247</ele>
        <time>2022-06-06T08:43:56.000Z</time>
      </trkpt>
      <trkpt lat="49.87049" lon="4.7451">
        <ele>247</ele>
        <time>2022-06-06T08:43:57.000Z</time>
      </trkpt>
      <trkpt lat="49.87054" lon="4.74511">
        <ele>246</ele>
        <time>2022-06-06T08:43:58.000Z</time>
      </trkpt>
      <trkpt lat="49.87058" lon="4.74512">
        <ele>246</ele>
        <time>2022-06-06T08:43:59.000Z</time>
      </trkpt>
      <trkpt lat="49.87063" lon="4.74513">
        <ele>245</ele>
        <time>2022-06-06T08:44:00.000Z</time>
      </trkpt>
      <trkpt lat="49.87067" lon="4.74513">
        <ele>245</ele>
        <time>2022-06-06T08:44:01.000Z</time>
      </trkpt>
      <trkpt lat="49.87072" lon="4.74514">
        <ele>244</ele>
        <time>2022-06-06T08:44:02.000Z</time>
      </trkpt>
      <trkpt lat="49.87077" lon="4.74516">
        <ele>244</ele>
        <time>2022-06-06T08:44:03.000Z</time>
      </trkpt>
      <trkpt lat="49.87082" lon="4.74517">
        <ele>243</ele>
        <time>2022-06-06T08:44:04.000Z</time>
      </trkpt>
      <trkpt lat="49.87086" lon="4.74518">
        <ele>243</ele>
        <time>2022-06-06T08:44:05.000Z</time>
      </trkpt>
      <trkpt lat="49.87089" lon="4.7452">
        <ele>242</ele>
        <time>2022-06-06T08:44:06.000Z</time>
      </trkpt>
      <trkpt lat="49.87092" lon="4.74522">
        <ele>242</ele>
        <time>2022-06-06T08:44:07.000Z</time>
      </trkpt>
      <trkpt lat="49.87096" lon="4.74523">
        <ele>241</ele>
        <time>2022-06-06T08:44:08.000Z</time>
      </trkpt>
      <trkpt lat="49.87101" lon="4.74525">
        <ele>240</ele>
        <time>2022-06-06T08:44:09.000Z</time>
      </trkpt>
      <trkpt lat="49.87105" lon="4.74527">
        <ele>240</ele>
        <time>2022-06-06T08:44:10.000Z</time>
      </trkpt>
      <trkpt lat="49.87109" lon="4.74528">
        <ele>239</ele>
        <time>2022-06-06T08:44:11.000Z</time>
      </trkpt>
      <trkpt lat="49.87113" lon="4.74528">
        <ele>239</ele>
        <time>2022-06-06T08:44:12.000Z</time>
      </trkpt>
      <trkpt lat="49.87117" lon="4.74528">
        <ele>238</ele>
        <time>2022-06-06T08:44:13.000Z</time>
      </trkpt>
      <trkpt lat="49.8712" lon="4.74527">
        <ele>238</ele>
        <time>2022-06-06T08:44:14.000Z</time>
      </trkpt>
      <trkpt lat="49.87124" lon="4.74526">
        <ele>237</ele>
        <time>2022-06-06T08:44:15.000Z</time>
      </trkpt>
      <trkpt lat="49.87127" lon="4.74524">
        <ele>236</ele>
        <time>2022-06-06T08:44:16.000Z</time>
      </trkpt>
      <trkpt lat="49.87131" lon="4.74523">
        <ele>236</ele>
        <time>2022-06-06T08:44:17.000Z</time>
      </trkpt>
      <trkpt lat="49.87136" lon="4.74521">
        <ele>235</ele>
        <time>2022-06-06T08:44:18.000Z</time>
      </trkpt>
      <trkpt lat="49.8714" lon="4.7452">
        <ele>235</ele>
        <time>2022-06-06T08:44:19.000Z</time>
      </trkpt>
      <trkpt lat="49.87143" lon="4.74519">
        <ele>234</ele>
        <time>2022-06-06T08:44:20.000Z</time>
      </trkpt>
      <trkpt lat="49.87147" lon="4.74517">
        <ele>234</ele>
        <time>2022-06-06T08:44:21.000Z</time>
      </trkpt>
      <trkpt lat="49.87151" lon="4.74516">
        <ele>233</ele>
        <time>2022-06-06T08:44:22.000Z</time>
      </trkpt>
      <trkpt lat="49.87155" lon="4.74516">
        <ele>233</ele>
        <time>2022-06-06T08:44:23.000Z</time>
      </trkpt>
      <trkpt lat="49.87159" lon="4.74517">
        <ele>233</ele>
        <time>2022-06-06T08:44:24.000Z</time>
      </trkpt>
      <trkpt lat="49.87164" lon="4.74518">
        <ele>232</ele>
        <time>2022-06-06T08:44:25.000Z</time>
      </trkpt>
      <trkpt lat="49.87168" lon="4.74517">
        <ele>232</ele>
        <time>2022-06-06T08:44:26.000Z</time>
      </trkpt>
      <trkpt lat="49.87173" lon="4.74517">
        <ele>232</ele>
        <time>2022-06-06T08:44:27.000Z</time>
      </trkpt>
      <trkpt lat="49.87177" lon="4.74516">
        <ele>231</ele>
        <time>2022-06-06T08:44:28.000Z</time>
      </trkpt>
      <trkpt lat="49.8718" lon="4.74515">
        <ele>231</ele>
        <time>2022-06-06T08:44:29.000Z</time>
      </trkpt>
      <trkpt lat="49.87184" lon="4.74514">
        <ele>231</ele>
        <time>2022-06-06T08:44:30.000Z</time>
      </trkpt>
      <trkpt lat="49.87189" lon="4.74512">
        <ele>230</ele>
        <time>2022-06-06T08:44:31.000Z</time>
      </trkpt>
      <trkpt lat="49.87192" lon="4.74511">
        <ele>230</ele>
        <time>2022-06-06T08:44:32.000Z</time>
      </trkpt>
      <trkpt lat="49.87196" lon="4.7451">
        <ele>230</ele>
        <time>2022-06-06T08:44:33.000Z</time>
      </trkpt>
      <trkpt lat="49.872" lon="4.74509">
        <ele>229</ele>
        <time>2022-06-06T08:44:34.000Z</time>
      </trkpt>
      <trkpt lat="49.87204" lon="4.74508">
        <ele>229</ele>
        <time>2022-06-06T08:44:35.000Z</time>
      </trkpt>
      <trkpt lat="49.87209" lon="4.74506">
        <ele>228</ele>
        <time>2022-06-06T08:44:36.000Z</time>
      </trkpt>
      <trkpt lat="49.87213" lon="4.74505">
        <ele>228</ele>
        <time>2022-06-06T08:44:37.000Z</time>
      </trkpt>
      <trkpt lat="49.87216" lon="4.74504">
        <ele>228</ele>
        <time>2022-06-06T08:44:38.000Z</time>
      </trkpt>
      <trkpt lat="49.8722" lon="4.74501">
        <ele>227</ele>
        <time>2022-06-06T08:44:39.000Z</time>
      </trkpt>
      <trkpt lat="49.87224" lon="4.74498">
        <ele>227</ele>
        <time>2022-06-06T08:44:40.000Z</time>
      </trkpt>
      <trkpt lat="49.87228" lon="4.74494">
        <ele>227</ele>
        <time>2022-06-06T08:44:41.000Z</time>
      </trkpt>
      <trkpt lat="49.87232" lon="4.74491">
        <ele>226</ele>
        <time>2022-06-06T08:44:42.000Z</time>
      </trkpt>
      <trkpt lat="49.87235" lon="4.74488">
        <ele>226</ele>
        <time>2022-06-06T08:44:43.000Z</time>
      </trkpt>
      <trkpt lat="49.87236" lon="4.74487">
        <ele>226</ele>
        <time>2022-06-06T08:44:44.000Z</time>
      </trkpt>
      <trkpt lat="49.87237" lon="4.74486">
        <ele>225</ele>
        <time>2022-06-06T08:44:45.000Z</time>
      </trkpt>
      <trkpt lat="49.87237" lon="4.74486">
        <ele>225</ele>
        <time>2022-06-06T08:44:46.000Z</time>
      </trkpt>
      <trkpt lat="49.87238" lon="4.74486">
        <ele>225</ele>
        <time>2022-06-06T08:44:47.000Z</time>
      </trkpt>
      <trkpt lat="49.87238" lon="4.74486">
        <ele>224</ele>
        <time>2022-06-06T08:44:48.000Z</time>
      </trkpt>
      <trkpt lat="49.87238" lon="4.74486">
        <ele>224</ele>
        <time>2022-06-06T08:44:49.000Z</time>
      </trkpt>
      <trkpt lat="49.87239" lon="4.74486">
        <ele>223</ele>
        <time>2022-06-06T08:44:50.000Z</time>
      </trkpt>
      <trkpt lat="49.87239" lon="4.74486">
        <ele>223</ele>
        <time>2022-06-06T08:44:51.000Z</time>
      </trkpt>
      <trkpt lat="49.87239" lon="4.74485">
        <ele>223</ele>
        <time>2022-06-06T08:44:52.000Z</time>
      </trkpt>
      <trkpt lat="49.8724" lon="4.74485">
        <ele>222</ele>
        <time>2022-06-06T08:44:53.000Z</time>
      </trkpt>
      <trkpt lat="49.8724" lon="4.74486">
        <ele>222</ele>
        <time>2022-06-06T08:44:54.000Z</time>
      </trkpt>
      <trkpt lat="49.8724" lon="4.74486">
        <ele>221</ele>
        <time>2022-06-06T08:44:55.000Z</time>
      </trkpt>
      <trkpt lat="49.8724" lon="4.74485">
        <ele>221</ele>
        <time>2022-06-06T08:44:56.000Z</time>
      </trkpt>
      <trkpt lat="49.8724" lon="4.74486">
        <ele>221</ele>
        <time>2022-06-06T08:44:57.000Z</time>
      </trkpt>
      <trkpt lat="49.8724" lon="4.74486">
        <ele>220</ele>
        <time>2022-06-06T08:44:58.000Z</time>
      </trkpt>
      <trkpt lat="49.87241" lon="4.74486">
        <ele>220</ele>
        <time>2022-06-06T08:44:59.000Z</time>
      </trkpt>
      <trkpt lat="49.87241" lon="4.74486">
        <ele>220</ele>
        <time>2022-06-06T08:45:00.000Z</time>
      </trkpt>
      <trkpt lat="49.87241" lon="4.74486">
        <ele>220</ele>
        <time>2022-06-06T08:45:01.000Z</time>
      </trkpt>
      <trkpt lat="49.87241" lon="4.74485">
        <ele>219</ele>
        <time>2022-06-06T08:45:02.000Z</time>
      </trkpt>
      <trkpt lat="49.87241" lon="4.74485">
        <ele>219</ele>
        <time>2022-06-06T08:45:03.000Z</time>
      </trkpt>
      <trkpt lat="49.8724" lon="4.74485">
        <ele>219</ele>
        <time>2022-06-06T08:45:04.000Z</time>
      </trkpt>
      <trkpt lat="49.8724" lon="4.74484">
        <ele>219</ele>
        <time>2022-06-06T08:45:05.000Z</time>
      </trkpt>
      <trkpt lat="49.8724" lon="4.74485">
        <ele>218</ele>
        <time>2022-06-06T08:45:06.000Z</time>
      </trkpt>
      <trkpt lat="49.8724" lon="4.74485">
        <ele>218</ele>
        <time>2022-06-06T08:45:07.000Z</time>
      </trkpt>
      <trkpt lat="49.87239" lon="4.74484">
        <ele>218</ele>
        <time>2022-06-06T08:45:08.000Z</time>
      </trkpt>
      <trkpt lat="49.87239" lon="4.74484">
        <ele>218</ele>
        <time>2022-06-06T08:45:09.000Z</time>
      </trkpt>
      <trkpt lat="49.87239" lon="4.74484">
        <ele>217</ele>
        <time>2022-06-06T08:45:10.000Z</time>
      </trkpt>
      <trkpt lat="49.87239" lon="4.74484">
        <ele>217</ele>
        <time>2022-06-06T08:45:11.000Z</time>
      </trkpt>
      <trkpt lat="49.87239" lon="4.74484">
        <ele>217</ele>
        <time>2022-06-06T08:45:12.000Z</time>
      </trkpt>
      <trkpt lat="49.87239" lon="4.74483">
        <ele>217</ele>
        <time>2022-06-06T08:45:13.000Z</time>
      </trkpt>
      <trkpt lat="49.87239" lon="4.74483">
        <ele>216</ele>
        <time>2022-06-06T08:45:14.000Z</time>
      </trkpt>
      <trkpt lat="49.87239" lon="4.74482">
        <ele>216</ele>
        <time>2022-06-06T08:45:15.000Z</time>
      </trkpt>
      <trkpt lat="49.8724" lon="4.74482">
        <ele>216</ele>
        <time>2022-06-06T08:45:16.000Z</time>
      </trkpt>
      <trkpt lat="49.8724" lon="4.74482">
        <ele>215</ele>
        <time>2022-06-06T08:45:17.000Z</time>
      </trkpt>
      <trkpt lat="49.8724" lon="4.74481">
        <ele>215</ele>
        <time>2022-06-06T08:45:18.000Z</time>
      </trkpt>
      <trkpt lat="49.8724" lon="4.74481">
        <ele>215</ele>
        <time>2022-06-06T08:45:19.000Z</time>
      </trkpt>
      <trkpt lat="49.87241" lon="4.74482">
        <ele>214</ele>
        <time>2022-06-06T08:45:20.000Z</time>
      </trkpt>
      <trkpt lat="49.87241" lon="4.74482">
        <ele>214</ele>
        <time>2022-06-06T08:45:21.000Z</time>
      </trkpt>
      <trkpt lat="49.87242" lon="4.74482">
        <ele>214</ele>
        <time>2022-06-06T08:45:22.000Z</time>
      </trkpt>
      <trkpt lat="49.87242" lon="4.74482">
        <ele>214</ele>
        <time>2022-06-06T08:45:23.000Z</time>
      </trkpt>
      <trkpt lat="49.87243" lon="4.74483">
        <ele>213</ele>
        <time>2022-06-06T08:45:24.000Z</time>
      </trkpt>
      <trkpt lat="49.87243" lon="4.74484">
        <ele>213</ele>
        <time>2022-06-06T08:45:25.000Z</time>
      </trkpt>
      <trkpt lat="49.87244" lon="4.74484">
        <ele>213</ele>
        <time>2022-06-06T08:45:26.000Z</time>
      </trkpt>
      <trkpt lat="49.87244" lon="4.74485">
        <ele>213</ele>
        <time>2022-06-06T08:45:27.000Z</time>
      </trkpt>
      <trkpt lat="49.87245" lon="4.74485">
        <ele>212</ele>
        <time>2022-06-06T08:45:28.000Z</time>
      </trkpt>
      <trkpt lat="49.87245" lon="4.74485">
        <ele>212</ele>
        <time>2022-06-06T08:45:29.000Z</time>
      </trkpt>
      <trkpt lat="49.87245" lon="4.74485">
        <ele>212</ele>
        <time>2022-06-06T08:45:30.000Z</time>
      </trkpt>
      <trkpt lat="49.87245" lon="4.74486">
        <ele>211</ele>
        <time>2022-06-06T08:45:31.000Z</time>
      </trkpt>
      <trkpt lat="49.87245" lon="4.74486">
        <ele>211</ele>
        <time>2022-06-06T08:45:32.000Z</time>
      </trkpt>
      <trkpt lat="49.87245" lon="4.74487">
        <ele>211</ele>
        <time>2022-06-06T08:45:33.000Z</time>
      </trkpt>
      <trkpt lat="49.87245" lon="4.74487">
        <ele>211</ele>
        <time>2022-06-06T08:45:34.000Z</time>
      </trkpt>
      <trkpt lat="49.87245" lon="4.74487">
        <ele>210</ele>
        <time>2022-06-06T08:45:35.000Z</time>
      </trkpt>
      <trkpt lat="49.87245" lon="4.74487">
        <ele>210</ele>
        <time>2022-06-06T08:45:36.000Z</time>
      </trkpt>
      <trkpt lat="49.87245" lon="4.74488">
        <ele>210</ele>
        <time>2022-06-06T08:45:37.000Z</time>
      </trkpt>
      <trkpt lat="49.87244" lon="4.74488">
        <ele>209</ele>
        <time>2022-06-06T08:45:38.000Z</time>
      </trkpt>
      <trkpt lat="49.87245" lon="4.74488">
        <ele>209</ele>
        <time>2022-06-06T08:45:39.000Z</time>
      </trkpt>
      <trkpt lat="49.87244" lon="4.74488">
        <ele>209</ele>
        <time>2022-06-06T08:45:40.000Z</time>
      </trkpt>
      <trkpt lat="49.87244" lon="4.74488">
        <ele>209</ele>
        <time>2022-06-06T08:45:41.000Z</time>
      </trkpt>
      <trkpt lat="49.87245" lon="4.74487">
        <ele>208</ele>
        <time>2022-06-06T08:45:42.000Z</time>
      </trkpt>
      <trkpt lat="49.87246" lon="4.74487">
        <ele>208</ele>
        <time>2022-06-06T08:45:43.000Z</time>
      </trkpt>
      <trkpt lat="49.87246" lon="4.74487">
        <ele>208</ele>
        <time>2022-06-06T08:45:44.000Z</time>
      </trkpt>
      <trkpt lat="49.87246" lon="4.74486">
        <ele>207</ele>
        <time>2022-06-06T08:45:45.000Z</time>
      </trkpt>
      <trkpt lat="49.87245" lon="4.74486">
        <ele>207</ele>
        <time>2022-06-06T08:45:46.000Z</time>
      </trkpt>
      <trkpt lat="49.87245" lon="4.74486">
        <ele>207</ele>
        <time>2022-06-06T08:45:47.000Z</time>
      </trkpt>
      <trkpt lat="49.87245" lon="4.74486">
        <ele>207</ele>
        <time>2022-06-06T08:45:48.000Z</time>
      </trkpt>
      <trkpt lat="49.87245" lon="4.74485">
        <ele>206</ele>
        <time>2022-06-06T08:45:49.000Z</time>
      </trkpt>
      <trkpt lat="49.87246" lon="4.74485">
        <ele>206</ele>
        <time>2022-06-06T08:45:50.000Z</time>
      </trkpt>
      <trkpt lat="49.87245" lon="4.74485">
        <ele>206</ele>
        <time>2022-06-06T08:45:51.000Z</time>
      </trkpt>
      <trkpt lat="49.87245" lon="4.74485">
        <ele>206</ele>
        <time>2022-06-06T08:45:52.000Z</time>
      </trkpt>
      <trkpt lat="49.87245" lon="4.74484">
        <ele>206</ele>
        <time>2022-06-06T08:45:53.000Z</time>
      </trkpt>
      <trkpt lat="49.87245" lon="4.74484">
        <ele>206</ele>
        <time>2022-06-06T08:45:54.000Z</time>
      </trkpt>
      <trkpt lat="49.87245" lon="4.74484">
        <ele>206</ele>
        <time>2022-06-06T08:45:55.000Z</time>
      </trkpt>
      <trkpt lat="49.87245" lon="4.74483">
        <ele>205</ele>
        <time>2022-06-06T08:45:56.000Z</time>
      </trkpt>
      <trkpt lat="49.87245" lon="4.74483">
        <ele>205</ele>
        <time>2022-06-06T08:45:57.000Z</time>
      </trkpt>
      <trkpt lat="49.87245" lon="4.74483">
        <ele>205</ele>
        <time>2022-06-06T08:45:58.000Z</time>
      </trkpt>
      <trkpt lat="49.87245" lon="4.74482">
        <ele>205</ele>
        <time>2022-06-06T08:45:59.000Z</time>
      </trkpt>
      <trkpt lat="49.87245" lon="4.74482">
        <ele>205</ele>
        <time>2022-06-06T08:46:00.000Z</time>
      </trkpt>
      <trkpt lat="49.87245" lon="4.74482">
        <ele>205</ele>
        <time>2022-06-06T08:46:01.000Z</time>
      </trkpt>
      <trkpt lat="49.87245" lon="4.74481">
        <ele>205</ele>
        <time>2022-06-06T08:46:02.000Z</time>
      </trkpt>
      <trkpt lat="49.87246" lon="4.74481">
        <ele>205</ele>
        <time>2022-06-06T08:46:03.000Z</time>
      </trkpt>
      <trkpt lat="49.87246" lon="4.74481">
        <ele>205</ele>
        <time>2022-06-06T08:46:04.000Z</time>
      </trkpt>
      <trkpt lat="49.87246" lon="4.74481">
        <ele>205</ele>
        <time>2022-06-06T08:46:05.000Z</time>
      </trkpt>
      <trkpt lat="49.87246" lon="4.74481">
        <ele>205</ele>
        <time>2022-06-06T08:46:06.000Z</time>
      </trkpt>
      <trkpt lat="49.87246" lon="4.74481">
        <ele>205</ele>
        <time>2022-06-06T08:46:07.000Z</time>
      </trkpt>
      <trkpt lat="49.87247" lon="4.74482">
        <ele>205</ele>
        <time>2022-06-06T08:46:08.000Z</time>
      </trkpt>
      <trkpt lat="49.87247" lon="4.74482">
        <ele>205</ele>
        <time>2022-06-06T08:46:09.000Z</time>
      </trkpt>
      <trkpt lat="49.87247" lon="4.74482">
        <ele>205</ele>
        <time>2022-06-06T08:46:10.000Z</time>
      </trkpt>
      <trkpt lat="49.87247" lon="4.74482">
        <ele>205</ele>
        <time>2022-06-06T08:46:11.000Z</time>
      </trkpt>
      <trkpt lat="49.87247" lon="4.74482">
        <ele>205</ele>
        <time>2022-06-06T08:46:12.000Z</time>
      </trkpt>
      <trkpt lat="49.87247" lon="4.74482">
        <ele>205</ele>
        <time>2022-06-06T08:46:13.000Z</time>
      </trkpt>
      <trkpt lat="49.87248" lon="4.74482">
        <ele>205</ele>
        <time>2022-06-06T08:46:14.000Z</time>
      </trkpt>
      <trkpt lat="49.87247" lon="4.74482">
        <ele>205</ele>
        <time>2022-06-06T08:46:15.000Z</time>
      </trkpt>
      <trkpt lat="49.87248" lon="4.74482">
        <ele>205</ele>
        <time>2022-06-06T08:46:16.000Z</time>
      </trkpt>
      <trkpt lat="49.87248" lon="4.74482">
        <ele>205</ele>
        <time>2022-06-06T08:46:17.000Z</time>
      </trkpt>
      <trkpt lat="49.87248" lon="4.74481">
        <ele>204</ele>
        <time>2022-06-06T08:46:18.000Z</time>
      </trkpt>
      <trkpt lat="49.87248" lon="4.74482">
        <ele>204</ele>
        <time>2022-06-06T08:46:19.000Z</time>
      </trkpt>
      <trkpt lat="49.87248" lon="4.74481">
        <ele>204</ele>
        <time>2022-06-06T08:46:20.000Z</time>
      </trkpt>
      <trkpt lat="49.87249" lon="4.74481">
        <ele>204</ele>
        <time>2022-06-06T08:46:21.000Z</time>
      </trkpt>
      <trkpt lat="49.87249" lon="4.74481">
        <ele>204</ele>
        <time>2022-06-06T08:46:22.000Z</time>
      </trkpt>
      <trkpt lat="49.87249" lon="4.74481">
        <ele>204</ele>
        <time>2022-06-06T08:46:23.000Z</time>
      </trkpt>
      <trkpt lat="49.87249" lon="4.74481">
        <ele>204</ele>
        <time>2022-06-06T08:46:24.000Z</time>
      </trkpt>
      <trkpt lat="49.87249" lon="4.74481">
        <ele>204</ele>
        <time>2022-06-06T08:46:25.000Z</time>
      </trkpt>
      <trkpt lat="49.87249" lon="4.74481">
        <ele>204</ele>
        <time>2022-06-06T08:46:26.000Z</time>
      </trkpt>
      <trkpt lat="49.87249" lon="4.74481">
        <ele>204</ele>
        <time>2022-06-06T08:46:27.000Z</time>
      </trkpt>
      <trkpt lat="49.87249" lon="4.74481">
        <ele>203</ele>
        <time>2022-06-06T08:46:28.000Z</time>
      </trkpt>
      <trkpt lat="49.87249" lon="4.74481">
        <ele>203</ele>
        <time>2022-06-06T08:46:29.000Z</time>
      </trkpt>
      <trkpt lat="49.87249" lon="4.74481">
        <ele>203</ele>
        <time>2022-06-06T08:46:30.000Z</time>
      </trkpt>
      <trkpt lat="49.87249" lon="4.74481">
        <ele>203</ele>
        <time>2022-06-06T08:46:31.000Z</time>
      </trkpt>
      <trkpt lat="49.87249" lon="4.74481">
        <ele>203</ele>
        <time>2022-06-06T08:46:32.000Z</time>
      </trkpt>
      <trkpt lat="49.87249" lon="4.74481">
        <ele>203</ele>
        <time>2022-06-06T08:46:33.000Z</time>
      </trkpt>
      <trkpt lat="49.8725" lon="4.74481">
        <ele>203</ele>
        <time>2022-06-06T08:46:34.000Z</time>
      </trkpt>
      <trkpt lat="49.8725" lon="4.74481">
        <ele>203</ele>
        <time>2022-06-06T08:46:35.000Z</time>
      </trkpt>
      <trkpt lat="49.8725" lon="4.74481">
        <ele>203</ele>
        <time>2022-06-06T08:46:36.000Z</time>
      </trkpt>
      <trkpt lat="49.8725" lon="4.74481">
        <ele>203</ele>
        <time>2022-06-06T08:46:37.000Z</time>
      </trkpt>
      <trkpt lat="49.8725" lon="4.74481">
        <ele>203</ele>
        <time>2022-06-06T08:46:38.000Z</time>
      </trkpt>
      <trkpt lat="49.8725" lon="4.74481">
        <ele>203</ele>
        <time>2022-06-06T08:46:39.000Z</time>
      </trkpt>
      <trkpt lat="49.8725" lon="4.74481">
        <ele>203</ele>
        <time>2022-06-06T08:46:40.000Z</time>
      </trkpt>
      <trkpt lat="49.87251" lon="4.74481">
        <ele>203</ele>
        <time>2022-06-06T08:46:41.000Z</time>
      </trkpt>
      <trkpt lat="49.87252" lon="4.74481">
        <ele>203</ele>
        <time>2022-06-06T08:46:42.000Z</time>
      </trkpt>
      <trkpt lat="49.87253" lon="4.7448">
        <ele>203</ele>
        <time>2022-06-06T08:46:43.000Z</time>
      </trkpt>
      <trkpt lat="49.87255" lon="4.74479">
        <ele>203</ele>
        <time>2022-06-06T08:46:44.000Z</time>
      </trkpt>
      <trkpt lat="49.87257" lon="4.74478">
        <ele>203</ele>
        <time>2022-06-06T08:46:45.000Z</time>
      </trkpt>
      <trkpt lat="49.87258" lon="4.74478">
        <ele>203</ele>
        <time>2022-06-06T08:46:46.000Z</time>
      </trkpt>
      <trkpt lat="49.87258" lon="4.74479">
        <ele>203</ele>
        <time>2022-06-06T08:46:47.000Z</time>
      </trkpt>
      <trkpt lat="49.87258" lon="4.74479">
        <ele>203</ele>
        <time>2022-06-06T08:46:48.000Z</time>
      </trkpt>
      <trkpt lat="49.87258" lon="4.74478">
        <ele>203</ele>
        <time>2022-06-06T08:46:49.000Z</time>
      </trkpt>
      <trkpt lat="49.87259" lon="4.74477">
        <ele>203</ele>
        <time>2022-06-06T08:46:50.000Z</time>
      </trkpt>
      <trkpt lat="49.8726" lon="4.74476">
        <ele>203</ele>
        <time>2022-06-06T08:46:51.000Z</time>
      </trkpt>
      <trkpt lat="49.87261" lon="4.74475">
        <ele>203</ele>
        <time>2022-06-06T08:46:52.000Z</time>
      </trkpt>
      <trkpt lat="49.87263" lon="4.74474">
        <ele>203</ele>
        <time>2022-06-06T08:46:53.000Z</time>
      </trkpt>
      <trkpt lat="49.87266" lon="4.74473">
        <ele>203</ele>
        <time>2022-06-06T08:46:54.000Z</time>
      </trkpt>
      <trkpt lat="49.87268" lon="4.74472">
        <ele>203</ele>
        <time>2022-06-06T08:46:55.000Z</time>
      </trkpt>
      <trkpt lat="49.8727" lon="4.74473">
        <ele>203</ele>
        <time>2022-06-06T08:46:56.000Z</time>
      </trkpt>
      <trkpt lat="49.87273" lon="4.74473">
        <ele>203</ele>
        <time>2022-06-06T08:46:57.000Z</time>
      </trkpt>
      <trkpt lat="49.87276" lon="4.74473">
        <ele>203</ele>
        <time>2022-06-06T08:46:58.000Z</time>
      </trkpt>
      <trkpt lat="49.8728" lon="4.74472">
        <ele>202</ele>
        <time>2022-06-06T08:46:59.000Z</time>
      </trkpt>
      <trkpt lat="49.87283" lon="4.74472">
        <ele>202</ele>
        <time>2022-06-06T08:47:00.000Z</time>
      </trkpt>
      <trkpt lat="49.87287" lon="4.74471">
        <ele>202</ele>
        <time>2022-06-06T08:47:01.000Z</time>
      </trkpt>
      <trkpt lat="49.87291" lon="4.7447">
        <ele>202</ele>
        <time>2022-06-06T08:47:02.000Z</time>
      </trkpt>
      <trkpt lat="49.87294" lon="4.74467">
        <ele>202</ele>
        <time>2022-06-06T08:47:03.000Z</time>
      </trkpt>
      <trkpt lat="49.87298" lon="4.74465">
        <ele>202</ele>
        <time>2022-06-06T08:47:04.000Z</time>
      </trkpt>
      <trkpt lat="49.873" lon="4.74465">
        <ele>202</ele>
        <time>2022-06-06T08:47:05.000Z</time>
      </trkpt>
      <trkpt lat="49.87303" lon="4.74464">
        <ele>202</ele>
        <time>2022-06-06T08:47:06.000Z</time>
      </trkpt>
      <trkpt lat="49.87306" lon="4.74464">
        <ele>202</ele>
        <time>2022-06-06T08:47:07.000Z</time>
      </trkpt>
      <trkpt lat="49.8731" lon="4.74464">
        <ele>202</ele>
        <time>2022-06-06T08:47:08.000Z</time>
      </trkpt>
      <trkpt lat="49.87314" lon="4.74463">
        <ele>202</ele>
        <time>2022-06-06T08:47:09.000Z</time>
      </trkpt>
      <trkpt lat="49.87318" lon="4.74463">
        <ele>202</ele>
        <time>2022-06-06T08:47:10.000Z</time>
      </trkpt>
      <trkpt lat="49.87322" lon="4.74463">
        <ele>202</ele>
        <time>2022-06-06T08:47:11.000Z</time>
      </trkpt>
      <trkpt lat="49.87326" lon="4.74462">
        <ele>202</ele>
        <time>2022-06-06T08:47:12.000Z</time>
      </trkpt>
      <trkpt lat="49.8733" lon="4.74461">
        <ele>201</ele>
        <time>2022-06-06T08:47:13.000Z</time>
      </trkpt>
      <trkpt lat="49.87334" lon="4.74458">
        <ele>201</ele>
        <time>2022-06-06T08:47:14.000Z</time>
      </trkpt>
      <trkpt lat="49.87338" lon="4.74456">
        <ele>201</ele>
        <time>2022-06-06T08:47:15.000Z</time>
      </trkpt>
      <trkpt lat="49.87343" lon="4.74454">
        <ele>201</ele>
        <time>2022-06-06T08:47:16.000Z</time>
      </trkpt>
      <trkpt lat="49.87348" lon="4.74452">
        <ele>201</ele>
        <time>2022-06-06T08:47:17.000Z</time>
      </trkpt>
      <trkpt lat="49.87352" lon="4.74449">
        <ele>201</ele>
        <time>2022-06-06T08:47:18.000Z</time>
      </trkpt>
      <trkpt lat="49.87357" lon="4.74448">
        <ele>201</ele>
        <time>2022-06-06T08:47:19.000Z</time>
      </trkpt>
      <trkpt lat="49.87361" lon="4.74447">
        <ele>200</ele>
        <time>2022-06-06T08:47:20.000Z</time>
      </trkpt>
      <trkpt lat="49.87364" lon="4.74448">
        <ele>200</ele>
        <time>2022-06-06T08:47:21.000Z</time>
      </trkpt>
      <trkpt lat="49.87366" lon="4.74448">
        <ele>200</ele>
        <time>2022-06-06T08:47:22.000Z</time>
      </trkpt>
      <trkpt lat="49.87367" lon="4.74448">
        <ele>200</ele>
        <time>2022-06-06T08:47:23.000Z</time>
      </trkpt>
      <trkpt lat="49.87367" lon="4.74449">
        <ele>200</ele>
        <time>2022-06-06T08:47:24.000Z</time>
      </trkpt>
      <trkpt lat="49.87369" lon="4.74449">
        <ele>200</ele>
        <time>2022-06-06T08:47:25.000Z</time>
      </trkpt>
      <trkpt lat="49.8737" lon="4.7445">
        <ele>199</ele>
        <time>2022-06-06T08:47:26.000Z</time>
      </trkpt>
      <trkpt lat="49.87373" lon="4.7445">
        <ele>199</ele>
        <time>2022-06-06T08:47:27.000Z</time>
      </trkpt>
      <trkpt lat="49.87376" lon="4.74451">
        <ele>199</ele>
        <time>2022-06-06T08:47:28.000Z</time>
      </trkpt>
      <trkpt lat="49.87379" lon="4.74452">
        <ele>199</ele>
        <time>2022-06-06T08:47:29.000Z</time>
      </trkpt>
      <trkpt lat="49.87382" lon="4.74453">
        <ele>198</ele>
        <time>2022-06-06T08:47:30.000Z</time>
      </trkpt>
      <trkpt lat="49.87386" lon="4.74455">
        <ele>198</ele>
        <time>2022-06-06T08:47:31.000Z</time>
      </trkpt>
      <trkpt lat="49.8739" lon="4.74457">
        <ele>198</ele>
        <time>2022-06-06T08:47:32.000Z</time>
      </trkpt>
      <trkpt lat="49.87394" lon="4.74457">
        <ele>198</ele>
        <time>2022-06-06T08:47:33.000Z</time>
      </trkpt>
      <trkpt lat="49.87397" lon="4.74456">
        <ele>197</ele>
        <time>2022-06-06T08:47:34.000Z</time>
      </trkpt>
      <trkpt lat="49.874" lon="4.74454">
        <ele>197</ele>
        <time>2022-06-06T08:47:35.000Z</time>
      </trkpt>
      <trkpt lat="49.87403" lon="4.74451">
        <ele>197</ele>
        <time>2022-06-06T08:47:36.000Z</time>
      </trkpt>
      <trkpt lat="49.87405" lon="4.74449">
        <ele>197</ele>
        <time>2022-06-06T08:47:37.000Z</time>
      </trkpt>
      <trkpt lat="49.87408" lon="4.74447">
        <ele>196</ele>
        <time>2022-06-06T08:47:38.000Z</time>
      </trkpt>
      <trkpt lat="49.8741" lon="4.74446">
        <ele>196</ele>
        <time>2022-06-06T08:47:39.000Z</time>
      </trkpt>
      <trkpt lat="49.87411" lon="4.74445">
        <ele>196</ele>
        <time>2022-06-06T08:47:40.000Z</time>
      </trkpt>
      <trkpt lat="49.87412" lon="4.74445">
        <ele>195</ele>
        <time>2022-06-06T08:47:41.000Z</time>
      </trkpt>
      <trkpt lat="49.87412" lon="4.74445">
        <ele>195</ele>
        <time>2022-06-06T08:47:42.000Z</time>
      </trkpt>
      <trkpt lat="49.87413" lon="4.74445">
        <ele>195</ele>
        <time>2022-06-06T08:47:43.000Z</time>
      </trkpt>
      <trkpt lat="49.87414" lon="4.74445">
        <ele>194</ele>
        <time>2022-06-06T08:47:44.000Z</time>
      </trkpt>
      <trkpt lat="49.87415" lon="4.74445">
        <ele>194</ele>
        <time>2022-06-06T08:47:45.000Z</time>
      </trkpt>
      <trkpt lat="49.87416" lon="4.74445">
        <ele>194</ele>
        <time>2022-06-06T08:47:46.000Z</time>
      </trkpt>
      <trkpt lat="49.87417" lon="4.74445">
        <ele>194</ele>
        <time>2022-06-06T08:47:47.000Z</time>
      </trkpt>
      <trkpt lat="49.87419" lon="4.74444">
        <ele>193</ele>
        <time>2022-06-06T08:47:48.000Z</time>
      </trkpt>
      <trkpt lat="49.87422" lon="4.74442">
        <ele>193</ele>
        <time>2022-06-06T08:47:49.000Z</time>
      </trkpt>
      <trkpt lat="49.87425" lon="4.7444">
        <ele>193</ele>
        <time>2022-06-06T08:47:50.000Z</time>
      </trkpt>
      <trkpt lat="49.87429" lon="4.74438">
        <ele>193</ele>
        <time>2022-06-06T08:47:51.000Z</time>
      </trkpt>
      <trkpt lat="49.87433" lon="4.74435">
        <ele>192</ele>
        <time>2022-06-06T08:47:52.000Z</time>
      </trkpt>
      <trkpt lat="49.87437" lon="4.74434">
        <ele>192</ele>
        <time>2022-06-06T08:47:53.000Z</time>
      </trkpt>
      <trkpt lat="49.87442" lon="4.74432">
        <ele>192</ele>
        <time>2022-06-06T08:47:54.000Z</time>
      </trkpt>
      <trkpt lat="49.87446" lon="4.74429">
        <ele>192</ele>
        <time>2022-06-06T08:47:55.000Z</time>
      </trkpt>
      <trkpt lat="49.8745" lon="4.74427">
        <ele>191</ele>
        <time>2022-06-06T08:47:56.000Z</time>
      </trkpt>
      <trkpt lat="49.87454" lon="4.74426">
        <ele>191</ele>
        <time>2022-06-06T08:47:57.000Z</time>
      </trkpt>
      <trkpt lat="49.87458" lon="4.74424">
        <ele>191</ele>
        <time>2022-06-06T08:47:58.000Z</time>
      </trkpt>
      <trkpt lat="49.87462" lon="4.74421">
        <ele>191</ele>
        <time>2022-06-06T08:47:59.000Z</time>
      </trkpt>
      <trkpt lat="49.87466" lon="4.74419">
        <ele>191</ele>
        <time>2022-06-06T08:48:00.000Z</time>
      </trkpt>
      <trkpt lat="49.87469" lon="4.74416">
        <ele>191</ele>
        <time>2022-06-06T08:48:01.000Z</time>
      </trkpt>
      <trkpt lat="49.87472" lon="4.74415">
        <ele>191</ele>
        <time>2022-06-06T08:48:02.000Z</time>
      </trkpt>
      <trkpt lat="49.87476" lon="4.74413">
        <ele>190</ele>
        <time>2022-06-06T08:48:03.000Z</time>
      </trkpt>
      <trkpt lat="49.8748" lon="4.7441">
        <ele>190</ele>
        <time>2022-06-06T08:48:04.000Z</time>
      </trkpt>
      <trkpt lat="49.87485" lon="4.74407">
        <ele>190</ele>
        <time>2022-06-06T08:48:05.000Z</time>
      </trkpt>
      <trkpt lat="49.87489" lon="4.74403">
        <ele>190</ele>
        <time>2022-06-06T08:48:06.000Z</time>
      </trkpt>
      <trkpt lat="49.87493" lon="4.74399">
        <ele>190</ele>
        <time>2022-06-06T08:48:07.000Z</time>
      </trkpt>
      <trkpt lat="49.87496" lon="4.74396">
        <ele>190</ele>
        <time>2022-06-06T08:48:08.000Z</time>
      </trkpt>
      <trkpt lat="49.87498" lon="4.74394">
        <ele>189</ele>
        <time>2022-06-06T08:48:09.000Z</time>
      </trkpt>
      <trkpt lat="49.87501" lon="4.74393">
        <ele>189</ele>
        <time>2022-06-06T08:48:10.000Z</time>
      </trkpt>
      <trkpt lat="49.87503" lon="4.74392">
        <ele>189</ele>
        <time>2022-06-06T08:48:11.000Z</time>
      </trkpt>
      <trkpt lat="49.87504" lon="4.74392">
        <ele>189</ele>
        <time>2022-06-06T08:48:12.000Z</time>
      </trkpt>
      <trkpt lat="49.87505" lon="4.74392">
        <ele>188</ele>
        <time>2022-06-06T08:48:13.000Z</time>
      </trkpt>
      <trkpt lat="49.87505" lon="4.74391">
        <ele>188</ele>
        <time>2022-06-06T08:48:14.000Z</time>
      </trkpt>
      <trkpt lat="49.87506" lon="4.7439">
        <ele>188</ele>
        <time>2022-06-06T08:48:15.000Z</time>
      </trkpt>
      <trkpt lat="49.87508" lon="4.74388">
        <ele>188</ele>
        <time>2022-06-06T08:48:16.000Z</time>
      </trkpt>
      <trkpt lat="49.87511" lon="4.74385">
        <ele>187</ele>
        <time>2022-06-06T08:48:17.000Z</time>
      </trkpt>
      <trkpt lat="49.87514" lon="4.74382">
        <ele>187</ele>
        <time>2022-06-06T08:48:18.000Z</time>
      </trkpt>
      <trkpt lat="49.87517" lon="4.74379">
        <ele>187</ele>
        <time>2022-06-06T08:48:19.000Z</time>
      </trkpt>
      <trkpt lat="49.87521" lon="4.74376">
        <ele>186</ele>
        <time>2022-06-06T08:48:20.000Z</time>
      </trkpt>
      <trkpt lat="49.87526" lon="4.74373">
        <ele>186</ele>
        <time>2022-06-06T08:48:21.000Z</time>
      </trkpt>
      <trkpt lat="49.87531" lon="4.7437">
        <ele>186</ele>
        <time>2022-06-06T08:48:22.000Z</time>
      </trkpt>
      <trkpt lat="49.87535" lon="4.74367">
        <ele>185</ele>
        <time>2022-06-06T08:48:23.000Z</time>
      </trkpt>
      <trkpt lat="49.8754" lon="4.74364">
        <ele>185</ele>
        <time>2022-06-06T08:48:24.000Z</time>
      </trkpt>
      <trkpt lat="49.87543" lon="4.74361">
        <ele>184</ele>
        <time>2022-06-06T08:48:25.000Z</time>
      </trkpt>
      <trkpt lat="49.87547" lon="4.74358">
        <ele>184</ele>
        <time>2022-06-06T08:48:26.000Z</time>
      </trkpt>
      <trkpt lat="49.87551" lon="4.74356">
        <ele>183</ele>
        <time>2022-06-06T08:48:27.000Z</time>
      </trkpt>
      <trkpt lat="49.87555" lon="4.74354">
        <ele>183</ele>
        <time>2022-06-06T08:48:28.000Z</time>
      </trkpt>
      <trkpt lat="49.87558" lon="4.74353">
        <ele>183</ele>
        <time>2022-06-06T08:48:29.000Z</time>
      </trkpt>
      <trkpt lat="49.8756" lon="4.74352">
        <ele>182</ele>
        <time>2022-06-06T08:48:30.000Z</time>
      </trkpt>
      <trkpt lat="49.87562" lon="4.74351">
        <ele>182</ele>
        <time>2022-06-06T08:48:31.000Z</time>
      </trkpt>
      <trkpt lat="49.87566" lon="4.74349">
        <ele>181</ele>
        <time>2022-06-06T08:48:32.000Z</time>
      </trkpt>
      <trkpt lat="49.8757" lon="4.74347">
        <ele>181</ele>
        <time>2022-06-06T08:48:33.000Z</time>
      </trkpt>
      <trkpt lat="49.87575" lon="4.74346">
        <ele>180</ele>
        <time>2022-06-06T08:48:34.000Z</time>
      </trkpt>
      <trkpt lat="49.87579" lon="4.74344">
        <ele>180</ele>
        <time>2022-06-06T08:48:35.000Z</time>
      </trkpt>
      <trkpt lat="49.87583" lon="4.74342">
        <ele>179</ele>
        <time>2022-06-06T08:48:36.000Z</time>
      </trkpt>
      <trkpt lat="49.87588" lon="4.7434">
        <ele>179</ele>
        <time>2022-06-06T08:48:37.000Z</time>
      </trkpt>
      <trkpt lat="49.87592" lon="4.74338">
        <ele>178</ele>
        <time>2022-06-06T08:48:38.000Z</time>
      </trkpt>
      <trkpt lat="49.87596" lon="4.74337">
        <ele>178</ele>
        <time>2022-06-06T08:48:39.000Z</time>
      </trkpt>
      <trkpt lat="49.876" lon="4.74335">
        <ele>177</ele>
        <time>2022-06-06T08:48:40.000Z</time>
      </trkpt>
      <trkpt lat="49.87604" lon="4.74333">
        <ele>177</ele>
        <time>2022-06-06T08:48:41.000Z</time>
      </trkpt>
      <trkpt lat="49.87607" lon="4.74331">
        <ele>176</ele>
        <time>2022-06-06T08:48:42.000Z</time>
      </trkpt>
      <trkpt lat="49.87611" lon="4.74329">
        <ele>176</ele>
        <time>2022-06-06T08:48:43.000Z</time>
      </trkpt>
      <trkpt lat="49.87615" lon="4.74327">
        <ele>175</ele>
        <time>2022-06-06T08:48:44.000Z</time>
      </trkpt>
      <trkpt lat="49.8762" lon="4.74327">
        <ele>175</ele>
        <time>2022-06-06T08:48:45.000Z</time>
      </trkpt>
      <trkpt lat="49.87623" lon="4.74327">
        <ele>174</ele>
        <time>2022-06-06T08:48:46.000Z</time>
      </trkpt>
      <trkpt lat="49.87627" lon="4.74329">
        <ele>174</ele>
        <time>2022-06-06T08:48:47.000Z</time>
      </trkpt>
      <trkpt lat="49.8763" lon="4.74331">
        <ele>173</ele>
        <time>2022-06-06T08:48:48.000Z</time>
      </trkpt>
      <trkpt lat="49.87633" lon="4.74332">
        <ele>173</ele>
        <time>2022-06-06T08:48:49.000Z</time>
      </trkpt>
      <trkpt lat="49.87636" lon="4.74333">
        <ele>173</ele>
        <time>2022-06-06T08:48:50.000Z</time>
      </trkpt>
      <trkpt lat="49.87639" lon="4.74335">
        <ele>172</ele>
        <time>2022-06-06T08:48:51.000Z</time>
      </trkpt>
      <trkpt lat="49.87642" lon="4.74336">
        <ele>172</ele>
        <time>2022-06-06T08:48:52.000Z</time>
      </trkpt>
      <trkpt lat="49.87645" lon="4.74338">
        <ele>172</ele>
        <time>2022-06-06T08:48:53.000Z</time>
      </trkpt>
      <trkpt lat="49.87647" lon="4.7434">
        <ele>171</ele>
        <time>2022-06-06T08:48:54.000Z</time>
      </trkpt>
      <trkpt lat="49.87649" lon="4.74342">
        <ele>171</ele>
        <time>2022-06-06T08:48:55.000Z</time>
      </trkpt>
      <trkpt lat="49.87652" lon="4.74343">
        <ele>170</ele>
        <time>2022-06-06T08:48:56.000Z</time>
      </trkpt>
      <trkpt lat="49.87654" lon="4.74345">
        <ele>170</ele>
        <time>2022-06-06T08:48:57.000Z</time>
      </trkpt>
      <trkpt lat="49.87657" lon="4.74347">
        <ele>170</ele>
        <time>2022-06-06T08:48:58.000Z</time>
      </trkpt>
      <trkpt lat="49.87659" lon="4.74348">
        <ele>169</ele>
        <time>2022-06-06T08:48:59.000Z</time>
      </trkpt>
      <trkpt lat="49.87662" lon="4.74348">
        <ele>169</ele>
        <time>2022-06-06T08:49:00.000Z</time>
      </trkpt>
      <trkpt lat="49.87664" lon="4.7435">
        <ele>168</ele>
        <time>2022-06-06T08:49:01.000Z</time>
      </trkpt>
      <trkpt lat="49.87666" lon="4.74351">
        <ele>168</ele>
        <time>2022-06-06T08:49:02.000Z</time>
      </trkpt>
      <trkpt lat="49.87669" lon="4.74354">
        <ele>168</ele>
        <time>2022-06-06T08:49:03.000Z</time>
      </trkpt>
      <trkpt lat="49.87672" lon="4.74356">
        <ele>167</ele>
        <time>2022-06-06T08:49:04.000Z</time>
      </trkpt>
      <trkpt lat="49.87675" lon="4.74358">
        <ele>167</ele>
        <time>2022-06-06T08:49:05.000Z</time>
      </trkpt>
      <trkpt lat="49.87678" lon="4.74361">
        <ele>167</ele>
        <time>2022-06-06T08:49:06.000Z</time>
      </trkpt>
      <trkpt lat="49.87681" lon="4.74364">
        <ele>166</ele>
        <time>2022-06-06T08:49:07.000Z</time>
      </trkpt>
      <trkpt lat="49.87683" lon="4.74366">
        <ele>166</ele>
        <time>2022-06-06T08:49:08.000Z</time>
      </trkpt>
      <trkpt lat="49.87685" lon="4.74369">
        <ele>165</ele>
        <time>2022-06-06T08:49:09.000Z</time>
      </trkpt>
      <trkpt lat="49.87688" lon="4.74372">
        <ele>165</ele>
        <time>2022-06-06T08:49:10.000Z</time>
      </trkpt>
      <trkpt lat="49.87691" lon="4.74374">
        <ele>165</ele>
        <time>2022-06-06T08:49:11.000Z</time>
      </trkpt>
      <trkpt lat="49.87693" lon="4.74377">
        <ele>164</ele>
        <time>2022-06-06T08:49:12.000Z</time>
      </trkpt>
      <trkpt lat="49.87696" lon="4.74379">
        <ele>164</ele>
        <time>2022-06-06T08:49:13.000Z</time>
      </trkpt>
      <trkpt lat="49.87698" lon="4.74381">
        <ele>164</ele>
        <time>2022-06-06T08:49:14.000Z</time>
      </trkpt>
      <trkpt lat="49.877" lon="4.74383">
        <ele>163</ele>
        <time>2022-06-06T08:49:15.000Z</time>
      </trkpt>
      <trkpt lat="49.87702" lon="4.74385">
        <ele>163</ele>
        <time>2022-06-06T08:49:16.000Z</time>
      </trkpt>
      <trkpt lat="49.87704" lon="4.74387">
        <ele>163</ele>
        <time>2022-06-06T08:49:17.000Z</time>
      </trkpt>
      <trkpt lat="49.87706" lon="4.74389">
        <ele>163</ele>
        <time>2022-06-06T08:49:18.000Z</time>
      </trkpt>
      <trkpt lat="49.87708" lon="4.74391">
        <ele>163</ele>
        <time>2022-06-06T08:49:19.000Z</time>
      </trkpt>
      <trkpt lat="49.87709" lon="4.74392">
        <ele>163</ele>
        <time>2022-06-06T08:49:20.000Z</time>
      </trkpt>
      <trkpt lat="49.87711" lon="4.74394">
        <ele>163</ele>
        <time>2022-06-06T08:49:21.000Z</time>
      </trkpt>
      <trkpt lat="49.87713" lon="4.74396">
        <ele>163</ele>
        <time>2022-06-06T08:49:22.000Z</time>
      </trkpt>
      <trkpt lat="49.87715" lon="4.74398">
        <ele>163</ele>
        <time>2022-06-06T08:49:23.000Z</time>
      </trkpt>
      <trkpt lat="49.87717" lon="4.744">
        <ele>163</ele>
        <time>2022-06-06T08:49:24.000Z</time>
      </trkpt>
      <trkpt lat="49.8772" lon="4.74402">
        <ele>164</ele>
        <time>2022-06-06T08:49:25.000Z</time>
      </trkpt>
      <trkpt lat="49.87722" lon="4.74404">
        <ele>164</ele>
        <time>2022-06-06T08:49:26.000Z</time>
      </trkpt>
      <trkpt lat="49.87723" lon="4.74405">
        <ele>164</ele>
        <time>2022-06-06T08:49:27.000Z</time>
      </trkpt>
      <trkpt lat="49.87723" lon="4.74405">
        <ele>165</ele>
        <time>2022-06-06T08:49:28.000Z</time>
      </trkpt>
      <trkpt lat="49.87723" lon="4.74405">
        <ele>165</ele>
        <time>2022-06-06T08:49:29.000Z</time>
      </trkpt>
      <trkpt lat="49.87724" lon="4.74405">
        <ele>165</ele>
        <time>2022-06-06T08:49:30.000Z</time>
      </trkpt>
      <trkpt lat="49.87724" lon="4.74405">
        <ele>165</ele>
        <time>2022-06-06T08:49:31.000Z</time>
      </trkpt>
      <trkpt lat="49.87724" lon="4.74405">
        <ele>165</ele>
        <time>2022-06-06T08:49:32.000Z</time>
      </trkpt>
      <trkpt lat="49.87724" lon="4.74405">
        <ele>165</ele>
        <time>2022-06-06T08:49:33.000Z</time>
      </trkpt>
      <trkpt lat="49.87724" lon="4.74405">
        <ele>166</ele>
        <time>2022-06-06T08:49:34.000Z</time>
      </trkpt>
      <trkpt lat="49.87725" lon="4.74405">
        <ele>166</ele>
        <time>2022-06-06T08:49:35.000Z</time>
      </trkpt>
      <trkpt lat="49.87725" lon="4.74405">
        <ele>166</ele>
        <time>2022-06-06T08:49:36.000Z</time>
      </trkpt>
      <trkpt lat="49.87725" lon="4.74405">
        <ele>166</ele>
        <time>2022-06-06T08:49:37.000Z</time>
      </trkpt>
      <trkpt lat="49.87725" lon="4.74405">
        <ele>166</ele>
        <time>2022-06-06T08:49:38.000Z</time>
      </trkpt>
      <trkpt lat="49.87725" lon="4.74405">
        <ele>166</ele>
        <time>2022-06-06T08:49:39.000Z</time>
      </trkpt>
      <trkpt lat="49.87726" lon="4.74406">
        <ele>166</ele>
        <time>2022-06-06T08:49:40.000Z</time>
      </trkpt>
      <trkpt lat="49.87727" lon="4.74408">
        <ele>167</ele>
        <time>2022-06-06T08:49:41.000Z</time>
      </trkpt>
      <trkpt lat="49.87729" lon="4.74409">
        <ele>167</ele>
        <time>2022-06-06T08:49:42.000Z</time>
      </trkpt>
      <trkpt lat="49.87731" lon="4.74411">
        <ele>167</ele>
        <time>2022-06-06T08:49:43.000Z</time>
      </trkpt>
      <trkpt lat="49.87734" lon="4.74413">
        <ele>167</ele>
        <time>2022-06-06T08:49:44.000Z</time>
      </trkpt>
      <trkpt lat="49.87736" lon="4.74415">
        <ele>167</ele>
        <time>2022-06-06T08:49:45.000Z</time>
      </trkpt>
      <trkpt lat="49.87739" lon="4.74417">
        <ele>167</ele>
        <time>2022-06-06T08:49:46.000Z</time>
      </trkpt>
      <trkpt lat="49.87742" lon="4.7442">
        <ele>168</ele>
        <time>2022-06-06T08:49:47.000Z</time>
      </trkpt>
      <trkpt lat="49.87744" lon="4.74422">
        <ele>168</ele>
        <time>2022-06-06T08:49:48.000Z</time>
      </trkpt>
      <trkpt lat="49.87747" lon="4.74425">
        <ele>168</ele>
        <time>2022-06-06T08:49:49.000Z</time>
      </trkpt>
      <trkpt lat="49.8775" lon="4.74427">
        <ele>168</ele>
        <time>2022-06-06T08:49:50.000Z</time>
      </trkpt>
      <trkpt lat="49.87752" lon="4.74429">
        <ele>168</ele>
        <time>2022-06-06T08:49:51.000Z</time>
      </trkpt>
      <trkpt lat="49.87754" lon="4.7443">
        <ele>169</ele>
        <time>2022-06-06T08:49:52.000Z</time>
      </trkpt>
      <trkpt lat="49.87756" lon="4.74432">
        <ele>169</ele>
        <time>2022-06-06T08:49:53.000Z</time>
      </trkpt>
      <trkpt lat="49.87758" lon="4.74434">
        <ele>169</ele>
        <time>2022-06-06T08:49:54.000Z</time>
      </trkpt>
      <trkpt lat="49.8776" lon="4.74436">
        <ele>169</ele>
        <time>2022-06-06T08:49:55.000Z</time>
      </trkpt>
      <trkpt lat="49.87762" lon="4.74438">
        <ele>169</ele>
        <time>2022-06-06T08:49:56.000Z</time>
      </trkpt>
      <trkpt lat="49.87763" lon="4.74439">
        <ele>169</ele>
        <time>2022-06-06T08:49:57.000Z</time>
      </trkpt>
      <trkpt lat="49.87765" lon="4.7444">
        <ele>169</ele>
        <time>2022-06-06T08:49:58.000Z</time>
      </trkpt>
      <trkpt lat="49.87766" lon="4.74442">
        <ele>169</ele>
        <time>2022-06-06T08:49:59.000Z</time>
      </trkpt>
      <trkpt lat="49.87768" lon="4.74443">
        <ele>169</ele>
        <time>2022-06-06T08:50:00.000Z</time>
      </trkpt>
      <trkpt lat="49.87771" lon="4.74445">
        <ele>170</ele>
        <time>2022-06-06T08:50:01.000Z</time>
      </trkpt>
      <trkpt lat="49.87772" lon="4.74447">
        <ele>170</ele>
        <time>2022-06-06T08:50:02.000Z</time>
      </trkpt>
      <trkpt lat="49.87774" lon="4.74449">
        <ele>170</ele>
        <time>2022-06-06T08:50:03.000Z</time>
      </trkpt>
      <trkpt lat="49.87777" lon="4.74451">
        <ele>170</ele>
        <time>2022-06-06T08:50:04.000Z</time>
      </trkpt>
      <trkpt lat="49.87779" lon="4.74453">
        <ele>170</ele>
        <time>2022-06-06T08:50:05.000Z</time>
      </trkpt>
      <trkpt lat="49.87782" lon="4.74456">
        <ele>170</ele>
        <time>2022-06-06T08:50:06.000Z</time>
      </trkpt>
      <trkpt lat="49.87784" lon="4.74457">
        <ele>171</ele>
        <time>2022-06-06T08:50:07.000Z</time>
      </trkpt>
      <trkpt lat="49.87785" lon="4.74458">
        <ele>171</ele>
        <time>2022-06-06T08:50:08.000Z</time>
      </trkpt>
      <trkpt lat="49.87785" lon="4.74458">
        <ele>171</ele>
        <time>2022-06-06T08:50:09.000Z</time>
      </trkpt>
      <trkpt lat="49.87785" lon="4.74458">
        <ele>171</ele>
        <time>2022-06-06T08:50:10.000Z</time>
      </trkpt>
      <trkpt lat="49.87785" lon="4.74458">
        <ele>172</ele>
        <time>2022-06-06T08:50:11.000Z</time>
      </trkpt>
      <trkpt lat="49.87785" lon="4.74458">
        <ele>172</ele>
        <time>2022-06-06T08:50:12.000Z</time>
      </trkpt>
      <trkpt lat="49.87786" lon="4.74458">
        <ele>172</ele>
        <time>2022-06-06T08:50:13.000Z</time>
      </trkpt>
      <trkpt lat="49.87786" lon="4.74457">
        <ele>172</ele>
        <time>2022-06-06T08:50:14.000Z</time>
      </trkpt>
      <trkpt lat="49.87786" lon="4.74457">
        <ele>172</ele>
        <time>2022-06-06T08:50:15.000Z</time>
      </trkpt>
      <trkpt lat="49.87786" lon="4.74458">
        <ele>172</ele>
        <time>2022-06-06T08:50:16.000Z</time>
      </trkpt>
      <trkpt lat="49.87786" lon="4.74458">
        <ele>172</ele>
        <time>2022-06-06T08:50:17.000Z</time>
      </trkpt>
      <trkpt lat="49.87787" lon="4.74458">
        <ele>172</ele>
        <time>2022-06-06T08:50:18.000Z</time>
      </trkpt>
      <trkpt lat="49.87787" lon="4.74458">
        <ele>172</ele>
        <time>2022-06-06T08:50:19.000Z</time>
      </trkpt>
      <trkpt lat="49.87787" lon="4.74458">
        <ele>172</ele>
        <time>2022-06-06T08:50:20.000Z</time>
      </trkpt>
      <trkpt lat="49.87787" lon="4.74458">
        <ele>173</ele>
        <time>2022-06-06T08:50:21.000Z</time>
      </trkpt>
      <trkpt lat="49.87787" lon="4.74458">
        <ele>173</ele>
        <time>2022-06-06T08:50:22.000Z</time>
      </trkpt>
      <trkpt lat="49.87787" lon="4.74458">
        <ele>173</ele>
        <time>2022-06-06T08:50:23.000Z</time>
      </trkpt>
      <trkpt lat="49.87787" lon="4.74458">
        <ele>173</ele>
        <time>2022-06-06T08:50:24.000Z</time>
      </trkpt>
      <trkpt lat="49.87787" lon="4.74458">
        <ele>173</ele>
        <time>2022-06-06T08:50:25.000Z</time>
      </trkpt>
      <trkpt lat="49.87787" lon="4.74458">
        <ele>173</ele>
        <time>2022-06-06T08:50:26.000Z</time>
      </trkpt>
      <trkpt lat="49.87787" lon="4.74459">
        <ele>173</ele>
        <time>2022-06-06T08:50:27.000Z</time>
      </trkpt>
      <trkpt lat="49.87788" lon="4.74459">
        <ele>173</ele>
        <time>2022-06-06T08:50:28.000Z</time>
      </trkpt>
      <trkpt lat="49.87788" lon="4.74459">
        <ele>173</ele>
        <time>2022-06-06T08:50:29.000Z</time>
      </trkpt>
      <trkpt lat="49.87788" lon="4.7446">
        <ele>173</ele>
        <time>2022-06-06T08:50:30.000Z</time>
      </trkpt>
      <trkpt lat="49.87789" lon="4.74461">
        <ele>173</ele>
        <time>2022-06-06T08:50:31.000Z</time>
      </trkpt>
      <trkpt lat="49.8779" lon="4.74463">
        <ele>173</ele>
        <time>2022-06-06T08:50:32.000Z</time>
      </trkpt>
      <trkpt lat="49.87792" lon="4.74464">
        <ele>173</ele>
        <time>2022-06-06T08:50:33.000Z</time>
      </trkpt>
      <trkpt lat="49.87794" lon="4.74465">
        <ele>172</ele>
        <time>2022-06-06T08:50:34.000Z</time>
      </trkpt>
      <trkpt lat="49.87796" lon="4.74467">
        <ele>172</ele>
        <time>2022-06-06T08:50:35.000Z</time>
      </trkpt>
      <trkpt lat="49.87799" lon="4.74469">
        <ele>172</ele>
        <time>2022-06-06T08:50:36.000Z</time>
      </trkpt>
      <trkpt lat="49.87801" lon="4.74471">
        <ele>172</ele>
        <time>2022-06-06T08:50:37.000Z</time>
      </trkpt>
      <trkpt lat="49.87803" lon="4.74473">
        <ele>173</ele>
        <time>2022-06-06T08:50:38.000Z</time>
      </trkpt>
      <trkpt lat="49.87805" lon="4.74475">
        <ele>173</ele>
        <time>2022-06-06T08:50:39.000Z</time>
      </trkpt>
      <trkpt lat="49.87807" lon="4.74477">
        <ele>173</ele>
        <time>2022-06-06T08:50:40.000Z</time>
      </trkpt>
      <trkpt lat="49.8781" lon="4.74479">
        <ele>173</ele>
        <time>2022-06-06T08:50:41.000Z</time>
      </trkpt>
      <trkpt lat="49.87813" lon="4.74481">
        <ele>174</ele>
        <time>2022-06-06T08:50:42.000Z</time>
      </trkpt>
      <trkpt lat="49.87816" lon="4.74482">
        <ele>174</ele>
        <time>2022-06-06T08:50:43.000Z</time>
      </trkpt>
      <trkpt lat="49.87819" lon="4.74485">
        <ele>174</ele>
        <time>2022-06-06T08:50:44.000Z</time>
      </trkpt>
      <trkpt lat="49.87821" lon="4.74487">
        <ele>174</ele>
        <time>2022-06-06T08:50:45.000Z</time>
      </trkpt>
      <trkpt lat="49.87824" lon="4.74489">
        <ele>175</ele>
        <time>2022-06-06T08:50:46.000Z</time>
      </trkpt>
      <trkpt lat="49.87827" lon="4.74491">
        <ele>175</ele>
        <time>2022-06-06T08:50:47.000Z</time>
      </trkpt>
      <trkpt lat="49.8783" lon="4.74493">
        <ele>175</ele>
        <time>2022-06-06T08:50:48.000Z</time>
      </trkpt>
      <trkpt lat="49.87832" lon="4.74495">
        <ele>175</ele>
        <time>2022-06-06T08:50:49.000Z</time>
      </trkpt>
      <trkpt lat="49.87834" lon="4.74497">
        <ele>175</ele>
        <time>2022-06-06T08:50:50.000Z</time>
      </trkpt>
      <trkpt lat="49.87835" lon="4.74498">
        <ele>175</ele>
        <time>2022-06-06T08:50:51.000Z</time>
      </trkpt>
      <trkpt lat="49.87835" lon="4.74498">
        <ele>175</ele>
        <time>2022-06-06T08:50:52.000Z</time>
      </trkpt>
      <trkpt lat="49.87836" lon="4.74499">
        <ele>176</ele>
        <time>2022-06-06T08:50:53.000Z</time>
      </trkpt>
      <trkpt lat="49.87837" lon="4.745">
        <ele>176</ele>
        <time>2022-06-06T08:50:54.000Z</time>
      </trkpt>
      <trkpt lat="49.87838" lon="4.74501">
        <ele>176</ele>
        <time>2022-06-06T08:50:55.000Z</time>
      </trkpt>
      <trkpt lat="49.87838" lon="4.74501">
        <ele>175</ele>
        <time>2022-06-06T08:50:56.000Z</time>
      </trkpt>
      <trkpt lat="49.87839" lon="4.74502">
        <ele>175</ele>
        <time>2022-06-06T08:50:57.000Z</time>
      </trkpt>
      <trkpt lat="49.87839" lon="4.74502">
        <ele>176</ele>
        <time>2022-06-06T08:50:58.000Z</time>
      </trkpt>
      <trkpt lat="49.87839" lon="4.74502">
        <ele>176</ele>
        <time>2022-06-06T08:50:59.000Z</time>
      </trkpt>
      <trkpt lat="49.87839" lon="4.74502">
        <ele>176</ele>
        <time>2022-06-06T08:51:00.000Z</time>
      </trkpt>
      <trkpt lat="49.87839" lon="4.74503">
        <ele>176</ele>
        <time>2022-06-06T08:51:01.000Z</time>
      </trkpt>
      <trkpt lat="49.87839" lon="4.74503">
        <ele>176</ele>
        <time>2022-06-06T08:51:02.000Z</time>
      </trkpt>
      <trkpt lat="49.87839" lon="4.74504">
        <ele>176</ele>
        <time>2022-06-06T08:51:03.000Z</time>
      </trkpt>
      <trkpt lat="49.87839" lon="4.74504">
        <ele>176</ele>
        <time>2022-06-06T08:51:04.000Z</time>
      </trkpt>
      <trkpt lat="49.87839" lon="4.74504">
        <ele>176</ele>
        <time>2022-06-06T08:51:05.000Z</time>
      </trkpt>
      <trkpt lat="49.87839" lon="4.74504">
        <ele>176</ele>
        <time>2022-06-06T08:51:06.000Z</time>
      </trkpt>
      <trkpt lat="49.87839" lon="4.74505">
        <ele>176</ele>
        <time>2022-06-06T08:51:07.000Z</time>
      </trkpt>
      <trkpt lat="49.87839" lon="4.74505">
        <ele>175</ele>
        <time>2022-06-06T08:51:08.000Z</time>
      </trkpt>
      <trkpt lat="49.87839" lon="4.74505">
        <ele>175</ele>
        <time>2022-06-06T08:51:09.000Z</time>
      </trkpt>
      <trkpt lat="49.87839" lon="4.74505">
        <ele>175</ele>
        <time>2022-06-06T08:51:10.000Z</time>
      </trkpt>
      <trkpt lat="49.87839" lon="4.74506">
        <ele>175</ele>
        <time>2022-06-06T08:51:11.000Z</time>
      </trkpt>
      <trkpt lat="49.87839" lon="4.74506">
        <ele>175</ele>
        <time>2022-06-06T08:51:12.000Z</time>
      </trkpt>
      <trkpt lat="49.87839" lon="4.74506">
        <ele>175</ele>
        <time>2022-06-06T08:51:13.000Z</time>
      </trkpt>
      <trkpt lat="49.8784" lon="4.74507">
        <ele>175</ele>
        <time>2022-06-06T08:51:14.000Z</time>
      </trkpt>
      <trkpt lat="49.87842" lon="4.74508">
        <ele>175</ele>
        <time>2022-06-06T08:51:15.000Z</time>
      </trkpt>
      <trkpt lat="49.87844" lon="4.74511">
        <ele>175</ele>
        <time>2022-06-06T08:51:16.000Z</time>
      </trkpt>
      <trkpt lat="49.87846" lon="4.74512">
        <ele>175</ele>
        <time>2022-06-06T08:51:17.000Z</time>
      </trkpt>
      <trkpt lat="49.87849" lon="4.74514">
        <ele>176</ele>
        <time>2022-06-06T08:51:18.000Z</time>
      </trkpt>
      <trkpt lat="49.87851" lon="4.74516">
        <ele>176</ele>
        <time>2022-06-06T08:51:19.000Z</time>
      </trkpt>
      <trkpt lat="49.87854" lon="4.74519">
        <ele>176</ele>
        <time>2022-06-06T08:51:20.000Z</time>
      </trkpt>
      <trkpt lat="49.87856" lon="4.74522">
        <ele>176</ele>
        <time>2022-06-06T08:51:21.000Z</time>
      </trkpt>
      <trkpt lat="49.87859" lon="4.74524">
        <ele>176</ele>
        <time>2022-06-06T08:51:22.000Z</time>
      </trkpt>
      <trkpt lat="49.87861" lon="4.74526">
        <ele>176</ele>
        <time>2022-06-06T08:51:23.000Z</time>
      </trkpt>
      <trkpt lat="49.87863" lon="4.74529">
        <ele>176</ele>
        <time>2022-06-06T08:51:24.000Z</time>
      </trkpt>
      <trkpt lat="49.87865" lon="4.74531">
        <ele>176</ele>
        <time>2022-06-06T08:51:25.000Z</time>
      </trkpt>
      <trkpt lat="49.87867" lon="4.74533">
        <ele>176</ele>
        <time>2022-06-06T08:51:26.000Z</time>
      </trkpt>
      <trkpt lat="49.87869" lon="4.74535">
        <ele>176</ele>
        <time>2022-06-06T08:51:27.000Z</time>
      </trkpt>
      <trkpt lat="49.87871" lon="4.74537">
        <ele>177</ele>
        <time>2022-06-06T08:51:28.000Z</time>
      </trkpt>
      <trkpt lat="49.87873" lon="4.74539">
        <ele>177</ele>
        <time>2022-06-06T08:51:29.000Z</time>
      </trkpt>
      <trkpt lat="49.87875" lon="4.74541">
        <ele>177</ele>
        <time>2022-06-06T08:51:30.000Z</time>
      </trkpt>
      <trkpt lat="49.87877" lon="4.74544">
        <ele>177</ele>
        <time>2022-06-06T08:51:31.000Z</time>
      </trkpt>
      <trkpt lat="49.8788" lon="4.74547">
        <ele>177</ele>
        <time>2022-06-06T08:51:32.000Z</time>
      </trkpt>
      <trkpt lat="49.87881" lon="4.74549">
        <ele>177</ele>
        <time>2022-06-06T08:51:33.000Z</time>
      </trkpt>
      <trkpt lat="49.87883" lon="4.74552">
        <ele>178</ele>
        <time>2022-06-06T08:51:34.000Z</time>
      </trkpt>
      <trkpt lat="49.87885" lon="4.74555">
        <ele>178</ele>
        <time>2022-06-06T08:51:35.000Z</time>
      </trkpt>
      <trkpt lat="49.87886" lon="4.74558">
        <ele>178</ele>
        <time>2022-06-06T08:51:36.000Z</time>
      </trkpt>
      <trkpt lat="49.87888" lon="4.7456">
        <ele>178</ele>
        <time>2022-06-06T08:51:37.000Z</time>
      </trkpt>
      <trkpt lat="49.8789" lon="4.74563">
        <ele>178</ele>
        <time>2022-06-06T08:51:38.000Z</time>
      </trkpt>
      <trkpt lat="49.87892" lon="4.74566">
        <ele>179</ele>
        <time>2022-06-06T08:51:39.000Z</time>
      </trkpt>
      <trkpt lat="49.87894" lon="4.74568">
        <ele>179</ele>
        <time>2022-06-06T08:51:40.000Z</time>
      </trkpt>
      <trkpt lat="49.87895" lon="4.74571">
        <ele>179</ele>
        <time>2022-06-06T08:51:41.000Z</time>
      </trkpt>
      <trkpt lat="49.87897" lon="4.74574">
        <ele>179</ele>
        <time>2022-06-06T08:51:42.000Z</time>
      </trkpt>
      <trkpt lat="49.87899" lon="4.74577">
        <ele>179</ele>
        <time>2022-06-06T08:51:43.000Z</time>
      </trkpt>
      <trkpt lat="49.87901" lon="4.7458">
        <ele>180</ele>
        <time>2022-06-06T08:51:44.000Z</time>
      </trkpt>
      <trkpt lat="49.87902" lon="4.74583">
        <ele>180</ele>
        <time>2022-06-06T08:51:45.000Z</time>
      </trkpt>
      <trkpt lat="49.87904" lon="4.74586">
        <ele>180</ele>
        <time>2022-06-06T08:51:46.000Z</time>
      </trkpt>
      <trkpt lat="49.87905" lon="4.74588">
        <ele>181</ele>
        <time>2022-06-06T08:51:47.000Z</time>
      </trkpt>
      <trkpt lat="49.87906" lon="4.7459">
        <ele>181</ele>
        <time>2022-06-06T08:51:48.000Z</time>
      </trkpt>
      <trkpt lat="49.87907" lon="4.74592">
        <ele>181</ele>
        <time>2022-06-06T08:51:49.000Z</time>
      </trkpt>
      <trkpt lat="49.87909" lon="4.74594">
        <ele>182</ele>
        <time>2022-06-06T08:51:50.000Z</time>
      </trkpt>
      <trkpt lat="49.87911" lon="4.74597">
        <ele>182</ele>
        <time>2022-06-06T08:51:51.000Z</time>
      </trkpt>
      <trkpt lat="49.87913" lon="4.746">
        <ele>182</ele>
        <time>2022-06-06T08:51:52.000Z</time>
      </trkpt>
      <trkpt lat="49.87914" lon="4.74603">
        <ele>182</ele>
        <time>2022-06-06T08:51:53.000Z</time>
      </trkpt>
      <trkpt lat="49.87915" lon="4.74607">
        <ele>183</ele>
        <time>2022-06-06T08:51:54.000Z</time>
      </trkpt>
      <trkpt lat="49.87916" lon="4.7461">
        <ele>183</ele>
        <time>2022-06-06T08:51:55.000Z</time>
      </trkpt>
      <trkpt lat="49.87918" lon="4.74613">
        <ele>183</ele>
        <time>2022-06-06T08:51:56.000Z</time>
      </trkpt>
      <trkpt lat="49.87919" lon="4.74616">
        <ele>183</ele>
        <time>2022-06-06T08:51:57.000Z</time>
      </trkpt>
      <trkpt lat="49.87921" lon="4.74619">
        <ele>183</ele>
        <time>2022-06-06T08:51:58.000Z</time>
      </trkpt>
      <trkpt lat="49.87922" lon="4.74622">
        <ele>183</ele>
        <time>2022-06-06T08:51:59.000Z</time>
      </trkpt>
      <trkpt lat="49.87923" lon="4.74625">
        <ele>183</ele>
        <time>2022-06-06T08:52:00.000Z</time>
      </trkpt>
      <trkpt lat="49.87925" lon="4.74628">
        <ele>184</ele>
        <time>2022-06-06T08:52:01.000Z</time>
      </trkpt>
      <trkpt lat="49.87926" lon="4.74631">
        <ele>184</ele>
        <time>2022-06-06T08:52:02.000Z</time>
      </trkpt>
      <trkpt lat="49.87927" lon="4.74634">
        <ele>184</ele>
        <time>2022-06-06T08:52:03.000Z</time>
      </trkpt>
      <trkpt lat="49.87928" lon="4.74637">
        <ele>184</ele>
        <time>2022-06-06T08:52:04.000Z</time>
      </trkpt>
      <trkpt lat="49.87929" lon="4.7464">
        <ele>184</ele>
        <time>2022-06-06T08:52:05.000Z</time>
      </trkpt>
      <trkpt lat="49.8793" lon="4.74642">
        <ele>184</ele>
        <time>2022-06-06T08:52:06.000Z</time>
      </trkpt>
      <trkpt lat="49.8793" lon="4.74643">
        <ele>184</ele>
        <time>2022-06-06T08:52:07.000Z</time>
      </trkpt>
      <trkpt lat="49.8793" lon="4.74643">
        <ele>185</ele>
        <time>2022-06-06T08:52:08.000Z</time>
      </trkpt>
      <trkpt lat="49.8793" lon="4.74644">
        <ele>185</ele>
        <time>2022-06-06T08:52:09.000Z</time>
      </trkpt>
      <trkpt lat="49.8793" lon="4.74644">
        <ele>185</ele>
        <time>2022-06-06T08:52:10.000Z</time>
      </trkpt>
      <trkpt lat="49.8793" lon="4.74644">
        <ele>185</ele>
        <time>2022-06-06T08:52:11.000Z</time>
      </trkpt>
      <trkpt lat="49.8793" lon="4.74644">
        <ele>185</ele>
        <time>2022-06-06T08:52:12.000Z</time>
      </trkpt>
      <trkpt lat="49.8793" lon="4.74645">
        <ele>186</ele>
        <time>2022-06-06T08:52:13.000Z</time>
      </trkpt>
      <trkpt lat="49.8793" lon="4.74645">
        <ele>186</ele>
        <time>2022-06-06T08:52:14.000Z</time>
      </trkpt>
      <trkpt lat="49.8793" lon="4.74645">
        <ele>186</ele>
        <time>2022-06-06T08:52:15.000Z</time>
      </trkpt>
      <trkpt lat="49.87929" lon="4.74645">
        <ele>186</ele>
        <time>2022-06-06T08:52:16.000Z</time>
      </trkpt>
      <trkpt lat="49.87929" lon="4.74645">
        <ele>187</ele>
        <time>2022-06-06T08:52:17.000Z</time>
      </trkpt>
      <trkpt lat="49.87929" lon="4.74645">
        <ele>187</ele>
        <time>2022-06-06T08:52:18.000Z</time>
      </trkpt>
      <trkpt lat="49.87929" lon="4.74645">
        <ele>187</ele>
        <time>2022-06-06T08:52:19.000Z</time>
      </trkpt>
      <trkpt lat="49.87929" lon="4.74645">
        <ele>187</ele>
        <time>2022-06-06T08:52:20.000Z</time>
      </trkpt>
      <trkpt lat="49.87929" lon="4.74645">
        <ele>188</ele>
        <time>2022-06-06T08:52:21.000Z</time>
      </trkpt>
      <trkpt lat="49.87929" lon="4.74645">
        <ele>188</ele>
        <time>2022-06-06T08:52:22.000Z</time>
      </trkpt>
      <trkpt lat="49.87929" lon="4.74645">
        <ele>188</ele>
        <time>2022-06-06T08:52:23.000Z</time>
      </trkpt>
      <trkpt lat="49.87929" lon="4.74645">
        <ele>188</ele>
        <time>2022-06-06T08:52:24.000Z</time>
      </trkpt>
      <trkpt lat="49.87929" lon="4.74645">
        <ele>189</ele>
        <time>2022-06-06T08:52:25.000Z</time>
      </trkpt>
      <trkpt lat="49.87929" lon="4.74645">
        <ele>189</ele>
        <time>2022-06-06T08:52:26.000Z</time>
      </trkpt>
      <trkpt lat="49.87929" lon="4.74645">
        <ele>189</ele>
        <time>2022-06-06T08:52:27.000Z</time>
      </trkpt>
      <trkpt lat="49.87929" lon="4.74646">
        <ele>189</ele>
        <time>2022-06-06T08:52:28.000Z</time>
      </trkpt>
      <trkpt lat="49.87928" lon="4.74646">
        <ele>189</ele>
        <time>2022-06-06T08:52:29.000Z</time>
      </trkpt>
      <trkpt lat="49.87928" lon="4.74646">
        <ele>189</ele>
        <time>2022-06-06T08:52:30.000Z</time>
      </trkpt>
      <trkpt lat="49.87928" lon="4.74646">
        <ele>190</ele>
        <time>2022-06-06T08:52:31.000Z</time>
      </trkpt>
      <trkpt lat="49.87928" lon="4.74646">
        <ele>190</ele>
        <time>2022-06-06T08:52:32.000Z</time>
      </trkpt>
      <trkpt lat="49.87928" lon="4.74646">
        <ele>190</ele>
        <time>2022-06-06T08:52:33.000Z</time>
      </trkpt>
      <trkpt lat="49.87928" lon="4.74646">
        <ele>190</ele>
        <time>2022-06-06T08:52:34.000Z</time>
      </trkpt>
      <trkpt lat="49.87928" lon="4.74646">
        <ele>190</ele>
        <time>2022-06-06T08:52:35.000Z</time>
      </trkpt>
      <trkpt lat="49.87928" lon="4.74646">
        <ele>190</ele>
        <time>2022-06-06T08:52:36.000Z</time>
      </trkpt>
      <trkpt lat="49.87928" lon="4.74646">
        <ele>190</ele>
        <time>2022-06-06T08:52:37.000Z</time>
      </trkpt>
      <trkpt lat="49.87928" lon="4.74646">
        <ele>190</ele>
        <time>2022-06-06T08:52:38.000Z</time>
      </trkpt>
      <trkpt lat="49.87928" lon="4.74646">
        <ele>190</ele>
        <time>2022-06-06T08:52:39.000Z</time>
      </trkpt>
      <trkpt lat="49.87928" lon="4.74646">
        <ele>190</ele>
        <time>2022-06-06T08:52:40.000Z</time>
      </trkpt>
      <trkpt lat="49.87928" lon="4.74646">
        <ele>190</ele>
        <time>2022-06-06T08:52:41.000Z</time>
      </trkpt>
      <trkpt lat="49.87928" lon="4.74646">
        <ele>190</ele>
        <time>2022-06-06T08:52:42.000Z</time>
      </trkpt>
      <trkpt lat="49.87928" lon="4.74646">
        <ele>190</ele>
        <time>2022-06-06T08:52:43.000Z</time>
      </trkpt>
      <trkpt lat="49.87928" lon="4.74646">
        <ele>191</ele>
        <time>2022-06-06T08:52:44.000Z</time>
      </trkpt>
      <trkpt lat="49.87928" lon="4.74646">
        <ele>191</ele>
        <time>2022-06-06T08:52:45.000Z</time>
      </trkpt>
      <trkpt lat="49.87928" lon="4.74646">
        <ele>191</ele>
        <time>2022-06-06T08:52:46.000Z</time>
      </trkpt>
      <trkpt lat="49.87928" lon="4.74646">
        <ele>191</ele>
        <time>2022-06-06T08:52:47.000Z</time>
      </trkpt>
      <trkpt lat="49.87928" lon="4.74646">
        <ele>191</ele>
        <time>2022-06-06T08:52:48.000Z</time>
      </trkpt>
      <trkpt lat="49.87928" lon="4.74646">
        <ele>191</ele>
        <time>2022-06-06T08:52:49.000Z</time>
      </trkpt>
      <trkpt lat="49.87928" lon="4.74646">
        <ele>191</ele>
        <time>2022-06-06T08:52:50.000Z</time>
      </trkpt>
      <trkpt lat="49.87928" lon="4.74646">
        <ele>192</ele>
        <time>2022-06-06T08:52:51.000Z</time>
      </trkpt>
      <trkpt lat="49.87927" lon="4.74646">
        <ele>192</ele>
        <time>2022-06-06T08:52:52.000Z</time>
      </trkpt>
      <trkpt lat="49.87927" lon="4.74646">
        <ele>192</ele>
        <time>2022-06-06T08:52:53.000Z</time>
      </trkpt>
      <trkpt lat="49.87927" lon="4.74647">
        <ele>192</ele>
        <time>2022-06-06T08:52:54.000Z</time>
      </trkpt>
      <trkpt lat="49.87927" lon="4.74647">
        <ele>192</ele>
        <time>2022-06-06T08:52:55.000Z</time>
      </trkpt>
      <trkpt lat="49.87927" lon="4.74647">
        <ele>192</ele>
        <time>2022-06-06T08:52:56.000Z</time>
      </trkpt>
      <trkpt lat="49.87927" lon="4.74647">
        <ele>192</ele>
        <time>2022-06-06T08:52:57.000Z</time>
      </trkpt>
      <trkpt lat="49.87927" lon="4.74647">
        <ele>192</ele>
        <time>2022-06-06T08:52:58.000Z</time>
      </trkpt>
      <trkpt lat="49.87927" lon="4.74647">
        <ele>192</ele>
        <time>2022-06-06T08:52:59.000Z</time>
      </trkpt>
      <trkpt lat="49.87927" lon="4.74647">
        <ele>192</ele>
        <time>2022-06-06T08:53:00.000Z</time>
      </trkpt>
      <trkpt lat="49.87927" lon="4.74647">
        <ele>192</ele>
        <time>2022-06-06T08:53:01.000Z</time>
      </trkpt>
      <trkpt lat="49.87927" lon="4.74647">
        <ele>193</ele>
        <time>2022-06-06T08:53:02.000Z</time>
      </trkpt>
      <trkpt lat="49.87927" lon="4.74647">
        <ele>193</ele>
        <time>2022-06-06T08:53:03.000Z</time>
      </trkpt>
      <trkpt lat="49.87927" lon="4.74647">
        <ele>193</ele>
        <time>2022-06-06T08:53:04.000Z</time>
      </trkpt>
      <trkpt lat="49.87926" lon="4.74647">
        <ele>193</ele>
        <time>2022-06-06T08:53:05.000Z</time>
      </trkpt>
      <trkpt lat="49.87926" lon="4.74648">
        <ele>193</ele>
        <time>2022-06-06T08:53:06.000Z</time>
      </trkpt>
      <trkpt lat="49.87926" lon="4.74648">
        <ele>193</ele>
        <time>2022-06-06T08:53:07.000Z</time>
      </trkpt>
      <trkpt lat="49.87926" lon="4.74648">
        <ele>193</ele>
        <time>2022-06-06T08:53:08.000Z</time>
      </trkpt>
      <trkpt lat="49.87926" lon="4.74648">
        <ele>193</ele>
        <time>2022-06-06T08:53:09.000Z</time>
      </trkpt>
      <trkpt lat="49.87925" lon="4.74648">
        <ele>193</ele>
        <time>2022-06-06T08:53:10.000Z</time>
      </trkpt>
      <trkpt lat="49.87925" lon="4.74648">
        <ele>193</ele>
        <time>2022-06-06T08:53:11.000Z</time>
      </trkpt>
      <trkpt lat="49.87925" lon="4.74648">
        <ele>194</ele>
        <time>2022-06-06T08:53:12.000Z</time>
      </trkpt>
      <trkpt lat="49.87925" lon="4.74648">
        <ele>194</ele>
        <time>2022-06-06T08:53:13.000Z</time>
      </trkpt>
      <trkpt lat="49.87925" lon="4.74649">
        <ele>194</ele>
        <time>2022-06-06T08:53:14.000Z</time>
      </trkpt>
      <trkpt lat="49.87925" lon="4.74648">
        <ele>193</ele>
        <time>2022-06-06T08:53:15.000Z</time>
      </trkpt>
      <trkpt lat="49.87924" lon="4.74649">
        <ele>193</ele>
        <time>2022-06-06T08:53:16.000Z</time>
      </trkpt>
      <trkpt lat="49.87924" lon="4.74649">
        <ele>193</ele>
        <time>2022-06-06T08:53:17.000Z</time>
      </trkpt>
      <trkpt lat="49.87924" lon="4.74649">
        <ele>194</ele>
        <time>2022-06-06T08:53:18.000Z</time>
      </trkpt>
      <trkpt lat="49.87924" lon="4.74649">
        <ele>194</ele>
        <time>2022-06-06T08:53:19.000Z</time>
      </trkpt>
      <trkpt lat="49.87924" lon="4.74649">
        <ele>194</ele>
        <time>2022-06-06T08:53:20.000Z</time>
      </trkpt>
      <trkpt lat="49.87924" lon="4.74649">
        <ele>194</ele>
        <time>2022-06-06T08:53:21.000Z</time>
      </trkpt>
      <trkpt lat="49.87923" lon="4.74649">
        <ele>194</ele>
        <time>2022-06-06T08:53:22.000Z</time>
      </trkpt>
      <trkpt lat="49.87923" lon="4.74649">
        <ele>194</ele>
        <time>2022-06-06T08:53:23.000Z</time>
      </trkpt>
      <trkpt lat="49.87923" lon="4.74649">
        <ele>194</ele>
        <time>2022-06-06T08:53:24.000Z</time>
      </trkpt>
      <trkpt lat="49.87922" lon="4.74649">
        <ele>194</ele>
        <time>2022-06-06T08:53:25.000Z</time>
      </trkpt>
      <trkpt lat="49.87922" lon="4.74649">
        <ele>194</ele>
        <time>2022-06-06T08:53:26.000Z</time>
      </trkpt>
      <trkpt lat="49.87922" lon="4.74649">
        <ele>194</ele>
        <time>2022-06-06T08:53:27.000Z</time>
      </trkpt>
      <trkpt lat="49.87922" lon="4.74649">
        <ele>194</ele>
        <time>2022-06-06T08:53:28.000Z</time>
      </trkpt>
      <trkpt lat="49.87922" lon="4.74649">
        <ele>194</ele>
        <time>2022-06-06T08:53:29.000Z</time>
      </trkpt>
      <trkpt lat="49.87922" lon="4.74649">
        <ele>194</ele>
        <time>2022-06-06T08:53:30.000Z</time>
      </trkpt>
      <trkpt lat="49.87922" lon="4.7465">
        <ele>194</ele>
        <time>2022-06-06T08:53:31.000Z</time>
      </trkpt>
      <trkpt lat="49.87922" lon="4.7465">
        <ele>193</ele>
        <time>2022-06-06T08:53:32.000Z</time>
      </trkpt>
      <trkpt lat="49.87922" lon="4.7465">
        <ele>193</ele>
        <time>2022-06-06T08:53:33.000Z</time>
      </trkpt>
      <trkpt lat="49.87921" lon="4.7465">
        <ele>193</ele>
        <time>2022-06-06T08:53:34.000Z</time>
      </trkpt>
      <trkpt lat="49.87921" lon="4.74651">
        <ele>193</ele>
        <time>2022-06-06T08:53:35.000Z</time>
      </trkpt>
      <trkpt lat="49.87921" lon="4.74651">
        <ele>193</ele>
        <time>2022-06-06T08:53:36.000Z</time>
      </trkpt>
      <trkpt lat="49.87921" lon="4.74651">
        <ele>193</ele>
        <time>2022-06-06T08:53:37.000Z</time>
      </trkpt>
      <trkpt lat="49.87921" lon="4.74651">
        <ele>193</ele>
        <time>2022-06-06T08:53:38.000Z</time>
      </trkpt>
      <trkpt lat="49.87921" lon="4.74651">
        <ele>193</ele>
        <time>2022-06-06T08:53:39.000Z</time>
      </trkpt>
      <trkpt lat="49.8792" lon="4.74651">
        <ele>193</ele>
        <time>2022-06-06T08:53:40.000Z</time>
      </trkpt>
      <trkpt lat="49.8792" lon="4.74651">
        <ele>193</ele>
        <time>2022-06-06T08:53:41.000Z</time>
      </trkpt>
      <trkpt lat="49.8792" lon="4.74651">
        <ele>193</ele>
        <time>2022-06-06T08:53:42.000Z</time>
      </trkpt>
      <trkpt lat="49.8792" lon="4.74651">
        <ele>193</ele>
        <time>2022-06-06T08:53:43.000Z</time>
      </trkpt>
      <trkpt lat="49.8792" lon="4.74651">
        <ele>193</ele>
        <time>2022-06-06T08:53:44.000Z</time>
      </trkpt>
      <trkpt lat="49.8792" lon="4.74651">
        <ele>193</ele>
        <time>2022-06-06T08:53:45.000Z</time>
      </trkpt>
      <trkpt lat="49.8792" lon="4.74651">
        <ele>193</ele>
        <time>2022-06-06T08:53:46.000Z</time>
      </trkpt>
      <trkpt lat="49.8792" lon="4.74651">
        <ele>193</ele>
        <time>2022-06-06T08:53:47.000Z</time>
      </trkpt>
      <trkpt lat="49.8792" lon="4.74651">
        <ele>193</ele>
        <time>2022-06-06T08:53:48.000Z</time>
      </trkpt>
      <trkpt lat="49.87919" lon="4.74651">
        <ele>193</ele>
        <time>2022-06-06T08:53:49.000Z</time>
      </trkpt>
      <trkpt lat="49.87919" lon="4.74651">
        <ele>193</ele>
        <time>2022-06-06T08:53:50.000Z</time>
      </trkpt>
      <trkpt lat="49.87919" lon="4.74651">
        <ele>193</ele>
        <time>2022-06-06T08:53:51.000Z</time>
      </trkpt>
      <trkpt lat="49.87919" lon="4.74651">
        <ele>193</ele>
        <time>2022-06-06T08:53:52.000Z</time>
      </trkpt>
      <trkpt lat="49.87919" lon="4.74652">
        <ele>193</ele>
        <time>2022-06-06T08:53:53.000Z</time>
      </trkpt>
      <trkpt lat="49.87919" lon="4.74652">
        <ele>193</ele>
        <time>2022-06-06T08:53:54.000Z</time>
      </trkpt>
      <trkpt lat="49.87919" lon="4.74652">
        <ele>193</ele>
        <time>2022-06-06T08:53:55.000Z</time>
      </trkpt>
      <trkpt lat="49.87919" lon="4.74652">
        <ele>193</ele>
        <time>2022-06-06T08:53:56.000Z</time>
      </trkpt>
      <trkpt lat="49.87919" lon="4.74652">
        <ele>193</ele>
        <time>2022-06-06T08:53:57.000Z</time>
      </trkpt>
      <trkpt lat="49.87919" lon="4.74653">
        <ele>193</ele>
        <time>2022-06-06T08:53:58.000Z</time>
      </trkpt>
      <trkpt lat="49.8792" lon="4.74654">
        <ele>193</ele>
        <time>2022-06-06T08:53:59.000Z</time>
      </trkpt>
      <trkpt lat="49.87921" lon="4.74656">
        <ele>193</ele>
        <time>2022-06-06T08:54:00.000Z</time>
      </trkpt>
      <trkpt lat="49.87923" lon="4.74659">
        <ele>193</ele>
        <time>2022-06-06T08:54:01.000Z</time>
      </trkpt>
      <trkpt lat="49.87924" lon="4.74662">
        <ele>193</ele>
        <time>2022-06-06T08:54:02.000Z</time>
      </trkpt>
      <trkpt lat="49.87926" lon="4.74665">
        <ele>193</ele>
        <time>2022-06-06T08:54:03.000Z</time>
      </trkpt>
      <trkpt lat="49.87927" lon="4.74668">
        <ele>193</ele>
        <time>2022-06-06T08:54:04.000Z</time>
      </trkpt>
      <trkpt lat="49.87929" lon="4.74671">
        <ele>193</ele>
        <time>2022-06-06T08:54:05.000Z</time>
      </trkpt>
      <trkpt lat="49.8793" lon="4.74675">
        <ele>193</ele>
        <time>2022-06-06T08:54:06.000Z</time>
      </trkpt>
      <trkpt lat="49.87932" lon="4.74678">
        <ele>193</ele>
        <time>2022-06-06T08:54:07.000Z</time>
      </trkpt>
      <trkpt lat="49.87935" lon="4.74681">
        <ele>194</ele>
        <time>2022-06-06T08:54:08.000Z</time>
      </trkpt>
      <trkpt lat="49.87937" lon="4.74684">
        <ele>194</ele>
        <time>2022-06-06T08:54:09.000Z</time>
      </trkpt>
      <trkpt lat="49.87939" lon="4.74687">
        <ele>194</ele>
        <time>2022-06-06T08:54:10.000Z</time>
      </trkpt>
      <trkpt lat="49.87941" lon="4.74691">
        <ele>194</ele>
        <time>2022-06-06T08:54:11.000Z</time>
      </trkpt>
      <trkpt lat="49.87943" lon="4.74694">
        <ele>194</ele>
        <time>2022-06-06T08:54:12.000Z</time>
      </trkpt>
      <trkpt lat="49.87945" lon="4.74698">
        <ele>194</ele>
        <time>2022-06-06T08:54:13.000Z</time>
      </trkpt>
      <trkpt lat="49.87947" lon="4.74701">
        <ele>194</ele>
        <time>2022-06-06T08:54:14.000Z</time>
      </trkpt>
      <trkpt lat="49.87949" lon="4.74704">
        <ele>194</ele>
        <time>2022-06-06T08:54:15.000Z</time>
      </trkpt>
      <trkpt lat="49.8795" lon="4.74708">
        <ele>194</ele>
        <time>2022-06-06T08:54:16.000Z</time>
      </trkpt>
      <trkpt lat="49.87952" lon="4.74712">
        <ele>194</ele>
        <time>2022-06-06T08:54:17.000Z</time>
      </trkpt>
      <trkpt lat="49.87953" lon="4.74715">
        <ele>194</ele>
        <time>2022-06-06T08:54:18.000Z</time>
      </trkpt>
      <trkpt lat="49.87955" lon="4.74719">
        <ele>194</ele>
        <time>2022-06-06T08:54:19.000Z</time>
      </trkpt>
      <trkpt lat="49.87957" lon="4.74723">
        <ele>194</ele>
        <time>2022-06-06T08:54:20.000Z</time>
      </trkpt>
      <trkpt lat="49.87958" lon="4.74727">
        <ele>194</ele>
        <time>2022-06-06T08:54:21.000Z</time>
      </trkpt>
      <trkpt lat="49.8796" lon="4.74732">
        <ele>194</ele>
        <time>2022-06-06T08:54:22.000Z</time>
      </trkpt>
      <trkpt lat="49.8796" lon="4.74736">
        <ele>194</ele>
        <time>2022-06-06T08:54:23.000Z</time>
      </trkpt>
      <trkpt lat="49.87961" lon="4.74741">
        <ele>194</ele>
        <time>2022-06-06T08:54:24.000Z</time>
      </trkpt>
      <trkpt lat="49.87962" lon="4.74745">
        <ele>194</ele>
        <time>2022-06-06T08:54:25.000Z</time>
      </trkpt>
      <trkpt lat="49.87963" lon="4.74749">
        <ele>194</ele>
        <time>2022-06-06T08:54:26.000Z</time>
      </trkpt>
      <trkpt lat="49.87963" lon="4.74754">
        <ele>194</ele>
        <time>2022-06-06T08:54:27.000Z</time>
      </trkpt>
      <trkpt lat="49.87964" lon="4.74758">
        <ele>194</ele>
        <time>2022-06-06T08:54:28.000Z</time>
      </trkpt>
      <trkpt lat="49.87965" lon="4.74763">
        <ele>194</ele>
        <time>2022-06-06T08:54:29.000Z</time>
      </trkpt>
      <trkpt lat="49.87966" lon="4.74767">
        <ele>194</ele>
        <time>2022-06-06T08:54:30.000Z</time>
      </trkpt>
      <trkpt lat="49.87966" lon="4.74771">
        <ele>194</ele>
        <time>2022-06-06T08:54:31.000Z</time>
      </trkpt>
      <trkpt lat="49.87966" lon="4.74776">
        <ele>194</ele>
        <time>2022-06-06T08:54:32.000Z</time>
      </trkpt>
      <trkpt lat="49.87966" lon="4.74781">
        <ele>194</ele>
        <time>2022-06-06T08:54:33.000Z</time>
      </trkpt>
      <trkpt lat="49.87966" lon="4.74786">
        <ele>194</ele>
        <time>2022-06-06T08:54:34.000Z</time>
      </trkpt>
      <trkpt lat="49.87967" lon="4.7479">
        <ele>194</ele>
        <time>2022-06-06T08:54:35.000Z</time>
      </trkpt>
      <trkpt lat="49.87967" lon="4.74794">
        <ele>194</ele>
        <time>2022-06-06T08:54:36.000Z</time>
      </trkpt>
      <trkpt lat="49.87968" lon="4.74798">
        <ele>194</ele>
        <time>2022-06-06T08:54:37.000Z</time>
      </trkpt>
      <trkpt lat="49.87969" lon="4.74801">
        <ele>194</ele>
        <time>2022-06-06T08:54:38.000Z</time>
      </trkpt>
      <trkpt lat="49.87969" lon="4.74805">
        <ele>194</ele>
        <time>2022-06-06T08:54:39.000Z</time>
      </trkpt>
      <trkpt lat="49.8797" lon="4.74809">
        <ele>194</ele>
        <time>2022-06-06T08:54:40.000Z</time>
      </trkpt>
      <trkpt lat="49.87972" lon="4.74813">
        <ele>194</ele>
        <time>2022-06-06T08:54:41.000Z</time>
      </trkpt>
      <trkpt lat="49.87973" lon="4.74817">
        <ele>194</ele>
        <time>2022-06-06T08:54:42.000Z</time>
      </trkpt>
      <trkpt lat="49.87973" lon="4.74821">
        <ele>194</ele>
        <time>2022-06-06T08:54:43.000Z</time>
      </trkpt>
      <trkpt lat="49.87974" lon="4.74825">
        <ele>194</ele>
        <time>2022-06-06T08:54:44.000Z</time>
      </trkpt>
      <trkpt lat="49.87976" lon="4.74828">
        <ele>195</ele>
        <time>2022-06-06T08:54:45.000Z</time>
      </trkpt>
      <trkpt lat="49.87978" lon="4.74832">
        <ele>195</ele>
        <time>2022-06-06T08:54:46.000Z</time>
      </trkpt>
      <trkpt lat="49.87979" lon="4.74836">
        <ele>195</ele>
        <time>2022-06-06T08:54:47.000Z</time>
      </trkpt>
      <trkpt lat="49.8798" lon="4.74841">
        <ele>195</ele>
        <time>2022-06-06T08:54:48.000Z</time>
      </trkpt>
      <trkpt lat="49.87981" lon="4.74845">
        <ele>195</ele>
        <time>2022-06-06T08:54:49.000Z</time>
      </trkpt>
      <trkpt lat="49.87983" lon="4.74849">
        <ele>195</ele>
        <time>2022-06-06T08:54:50.000Z</time>
      </trkpt>
      <trkpt lat="49.87984" lon="4.74853">
        <ele>195</ele>
        <time>2022-06-06T08:54:51.000Z</time>
      </trkpt>
      <trkpt lat="49.87985" lon="4.74858">
        <ele>195</ele>
        <time>2022-06-06T08:54:52.000Z</time>
      </trkpt>
      <trkpt lat="49.87987" lon="4.74862">
        <ele>195</ele>
        <time>2022-06-06T08:54:53.000Z</time>
      </trkpt>
      <trkpt lat="49.87988" lon="4.74866">
        <ele>195</ele>
        <time>2022-06-06T08:54:54.000Z</time>
      </trkpt>
      <trkpt lat="49.8799" lon="4.7487">
        <ele>195</ele>
        <time>2022-06-06T08:54:55.000Z</time>
      </trkpt>
      <trkpt lat="49.8799" lon="4.74875">
        <ele>195</ele>
        <time>2022-06-06T08:54:56.000Z</time>
      </trkpt>
      <trkpt lat="49.87991" lon="4.74879">
        <ele>196</ele>
        <time>2022-06-06T08:54:57.000Z</time>
      </trkpt>
      <trkpt lat="49.87992" lon="4.74883">
        <ele>196</ele>
        <time>2022-06-06T08:54:58.000Z</time>
      </trkpt>
      <trkpt lat="49.87993" lon="4.74887">
        <ele>196</ele>
        <time>2022-06-06T08:54:59.000Z</time>
      </trkpt>
      <trkpt lat="49.87993" lon="4.74891">
        <ele>196</ele>
        <time>2022-06-06T08:55:00.000Z</time>
      </trkpt>
      <trkpt lat="49.87994" lon="4.74894">
        <ele>196</ele>
        <time>2022-06-06T08:55:01.000Z</time>
      </trkpt>
      <trkpt lat="49.87994" lon="4.74899">
        <ele>196</ele>
        <time>2022-06-06T08:55:02.000Z</time>
      </trkpt>
      <trkpt lat="49.87995" lon="4.74902">
        <ele>196</ele>
        <time>2022-06-06T08:55:03.000Z</time>
      </trkpt>
      <trkpt lat="49.87996" lon="4.74906">
        <ele>196</ele>
        <time>2022-06-06T08:55:04.000Z</time>
      </trkpt>
      <trkpt lat="49.87996" lon="4.74909">
        <ele>196</ele>
        <time>2022-06-06T08:55:05.000Z</time>
      </trkpt>
      <trkpt lat="49.87997" lon="4.74913">
        <ele>196</ele>
        <time>2022-06-06T08:55:06.000Z</time>
      </trkpt>
      <trkpt lat="49.87997" lon="4.74917">
        <ele>195</ele>
        <time>2022-06-06T08:55:07.000Z</time>
      </trkpt>
      <trkpt lat="49.87998" lon="4.74921">
        <ele>195</ele>
        <time>2022-06-06T08:55:08.000Z</time>
      </trkpt>
      <trkpt lat="49.87999" lon="4.74925">
        <ele>195</ele>
        <time>2022-06-06T08:55:09.000Z</time>
      </trkpt>
      <trkpt lat="49.88" lon="4.74929">
        <ele>195</ele>
        <time>2022-06-06T08:55:10.000Z</time>
      </trkpt>
      <trkpt lat="49.88001" lon="4.74934">
        <ele>194</ele>
        <time>2022-06-06T08:55:11.000Z</time>
      </trkpt>
      <trkpt lat="49.88001" lon="4.74938">
        <ele>194</ele>
        <time>2022-06-06T08:55:12.000Z</time>
      </trkpt>
      <trkpt lat="49.88002" lon="4.74942">
        <ele>194</ele>
        <time>2022-06-06T08:55:13.000Z</time>
      </trkpt>
      <trkpt lat="49.88003" lon="4.74946">
        <ele>193</ele>
        <time>2022-06-06T08:55:14.000Z</time>
      </trkpt>
      <trkpt lat="49.88004" lon="4.7495">
        <ele>193</ele>
        <time>2022-06-06T08:55:15.000Z</time>
      </trkpt>
      <trkpt lat="49.88004" lon="4.74954">
        <ele>193</ele>
        <time>2022-06-06T08:55:16.000Z</time>
      </trkpt>
      <trkpt lat="49.88005" lon="4.74958">
        <ele>193</ele>
        <time>2022-06-06T08:55:17.000Z</time>
      </trkpt>
      <trkpt lat="49.88006" lon="4.74961">
        <ele>192</ele>
        <time>2022-06-06T08:55:18.000Z</time>
      </trkpt>
      <trkpt lat="49.88007" lon="4.74966">
        <ele>192</ele>
        <time>2022-06-06T08:55:19.000Z</time>
      </trkpt>
      <trkpt lat="49.88008" lon="4.74969">
        <ele>192</ele>
        <time>2022-06-06T08:55:20.000Z</time>
      </trkpt>
      <trkpt lat="49.88009" lon="4.74972">
        <ele>192</ele>
        <time>2022-06-06T08:55:21.000Z</time>
      </trkpt>
      <trkpt lat="49.88011" lon="4.74976">
        <ele>192</ele>
        <time>2022-06-06T08:55:22.000Z</time>
      </trkpt>
      <trkpt lat="49.88012" lon="4.7498">
        <ele>192</ele>
        <time>2022-06-06T08:55:23.000Z</time>
      </trkpt>
      <trkpt lat="49.88013" lon="4.74984">
        <ele>191</ele>
        <time>2022-06-06T08:55:24.000Z</time>
      </trkpt>
      <trkpt lat="49.88013" lon="4.74987">
        <ele>191</ele>
        <time>2022-06-06T08:55:25.000Z</time>
      </trkpt>
      <trkpt lat="49.88014" lon="4.74991">
        <ele>191</ele>
        <time>2022-06-06T08:55:26.000Z</time>
      </trkpt>
      <trkpt lat="49.88015" lon="4.74995">
        <ele>191</ele>
        <time>2022-06-06T08:55:27.000Z</time>
      </trkpt>
      <trkpt lat="49.88016" lon="4.74999">
        <ele>191</ele>
        <time>2022-06-06T08:55:28.000Z</time>
      </trkpt>
      <trkpt lat="49.88017" lon="4.75003">
        <ele>191</ele>
        <time>2022-06-06T08:55:29.000Z</time>
      </trkpt>
      <trkpt lat="49.88017" lon="4.75007">
        <ele>191</ele>
        <time>2022-06-06T08:55:30.000Z</time>
      </trkpt>
      <trkpt lat="49.88017" lon="4.75012">
        <ele>192</ele>
        <time>2022-06-06T08:55:31.000Z</time>
      </trkpt>
      <trkpt lat="49.88018" lon="4.75016">
        <ele>192</ele>
        <time>2022-06-06T08:55:32.000Z</time>
      </trkpt>
      <trkpt lat="49.88018" lon="4.75021">
        <ele>192</ele>
        <time>2022-06-06T08:55:33.000Z</time>
      </trkpt>
      <trkpt lat="49.88018" lon="4.75025">
        <ele>192</ele>
        <time>2022-06-06T08:55:34.000Z</time>
      </trkpt>
      <trkpt lat="49.88018" lon="4.7503">
        <ele>192</ele>
        <time>2022-06-06T08:55:35.000Z</time>
      </trkpt>
      <trkpt lat="49.88018" lon="4.75034">
        <ele>193</ele>
        <time>2022-06-06T08:55:36.000Z</time>
      </trkpt>
      <trkpt lat="49.88019" lon="4.75039">
        <ele>193</ele>
        <time>2022-06-06T08:55:37.000Z</time>
      </trkpt>
      <trkpt lat="49.88019" lon="4.75044">
        <ele>193</ele>
        <time>2022-06-06T08:55:38.000Z</time>
      </trkpt>
      <trkpt lat="49.88019" lon="4.75049">
        <ele>194</ele>
        <time>2022-06-06T08:55:39.000Z</time>
      </trkpt>
      <trkpt lat="49.88019" lon="4.75053">
        <ele>194</ele>
        <time>2022-06-06T08:55:40.000Z</time>
      </trkpt>
      <trkpt lat="49.88019" lon="4.75058">
        <ele>194</ele>
        <time>2022-06-06T08:55:41.000Z</time>
      </trkpt>
      <trkpt lat="49.88019" lon="4.75062">
        <ele>195</ele>
        <time>2022-06-06T08:55:42.000Z</time>
      </trkpt>
      <trkpt lat="49.88018" lon="4.75066">
        <ele>195</ele>
        <time>2022-06-06T08:55:43.000Z</time>
      </trkpt>
      <trkpt lat="49.88018" lon="4.75071">
        <ele>195</ele>
        <time>2022-06-06T08:55:44.000Z</time>
      </trkpt>
      <trkpt lat="49.88018" lon="4.75076">
        <ele>196</ele>
        <time>2022-06-06T08:55:45.000Z</time>
      </trkpt>
      <trkpt lat="49.88018" lon="4.7508">
        <ele>196</ele>
        <time>2022-06-06T08:55:46.000Z</time>
      </trkpt>
      <trkpt lat="49.88018" lon="4.75084">
        <ele>196</ele>
        <time>2022-06-06T08:55:47.000Z</time>
      </trkpt>
      <trkpt lat="49.88018" lon="4.75088">
        <ele>197</ele>
        <time>2022-06-06T08:55:48.000Z</time>
      </trkpt>
      <trkpt lat="49.88018" lon="4.75092">
        <ele>197</ele>
        <time>2022-06-06T08:55:49.000Z</time>
      </trkpt>
      <trkpt lat="49.88017" lon="4.75097">
        <ele>198</ele>
        <time>2022-06-06T08:55:50.000Z</time>
      </trkpt>
      <trkpt lat="49.88016" lon="4.75101">
        <ele>198</ele>
        <time>2022-06-06T08:55:51.000Z</time>
      </trkpt>
      <trkpt lat="49.88016" lon="4.75104">
        <ele>199</ele>
        <time>2022-06-06T08:55:52.000Z</time>
      </trkpt>
      <trkpt lat="49.88015" lon="4.75108">
        <ele>199</ele>
        <time>2022-06-06T08:55:53.000Z</time>
      </trkpt>
      <trkpt lat="49.88015" lon="4.75112">
        <ele>200</ele>
        <time>2022-06-06T08:55:54.000Z</time>
      </trkpt>
      <trkpt lat="49.88014" lon="4.75116">
        <ele>200</ele>
        <time>2022-06-06T08:55:55.000Z</time>
      </trkpt>
      <trkpt lat="49.88014" lon="4.7512">
        <ele>201</ele>
        <time>2022-06-06T08:55:56.000Z</time>
      </trkpt>
      <trkpt lat="49.88014" lon="4.75124">
        <ele>201</ele>
        <time>2022-06-06T08:55:57.000Z</time>
      </trkpt>
      <trkpt lat="49.88014" lon="4.75129">
        <ele>201</ele>
        <time>2022-06-06T08:55:58.000Z</time>
      </trkpt>
      <trkpt lat="49.88014" lon="4.75133">
        <ele>201</ele>
        <time>2022-06-06T08:55:59.000Z</time>
      </trkpt>
      <trkpt lat="49.88014" lon="4.75138">
        <ele>202</ele>
        <time>2022-06-06T08:56:00.000Z</time>
      </trkpt>
      <trkpt lat="49.88014" lon="4.75142">
        <ele>202</ele>
        <time>2022-06-06T08:56:01.000Z</time>
      </trkpt>
      <trkpt lat="49.88015" lon="4.75147">
        <ele>202</ele>
        <time>2022-06-06T08:56:02.000Z</time>
      </trkpt>
      <trkpt lat="49.88016" lon="4.75151">
        <ele>203</ele>
        <time>2022-06-06T08:56:03.000Z</time>
      </trkpt>
      <trkpt lat="49.88017" lon="4.75155">
        <ele>203</ele>
        <time>2022-06-06T08:56:04.000Z</time>
      </trkpt>
      <trkpt lat="49.88017" lon="4.75159">
        <ele>203</ele>
        <time>2022-06-06T08:56:05.000Z</time>
      </trkpt>
      <trkpt lat="49.88018" lon="4.75163">
        <ele>204</ele>
        <time>2022-06-06T08:56:06.000Z</time>
      </trkpt>
      <trkpt lat="49.88019" lon="4.75166">
        <ele>204</ele>
        <time>2022-06-06T08:56:07.000Z</time>
      </trkpt>
      <trkpt lat="49.8802" lon="4.7517">
        <ele>204</ele>
        <time>2022-06-06T08:56:08.000Z</time>
      </trkpt>
      <trkpt lat="49.88021" lon="4.75173">
        <ele>205</ele>
        <time>2022-06-06T08:56:09.000Z</time>
      </trkpt>
      <trkpt lat="49.88023" lon="4.75177">
        <ele>205</ele>
        <time>2022-06-06T08:56:10.000Z</time>
      </trkpt>
      <trkpt lat="49.88024" lon="4.7518">
        <ele>206</ele>
        <time>2022-06-06T08:56:11.000Z</time>
      </trkpt>
      <trkpt lat="49.88026" lon="4.75184">
        <ele>206</ele>
        <time>2022-06-06T08:56:12.000Z</time>
      </trkpt>
      <trkpt lat="49.88028" lon="4.75188">
        <ele>206</ele>
        <time>2022-06-06T08:56:13.000Z</time>
      </trkpt>
      <trkpt lat="49.88029" lon="4.75192">
        <ele>207</ele>
        <time>2022-06-06T08:56:14.000Z</time>
      </trkpt>
      <trkpt lat="49.8803" lon="4.75197">
        <ele>207</ele>
        <time>2022-06-06T08:56:15.000Z</time>
      </trkpt>
      <trkpt lat="49.88031" lon="4.75201">
        <ele>207</ele>
        <time>2022-06-06T08:56:16.000Z</time>
      </trkpt>
      <trkpt lat="49.88032" lon="4.75206">
        <ele>208</ele>
        <time>2022-06-06T08:56:17.000Z</time>
      </trkpt>
      <trkpt lat="49.88034" lon="4.7521">
        <ele>208</ele>
        <time>2022-06-06T08:56:18.000Z</time>
      </trkpt>
      <trkpt lat="49.88035" lon="4.75214">
        <ele>208</ele>
        <time>2022-06-06T08:56:19.000Z</time>
      </trkpt>
      <trkpt lat="49.88036" lon="4.75219">
        <ele>208</ele>
        <time>2022-06-06T08:56:20.000Z</time>
      </trkpt>
      <trkpt lat="49.88037" lon="4.75223">
        <ele>208</ele>
        <time>2022-06-06T08:56:21.000Z</time>
      </trkpt>
      <trkpt lat="49.88039" lon="4.75227">
        <ele>208</ele>
        <time>2022-06-06T08:56:22.000Z</time>
      </trkpt>
      <trkpt lat="49.8804" lon="4.75231">
        <ele>208</ele>
        <time>2022-06-06T08:56:23.000Z</time>
      </trkpt>
      <trkpt lat="49.88041" lon="4.75235">
        <ele>208</ele>
        <time>2022-06-06T08:56:24.000Z</time>
      </trkpt>
      <trkpt lat="49.88042" lon="4.7524">
        <ele>208</ele>
        <time>2022-06-06T08:56:25.000Z</time>
      </trkpt>
      <trkpt lat="49.88043" lon="4.75243">
        <ele>209</ele>
        <time>2022-06-06T08:56:26.000Z</time>
      </trkpt>
      <trkpt lat="49.88044" lon="4.75247">
        <ele>209</ele>
        <time>2022-06-06T08:56:27.000Z</time>
      </trkpt>
      <trkpt lat="49.88045" lon="4.75251">
        <ele>209</ele>
        <time>2022-06-06T08:56:28.000Z</time>
      </trkpt>
      <trkpt lat="49.88046" lon="4.75255">
        <ele>209</ele>
        <time>2022-06-06T08:56:29.000Z</time>
      </trkpt>
      <trkpt lat="49.88047" lon="4.7526">
        <ele>209</ele>
        <time>2022-06-06T08:56:30.000Z</time>
      </trkpt>
      <trkpt lat="49.88048" lon="4.75265">
        <ele>209</ele>
        <time>2022-06-06T08:56:31.000Z</time>
      </trkpt>
      <trkpt lat="49.88049" lon="4.75269">
        <ele>210</ele>
        <time>2022-06-06T08:56:32.000Z</time>
      </trkpt>
      <trkpt lat="49.88049" lon="4.75273">
        <ele>210</ele>
        <time>2022-06-06T08:56:33.000Z</time>
      </trkpt>
      <trkpt lat="49.8805" lon="4.75278">
        <ele>210</ele>
        <time>2022-06-06T08:56:34.000Z</time>
      </trkpt>
      <trkpt lat="49.8805" lon="4.75283">
        <ele>210</ele>
        <time>2022-06-06T08:56:35.000Z</time>
      </trkpt>
      <trkpt lat="49.8805" lon="4.75287">
        <ele>210</ele>
        <time>2022-06-06T08:56:36.000Z</time>
      </trkpt>
      <trkpt lat="49.8805" lon="4.75292">
        <ele>210</ele>
        <time>2022-06-06T08:56:37.000Z</time>
      </trkpt>
      <trkpt lat="49.8805" lon="4.75296">
        <ele>210</ele>
        <time>2022-06-06T08:56:38.000Z</time>
      </trkpt>
      <trkpt lat="49.8805" lon="4.753">
        <ele>210</ele>
        <time>2022-06-06T08:56:39.000Z</time>
      </trkpt>
      <trkpt lat="49.88049" lon="4.75305">
        <ele>210</ele>
        <time>2022-06-06T08:56:40.000Z</time>
      </trkpt>
      <trkpt lat="49.88049" lon="4.75309">
        <ele>210</ele>
        <time>2022-06-06T08:56:41.000Z</time>
      </trkpt>
      <trkpt lat="49.88049" lon="4.75314">
        <ele>210</ele>
        <time>2022-06-06T08:56:42.000Z</time>
      </trkpt>
      <trkpt lat="49.88048" lon="4.75318">
        <ele>210</ele>
        <time>2022-06-06T08:56:43.000Z</time>
      </trkpt>
      <trkpt lat="49.88048" lon="4.75323">
        <ele>210</ele>
        <time>2022-06-06T08:56:44.000Z</time>
      </trkpt>
      <trkpt lat="49.88047" lon="4.75327">
        <ele>210</ele>
        <time>2022-06-06T08:56:45.000Z</time>
      </trkpt>
      <trkpt lat="49.88047" lon="4.75332">
        <ele>210</ele>
        <time>2022-06-06T08:56:46.000Z</time>
      </trkpt>
      <trkpt lat="49.88046" lon="4.75336">
        <ele>210</ele>
        <time>2022-06-06T08:56:47.000Z</time>
      </trkpt>
      <trkpt lat="49.88046" lon="4.7534">
        <ele>210</ele>
        <time>2022-06-06T08:56:48.000Z</time>
      </trkpt>
      <trkpt lat="49.88045" lon="4.75344">
        <ele>210</ele>
        <time>2022-06-06T08:56:49.000Z</time>
      </trkpt>
      <trkpt lat="49.88044" lon="4.75348">
        <ele>211</ele>
        <time>2022-06-06T08:56:50.000Z</time>
      </trkpt>
      <trkpt lat="49.88043" lon="4.75352">
        <ele>211</ele>
        <time>2022-06-06T08:56:51.000Z</time>
      </trkpt>
      <trkpt lat="49.88043" lon="4.75356">
        <ele>211</ele>
        <time>2022-06-06T08:56:52.000Z</time>
      </trkpt>
      <trkpt lat="49.88042" lon="4.7536">
        <ele>211</ele>
        <time>2022-06-06T08:56:53.000Z</time>
      </trkpt>
      <trkpt lat="49.88041" lon="4.75365">
        <ele>211</ele>
        <time>2022-06-06T08:56:54.000Z</time>
      </trkpt>
      <trkpt lat="49.8804" lon="4.75369">
        <ele>211</ele>
        <time>2022-06-06T08:56:55.000Z</time>
      </trkpt>
      <trkpt lat="49.88039" lon="4.75373">
        <ele>212</ele>
        <time>2022-06-06T08:56:56.000Z</time>
      </trkpt>
      <trkpt lat="49.88038" lon="4.75377">
        <ele>212</ele>
        <time>2022-06-06T08:56:57.000Z</time>
      </trkpt>
      <trkpt lat="49.88037" lon="4.75382">
        <ele>212</ele>
        <time>2022-06-06T08:56:58.000Z</time>
      </trkpt>
      <trkpt lat="49.88036" lon="4.75386">
        <ele>212</ele>
        <time>2022-06-06T08:56:59.000Z</time>
      </trkpt>
      <trkpt lat="49.88035" lon="4.7539">
        <ele>213</ele>
        <time>2022-06-06T08:57:00.000Z</time>
      </trkpt>
      <trkpt lat="49.88034" lon="4.75394">
        <ele>213</ele>
        <time>2022-06-06T08:57:01.000Z</time>
      </trkpt>
      <trkpt lat="49.88033" lon="4.75398">
        <ele>213</ele>
        <time>2022-06-06T08:57:02.000Z</time>
      </trkpt>
      <trkpt lat="49.88031" lon="4.75402">
        <ele>214</ele>
        <time>2022-06-06T08:57:03.000Z</time>
      </trkpt>
      <trkpt lat="49.8803" lon="4.75405">
        <ele>214</ele>
        <time>2022-06-06T08:57:04.000Z</time>
      </trkpt>
      <trkpt lat="49.88028" lon="4.75409">
        <ele>214</ele>
        <time>2022-06-06T08:57:05.000Z</time>
      </trkpt>
      <trkpt lat="49.88027" lon="4.75413">
        <ele>215</ele>
        <time>2022-06-06T08:57:06.000Z</time>
      </trkpt>
      <trkpt lat="49.88026" lon="4.75417">
        <ele>215</ele>
        <time>2022-06-06T08:57:07.000Z</time>
      </trkpt>
      <trkpt lat="49.88025" lon="4.75421">
        <ele>215</ele>
        <time>2022-06-06T08:57:08.000Z</time>
      </trkpt>
      <trkpt lat="49.88024" lon="4.75425">
        <ele>216</ele>
        <time>2022-06-06T08:57:09.000Z</time>
      </trkpt>
      <trkpt lat="49.88022" lon="4.75429">
        <ele>216</ele>
        <time>2022-06-06T08:57:10.000Z</time>
      </trkpt>
      <trkpt lat="49.88021" lon="4.75433">
        <ele>216</ele>
        <time>2022-06-06T08:57:11.000Z</time>
      </trkpt>
      <trkpt lat="49.8802" lon="4.75437">
        <ele>217</ele>
        <time>2022-06-06T08:57:12.000Z</time>
      </trkpt>
      <trkpt lat="49.88019" lon="4.75441">
        <ele>217</ele>
        <time>2022-06-06T08:57:13.000Z</time>
      </trkpt>
      <trkpt lat="49.88018" lon="4.75445">
        <ele>217</ele>
        <time>2022-06-06T08:57:14.000Z</time>
      </trkpt>
      <trkpt lat="49.88018" lon="4.75449">
        <ele>217</ele>
        <time>2022-06-06T08:57:15.000Z</time>
      </trkpt>
      <trkpt lat="49.88017" lon="4.75452">
        <ele>218</ele>
        <time>2022-06-06T08:57:16.000Z</time>
      </trkpt>
      <trkpt lat="49.88016" lon="4.75456">
        <ele>218</ele>
        <time>2022-06-06T08:57:17.000Z</time>
      </trkpt>
      <trkpt lat="49.88016" lon="4.7546">
        <ele>218</ele>
        <time>2022-06-06T08:57:18.000Z</time>
      </trkpt>
      <trkpt lat="49.88015" lon="4.75465">
        <ele>218</ele>
        <time>2022-06-06T08:57:19.000Z</time>
      </trkpt>
      <trkpt lat="49.88014" lon="4.75469">
        <ele>218</ele>
        <time>2022-06-06T08:57:20.000Z</time>
      </trkpt>
      <trkpt lat="49.88014" lon="4.75473">
        <ele>219</ele>
        <time>2022-06-06T08:57:21.000Z</time>
      </trkpt>
      <trkpt lat="49.88013" lon="4.75477">
        <ele>219</ele>
        <time>2022-06-06T08:57:22.000Z</time>
      </trkpt>
      <trkpt lat="49.88013" lon="4.75481">
        <ele>219</ele>
        <time>2022-06-06T08:57:23.000Z</time>
      </trkpt>
      <trkpt lat="49.88013" lon="4.75485">
        <ele>219</ele>
        <time>2022-06-06T08:57:24.000Z</time>
      </trkpt>
      <trkpt lat="49.88013" lon="4.75489">
        <ele>220</ele>
        <time>2022-06-06T08:57:25.000Z</time>
      </trkpt>
      <trkpt lat="49.88012" lon="4.75493">
        <ele>220</ele>
        <time>2022-06-06T08:57:26.000Z</time>
      </trkpt>
      <trkpt lat="49.88012" lon="4.75496">
        <ele>220</ele>
        <time>2022-06-06T08:57:27.000Z</time>
      </trkpt>
      <trkpt lat="49.88012" lon="4.755">
        <ele>220</ele>
        <time>2022-06-06T08:57:28.000Z</time>
      </trkpt>
      <trkpt lat="49.88012" lon="4.75504">
        <ele>220</ele>
        <time>2022-06-06T08:57:29.000Z</time>
      </trkpt>
      <trkpt lat="49.88012" lon="4.75508">
        <ele>220</ele>
        <time>2022-06-06T08:57:30.000Z</time>
      </trkpt>
      <trkpt lat="49.88012" lon="4.75512">
        <ele>220</ele>
        <time>2022-06-06T08:57:31.000Z</time>
      </trkpt>
      <trkpt lat="49.88012" lon="4.75516">
        <ele>221</ele>
        <time>2022-06-06T08:57:32.000Z</time>
      </trkpt>
      <trkpt lat="49.88012" lon="4.7552">
        <ele>221</ele>
        <time>2022-06-06T08:57:33.000Z</time>
      </trkpt>
      <trkpt lat="49.88011" lon="4.75524">
        <ele>221</ele>
        <time>2022-06-06T08:57:34.000Z</time>
      </trkpt>
      <trkpt lat="49.88011" lon="4.75529">
        <ele>221</ele>
        <time>2022-06-06T08:57:35.000Z</time>
      </trkpt>
      <trkpt lat="49.88011" lon="4.75533">
        <ele>221</ele>
        <time>2022-06-06T08:57:36.000Z</time>
      </trkpt>
      <trkpt lat="49.8801" lon="4.75537">
        <ele>221</ele>
        <time>2022-06-06T08:57:37.000Z</time>
      </trkpt>
      <trkpt lat="49.8801" lon="4.75541">
        <ele>221</ele>
        <time>2022-06-06T08:57:38.000Z</time>
      </trkpt>
      <trkpt lat="49.8801" lon="4.75546">
        <ele>222</ele>
        <time>2022-06-06T08:57:39.000Z</time>
      </trkpt>
      <trkpt lat="49.88009" lon="4.7555">
        <ele>222</ele>
        <time>2022-06-06T08:57:40.000Z</time>
      </trkpt>
      <trkpt lat="49.88009" lon="4.75554">
        <ele>222</ele>
        <time>2022-06-06T08:57:41.000Z</time>
      </trkpt>
      <trkpt lat="49.88008" lon="4.75558">
        <ele>222</ele>
        <time>2022-06-06T08:57:42.000Z</time>
      </trkpt>
      <trkpt lat="49.88007" lon="4.75563">
        <ele>222</ele>
        <time>2022-06-06T08:57:43.000Z</time>
      </trkpt>
      <trkpt lat="49.88006" lon="4.75567">
        <ele>223</ele>
        <time>2022-06-06T08:57:44.000Z</time>
      </trkpt>
      <trkpt lat="49.88006" lon="4.75571">
        <ele>223</ele>
        <time>2022-06-06T08:57:45.000Z</time>
      </trkpt>
      <trkpt lat="49.88005" lon="4.75576">
        <ele>223</ele>
        <time>2022-06-06T08:57:46.000Z</time>
      </trkpt>
      <trkpt lat="49.88004" lon="4.7558">
        <ele>223</ele>
        <time>2022-06-06T08:57:47.000Z</time>
      </trkpt>
      <trkpt lat="49.88003" lon="4.75584">
        <ele>224</ele>
        <time>2022-06-06T08:57:48.000Z</time>
      </trkpt>
      <trkpt lat="49.88002" lon="4.75588">
        <ele>224</ele>
        <time>2022-06-06T08:57:49.000Z</time>
      </trkpt>
      <trkpt lat="49.88001" lon="4.75592">
        <ele>224</ele>
        <time>2022-06-06T08:57:50.000Z</time>
      </trkpt>
      <trkpt lat="49.87999" lon="4.75596">
        <ele>224</ele>
        <time>2022-06-06T08:57:51.000Z</time>
      </trkpt>
      <trkpt lat="49.87998" lon="4.75599">
        <ele>224</ele>
        <time>2022-06-06T08:57:52.000Z</time>
      </trkpt>
      <trkpt lat="49.87997" lon="4.75602">
        <ele>225</ele>
        <time>2022-06-06T08:57:53.000Z</time>
      </trkpt>
      <trkpt lat="49.87995" lon="4.75605">
        <ele>225</ele>
        <time>2022-06-06T08:57:54.000Z</time>
      </trkpt>
      <trkpt lat="49.87994" lon="4.75609">
        <ele>225</ele>
        <time>2022-06-06T08:57:55.000Z</time>
      </trkpt>
      <trkpt lat="49.87993" lon="4.75614">
        <ele>225</ele>
        <time>2022-06-06T08:57:56.000Z</time>
      </trkpt>
      <trkpt lat="49.87992" lon="4.75618">
        <ele>226</ele>
        <time>2022-06-06T08:57:57.000Z</time>
      </trkpt>
      <trkpt lat="49.8799" lon="4.75622">
        <ele>226</ele>
        <time>2022-06-06T08:57:58.000Z</time>
      </trkpt>
      <trkpt lat="49.87989" lon="4.75626">
        <ele>226</ele>
        <time>2022-06-06T08:57:59.000Z</time>
      </trkpt>
      <trkpt lat="49.87987" lon="4.7563">
        <ele>226</ele>
        <time>2022-06-06T08:58:00.000Z</time>
      </trkpt>
      <trkpt lat="49.87986" lon="4.75634">
        <ele>227</ele>
        <time>2022-06-06T08:58:01.000Z</time>
      </trkpt>
      <trkpt lat="49.87985" lon="4.75638">
        <ele>227</ele>
        <time>2022-06-06T08:58:02.000Z</time>
      </trkpt>
      <trkpt lat="49.87984" lon="4.75643">
        <ele>227</ele>
        <time>2022-06-06T08:58:03.000Z</time>
      </trkpt>
      <trkpt lat="49.87982" lon="4.75647">
        <ele>227</ele>
        <time>2022-06-06T08:58:04.000Z</time>
      </trkpt>
      <trkpt lat="49.87981" lon="4.75652">
        <ele>228</ele>
        <time>2022-06-06T08:58:05.000Z</time>
      </trkpt>
      <trkpt lat="49.8798" lon="4.75656">
        <ele>228</ele>
        <time>2022-06-06T08:58:06.000Z</time>
      </trkpt>
      <trkpt lat="49.87979" lon="4.7566">
        <ele>228</ele>
        <time>2022-06-06T08:58:07.000Z</time>
      </trkpt>
      <trkpt lat="49.87978" lon="4.75665">
        <ele>228</ele>
        <time>2022-06-06T08:58:08.000Z</time>
      </trkpt>
      <trkpt lat="49.87978" lon="4.7567">
        <ele>229</ele>
        <time>2022-06-06T08:58:09.000Z</time>
      </trkpt>
      <trkpt lat="49.87977" lon="4.75675">
        <ele>229</ele>
        <time>2022-06-06T08:58:10.000Z</time>
      </trkpt>
      <trkpt lat="49.87976" lon="4.75681">
        <ele>229</ele>
        <time>2022-06-06T08:58:11.000Z</time>
      </trkpt>
      <trkpt lat="49.87975" lon="4.75686">
        <ele>229</ele>
        <time>2022-06-06T08:58:12.000Z</time>
      </trkpt>
      <trkpt lat="49.87975" lon="4.7569">
        <ele>229</ele>
        <time>2022-06-06T08:58:13.000Z</time>
      </trkpt>
      <trkpt lat="49.87974" lon="4.75694">
        <ele>229</ele>
        <time>2022-06-06T08:58:14.000Z</time>
      </trkpt>
      <trkpt lat="49.87974" lon="4.75698">
        <ele>229</ele>
        <time>2022-06-06T08:58:15.000Z</time>
      </trkpt>
      <trkpt lat="49.87974" lon="4.75702">
        <ele>230</ele>
        <time>2022-06-06T08:58:16.000Z</time>
      </trkpt>
      <trkpt lat="49.87974" lon="4.75707">
        <ele>230</ele>
        <time>2022-06-06T08:58:17.000Z</time>
      </trkpt>
      <trkpt lat="49.87974" lon="4.75713">
        <ele>230</ele>
        <time>2022-06-06T08:58:18.000Z</time>
      </trkpt>
      <trkpt lat="49.87973" lon="4.75718">
        <ele>230</ele>
        <time>2022-06-06T08:58:19.000Z</time>
      </trkpt>
      <trkpt lat="49.87973" lon="4.75723">
        <ele>230</ele>
        <time>2022-06-06T08:58:20.000Z</time>
      </trkpt>
      <trkpt lat="49.87972" lon="4.75728">
        <ele>230</ele>
        <time>2022-06-06T08:58:21.000Z</time>
      </trkpt>
      <trkpt lat="49.87972" lon="4.75733">
        <ele>230</ele>
        <time>2022-06-06T08:58:22.000Z</time>
      </trkpt>
      <trkpt lat="49.87972" lon="4.75737">
        <ele>230</ele>
        <time>2022-06-06T08:58:23.000Z</time>
      </trkpt>
      <trkpt lat="49.87971" lon="4.75743">
        <ele>230</ele>
        <time>2022-06-06T08:58:24.000Z</time>
      </trkpt>
      <trkpt lat="49.87971" lon="4.75748">
        <ele>230</ele>
        <time>2022-06-06T08:58:25.000Z</time>
      </trkpt>
      <trkpt lat="49.87969" lon="4.75753">
        <ele>230</ele>
        <time>2022-06-06T08:58:26.000Z</time>
      </trkpt>
      <trkpt lat="49.87968" lon="4.75757">
        <ele>230</ele>
        <time>2022-06-06T08:58:27.000Z</time>
      </trkpt>
      <trkpt lat="49.87966" lon="4.75761">
        <ele>230</ele>
        <time>2022-06-06T08:58:28.000Z</time>
      </trkpt>
      <trkpt lat="49.87963" lon="4.75765">
        <ele>230</ele>
        <time>2022-06-06T08:58:29.000Z</time>
      </trkpt>
      <trkpt lat="49.87961" lon="4.75769">
        <ele>230</ele>
        <time>2022-06-06T08:58:30.000Z</time>
      </trkpt>
      <trkpt lat="49.87958" lon="4.75771">
        <ele>230</ele>
        <time>2022-06-06T08:58:31.000Z</time>
      </trkpt>
      <trkpt lat="49.87955" lon="4.75774">
        <ele>230</ele>
        <time>2022-06-06T08:58:32.000Z</time>
      </trkpt>
      <trkpt lat="49.87952" lon="4.75775">
        <ele>230</ele>
        <time>2022-06-06T08:58:33.000Z</time>
      </trkpt>
      <trkpt lat="49.87949" lon="4.75774">
        <ele>230</ele>
        <time>2022-06-06T08:58:34.000Z</time>
      </trkpt>
      <trkpt lat="49.87947" lon="4.75773">
        <ele>230</ele>
        <time>2022-06-06T08:58:35.000Z</time>
      </trkpt>
      <trkpt lat="49.87944" lon="4.75772">
        <ele>231</ele>
        <time>2022-06-06T08:58:36.000Z</time>
      </trkpt>
      <trkpt lat="49.87942" lon="4.7577">
        <ele>231</ele>
        <time>2022-06-06T08:58:37.000Z</time>
      </trkpt>
      <trkpt lat="49.8794" lon="4.75767">
        <ele>231</ele>
        <time>2022-06-06T08:58:38.000Z</time>
      </trkpt>
      <trkpt lat="49.87938" lon="4.75764">
        <ele>231</ele>
        <time>2022-06-06T08:58:39.000Z</time>
      </trkpt>
      <trkpt lat="49.87937" lon="4.7576">
        <ele>231</ele>
        <time>2022-06-06T08:58:40.000Z</time>
      </trkpt>
      <trkpt lat="49.87936" lon="4.75756">
        <ele>231</ele>
        <time>2022-06-06T08:58:41.000Z</time>
      </trkpt>
      <trkpt lat="49.87935" lon="4.75751">
        <ele>231</ele>
        <time>2022-06-06T08:58:42.000Z</time>
      </trkpt>
      <trkpt lat="49.87934" lon="4.75747">
        <ele>231</ele>
        <time>2022-06-06T08:58:43.000Z</time>
      </trkpt>
      <trkpt lat="49.87934" lon="4.75742">
        <ele>231</ele>
        <time>2022-06-06T08:58:44.000Z</time>
      </trkpt>
      <trkpt lat="49.87934" lon="4.75737">
        <ele>231</ele>
        <time>2022-06-06T08:58:45.000Z</time>
      </trkpt>
      <trkpt lat="49.87935" lon="4.75732">
        <ele>232</ele>
        <time>2022-06-06T08:58:46.000Z</time>
      </trkpt>
      <trkpt lat="49.87936" lon="4.75727">
        <ele>232</ele>
        <time>2022-06-06T08:58:47.000Z</time>
      </trkpt>
      <trkpt lat="49.87938" lon="4.75723">
        <ele>232</ele>
        <time>2022-06-06T08:58:48.000Z</time>
      </trkpt>
      <trkpt lat="49.87939" lon="4.75718">
        <ele>232</ele>
        <time>2022-06-06T08:58:49.000Z</time>
      </trkpt>
      <trkpt lat="49.8794" lon="4.75713">
        <ele>232</ele>
        <time>2022-06-06T08:58:50.000Z</time>
      </trkpt>
      <trkpt lat="49.87941" lon="4.75708">
        <ele>233</ele>
        <time>2022-06-06T08:58:51.000Z</time>
      </trkpt>
      <trkpt lat="49.87943" lon="4.75703">
        <ele>233</ele>
        <time>2022-06-06T08:58:52.000Z</time>
      </trkpt>
      <trkpt lat="49.87944" lon="4.75699">
        <ele>233</ele>
        <time>2022-06-06T08:58:53.000Z</time>
      </trkpt>
      <trkpt lat="49.87945" lon="4.75694">
        <ele>233</ele>
        <time>2022-06-06T08:58:54.000Z</time>
      </trkpt>
      <trkpt lat="49.87946" lon="4.75689">
        <ele>234</ele>
        <time>2022-06-06T08:58:55.000Z</time>
      </trkpt>
      <trkpt lat="49.87947" lon="4.75685">
        <ele>234</ele>
        <time>2022-06-06T08:58:56.000Z</time>
      </trkpt>
      <trkpt lat="49.87948" lon="4.7568">
        <ele>234</ele>
        <time>2022-06-06T08:58:57.000Z</time>
      </trkpt>
      <trkpt lat="49.87949" lon="4.75674">
        <ele>234</ele>
        <time>2022-06-06T08:58:58.000Z</time>
      </trkpt>
      <trkpt lat="49.87949" lon="4.75669">
        <ele>235</ele>
        <time>2022-06-06T08:58:59.000Z</time>
      </trkpt>
      <trkpt lat="49.87948" lon="4.75664">
        <ele>235</ele>
        <time>2022-06-06T08:59:00.000Z</time>
      </trkpt>
      <trkpt lat="49.87948" lon="4.75659">
        <ele>235</ele>
        <time>2022-06-06T08:59:01.000Z</time>
      </trkpt>
      <trkpt lat="49.87948" lon="4.75654">
        <ele>235</ele>
        <time>2022-06-06T08:59:02.000Z</time>
      </trkpt>
      <trkpt lat="49.87948" lon="4.7565">
        <ele>235</ele>
        <time>2022-06-06T08:59:03.000Z</time>
      </trkpt>
      <trkpt lat="49.87948" lon="4.75646">
        <ele>236</ele>
        <time>2022-06-06T08:59:04.000Z</time>
      </trkpt>
      <trkpt lat="49.87948" lon="4.75642">
        <ele>236</ele>
        <time>2022-06-06T08:59:05.000Z</time>
      </trkpt>
      <trkpt lat="49.87947" lon="4.75638">
        <ele>236</ele>
        <time>2022-06-06T08:59:06.000Z</time>
      </trkpt>
      <trkpt lat="49.87947" lon="4.75634">
        <ele>236</ele>
        <time>2022-06-06T08:59:07.000Z</time>
      </trkpt>
      <trkpt lat="49.87947" lon="4.75631">
        <ele>236</ele>
        <time>2022-06-06T08:59:08.000Z</time>
      </trkpt>
      <trkpt lat="49.87947" lon="4.75627">
        <ele>237</ele>
        <time>2022-06-06T08:59:09.000Z</time>
      </trkpt>
      <trkpt lat="49.87947" lon="4.75624">
        <ele>237</ele>
        <time>2022-06-06T08:59:10.000Z</time>
      </trkpt>
      <trkpt lat="49.87947" lon="4.7562">
        <ele>237</ele>
        <time>2022-06-06T08:59:11.000Z</time>
      </trkpt>
      <trkpt lat="49.87948" lon="4.75616">
        <ele>237</ele>
        <time>2022-06-06T08:59:12.000Z</time>
      </trkpt>
      <trkpt lat="49.87948" lon="4.75612">
        <ele>237</ele>
        <time>2022-06-06T08:59:13.000Z</time>
      </trkpt>
      <trkpt lat="49.87948" lon="4.75608">
        <ele>238</ele>
        <time>2022-06-06T08:59:14.000Z</time>
      </trkpt>
      <trkpt lat="49.87947" lon="4.75604">
        <ele>238</ele>
        <time>2022-06-06T08:59:15.000Z</time>
      </trkpt>
      <trkpt lat="49.87947" lon="4.756">
        <ele>238</ele>
        <time>2022-06-06T08:59:16.000Z</time>
      </trkpt>
      <trkpt lat="49.87948" lon="4.75596">
        <ele>239</ele>
        <time>2022-06-06T08:59:17.000Z</time>
      </trkpt>
      <trkpt lat="49.87947" lon="4.75592">
        <ele>239</ele>
        <time>2022-06-06T08:59:18.000Z</time>
      </trkpt>
      <trkpt lat="49.87947" lon="4.75588">
        <ele>239</ele>
        <time>2022-06-06T08:59:19.000Z</time>
      </trkpt>
      <trkpt lat="49.87947" lon="4.75584">
        <ele>239</ele>
        <time>2022-06-06T08:59:20.000Z</time>
      </trkpt>
      <trkpt lat="49.87947" lon="4.75579">
        <ele>240</ele>
        <time>2022-06-06T08:59:21.000Z</time>
      </trkpt>
      <trkpt lat="49.87947" lon="4.75575">
        <ele>240</ele>
        <time>2022-06-06T08:59:22.000Z</time>
      </trkpt>
      <trkpt lat="49.87947" lon="4.75572">
        <ele>240</ele>
        <time>2022-06-06T08:59:23.000Z</time>
      </trkpt>
      <trkpt lat="49.87947" lon="4.75568">
        <ele>240</ele>
        <time>2022-06-06T08:59:24.000Z</time>
      </trkpt>
      <trkpt lat="49.87947" lon="4.75565">
        <ele>241</ele>
        <time>2022-06-06T08:59:25.000Z</time>
      </trkpt>
      <trkpt lat="49.87946" lon="4.75561">
        <ele>241</ele>
        <time>2022-06-06T08:59:26.000Z</time>
      </trkpt>
      <trkpt lat="49.87945" lon="4.75557">
        <ele>241</ele>
        <time>2022-06-06T08:59:27.000Z</time>
      </trkpt>
      <trkpt lat="49.87945" lon="4.75553">
        <ele>242</ele>
        <time>2022-06-06T08:59:28.000Z</time>
      </trkpt>
      <trkpt lat="49.87944" lon="4.75549">
        <ele>242</ele>
        <time>2022-06-06T08:59:29.000Z</time>
      </trkpt>
      <trkpt lat="49.87943" lon="4.75545">
        <ele>242</ele>
        <time>2022-06-06T08:59:30.000Z</time>
      </trkpt>
      <trkpt lat="49.87942" lon="4.75542">
        <ele>242</ele>
        <time>2022-06-06T08:59:31.000Z</time>
      </trkpt>
      <trkpt lat="49.8794" lon="4.75538">
        <ele>243</ele>
        <time>2022-06-06T08:59:32.000Z</time>
      </trkpt>
      <trkpt lat="49.87939" lon="4.75534">
        <ele>243</ele>
        <time>2022-06-06T08:59:33.000Z</time>
      </trkpt>
      <trkpt lat="49.87937" lon="4.75531">
        <ele>243</ele>
        <time>2022-06-06T08:59:34.000Z</time>
      </trkpt>
      <trkpt lat="49.87936" lon="4.75528">
        <ele>244</ele>
        <time>2022-06-06T08:59:35.000Z</time>
      </trkpt>
      <trkpt lat="49.87934" lon="4.75524">
        <ele>244</ele>
        <time>2022-06-06T08:59:36.000Z</time>
      </trkpt>
      <trkpt lat="49.87932" lon="4.7552">
        <ele>244</ele>
        <time>2022-06-06T08:59:37.000Z</time>
      </trkpt>
      <trkpt lat="49.8793" lon="4.75517">
        <ele>245</ele>
        <time>2022-06-06T08:59:38.000Z</time>
      </trkpt>
      <trkpt lat="49.87928" lon="4.75513">
        <ele>245</ele>
        <time>2022-06-06T08:59:39.000Z</time>
      </trkpt>
      <trkpt lat="49.87927" lon="4.75509">
        <ele>245</ele>
        <time>2022-06-06T08:59:40.000Z</time>
      </trkpt>
      <trkpt lat="49.87925" lon="4.75505">
        <ele>246</ele>
        <time>2022-06-06T08:59:41.000Z</time>
      </trkpt>
      <trkpt lat="49.87924" lon="4.75501">
        <ele>246</ele>
        <time>2022-06-06T08:59:42.000Z</time>
      </trkpt>
      <trkpt lat="49.87922" lon="4.75498">
        <ele>247</ele>
        <time>2022-06-06T08:59:43.000Z</time>
      </trkpt>
      <trkpt lat="49.8792" lon="4.75494">
        <ele>247</ele>
        <time>2022-06-06T08:59:44.000Z</time>
      </trkpt>
      <trkpt lat="49.87918" lon="4.7549">
        <ele>247</ele>
        <time>2022-06-06T08:59:45.000Z</time>
      </trkpt>
      <trkpt lat="49.87916" lon="4.75487">
        <ele>247</ele>
        <time>2022-06-06T08:59:46.000Z</time>
      </trkpt>
      <trkpt lat="49.87914" lon="4.75482">
        <ele>248</ele>
        <time>2022-06-06T08:59:47.000Z</time>
      </trkpt>
      <trkpt lat="49.87912" lon="4.75478">
        <ele>248</ele>
        <time>2022-06-06T08:59:48.000Z</time>
      </trkpt>
      <trkpt lat="49.87911" lon="4.75474">
        <ele>248</ele>
        <time>2022-06-06T08:59:49.000Z</time>
      </trkpt>
      <trkpt lat="49.87909" lon="4.7547">
        <ele>249</ele>
        <time>2022-06-06T08:59:50.000Z</time>
      </trkpt>
      <trkpt lat="49.87907" lon="4.75466">
        <ele>249</ele>
        <time>2022-06-06T08:59:51.000Z</time>
      </trkpt>
      <trkpt lat="49.87906" lon="4.75461">
        <ele>250</ele>
        <time>2022-06-06T08:59:52.000Z</time>
      </trkpt>
      <trkpt lat="49.87904" lon="4.75457">
        <ele>250</ele>
        <time>2022-06-06T08:59:53.000Z</time>
      </trkpt>
      <trkpt lat="49.87903" lon="4.75453">
        <ele>250</ele>
        <time>2022-06-06T08:59:54.000Z</time>
      </trkpt>
      <trkpt lat="49.87901" lon="4.75449">
        <ele>251</ele>
        <time>2022-06-06T08:59:55.000Z</time>
      </trkpt>
      <trkpt lat="49.87899" lon="4.75445">
        <ele>251</ele>
        <time>2022-06-06T08:59:56.000Z</time>
      </trkpt>
      <trkpt lat="49.87898" lon="4.7544">
        <ele>252</ele>
        <time>2022-06-06T08:59:57.000Z</time>
      </trkpt>
      <trkpt lat="49.87896" lon="4.75436">
        <ele>252</ele>
        <time>2022-06-06T08:59:58.000Z</time>
      </trkpt>
      <trkpt lat="49.87895" lon="4.75431">
        <ele>252</ele>
        <time>2022-06-06T08:59:59.000Z</time>
      </trkpt>
      <trkpt lat="49.87894" lon="4.75426">
        <ele>253</ele>
        <time>2022-06-06T09:00:00.000Z</time>
      </trkpt>
      <trkpt lat="49.87893" lon="4.75421">
        <ele>253</ele>
        <time>2022-06-06T09:00:01.000Z</time>
      </trkpt>
      <trkpt lat="49.87891" lon="4.75416">
        <ele>253</ele>
        <time>2022-06-06T09:00:02.000Z</time>
      </trkpt>
      <trkpt lat="49.8789" lon="4.75411">
        <ele>254</ele>
        <time>2022-06-06T09:00:03.000Z</time>
      </trkpt>
      <trkpt lat="49.87889" lon="4.75406">
        <ele>254</ele>
        <time>2022-06-06T09:00:04.000Z</time>
      </trkpt>
      <trkpt lat="49.87888" lon="4.75401">
        <ele>254</ele>
        <time>2022-06-06T09:00:05.000Z</time>
      </trkpt>
      <trkpt lat="49.87887" lon="4.75396">
        <ele>255</ele>
        <time>2022-06-06T09:00:06.000Z</time>
      </trkpt>
      <trkpt lat="49.87886" lon="4.75392">
        <ele>255</ele>
        <time>2022-06-06T09:00:07.000Z</time>
      </trkpt>
      <trkpt lat="49.87884" lon="4.75388">
        <ele>255</ele>
        <time>2022-06-06T09:00:08.000Z</time>
      </trkpt>
      <trkpt lat="49.87883" lon="4.75383">
        <ele>255</ele>
        <time>2022-06-06T09:00:09.000Z</time>
      </trkpt>
      <trkpt lat="49.87882" lon="4.75379">
        <ele>255</ele>
        <time>2022-06-06T09:00:10.000Z</time>
      </trkpt>
      <trkpt lat="49.87881" lon="4.75376">
        <ele>256</ele>
        <time>2022-06-06T09:00:11.000Z</time>
      </trkpt>
      <trkpt lat="49.8788" lon="4.75372">
        <ele>256</ele>
        <time>2022-06-06T09:00:12.000Z</time>
      </trkpt>
      <trkpt lat="49.87878" lon="4.75368">
        <ele>256</ele>
        <time>2022-06-06T09:00:13.000Z</time>
      </trkpt>
      <trkpt lat="49.87877" lon="4.75364">
        <ele>256</ele>
        <time>2022-06-06T09:00:14.000Z</time>
      </trkpt>
      <trkpt lat="49.87875" lon="4.7536">
        <ele>257</ele>
        <time>2022-06-06T09:00:15.000Z</time>
      </trkpt>
      <trkpt lat="49.87874" lon="4.75356">
        <ele>257</ele>
        <time>2022-06-06T09:00:16.000Z</time>
      </trkpt>
      <trkpt lat="49.87872" lon="4.75352">
        <ele>257</ele>
        <time>2022-06-06T09:00:17.000Z</time>
      </trkpt>
      <trkpt lat="49.87871" lon="4.75348">
        <ele>257</ele>
        <time>2022-06-06T09:00:18.000Z</time>
      </trkpt>
      <trkpt lat="49.87869" lon="4.75345">
        <ele>257</ele>
        <time>2022-06-06T09:00:19.000Z</time>
      </trkpt>
      <trkpt lat="49.87867" lon="4.7534">
        <ele>257</ele>
        <time>2022-06-06T09:00:20.000Z</time>
      </trkpt>
      <trkpt lat="49.87866" lon="4.75336">
        <ele>258</ele>
        <time>2022-06-06T09:00:21.000Z</time>
      </trkpt>
      <trkpt lat="49.87864" lon="4.75332">
        <ele>258</ele>
        <time>2022-06-06T09:00:22.000Z</time>
      </trkpt>
      <trkpt lat="49.87863" lon="4.75328">
        <ele>258</ele>
        <time>2022-06-06T09:00:23.000Z</time>
      </trkpt>
      <trkpt lat="49.87861" lon="4.75325">
        <ele>258</ele>
        <time>2022-06-06T09:00:24.000Z</time>
      </trkpt>
      <trkpt lat="49.87859" lon="4.75321">
        <ele>258</ele>
        <time>2022-06-06T09:00:25.000Z</time>
      </trkpt>
      <trkpt lat="49.87857" lon="4.75317">
        <ele>258</ele>
        <time>2022-06-06T09:00:26.000Z</time>
      </trkpt>
      <trkpt lat="49.87856" lon="4.75313">
        <ele>258</ele>
        <time>2022-06-06T09:00:27.000Z</time>
      </trkpt>
      <trkpt lat="49.87854" lon="4.75309">
        <ele>259</ele>
        <time>2022-06-06T09:00:28.000Z</time>
      </trkpt>
      <trkpt lat="49.87853" lon="4.75305">
        <ele>259</ele>
        <time>2022-06-06T09:00:29.000Z</time>
      </trkpt>
      <trkpt lat="49.87851" lon="4.75301">
        <ele>259</ele>
        <time>2022-06-06T09:00:30.000Z</time>
      </trkpt>
      <trkpt lat="49.8785" lon="4.75297">
        <ele>259</ele>
        <time>2022-06-06T09:00:31.000Z</time>
      </trkpt>
      <trkpt lat="49.87849" lon="4.75293">
        <ele>260</ele>
        <time>2022-06-06T09:00:32.000Z</time>
      </trkpt>
      <trkpt lat="49.87847" lon="4.75289">
        <ele>260</ele>
        <time>2022-06-06T09:00:33.000Z</time>
      </trkpt>
      <trkpt lat="49.87845" lon="4.75284">
        <ele>260</ele>
        <time>2022-06-06T09:00:34.000Z</time>
      </trkpt>
      <trkpt lat="49.87844" lon="4.7528">
        <ele>261</ele>
        <time>2022-06-06T09:00:35.000Z</time>
      </trkpt>
      <trkpt lat="49.87842" lon="4.75276">
        <ele>261</ele>
        <time>2022-06-06T09:00:36.000Z</time>
      </trkpt>
      <trkpt lat="49.8784" lon="4.75271">
        <ele>261</ele>
        <time>2022-06-06T09:00:37.000Z</time>
      </trkpt>
      <trkpt lat="49.87839" lon="4.75267">
        <ele>261</ele>
        <time>2022-06-06T09:00:38.000Z</time>
      </trkpt>
      <trkpt lat="49.87837" lon="4.75263">
        <ele>262</ele>
        <time>2022-06-06T09:00:39.000Z</time>
      </trkpt>
      <trkpt lat="49.87835" lon="4.75259">
        <ele>262</ele>
        <time>2022-06-06T09:00:40.000Z</time>
      </trkpt>
      <trkpt lat="49.87834" lon="4.75254">
        <ele>262</ele>
        <time>2022-06-06T09:00:41.000Z</time>
      </trkpt>
      <trkpt lat="49.87832" lon="4.75249">
        <ele>263</ele>
        <time>2022-06-06T09:00:42.000Z</time>
      </trkpt>
      <trkpt lat="49.87831" lon="4.75245">
        <ele>263</ele>
        <time>2022-06-06T09:00:43.000Z</time>
      </trkpt>
      <trkpt lat="49.87828" lon="4.75241">
        <ele>263</ele>
        <time>2022-06-06T09:00:44.000Z</time>
      </trkpt>
      <trkpt lat="49.87826" lon="4.75238">
        <ele>263</ele>
        <time>2022-06-06T09:00:45.000Z</time>
      </trkpt>
      <trkpt lat="49.87824" lon="4.75234">
        <ele>263</ele>
        <time>2022-06-06T09:00:46.000Z</time>
      </trkpt>
      <trkpt lat="49.87822" lon="4.7523">
        <ele>263</ele>
        <time>2022-06-06T09:00:47.000Z</time>
      </trkpt>
      <trkpt lat="49.8782" lon="4.75227">
        <ele>264</ele>
        <time>2022-06-06T09:00:48.000Z</time>
      </trkpt>
      <trkpt lat="49.87819" lon="4.75224">
        <ele>264</ele>
        <time>2022-06-06T09:00:49.000Z</time>
      </trkpt>
      <trkpt lat="49.87817" lon="4.75222">
        <ele>264</ele>
        <time>2022-06-06T09:00:50.000Z</time>
      </trkpt>
      <trkpt lat="49.87815" lon="4.7522">
        <ele>264</ele>
        <time>2022-06-06T09:00:51.000Z</time>
      </trkpt>
      <trkpt lat="49.87814" lon="4.7522">
        <ele>264</ele>
        <time>2022-06-06T09:00:52.000Z</time>
      </trkpt>
      <trkpt lat="49.87812" lon="4.7522">
        <ele>265</ele>
        <time>2022-06-06T09:00:53.000Z</time>
      </trkpt>
      <trkpt lat="49.8781" lon="4.75219">
        <ele>265</ele>
        <time>2022-06-06T09:00:54.000Z</time>
      </trkpt>
      <trkpt lat="49.87808" lon="4.75219">
        <ele>265</ele>
        <time>2022-06-06T09:00:55.000Z</time>
      </trkpt>
      <trkpt lat="49.87806" lon="4.75219">
        <ele>265</ele>
        <time>2022-06-06T09:00:56.000Z</time>
      </trkpt>
      <trkpt lat="49.87803" lon="4.75219">
        <ele>265</ele>
        <time>2022-06-06T09:00:57.000Z</time>
      </trkpt>
      <trkpt lat="49.87801" lon="4.75219">
        <ele>266</ele>
        <time>2022-06-06T09:00:58.000Z</time>
      </trkpt>
      <trkpt lat="49.87799" lon="4.75219">
        <ele>266</ele>
        <time>2022-06-06T09:00:59.000Z</time>
      </trkpt>
      <trkpt lat="49.87796" lon="4.75219">
        <ele>266</ele>
        <time>2022-06-06T09:01:00.000Z</time>
      </trkpt>
      <trkpt lat="49.87794" lon="4.75219">
        <ele>267</ele>
        <time>2022-06-06T09:01:01.000Z</time>
      </trkpt>
      <trkpt lat="49.87792" lon="4.75218">
        <ele>267</ele>
        <time>2022-06-06T09:01:02.000Z</time>
      </trkpt>
      <trkpt lat="49.87789" lon="4.75218">
        <ele>267</ele>
        <time>2022-06-06T09:01:03.000Z</time>
      </trkpt>
      <trkpt lat="49.87787" lon="4.75219">
        <ele>268</ele>
        <time>2022-06-06T09:01:04.000Z</time>
      </trkpt>
      <trkpt lat="49.87785" lon="4.7522">
        <ele>268</ele>
        <time>2022-06-06T09:01:05.000Z</time>
      </trkpt>
      <trkpt lat="49.87783" lon="4.75221">
        <ele>268</ele>
        <time>2022-06-06T09:01:06.000Z</time>
      </trkpt>
      <trkpt lat="49.87781" lon="4.75221">
        <ele>269</ele>
        <time>2022-06-06T09:01:07.000Z</time>
      </trkpt>
      <trkpt lat="49.87778" lon="4.75221">
        <ele>269</ele>
        <time>2022-06-06T09:01:08.000Z</time>
      </trkpt>
      <trkpt lat="49.87776" lon="4.75222">
        <ele>269</ele>
        <time>2022-06-06T09:01:09.000Z</time>
      </trkpt>
      <trkpt lat="49.87774" lon="4.75222">
        <ele>270</ele>
        <time>2022-06-06T09:01:10.000Z</time>
      </trkpt>
      <trkpt lat="49.87771" lon="4.75223">
        <ele>270</ele>
        <time>2022-06-06T09:01:11.000Z</time>
      </trkpt>
      <trkpt lat="49.87769" lon="4.75223">
        <ele>271</ele>
        <time>2022-06-06T09:01:12.000Z</time>
      </trkpt>
      <trkpt lat="49.87767" lon="4.75224">
        <ele>271</ele>
        <time>2022-06-06T09:01:13.000Z</time>
      </trkpt>
      <trkpt lat="49.87764" lon="4.75225">
        <ele>271</ele>
        <time>2022-06-06T09:01:14.000Z</time>
      </trkpt>
      <trkpt lat="49.87762" lon="4.75226">
        <ele>271</ele>
        <time>2022-06-06T09:01:15.000Z</time>
      </trkpt>
      <trkpt lat="49.87759" lon="4.75227">
        <ele>272</ele>
        <time>2022-06-06T09:01:16.000Z</time>
      </trkpt>
      <trkpt lat="49.87756" lon="4.75228">
        <ele>272</ele>
        <time>2022-06-06T09:01:17.000Z</time>
      </trkpt>
      <trkpt lat="49.87753" lon="4.75229">
        <ele>272</ele>
        <time>2022-06-06T09:01:18.000Z</time>
      </trkpt>
      <trkpt lat="49.8775" lon="4.7523">
        <ele>273</ele>
        <time>2022-06-06T09:01:19.000Z</time>
      </trkpt>
      <trkpt lat="49.87748" lon="4.75231">
        <ele>273</ele>
        <time>2022-06-06T09:01:20.000Z</time>
      </trkpt>
      <trkpt lat="49.87745" lon="4.75232">
        <ele>273</ele>
        <time>2022-06-06T09:01:21.000Z</time>
      </trkpt>
      <trkpt lat="49.87743" lon="4.75232">
        <ele>274</ele>
        <time>2022-06-06T09:01:22.000Z</time>
      </trkpt>
      <trkpt lat="49.8774" lon="4.75234">
        <ele>274</ele>
        <time>2022-06-06T09:01:23.000Z</time>
      </trkpt>
      <trkpt lat="49.87738" lon="4.75235">
        <ele>274</ele>
        <time>2022-06-06T09:01:24.000Z</time>
      </trkpt>
      <trkpt lat="49.87735" lon="4.75236">
        <ele>275</ele>
        <time>2022-06-06T09:01:25.000Z</time>
      </trkpt>
      <trkpt lat="49.87732" lon="4.75237">
        <ele>275</ele>
        <time>2022-06-06T09:01:26.000Z</time>
      </trkpt>
      <trkpt lat="49.87729" lon="4.75238">
        <ele>276</ele>
        <time>2022-06-06T09:01:27.000Z</time>
      </trkpt>
      <trkpt lat="49.87726" lon="4.75239">
        <ele>276</ele>
        <time>2022-06-06T09:01:28.000Z</time>
      </trkpt>
      <trkpt lat="49.87724" lon="4.7524">
        <ele>277</ele>
        <time>2022-06-06T09:01:29.000Z</time>
      </trkpt>
      <trkpt lat="49.87721" lon="4.75241">
        <ele>277</ele>
        <time>2022-06-06T09:01:30.000Z</time>
      </trkpt>
      <trkpt lat="49.87719" lon="4.75242">
        <ele>277</ele>
        <time>2022-06-06T09:01:31.000Z</time>
      </trkpt>
      <trkpt lat="49.87716" lon="4.75242">
        <ele>278</ele>
        <time>2022-06-06T09:01:32.000Z</time>
      </trkpt>
      <trkpt lat="49.87713" lon="4.75243">
        <ele>278</ele>
        <time>2022-06-06T09:01:33.000Z</time>
      </trkpt>
      <trkpt lat="49.8771" lon="4.75243">
        <ele>278</ele>
        <time>2022-06-06T09:01:34.000Z</time>
      </trkpt>
      <trkpt lat="49.87707" lon="4.75244">
        <ele>279</ele>
        <time>2022-06-06T09:01:35.000Z</time>
      </trkpt>
      <trkpt lat="49.87705" lon="4.75244">
        <ele>279</ele>
        <time>2022-06-06T09:01:36.000Z</time>
      </trkpt>
      <trkpt lat="49.87702" lon="4.75245">
        <ele>279</ele>
        <time>2022-06-06T09:01:37.000Z</time>
      </trkpt>
      <trkpt lat="49.87699" lon="4.75245">
        <ele>280</ele>
        <time>2022-06-06T09:01:38.000Z</time>
      </trkpt>
      <trkpt lat="49.87697" lon="4.75246">
        <ele>280</ele>
        <time>2022-06-06T09:01:39.000Z</time>
      </trkpt>
      <trkpt lat="49.87694" lon="4.75246">
        <ele>280</ele>
        <time>2022-06-06T09:01:40.000Z</time>
      </trkpt>
      <trkpt lat="49.87692" lon="4.75246">
        <ele>280</ele>
        <time>2022-06-06T09:01:41.000Z</time>
      </trkpt>
      <trkpt lat="49.87689" lon="4.75247">
        <ele>281</ele>
        <time>2022-06-06T09:01:42.000Z</time>
      </trkpt>
      <trkpt lat="49.87686" lon="4.75247">
        <ele>281</ele>
        <time>2022-06-06T09:01:43.000Z</time>
      </trkpt>
      <trkpt lat="49.87684" lon="4.75247">
        <ele>281</ele>
        <time>2022-06-06T09:01:44.000Z</time>
      </trkpt>
      <trkpt lat="49.87681" lon="4.75247">
        <ele>281</ele>
        <time>2022-06-06T09:01:45.000Z</time>
      </trkpt>
      <trkpt lat="49.87678" lon="4.75246">
        <ele>282</ele>
        <time>2022-06-06T09:01:46.000Z</time>
      </trkpt>
      <trkpt lat="49.87675" lon="4.75247">
        <ele>282</ele>
        <time>2022-06-06T09:01:47.000Z</time>
      </trkpt>
      <trkpt lat="49.87672" lon="4.75248">
        <ele>282</ele>
        <time>2022-06-06T09:01:48.000Z</time>
      </trkpt>
      <trkpt lat="49.87669" lon="4.75248">
        <ele>283</ele>
        <time>2022-06-06T09:01:49.000Z</time>
      </trkpt>
      <trkpt lat="49.87666" lon="4.75248">
        <ele>283</ele>
        <time>2022-06-06T09:01:50.000Z</time>
      </trkpt>
      <trkpt lat="49.87663" lon="4.75249">
        <ele>284</ele>
        <time>2022-06-06T09:01:51.000Z</time>
      </trkpt>
      <trkpt lat="49.8766" lon="4.75248">
        <ele>284</ele>
        <time>2022-06-06T09:01:52.000Z</time>
      </trkpt>
      <trkpt lat="49.87658" lon="4.75248">
        <ele>284</ele>
        <time>2022-06-06T09:01:53.000Z</time>
      </trkpt>
      <trkpt lat="49.87655" lon="4.75247">
        <ele>285</ele>
        <time>2022-06-06T09:01:54.000Z</time>
      </trkpt>
      <trkpt lat="49.87652" lon="4.75247">
        <ele>285</ele>
        <time>2022-06-06T09:01:55.000Z</time>
      </trkpt>
      <trkpt lat="49.87649" lon="4.75246">
        <ele>285</ele>
        <time>2022-06-06T09:01:56.000Z</time>
      </trkpt>
      <trkpt lat="49.87647" lon="4.75246">
        <ele>286</ele>
        <time>2022-06-06T09:01:57.000Z</time>
      </trkpt>
      <trkpt lat="49.87645" lon="4.75246">
        <ele>286</ele>
        <time>2022-06-06T09:01:58.000Z</time>
      </trkpt>
      <trkpt lat="49.87642" lon="4.75247">
        <ele>287</ele>
        <time>2022-06-06T09:01:59.000Z</time>
      </trkpt>
      <trkpt lat="49.8764" lon="4.75247">
        <ele>287</ele>
        <time>2022-06-06T09:02:00.000Z</time>
      </trkpt>
      <trkpt lat="49.87637" lon="4.75247">
        <ele>288</ele>
        <time>2022-06-06T09:02:01.000Z</time>
      </trkpt>
      <trkpt lat="49.87635" lon="4.75247">
        <ele>288</ele>
        <time>2022-06-06T09:02:02.000Z</time>
      </trkpt>
      <trkpt lat="49.87632" lon="4.75247">
        <ele>288</ele>
        <time>2022-06-06T09:02:03.000Z</time>
      </trkpt>
      <trkpt lat="49.8763" lon="4.75246">
        <ele>289</ele>
        <time>2022-06-06T09:02:04.000Z</time>
      </trkpt>
      <trkpt lat="49.87627" lon="4.75246">
        <ele>289</ele>
        <time>2022-06-06T09:02:05.000Z</time>
      </trkpt>
      <trkpt lat="49.87625" lon="4.75245">
        <ele>289</ele>
        <time>2022-06-06T09:02:06.000Z</time>
      </trkpt>
      <trkpt lat="49.87622" lon="4.75245">
        <ele>290</ele>
        <time>2022-06-06T09:02:07.000Z</time>
      </trkpt>
      <trkpt lat="49.8762" lon="4.75245">
        <ele>290</ele>
        <time>2022-06-06T09:02:08.000Z</time>
      </trkpt>
      <trkpt lat="49.87619" lon="4.75245">
        <ele>291</ele>
        <time>2022-06-06T09:02:09.000Z</time>
      </trkpt>
      <trkpt lat="49.87616" lon="4.75245">
        <ele>291</ele>
        <time>2022-06-06T09:02:10.000Z</time>
      </trkpt>
      <trkpt lat="49.87614" lon="4.75245">
        <ele>291</ele>
        <time>2022-06-06T09:02:11.000Z</time>
      </trkpt>
      <trkpt lat="49.87611" lon="4.75245">
        <ele>292</ele>
        <time>2022-06-06T09:02:12.000Z</time>
      </trkpt>
      <trkpt lat="49.87609" lon="4.75245">
        <ele>292</ele>
        <time>2022-06-06T09:02:13.000Z</time>
      </trkpt>
      <trkpt lat="49.87606" lon="4.75245">
        <ele>292</ele>
        <time>2022-06-06T09:02:14.000Z</time>
      </trkpt>
      <trkpt lat="49.87603" lon="4.75244">
        <ele>293</ele>
        <time>2022-06-06T09:02:15.000Z</time>
      </trkpt>
      <trkpt lat="49.876" lon="4.75244">
        <ele>293</ele>
        <time>2022-06-06T09:02:16.000Z</time>
      </trkpt>
      <trkpt lat="49.87597" lon="4.75244">
        <ele>293</ele>
        <time>2022-06-06T09:02:17.000Z</time>
      </trkpt>
      <trkpt lat="49.87594" lon="4.75243">
        <ele>294</ele>
        <time>2022-06-06T09:02:18.000Z</time>
      </trkpt>
      <trkpt lat="49.87592" lon="4.75242">
        <ele>294</ele>
        <time>2022-06-06T09:02:19.000Z</time>
      </trkpt>
      <trkpt lat="49.87589" lon="4.75242">
        <ele>294</ele>
        <time>2022-06-06T09:02:20.000Z</time>
      </trkpt>
      <trkpt lat="49.87587" lon="4.75242">
        <ele>294</ele>
        <time>2022-06-06T09:02:21.000Z</time>
      </trkpt>
      <trkpt lat="49.87584" lon="4.75241">
        <ele>294</ele>
        <time>2022-06-06T09:02:22.000Z</time>
      </trkpt>
      <trkpt lat="49.87581" lon="4.7524">
        <ele>295</ele>
        <time>2022-06-06T09:02:23.000Z</time>
      </trkpt>
      <trkpt lat="49.87578" lon="4.7524">
        <ele>295</ele>
        <time>2022-06-06T09:02:24.000Z</time>
      </trkpt>
      <trkpt lat="49.87575" lon="4.7524">
        <ele>295</ele>
        <time>2022-06-06T09:02:25.000Z</time>
      </trkpt>
      <trkpt lat="49.87571" lon="4.75239">
        <ele>295</ele>
        <time>2022-06-06T09:02:26.000Z</time>
      </trkpt>
      <trkpt lat="49.87568" lon="4.75238">
        <ele>296</ele>
        <time>2022-06-06T09:02:27.000Z</time>
      </trkpt>
      <trkpt lat="49.87565" lon="4.75237">
        <ele>296</ele>
        <time>2022-06-06T09:02:28.000Z</time>
      </trkpt>
      <trkpt lat="49.87562" lon="4.75236">
        <ele>296</ele>
        <time>2022-06-06T09:02:29.000Z</time>
      </trkpt>
      <trkpt lat="49.87559" lon="4.75234">
        <ele>297</ele>
        <time>2022-06-06T09:02:30.000Z</time>
      </trkpt>
      <trkpt lat="49.87556" lon="4.75233">
        <ele>297</ele>
        <time>2022-06-06T09:02:31.000Z</time>
      </trkpt>
      <trkpt lat="49.87553" lon="4.75232">
        <ele>297</ele>
        <time>2022-06-06T09:02:32.000Z</time>
      </trkpt>
      <trkpt lat="49.8755" lon="4.7523">
        <ele>298</ele>
        <time>2022-06-06T09:02:33.000Z</time>
      </trkpt>
      <trkpt lat="49.87546" lon="4.75229">
        <ele>298</ele>
        <time>2022-06-06T09:02:34.000Z</time>
      </trkpt>
      <trkpt lat="49.87543" lon="4.75228">
        <ele>298</ele>
        <time>2022-06-06T09:02:35.000Z</time>
      </trkpt>
      <trkpt lat="49.87541" lon="4.75226">
        <ele>298</ele>
        <time>2022-06-06T09:02:36.000Z</time>
      </trkpt>
      <trkpt lat="49.87538" lon="4.75225">
        <ele>299</ele>
        <time>2022-06-06T09:02:37.000Z</time>
      </trkpt>
      <trkpt lat="49.87535" lon="4.75224">
        <ele>299</ele>
        <time>2022-06-06T09:02:38.000Z</time>
      </trkpt>
      <trkpt lat="49.87532" lon="4.75223">
        <ele>299</ele>
        <time>2022-06-06T09:02:39.000Z</time>
      </trkpt>
      <trkpt lat="49.87529" lon="4.75222">
        <ele>299</ele>
        <time>2022-06-06T09:02:40.000Z</time>
      </trkpt>
      <trkpt lat="49.87526" lon="4.75221">
        <ele>299</ele>
        <time>2022-06-06T09:02:41.000Z</time>
      </trkpt>
      <trkpt lat="49.87523" lon="4.7522">
        <ele>300</ele>
        <time>2022-06-06T09:02:42.000Z</time>
      </trkpt>
      <trkpt lat="49.8752" lon="4.75219">
        <ele>300</ele>
        <time>2022-06-06T09:02:43.000Z</time>
      </trkpt>
      <trkpt lat="49.87518" lon="4.75218">
        <ele>300</ele>
        <time>2022-06-06T09:02:44.000Z</time>
      </trkpt>
      <trkpt lat="49.87515" lon="4.75218">
        <ele>300</ele>
        <time>2022-06-06T09:02:45.000Z</time>
      </trkpt>
      <trkpt lat="49.87512" lon="4.75218">
        <ele>301</ele>
        <time>2022-06-06T09:02:46.000Z</time>
      </trkpt>
      <trkpt lat="49.8751" lon="4.75217">
        <ele>301</ele>
        <time>2022-06-06T09:02:47.000Z</time>
      </trkpt>
      <trkpt lat="49.87507" lon="4.75217">
        <ele>301</ele>
        <time>2022-06-06T09:02:48.000Z</time>
      </trkpt>
      <trkpt lat="49.87504" lon="4.75216">
        <ele>301</ele>
        <time>2022-06-06T09:02:49.000Z</time>
      </trkpt>
      <trkpt lat="49.87502" lon="4.75216">
        <ele>301</ele>
        <time>2022-06-06T09:02:50.000Z</time>
      </trkpt>
      <trkpt lat="49.87499" lon="4.75216">
        <ele>301</ele>
        <time>2022-06-06T09:02:51.000Z</time>
      </trkpt>
      <trkpt lat="49.87496" lon="4.75215">
        <ele>302</ele>
        <time>2022-06-06T09:02:52.000Z</time>
      </trkpt>
      <trkpt lat="49.87494" lon="4.75214">
        <ele>302</ele>
        <time>2022-06-06T09:02:53.000Z</time>
      </trkpt>
      <trkpt lat="49.87491" lon="4.75213">
        <ele>302</ele>
        <time>2022-06-06T09:02:54.000Z</time>
      </trkpt>
      <trkpt lat="49.87488" lon="4.75211">
        <ele>302</ele>
        <time>2022-06-06T09:02:55.000Z</time>
      </trkpt>
      <trkpt lat="49.87485" lon="4.7521">
        <ele>302</ele>
        <time>2022-06-06T09:02:56.000Z</time>
      </trkpt>
      <trkpt lat="49.87483" lon="4.75208">
        <ele>302</ele>
        <time>2022-06-06T09:02:57.000Z</time>
      </trkpt>
      <trkpt lat="49.8748" lon="4.75206">
        <ele>303</ele>
        <time>2022-06-06T09:02:58.000Z</time>
      </trkpt>
      <trkpt lat="49.87478" lon="4.75204">
        <ele>303</ele>
        <time>2022-06-06T09:02:59.000Z</time>
      </trkpt>
      <trkpt lat="49.87475" lon="4.75203">
        <ele>303</ele>
        <time>2022-06-06T09:03:00.000Z</time>
      </trkpt>
      <trkpt lat="49.87472" lon="4.75201">
        <ele>303</ele>
        <time>2022-06-06T09:03:01.000Z</time>
      </trkpt>
      <trkpt lat="49.87469" lon="4.752">
        <ele>303</ele>
        <time>2022-06-06T09:03:02.000Z</time>
      </trkpt>
      <trkpt lat="49.87466" lon="4.75199">
        <ele>303</ele>
        <time>2022-06-06T09:03:03.000Z</time>
      </trkpt>
      <trkpt lat="49.87464" lon="4.75198">
        <ele>303</ele>
        <time>2022-06-06T09:03:04.000Z</time>
      </trkpt>
      <trkpt lat="49.87461" lon="4.75197">
        <ele>303</ele>
        <time>2022-06-06T09:03:05.000Z</time>
      </trkpt>
      <trkpt lat="49.87458" lon="4.75197">
        <ele>303</ele>
        <time>2022-06-06T09:03:06.000Z</time>
      </trkpt>
      <trkpt lat="49.87456" lon="4.75196">
        <ele>303</ele>
        <time>2022-06-06T09:03:07.000Z</time>
      </trkpt>
      <trkpt lat="49.87453" lon="4.75198">
        <ele>303</ele>
        <time>2022-06-06T09:03:08.000Z</time>
      </trkpt>
      <trkpt lat="49.87451" lon="4.75199">
        <ele>304</ele>
        <time>2022-06-06T09:03:09.000Z</time>
      </trkpt>
      <trkpt lat="49.87448" lon="4.75201">
        <ele>304</ele>
        <time>2022-06-06T09:03:10.000Z</time>
      </trkpt>
      <trkpt lat="49.87446" lon="4.75203">
        <ele>304</ele>
        <time>2022-06-06T09:03:11.000Z</time>
      </trkpt>
      <trkpt lat="49.87445" lon="4.75206">
        <ele>304</ele>
        <time>2022-06-06T09:03:12.000Z</time>
      </trkpt>
      <trkpt lat="49.87444" lon="4.7521">
        <ele>304</ele>
        <time>2022-06-06T09:03:13.000Z</time>
      </trkpt>
      <trkpt lat="49.87443" lon="4.75215">
        <ele>305</ele>
        <time>2022-06-06T09:03:14.000Z</time>
      </trkpt>
      <trkpt lat="49.87442" lon="4.75218">
        <ele>305</ele>
        <time>2022-06-06T09:03:15.000Z</time>
      </trkpt>
      <trkpt lat="49.87442" lon="4.75221">
        <ele>305</ele>
        <time>2022-06-06T09:03:16.000Z</time>
      </trkpt>
      <trkpt lat="49.87443" lon="4.75222">
        <ele>305</ele>
        <time>2022-06-06T09:03:17.000Z</time>
      </trkpt>
      <trkpt lat="49.87444" lon="4.75221">
        <ele>305</ele>
        <time>2022-06-06T09:03:18.000Z</time>
      </trkpt>
      <trkpt lat="49.87445" lon="4.75218">
        <ele>305</ele>
        <time>2022-06-06T09:03:19.000Z</time>
      </trkpt>
      <trkpt lat="49.87445" lon="4.75214">
        <ele>305</ele>
        <time>2022-06-06T09:03:20.000Z</time>
      </trkpt>
      <trkpt lat="49.87445" lon="4.75209">
        <ele>305</ele>
        <time>2022-06-06T09:03:21.000Z</time>
      </trkpt>
      <trkpt lat="49.87445" lon="4.75205">
        <ele>305</ele>
        <time>2022-06-06T09:03:22.000Z</time>
      </trkpt>
      <trkpt lat="49.87443" lon="4.75201">
        <ele>305</ele>
        <time>2022-06-06T09:03:23.000Z</time>
      </trkpt>
      <trkpt lat="49.87441" lon="4.75197">
        <ele>306</ele>
        <time>2022-06-06T09:03:24.000Z</time>
      </trkpt>
      <trkpt lat="49.87438" lon="4.75195">
        <ele>306</ele>
        <time>2022-06-06T09:03:25.000Z</time>
      </trkpt>
      <trkpt lat="49.87435" lon="4.75193">
        <ele>306</ele>
        <time>2022-06-06T09:03:26.000Z</time>
      </trkpt>
      <trkpt lat="49.87432" lon="4.7519">
        <ele>306</ele>
        <time>2022-06-06T09:03:27.000Z</time>
      </trkpt>
      <trkpt lat="49.8743" lon="4.75189">
        <ele>306</ele>
        <time>2022-06-06T09:03:28.000Z</time>
      </trkpt>
      <trkpt lat="49.87428" lon="4.75187">
        <ele>306</ele>
        <time>2022-06-06T09:03:29.000Z</time>
      </trkpt>
      <trkpt lat="49.87426" lon="4.75186">
        <ele>306</ele>
        <time>2022-06-06T09:03:30.000Z</time>
      </trkpt>
      <trkpt lat="49.87424" lon="4.75184">
        <ele>306</ele>
        <time>2022-06-06T09:03:31.000Z</time>
      </trkpt>
      <trkpt lat="49.87422" lon="4.75183">
        <ele>307</ele>
        <time>2022-06-06T09:03:32.000Z</time>
      </trkpt>
      <trkpt lat="49.87419" lon="4.75181">
        <ele>307</ele>
        <time>2022-06-06T09:03:33.000Z</time>
      </trkpt>
      <trkpt lat="49.87416" lon="4.7518">
        <ele>307</ele>
        <time>2022-06-06T09:03:34.000Z</time>
      </trkpt>
      <trkpt lat="49.87412" lon="4.75179">
        <ele>307</ele>
        <time>2022-06-06T09:03:35.000Z</time>
      </trkpt>
      <trkpt lat="49.87408" lon="4.75177">
        <ele>307</ele>
        <time>2022-06-06T09:03:36.000Z</time>
      </trkpt>
      <trkpt lat="49.87404" lon="4.75175">
        <ele>307</ele>
        <time>2022-06-06T09:03:37.000Z</time>
      </trkpt>
      <trkpt lat="49.87401" lon="4.75172">
        <ele>307</ele>
        <time>2022-06-06T09:03:38.000Z</time>
      </trkpt>
      <trkpt lat="49.87396" lon="4.75168">
        <ele>307</ele>
        <time>2022-06-06T09:03:39.000Z</time>
      </trkpt>
      <trkpt lat="49.87392" lon="4.75164">
        <ele>307</ele>
        <time>2022-06-06T09:03:40.000Z</time>
      </trkpt>
      <trkpt lat="49.87388" lon="4.7516">
        <ele>307</ele>
        <time>2022-06-06T09:03:41.000Z</time>
      </trkpt>
      <trkpt lat="49.87383" lon="4.75156">
        <ele>307</ele>
        <time>2022-06-06T09:03:42.000Z</time>
      </trkpt>
      <trkpt lat="49.87379" lon="4.75153">
        <ele>307</ele>
        <time>2022-06-06T09:03:43.000Z</time>
      </trkpt>
      <trkpt lat="49.87374" lon="4.75149">
        <ele>307</ele>
        <time>2022-06-06T09:03:44.000Z</time>
      </trkpt>
      <trkpt lat="49.87369" lon="4.75144">
        <ele>307</ele>
        <time>2022-06-06T09:03:45.000Z</time>
      </trkpt>
      <trkpt lat="49.87365" lon="4.75141">
        <ele>306</ele>
        <time>2022-06-06T09:03:46.000Z</time>
      </trkpt>
      <trkpt lat="49.8736" lon="4.75139">
        <ele>306</ele>
        <time>2022-06-06T09:03:47.000Z</time>
      </trkpt>
      <trkpt lat="49.87356" lon="4.75137">
        <ele>306</ele>
        <time>2022-06-06T09:03:48.000Z</time>
      </trkpt>
      <trkpt lat="49.87351" lon="4.75135">
        <ele>306</ele>
        <time>2022-06-06T09:03:49.000Z</time>
      </trkpt>
      <trkpt lat="49.87346" lon="4.75133">
        <ele>306</ele>
        <time>2022-06-06T09:03:50.000Z</time>
      </trkpt>
      <trkpt lat="49.87342" lon="4.75132">
        <ele>306</ele>
        <time>2022-06-06T09:03:51.000Z</time>
      </trkpt>
      <trkpt lat="49.87337" lon="4.75132">
        <ele>306</ele>
        <time>2022-06-06T09:03:52.000Z</time>
      </trkpt>
      <trkpt lat="49.87334" lon="4.75132">
        <ele>306</ele>
        <time>2022-06-06T09:03:53.000Z</time>
      </trkpt>
      <trkpt lat="49.8733" lon="4.75132">
        <ele>306</ele>
        <time>2022-06-06T09:03:54.000Z</time>
      </trkpt>
      <trkpt lat="49.87327" lon="4.75132">
        <ele>306</ele>
        <time>2022-06-06T09:03:55.000Z</time>
      </trkpt>
      <trkpt lat="49.87323" lon="4.75133">
        <ele>306</ele>
        <time>2022-06-06T09:03:56.000Z</time>
      </trkpt>
      <trkpt lat="49.8732" lon="4.75135">
        <ele>306</ele>
        <time>2022-06-06T09:03:57.000Z</time>
      </trkpt>
      <trkpt lat="49.87317" lon="4.75136">
        <ele>306</ele>
        <time>2022-06-06T09:03:58.000Z</time>
      </trkpt>
      <trkpt lat="49.87314" lon="4.75137">
        <ele>306</ele>
        <time>2022-06-06T09:03:59.000Z</time>
      </trkpt>
      <trkpt lat="49.87311" lon="4.75137">
        <ele>306</ele>
        <time>2022-06-06T09:04:00.000Z</time>
      </trkpt>
      <trkpt lat="49.87308" lon="4.75138">
        <ele>306</ele>
        <time>2022-06-06T09:04:01.000Z</time>
      </trkpt>
      <trkpt lat="49.87305" lon="4.75139">
        <ele>306</ele>
        <time>2022-06-06T09:04:02.000Z</time>
      </trkpt>
      <trkpt lat="49.87302" lon="4.7514">
        <ele>306</ele>
        <time>2022-06-06T09:04:03.000Z</time>
      </trkpt>
      <trkpt lat="49.87299" lon="4.7514">
        <ele>306</ele>
        <time>2022-06-06T09:04:04.000Z</time>
      </trkpt>
      <trkpt lat="49.87297" lon="4.7514">
        <ele>306</ele>
        <time>2022-06-06T09:04:05.000Z</time>
      </trkpt>
      <trkpt lat="49.87295" lon="4.7514">
        <ele>306</ele>
        <time>2022-06-06T09:04:06.000Z</time>
      </trkpt>
      <trkpt lat="49.87292" lon="4.75139">
        <ele>306</ele>
        <time>2022-06-06T09:04:07.000Z</time>
      </trkpt>
      <trkpt lat="49.8729" lon="4.75137">
        <ele>306</ele>
        <time>2022-06-06T09:04:08.000Z</time>
      </trkpt>
      <trkpt lat="49.87287" lon="4.75134">
        <ele>306</ele>
        <time>2022-06-06T09:04:09.000Z</time>
      </trkpt>
      <trkpt lat="49.87285" lon="4.75131">
        <ele>306</ele>
        <time>2022-06-06T09:04:10.000Z</time>
      </trkpt>
      <trkpt lat="49.87282" lon="4.75128">
        <ele>306</ele>
        <time>2022-06-06T09:04:11.000Z</time>
      </trkpt>
      <trkpt lat="49.8728" lon="4.75124">
        <ele>306</ele>
        <time>2022-06-06T09:04:12.000Z</time>
      </trkpt>
      <trkpt lat="49.87277" lon="4.75121">
        <ele>306</ele>
        <time>2022-06-06T09:04:13.000Z</time>
      </trkpt>
      <trkpt lat="49.87274" lon="4.75118">
        <ele>306</ele>
        <time>2022-06-06T09:04:14.000Z</time>
      </trkpt>
      <trkpt lat="49.87272" lon="4.75115">
        <ele>306</ele>
        <time>2022-06-06T09:04:15.000Z</time>
      </trkpt>
      <trkpt lat="49.87269" lon="4.75112">
        <ele>306</ele>
        <time>2022-06-06T09:04:16.000Z</time>
      </trkpt>
      <trkpt lat="49.87266" lon="4.75108">
        <ele>306</ele>
        <time>2022-06-06T09:04:17.000Z</time>
      </trkpt>
      <trkpt lat="49.87262" lon="4.75104">
        <ele>306</ele>
        <time>2022-06-06T09:04:18.000Z</time>
      </trkpt>
      <trkpt lat="49.87258" lon="4.75099">
        <ele>306</ele>
        <time>2022-06-06T09:04:19.000Z</time>
      </trkpt>
      <trkpt lat="49.87254" lon="4.75095">
        <ele>306</ele>
        <time>2022-06-06T09:04:20.000Z</time>
      </trkpt>
      <trkpt lat="49.87251" lon="4.7509">
        <ele>306</ele>
        <time>2022-06-06T09:04:21.000Z</time>
      </trkpt>
      <trkpt lat="49.87248" lon="4.75086">
        <ele>306</ele>
        <time>2022-06-06T09:04:22.000Z</time>
      </trkpt>
      <trkpt lat="49.87245" lon="4.75081">
        <ele>306</ele>
        <time>2022-06-06T09:04:23.000Z</time>
      </trkpt>
      <trkpt lat="49.87243" lon="4.75078">
        <ele>306</ele>
        <time>2022-06-06T09:04:24.000Z</time>
      </trkpt>
      <trkpt lat="49.8724" lon="4.75076">
        <ele>306</ele>
        <time>2022-06-06T09:04:25.000Z</time>
      </trkpt>
      <trkpt lat="49.87238" lon="4.75074">
        <ele>306</ele>
        <time>2022-06-06T09:04:26.000Z</time>
      </trkpt>
      <trkpt lat="49.87235" lon="4.75072">
        <ele>305</ele>
        <time>2022-06-06T09:04:27.000Z</time>
      </trkpt>
      <trkpt lat="49.87232" lon="4.7507">
        <ele>305</ele>
        <time>2022-06-06T09:04:28.000Z</time>
      </trkpt>
      <trkpt lat="49.87229" lon="4.75068">
        <ele>305</ele>
        <time>2022-06-06T09:04:29.000Z</time>
      </trkpt>
      <trkpt lat="49.87226" lon="4.75065">
        <ele>305</ele>
        <time>2022-06-06T09:04:30.000Z</time>
      </trkpt>
      <trkpt lat="49.87222" lon="4.75062">
        <ele>305</ele>
        <time>2022-06-06T09:04:31.000Z</time>
      </trkpt>
      <trkpt lat="49.87219" lon="4.75059">
        <ele>305</ele>
        <time>2022-06-06T09:04:32.000Z</time>
      </trkpt>
      <trkpt lat="49.87216" lon="4.75056">
        <ele>304</ele>
        <time>2022-06-06T09:04:33.000Z</time>
      </trkpt>
      <trkpt lat="49.87213" lon="4.75053">
        <ele>304</ele>
        <time>2022-06-06T09:04:34.000Z</time>
      </trkpt>
      <trkpt lat="49.87209" lon="4.7505">
        <ele>304</ele>
        <time>2022-06-06T09:04:35.000Z</time>
      </trkpt>
      <trkpt lat="49.87206" lon="4.75047">
        <ele>304</ele>
        <time>2022-06-06T09:04:36.000Z</time>
      </trkpt>
      <trkpt lat="49.87203" lon="4.75044">
        <ele>304</ele>
        <time>2022-06-06T09:04:37.000Z</time>
      </trkpt>
      <trkpt lat="49.872" lon="4.75041">
        <ele>303</ele>
        <time>2022-06-06T09:04:38.000Z</time>
      </trkpt>
      <trkpt lat="49.87197" lon="4.75038">
        <ele>303</ele>
        <time>2022-06-06T09:04:39.000Z</time>
      </trkpt>
      <trkpt lat="49.87194" lon="4.75034">
        <ele>303</ele>
        <time>2022-06-06T09:04:40.000Z</time>
      </trkpt>
      <trkpt lat="49.8719" lon="4.75031">
        <ele>303</ele>
        <time>2022-06-06T09:04:41.000Z</time>
      </trkpt>
      <trkpt lat="49.87187" lon="4.75028">
        <ele>303</ele>
        <time>2022-06-06T09:04:42.000Z</time>
      </trkpt>
      <trkpt lat="49.87184" lon="4.75025">
        <ele>303</ele>
        <time>2022-06-06T09:04:43.000Z</time>
      </trkpt>
      <trkpt lat="49.87181" lon="4.75021">
        <ele>302</ele>
        <time>2022-06-06T09:04:44.000Z</time>
      </trkpt>
      <trkpt lat="49.87178" lon="4.75018">
        <ele>302</ele>
        <time>2022-06-06T09:04:45.000Z</time>
      </trkpt>
      <trkpt lat="49.87174" lon="4.75015">
        <ele>302</ele>
        <time>2022-06-06T09:04:46.000Z</time>
      </trkpt>
      <trkpt lat="49.87171" lon="4.75012">
        <ele>302</ele>
        <time>2022-06-06T09:04:47.000Z</time>
      </trkpt>
      <trkpt lat="49.87167" lon="4.75009">
        <ele>302</ele>
        <time>2022-06-06T09:04:48.000Z</time>
      </trkpt>
      <trkpt lat="49.87164" lon="4.75006">
        <ele>301</ele>
        <time>2022-06-06T09:04:49.000Z</time>
      </trkpt>
      <trkpt lat="49.87161" lon="4.75002">
        <ele>301</ele>
        <time>2022-06-06T09:04:50.000Z</time>
      </trkpt>
      <trkpt lat="49.87158" lon="4.74998">
        <ele>301</ele>
        <time>2022-06-06T09:04:51.000Z</time>
      </trkpt>
      <trkpt lat="49.87155" lon="4.74993">
        <ele>301</ele>
        <time>2022-06-06T09:04:52.000Z</time>
      </trkpt>
      <trkpt lat="49.87152" lon="4.74989">
        <ele>301</ele>
        <time>2022-06-06T09:04:53.000Z</time>
      </trkpt>
      <trkpt lat="49.87149" lon="4.74984">
        <ele>301</ele>
        <time>2022-06-06T09:04:54.000Z</time>
      </trkpt>
      <trkpt lat="49.87145" lon="4.74978">
        <ele>301</ele>
        <time>2022-06-06T09:04:55.000Z</time>
      </trkpt>
      <trkpt lat="49.87142" lon="4.74972">
        <ele>301</ele>
        <time>2022-06-06T09:04:56.000Z</time>
      </trkpt>
      <trkpt lat="49.87138" lon="4.74967">
        <ele>300</ele>
        <time>2022-06-06T09:04:57.000Z</time>
      </trkpt>
      <trkpt lat="49.87134" lon="4.74961">
        <ele>300</ele>
        <time>2022-06-06T09:04:58.000Z</time>
      </trkpt>
      <trkpt lat="49.87131" lon="4.74954">
        <ele>300</ele>
        <time>2022-06-06T09:04:59.000Z</time>
      </trkpt>
      <trkpt lat="49.87127" lon="4.74949">
        <ele>300</ele>
        <time>2022-06-06T09:05:00.000Z</time>
      </trkpt>
      <trkpt lat="49.87123" lon="4.74944">
        <ele>299</ele>
        <time>2022-06-06T09:05:01.000Z</time>
      </trkpt>
      <trkpt lat="49.87118" lon="4.74938">
        <ele>299</ele>
        <time>2022-06-06T09:05:02.000Z</time>
      </trkpt>
      <trkpt lat="49.87114" lon="4.74932">
        <ele>299</ele>
        <time>2022-06-06T09:05:03.000Z</time>
      </trkpt>
      <trkpt lat="49.87109" lon="4.74927">
        <ele>299</ele>
        <time>2022-06-06T09:05:04.000Z</time>
      </trkpt>
      <trkpt lat="49.87106" lon="4.74922">
        <ele>299</ele>
        <time>2022-06-06T09:05:05.000Z</time>
      </trkpt>
      <trkpt lat="49.87102" lon="4.74918">
        <ele>298</ele>
        <time>2022-06-06T09:05:06.000Z</time>
      </trkpt>
      <trkpt lat="49.87099" lon="4.74915">
        <ele>298</ele>
        <time>2022-06-06T09:05:07.000Z</time>
      </trkpt>
      <trkpt lat="49.87096" lon="4.74911">
        <ele>298</ele>
        <time>2022-06-06T09:05:08.000Z</time>
      </trkpt>
      <trkpt lat="49.87093" lon="4.74906">
        <ele>298</ele>
        <time>2022-06-06T09:05:09.000Z</time>
      </trkpt>
      <trkpt lat="49.8709" lon="4.74901">
        <ele>297</ele>
        <time>2022-06-06T09:05:10.000Z</time>
      </trkpt>
      <trkpt lat="49.87086" lon="4.74893">
        <ele>297</ele>
        <time>2022-06-06T09:05:11.000Z</time>
      </trkpt>
      <trkpt lat="49.87083" lon="4.74885">
        <ele>297</ele>
        <time>2022-06-06T09:05:12.000Z</time>
      </trkpt>
      <trkpt lat="49.87079" lon="4.74878">
        <ele>296</ele>
        <time>2022-06-06T09:05:13.000Z</time>
      </trkpt>
      <trkpt lat="49.87076" lon="4.74871">
        <ele>296</ele>
        <time>2022-06-06T09:05:14.000Z</time>
      </trkpt>
      <trkpt lat="49.87073" lon="4.74866">
        <ele>296</ele>
        <time>2022-06-06T09:05:15.000Z</time>
      </trkpt>
      <trkpt lat="49.8707" lon="4.74861">
        <ele>295</ele>
        <time>2022-06-06T09:05:16.000Z</time>
      </trkpt>
      <trkpt lat="49.87068" lon="4.74857">
        <ele>295</ele>
        <time>2022-06-06T09:05:17.000Z</time>
      </trkpt>
      <trkpt lat="49.87066" lon="4.74853">
        <ele>295</ele>
        <time>2022-06-06T09:05:18.000Z</time>
      </trkpt>
      <trkpt lat="49.87064" lon="4.74848">
        <ele>295</ele>
        <time>2022-06-06T09:05:19.000Z</time>
      </trkpt>
      <trkpt lat="49.87061" lon="4.74844">
        <ele>294</ele>
        <time>2022-06-06T09:05:20.000Z</time>
      </trkpt>
      <trkpt lat="49.8706" lon="4.7484">
        <ele>294</ele>
        <time>2022-06-06T09:05:21.000Z</time>
      </trkpt>
      <trkpt lat="49.87058" lon="4.74836">
        <ele>294</ele>
        <time>2022-06-06T09:05:22.000Z</time>
      </trkpt>
      <trkpt lat="49.87055" lon="4.74833">
        <ele>294</ele>
        <time>2022-06-06T09:05:23.000Z</time>
      </trkpt>
      <trkpt lat="49.87053" lon="4.74829">
        <ele>294</ele>
        <time>2022-06-06T09:05:24.000Z</time>
      </trkpt>
      <trkpt lat="49.8705" lon="4.74825">
        <ele>293</ele>
        <time>2022-06-06T09:05:25.000Z</time>
      </trkpt>
      <trkpt lat="49.87047" lon="4.74822">
        <ele>293</ele>
        <time>2022-06-06T09:05:26.000Z</time>
      </trkpt>
      <trkpt lat="49.87044" lon="4.74818">
        <ele>293</ele>
        <time>2022-06-06T09:05:27.000Z</time>
      </trkpt>
      <trkpt lat="49.87041" lon="4.74813">
        <ele>293</ele>
        <time>2022-06-06T09:05:28.000Z</time>
      </trkpt>
      <trkpt lat="49.87037" lon="4.74809">
        <ele>292</ele>
        <time>2022-06-06T09:05:29.000Z</time>
      </trkpt>
      <trkpt lat="49.87034" lon="4.74807">
        <ele>292</ele>
        <time>2022-06-06T09:05:30.000Z</time>
      </trkpt>
      <trkpt lat="49.87031" lon="4.74805">
        <ele>292</ele>
        <time>2022-06-06T09:05:31.000Z</time>
      </trkpt>
      <trkpt lat="49.87029" lon="4.74804">
        <ele>291</ele>
        <time>2022-06-06T09:05:32.000Z</time>
      </trkpt>
      <trkpt lat="49.87026" lon="4.74803">
        <ele>291</ele>
        <time>2022-06-06T09:05:33.000Z</time>
      </trkpt>
      <trkpt lat="49.87024" lon="4.74802">
        <ele>291</ele>
        <time>2022-06-06T09:05:34.000Z</time>
      </trkpt>
      <trkpt lat="49.87022" lon="4.74801">
        <ele>290</ele>
        <time>2022-06-06T09:05:35.000Z</time>
      </trkpt>
      <trkpt lat="49.87021" lon="4.74799">
        <ele>290</ele>
        <time>2022-06-06T09:05:36.000Z</time>
      </trkpt>
      <trkpt lat="49.87019" lon="4.74798">
        <ele>290</ele>
        <time>2022-06-06T09:05:37.000Z</time>
      </trkpt>
      <trkpt lat="49.87017" lon="4.74797">
        <ele>290</ele>
        <time>2022-06-06T09:05:38.000Z</time>
      </trkpt>
      <trkpt lat="49.87014" lon="4.74797">
        <ele>289</ele>
        <time>2022-06-06T09:05:39.000Z</time>
      </trkpt>
      <trkpt lat="49.87012" lon="4.74796">
        <ele>289</ele>
        <time>2022-06-06T09:05:40.000Z</time>
      </trkpt>
      <trkpt lat="49.87008" lon="4.74796">
        <ele>289</ele>
        <time>2022-06-06T09:05:41.000Z</time>
      </trkpt>
      <trkpt lat="49.87005" lon="4.74796">
        <ele>289</ele>
        <time>2022-06-06T09:05:42.000Z</time>
      </trkpt>
      <trkpt lat="49.87001" lon="4.74796">
        <ele>289</ele>
        <time>2022-06-06T09:05:43.000Z</time>
      </trkpt>
      <trkpt lat="49.86998" lon="4.74796">
        <ele>289</ele>
        <time>2022-06-06T09:05:44.000Z</time>
      </trkpt>
      <trkpt lat="49.86995" lon="4.74796">
        <ele>289</ele>
        <time>2022-06-06T09:05:45.000Z</time>
      </trkpt>
      <trkpt lat="49.86992" lon="4.74796">
        <ele>289</ele>
        <time>2022-06-06T09:05:46.000Z</time>
      </trkpt>
      <trkpt lat="49.86989" lon="4.74796">
        <ele>289</ele>
        <time>2022-06-06T09:05:47.000Z</time>
      </trkpt>
      <trkpt lat="49.86986" lon="4.74795">
        <ele>289</ele>
        <time>2022-06-06T09:05:48.000Z</time>
      </trkpt>
      <trkpt lat="49.86983" lon="4.74795">
        <ele>289</ele>
        <time>2022-06-06T09:05:49.000Z</time>
      </trkpt>
      <trkpt lat="49.8698" lon="4.74795">
        <ele>289</ele>
        <time>2022-06-06T09:05:50.000Z</time>
      </trkpt>
      <trkpt lat="49.86978" lon="4.74794">
        <ele>289</ele>
        <time>2022-06-06T09:05:51.000Z</time>
      </trkpt>
      <trkpt lat="49.86975" lon="4.74793">
        <ele>289</ele>
        <time>2022-06-06T09:05:52.000Z</time>
      </trkpt>
      <trkpt lat="49.86973" lon="4.74792">
        <ele>289</ele>
        <time>2022-06-06T09:05:53.000Z</time>
      </trkpt>
      <trkpt lat="49.8697" lon="4.74791">
        <ele>289</ele>
        <time>2022-06-06T09:05:54.000Z</time>
      </trkpt>
      <trkpt lat="49.86967" lon="4.7479">
        <ele>289</ele>
        <time>2022-06-06T09:05:55.000Z</time>
      </trkpt>
      <trkpt lat="49.86965" lon="4.7479">
        <ele>289</ele>
        <time>2022-06-06T09:05:56.000Z</time>
      </trkpt>
      <trkpt lat="49.86962" lon="4.7479">
        <ele>289</ele>
        <time>2022-06-06T09:05:57.000Z</time>
      </trkpt>
      <trkpt lat="49.86959" lon="4.74789">
        <ele>289</ele>
        <time>2022-06-06T09:05:58.000Z</time>
      </trkpt>
      <trkpt lat="49.86957" lon="4.74789">
        <ele>289</ele>
        <time>2022-06-06T09:05:59.000Z</time>
      </trkpt>
      <trkpt lat="49.86954" lon="4.74789">
        <ele>290</ele>
        <time>2022-06-06T09:06:00.000Z</time>
      </trkpt>
      <trkpt lat="49.86952" lon="4.74788">
        <ele>290</ele>
        <time>2022-06-06T09:06:01.000Z</time>
      </trkpt>
      <trkpt lat="49.86949" lon="4.74787">
        <ele>290</ele>
        <time>2022-06-06T09:06:02.000Z</time>
      </trkpt>
      <trkpt lat="49.86946" lon="4.74786">
        <ele>290</ele>
        <time>2022-06-06T09:06:03.000Z</time>
      </trkpt>
      <trkpt lat="49.86944" lon="4.74786">
        <ele>290</ele>
        <time>2022-06-06T09:06:04.000Z</time>
      </trkpt>
      <trkpt lat="49.86941" lon="4.74786">
        <ele>290</ele>
        <time>2022-06-06T09:06:05.000Z</time>
      </trkpt>
      <trkpt lat="49.86939" lon="4.74785">
        <ele>290</ele>
        <time>2022-06-06T09:06:06.000Z</time>
      </trkpt>
      <trkpt lat="49.86936" lon="4.74784">
        <ele>291</ele>
        <time>2022-06-06T09:06:07.000Z</time>
      </trkpt>
      <trkpt lat="49.86933" lon="4.74783">
        <ele>291</ele>
        <time>2022-06-06T09:06:08.000Z</time>
      </trkpt>
      <trkpt lat="49.86931" lon="4.74782">
        <ele>291</ele>
        <time>2022-06-06T09:06:09.000Z</time>
      </trkpt>
      <trkpt lat="49.86928" lon="4.74781">
        <ele>291</ele>
        <time>2022-06-06T09:06:10.000Z</time>
      </trkpt>
      <trkpt lat="49.86926" lon="4.74781">
        <ele>291</ele>
        <time>2022-06-06T09:06:11.000Z</time>
      </trkpt>
      <trkpt lat="49.86923" lon="4.74781">
        <ele>291</ele>
        <time>2022-06-06T09:06:12.000Z</time>
      </trkpt>
      <trkpt lat="49.8692" lon="4.74781">
        <ele>292</ele>
        <time>2022-06-06T09:06:13.000Z</time>
      </trkpt>
      <trkpt lat="49.86917" lon="4.74781">
        <ele>292</ele>
        <time>2022-06-06T09:06:14.000Z</time>
      </trkpt>
      <trkpt lat="49.86914" lon="4.7478">
        <ele>292</ele>
        <time>2022-06-06T09:06:15.000Z</time>
      </trkpt>
      <trkpt lat="49.86911" lon="4.74778">
        <ele>292</ele>
        <time>2022-06-06T09:06:16.000Z</time>
      </trkpt>
      <trkpt lat="49.86908" lon="4.74776">
        <ele>292</ele>
        <time>2022-06-06T09:06:17.000Z</time>
      </trkpt>
      <trkpt lat="49.86905" lon="4.74774">
        <ele>292</ele>
        <time>2022-06-06T09:06:18.000Z</time>
      </trkpt>
      <trkpt lat="49.86902" lon="4.74771">
        <ele>293</ele>
        <time>2022-06-06T09:06:19.000Z</time>
      </trkpt>
      <trkpt lat="49.869" lon="4.74769">
        <ele>293</ele>
        <time>2022-06-06T09:06:20.000Z</time>
      </trkpt>
      <trkpt lat="49.86897" lon="4.74767">
        <ele>293</ele>
        <time>2022-06-06T09:06:21.000Z</time>
      </trkpt>
      <trkpt lat="49.86895" lon="4.74765">
        <ele>293</ele>
        <time>2022-06-06T09:06:22.000Z</time>
      </trkpt>
      <trkpt lat="49.86892" lon="4.74764">
        <ele>293</ele>
        <time>2022-06-06T09:06:23.000Z</time>
      </trkpt>
      <trkpt lat="49.8689" lon="4.74763">
        <ele>293</ele>
        <time>2022-06-06T09:06:24.000Z</time>
      </trkpt>
      <trkpt lat="49.86889" lon="4.74762">
        <ele>293</ele>
        <time>2022-06-06T09:06:25.000Z</time>
      </trkpt>
      <trkpt lat="49.86887" lon="4.7476">
        <ele>293</ele>
        <time>2022-06-06T09:06:26.000Z</time>
      </trkpt>
      <trkpt lat="49.86884" lon="4.74759">
        <ele>293</ele>
        <time>2022-06-06T09:06:27.000Z</time>
      </trkpt>
      <trkpt lat="49.86882" lon="4.74759">
        <ele>293</ele>
        <time>2022-06-06T09:06:28.000Z</time>
      </trkpt>
      <trkpt lat="49.86881" lon="4.74758">
        <ele>293</ele>
        <time>2022-06-06T09:06:29.000Z</time>
      </trkpt>
      <trkpt lat="49.86879" lon="4.74757">
        <ele>293</ele>
        <time>2022-06-06T09:06:30.000Z</time>
      </trkpt>
      <trkpt lat="49.86877" lon="4.74756">
        <ele>293</ele>
        <time>2022-06-06T09:06:31.000Z</time>
      </trkpt>
      <trkpt lat="49.86875" lon="4.74756">
        <ele>293</ele>
        <time>2022-06-06T09:06:32.000Z</time>
      </trkpt>
      <trkpt lat="49.86873" lon="4.74754">
        <ele>293</ele>
        <time>2022-06-06T09:06:33.000Z</time>
      </trkpt>
      <trkpt lat="49.86871" lon="4.74753">
        <ele>294</ele>
        <time>2022-06-06T09:06:34.000Z</time>
      </trkpt>
      <trkpt lat="49.86869" lon="4.74752">
        <ele>294</ele>
        <time>2022-06-06T09:06:35.000Z</time>
      </trkpt>
      <trkpt lat="49.86866" lon="4.74751">
        <ele>294</ele>
        <time>2022-06-06T09:06:36.000Z</time>
      </trkpt>
      <trkpt lat="49.86863" lon="4.7475">
        <ele>294</ele>
        <time>2022-06-06T09:06:37.000Z</time>
      </trkpt>
      <trkpt lat="49.86861" lon="4.74749">
        <ele>294</ele>
        <time>2022-06-06T09:06:38.000Z</time>
      </trkpt>
      <trkpt lat="49.86858" lon="4.74748">
        <ele>294</ele>
        <time>2022-06-06T09:06:39.000Z</time>
      </trkpt>
      <trkpt lat="49.86855" lon="4.74748">
        <ele>294</ele>
        <time>2022-06-06T09:06:40.000Z</time>
      </trkpt>
      <trkpt lat="49.86853" lon="4.74747">
        <ele>294</ele>
        <time>2022-06-06T09:06:41.000Z</time>
      </trkpt>
      <trkpt lat="49.86851" lon="4.74746">
        <ele>295</ele>
        <time>2022-06-06T09:06:42.000Z</time>
      </trkpt>
      <trkpt lat="49.86849" lon="4.74746">
        <ele>295</ele>
        <time>2022-06-06T09:06:43.000Z</time>
      </trkpt>
      <trkpt lat="49.86847" lon="4.74745">
        <ele>295</ele>
        <time>2022-06-06T09:06:44.000Z</time>
      </trkpt>
      <trkpt lat="49.86846" lon="4.74745">
        <ele>295</ele>
        <time>2022-06-06T09:06:45.000Z</time>
      </trkpt>
      <trkpt lat="49.86844" lon="4.74744">
        <ele>295</ele>
        <time>2022-06-06T09:06:46.000Z</time>
      </trkpt>
      <trkpt lat="49.86842" lon="4.74745">
        <ele>295</ele>
        <time>2022-06-06T09:06:47.000Z</time>
      </trkpt>
      <trkpt lat="49.8684" lon="4.74745">
        <ele>295</ele>
        <time>2022-06-06T09:06:48.000Z</time>
      </trkpt>
      <trkpt lat="49.86838" lon="4.74746">
        <ele>295</ele>
        <time>2022-06-06T09:06:49.000Z</time>
      </trkpt>
      <trkpt lat="49.86835" lon="4.74746">
        <ele>296</ele>
        <time>2022-06-06T09:06:50.000Z</time>
      </trkpt>
      <trkpt lat="49.86833" lon="4.74747">
        <ele>296</ele>
        <time>2022-06-06T09:06:51.000Z</time>
      </trkpt>
      <trkpt lat="49.8683" lon="4.74747">
        <ele>296</ele>
        <time>2022-06-06T09:06:52.000Z</time>
      </trkpt>
      <trkpt lat="49.86827" lon="4.74748">
        <ele>296</ele>
        <time>2022-06-06T09:06:53.000Z</time>
      </trkpt>
      <trkpt lat="49.86824" lon="4.74749">
        <ele>296</ele>
        <time>2022-06-06T09:06:54.000Z</time>
      </trkpt>
      <trkpt lat="49.86821" lon="4.74751">
        <ele>296</ele>
        <time>2022-06-06T09:06:55.000Z</time>
      </trkpt>
      <trkpt lat="49.86818" lon="4.74752">
        <ele>296</ele>
        <time>2022-06-06T09:06:56.000Z</time>
      </trkpt>
      <trkpt lat="49.86815" lon="4.74754">
        <ele>296</ele>
        <time>2022-06-06T09:06:57.000Z</time>
      </trkpt>
      <trkpt lat="49.86812" lon="4.74756">
        <ele>296</ele>
        <time>2022-06-06T09:06:58.000Z</time>
      </trkpt>
      <trkpt lat="49.86809" lon="4.74758">
        <ele>296</ele>
        <time>2022-06-06T09:06:59.000Z</time>
      </trkpt>
      <trkpt lat="49.86806" lon="4.74759">
        <ele>296</ele>
        <time>2022-06-06T09:07:00.000Z</time>
      </trkpt>
      <trkpt lat="49.86803" lon="4.74761">
        <ele>297</ele>
        <time>2022-06-06T09:07:01.000Z</time>
      </trkpt>
      <trkpt lat="49.868" lon="4.74762">
        <ele>297</ele>
        <time>2022-06-06T09:07:02.000Z</time>
      </trkpt>
      <trkpt lat="49.86798" lon="4.74764">
        <ele>297</ele>
        <time>2022-06-06T09:07:03.000Z</time>
      </trkpt>
      <trkpt lat="49.86796" lon="4.74766">
        <ele>297</ele>
        <time>2022-06-06T09:07:04.000Z</time>
      </trkpt>
      <trkpt lat="49.86793" lon="4.74768">
        <ele>297</ele>
        <time>2022-06-06T09:07:05.000Z</time>
      </trkpt>
      <trkpt lat="49.8679" lon="4.74769">
        <ele>297</ele>
        <time>2022-06-06T09:07:06.000Z</time>
      </trkpt>
      <trkpt lat="49.86787" lon="4.7477">
        <ele>297</ele>
        <time>2022-06-06T09:07:07.000Z</time>
      </trkpt>
      <trkpt lat="49.86785" lon="4.74771">
        <ele>297</ele>
        <time>2022-06-06T09:07:08.000Z</time>
      </trkpt>
      <trkpt lat="49.86782" lon="4.74773">
        <ele>297</ele>
        <time>2022-06-06T09:07:09.000Z</time>
      </trkpt>
      <trkpt lat="49.8678" lon="4.74773">
        <ele>298</ele>
        <time>2022-06-06T09:07:10.000Z</time>
      </trkpt>
      <trkpt lat="49.86778" lon="4.74774">
        <ele>298</ele>
        <time>2022-06-06T09:07:11.000Z</time>
      </trkpt>
      <trkpt lat="49.86775" lon="4.74774">
        <ele>298</ele>
        <time>2022-06-06T09:07:12.000Z</time>
      </trkpt>
      <trkpt lat="49.86772" lon="4.74774">
        <ele>298</ele>
        <time>2022-06-06T09:07:13.000Z</time>
      </trkpt>
      <trkpt lat="49.86768" lon="4.74775">
        <ele>298</ele>
        <time>2022-06-06T09:07:14.000Z</time>
      </trkpt>
      <trkpt lat="49.86765" lon="4.74775">
        <ele>298</ele>
        <time>2022-06-06T09:07:15.000Z</time>
      </trkpt>
      <trkpt lat="49.86763" lon="4.74776">
        <ele>299</ele>
        <time>2022-06-06T09:07:16.000Z</time>
      </trkpt>
      <trkpt lat="49.86761" lon="4.74776">
        <ele>299</ele>
        <time>2022-06-06T09:07:17.000Z</time>
      </trkpt>
      <trkpt lat="49.86759" lon="4.74777">
        <ele>299</ele>
        <time>2022-06-06T09:07:18.000Z</time>
      </trkpt>
      <trkpt lat="49.86757" lon="4.74778">
        <ele>299</ele>
        <time>2022-06-06T09:07:19.000Z</time>
      </trkpt>
      <trkpt lat="49.86756" lon="4.74779">
        <ele>299</ele>
        <time>2022-06-06T09:07:20.000Z</time>
      </trkpt>
      <trkpt lat="49.86755" lon="4.74781">
        <ele>299</ele>
        <time>2022-06-06T09:07:21.000Z</time>
      </trkpt>
      <trkpt lat="49.86754" lon="4.74783">
        <ele>299</ele>
        <time>2022-06-06T09:07:22.000Z</time>
      </trkpt>
      <trkpt lat="49.86752" lon="4.74785">
        <ele>300</ele>
        <time>2022-06-06T09:07:23.000Z</time>
      </trkpt>
      <trkpt lat="49.86751" lon="4.74787">
        <ele>300</ele>
        <time>2022-06-06T09:07:24.000Z</time>
      </trkpt>
      <trkpt lat="49.8675" lon="4.74789">
        <ele>300</ele>
        <time>2022-06-06T09:07:25.000Z</time>
      </trkpt>
      <trkpt lat="49.86748" lon="4.7479">
        <ele>300</ele>
        <time>2022-06-06T09:07:26.000Z</time>
      </trkpt>
      <trkpt lat="49.86747" lon="4.7479">
        <ele>300</ele>
        <time>2022-06-06T09:07:27.000Z</time>
      </trkpt>
      <trkpt lat="49.86747" lon="4.7479">
        <ele>300</ele>
        <time>2022-06-06T09:07:28.000Z</time>
      </trkpt>
      <trkpt lat="49.86747" lon="4.74791">
        <ele>300</ele>
        <time>2022-06-06T09:07:29.000Z</time>
      </trkpt>
      <trkpt lat="49.86747" lon="4.74791">
        <ele>301</ele>
        <time>2022-06-06T09:07:30.000Z</time>
      </trkpt>
      <trkpt lat="49.86746" lon="4.74791">
        <ele>301</ele>
        <time>2022-06-06T09:07:31.000Z</time>
      </trkpt>
      <trkpt lat="49.86746" lon="4.74792">
        <ele>301</ele>
        <time>2022-06-06T09:07:32.000Z</time>
      </trkpt>
      <trkpt lat="49.86746" lon="4.74792">
        <ele>301</ele>
        <time>2022-06-06T09:07:33.000Z</time>
      </trkpt>
      <trkpt lat="49.86744" lon="4.74792">
        <ele>301</ele>
        <time>2022-06-06T09:07:34.000Z</time>
      </trkpt>
      <trkpt lat="49.86743" lon="4.74791">
        <ele>302</ele>
        <time>2022-06-06T09:07:35.000Z</time>
      </trkpt>
      <trkpt lat="49.86741" lon="4.7479">
        <ele>302</ele>
        <time>2022-06-06T09:07:36.000Z</time>
      </trkpt>
      <trkpt lat="49.8674" lon="4.7479">
        <ele>302</ele>
        <time>2022-06-06T09:07:37.000Z</time>
      </trkpt>
      <trkpt lat="49.86738" lon="4.7479">
        <ele>302</ele>
        <time>2022-06-06T09:07:38.000Z</time>
      </trkpt>
      <trkpt lat="49.86738" lon="4.7479">
        <ele>302</ele>
        <time>2022-06-06T09:07:39.000Z</time>
      </trkpt>
      <trkpt lat="49.86737" lon="4.7479">
        <ele>302</ele>
        <time>2022-06-06T09:07:40.000Z</time>
      </trkpt>
      <trkpt lat="49.86737" lon="4.7479">
        <ele>303</ele>
        <time>2022-06-06T09:07:41.000Z</time>
      </trkpt>
      <trkpt lat="49.86737" lon="4.7479">
        <ele>303</ele>
        <time>2022-06-06T09:07:42.000Z</time>
      </trkpt>
      <trkpt lat="49.86738" lon="4.7479">
        <ele>303</ele>
        <time>2022-06-06T09:07:43.000Z</time>
      </trkpt>
      <trkpt lat="49.86738" lon="4.7479">
        <ele>303</ele>
        <time>2022-06-06T09:07:44.000Z</time>
      </trkpt>
      <trkpt lat="49.86738" lon="4.74791">
        <ele>303</ele>
        <time>2022-06-06T09:07:45.000Z</time>
      </trkpt>
      <trkpt lat="49.86739" lon="4.74791">
        <ele>304</ele>
        <time>2022-06-06T09:07:46.000Z</time>
      </trkpt>
      <trkpt lat="49.8674" lon="4.74792">
        <ele>304</ele>
        <time>2022-06-06T09:07:47.000Z</time>
      </trkpt>
      <trkpt lat="49.86742" lon="4.74793">
        <ele>304</ele>
        <time>2022-06-06T09:07:48.000Z</time>
      </trkpt>
      <trkpt lat="49.86744" lon="4.74795">
        <ele>304</ele>
        <time>2022-06-06T09:07:49.000Z</time>
      </trkpt>
      <trkpt lat="49.86745" lon="4.74798">
        <ele>304</ele>
        <time>2022-06-06T09:07:50.000Z</time>
      </trkpt>
      <trkpt lat="49.86747" lon="4.748">
        <ele>305</ele>
        <time>2022-06-06T09:07:51.000Z</time>
      </trkpt>
      <trkpt lat="49.86747" lon="4.748">
        <ele>305</ele>
        <time>2022-06-06T09:07:52.000Z</time>
      </trkpt>
      <trkpt lat="49.86747" lon="4.74801">
        <ele>305</ele>
        <time>2022-06-06T09:07:53.000Z</time>
      </trkpt>
      <trkpt lat="49.86748" lon="4.74801">
        <ele>305</ele>
        <time>2022-06-06T09:07:54.000Z</time>
      </trkpt>
      <trkpt lat="49.86748" lon="4.74801">
        <ele>305</ele>
        <time>2022-06-06T09:07:55.000Z</time>
      </trkpt>
      <trkpt lat="49.86748" lon="4.74802">
        <ele>305</ele>
        <time>2022-06-06T09:07:56.000Z</time>
      </trkpt>
      <trkpt lat="49.86748" lon="4.74802">
        <ele>305</ele>
        <time>2022-06-06T09:07:57.000Z</time>
      </trkpt>
      <trkpt lat="49.86748" lon="4.74802">
        <ele>306</ele>
        <time>2022-06-06T09:07:58.000Z</time>
      </trkpt>
      <trkpt lat="49.86748" lon="4.74802">
        <ele>306</ele>
        <time>2022-06-06T09:07:59.000Z</time>
      </trkpt>
      <trkpt lat="49.86748" lon="4.74802">
        <ele>306</ele>
        <time>2022-06-06T09:08:00.000Z</time>
      </trkpt>
      <trkpt lat="49.86748" lon="4.74801">
        <ele>306</ele>
        <time>2022-06-06T09:08:01.000Z</time>
      </trkpt>
      <trkpt lat="49.86748" lon="4.74801">
        <ele>306</ele>
        <time>2022-06-06T09:08:02.000Z</time>
      </trkpt>
      <trkpt lat="49.86747" lon="4.74801">
        <ele>305</ele>
        <time>2022-06-06T09:08:03.000Z</time>
      </trkpt>
      <trkpt lat="49.86747" lon="4.74801">
        <ele>305</ele>
        <time>2022-06-06T09:08:04.000Z</time>
      </trkpt>
      <trkpt lat="49.86747" lon="4.74801">
        <ele>305</ele>
        <time>2022-06-06T09:08:05.000Z</time>
      </trkpt>
      <trkpt lat="49.86746" lon="4.748">
        <ele>305</ele>
        <time>2022-06-06T09:08:06.000Z</time>
      </trkpt>
      <trkpt lat="49.86745" lon="4.74799">
        <ele>305</ele>
        <time>2022-06-06T09:08:07.000Z</time>
      </trkpt>
      <trkpt lat="49.86745" lon="4.74797">
        <ele>305</ele>
        <time>2022-06-06T09:08:08.000Z</time>
      </trkpt>
      <trkpt lat="49.86744" lon="4.74796">
        <ele>304</ele>
        <time>2022-06-06T09:08:09.000Z</time>
      </trkpt>
      <trkpt lat="49.86743" lon="4.74794">
        <ele>304</ele>
        <time>2022-06-06T09:08:10.000Z</time>
      </trkpt>
      <trkpt lat="49.86742" lon="4.74793">
        <ele>304</ele>
        <time>2022-06-06T09:08:11.000Z</time>
      </trkpt>
      <trkpt lat="49.86741" lon="4.74791">
        <ele>304</ele>
        <time>2022-06-06T09:08:12.000Z</time>
      </trkpt>
      <trkpt lat="49.8674" lon="4.74791">
        <ele>304</ele>
        <time>2022-06-06T09:08:13.000Z</time>
      </trkpt>
      <trkpt lat="49.8674" lon="4.74791">
        <ele>304</ele>
        <time>2022-06-06T09:08:14.000Z</time>
      </trkpt>
      <trkpt lat="49.8674" lon="4.74791">
        <ele>304</ele>
        <time>2022-06-06T09:08:15.000Z</time>
      </trkpt>
      <trkpt lat="49.8674" lon="4.74791">
        <ele>304</ele>
        <time>2022-06-06T09:08:16.000Z</time>
      </trkpt>
      <trkpt lat="49.8674" lon="4.74791">
        <ele>304</ele>
        <time>2022-06-06T09:08:17.000Z</time>
      </trkpt>
      <trkpt lat="49.8674" lon="4.74792">
        <ele>304</ele>
        <time>2022-06-06T09:08:18.000Z</time>
      </trkpt>
      <trkpt lat="49.86741" lon="4.74792">
        <ele>304</ele>
        <time>2022-06-06T09:08:19.000Z</time>
      </trkpt>
      <trkpt lat="49.86742" lon="4.74794">
        <ele>304</ele>
        <time>2022-06-06T09:08:20.000Z</time>
      </trkpt>
      <trkpt lat="49.86743" lon="4.74795">
        <ele>304</ele>
        <time>2022-06-06T09:08:21.000Z</time>
      </trkpt>
      <trkpt lat="49.86745" lon="4.74798">
        <ele>304</ele>
        <time>2022-06-06T09:08:22.000Z</time>
      </trkpt>
      <trkpt lat="49.86746" lon="4.74801">
        <ele>304</ele>
        <time>2022-06-06T09:08:23.000Z</time>
      </trkpt>
      <trkpt lat="49.86747" lon="4.74802">
        <ele>304</ele>
        <time>2022-06-06T09:08:24.000Z</time>
      </trkpt>
      <trkpt lat="49.86747" lon="4.74802">
        <ele>304</ele>
        <time>2022-06-06T09:08:25.000Z</time>
      </trkpt>
      <trkpt lat="49.86747" lon="4.74802">
        <ele>304</ele>
        <time>2022-06-06T09:08:26.000Z</time>
      </trkpt>
      <trkpt lat="49.86748" lon="4.74802">
        <ele>304</ele>
        <time>2022-06-06T09:08:27.000Z</time>
      </trkpt>
      <trkpt lat="49.86748" lon="4.74803">
        <ele>304</ele>
        <time>2022-06-06T09:08:28.000Z</time>
      </trkpt>
      <trkpt lat="49.86748" lon="4.74803">
        <ele>304</ele>
        <time>2022-06-06T09:08:29.000Z</time>
      </trkpt>
      <trkpt lat="49.86748" lon="4.74803">
        <ele>305</ele>
        <time>2022-06-06T09:08:30.000Z</time>
      </trkpt>
      <trkpt lat="49.86749" lon="4.74803">
        <ele>305</ele>
        <time>2022-06-06T09:08:31.000Z</time>
      </trkpt>
      <trkpt lat="49.86749" lon="4.74804">
        <ele>305</ele>
        <time>2022-06-06T09:08:32.000Z</time>
      </trkpt>
      <trkpt lat="49.86749" lon="4.74804">
        <ele>305</ele>
        <time>2022-06-06T09:08:33.000Z</time>
      </trkpt>
      <trkpt lat="49.86749" lon="4.74805">
        <ele>305</ele>
        <time>2022-06-06T09:08:34.000Z</time>
      </trkpt>
      <trkpt lat="49.8675" lon="4.74805">
        <ele>305</ele>
        <time>2022-06-06T09:08:35.000Z</time>
      </trkpt>
      <trkpt lat="49.86751" lon="4.74806">
        <ele>305</ele>
        <time>2022-06-06T09:08:36.000Z</time>
      </trkpt>
      <trkpt lat="49.86752" lon="4.74807">
        <ele>305</ele>
        <time>2022-06-06T09:08:37.000Z</time>
      </trkpt>
      <trkpt lat="49.86752" lon="4.74808">
        <ele>305</ele>
        <time>2022-06-06T09:08:38.000Z</time>
      </trkpt>
      <trkpt lat="49.86753" lon="4.74809">
        <ele>306</ele>
        <time>2022-06-06T09:08:39.000Z</time>
      </trkpt>
      <trkpt lat="49.86754" lon="4.7481">
        <ele>306</ele>
        <time>2022-06-06T09:08:40.000Z</time>
      </trkpt>
      <trkpt lat="49.86756" lon="4.74811">
        <ele>306</ele>
        <time>2022-06-06T09:08:41.000Z</time>
      </trkpt>
      <trkpt lat="49.86757" lon="4.74812">
        <ele>306</ele>
        <time>2022-06-06T09:08:42.000Z</time>
      </trkpt>
      <trkpt lat="49.86759" lon="4.74814">
        <ele>306</ele>
        <time>2022-06-06T09:08:43.000Z</time>
      </trkpt>
      <trkpt lat="49.8676" lon="4.74815">
        <ele>306</ele>
        <time>2022-06-06T09:08:44.000Z</time>
      </trkpt>
      <trkpt lat="49.86762" lon="4.74816">
        <ele>306</ele>
        <time>2022-06-06T09:08:45.000Z</time>
      </trkpt>
      <trkpt lat="49.86763" lon="4.74818">
        <ele>306</ele>
        <time>2022-06-06T09:08:46.000Z</time>
      </trkpt>
      <trkpt lat="49.86764" lon="4.74819">
        <ele>306</ele>
        <time>2022-06-06T09:08:47.000Z</time>
      </trkpt>
      <trkpt lat="49.86765" lon="4.74821">
        <ele>306</ele>
        <time>2022-06-06T09:08:48.000Z</time>
      </trkpt>
      <trkpt lat="49.86766" lon="4.74822">
        <ele>306</ele>
        <time>2022-06-06T09:08:49.000Z</time>
      </trkpt>
      <trkpt lat="49.86767" lon="4.74823">
        <ele>307</ele>
        <time>2022-06-06T09:08:50.000Z</time>
      </trkpt>
      <trkpt lat="49.86769" lon="4.74824">
        <ele>307</ele>
        <time>2022-06-06T09:08:51.000Z</time>
      </trkpt>
      <trkpt lat="49.8677" lon="4.74826">
        <ele>307</ele>
        <time>2022-06-06T09:08:52.000Z</time>
      </trkpt>
      <trkpt lat="49.86771" lon="4.74827">
        <ele>307</ele>
        <time>2022-06-06T09:08:53.000Z</time>
      </trkpt>
      <trkpt lat="49.86771" lon="4.74829">
        <ele>307</ele>
        <time>2022-06-06T09:08:54.000Z</time>
      </trkpt>
      <trkpt lat="49.86772" lon="4.7483">
        <ele>307</ele>
        <time>2022-06-06T09:08:55.000Z</time>
      </trkpt>
      <trkpt lat="49.86773" lon="4.74832">
        <ele>307</ele>
        <time>2022-06-06T09:08:56.000Z</time>
      </trkpt>
      <trkpt lat="49.86774" lon="4.74834">
        <ele>307</ele>
        <time>2022-06-06T09:08:57.000Z</time>
      </trkpt>
      <trkpt lat="49.86775" lon="4.74835">
        <ele>307</ele>
        <time>2022-06-06T09:08:58.000Z</time>
      </trkpt>
      <trkpt lat="49.86776" lon="4.74837">
        <ele>307</ele>
        <time>2022-06-06T09:08:59.000Z</time>
      </trkpt>
      <trkpt lat="49.86777" lon="4.74838">
        <ele>308</ele>
        <time>2022-06-06T09:09:00.000Z</time>
      </trkpt>
      <trkpt lat="49.86779" lon="4.74839">
        <ele>308</ele>
        <time>2022-06-06T09:09:01.000Z</time>
      </trkpt>
      <trkpt lat="49.8678" lon="4.7484">
        <ele>308</ele>
        <time>2022-06-06T09:09:02.000Z</time>
      </trkpt>
      <trkpt lat="49.86781" lon="4.7484">
        <ele>308</ele>
        <time>2022-06-06T09:09:03.000Z</time>
      </trkpt>
      <trkpt lat="49.86782" lon="4.7484">
        <ele>308</ele>
        <time>2022-06-06T09:09:04.000Z</time>
      </trkpt>
      <trkpt lat="49.86783" lon="4.74841">
        <ele>308</ele>
        <time>2022-06-06T09:09:05.000Z</time>
      </trkpt>
      <trkpt lat="49.86785" lon="4.74843">
        <ele>308</ele>
        <time>2022-06-06T09:09:06.000Z</time>
      </trkpt>
      <trkpt lat="49.86786" lon="4.74844">
        <ele>308</ele>
        <time>2022-06-06T09:09:07.000Z</time>
      </trkpt>
      <trkpt lat="49.86787" lon="4.74845">
        <ele>309</ele>
        <time>2022-06-06T09:09:08.000Z</time>
      </trkpt>
      <trkpt lat="49.86789" lon="4.74847">
        <ele>309</ele>
        <time>2022-06-06T09:09:09.000Z</time>
      </trkpt>
      <trkpt lat="49.8679" lon="4.74849">
        <ele>309</ele>
        <time>2022-06-06T09:09:10.000Z</time>
      </trkpt>
      <trkpt lat="49.86791" lon="4.7485">
        <ele>309</ele>
        <time>2022-06-06T09:09:11.000Z</time>
      </trkpt>
      <trkpt lat="49.86792" lon="4.74852">
        <ele>309</ele>
        <time>2022-06-06T09:09:12.000Z</time>
      </trkpt>
      <trkpt lat="49.86793" lon="4.74855">
        <ele>309</ele>
        <time>2022-06-06T09:09:13.000Z</time>
      </trkpt>
      <trkpt lat="49.86794" lon="4.74857">
        <ele>309</ele>
        <time>2022-06-06T09:09:14.000Z</time>
      </trkpt>
      <trkpt lat="49.86796" lon="4.74859">
        <ele>310</ele>
        <time>2022-06-06T09:09:15.000Z</time>
      </trkpt>
      <trkpt lat="49.86797" lon="4.74862">
        <ele>310</ele>
        <time>2022-06-06T09:09:16.000Z</time>
      </trkpt>
      <trkpt lat="49.86798" lon="4.74865">
        <ele>310</ele>
        <time>2022-06-06T09:09:17.000Z</time>
      </trkpt>
      <trkpt lat="49.86798" lon="4.74868">
        <ele>310</ele>
        <time>2022-06-06T09:09:18.000Z</time>
      </trkpt>
      <trkpt lat="49.86799" lon="4.74871">
        <ele>310</ele>
        <time>2022-06-06T09:09:19.000Z</time>
      </trkpt>
      <trkpt lat="49.868" lon="4.74873">
        <ele>311</ele>
        <time>2022-06-06T09:09:20.000Z</time>
      </trkpt>
      <trkpt lat="49.86802" lon="4.74876">
        <ele>311</ele>
        <time>2022-06-06T09:09:21.000Z</time>
      </trkpt>
      <trkpt lat="49.86803" lon="4.74878">
        <ele>311</ele>
        <time>2022-06-06T09:09:22.000Z</time>
      </trkpt>
      <trkpt lat="49.86805" lon="4.74879">
        <ele>311</ele>
        <time>2022-06-06T09:09:23.000Z</time>
      </trkpt>
      <trkpt lat="49.86806" lon="4.7488">
        <ele>311</ele>
        <time>2022-06-06T09:09:24.000Z</time>
      </trkpt>
      <trkpt lat="49.86808" lon="4.74882">
        <ele>312</ele>
        <time>2022-06-06T09:09:25.000Z</time>
      </trkpt>
      <trkpt lat="49.86809" lon="4.74883">
        <ele>312</ele>
        <time>2022-06-06T09:09:26.000Z</time>
      </trkpt>
      <trkpt lat="49.86811" lon="4.74884">
        <ele>312</ele>
        <time>2022-06-06T09:09:27.000Z</time>
      </trkpt>
      <trkpt lat="49.86812" lon="4.74885">
        <ele>312</ele>
        <time>2022-06-06T09:09:28.000Z</time>
      </trkpt>
      <trkpt lat="49.86812" lon="4.74885">
        <ele>313</ele>
        <time>2022-06-06T09:09:29.000Z</time>
      </trkpt>
      <trkpt lat="49.86812" lon="4.74885">
        <ele>313</ele>
        <time>2022-06-06T09:09:30.000Z</time>
      </trkpt>
      <trkpt lat="49.86813" lon="4.74885">
        <ele>313</ele>
        <time>2022-06-06T09:09:31.000Z</time>
      </trkpt>
      <trkpt lat="49.86813" lon="4.74885">
        <ele>313</ele>
        <time>2022-06-06T09:09:32.000Z</time>
      </trkpt>
      <trkpt lat="49.86813" lon="4.74886">
        <ele>314</ele>
        <time>2022-06-06T09:09:33.000Z</time>
      </trkpt>
      <trkpt lat="49.86813" lon="4.74885">
        <ele>314</ele>
        <time>2022-06-06T09:09:34.000Z</time>
      </trkpt>
      <trkpt lat="49.86813" lon="4.74886">
        <ele>314</ele>
        <time>2022-06-06T09:09:35.000Z</time>
      </trkpt>
      <trkpt lat="49.86813" lon="4.74886">
        <ele>314</ele>
        <time>2022-06-06T09:09:36.000Z</time>
      </trkpt>
      <trkpt lat="49.86813" lon="4.74886">
        <ele>314</ele>
        <time>2022-06-06T09:09:37.000Z</time>
      </trkpt>
      <trkpt lat="49.86813" lon="4.74886">
        <ele>314</ele>
        <time>2022-06-06T09:09:38.000Z</time>
      </trkpt>
      <trkpt lat="49.86813" lon="4.74886">
        <ele>314</ele>
        <time>2022-06-06T09:09:39.000Z</time>
      </trkpt>
      <trkpt lat="49.86813" lon="4.74886">
        <ele>314</ele>
        <time>2022-06-06T09:09:40.000Z</time>
      </trkpt>
      <trkpt lat="49.86813" lon="4.74886">
        <ele>315</ele>
        <time>2022-06-06T09:09:41.000Z</time>
      </trkpt>
      <trkpt lat="49.86813" lon="4.74886">
        <ele>315</ele>
        <time>2022-06-06T09:09:42.000Z</time>
      </trkpt>
      <trkpt lat="49.86813" lon="4.74886">
        <ele>315</ele>
        <time>2022-06-06T09:09:43.000Z</time>
      </trkpt>
      <trkpt lat="49.86813" lon="4.74886">
        <ele>315</ele>
        <time>2022-06-06T09:09:44.000Z</time>
      </trkpt>
      <trkpt lat="49.86813" lon="4.74886">
        <ele>315</ele>
        <time>2022-06-06T09:09:45.000Z</time>
      </trkpt>
      <trkpt lat="49.86813" lon="4.74886">
        <ele>315</ele>
        <time>2022-06-06T09:09:46.000Z</time>
      </trkpt>
      <trkpt lat="49.86813" lon="4.74886">
        <ele>315</ele>
        <time>2022-06-06T09:09:47.000Z</time>
      </trkpt>
      <trkpt lat="49.86813" lon="4.74886">
        <ele>315</ele>
        <time>2022-06-06T09:09:48.000Z</time>
      </trkpt>
      <trkpt lat="49.86813" lon="4.74886">
        <ele>315</ele>
        <time>2022-06-06T09:09:49.000Z</time>
      </trkpt>
      <trkpt lat="49.86813" lon="4.74886">
        <ele>315</ele>
        <time>2022-06-06T09:09:50.000Z</time>
      </trkpt>
      <trkpt lat="49.86813" lon="4.74886">
        <ele>315</ele>
        <time>2022-06-06T09:09:51.000Z</time>
      </trkpt>
      <trkpt lat="49.86813" lon="4.74886">
        <ele>315</ele>
        <time>2022-06-06T09:09:52.000Z</time>
      </trkpt>
      <trkpt lat="49.86812" lon="4.74886">
        <ele>315</ele>
        <time>2022-06-06T09:09:53.000Z</time>
      </trkpt>
      <trkpt lat="49.86812" lon="4.74886">
        <ele>315</ele>
        <time>2022-06-06T09:09:54.000Z</time>
      </trkpt>
      <trkpt lat="49.86812" lon="4.74886">
        <ele>315</ele>
        <time>2022-06-06T09:09:55.000Z</time>
      </trkpt>
      <trkpt lat="49.86812" lon="4.74886">
        <ele>315</ele>
        <time>2022-06-06T09:09:56.000Z</time>
      </trkpt>
      <trkpt lat="49.86812" lon="4.74886">
        <ele>315</ele>
        <time>2022-06-06T09:09:57.000Z</time>
      </trkpt>
      <trkpt lat="49.86812" lon="4.74886">
        <ele>315</ele>
        <time>2022-06-06T09:09:58.000Z</time>
      </trkpt>
      <trkpt lat="49.86812" lon="4.74886">
        <ele>315</ele>
        <time>2022-06-06T09:09:59.000Z</time>
      </trkpt>
      <trkpt lat="49.86812" lon="4.74886">
        <ele>315</ele>
        <time>2022-06-06T09:10:00.000Z</time>
      </trkpt>
      <trkpt lat="49.86812" lon="4.74886">
        <ele>315</ele>
        <time>2022-06-06T09:10:01.000Z</time>
      </trkpt>
      <trkpt lat="49.86812" lon="4.74886">
        <ele>315</ele>
        <time>2022-06-06T09:10:02.000Z</time>
      </trkpt>
      <trkpt lat="49.86812" lon="4.74886">
        <ele>315</ele>
        <time>2022-06-06T09:10:03.000Z</time>
      </trkpt>
      <trkpt lat="49.86812" lon="4.74886">
        <ele>315</ele>
        <time>2022-06-06T09:10:04.000Z</time>
      </trkpt>
      <trkpt lat="49.86812" lon="4.74885">
        <ele>315</ele>
        <time>2022-06-06T09:10:05.000Z</time>
      </trkpt>
      <trkpt lat="49.86812" lon="4.74885">
        <ele>315</ele>
        <time>2022-06-06T09:10:06.000Z</time>
      </trkpt>
      <trkpt lat="49.86812" lon="4.74885">
        <ele>315</ele>
        <time>2022-06-06T09:10:07.000Z</time>
      </trkpt>
      <trkpt lat="49.86813" lon="4.74885">
        <ele>315</ele>
        <time>2022-06-06T09:10:08.000Z</time>
      </trkpt>
      <trkpt lat="49.86815" lon="4.74886">
        <ele>316</ele>
        <time>2022-06-06T09:10:09.000Z</time>
      </trkpt>
      <trkpt lat="49.86816" lon="4.74887">
        <ele>316</ele>
        <time>2022-06-06T09:10:10.000Z</time>
      </trkpt>
      <trkpt lat="49.86817" lon="4.74888">
        <ele>316</ele>
        <time>2022-06-06T09:10:11.000Z</time>
      </trkpt>
      <trkpt lat="49.86818" lon="4.74889">
        <ele>316</ele>
        <time>2022-06-06T09:10:12.000Z</time>
      </trkpt>
      <trkpt lat="49.8682" lon="4.7489">
        <ele>316</ele>
        <time>2022-06-06T09:10:13.000Z</time>
      </trkpt>
      <trkpt lat="49.86821" lon="4.74892">
        <ele>316</ele>
        <time>2022-06-06T09:10:14.000Z</time>
      </trkpt>
      <trkpt lat="49.86822" lon="4.74893">
        <ele>316</ele>
        <time>2022-06-06T09:10:15.000Z</time>
      </trkpt>
      <trkpt lat="49.86823" lon="4.74894">
        <ele>317</ele>
        <time>2022-06-06T09:10:16.000Z</time>
      </trkpt>
      <trkpt lat="49.86825" lon="4.74895">
        <ele>317</ele>
        <time>2022-06-06T09:10:17.000Z</time>
      </trkpt>
      <trkpt lat="49.86826" lon="4.74896">
        <ele>317</ele>
        <time>2022-06-06T09:10:18.000Z</time>
      </trkpt>
      <trkpt lat="49.86827" lon="4.74897">
        <ele>317</ele>
        <time>2022-06-06T09:10:19.000Z</time>
      </trkpt>
      <trkpt lat="49.86829" lon="4.74898">
        <ele>317</ele>
        <time>2022-06-06T09:10:20.000Z</time>
      </trkpt>
      <trkpt lat="49.8683" lon="4.74899">
        <ele>317</ele>
        <time>2022-06-06T09:10:21.000Z</time>
      </trkpt>
      <trkpt lat="49.86832" lon="4.74901">
        <ele>318</ele>
        <time>2022-06-06T09:10:22.000Z</time>
      </trkpt>
      <trkpt lat="49.86833" lon="4.74902">
        <ele>318</ele>
        <time>2022-06-06T09:10:23.000Z</time>
      </trkpt>
      <trkpt lat="49.86835" lon="4.74903">
        <ele>318</ele>
        <time>2022-06-06T09:10:24.000Z</time>
      </trkpt>
      <trkpt lat="49.86836" lon="4.74905">
        <ele>318</ele>
        <time>2022-06-06T09:10:25.000Z</time>
      </trkpt>
      <trkpt lat="49.86838" lon="4.74907">
        <ele>318</ele>
        <time>2022-06-06T09:10:26.000Z</time>
      </trkpt>
      <trkpt lat="49.86839" lon="4.74909">
        <ele>318</ele>
        <time>2022-06-06T09:10:27.000Z</time>
      </trkpt>
      <trkpt lat="49.86841" lon="4.74912">
        <ele>318</ele>
        <time>2022-06-06T09:10:28.000Z</time>
      </trkpt>
      <trkpt lat="49.86842" lon="4.74914">
        <ele>318</ele>
        <time>2022-06-06T09:10:29.000Z</time>
      </trkpt>
      <trkpt lat="49.86844" lon="4.74917">
        <ele>319</ele>
        <time>2022-06-06T09:10:30.000Z</time>
      </trkpt>
      <trkpt lat="49.86845" lon="4.7492">
        <ele>319</ele>
        <time>2022-06-06T09:10:31.000Z</time>
      </trkpt>
      <trkpt lat="49.86846" lon="4.74923">
        <ele>319</ele>
        <time>2022-06-06T09:10:32.000Z</time>
      </trkpt>
      <trkpt lat="49.86846" lon="4.74925">
        <ele>319</ele>
        <time>2022-06-06T09:10:33.000Z</time>
      </trkpt>
      <trkpt lat="49.86847" lon="4.74927">
        <ele>319</ele>
        <time>2022-06-06T09:10:34.000Z</time>
      </trkpt>
      <trkpt lat="49.86848" lon="4.74928">
        <ele>319</ele>
        <time>2022-06-06T09:10:35.000Z</time>
      </trkpt>
      <trkpt lat="49.8685" lon="4.7493">
        <ele>320</ele>
        <time>2022-06-06T09:10:36.000Z</time>
      </trkpt>
      <trkpt lat="49.86851" lon="4.74932">
        <ele>320</ele>
        <time>2022-06-06T09:10:37.000Z</time>
      </trkpt>
      <trkpt lat="49.86853" lon="4.74934">
        <ele>320</ele>
        <time>2022-06-06T09:10:38.000Z</time>
      </trkpt>
      <trkpt lat="49.86853" lon="4.74935">
        <ele>320</ele>
        <time>2022-06-06T09:10:39.000Z</time>
      </trkpt>
      <trkpt lat="49.86853" lon="4.74938">
        <ele>321</ele>
        <time>2022-06-06T09:10:40.000Z</time>
      </trkpt>
      <trkpt lat="49.86854" lon="4.7494">
        <ele>321</ele>
        <time>2022-06-06T09:10:41.000Z</time>
      </trkpt>
      <trkpt lat="49.86855" lon="4.74941">
        <ele>321</ele>
        <time>2022-06-06T09:10:42.000Z</time>
      </trkpt>
      <trkpt lat="49.86856" lon="4.74943">
        <ele>322</ele>
        <time>2022-06-06T09:10:43.000Z</time>
      </trkpt>
      <trkpt lat="49.86856" lon="4.74945">
        <ele>322</ele>
        <time>2022-06-06T09:10:44.000Z</time>
      </trkpt>
      <trkpt lat="49.86857" lon="4.74946">
        <ele>322</ele>
        <time>2022-06-06T09:10:45.000Z</time>
      </trkpt>
      <trkpt lat="49.86857" lon="4.74948">
        <ele>322</ele>
        <time>2022-06-06T09:10:46.000Z</time>
      </trkpt>
      <trkpt lat="49.86857" lon="4.74949">
        <ele>323</ele>
        <time>2022-06-06T09:10:47.000Z</time>
      </trkpt>
      <trkpt lat="49.86857" lon="4.74952">
        <ele>323</ele>
        <time>2022-06-06T09:10:48.000Z</time>
      </trkpt>
      <trkpt lat="49.86857" lon="4.74954">
        <ele>323</ele>
        <time>2022-06-06T09:10:49.000Z</time>
      </trkpt>
      <trkpt lat="49.86858" lon="4.74956">
        <ele>323</ele>
        <time>2022-06-06T09:10:50.000Z</time>
      </trkpt>
      <trkpt lat="49.86858" lon="4.74958">
        <ele>323</ele>
        <time>2022-06-06T09:10:51.000Z</time>
      </trkpt>
      <trkpt lat="49.86858" lon="4.7496">
        <ele>324</ele>
        <time>2022-06-06T09:10:52.000Z</time>
      </trkpt>
      <trkpt lat="49.86858" lon="4.74962">
        <ele>324</ele>
        <time>2022-06-06T09:10:53.000Z</time>
      </trkpt>
      <trkpt lat="49.86858" lon="4.74964">
        <ele>324</ele>
        <time>2022-06-06T09:10:54.000Z</time>
      </trkpt>
      <trkpt lat="49.86858" lon="4.74966">
        <ele>324</ele>
        <time>2022-06-06T09:10:55.000Z</time>
      </trkpt>
      <trkpt lat="49.86857" lon="4.74968">
        <ele>324</ele>
        <time>2022-06-06T09:10:56.000Z</time>
      </trkpt>
      <trkpt lat="49.86857" lon="4.74971">
        <ele>324</ele>
        <time>2022-06-06T09:10:57.000Z</time>
      </trkpt>
      <trkpt lat="49.86858" lon="4.74974">
        <ele>325</ele>
        <time>2022-06-06T09:10:58.000Z</time>
      </trkpt>
      <trkpt lat="49.86859" lon="4.74976">
        <ele>325</ele>
        <time>2022-06-06T09:10:59.000Z</time>
      </trkpt>
      <trkpt lat="49.8686" lon="4.74978">
        <ele>325</ele>
        <time>2022-06-06T09:11:00.000Z</time>
      </trkpt>
      <trkpt lat="49.86861" lon="4.74979">
        <ele>325</ele>
        <time>2022-06-06T09:11:01.000Z</time>
      </trkpt>
      <trkpt lat="49.86862" lon="4.74982">
        <ele>325</ele>
        <time>2022-06-06T09:11:02.000Z</time>
      </trkpt>
      <trkpt lat="49.86863" lon="4.74984">
        <ele>325</ele>
        <time>2022-06-06T09:11:03.000Z</time>
      </trkpt>
      <trkpt lat="49.86865" lon="4.74985">
        <ele>326</ele>
        <time>2022-06-06T09:11:04.000Z</time>
      </trkpt>
      <trkpt lat="49.86866" lon="4.74988">
        <ele>326</ele>
        <time>2022-06-06T09:11:05.000Z</time>
      </trkpt>
      <trkpt lat="49.86867" lon="4.7499">
        <ele>326</ele>
        <time>2022-06-06T09:11:06.000Z</time>
      </trkpt>
      <trkpt lat="49.86868" lon="4.74993">
        <ele>326</ele>
        <time>2022-06-06T09:11:07.000Z</time>
      </trkpt>
      <trkpt lat="49.8687" lon="4.74996">
        <ele>326</ele>
        <time>2022-06-06T09:11:08.000Z</time>
      </trkpt>
      <trkpt lat="49.86871" lon="4.74998">
        <ele>327</ele>
        <time>2022-06-06T09:11:09.000Z</time>
      </trkpt>
      <trkpt lat="49.86872" lon="4.75001">
        <ele>327</ele>
        <time>2022-06-06T09:11:10.000Z</time>
      </trkpt>
      <trkpt lat="49.86873" lon="4.75003">
        <ele>327</ele>
        <time>2022-06-06T09:11:11.000Z</time>
      </trkpt>
      <trkpt lat="49.86874" lon="4.75005">
        <ele>328</ele>
        <time>2022-06-06T09:11:12.000Z</time>
      </trkpt>
      <trkpt lat="49.86875" lon="4.75007">
        <ele>328</ele>
        <time>2022-06-06T09:11:13.000Z</time>
      </trkpt>
      <trkpt lat="49.86876" lon="4.75009">
        <ele>328</ele>
        <time>2022-06-06T09:11:14.000Z</time>
      </trkpt>
      <trkpt lat="49.86877" lon="4.75012">
        <ele>328</ele>
        <time>2022-06-06T09:11:15.000Z</time>
      </trkpt>
      <trkpt lat="49.86878" lon="4.75014">
        <ele>329</ele>
        <time>2022-06-06T09:11:16.000Z</time>
      </trkpt>
      <trkpt lat="49.86879" lon="4.75016">
        <ele>329</ele>
        <time>2022-06-06T09:11:17.000Z</time>
      </trkpt>
      <trkpt lat="49.8688" lon="4.75017">
        <ele>329</ele>
        <time>2022-06-06T09:11:18.000Z</time>
      </trkpt>
      <trkpt lat="49.86879" lon="4.75017">
        <ele>329</ele>
        <time>2022-06-06T09:11:19.000Z</time>
      </trkpt>
      <trkpt lat="49.8688" lon="4.75017">
        <ele>330</ele>
        <time>2022-06-06T09:11:20.000Z</time>
      </trkpt>
      <trkpt lat="49.8688" lon="4.75018">
        <ele>330</ele>
        <time>2022-06-06T09:11:21.000Z</time>
      </trkpt>
      <trkpt lat="49.8688" lon="4.75018">
        <ele>330</ele>
        <time>2022-06-06T09:11:22.000Z</time>
      </trkpt>
      <trkpt lat="49.86881" lon="4.75019">
        <ele>330</ele>
        <time>2022-06-06T09:11:23.000Z</time>
      </trkpt>
      <trkpt lat="49.86881" lon="4.75019">
        <ele>330</ele>
        <time>2022-06-06T09:11:24.000Z</time>
      </trkpt>
      <trkpt lat="49.86881" lon="4.75019">
        <ele>331</ele>
        <time>2022-06-06T09:11:25.000Z</time>
      </trkpt>
      <trkpt lat="49.86882" lon="4.75019">
        <ele>331</ele>
        <time>2022-06-06T09:11:26.000Z</time>
      </trkpt>
      <trkpt lat="49.86882" lon="4.75019">
        <ele>331</ele>
        <time>2022-06-06T09:11:27.000Z</time>
      </trkpt>
      <trkpt lat="49.86882" lon="4.7502">
        <ele>331</ele>
        <time>2022-06-06T09:11:28.000Z</time>
      </trkpt>
      <trkpt lat="49.86882" lon="4.75021">
        <ele>331</ele>
        <time>2022-06-06T09:11:29.000Z</time>
      </trkpt>
      <trkpt lat="49.86882" lon="4.75021">
        <ele>331</ele>
        <time>2022-06-06T09:11:30.000Z</time>
      </trkpt>
      <trkpt lat="49.86883" lon="4.75021">
        <ele>332</ele>
        <time>2022-06-06T09:11:31.000Z</time>
      </trkpt>
      <trkpt lat="49.86883" lon="4.75021">
        <ele>332</ele>
        <time>2022-06-06T09:11:32.000Z</time>
      </trkpt>
      <trkpt lat="49.86884" lon="4.75021">
        <ele>332</ele>
        <time>2022-06-06T09:11:33.000Z</time>
      </trkpt>
      <trkpt lat="49.86884" lon="4.75021">
        <ele>332</ele>
        <time>2022-06-06T09:11:34.000Z</time>
      </trkpt>
      <trkpt lat="49.86884" lon="4.75022">
        <ele>332</ele>
        <time>2022-06-06T09:11:35.000Z</time>
      </trkpt>
      <trkpt lat="49.86885" lon="4.75023">
        <ele>332</ele>
        <time>2022-06-06T09:11:36.000Z</time>
      </trkpt>
      <trkpt lat="49.86885" lon="4.75023">
        <ele>333</ele>
        <time>2022-06-06T09:11:37.000Z</time>
      </trkpt>
      <trkpt lat="49.86885" lon="4.75024">
        <ele>333</ele>
        <time>2022-06-06T09:11:38.000Z</time>
      </trkpt>
      <trkpt lat="49.86886" lon="4.75024">
        <ele>333</ele>
        <time>2022-06-06T09:11:39.000Z</time>
      </trkpt>
      <trkpt lat="49.86886" lon="4.75025">
        <ele>333</ele>
        <time>2022-06-06T09:11:40.000Z</time>
      </trkpt>
      <trkpt lat="49.86886" lon="4.75025">
        <ele>333</ele>
        <time>2022-06-06T09:11:41.000Z</time>
      </trkpt>
      <trkpt lat="49.86886" lon="4.75025">
        <ele>333</ele>
        <time>2022-06-06T09:11:42.000Z</time>
      </trkpt>
      <trkpt lat="49.86887" lon="4.75026">
        <ele>333</ele>
        <time>2022-06-06T09:11:43.000Z</time>
      </trkpt>
      <trkpt lat="49.86888" lon="4.75026">
        <ele>334</ele>
        <time>2022-06-06T09:11:44.000Z</time>
      </trkpt>
      <trkpt lat="49.86888" lon="4.75027">
        <ele>334</ele>
        <time>2022-06-06T09:11:45.000Z</time>
      </trkpt>
      <trkpt lat="49.8689" lon="4.75028">
        <ele>334</ele>
        <time>2022-06-06T09:11:46.000Z</time>
      </trkpt>
      <trkpt lat="49.86891" lon="4.75028">
        <ele>334</ele>
        <time>2022-06-06T09:11:47.000Z</time>
      </trkpt>
      <trkpt lat="49.86893" lon="4.75029">
        <ele>334</ele>
        <time>2022-06-06T09:11:48.000Z</time>
      </trkpt>
      <trkpt lat="49.86895" lon="4.75031">
        <ele>334</ele>
        <time>2022-06-06T09:11:49.000Z</time>
      </trkpt>
      <trkpt lat="49.86896" lon="4.75033">
        <ele>334</ele>
        <time>2022-06-06T09:11:50.000Z</time>
      </trkpt>
      <trkpt lat="49.86897" lon="4.75033">
        <ele>334</ele>
        <time>2022-06-06T09:11:51.000Z</time>
      </trkpt>
      <trkpt lat="49.86898" lon="4.75035">
        <ele>335</ele>
        <time>2022-06-06T09:11:52.000Z</time>
      </trkpt>
      <trkpt lat="49.869" lon="4.75036">
        <ele>335</ele>
        <time>2022-06-06T09:11:53.000Z</time>
      </trkpt>
      <trkpt lat="49.86901" lon="4.75038">
        <ele>335</ele>
        <time>2022-06-06T09:11:54.000Z</time>
      </trkpt>
      <trkpt lat="49.86902" lon="4.75039">
        <ele>335</ele>
        <time>2022-06-06T09:11:55.000Z</time>
      </trkpt>
      <trkpt lat="49.86903" lon="4.75041">
        <ele>335</ele>
        <time>2022-06-06T09:11:56.000Z</time>
      </trkpt>
      <trkpt lat="49.86905" lon="4.75042">
        <ele>335</ele>
        <time>2022-06-06T09:11:57.000Z</time>
      </trkpt>
      <trkpt lat="49.86906" lon="4.75043">
        <ele>335</ele>
        <time>2022-06-06T09:11:58.000Z</time>
      </trkpt>
      <trkpt lat="49.86907" lon="4.75045">
        <ele>335</ele>
        <time>2022-06-06T09:11:59.000Z</time>
      </trkpt>
      <trkpt lat="49.86908" lon="4.75047">
        <ele>336</ele>
        <time>2022-06-06T09:12:00.000Z</time>
      </trkpt>
      <trkpt lat="49.86909" lon="4.75049">
        <ele>336</ele>
        <time>2022-06-06T09:12:01.000Z</time>
      </trkpt>
      <trkpt lat="49.8691" lon="4.7505">
        <ele>336</ele>
        <time>2022-06-06T09:12:02.000Z</time>
      </trkpt>
      <trkpt lat="49.86911" lon="4.75051">
        <ele>336</ele>
        <time>2022-06-06T09:12:03.000Z</time>
      </trkpt>
      <trkpt lat="49.86913" lon="4.75052">
        <ele>336</ele>
        <time>2022-06-06T09:12:04.000Z</time>
      </trkpt>
      <trkpt lat="49.86914" lon="4.75053">
        <ele>336</ele>
        <time>2022-06-06T09:12:05.000Z</time>
      </trkpt>
      <trkpt lat="49.86915" lon="4.75054">
        <ele>336</ele>
        <time>2022-06-06T09:12:06.000Z</time>
      </trkpt>
      <trkpt lat="49.86916" lon="4.75055">
        <ele>337</ele>
        <time>2022-06-06T09:12:07.000Z</time>
      </trkpt>
      <trkpt lat="49.86917" lon="4.75057">
        <ele>337</ele>
        <time>2022-06-06T09:12:08.000Z</time>
      </trkpt>
      <trkpt lat="49.86918" lon="4.75058">
        <ele>337</ele>
        <time>2022-06-06T09:12:09.000Z</time>
      </trkpt>
      <trkpt lat="49.86919" lon="4.75059">
        <ele>337</ele>
        <time>2022-06-06T09:12:10.000Z</time>
      </trkpt>
      <trkpt lat="49.8692" lon="4.7506">
        <ele>337</ele>
        <time>2022-06-06T09:12:11.000Z</time>
      </trkpt>
      <trkpt lat="49.86922" lon="4.75061">
        <ele>337</ele>
        <time>2022-06-06T09:12:12.000Z</time>
      </trkpt>
      <trkpt lat="49.86923" lon="4.75062">
        <ele>337</ele>
        <time>2022-06-06T09:12:13.000Z</time>
      </trkpt>
      <trkpt lat="49.86925" lon="4.75063">
        <ele>337</ele>
        <time>2022-06-06T09:12:14.000Z</time>
      </trkpt>
      <trkpt lat="49.86927" lon="4.75064">
        <ele>338</ele>
        <time>2022-06-06T09:12:15.000Z</time>
      </trkpt>
      <trkpt lat="49.86928" lon="4.75066">
        <ele>338</ele>
        <time>2022-06-06T09:12:16.000Z</time>
      </trkpt>
      <trkpt lat="49.86929" lon="4.75067">
        <ele>338</ele>
        <time>2022-06-06T09:12:17.000Z</time>
      </trkpt>
      <trkpt lat="49.8693" lon="4.75069">
        <ele>338</ele>
        <time>2022-06-06T09:12:18.000Z</time>
      </trkpt>
      <trkpt lat="49.86932" lon="4.75071">
        <ele>339</ele>
        <time>2022-06-06T09:12:19.000Z</time>
      </trkpt>
      <trkpt lat="49.86934" lon="4.75073">
        <ele>339</ele>
        <time>2022-06-06T09:12:20.000Z</time>
      </trkpt>
      <trkpt lat="49.86935" lon="4.75074">
        <ele>339</ele>
        <time>2022-06-06T09:12:21.000Z</time>
      </trkpt>
      <trkpt lat="49.86936" lon="4.75075">
        <ele>339</ele>
        <time>2022-06-06T09:12:22.000Z</time>
      </trkpt>
      <trkpt lat="49.86938" lon="4.75076">
        <ele>339</ele>
        <time>2022-06-06T09:12:23.000Z</time>
      </trkpt>
      <trkpt lat="49.86939" lon="4.75077">
        <ele>340</ele>
        <time>2022-06-06T09:12:24.000Z</time>
      </trkpt>
      <trkpt lat="49.86941" lon="4.75077">
        <ele>340</ele>
        <time>2022-06-06T09:12:25.000Z</time>
      </trkpt>
      <trkpt lat="49.86943" lon="4.75078">
        <ele>340</ele>
        <time>2022-06-06T09:12:26.000Z</time>
      </trkpt>
      <trkpt lat="49.86944" lon="4.75079">
        <ele>340</ele>
        <time>2022-06-06T09:12:27.000Z</time>
      </trkpt>
      <trkpt lat="49.86946" lon="4.7508">
        <ele>340</ele>
        <time>2022-06-06T09:12:28.000Z</time>
      </trkpt>
      <trkpt lat="49.86947" lon="4.75082">
        <ele>340</ele>
        <time>2022-06-06T09:12:29.000Z</time>
      </trkpt>
      <trkpt lat="49.86949" lon="4.75083">
        <ele>341</ele>
        <time>2022-06-06T09:12:30.000Z</time>
      </trkpt>
      <trkpt lat="49.8695" lon="4.75083">
        <ele>341</ele>
        <time>2022-06-06T09:12:31.000Z</time>
      </trkpt>
      <trkpt lat="49.86952" lon="4.75084">
        <ele>341</ele>
        <time>2022-06-06T09:12:32.000Z</time>
      </trkpt>
      <trkpt lat="49.86954" lon="4.75085">
        <ele>341</ele>
        <time>2022-06-06T09:12:33.000Z</time>
      </trkpt>
      <trkpt lat="49.86955" lon="4.75086">
        <ele>341</ele>
        <time>2022-06-06T09:12:34.000Z</time>
      </trkpt>
      <trkpt lat="49.86957" lon="4.75088">
        <ele>342</ele>
        <time>2022-06-06T09:12:35.000Z</time>
      </trkpt>
      <trkpt lat="49.86958" lon="4.7509">
        <ele>342</ele>
        <time>2022-06-06T09:12:36.000Z</time>
      </trkpt>
      <trkpt lat="49.86959" lon="4.75092">
        <ele>342</ele>
        <time>2022-06-06T09:12:37.000Z</time>
      </trkpt>
      <trkpt lat="49.8696" lon="4.75095">
        <ele>342</ele>
        <time>2022-06-06T09:12:38.000Z</time>
      </trkpt>
      <trkpt lat="49.86961" lon="4.75096">
        <ele>342</ele>
        <time>2022-06-06T09:12:39.000Z</time>
      </trkpt>
      <trkpt lat="49.86962" lon="4.75098">
        <ele>342</ele>
        <time>2022-06-06T09:12:40.000Z</time>
      </trkpt>
      <trkpt lat="49.86963" lon="4.75099">
        <ele>342</ele>
        <time>2022-06-06T09:12:41.000Z</time>
      </trkpt>
      <trkpt lat="49.86965" lon="4.75101">
        <ele>343</ele>
        <time>2022-06-06T09:12:42.000Z</time>
      </trkpt>
      <trkpt lat="49.86967" lon="4.75104">
        <ele>343</ele>
        <time>2022-06-06T09:12:43.000Z</time>
      </trkpt>
      <trkpt lat="49.86969" lon="4.75106">
        <ele>343</ele>
        <time>2022-06-06T09:12:44.000Z</time>
      </trkpt>
      <trkpt lat="49.8697" lon="4.75108">
        <ele>343</ele>
        <time>2022-06-06T09:12:45.000Z</time>
      </trkpt>
      <trkpt lat="49.86972" lon="4.7511">
        <ele>343</ele>
        <time>2022-06-06T09:12:46.000Z</time>
      </trkpt>
      <trkpt lat="49.86973" lon="4.75112">
        <ele>343</ele>
        <time>2022-06-06T09:12:47.000Z</time>
      </trkpt>
      <trkpt lat="49.86974" lon="4.75114">
        <ele>344</ele>
        <time>2022-06-06T09:12:48.000Z</time>
      </trkpt>
      <trkpt lat="49.86976" lon="4.75116">
        <ele>344</ele>
        <time>2022-06-06T09:12:49.000Z</time>
      </trkpt>
      <trkpt lat="49.86978" lon="4.75118">
        <ele>344</ele>
        <time>2022-06-06T09:12:50.000Z</time>
      </trkpt>
      <trkpt lat="49.8698" lon="4.75121">
        <ele>344</ele>
        <time>2022-06-06T09:12:51.000Z</time>
      </trkpt>
      <trkpt lat="49.86982" lon="4.75124">
        <ele>344</ele>
        <time>2022-06-06T09:12:52.000Z</time>
      </trkpt>
      <trkpt lat="49.86984" lon="4.75127">
        <ele>345</ele>
        <time>2022-06-06T09:12:53.000Z</time>
      </trkpt>
      <trkpt lat="49.86986" lon="4.75129">
        <ele>345</ele>
        <time>2022-06-06T09:12:54.000Z</time>
      </trkpt>
      <trkpt lat="49.86987" lon="4.75132">
        <ele>345</ele>
        <time>2022-06-06T09:12:55.000Z</time>
      </trkpt>
      <trkpt lat="49.86988" lon="4.75135">
        <ele>345</ele>
        <time>2022-06-06T09:12:56.000Z</time>
      </trkpt>
      <trkpt lat="49.8699" lon="4.75138">
        <ele>345</ele>
        <time>2022-06-06T09:12:57.000Z</time>
      </trkpt>
      <trkpt lat="49.86992" lon="4.75141">
        <ele>345</ele>
        <time>2022-06-06T09:12:58.000Z</time>
      </trkpt>
      <trkpt lat="49.86994" lon="4.75145">
        <ele>345</ele>
        <time>2022-06-06T09:12:59.000Z</time>
      </trkpt>
      <trkpt lat="49.86996" lon="4.75148">
        <ele>346</ele>
        <time>2022-06-06T09:13:00.000Z</time>
      </trkpt>
      <trkpt lat="49.86997" lon="4.75151">
        <ele>346</ele>
        <time>2022-06-06T09:13:01.000Z</time>
      </trkpt>
      <trkpt lat="49.86998" lon="4.75155">
        <ele>346</ele>
        <time>2022-06-06T09:13:02.000Z</time>
      </trkpt>
      <trkpt lat="49.86999" lon="4.75158">
        <ele>346</ele>
        <time>2022-06-06T09:13:03.000Z</time>
      </trkpt>
      <trkpt lat="49.87001" lon="4.75161">
        <ele>346</ele>
        <time>2022-06-06T09:13:04.000Z</time>
      </trkpt>
      <trkpt lat="49.87002" lon="4.75164">
        <ele>346</ele>
        <time>2022-06-06T09:13:05.000Z</time>
      </trkpt>
      <trkpt lat="49.87004" lon="4.75166">
        <ele>346</ele>
        <time>2022-06-06T09:13:06.000Z</time>
      </trkpt>
      <trkpt lat="49.87006" lon="4.75169">
        <ele>346</ele>
        <time>2022-06-06T09:13:07.000Z</time>
      </trkpt>
      <trkpt lat="49.87006" lon="4.75173">
        <ele>346</ele>
        <time>2022-06-06T09:13:08.000Z</time>
      </trkpt>
      <trkpt lat="49.87008" lon="4.75175">
        <ele>346</ele>
        <time>2022-06-06T09:13:09.000Z</time>
      </trkpt>
      <trkpt lat="49.87009" lon="4.75179">
        <ele>346</ele>
        <time>2022-06-06T09:13:10.000Z</time>
      </trkpt>
      <trkpt lat="49.87009" lon="4.75182">
        <ele>346</ele>
        <time>2022-06-06T09:13:11.000Z</time>
      </trkpt>
      <trkpt lat="49.8701" lon="4.75185">
        <ele>346</ele>
        <time>2022-06-06T09:13:12.000Z</time>
      </trkpt>
      <trkpt lat="49.87011" lon="4.75188">
        <ele>346</ele>
        <time>2022-06-06T09:13:13.000Z</time>
      </trkpt>
      <trkpt lat="49.87013" lon="4.75192">
        <ele>347</ele>
        <time>2022-06-06T09:13:14.000Z</time>
      </trkpt>
      <trkpt lat="49.87014" lon="4.75195">
        <ele>347</ele>
        <time>2022-06-06T09:13:15.000Z</time>
      </trkpt>
      <trkpt lat="49.87015" lon="4.75197">
        <ele>347</ele>
        <time>2022-06-06T09:13:16.000Z</time>
      </trkpt>
      <trkpt lat="49.87015" lon="4.752">
        <ele>347</ele>
        <time>2022-06-06T09:13:17.000Z</time>
      </trkpt>
      <trkpt lat="49.87016" lon="4.75204">
        <ele>348</ele>
        <time>2022-06-06T09:13:18.000Z</time>
      </trkpt>
      <trkpt lat="49.87017" lon="4.75208">
        <ele>348</ele>
        <time>2022-06-06T09:13:19.000Z</time>
      </trkpt>
      <trkpt lat="49.87017" lon="4.75212">
        <ele>348</ele>
        <time>2022-06-06T09:13:20.000Z</time>
      </trkpt>
      <trkpt lat="49.87018" lon="4.75216">
        <ele>349</ele>
        <time>2022-06-06T09:13:21.000Z</time>
      </trkpt>
      <trkpt lat="49.87019" lon="4.75219">
        <ele>349</ele>
        <time>2022-06-06T09:13:22.000Z</time>
      </trkpt>
      <trkpt lat="49.8702" lon="4.75223">
        <ele>349</ele>
        <time>2022-06-06T09:13:23.000Z</time>
      </trkpt>
      <trkpt lat="49.87021" lon="4.75227">
        <ele>349</ele>
        <time>2022-06-06T09:13:24.000Z</time>
      </trkpt>
      <trkpt lat="49.87021" lon="4.7523">
        <ele>350</ele>
        <time>2022-06-06T09:13:25.000Z</time>
      </trkpt>
      <trkpt lat="49.87022" lon="4.75234">
        <ele>350</ele>
        <time>2022-06-06T09:13:26.000Z</time>
      </trkpt>
      <trkpt lat="49.87023" lon="4.75237">
        <ele>350</ele>
        <time>2022-06-06T09:13:27.000Z</time>
      </trkpt>
      <trkpt lat="49.87025" lon="4.7524">
        <ele>351</ele>
        <time>2022-06-06T09:13:28.000Z</time>
      </trkpt>
      <trkpt lat="49.87026" lon="4.75243">
        <ele>351</ele>
        <time>2022-06-06T09:13:29.000Z</time>
      </trkpt>
      <trkpt lat="49.87027" lon="4.75246">
        <ele>351</ele>
        <time>2022-06-06T09:13:30.000Z</time>
      </trkpt>
      <trkpt lat="49.87028" lon="4.75249">
        <ele>351</ele>
        <time>2022-06-06T09:13:31.000Z</time>
      </trkpt>
      <trkpt lat="49.87028" lon="4.75252">
        <ele>352</ele>
        <time>2022-06-06T09:13:32.000Z</time>
      </trkpt>
      <trkpt lat="49.87028" lon="4.75256">
        <ele>352</ele>
        <time>2022-06-06T09:13:33.000Z</time>
      </trkpt>
      <trkpt lat="49.87029" lon="4.75259">
        <ele>352</ele>
        <time>2022-06-06T09:13:34.000Z</time>
      </trkpt>
      <trkpt lat="49.87028" lon="4.75262">
        <ele>353</ele>
        <time>2022-06-06T09:13:35.000Z</time>
      </trkpt>
      <trkpt lat="49.87028" lon="4.75265">
        <ele>353</ele>
        <time>2022-06-06T09:13:36.000Z</time>
      </trkpt>
      <trkpt lat="49.87028" lon="4.75268">
        <ele>353</ele>
        <time>2022-06-06T09:13:37.000Z</time>
      </trkpt>
      <trkpt lat="49.87027" lon="4.75272">
        <ele>354</ele>
        <time>2022-06-06T09:13:38.000Z</time>
      </trkpt>
      <trkpt lat="49.87027" lon="4.75274">
        <ele>354</ele>
        <time>2022-06-06T09:13:39.000Z</time>
      </trkpt>
      <trkpt lat="49.87026" lon="4.75276">
        <ele>354</ele>
        <time>2022-06-06T09:13:40.000Z</time>
      </trkpt>
      <trkpt lat="49.87026" lon="4.75279">
        <ele>354</ele>
        <time>2022-06-06T09:13:41.000Z</time>
      </trkpt>
      <trkpt lat="49.87024" lon="4.75283">
        <ele>355</ele>
        <time>2022-06-06T09:13:42.000Z</time>
      </trkpt>
      <trkpt lat="49.87023" lon="4.75286">
        <ele>355</ele>
        <time>2022-06-06T09:13:43.000Z</time>
      </trkpt>
      <trkpt lat="49.87022" lon="4.75289">
        <ele>355</ele>
        <time>2022-06-06T09:13:44.000Z</time>
      </trkpt>
      <trkpt lat="49.87021" lon="4.75292">
        <ele>355</ele>
        <time>2022-06-06T09:13:45.000Z</time>
      </trkpt>
      <trkpt lat="49.8702" lon="4.75294">
        <ele>356</ele>
        <time>2022-06-06T09:13:46.000Z</time>
      </trkpt>
      <trkpt lat="49.87018" lon="4.75295">
        <ele>356</ele>
        <time>2022-06-06T09:13:47.000Z</time>
      </trkpt>
      <trkpt lat="49.87017" lon="4.75296">
        <ele>356</ele>
        <time>2022-06-06T09:13:48.000Z</time>
      </trkpt>
      <trkpt lat="49.87015" lon="4.75296">
        <ele>356</ele>
        <time>2022-06-06T09:13:49.000Z</time>
      </trkpt>
      <trkpt lat="49.87014" lon="4.75297">
        <ele>356</ele>
        <time>2022-06-06T09:13:50.000Z</time>
      </trkpt>
      <trkpt lat="49.87012" lon="4.75297">
        <ele>356</ele>
        <time>2022-06-06T09:13:51.000Z</time>
      </trkpt>
      <trkpt lat="49.87009" lon="4.75297">
        <ele>357</ele>
        <time>2022-06-06T09:13:52.000Z</time>
      </trkpt>
      <trkpt lat="49.87007" lon="4.75297">
        <ele>357</ele>
        <time>2022-06-06T09:13:53.000Z</time>
      </trkpt>
      <trkpt lat="49.87005" lon="4.75296">
        <ele>357</ele>
        <time>2022-06-06T09:13:54.000Z</time>
      </trkpt>
      <trkpt lat="49.87003" lon="4.75297">
        <ele>357</ele>
        <time>2022-06-06T09:13:55.000Z</time>
      </trkpt>
      <trkpt lat="49.87001" lon="4.75297">
        <ele>357</ele>
        <time>2022-06-06T09:13:56.000Z</time>
      </trkpt>
      <trkpt lat="49.86999" lon="4.75297">
        <ele>358</ele>
        <time>2022-06-06T09:13:57.000Z</time>
      </trkpt>
      <trkpt lat="49.86997" lon="4.75297">
        <ele>358</ele>
        <time>2022-06-06T09:13:58.000Z</time>
      </trkpt>
      <trkpt lat="49.86995" lon="4.75297">
        <ele>358</ele>
        <time>2022-06-06T09:13:59.000Z</time>
      </trkpt>
      <trkpt lat="49.86993" lon="4.75297">
        <ele>358</ele>
        <time>2022-06-06T09:14:00.000Z</time>
      </trkpt>
      <trkpt lat="49.86991" lon="4.75297">
        <ele>358</ele>
        <time>2022-06-06T09:14:01.000Z</time>
      </trkpt>
      <trkpt lat="49.8699" lon="4.75298">
        <ele>358</ele>
        <time>2022-06-06T09:14:02.000Z</time>
      </trkpt>
      <trkpt lat="49.86988" lon="4.75298">
        <ele>358</ele>
        <time>2022-06-06T09:14:03.000Z</time>
      </trkpt>
      <trkpt lat="49.86987" lon="4.75297">
        <ele>359</ele>
        <time>2022-06-06T09:14:04.000Z</time>
      </trkpt>
      <trkpt lat="49.86986" lon="4.75298">
        <ele>359</ele>
        <time>2022-06-06T09:14:05.000Z</time>
      </trkpt>
      <trkpt lat="49.86986" lon="4.75298">
        <ele>359</ele>
        <time>2022-06-06T09:14:06.000Z</time>
      </trkpt>
      <trkpt lat="49.86985" lon="4.75298">
        <ele>359</ele>
        <time>2022-06-06T09:14:07.000Z</time>
      </trkpt>
      <trkpt lat="49.86985" lon="4.75297">
        <ele>359</ele>
        <time>2022-06-06T09:14:08.000Z</time>
      </trkpt>
      <trkpt lat="49.86986" lon="4.75296">
        <ele>359</ele>
        <time>2022-06-06T09:14:09.000Z</time>
      </trkpt>
      <trkpt lat="49.86985" lon="4.75295">
        <ele>359</ele>
        <time>2022-06-06T09:14:10.000Z</time>
      </trkpt>
      <trkpt lat="49.86985" lon="4.75294">
        <ele>359</ele>
        <time>2022-06-06T09:14:11.000Z</time>
      </trkpt>
      <trkpt lat="49.86985" lon="4.75292">
        <ele>359</ele>
        <time>2022-06-06T09:14:12.000Z</time>
      </trkpt>
      <trkpt lat="49.86985" lon="4.7529">
        <ele>359</ele>
        <time>2022-06-06T09:14:13.000Z</time>
      </trkpt>
      <trkpt lat="49.86986" lon="4.75288">
        <ele>359</ele>
        <time>2022-06-06T09:14:14.000Z</time>
      </trkpt>
      <trkpt lat="49.86985" lon="4.75287">
        <ele>359</ele>
        <time>2022-06-06T09:14:15.000Z</time>
      </trkpt>
      <trkpt lat="49.86984" lon="4.75286">
        <ele>359</ele>
        <time>2022-06-06T09:14:16.000Z</time>
      </trkpt>
      <trkpt lat="49.86983" lon="4.75284">
        <ele>359</ele>
        <time>2022-06-06T09:14:17.000Z</time>
      </trkpt>
      <trkpt lat="49.86982" lon="4.75284">
        <ele>359</ele>
        <time>2022-06-06T09:14:18.000Z</time>
      </trkpt>
      <trkpt lat="49.86981" lon="4.75283">
        <ele>359</ele>
        <time>2022-06-06T09:14:19.000Z</time>
      </trkpt>
      <trkpt lat="49.8698" lon="4.75284">
        <ele>360</ele>
        <time>2022-06-06T09:14:20.000Z</time>
      </trkpt>
      <trkpt lat="49.86979" lon="4.75284">
        <ele>360</ele>
        <time>2022-06-06T09:14:21.000Z</time>
      </trkpt>
      <trkpt lat="49.86979" lon="4.75284">
        <ele>360</ele>
        <time>2022-06-06T09:14:22.000Z</time>
      </trkpt>
      <trkpt lat="49.86978" lon="4.75285">
        <ele>360</ele>
        <time>2022-06-06T09:14:23.000Z</time>
      </trkpt>
      <trkpt lat="49.86978" lon="4.75286">
        <ele>360</ele>
        <time>2022-06-06T09:14:24.000Z</time>
      </trkpt>
      <trkpt lat="49.86977" lon="4.75287">
        <ele>360</ele>
        <time>2022-06-06T09:14:25.000Z</time>
      </trkpt>
      <trkpt lat="49.86976" lon="4.7529">
        <ele>360</ele>
        <time>2022-06-06T09:14:26.000Z</time>
      </trkpt>
      <trkpt lat="49.86975" lon="4.75292">
        <ele>361</ele>
        <time>2022-06-06T09:14:27.000Z</time>
      </trkpt>
      <trkpt lat="49.86973" lon="4.75295">
        <ele>361</ele>
        <time>2022-06-06T09:14:28.000Z</time>
      </trkpt>
      <trkpt lat="49.8697" lon="4.75298">
        <ele>361</ele>
        <time>2022-06-06T09:14:29.000Z</time>
      </trkpt>
      <trkpt lat="49.86968" lon="4.75302">
        <ele>361</ele>
        <time>2022-06-06T09:14:30.000Z</time>
      </trkpt>
      <trkpt lat="49.86966" lon="4.75305">
        <ele>361</ele>
        <time>2022-06-06T09:14:31.000Z</time>
      </trkpt>
      <trkpt lat="49.86964" lon="4.75306">
        <ele>361</ele>
        <time>2022-06-06T09:14:32.000Z</time>
      </trkpt>
      <trkpt lat="49.86961" lon="4.75308">
        <ele>361</ele>
        <time>2022-06-06T09:14:33.000Z</time>
      </trkpt>
      <trkpt lat="49.86959" lon="4.75309">
        <ele>361</ele>
        <time>2022-06-06T09:14:34.000Z</time>
      </trkpt>
      <trkpt lat="49.86957" lon="4.75311">
        <ele>361</ele>
        <time>2022-06-06T09:14:35.000Z</time>
      </trkpt>
      <trkpt lat="49.86955" lon="4.75314">
        <ele>361</ele>
        <time>2022-06-06T09:14:36.000Z</time>
      </trkpt>
      <trkpt lat="49.86953" lon="4.75317">
        <ele>362</ele>
        <time>2022-06-06T09:14:37.000Z</time>
      </trkpt>
      <trkpt lat="49.86951" lon="4.75319">
        <ele>362</ele>
        <time>2022-06-06T09:14:38.000Z</time>
      </trkpt>
      <trkpt lat="49.86951" lon="4.75322">
        <ele>362</ele>
        <time>2022-06-06T09:14:39.000Z</time>
      </trkpt>
      <trkpt lat="49.8695" lon="4.75325">
        <ele>362</ele>
        <time>2022-06-06T09:14:40.000Z</time>
      </trkpt>
      <trkpt lat="49.8695" lon="4.75327">
        <ele>361</ele>
        <time>2022-06-06T09:14:41.000Z</time>
      </trkpt>
      <trkpt lat="49.86949" lon="4.75328">
        <ele>361</ele>
        <time>2022-06-06T09:14:42.000Z</time>
      </trkpt>
      <trkpt lat="49.86949" lon="4.75328">
        <ele>361</ele>
        <time>2022-06-06T09:14:43.000Z</time>
      </trkpt>
      <trkpt lat="49.86949" lon="4.75329">
        <ele>361</ele>
        <time>2022-06-06T09:14:44.000Z</time>
      </trkpt>
      <trkpt lat="49.86949" lon="4.75329">
        <ele>361</ele>
        <time>2022-06-06T09:14:45.000Z</time>
      </trkpt>
      <trkpt lat="49.86948" lon="4.7533">
        <ele>361</ele>
        <time>2022-06-06T09:14:46.000Z</time>
      </trkpt>
      <trkpt lat="49.86948" lon="4.7533">
        <ele>361</ele>
        <time>2022-06-06T09:14:47.000Z</time>
      </trkpt>
      <trkpt lat="49.86947" lon="4.75331">
        <ele>361</ele>
        <time>2022-06-06T09:14:48.000Z</time>
      </trkpt>
      <trkpt lat="49.86945" lon="4.7533">
        <ele>361</ele>
        <time>2022-06-06T09:14:49.000Z</time>
      </trkpt>
      <trkpt lat="49.86943" lon="4.75329">
        <ele>361</ele>
        <time>2022-06-06T09:14:50.000Z</time>
      </trkpt>
      <trkpt lat="49.86941" lon="4.75328">
        <ele>361</ele>
        <time>2022-06-06T09:14:51.000Z</time>
      </trkpt>
      <trkpt lat="49.86939" lon="4.75326">
        <ele>361</ele>
        <time>2022-06-06T09:14:52.000Z</time>
      </trkpt>
      <trkpt lat="49.86936" lon="4.75324">
        <ele>361</ele>
        <time>2022-06-06T09:14:53.000Z</time>
      </trkpt>
      <trkpt lat="49.86934" lon="4.75322">
        <ele>361</ele>
        <time>2022-06-06T09:14:54.000Z</time>
      </trkpt>
      <trkpt lat="49.86932" lon="4.75321">
        <ele>361</ele>
        <time>2022-06-06T09:14:55.000Z</time>
      </trkpt>
      <trkpt lat="49.8693" lon="4.75319">
        <ele>361</ele>
        <time>2022-06-06T09:14:56.000Z</time>
      </trkpt>
      <trkpt lat="49.86929" lon="4.75319">
        <ele>361</ele>
        <time>2022-06-06T09:14:57.000Z</time>
      </trkpt>
      <trkpt lat="49.86929" lon="4.7532">
        <ele>361</ele>
        <time>2022-06-06T09:14:58.000Z</time>
      </trkpt>
      <trkpt lat="49.86928" lon="4.7532">
        <ele>361</ele>
        <time>2022-06-06T09:14:59.000Z</time>
      </trkpt>
      <trkpt lat="49.86929" lon="4.7532">
        <ele>360</ele>
        <time>2022-06-06T09:15:00.000Z</time>
      </trkpt>
      <trkpt lat="49.86929" lon="4.7532">
        <ele>360</ele>
        <time>2022-06-06T09:15:01.000Z</time>
      </trkpt>
      <trkpt lat="49.8693" lon="4.7532">
        <ele>360</ele>
        <time>2022-06-06T09:15:02.000Z</time>
      </trkpt>
      <trkpt lat="49.86931" lon="4.75321">
        <ele>360</ele>
        <time>2022-06-06T09:15:03.000Z</time>
      </trkpt>
      <trkpt lat="49.86933" lon="4.75323">
        <ele>360</ele>
        <time>2022-06-06T09:15:04.000Z</time>
      </trkpt>
      <trkpt lat="49.86935" lon="4.75324">
        <ele>360</ele>
        <time>2022-06-06T09:15:05.000Z</time>
      </trkpt>
      <trkpt lat="49.86938" lon="4.75326">
        <ele>360</ele>
        <time>2022-06-06T09:15:06.000Z</time>
      </trkpt>
      <trkpt lat="49.8694" lon="4.75328">
        <ele>360</ele>
        <time>2022-06-06T09:15:07.000Z</time>
      </trkpt>
      <trkpt lat="49.86942" lon="4.75329">
        <ele>360</ele>
        <time>2022-06-06T09:15:08.000Z</time>
      </trkpt>
      <trkpt lat="49.86944" lon="4.75331">
        <ele>360</ele>
        <time>2022-06-06T09:15:09.000Z</time>
      </trkpt>
      <trkpt lat="49.86946" lon="4.75333">
        <ele>360</ele>
        <time>2022-06-06T09:15:10.000Z</time>
      </trkpt>
      <trkpt lat="49.86949" lon="4.75335">
        <ele>360</ele>
        <time>2022-06-06T09:15:11.000Z</time>
      </trkpt>
      <trkpt lat="49.86952" lon="4.75337">
        <ele>360</ele>
        <time>2022-06-06T09:15:12.000Z</time>
      </trkpt>
      <trkpt lat="49.86955" lon="4.7534">
        <ele>359</ele>
        <time>2022-06-06T09:15:13.000Z</time>
      </trkpt>
      <trkpt lat="49.86957" lon="4.75343">
        <ele>359</ele>
        <time>2022-06-06T09:15:14.000Z</time>
      </trkpt>
      <trkpt lat="49.86959" lon="4.75346">
        <ele>359</ele>
        <time>2022-06-06T09:15:15.000Z</time>
      </trkpt>
      <trkpt lat="49.86961" lon="4.75348">
        <ele>359</ele>
        <time>2022-06-06T09:15:16.000Z</time>
      </trkpt>
      <trkpt lat="49.86964" lon="4.75351">
        <ele>359</ele>
        <time>2022-06-06T09:15:17.000Z</time>
      </trkpt>
      <trkpt lat="49.86967" lon="4.75354">
        <ele>359</ele>
        <time>2022-06-06T09:15:18.000Z</time>
      </trkpt>
      <trkpt lat="49.8697" lon="4.75357">
        <ele>359</ele>
        <time>2022-06-06T09:15:19.000Z</time>
      </trkpt>
      <trkpt lat="49.86973" lon="4.75361">
        <ele>359</ele>
        <time>2022-06-06T09:15:20.000Z</time>
      </trkpt>
      <trkpt lat="49.86976" lon="4.75365">
        <ele>358</ele>
        <time>2022-06-06T09:15:21.000Z</time>
      </trkpt>
      <trkpt lat="49.86978" lon="4.75369">
        <ele>358</ele>
        <time>2022-06-06T09:15:22.000Z</time>
      </trkpt>
      <trkpt lat="49.8698" lon="4.75373">
        <ele>358</ele>
        <time>2022-06-06T09:15:23.000Z</time>
      </trkpt>
      <trkpt lat="49.86982" lon="4.75377">
        <ele>358</ele>
        <time>2022-06-06T09:15:24.000Z</time>
      </trkpt>
      <trkpt lat="49.86985" lon="4.7538">
        <ele>358</ele>
        <time>2022-06-06T09:15:25.000Z</time>
      </trkpt>
      <trkpt lat="49.86988" lon="4.75384">
        <ele>358</ele>
        <time>2022-06-06T09:15:26.000Z</time>
      </trkpt>
      <trkpt lat="49.8699" lon="4.75388">
        <ele>358</ele>
        <time>2022-06-06T09:15:27.000Z</time>
      </trkpt>
      <trkpt lat="49.86993" lon="4.75392">
        <ele>358</ele>
        <time>2022-06-06T09:15:28.000Z</time>
      </trkpt>
      <trkpt lat="49.86996" lon="4.75395">
        <ele>358</ele>
        <time>2022-06-06T09:15:29.000Z</time>
      </trkpt>
      <trkpt lat="49.86999" lon="4.75399">
        <ele>358</ele>
        <time>2022-06-06T09:15:30.000Z</time>
      </trkpt>
      <trkpt lat="49.87002" lon="4.75403">
        <ele>358</ele>
        <time>2022-06-06T09:15:31.000Z</time>
      </trkpt>
      <trkpt lat="49.87005" lon="4.75408">
        <ele>358</ele>
        <time>2022-06-06T09:15:32.000Z</time>
      </trkpt>
      <trkpt lat="49.87008" lon="4.75412">
        <ele>358</ele>
        <time>2022-06-06T09:15:33.000Z</time>
      </trkpt>
      <trkpt lat="49.8701" lon="4.75417">
        <ele>358</ele>
        <time>2022-06-06T09:15:34.000Z</time>
      </trkpt>
      <trkpt lat="49.87013" lon="4.75421">
        <ele>358</ele>
        <time>2022-06-06T09:15:35.000Z</time>
      </trkpt>
      <trkpt lat="49.87016" lon="4.75424">
        <ele>359</ele>
        <time>2022-06-06T09:15:36.000Z</time>
      </trkpt>
      <trkpt lat="49.87018" lon="4.75428">
        <ele>359</ele>
        <time>2022-06-06T09:15:37.000Z</time>
      </trkpt>
      <trkpt lat="49.87021" lon="4.75433">
        <ele>359</ele>
        <time>2022-06-06T09:15:38.000Z</time>
      </trkpt>
      <trkpt lat="49.87023" lon="4.75437">
        <ele>359</ele>
        <time>2022-06-06T09:15:39.000Z</time>
      </trkpt>
      <trkpt lat="49.87026" lon="4.75441">
        <ele>359</ele>
        <time>2022-06-06T09:15:40.000Z</time>
      </trkpt>
      <trkpt lat="49.87029" lon="4.75445">
        <ele>359</ele>
        <time>2022-06-06T09:15:41.000Z</time>
      </trkpt>
      <trkpt lat="49.87032" lon="4.75448">
        <ele>359</ele>
        <time>2022-06-06T09:15:42.000Z</time>
      </trkpt>
      <trkpt lat="49.87035" lon="4.75452">
        <ele>359</ele>
        <time>2022-06-06T09:15:43.000Z</time>
      </trkpt>
      <trkpt lat="49.87038" lon="4.75455">
        <ele>359</ele>
        <time>2022-06-06T09:15:44.000Z</time>
      </trkpt>
      <trkpt lat="49.87041" lon="4.75459">
        <ele>359</ele>
        <time>2022-06-06T09:15:45.000Z</time>
      </trkpt>
      <trkpt lat="49.87044" lon="4.75463">
        <ele>359</ele>
        <time>2022-06-06T09:15:46.000Z</time>
      </trkpt>
      <trkpt lat="49.87047" lon="4.75467">
        <ele>360</ele>
        <time>2022-06-06T09:15:47.000Z</time>
      </trkpt>
      <trkpt lat="49.8705" lon="4.75471">
        <ele>360</ele>
        <time>2022-06-06T09:15:48.000Z</time>
      </trkpt>
      <trkpt lat="49.87053" lon="4.75475">
        <ele>360</ele>
        <time>2022-06-06T09:15:49.000Z</time>
      </trkpt>
      <trkpt lat="49.87056" lon="4.75479">
        <ele>360</ele>
        <time>2022-06-06T09:15:50.000Z</time>
      </trkpt>
      <trkpt lat="49.87058" lon="4.75483">
        <ele>360</ele>
        <time>2022-06-06T09:15:51.000Z</time>
      </trkpt>
      <trkpt lat="49.87061" lon="4.75487">
        <ele>360</ele>
        <time>2022-06-06T09:15:52.000Z</time>
      </trkpt>
      <trkpt lat="49.87063" lon="4.75491">
        <ele>360</ele>
        <time>2022-06-06T09:15:53.000Z</time>
      </trkpt>
      <trkpt lat="49.87066" lon="4.75493">
        <ele>360</ele>
        <time>2022-06-06T09:15:54.000Z</time>
      </trkpt>
      <trkpt lat="49.87069" lon="4.75497">
        <ele>360</ele>
        <time>2022-06-06T09:15:55.000Z</time>
      </trkpt>
      <trkpt lat="49.87072" lon="4.75499">
        <ele>360</ele>
        <time>2022-06-06T09:15:56.000Z</time>
      </trkpt>
      <trkpt lat="49.87074" lon="4.75501">
        <ele>360</ele>
        <time>2022-06-06T09:15:57.000Z</time>
      </trkpt>
      <trkpt lat="49.87076" lon="4.75503">
        <ele>360</ele>
        <time>2022-06-06T09:15:58.000Z</time>
      </trkpt>
      <trkpt lat="49.87078" lon="4.75505">
        <ele>361</ele>
        <time>2022-06-06T09:15:59.000Z</time>
      </trkpt>
      <trkpt lat="49.87081" lon="4.75507">
        <ele>361</ele>
        <time>2022-06-06T09:16:00.000Z</time>
      </trkpt>
      <trkpt lat="49.87083" lon="4.75509">
        <ele>361</ele>
        <time>2022-06-06T09:16:01.000Z</time>
      </trkpt>
      <trkpt lat="49.87086" lon="4.75511">
        <ele>361</ele>
        <time>2022-06-06T09:16:02.000Z</time>
      </trkpt>
      <trkpt lat="49.87089" lon="4.75514">
        <ele>361</ele>
        <time>2022-06-06T09:16:03.000Z</time>
      </trkpt>
      <trkpt lat="49.87091" lon="4.75516">
        <ele>361</ele>
        <time>2022-06-06T09:16:04.000Z</time>
      </trkpt>
      <trkpt lat="49.87094" lon="4.75517">
        <ele>362</ele>
        <time>2022-06-06T09:16:05.000Z</time>
      </trkpt>
      <trkpt lat="49.87096" lon="4.75518">
        <ele>362</ele>
        <time>2022-06-06T09:16:06.000Z</time>
      </trkpt>
      <trkpt lat="49.87099" lon="4.7552">
        <ele>362</ele>
        <time>2022-06-06T09:16:07.000Z</time>
      </trkpt>
      <trkpt lat="49.87102" lon="4.75522">
        <ele>362</ele>
        <time>2022-06-06T09:16:08.000Z</time>
      </trkpt>
      <trkpt lat="49.87105" lon="4.75524">
        <ele>362</ele>
        <time>2022-06-06T09:16:09.000Z</time>
      </trkpt>
      <trkpt lat="49.87107" lon="4.75526">
        <ele>362</ele>
        <time>2022-06-06T09:16:10.000Z</time>
      </trkpt>
      <trkpt lat="49.87109" lon="4.75529">
        <ele>362</ele>
        <time>2022-06-06T09:16:11.000Z</time>
      </trkpt>
      <trkpt lat="49.87111" lon="4.75533">
        <ele>363</ele>
        <time>2022-06-06T09:16:12.000Z</time>
      </trkpt>
      <trkpt lat="49.87112" lon="4.75536">
        <ele>363</ele>
        <time>2022-06-06T09:16:13.000Z</time>
      </trkpt>
      <trkpt lat="49.87113" lon="4.75539">
        <ele>363</ele>
        <time>2022-06-06T09:16:14.000Z</time>
      </trkpt>
      <trkpt lat="49.87114" lon="4.75541">
        <ele>363</ele>
        <time>2022-06-06T09:16:15.000Z</time>
      </trkpt>
      <trkpt lat="49.87115" lon="4.75543">
        <ele>363</ele>
        <time>2022-06-06T09:16:16.000Z</time>
      </trkpt>
      <trkpt lat="49.87116" lon="4.75546">
        <ele>363</ele>
        <time>2022-06-06T09:16:17.000Z</time>
      </trkpt>
      <trkpt lat="49.87117" lon="4.75549">
        <ele>364</ele>
        <time>2022-06-06T09:16:18.000Z</time>
      </trkpt>
      <trkpt lat="49.87118" lon="4.75551">
        <ele>364</ele>
        <time>2022-06-06T09:16:19.000Z</time>
      </trkpt>
      <trkpt lat="49.87118" lon="4.75554">
        <ele>364</ele>
        <time>2022-06-06T09:16:20.000Z</time>
      </trkpt>
      <trkpt lat="49.87117" lon="4.75556">
        <ele>365</ele>
        <time>2022-06-06T09:16:21.000Z</time>
      </trkpt>
      <trkpt lat="49.87117" lon="4.75558">
        <ele>365</ele>
        <time>2022-06-06T09:16:22.000Z</time>
      </trkpt>
      <trkpt lat="49.87117" lon="4.7556">
        <ele>365</ele>
        <time>2022-06-06T09:16:23.000Z</time>
      </trkpt>
      <trkpt lat="49.87116" lon="4.75563">
        <ele>366</ele>
        <time>2022-06-06T09:16:24.000Z</time>
      </trkpt>
      <trkpt lat="49.87116" lon="4.75565">
        <ele>366</ele>
        <time>2022-06-06T09:16:25.000Z</time>
      </trkpt>
      <trkpt lat="49.87116" lon="4.75568">
        <ele>366</ele>
        <time>2022-06-06T09:16:26.000Z</time>
      </trkpt>
      <trkpt lat="49.87116" lon="4.75571">
        <ele>367</ele>
        <time>2022-06-06T09:16:27.000Z</time>
      </trkpt>
      <trkpt lat="49.87116" lon="4.75574">
        <ele>367</ele>
        <time>2022-06-06T09:16:28.000Z</time>
      </trkpt>
      <trkpt lat="49.87117" lon="4.75577">
        <ele>367</ele>
        <time>2022-06-06T09:16:29.000Z</time>
      </trkpt>
      <trkpt lat="49.87118" lon="4.7558">
        <ele>367</ele>
        <time>2022-06-06T09:16:30.000Z</time>
      </trkpt>
      <trkpt lat="49.87119" lon="4.75583">
        <ele>367</ele>
        <time>2022-06-06T09:16:31.000Z</time>
      </trkpt>
      <trkpt lat="49.87121" lon="4.75586">
        <ele>368</ele>
        <time>2022-06-06T09:16:32.000Z</time>
      </trkpt>
      <trkpt lat="49.87122" lon="4.75589">
        <ele>368</ele>
        <time>2022-06-06T09:16:33.000Z</time>
      </trkpt>
      <trkpt lat="49.87124" lon="4.75591">
        <ele>368</ele>
        <time>2022-06-06T09:16:34.000Z</time>
      </trkpt>
      <trkpt lat="49.87125" lon="4.75594">
        <ele>368</ele>
        <time>2022-06-06T09:16:35.000Z</time>
      </trkpt>
      <trkpt lat="49.87128" lon="4.75597">
        <ele>368</ele>
        <time>2022-06-06T09:16:36.000Z</time>
      </trkpt>
      <trkpt lat="49.87129" lon="4.756">
        <ele>369</ele>
        <time>2022-06-06T09:16:37.000Z</time>
      </trkpt>
      <trkpt lat="49.87131" lon="4.75604">
        <ele>369</ele>
        <time>2022-06-06T09:16:38.000Z</time>
      </trkpt>
      <trkpt lat="49.87133" lon="4.75607">
        <ele>369</ele>
        <time>2022-06-06T09:16:39.000Z</time>
      </trkpt>
      <trkpt lat="49.87135" lon="4.75609">
        <ele>369</ele>
        <time>2022-06-06T09:16:40.000Z</time>
      </trkpt>
      <trkpt lat="49.87137" lon="4.75611">
        <ele>370</ele>
        <time>2022-06-06T09:16:41.000Z</time>
      </trkpt>
      <trkpt lat="49.87139" lon="4.75614">
        <ele>370</ele>
        <time>2022-06-06T09:16:42.000Z</time>
      </trkpt>
      <trkpt lat="49.8714" lon="4.75617">
        <ele>370</ele>
        <time>2022-06-06T09:16:43.000Z</time>
      </trkpt>
      <trkpt lat="49.87142" lon="4.75621">
        <ele>370</ele>
        <time>2022-06-06T09:16:44.000Z</time>
      </trkpt>
      <trkpt lat="49.87143" lon="4.75624">
        <ele>370</ele>
        <time>2022-06-06T09:16:45.000Z</time>
      </trkpt>
      <trkpt lat="49.87145" lon="4.75627">
        <ele>371</ele>
        <time>2022-06-06T09:16:46.000Z</time>
      </trkpt>
      <trkpt lat="49.87147" lon="4.75631">
        <ele>371</ele>
        <time>2022-06-06T09:16:47.000Z</time>
      </trkpt>
      <trkpt lat="49.87148" lon="4.75634">
        <ele>371</ele>
        <time>2022-06-06T09:16:48.000Z</time>
      </trkpt>
      <trkpt lat="49.8715" lon="4.75637">
        <ele>371</ele>
        <time>2022-06-06T09:16:49.000Z</time>
      </trkpt>
      <trkpt lat="49.87151" lon="4.7564">
        <ele>371</ele>
        <time>2022-06-06T09:16:50.000Z</time>
      </trkpt>
      <trkpt lat="49.87153" lon="4.75643">
        <ele>372</ele>
        <time>2022-06-06T09:16:51.000Z</time>
      </trkpt>
      <trkpt lat="49.87155" lon="4.75647">
        <ele>372</ele>
        <time>2022-06-06T09:16:52.000Z</time>
      </trkpt>
      <trkpt lat="49.87156" lon="4.75651">
        <ele>372</ele>
        <time>2022-06-06T09:16:53.000Z</time>
      </trkpt>
      <trkpt lat="49.87158" lon="4.75654">
        <ele>372</ele>
        <time>2022-06-06T09:16:54.000Z</time>
      </trkpt>
      <trkpt lat="49.87159" lon="4.75657">
        <ele>372</ele>
        <time>2022-06-06T09:16:55.000Z</time>
      </trkpt>
      <trkpt lat="49.8716" lon="4.7566">
        <ele>373</ele>
        <time>2022-06-06T09:16:56.000Z</time>
      </trkpt>
      <trkpt lat="49.87161" lon="4.75663">
        <ele>373</ele>
        <time>2022-06-06T09:16:57.000Z</time>
      </trkpt>
      <trkpt lat="49.87162" lon="4.75666">
        <ele>373</ele>
        <time>2022-06-06T09:16:58.000Z</time>
      </trkpt>
      <trkpt lat="49.87164" lon="4.75669">
        <ele>374</ele>
        <time>2022-06-06T09:16:59.000Z</time>
      </trkpt>
      <trkpt lat="49.87165" lon="4.75672">
        <ele>374</ele>
        <time>2022-06-06T09:17:00.000Z</time>
      </trkpt>
      <trkpt lat="49.87167" lon="4.75675">
        <ele>374</ele>
        <time>2022-06-06T09:17:01.000Z</time>
      </trkpt>
      <trkpt lat="49.87168" lon="4.75678">
        <ele>375</ele>
        <time>2022-06-06T09:17:02.000Z</time>
      </trkpt>
      <trkpt lat="49.8717" lon="4.7568">
        <ele>375</ele>
        <time>2022-06-06T09:17:03.000Z</time>
      </trkpt>
      <trkpt lat="49.87171" lon="4.75683">
        <ele>375</ele>
        <time>2022-06-06T09:17:04.000Z</time>
      </trkpt>
      <trkpt lat="49.87172" lon="4.75686">
        <ele>376</ele>
        <time>2022-06-06T09:17:05.000Z</time>
      </trkpt>
      <trkpt lat="49.87174" lon="4.75689">
        <ele>376</ele>
        <time>2022-06-06T09:17:06.000Z</time>
      </trkpt>
      <trkpt lat="49.87175" lon="4.75691">
        <ele>376</ele>
        <time>2022-06-06T09:17:07.000Z</time>
      </trkpt>
      <trkpt lat="49.87176" lon="4.75693">
        <ele>377</ele>
        <time>2022-06-06T09:17:08.000Z</time>
      </trkpt>
      <trkpt lat="49.87177" lon="4.75696">
        <ele>377</ele>
        <time>2022-06-06T09:17:09.000Z</time>
      </trkpt>
      <trkpt lat="49.87178" lon="4.757">
        <ele>378</ele>
        <time>2022-06-06T09:17:10.000Z</time>
      </trkpt>
      <trkpt lat="49.87179" lon="4.75704">
        <ele>378</ele>
        <time>2022-06-06T09:17:11.000Z</time>
      </trkpt>
      <trkpt lat="49.87181" lon="4.75707">
        <ele>378</ele>
        <time>2022-06-06T09:17:12.000Z</time>
      </trkpt>
      <trkpt lat="49.87183" lon="4.7571">
        <ele>379</ele>
        <time>2022-06-06T09:17:13.000Z</time>
      </trkpt>
      <trkpt lat="49.87185" lon="4.75713">
        <ele>379</ele>
        <time>2022-06-06T09:17:14.000Z</time>
      </trkpt>
      <trkpt lat="49.87186" lon="4.75715">
        <ele>379</ele>
        <time>2022-06-06T09:17:15.000Z</time>
      </trkpt>
      <trkpt lat="49.87187" lon="4.75717">
        <ele>380</ele>
        <time>2022-06-06T09:17:16.000Z</time>
      </trkpt>
      <trkpt lat="49.87189" lon="4.7572">
        <ele>380</ele>
        <time>2022-06-06T09:17:17.000Z</time>
      </trkpt>
      <trkpt lat="49.8719" lon="4.75723">
        <ele>380</ele>
        <time>2022-06-06T09:17:18.000Z</time>
      </trkpt>
      <trkpt lat="49.87192" lon="4.75726">
        <ele>381</ele>
        <time>2022-06-06T09:17:19.000Z</time>
      </trkpt>
      <trkpt lat="49.87194" lon="4.7573">
        <ele>381</ele>
        <time>2022-06-06T09:17:20.000Z</time>
      </trkpt>
      <trkpt lat="49.87196" lon="4.75733">
        <ele>382</ele>
        <time>2022-06-06T09:17:21.000Z</time>
      </trkpt>
      <trkpt lat="49.87197" lon="4.75736">
        <ele>382</ele>
        <time>2022-06-06T09:17:22.000Z</time>
      </trkpt>
      <trkpt lat="49.87199" lon="4.75738">
        <ele>382</ele>
        <time>2022-06-06T09:17:23.000Z</time>
      </trkpt>
      <trkpt lat="49.87201" lon="4.75741">
        <ele>383</ele>
        <time>2022-06-06T09:17:24.000Z</time>
      </trkpt>
      <trkpt lat="49.87203" lon="4.75743">
        <ele>383</ele>
        <time>2022-06-06T09:17:25.000Z</time>
      </trkpt>
      <trkpt lat="49.87204" lon="4.75745">
        <ele>383</ele>
        <time>2022-06-06T09:17:26.000Z</time>
      </trkpt>
      <trkpt lat="49.87205" lon="4.75748">
        <ele>384</ele>
        <time>2022-06-06T09:17:27.000Z</time>
      </trkpt>
      <trkpt lat="49.87207" lon="4.75749">
        <ele>384</ele>
        <time>2022-06-06T09:17:28.000Z</time>
      </trkpt>
      <trkpt lat="49.87208" lon="4.75751">
        <ele>384</ele>
        <time>2022-06-06T09:17:29.000Z</time>
      </trkpt>
      <trkpt lat="49.87209" lon="4.75753">
        <ele>384</ele>
        <time>2022-06-06T09:17:30.000Z</time>
      </trkpt>
      <trkpt lat="49.8721" lon="4.75755">
        <ele>384</ele>
        <time>2022-06-06T09:17:31.000Z</time>
      </trkpt>
      <trkpt lat="49.87211" lon="4.75758">
        <ele>385</ele>
        <time>2022-06-06T09:17:32.000Z</time>
      </trkpt>
      <trkpt lat="49.87212" lon="4.7576">
        <ele>385</ele>
        <time>2022-06-06T09:17:33.000Z</time>
      </trkpt>
      <trkpt lat="49.87213" lon="4.75762">
        <ele>385</ele>
        <time>2022-06-06T09:17:34.000Z</time>
      </trkpt>
      <trkpt lat="49.87214" lon="4.75764">
        <ele>385</ele>
        <time>2022-06-06T09:17:35.000Z</time>
      </trkpt>
      <trkpt lat="49.87215" lon="4.75766">
        <ele>386</ele>
        <time>2022-06-06T09:17:36.000Z</time>
      </trkpt>
      <trkpt lat="49.87216" lon="4.75767">
        <ele>386</ele>
        <time>2022-06-06T09:17:37.000Z</time>
      </trkpt>
      <trkpt lat="49.87218" lon="4.75769">
        <ele>386</ele>
        <time>2022-06-06T09:17:38.000Z</time>
      </trkpt>
      <trkpt lat="49.87218" lon="4.75771">
        <ele>387</ele>
        <time>2022-06-06T09:17:39.000Z</time>
      </trkpt>
      <trkpt lat="49.87219" lon="4.75773">
        <ele>387</ele>
        <time>2022-06-06T09:17:40.000Z</time>
      </trkpt>
      <trkpt lat="49.8722" lon="4.75775">
        <ele>387</ele>
        <time>2022-06-06T09:17:41.000Z</time>
      </trkpt>
      <trkpt lat="49.87221" lon="4.75777">
        <ele>388</ele>
        <time>2022-06-06T09:17:42.000Z</time>
      </trkpt>
      <trkpt lat="49.87222" lon="4.7578">
        <ele>388</ele>
        <time>2022-06-06T09:17:43.000Z</time>
      </trkpt>
      <trkpt lat="49.87222" lon="4.75782">
        <ele>388</ele>
        <time>2022-06-06T09:17:44.000Z</time>
      </trkpt>
      <trkpt lat="49.87223" lon="4.75784">
        <ele>388</ele>
        <time>2022-06-06T09:17:45.000Z</time>
      </trkpt>
      <trkpt lat="49.87225" lon="4.75787">
        <ele>388</ele>
        <time>2022-06-06T09:17:46.000Z</time>
      </trkpt>
      <trkpt lat="49.87226" lon="4.7579">
        <ele>389</ele>
        <time>2022-06-06T09:17:47.000Z</time>
      </trkpt>
      <trkpt lat="49.87227" lon="4.75792">
        <ele>389</ele>
        <time>2022-06-06T09:17:48.000Z</time>
      </trkpt>
      <trkpt lat="49.87228" lon="4.75795">
        <ele>389</ele>
        <time>2022-06-06T09:17:49.000Z</time>
      </trkpt>
      <trkpt lat="49.87229" lon="4.75796">
        <ele>390</ele>
        <time>2022-06-06T09:17:50.000Z</time>
      </trkpt>
      <trkpt lat="49.87231" lon="4.75798">
        <ele>390</ele>
        <time>2022-06-06T09:17:51.000Z</time>
      </trkpt>
      <trkpt lat="49.87232" lon="4.758">
        <ele>390</ele>
        <time>2022-06-06T09:17:52.000Z</time>
      </trkpt>
      <trkpt lat="49.87232" lon="4.75802">
        <ele>390</ele>
        <time>2022-06-06T09:17:53.000Z</time>
      </trkpt>
      <trkpt lat="49.87234" lon="4.75804">
        <ele>391</ele>
        <time>2022-06-06T09:17:54.000Z</time>
      </trkpt>
      <trkpt lat="49.87234" lon="4.75806">
        <ele>391</ele>
        <time>2022-06-06T09:17:55.000Z</time>
      </trkpt>
      <trkpt lat="49.87235" lon="4.75808">
        <ele>391</ele>
        <time>2022-06-06T09:17:56.000Z</time>
      </trkpt>
      <trkpt lat="49.87236" lon="4.7581">
        <ele>391</ele>
        <time>2022-06-06T09:17:57.000Z</time>
      </trkpt>
      <trkpt lat="49.87237" lon="4.75812">
        <ele>391</ele>
        <time>2022-06-06T09:17:58.000Z</time>
      </trkpt>
      <trkpt lat="49.87238" lon="4.75814">
        <ele>392</ele>
        <time>2022-06-06T09:17:59.000Z</time>
      </trkpt>
      <trkpt lat="49.87239" lon="4.75816">
        <ele>392</ele>
        <time>2022-06-06T09:18:00.000Z</time>
      </trkpt>
      <trkpt lat="49.87239" lon="4.75818">
        <ele>392</ele>
        <time>2022-06-06T09:18:01.000Z</time>
      </trkpt>
      <trkpt lat="49.8724" lon="4.7582">
        <ele>392</ele>
        <time>2022-06-06T09:18:02.000Z</time>
      </trkpt>
      <trkpt lat="49.87241" lon="4.75822">
        <ele>392</ele>
        <time>2022-06-06T09:18:03.000Z</time>
      </trkpt>
      <trkpt lat="49.87242" lon="4.75825">
        <ele>393</ele>
        <time>2022-06-06T09:18:04.000Z</time>
      </trkpt>
      <trkpt lat="49.87243" lon="4.75827">
        <ele>393</ele>
        <time>2022-06-06T09:18:05.000Z</time>
      </trkpt>
      <trkpt lat="49.87244" lon="4.75829">
        <ele>393</ele>
        <time>2022-06-06T09:18:06.000Z</time>
      </trkpt>
      <trkpt lat="49.87245" lon="4.75831">
        <ele>393</ele>
        <time>2022-06-06T09:18:07.000Z</time>
      </trkpt>
      <trkpt lat="49.87246" lon="4.75833">
        <ele>394</ele>
        <time>2022-06-06T09:18:08.000Z</time>
      </trkpt>
      <trkpt lat="49.87248" lon="4.75836">
        <ele>394</ele>
        <time>2022-06-06T09:18:09.000Z</time>
      </trkpt>
      <trkpt lat="49.87249" lon="4.75838">
        <ele>394</ele>
        <time>2022-06-06T09:18:10.000Z</time>
      </trkpt>
      <trkpt lat="49.8725" lon="4.75841">
        <ele>394</ele>
        <time>2022-06-06T09:18:11.000Z</time>
      </trkpt>
      <trkpt lat="49.8725" lon="4.75843">
        <ele>394</ele>
        <time>2022-06-06T09:18:12.000Z</time>
      </trkpt>
      <trkpt lat="49.87251" lon="4.75846">
        <ele>394</ele>
        <time>2022-06-06T09:18:13.000Z</time>
      </trkpt>
      <trkpt lat="49.87252" lon="4.75848">
        <ele>394</ele>
        <time>2022-06-06T09:18:14.000Z</time>
      </trkpt>
      <trkpt lat="49.87253" lon="4.75851">
        <ele>395</ele>
        <time>2022-06-06T09:18:15.000Z</time>
      </trkpt>
      <trkpt lat="49.87255" lon="4.75853">
        <ele>395</ele>
        <time>2022-06-06T09:18:16.000Z</time>
      </trkpt>
      <trkpt lat="49.87256" lon="4.75856">
        <ele>395</ele>
        <time>2022-06-06T09:18:17.000Z</time>
      </trkpt>
      <trkpt lat="49.87257" lon="4.75858">
        <ele>395</ele>
        <time>2022-06-06T09:18:18.000Z</time>
      </trkpt>
      <trkpt lat="49.87259" lon="4.7586">
        <ele>395</ele>
        <time>2022-06-06T09:18:19.000Z</time>
      </trkpt>
      <trkpt lat="49.87261" lon="4.75863">
        <ele>395</ele>
        <time>2022-06-06T09:18:20.000Z</time>
      </trkpt>
      <trkpt lat="49.87263" lon="4.75866">
        <ele>395</ele>
        <time>2022-06-06T09:18:21.000Z</time>
      </trkpt>
      <trkpt lat="49.87264" lon="4.75868">
        <ele>395</ele>
        <time>2022-06-06T09:18:22.000Z</time>
      </trkpt>
      <trkpt lat="49.87265" lon="4.75872">
        <ele>395</ele>
        <time>2022-06-06T09:18:23.000Z</time>
      </trkpt>
      <trkpt lat="49.87267" lon="4.75875">
        <ele>395</ele>
        <time>2022-06-06T09:18:24.000Z</time>
      </trkpt>
      <trkpt lat="49.87268" lon="4.75878">
        <ele>395</ele>
        <time>2022-06-06T09:18:25.000Z</time>
      </trkpt>
      <trkpt lat="49.8727" lon="4.75881">
        <ele>395</ele>
        <time>2022-06-06T09:18:26.000Z</time>
      </trkpt>
      <trkpt lat="49.87272" lon="4.75884">
        <ele>395</ele>
        <time>2022-06-06T09:18:27.000Z</time>
      </trkpt>
      <trkpt lat="49.87273" lon="4.75887">
        <ele>395</ele>
        <time>2022-06-06T09:18:28.000Z</time>
      </trkpt>
      <trkpt lat="49.87274" lon="4.7589">
        <ele>395</ele>
        <time>2022-06-06T09:18:29.000Z</time>
      </trkpt>
      <trkpt lat="49.87275" lon="4.75892">
        <ele>395</ele>
        <time>2022-06-06T09:18:30.000Z</time>
      </trkpt>
      <trkpt lat="49.87276" lon="4.75894">
        <ele>395</ele>
        <time>2022-06-06T09:18:31.000Z</time>
      </trkpt>
      <trkpt lat="49.87277" lon="4.75896">
        <ele>395</ele>
        <time>2022-06-06T09:18:32.000Z</time>
      </trkpt>
      <trkpt lat="49.87279" lon="4.75899">
        <ele>396</ele>
        <time>2022-06-06T09:18:33.000Z</time>
      </trkpt>
      <trkpt lat="49.8728" lon="4.75902">
        <ele>396</ele>
        <time>2022-06-06T09:18:34.000Z</time>
      </trkpt>
      <trkpt lat="49.87282" lon="4.75904">
        <ele>396</ele>
        <time>2022-06-06T09:18:35.000Z</time>
      </trkpt>
      <trkpt lat="49.87284" lon="4.75907">
        <ele>396</ele>
        <time>2022-06-06T09:18:36.000Z</time>
      </trkpt>
      <trkpt lat="49.87286" lon="4.75911">
        <ele>396</ele>
        <time>2022-06-06T09:18:37.000Z</time>
      </trkpt>
      <trkpt lat="49.87288" lon="4.75914">
        <ele>396</ele>
        <time>2022-06-06T09:18:38.000Z</time>
      </trkpt>
      <trkpt lat="49.87289" lon="4.75918">
        <ele>396</ele>
        <time>2022-06-06T09:18:39.000Z</time>
      </trkpt>
      <trkpt lat="49.87291" lon="4.75922">
        <ele>396</ele>
        <time>2022-06-06T09:18:40.000Z</time>
      </trkpt>
      <trkpt lat="49.87293" lon="4.75925">
        <ele>396</ele>
        <time>2022-06-06T09:18:41.000Z</time>
      </trkpt>
      <trkpt lat="49.87294" lon="4.75929">
        <ele>396</ele>
        <time>2022-06-06T09:18:42.000Z</time>
      </trkpt>
      <trkpt lat="49.87296" lon="4.75932">
        <ele>397</ele>
        <time>2022-06-06T09:18:43.000Z</time>
      </trkpt>
      <trkpt lat="49.87297" lon="4.75935">
        <ele>397</ele>
        <time>2022-06-06T09:18:44.000Z</time>
      </trkpt>
      <trkpt lat="49.87298" lon="4.75938">
        <ele>397</ele>
        <time>2022-06-06T09:18:45.000Z</time>
      </trkpt>
      <trkpt lat="49.87299" lon="4.7594">
        <ele>397</ele>
        <time>2022-06-06T09:18:46.000Z</time>
      </trkpt>
      <trkpt lat="49.873" lon="4.75942">
        <ele>397</ele>
        <time>2022-06-06T09:18:47.000Z</time>
      </trkpt>
      <trkpt lat="49.87301" lon="4.75943">
        <ele>398</ele>
        <time>2022-06-06T09:18:48.000Z</time>
      </trkpt>
      <trkpt lat="49.87302" lon="4.75945">
        <ele>398</ele>
        <time>2022-06-06T09:18:49.000Z</time>
      </trkpt>
      <trkpt lat="49.87304" lon="4.75947">
        <ele>398</ele>
        <time>2022-06-06T09:18:50.000Z</time>
      </trkpt>
      <trkpt lat="49.87306" lon="4.7595">
        <ele>399</ele>
        <time>2022-06-06T09:18:51.000Z</time>
      </trkpt>
      <trkpt lat="49.87308" lon="4.75953">
        <ele>399</ele>
        <time>2022-06-06T09:18:52.000Z</time>
      </trkpt>
      <trkpt lat="49.8731" lon="4.75957">
        <ele>399</ele>
        <time>2022-06-06T09:18:53.000Z</time>
      </trkpt>
      <trkpt lat="49.87312" lon="4.7596">
        <ele>400</ele>
        <time>2022-06-06T09:18:54.000Z</time>
      </trkpt>
      <trkpt lat="49.87314" lon="4.75964">
        <ele>400</ele>
        <time>2022-06-06T09:18:55.000Z</time>
      </trkpt>
      <trkpt lat="49.87317" lon="4.75967">
        <ele>400</ele>
        <time>2022-06-06T09:18:56.000Z</time>
      </trkpt>
      <trkpt lat="49.87319" lon="4.7597">
        <ele>401</ele>
        <time>2022-06-06T09:18:57.000Z</time>
      </trkpt>
      <trkpt lat="49.87321" lon="4.75972">
        <ele>401</ele>
        <time>2022-06-06T09:18:58.000Z</time>
      </trkpt>
      <trkpt lat="49.87324" lon="4.75974">
        <ele>401</ele>
        <time>2022-06-06T09:18:59.000Z</time>
      </trkpt>
      <trkpt lat="49.87326" lon="4.75976">
        <ele>402</ele>
        <time>2022-06-06T09:19:00.000Z</time>
      </trkpt>
      <trkpt lat="49.87329" lon="4.75979">
        <ele>402</ele>
        <time>2022-06-06T09:19:01.000Z</time>
      </trkpt>
      <trkpt lat="49.87332" lon="4.75982">
        <ele>402</ele>
        <time>2022-06-06T09:19:02.000Z</time>
      </trkpt>
      <trkpt lat="49.87334" lon="4.75986">
        <ele>402</ele>
        <time>2022-06-06T09:19:03.000Z</time>
      </trkpt>
      <trkpt lat="49.87336" lon="4.75989">
        <ele>403</ele>
        <time>2022-06-06T09:19:04.000Z</time>
      </trkpt>
      <trkpt lat="49.87339" lon="4.75993">
        <ele>403</ele>
        <time>2022-06-06T09:19:05.000Z</time>
      </trkpt>
      <trkpt lat="49.87341" lon="4.75996">
        <ele>403</ele>
        <time>2022-06-06T09:19:06.000Z</time>
      </trkpt>
      <trkpt lat="49.87344" lon="4.76">
        <ele>403</ele>
        <time>2022-06-06T09:19:07.000Z</time>
      </trkpt>
      <trkpt lat="49.87346" lon="4.76003">
        <ele>403</ele>
        <time>2022-06-06T09:19:08.000Z</time>
      </trkpt>
      <trkpt lat="49.87349" lon="4.76006">
        <ele>403</ele>
        <time>2022-06-06T09:19:09.000Z</time>
      </trkpt>
      <trkpt lat="49.87351" lon="4.7601">
        <ele>403</ele>
        <time>2022-06-06T09:19:10.000Z</time>
      </trkpt>
      <trkpt lat="49.87353" lon="4.76013">
        <ele>404</ele>
        <time>2022-06-06T09:19:11.000Z</time>
      </trkpt>
      <trkpt lat="49.87355" lon="4.76016">
        <ele>404</ele>
        <time>2022-06-06T09:19:12.000Z</time>
      </trkpt>
      <trkpt lat="49.87357" lon="4.7602">
        <ele>404</ele>
        <time>2022-06-06T09:19:13.000Z</time>
      </trkpt>
      <trkpt lat="49.87359" lon="4.76024">
        <ele>404</ele>
        <time>2022-06-06T09:19:14.000Z</time>
      </trkpt>
      <trkpt lat="49.87361" lon="4.76027">
        <ele>404</ele>
        <time>2022-06-06T09:19:15.000Z</time>
      </trkpt>
      <trkpt lat="49.87364" lon="4.76031">
        <ele>404</ele>
        <time>2022-06-06T09:19:16.000Z</time>
      </trkpt>
      <trkpt lat="49.87365" lon="4.76034">
        <ele>404</ele>
        <time>2022-06-06T09:19:17.000Z</time>
      </trkpt>
      <trkpt lat="49.87367" lon="4.76036">
        <ele>404</ele>
        <time>2022-06-06T09:19:18.000Z</time>
      </trkpt>
      <trkpt lat="49.87369" lon="4.76039">
        <ele>404</ele>
        <time>2022-06-06T09:19:19.000Z</time>
      </trkpt>
      <trkpt lat="49.87372" lon="4.76042">
        <ele>404</ele>
        <time>2022-06-06T09:19:20.000Z</time>
      </trkpt>
      <trkpt lat="49.87374" lon="4.76045">
        <ele>404</ele>
        <time>2022-06-06T09:19:21.000Z</time>
      </trkpt>
      <trkpt lat="49.87376" lon="4.76049">
        <ele>404</ele>
        <time>2022-06-06T09:19:22.000Z</time>
      </trkpt>
      <trkpt lat="49.87379" lon="4.76052">
        <ele>404</ele>
        <time>2022-06-06T09:19:23.000Z</time>
      </trkpt>
      <trkpt lat="49.87381" lon="4.76056">
        <ele>404</ele>
        <time>2022-06-06T09:19:24.000Z</time>
      </trkpt>
      <trkpt lat="49.87383" lon="4.7606">
        <ele>404</ele>
        <time>2022-06-06T09:19:25.000Z</time>
      </trkpt>
      <trkpt lat="49.87385" lon="4.76064">
        <ele>404</ele>
        <time>2022-06-06T09:19:26.000Z</time>
      </trkpt>
      <trkpt lat="49.87387" lon="4.76068">
        <ele>404</ele>
        <time>2022-06-06T09:19:27.000Z</time>
      </trkpt>
      <trkpt lat="49.87389" lon="4.76071">
        <ele>404</ele>
        <time>2022-06-06T09:19:28.000Z</time>
      </trkpt>
      <trkpt lat="49.8739" lon="4.76074">
        <ele>404</ele>
        <time>2022-06-06T09:19:29.000Z</time>
      </trkpt>
      <trkpt lat="49.87393" lon="4.76077">
        <ele>404</ele>
        <time>2022-06-06T09:19:30.000Z</time>
      </trkpt>
      <trkpt lat="49.87395" lon="4.7608">
        <ele>404</ele>
        <time>2022-06-06T09:19:31.000Z</time>
      </trkpt>
      <trkpt lat="49.87396" lon="4.76084">
        <ele>404</ele>
        <time>2022-06-06T09:19:32.000Z</time>
      </trkpt>
      <trkpt lat="49.87396" lon="4.76087">
        <ele>404</ele>
        <time>2022-06-06T09:19:33.000Z</time>
      </trkpt>
      <trkpt lat="49.87396" lon="4.76089">
        <ele>404</ele>
        <time>2022-06-06T09:19:34.000Z</time>
      </trkpt>
      <trkpt lat="49.87396" lon="4.76089">
        <ele>404</ele>
        <time>2022-06-06T09:19:35.000Z</time>
      </trkpt>
      <trkpt lat="49.87397" lon="4.7609">
        <ele>404</ele>
        <time>2022-06-06T09:19:36.000Z</time>
      </trkpt>
      <trkpt lat="49.87397" lon="4.7609">
        <ele>404</ele>
        <time>2022-06-06T09:19:37.000Z</time>
      </trkpt>
      <trkpt lat="49.87397" lon="4.76091">
        <ele>404</ele>
        <time>2022-06-06T09:19:38.000Z</time>
      </trkpt>
      <trkpt lat="49.87398" lon="4.76091">
        <ele>404</ele>
        <time>2022-06-06T09:19:39.000Z</time>
      </trkpt>
      <trkpt lat="49.87398" lon="4.76092">
        <ele>404</ele>
        <time>2022-06-06T09:19:40.000Z</time>
      </trkpt>
      <trkpt lat="49.87398" lon="4.76092">
        <ele>404</ele>
        <time>2022-06-06T09:19:41.000Z</time>
      </trkpt>
      <trkpt lat="49.87399" lon="4.76092">
        <ele>404</ele>
        <time>2022-06-06T09:19:42.000Z</time>
      </trkpt>
      <trkpt lat="49.87398" lon="4.76093">
        <ele>404</ele>
        <time>2022-06-06T09:19:43.000Z</time>
      </trkpt>
      <trkpt lat="49.87397" lon="4.76095">
        <ele>404</ele>
        <time>2022-06-06T09:19:44.000Z</time>
      </trkpt>
      <trkpt lat="49.87396" lon="4.76097">
        <ele>404</ele>
        <time>2022-06-06T09:19:45.000Z</time>
      </trkpt>
      <trkpt lat="49.87395" lon="4.76099">
        <ele>404</ele>
        <time>2022-06-06T09:19:46.000Z</time>
      </trkpt>
      <trkpt lat="49.87394" lon="4.76102">
        <ele>403</ele>
        <time>2022-06-06T09:19:47.000Z</time>
      </trkpt>
      <trkpt lat="49.87391" lon="4.76106">
        <ele>403</ele>
        <time>2022-06-06T09:19:48.000Z</time>
      </trkpt>
      <trkpt lat="49.87389" lon="4.76111">
        <ele>403</ele>
        <time>2022-06-06T09:19:49.000Z</time>
      </trkpt>
      <trkpt lat="49.87387" lon="4.76116">
        <ele>403</ele>
        <time>2022-06-06T09:19:50.000Z</time>
      </trkpt>
      <trkpt lat="49.87385" lon="4.7612">
        <ele>403</ele>
        <time>2022-06-06T09:19:51.000Z</time>
      </trkpt>
      <trkpt lat="49.87383" lon="4.76124">
        <ele>402</ele>
        <time>2022-06-06T09:19:52.000Z</time>
      </trkpt>
      <trkpt lat="49.87381" lon="4.76129">
        <ele>402</ele>
        <time>2022-06-06T09:19:53.000Z</time>
      </trkpt>
      <trkpt lat="49.87379" lon="4.76133">
        <ele>402</ele>
        <time>2022-06-06T09:19:54.000Z</time>
      </trkpt>
      <trkpt lat="49.87377" lon="4.76137">
        <ele>402</ele>
        <time>2022-06-06T09:19:55.000Z</time>
      </trkpt>
      <trkpt lat="49.87375" lon="4.76142">
        <ele>402</ele>
        <time>2022-06-06T09:19:56.000Z</time>
      </trkpt>
      <trkpt lat="49.87373" lon="4.76147">
        <ele>402</ele>
        <time>2022-06-06T09:19:57.000Z</time>
      </trkpt>
      <trkpt lat="49.87371" lon="4.76152">
        <ele>402</ele>
        <time>2022-06-06T09:19:58.000Z</time>
      </trkpt>
      <trkpt lat="49.8737" lon="4.76158">
        <ele>402</ele>
        <time>2022-06-06T09:19:59.000Z</time>
      </trkpt>
      <trkpt lat="49.87368" lon="4.76163">
        <ele>402</ele>
        <time>2022-06-06T09:20:00.000Z</time>
      </trkpt>
      <trkpt lat="49.87366" lon="4.76169">
        <ele>402</ele>
        <time>2022-06-06T09:20:01.000Z</time>
      </trkpt>
      <trkpt lat="49.87365" lon="4.76175">
        <ele>402</ele>
        <time>2022-06-06T09:20:02.000Z</time>
      </trkpt>
      <trkpt lat="49.87363" lon="4.76182">
        <ele>402</ele>
        <time>2022-06-06T09:20:03.000Z</time>
      </trkpt>
      <trkpt lat="49.87362" lon="4.76188">
        <ele>402</ele>
        <time>2022-06-06T09:20:04.000Z</time>
      </trkpt>
      <trkpt lat="49.87359" lon="4.76195">
        <ele>402</ele>
        <time>2022-06-06T09:20:05.000Z</time>
      </trkpt>
      <trkpt lat="49.87358" lon="4.76201">
        <ele>402</ele>
        <time>2022-06-06T09:20:06.000Z</time>
      </trkpt>
      <trkpt lat="49.87357" lon="4.76208">
        <ele>402</ele>
        <time>2022-06-06T09:20:07.000Z</time>
      </trkpt>
      <trkpt lat="49.87356" lon="4.76215">
        <ele>402</ele>
        <time>2022-06-06T09:20:08.000Z</time>
      </trkpt>
      <trkpt lat="49.87355" lon="4.76221">
        <ele>402</ele>
        <time>2022-06-06T09:20:09.000Z</time>
      </trkpt>
      <trkpt lat="49.87353" lon="4.76228">
        <ele>402</ele>
        <time>2022-06-06T09:20:10.000Z</time>
      </trkpt>
      <trkpt lat="49.87351" lon="4.76234">
        <ele>402</ele>
        <time>2022-06-06T09:20:11.000Z</time>
      </trkpt>
      <trkpt lat="49.8735" lon="4.7624">
        <ele>402</ele>
        <time>2022-06-06T09:20:12.000Z</time>
      </trkpt>
      <trkpt lat="49.87348" lon="4.76247">
        <ele>402</ele>
        <time>2022-06-06T09:20:13.000Z</time>
      </trkpt>
      <trkpt lat="49.87346" lon="4.76255">
        <ele>401</ele>
        <time>2022-06-06T09:20:14.000Z</time>
      </trkpt>
      <trkpt lat="49.87344" lon="4.76261">
        <ele>401</ele>
        <time>2022-06-06T09:20:15.000Z</time>
      </trkpt>
      <trkpt lat="49.87342" lon="4.76267">
        <ele>401</ele>
        <time>2022-06-06T09:20:16.000Z</time>
      </trkpt>
      <trkpt lat="49.87341" lon="4.76275">
        <ele>401</ele>
        <time>2022-06-06T09:20:17.000Z</time>
      </trkpt>
      <trkpt lat="49.87339" lon="4.76282">
        <ele>401</ele>
        <time>2022-06-06T09:20:18.000Z</time>
      </trkpt>
      <trkpt lat="49.87338" lon="4.76288">
        <ele>401</ele>
        <time>2022-06-06T09:20:19.000Z</time>
      </trkpt>
      <trkpt lat="49.87337" lon="4.76295">
        <ele>400</ele>
        <time>2022-06-06T09:20:20.000Z</time>
      </trkpt>
      <trkpt lat="49.87336" lon="4.763">
        <ele>400</ele>
        <time>2022-06-06T09:20:21.000Z</time>
      </trkpt>
      <trkpt lat="49.87335" lon="4.76307">
        <ele>400</ele>
        <time>2022-06-06T09:20:22.000Z</time>
      </trkpt>
      <trkpt lat="49.87333" lon="4.76315">
        <ele>400</ele>
        <time>2022-06-06T09:20:23.000Z</time>
      </trkpt>
      <trkpt lat="49.87332" lon="4.76322">
        <ele>400</ele>
        <time>2022-06-06T09:20:24.000Z</time>
      </trkpt>
      <trkpt lat="49.8733" lon="4.76329">
        <ele>400</ele>
        <time>2022-06-06T09:20:25.000Z</time>
      </trkpt>
      <trkpt lat="49.87328" lon="4.76335">
        <ele>400</ele>
        <time>2022-06-06T09:20:26.000Z</time>
      </trkpt>
      <trkpt lat="49.87326" lon="4.76341">
        <ele>399</ele>
        <time>2022-06-06T09:20:27.000Z</time>
      </trkpt>
      <trkpt lat="49.87324" lon="4.76346">
        <ele>399</ele>
        <time>2022-06-06T09:20:28.000Z</time>
      </trkpt>
      <trkpt lat="49.87322" lon="4.7635">
        <ele>399</ele>
        <time>2022-06-06T09:20:29.000Z</time>
      </trkpt>
      <trkpt lat="49.8732" lon="4.76355">
        <ele>399</ele>
        <time>2022-06-06T09:20:30.000Z</time>
      </trkpt>
      <trkpt lat="49.87318" lon="4.76359">
        <ele>398</ele>
        <time>2022-06-06T09:20:31.000Z</time>
      </trkpt>
      <trkpt lat="49.87316" lon="4.76362">
        <ele>398</ele>
        <time>2022-06-06T09:20:32.000Z</time>
      </trkpt>
      <trkpt lat="49.87314" lon="4.76365">
        <ele>398</ele>
        <time>2022-06-06T09:20:33.000Z</time>
      </trkpt>
      <trkpt lat="49.87312" lon="4.7637">
        <ele>398</ele>
        <time>2022-06-06T09:20:34.000Z</time>
      </trkpt>
      <trkpt lat="49.87309" lon="4.76375">
        <ele>397</ele>
        <time>2022-06-06T09:20:35.000Z</time>
      </trkpt>
      <trkpt lat="49.87306" lon="4.76381">
        <ele>397</ele>
        <time>2022-06-06T09:20:36.000Z</time>
      </trkpt>
      <trkpt lat="49.87303" lon="4.76389">
        <ele>397</ele>
        <time>2022-06-06T09:20:37.000Z</time>
      </trkpt>
      <trkpt lat="49.87301" lon="4.76397">
        <ele>396</ele>
        <time>2022-06-06T09:20:38.000Z</time>
      </trkpt>
      <trkpt lat="49.87299" lon="4.76403">
        <ele>396</ele>
        <time>2022-06-06T09:20:39.000Z</time>
      </trkpt>
      <trkpt lat="49.87297" lon="4.7641">
        <ele>395</ele>
        <time>2022-06-06T09:20:40.000Z</time>
      </trkpt>
      <trkpt lat="49.87295" lon="4.76417">
        <ele>395</ele>
        <time>2022-06-06T09:20:41.000Z</time>
      </trkpt>
      <trkpt lat="49.87293" lon="4.76423">
        <ele>395</ele>
        <time>2022-06-06T09:20:42.000Z</time>
      </trkpt>
      <trkpt lat="49.87291" lon="4.7643">
        <ele>394</ele>
        <time>2022-06-06T09:20:43.000Z</time>
      </trkpt>
      <trkpt lat="49.8729" lon="4.76437">
        <ele>394</ele>
        <time>2022-06-06T09:20:44.000Z</time>
      </trkpt>
      <trkpt lat="49.87288" lon="4.76442">
        <ele>393</ele>
        <time>2022-06-06T09:20:45.000Z</time>
      </trkpt>
      <trkpt lat="49.87286" lon="4.76449">
        <ele>393</ele>
        <time>2022-06-06T09:20:46.000Z</time>
      </trkpt>
      <trkpt lat="49.87285" lon="4.76455">
        <ele>392</ele>
        <time>2022-06-06T09:20:47.000Z</time>
      </trkpt>
      <trkpt lat="49.87284" lon="4.76459">
        <ele>392</ele>
        <time>2022-06-06T09:20:48.000Z</time>
      </trkpt>
      <trkpt lat="49.87283" lon="4.76463">
        <ele>391</ele>
        <time>2022-06-06T09:20:49.000Z</time>
      </trkpt>
      <trkpt lat="49.87282" lon="4.76464">
        <ele>390</ele>
        <time>2022-06-06T09:20:50.000Z</time>
      </trkpt>
      <trkpt lat="49.87282" lon="4.76465">
        <ele>390</ele>
        <time>2022-06-06T09:20:51.000Z</time>
      </trkpt>
      <trkpt lat="49.87282" lon="4.76466">
        <ele>389</ele>
        <time>2022-06-06T09:20:52.000Z</time>
      </trkpt>
      <trkpt lat="49.87282" lon="4.76466">
        <ele>388</ele>
        <time>2022-06-06T09:20:53.000Z</time>
      </trkpt>
      <trkpt lat="49.87282" lon="4.76467">
        <ele>388</ele>
        <time>2022-06-06T09:20:54.000Z</time>
      </trkpt>
      <trkpt lat="49.87282" lon="4.76469">
        <ele>387</ele>
        <time>2022-06-06T09:20:55.000Z</time>
      </trkpt>
      <trkpt lat="49.87281" lon="4.7647">
        <ele>387</ele>
        <time>2022-06-06T09:20:56.000Z</time>
      </trkpt>
      <trkpt lat="49.8728" lon="4.76472">
        <ele>386</ele>
        <time>2022-06-06T09:20:57.000Z</time>
      </trkpt>
      <trkpt lat="49.87279" lon="4.76474">
        <ele>386</ele>
        <time>2022-06-06T09:20:58.000Z</time>
      </trkpt>
      <trkpt lat="49.87278" lon="4.76476">
        <ele>385</ele>
        <time>2022-06-06T09:20:59.000Z</time>
      </trkpt>
      <trkpt lat="49.87275" lon="4.76478">
        <ele>384</ele>
        <time>2022-06-06T09:21:00.000Z</time>
      </trkpt>
      <trkpt lat="49.87273" lon="4.76481">
        <ele>384</ele>
        <time>2022-06-06T09:21:01.000Z</time>
      </trkpt>
      <trkpt lat="49.87271" lon="4.76483">
        <ele>383</ele>
        <time>2022-06-06T09:21:02.000Z</time>
      </trkpt>
      <trkpt lat="49.87268" lon="4.76485">
        <ele>382</ele>
        <time>2022-06-06T09:21:03.000Z</time>
      </trkpt>
      <trkpt lat="49.87267" lon="4.76486">
        <ele>382</ele>
        <time>2022-06-06T09:21:04.000Z</time>
      </trkpt>
      <trkpt lat="49.87265" lon="4.76488">
        <ele>381</ele>
        <time>2022-06-06T09:21:05.000Z</time>
      </trkpt>
      <trkpt lat="49.87263" lon="4.7649">
        <ele>380</ele>
        <time>2022-06-06T09:21:06.000Z</time>
      </trkpt>
      <trkpt lat="49.87261" lon="4.76493">
        <ele>379</ele>
        <time>2022-06-06T09:21:07.000Z</time>
      </trkpt>
      <trkpt lat="49.87258" lon="4.76496">
        <ele>379</ele>
        <time>2022-06-06T09:21:08.000Z</time>
      </trkpt>
      <trkpt lat="49.87256" lon="4.765">
        <ele>378</ele>
        <time>2022-06-06T09:21:09.000Z</time>
      </trkpt>
      <trkpt lat="49.87254" lon="4.76503">
        <ele>377</ele>
        <time>2022-06-06T09:21:10.000Z</time>
      </trkpt>
      <trkpt lat="49.87252" lon="4.76505">
        <ele>377</ele>
        <time>2022-06-06T09:21:11.000Z</time>
      </trkpt>
      <trkpt lat="49.87249" lon="4.76508">
        <ele>376</ele>
        <time>2022-06-06T09:21:12.000Z</time>
      </trkpt>
      <trkpt lat="49.87247" lon="4.7651">
        <ele>376</ele>
        <time>2022-06-06T09:21:13.000Z</time>
      </trkpt>
      <trkpt lat="49.87244" lon="4.76512">
        <ele>375</ele>
        <time>2022-06-06T09:21:14.000Z</time>
      </trkpt>
      <trkpt lat="49.87241" lon="4.76513">
        <ele>374</ele>
        <time>2022-06-06T09:21:15.000Z</time>
      </trkpt>
      <trkpt lat="49.87238" lon="4.76513">
        <ele>374</ele>
        <time>2022-06-06T09:21:16.000Z</time>
      </trkpt>
      <trkpt lat="49.87236" lon="4.76512">
        <ele>373</ele>
        <time>2022-06-06T09:21:17.000Z</time>
      </trkpt>
      <trkpt lat="49.87234" lon="4.76512">
        <ele>373</ele>
        <time>2022-06-06T09:21:18.000Z</time>
      </trkpt>
      <trkpt lat="49.87232" lon="4.76513">
        <ele>372</ele>
        <time>2022-06-06T09:21:19.000Z</time>
      </trkpt>
      <trkpt lat="49.87229" lon="4.76514">
        <ele>372</ele>
        <time>2022-06-06T09:21:20.000Z</time>
      </trkpt>
      <trkpt lat="49.87227" lon="4.76515">
        <ele>371</ele>
        <time>2022-06-06T09:21:21.000Z</time>
      </trkpt>
      <trkpt lat="49.87225" lon="4.76517">
        <ele>371</ele>
        <time>2022-06-06T09:21:22.000Z</time>
      </trkpt>
      <trkpt lat="49.87224" lon="4.76517">
        <ele>371</ele>
        <time>2022-06-06T09:21:23.000Z</time>
      </trkpt>
      <trkpt lat="49.87222" lon="4.7652">
        <ele>370</ele>
        <time>2022-06-06T09:21:24.000Z</time>
      </trkpt>
      <trkpt lat="49.8722" lon="4.76522">
        <ele>370</ele>
        <time>2022-06-06T09:21:25.000Z</time>
      </trkpt>
      <trkpt lat="49.87218" lon="4.76524">
        <ele>369</ele>
        <time>2022-06-06T09:21:26.000Z</time>
      </trkpt>
      <trkpt lat="49.87216" lon="4.76527">
        <ele>369</ele>
        <time>2022-06-06T09:21:27.000Z</time>
      </trkpt>
      <trkpt lat="49.87214" lon="4.76529">
        <ele>369</ele>
        <time>2022-06-06T09:21:28.000Z</time>
      </trkpt>
      <trkpt lat="49.87213" lon="4.76532">
        <ele>368</ele>
        <time>2022-06-06T09:21:29.000Z</time>
      </trkpt>
      <trkpt lat="49.8721" lon="4.76535">
        <ele>368</ele>
        <time>2022-06-06T09:21:30.000Z</time>
      </trkpt>
      <trkpt lat="49.87207" lon="4.76538">
        <ele>368</ele>
        <time>2022-06-06T09:21:31.000Z</time>
      </trkpt>
      <trkpt lat="49.87205" lon="4.76542">
        <ele>367</ele>
        <time>2022-06-06T09:21:32.000Z</time>
      </trkpt>
      <trkpt lat="49.87202" lon="4.76546">
        <ele>367</ele>
        <time>2022-06-06T09:21:33.000Z</time>
      </trkpt>
      <trkpt lat="49.87199" lon="4.76549">
        <ele>366</ele>
        <time>2022-06-06T09:21:34.000Z</time>
      </trkpt>
      <trkpt lat="49.87197" lon="4.76551">
        <ele>366</ele>
        <time>2022-06-06T09:21:35.000Z</time>
      </trkpt>
      <trkpt lat="49.87195" lon="4.76553">
        <ele>366</ele>
        <time>2022-06-06T09:21:36.000Z</time>
      </trkpt>
      <trkpt lat="49.87194" lon="4.76555">
        <ele>365</ele>
        <time>2022-06-06T09:21:37.000Z</time>
      </trkpt>
      <trkpt lat="49.87193" lon="4.76556">
        <ele>365</ele>
        <time>2022-06-06T09:21:38.000Z</time>
      </trkpt>
      <trkpt lat="49.87191" lon="4.76559">
        <ele>364</ele>
        <time>2022-06-06T09:21:39.000Z</time>
      </trkpt>
      <trkpt lat="49.87189" lon="4.76561">
        <ele>364</ele>
        <time>2022-06-06T09:21:40.000Z</time>
      </trkpt>
      <trkpt lat="49.87187" lon="4.76563">
        <ele>363</ele>
        <time>2022-06-06T09:21:41.000Z</time>
      </trkpt>
      <trkpt lat="49.87185" lon="4.76565">
        <ele>363</ele>
        <time>2022-06-06T09:21:42.000Z</time>
      </trkpt>
      <trkpt lat="49.87182" lon="4.76566">
        <ele>362</ele>
        <time>2022-06-06T09:21:43.000Z</time>
      </trkpt>
      <trkpt lat="49.87179" lon="4.76568">
        <ele>361</ele>
        <time>2022-06-06T09:21:44.000Z</time>
      </trkpt>
      <trkpt lat="49.87176" lon="4.76569">
        <ele>361</ele>
        <time>2022-06-06T09:21:45.000Z</time>
      </trkpt>
      <trkpt lat="49.87173" lon="4.76569">
        <ele>360</ele>
        <time>2022-06-06T09:21:46.000Z</time>
      </trkpt>
      <trkpt lat="49.87169" lon="4.7657">
        <ele>359</ele>
        <time>2022-06-06T09:21:47.000Z</time>
      </trkpt>
      <trkpt lat="49.87167" lon="4.7657">
        <ele>359</ele>
        <time>2022-06-06T09:21:48.000Z</time>
      </trkpt>
      <trkpt lat="49.87165" lon="4.76572">
        <ele>358</ele>
        <time>2022-06-06T09:21:49.000Z</time>
      </trkpt>
      <trkpt lat="49.87162" lon="4.76573">
        <ele>357</ele>
        <time>2022-06-06T09:21:50.000Z</time>
      </trkpt>
      <trkpt lat="49.87159" lon="4.76575">
        <ele>356</ele>
        <time>2022-06-06T09:21:51.000Z</time>
      </trkpt>
      <trkpt lat="49.87156" lon="4.76578">
        <ele>356</ele>
        <time>2022-06-06T09:21:52.000Z</time>
      </trkpt>
      <trkpt lat="49.87153" lon="4.76581">
        <ele>355</ele>
        <time>2022-06-06T09:21:53.000Z</time>
      </trkpt>
      <trkpt lat="49.87149" lon="4.76585">
        <ele>355</ele>
        <time>2022-06-06T09:21:54.000Z</time>
      </trkpt>
      <trkpt lat="49.87146" lon="4.76588">
        <ele>354</ele>
        <time>2022-06-06T09:21:55.000Z</time>
      </trkpt>
      <trkpt lat="49.87142" lon="4.76591">
        <ele>353</ele>
        <time>2022-06-06T09:21:56.000Z</time>
      </trkpt>
      <trkpt lat="49.87139" lon="4.76595">
        <ele>353</ele>
        <time>2022-06-06T09:21:57.000Z</time>
      </trkpt>
      <trkpt lat="49.87136" lon="4.76598">
        <ele>352</ele>
        <time>2022-06-06T09:21:58.000Z</time>
      </trkpt>
      <trkpt lat="49.87134" lon="4.76601">
        <ele>352</ele>
        <time>2022-06-06T09:21:59.000Z</time>
      </trkpt>
      <trkpt lat="49.87131" lon="4.76605">
        <ele>351</ele>
        <time>2022-06-06T09:22:00.000Z</time>
      </trkpt>
      <trkpt lat="49.87128" lon="4.76608">
        <ele>351</ele>
        <time>2022-06-06T09:22:01.000Z</time>
      </trkpt>
      <trkpt lat="49.87125" lon="4.76612">
        <ele>350</ele>
        <time>2022-06-06T09:22:02.000Z</time>
      </trkpt>
      <trkpt lat="49.87123" lon="4.76614">
        <ele>349</ele>
        <time>2022-06-06T09:22:03.000Z</time>
      </trkpt>
      <trkpt lat="49.87121" lon="4.76616">
        <ele>349</ele>
        <time>2022-06-06T09:22:04.000Z</time>
      </trkpt>
      <trkpt lat="49.87119" lon="4.76618">
        <ele>348</ele>
        <time>2022-06-06T09:22:05.000Z</time>
      </trkpt>
      <trkpt lat="49.87117" lon="4.76619">
        <ele>347</ele>
        <time>2022-06-06T09:22:06.000Z</time>
      </trkpt>
      <trkpt lat="49.87116" lon="4.76621">
        <ele>347</ele>
        <time>2022-06-06T09:22:07.000Z</time>
      </trkpt>
      <trkpt lat="49.87114" lon="4.76622">
        <ele>346</ele>
        <time>2022-06-06T09:22:08.000Z</time>
      </trkpt>
      <trkpt lat="49.87113" lon="4.76623">
        <ele>345</ele>
        <time>2022-06-06T09:22:09.000Z</time>
      </trkpt>
      <trkpt lat="49.87112" lon="4.76623">
        <ele>345</ele>
        <time>2022-06-06T09:22:10.000Z</time>
      </trkpt>
      <trkpt lat="49.87111" lon="4.76625">
        <ele>344</ele>
        <time>2022-06-06T09:22:11.000Z</time>
      </trkpt>
      <trkpt lat="49.87109" lon="4.76627">
        <ele>344</ele>
        <time>2022-06-06T09:22:12.000Z</time>
      </trkpt>
      <trkpt lat="49.87107" lon="4.76629">
        <ele>343</ele>
        <time>2022-06-06T09:22:13.000Z</time>
      </trkpt>
      <trkpt lat="49.87106" lon="4.76631">
        <ele>342</ele>
        <time>2022-06-06T09:22:14.000Z</time>
      </trkpt>
      <trkpt lat="49.87104" lon="4.76634">
        <ele>342</ele>
        <time>2022-06-06T09:22:15.000Z</time>
      </trkpt>
      <trkpt lat="49.87103" lon="4.76635">
        <ele>341</ele>
        <time>2022-06-06T09:22:16.000Z</time>
      </trkpt>
      <trkpt lat="49.87101" lon="4.76637">
        <ele>341</ele>
        <time>2022-06-06T09:22:17.000Z</time>
      </trkpt>
      <trkpt lat="49.87099" lon="4.7664">
        <ele>340</ele>
        <time>2022-06-06T09:22:18.000Z</time>
      </trkpt>
      <trkpt lat="49.87097" lon="4.76643">
        <ele>340</ele>
        <time>2022-06-06T09:22:19.000Z</time>
      </trkpt>
      <trkpt lat="49.87095" lon="4.76646">
        <ele>339</ele>
        <time>2022-06-06T09:22:20.000Z</time>
      </trkpt>
      <trkpt lat="49.87093" lon="4.76648">
        <ele>339</ele>
        <time>2022-06-06T09:22:21.000Z</time>
      </trkpt>
      <trkpt lat="49.87091" lon="4.7665">
        <ele>338</ele>
        <time>2022-06-06T09:22:22.000Z</time>
      </trkpt>
      <trkpt lat="49.87089" lon="4.76653">
        <ele>338</ele>
        <time>2022-06-06T09:22:23.000Z</time>
      </trkpt>
      <trkpt lat="49.87086" lon="4.76655">
        <ele>337</ele>
        <time>2022-06-06T09:22:24.000Z</time>
      </trkpt>
      <trkpt lat="49.87084" lon="4.76657">
        <ele>337</ele>
        <time>2022-06-06T09:22:25.000Z</time>
      </trkpt>
      <trkpt lat="49.87081" lon="4.76659">
        <ele>336</ele>
        <time>2022-06-06T09:22:26.000Z</time>
      </trkpt>
      <trkpt lat="49.87078" lon="4.76662">
        <ele>335</ele>
        <time>2022-06-06T09:22:27.000Z</time>
      </trkpt>
      <trkpt lat="49.87076" lon="4.76664">
        <ele>335</ele>
        <time>2022-06-06T09:22:28.000Z</time>
      </trkpt>
      <trkpt lat="49.87074" lon="4.76664">
        <ele>334</ele>
        <time>2022-06-06T09:22:29.000Z</time>
      </trkpt>
      <trkpt lat="49.87072" lon="4.76663">
        <ele>334</ele>
        <time>2022-06-06T09:22:30.000Z</time>
      </trkpt>
      <trkpt lat="49.8707" lon="4.76663">
        <ele>333</ele>
        <time>2022-06-06T09:22:31.000Z</time>
      </trkpt>
      <trkpt lat="49.87067" lon="4.76663">
        <ele>333</ele>
        <time>2022-06-06T09:22:32.000Z</time>
      </trkpt>
      <trkpt lat="49.87063" lon="4.76661">
        <ele>332</ele>
        <time>2022-06-06T09:22:33.000Z</time>
      </trkpt>
      <trkpt lat="49.87059" lon="4.76661">
        <ele>332</ele>
        <time>2022-06-06T09:22:34.000Z</time>
      </trkpt>
      <trkpt lat="49.87056" lon="4.76661">
        <ele>331</ele>
        <time>2022-06-06T09:22:35.000Z</time>
      </trkpt>
      <trkpt lat="49.87052" lon="4.76662">
        <ele>331</ele>
        <time>2022-06-06T09:22:36.000Z</time>
      </trkpt>
      <trkpt lat="49.87049" lon="4.76662">
        <ele>330</ele>
        <time>2022-06-06T09:22:37.000Z</time>
      </trkpt>
      <trkpt lat="49.87046" lon="4.76662">
        <ele>329</ele>
        <time>2022-06-06T09:22:38.000Z</time>
      </trkpt>
      <trkpt lat="49.87042" lon="4.76661">
        <ele>328</ele>
        <time>2022-06-06T09:22:39.000Z</time>
      </trkpt>
      <trkpt lat="49.87039" lon="4.7666">
        <ele>328</ele>
        <time>2022-06-06T09:22:40.000Z</time>
      </trkpt>
      <trkpt lat="49.87037" lon="4.7666">
        <ele>327</ele>
        <time>2022-06-06T09:22:41.000Z</time>
      </trkpt>
      <trkpt lat="49.87034" lon="4.76659">
        <ele>326</ele>
        <time>2022-06-06T09:22:42.000Z</time>
      </trkpt>
      <trkpt lat="49.87032" lon="4.76658">
        <ele>326</ele>
        <time>2022-06-06T09:22:43.000Z</time>
      </trkpt>
      <trkpt lat="49.87029" lon="4.76657">
        <ele>325</ele>
        <time>2022-06-06T09:22:44.000Z</time>
      </trkpt>
      <trkpt lat="49.87025" lon="4.76657">
        <ele>324</ele>
        <time>2022-06-06T09:22:45.000Z</time>
      </trkpt>
      <trkpt lat="49.87022" lon="4.76656">
        <ele>324</ele>
        <time>2022-06-06T09:22:46.000Z</time>
      </trkpt>
      <trkpt lat="49.87019" lon="4.76655">
        <ele>323</ele>
        <time>2022-06-06T09:22:47.000Z</time>
      </trkpt>
      <trkpt lat="49.87016" lon="4.76655">
        <ele>322</ele>
        <time>2022-06-06T09:22:48.000Z</time>
      </trkpt>
      <trkpt lat="49.87014" lon="4.76654">
        <ele>322</ele>
        <time>2022-06-06T09:22:49.000Z</time>
      </trkpt>
      <trkpt lat="49.87012" lon="4.76654">
        <ele>321</ele>
        <time>2022-06-06T09:22:50.000Z</time>
      </trkpt>
      <trkpt lat="49.8701" lon="4.76653">
        <ele>320</ele>
        <time>2022-06-06T09:22:51.000Z</time>
      </trkpt>
      <trkpt lat="49.87007" lon="4.76652">
        <ele>320</ele>
        <time>2022-06-06T09:22:52.000Z</time>
      </trkpt>
      <trkpt lat="49.87005" lon="4.76651">
        <ele>319</ele>
        <time>2022-06-06T09:22:53.000Z</time>
      </trkpt>
      <trkpt lat="49.87002" lon="4.76651">
        <ele>318</ele>
        <time>2022-06-06T09:22:54.000Z</time>
      </trkpt>
      <trkpt lat="49.86999" lon="4.7665">
        <ele>318</ele>
        <time>2022-06-06T09:22:55.000Z</time>
      </trkpt>
      <trkpt lat="49.86996" lon="4.76649">
        <ele>317</ele>
        <time>2022-06-06T09:22:56.000Z</time>
      </trkpt>
      <trkpt lat="49.86994" lon="4.76649">
        <ele>316</ele>
        <time>2022-06-06T09:22:57.000Z</time>
      </trkpt>
      <trkpt lat="49.86991" lon="4.7665">
        <ele>316</ele>
        <time>2022-06-06T09:22:58.000Z</time>
      </trkpt>
      <trkpt lat="49.86989" lon="4.76649">
        <ele>315</ele>
        <time>2022-06-06T09:22:59.000Z</time>
      </trkpt>
      <trkpt lat="49.86988" lon="4.76649">
        <ele>315</ele>
        <time>2022-06-06T09:23:00.000Z</time>
      </trkpt>
      <trkpt lat="49.86986" lon="4.76649">
        <ele>315</ele>
        <time>2022-06-06T09:23:01.000Z</time>
      </trkpt>
      <trkpt lat="49.86985" lon="4.76649">
        <ele>314</ele>
        <time>2022-06-06T09:23:02.000Z</time>
      </trkpt>
      <trkpt lat="49.86982" lon="4.7665">
        <ele>314</ele>
        <time>2022-06-06T09:23:03.000Z</time>
      </trkpt>
      <trkpt lat="49.86979" lon="4.7665">
        <ele>313</ele>
        <time>2022-06-06T09:23:04.000Z</time>
      </trkpt>
      <trkpt lat="49.86977" lon="4.7665">
        <ele>313</ele>
        <time>2022-06-06T09:23:05.000Z</time>
      </trkpt>
      <trkpt lat="49.86974" lon="4.76651">
        <ele>312</ele>
        <time>2022-06-06T09:23:06.000Z</time>
      </trkpt>
      <trkpt lat="49.86971" lon="4.76652">
        <ele>312</ele>
        <time>2022-06-06T09:23:07.000Z</time>
      </trkpt>
      <trkpt lat="49.86969" lon="4.76653">
        <ele>311</ele>
        <time>2022-06-06T09:23:08.000Z</time>
      </trkpt>
      <trkpt lat="49.86967" lon="4.76653">
        <ele>311</ele>
        <time>2022-06-06T09:23:09.000Z</time>
      </trkpt>
      <trkpt lat="49.86965" lon="4.76655">
        <ele>311</ele>
        <time>2022-06-06T09:23:10.000Z</time>
      </trkpt>
      <trkpt lat="49.86963" lon="4.76656">
        <ele>310</ele>
        <time>2022-06-06T09:23:11.000Z</time>
      </trkpt>
      <trkpt lat="49.8696" lon="4.76657">
        <ele>310</ele>
        <time>2022-06-06T09:23:12.000Z</time>
      </trkpt>
      <trkpt lat="49.86958" lon="4.76658">
        <ele>309</ele>
        <time>2022-06-06T09:23:13.000Z</time>
      </trkpt>
      <trkpt lat="49.86956" lon="4.76656">
        <ele>309</ele>
        <time>2022-06-06T09:23:14.000Z</time>
      </trkpt>
      <trkpt lat="49.86954" lon="4.76654">
        <ele>308</ele>
        <time>2022-06-06T09:23:15.000Z</time>
      </trkpt>
      <trkpt lat="49.86952" lon="4.76652">
        <ele>308</ele>
        <time>2022-06-06T09:23:16.000Z</time>
      </trkpt>
      <trkpt lat="49.86951" lon="4.7665">
        <ele>308</ele>
        <time>2022-06-06T09:23:17.000Z</time>
      </trkpt>
      <trkpt lat="49.86949" lon="4.76649">
        <ele>307</ele>
        <time>2022-06-06T09:23:18.000Z</time>
      </trkpt>
      <trkpt lat="49.86949" lon="4.76649">
        <ele>307</ele>
        <time>2022-06-06T09:23:19.000Z</time>
      </trkpt>
      <trkpt lat="49.86949" lon="4.76648">
        <ele>306</ele>
        <time>2022-06-06T09:23:20.000Z</time>
      </trkpt>
      <trkpt lat="49.86948" lon="4.76648">
        <ele>306</ele>
        <time>2022-06-06T09:23:21.000Z</time>
      </trkpt>
      <trkpt lat="49.86946" lon="4.76647">
        <ele>306</ele>
        <time>2022-06-06T09:23:22.000Z</time>
      </trkpt>
      <trkpt lat="49.86944" lon="4.76644">
        <ele>305</ele>
        <time>2022-06-06T09:23:23.000Z</time>
      </trkpt>
      <trkpt lat="49.86942" lon="4.76641">
        <ele>305</ele>
        <time>2022-06-06T09:23:24.000Z</time>
      </trkpt>
      <trkpt lat="49.86939" lon="4.76638">
        <ele>305</ele>
        <time>2022-06-06T09:23:25.000Z</time>
      </trkpt>
      <trkpt lat="49.86936" lon="4.76634">
        <ele>304</ele>
        <time>2022-06-06T09:23:26.000Z</time>
      </trkpt>
      <trkpt lat="49.86934" lon="4.7663">
        <ele>304</ele>
        <time>2022-06-06T09:23:27.000Z</time>
      </trkpt>
      <trkpt lat="49.86932" lon="4.76628">
        <ele>304</ele>
        <time>2022-06-06T09:23:28.000Z</time>
      </trkpt>
      <trkpt lat="49.86931" lon="4.76626">
        <ele>303</ele>
        <time>2022-06-06T09:23:29.000Z</time>
      </trkpt>
      <trkpt lat="49.8693" lon="4.76626">
        <ele>303</ele>
        <time>2022-06-06T09:23:30.000Z</time>
      </trkpt>
      <trkpt lat="49.8693" lon="4.76626">
        <ele>303</ele>
        <time>2022-06-06T09:23:31.000Z</time>
      </trkpt>
      <trkpt lat="49.86929" lon="4.76625">
        <ele>302</ele>
        <time>2022-06-06T09:23:32.000Z</time>
      </trkpt>
      <trkpt lat="49.86928" lon="4.76623">
        <ele>302</ele>
        <time>2022-06-06T09:23:33.000Z</time>
      </trkpt>
      <trkpt lat="49.86928" lon="4.76622">
        <ele>302</ele>
        <time>2022-06-06T09:23:34.000Z</time>
      </trkpt>
      <trkpt lat="49.86926" lon="4.7662">
        <ele>302</ele>
        <time>2022-06-06T09:23:35.000Z</time>
      </trkpt>
      <trkpt lat="49.86925" lon="4.76618">
        <ele>301</ele>
        <time>2022-06-06T09:23:36.000Z</time>
      </trkpt>
      <trkpt lat="49.86923" lon="4.76616">
        <ele>301</ele>
        <time>2022-06-06T09:23:37.000Z</time>
      </trkpt>
      <trkpt lat="49.86922" lon="4.76613">
        <ele>301</ele>
        <time>2022-06-06T09:23:38.000Z</time>
      </trkpt>
      <trkpt lat="49.86919" lon="4.7661">
        <ele>300</ele>
        <time>2022-06-06T09:23:39.000Z</time>
      </trkpt>
      <trkpt lat="49.86917" lon="4.76606">
        <ele>300</ele>
        <time>2022-06-06T09:23:40.000Z</time>
      </trkpt>
      <trkpt lat="49.86916" lon="4.76603">
        <ele>300</ele>
        <time>2022-06-06T09:23:41.000Z</time>
      </trkpt>
      <trkpt lat="49.86914" lon="4.76601">
        <ele>299</ele>
        <time>2022-06-06T09:23:42.000Z</time>
      </trkpt>
      <trkpt lat="49.86912" lon="4.76599">
        <ele>299</ele>
        <time>2022-06-06T09:23:43.000Z</time>
      </trkpt>
      <trkpt lat="49.8691" lon="4.76595">
        <ele>299</ele>
        <time>2022-06-06T09:23:44.000Z</time>
      </trkpt>
      <trkpt lat="49.86907" lon="4.76591">
        <ele>298</ele>
        <time>2022-06-06T09:23:45.000Z</time>
      </trkpt>
      <trkpt lat="49.86903" lon="4.76586">
        <ele>298</ele>
        <time>2022-06-06T09:23:46.000Z</time>
      </trkpt>
      <trkpt lat="49.869" lon="4.76582">
        <ele>297</ele>
        <time>2022-06-06T09:23:47.000Z</time>
      </trkpt>
      <trkpt lat="49.86897" lon="4.76578">
        <ele>297</ele>
        <time>2022-06-06T09:23:48.000Z</time>
      </trkpt>
      <trkpt lat="49.86895" lon="4.76575">
        <ele>296</ele>
        <time>2022-06-06T09:23:49.000Z</time>
      </trkpt>
      <trkpt lat="49.86894" lon="4.76573">
        <ele>296</ele>
        <time>2022-06-06T09:23:50.000Z</time>
      </trkpt>
      <trkpt lat="49.86892" lon="4.7657">
        <ele>295</ele>
        <time>2022-06-06T09:23:51.000Z</time>
      </trkpt>
      <trkpt lat="49.86891" lon="4.76567">
        <ele>294</ele>
        <time>2022-06-06T09:23:52.000Z</time>
      </trkpt>
      <trkpt lat="49.8689" lon="4.76563">
        <ele>294</ele>
        <time>2022-06-06T09:23:53.000Z</time>
      </trkpt>
      <trkpt lat="49.86888" lon="4.76559">
        <ele>293</ele>
        <time>2022-06-06T09:23:54.000Z</time>
      </trkpt>
      <trkpt lat="49.86886" lon="4.76555">
        <ele>292</ele>
        <time>2022-06-06T09:23:55.000Z</time>
      </trkpt>
      <trkpt lat="49.86884" lon="4.76549">
        <ele>292</ele>
        <time>2022-06-06T09:23:56.000Z</time>
      </trkpt>
      <trkpt lat="49.86883" lon="4.76544">
        <ele>291</ele>
        <time>2022-06-06T09:23:57.000Z</time>
      </trkpt>
      <trkpt lat="49.86882" lon="4.76538">
        <ele>291</ele>
        <time>2022-06-06T09:23:58.000Z</time>
      </trkpt>
      <trkpt lat="49.86882" lon="4.76532">
        <ele>290</ele>
        <time>2022-06-06T09:23:59.000Z</time>
      </trkpt>
      <trkpt lat="49.8688" lon="4.76525">
        <ele>289</ele>
        <time>2022-06-06T09:24:00.000Z</time>
      </trkpt>
      <trkpt lat="49.86878" lon="4.76519">
        <ele>289</ele>
        <time>2022-06-06T09:24:01.000Z</time>
      </trkpt>
      <trkpt lat="49.86876" lon="4.76513">
        <ele>288</ele>
        <time>2022-06-06T09:24:02.000Z</time>
      </trkpt>
      <trkpt lat="49.86874" lon="4.76509">
        <ele>288</ele>
        <time>2022-06-06T09:24:03.000Z</time>
      </trkpt>
      <trkpt lat="49.86873" lon="4.76504">
        <ele>287</ele>
        <time>2022-06-06T09:24:04.000Z</time>
      </trkpt>
      <trkpt lat="49.86872" lon="4.76499">
        <ele>286</ele>
        <time>2022-06-06T09:24:05.000Z</time>
      </trkpt>
      <trkpt lat="49.8687" lon="4.76494">
        <ele>286</ele>
        <time>2022-06-06T09:24:06.000Z</time>
      </trkpt>
      <trkpt lat="49.86868" lon="4.76488">
        <ele>285</ele>
        <time>2022-06-06T09:24:07.000Z</time>
      </trkpt>
      <trkpt lat="49.86867" lon="4.76482">
        <ele>285</ele>
        <time>2022-06-06T09:24:08.000Z</time>
      </trkpt>
      <trkpt lat="49.86864" lon="4.76476">
        <ele>284</ele>
        <time>2022-06-06T09:24:09.000Z</time>
      </trkpt>
      <trkpt lat="49.86863" lon="4.7647">
        <ele>284</ele>
        <time>2022-06-06T09:24:10.000Z</time>
      </trkpt>
      <trkpt lat="49.86861" lon="4.76464">
        <ele>283</ele>
        <time>2022-06-06T09:24:11.000Z</time>
      </trkpt>
      <trkpt lat="49.8686" lon="4.76459">
        <ele>283</ele>
        <time>2022-06-06T09:24:12.000Z</time>
      </trkpt>
      <trkpt lat="49.86859" lon="4.76453">
        <ele>282</ele>
        <time>2022-06-06T09:24:13.000Z</time>
      </trkpt>
      <trkpt lat="49.86858" lon="4.76448">
        <ele>282</ele>
        <time>2022-06-06T09:24:14.000Z</time>
      </trkpt>
      <trkpt lat="49.86857" lon="4.76443">
        <ele>282</ele>
        <time>2022-06-06T09:24:15.000Z</time>
      </trkpt>
      <trkpt lat="49.86856" lon="4.76439">
        <ele>281</ele>
        <time>2022-06-06T09:24:16.000Z</time>
      </trkpt>
      <trkpt lat="49.86855" lon="4.76436">
        <ele>281</ele>
        <time>2022-06-06T09:24:17.000Z</time>
      </trkpt>
      <trkpt lat="49.86854" lon="4.76433">
        <ele>281</ele>
        <time>2022-06-06T09:24:18.000Z</time>
      </trkpt>
      <trkpt lat="49.86852" lon="4.76429">
        <ele>280</ele>
        <time>2022-06-06T09:24:19.000Z</time>
      </trkpt>
      <trkpt lat="49.8685" lon="4.76424">
        <ele>280</ele>
        <time>2022-06-06T09:24:20.000Z</time>
      </trkpt>
      <trkpt lat="49.86847" lon="4.76419">
        <ele>279</ele>
        <time>2022-06-06T09:24:21.000Z</time>
      </trkpt>
      <trkpt lat="49.86844" lon="4.76414">
        <ele>279</ele>
        <time>2022-06-06T09:24:22.000Z</time>
      </trkpt>
      <trkpt lat="49.86841" lon="4.76408">
        <ele>279</ele>
        <time>2022-06-06T09:24:23.000Z</time>
      </trkpt>
      <trkpt lat="49.86838" lon="4.76402">
        <ele>278</ele>
        <time>2022-06-06T09:24:24.000Z</time>
      </trkpt>
      <trkpt lat="49.86834" lon="4.76396">
        <ele>278</ele>
        <time>2022-06-06T09:24:25.000Z</time>
      </trkpt>
      <trkpt lat="49.8683" lon="4.76389">
        <ele>277</ele>
        <time>2022-06-06T09:24:26.000Z</time>
      </trkpt>
      <trkpt lat="49.86826" lon="4.76383">
        <ele>277</ele>
        <time>2022-06-06T09:24:27.000Z</time>
      </trkpt>
      <trkpt lat="49.86822" lon="4.76377">
        <ele>277</ele>
        <time>2022-06-06T09:24:28.000Z</time>
      </trkpt>
      <trkpt lat="49.86818" lon="4.76371">
        <ele>276</ele>
        <time>2022-06-06T09:24:29.000Z</time>
      </trkpt>
      <trkpt lat="49.86813" lon="4.76364">
        <ele>276</ele>
        <time>2022-06-06T09:24:30.000Z</time>
      </trkpt>
      <trkpt lat="49.86808" lon="4.76358">
        <ele>276</ele>
        <time>2022-06-06T09:24:31.000Z</time>
      </trkpt>
      <trkpt lat="49.86803" lon="4.76351">
        <ele>275</ele>
        <time>2022-06-06T09:24:32.000Z</time>
      </trkpt>
      <trkpt lat="49.86797" lon="4.76344">
        <ele>275</ele>
        <time>2022-06-06T09:24:33.000Z</time>
      </trkpt>
      <trkpt lat="49.86791" lon="4.76338">
        <ele>274</ele>
        <time>2022-06-06T09:24:34.000Z</time>
      </trkpt>
      <trkpt lat="49.86785" lon="4.7633">
        <ele>274</ele>
        <time>2022-06-06T09:24:35.000Z</time>
      </trkpt>
      <trkpt lat="49.86778" lon="4.76323">
        <ele>273</ele>
        <time>2022-06-06T09:24:36.000Z</time>
      </trkpt>
      <trkpt lat="49.86772" lon="4.76316">
        <ele>273</ele>
        <time>2022-06-06T09:24:37.000Z</time>
      </trkpt>
      <trkpt lat="49.86766" lon="4.7631">
        <ele>272</ele>
        <time>2022-06-06T09:24:38.000Z</time>
      </trkpt>
      <trkpt lat="49.8676" lon="4.76303">
        <ele>271</ele>
        <time>2022-06-06T09:24:39.000Z</time>
      </trkpt>
      <trkpt lat="49.86754" lon="4.76297">
        <ele>271</ele>
        <time>2022-06-06T09:24:40.000Z</time>
      </trkpt>
      <trkpt lat="49.86749" lon="4.7629">
        <ele>270</ele>
        <time>2022-06-06T09:24:41.000Z</time>
      </trkpt>
      <trkpt lat="49.86744" lon="4.76284">
        <ele>269</ele>
        <time>2022-06-06T09:24:42.000Z</time>
      </trkpt>
      <trkpt lat="49.86739" lon="4.76277">
        <ele>268</ele>
        <time>2022-06-06T09:24:43.000Z</time>
      </trkpt>
      <trkpt lat="49.86735" lon="4.7627">
        <ele>268</ele>
        <time>2022-06-06T09:24:44.000Z</time>
      </trkpt>
      <trkpt lat="49.8673" lon="4.76263">
        <ele>267</ele>
        <time>2022-06-06T09:24:45.000Z</time>
      </trkpt>
      <trkpt lat="49.86725" lon="4.76255">
        <ele>267</ele>
        <time>2022-06-06T09:24:46.000Z</time>
      </trkpt>
      <trkpt lat="49.86719" lon="4.76247">
        <ele>266</ele>
        <time>2022-06-06T09:24:47.000Z</time>
      </trkpt>
      <trkpt lat="49.86714" lon="4.76239">
        <ele>265</ele>
        <time>2022-06-06T09:24:48.000Z</time>
      </trkpt>
      <trkpt lat="49.86709" lon="4.76232">
        <ele>264</ele>
        <time>2022-06-06T09:24:49.000Z</time>
      </trkpt>
      <trkpt lat="49.86704" lon="4.76225">
        <ele>264</ele>
        <time>2022-06-06T09:24:50.000Z</time>
      </trkpt>
      <trkpt lat="49.867" lon="4.7622">
        <ele>263</ele>
        <time>2022-06-06T09:24:51.000Z</time>
      </trkpt>
      <trkpt lat="49.86695" lon="4.76216">
        <ele>262</ele>
        <time>2022-06-06T09:24:52.000Z</time>
      </trkpt>
      <trkpt lat="49.8669" lon="4.76212">
        <ele>261</ele>
        <time>2022-06-06T09:24:53.000Z</time>
      </trkpt>
      <trkpt lat="49.86685" lon="4.76209">
        <ele>261</ele>
        <time>2022-06-06T09:24:54.000Z</time>
      </trkpt>
      <trkpt lat="49.86681" lon="4.76206">
        <ele>260</ele>
        <time>2022-06-06T09:24:55.000Z</time>
      </trkpt>
      <trkpt lat="49.86676" lon="4.76204">
        <ele>259</ele>
        <time>2022-06-06T09:24:56.000Z</time>
      </trkpt>
      <trkpt lat="49.86671" lon="4.76202">
        <ele>259</ele>
        <time>2022-06-06T09:24:57.000Z</time>
      </trkpt>
      <trkpt lat="49.86665" lon="4.76201">
        <ele>258</ele>
        <time>2022-06-06T09:24:58.000Z</time>
      </trkpt>
      <trkpt lat="49.86659" lon="4.76199">
        <ele>258</ele>
        <time>2022-06-06T09:24:59.000Z</time>
      </trkpt>
      <trkpt lat="49.86653" lon="4.76197">
        <ele>257</ele>
        <time>2022-06-06T09:25:00.000Z</time>
      </trkpt>
      <trkpt lat="49.86648" lon="4.76195">
        <ele>257</ele>
        <time>2022-06-06T09:25:01.000Z</time>
      </trkpt>
      <trkpt lat="49.86643" lon="4.76192">
        <ele>256</ele>
        <time>2022-06-06T09:25:02.000Z</time>
      </trkpt>
      <trkpt lat="49.86639" lon="4.7619">
        <ele>256</ele>
        <time>2022-06-06T09:25:03.000Z</time>
      </trkpt>
      <trkpt lat="49.86635" lon="4.76188">
        <ele>255</ele>
        <time>2022-06-06T09:25:04.000Z</time>
      </trkpt>
      <trkpt lat="49.86631" lon="4.76186">
        <ele>255</ele>
        <time>2022-06-06T09:25:05.000Z</time>
      </trkpt>
      <trkpt lat="49.86627" lon="4.76185">
        <ele>254</ele>
        <time>2022-06-06T09:25:06.000Z</time>
      </trkpt>
      <trkpt lat="49.86623" lon="4.76183">
        <ele>254</ele>
        <time>2022-06-06T09:25:07.000Z</time>
      </trkpt>
      <trkpt lat="49.86619" lon="4.76181">
        <ele>253</ele>
        <time>2022-06-06T09:25:08.000Z</time>
      </trkpt>
      <trkpt lat="49.86616" lon="4.76179">
        <ele>252</ele>
        <time>2022-06-06T09:25:09.000Z</time>
      </trkpt>
      <trkpt lat="49.86613" lon="4.76178">
        <ele>252</ele>
        <time>2022-06-06T09:25:10.000Z</time>
      </trkpt>
      <trkpt lat="49.86611" lon="4.76175">
        <ele>251</ele>
        <time>2022-06-06T09:25:11.000Z</time>
      </trkpt>
      <trkpt lat="49.86609" lon="4.76173">
        <ele>251</ele>
        <time>2022-06-06T09:25:12.000Z</time>
      </trkpt>
      <trkpt lat="49.86608" lon="4.7617">
        <ele>250</ele>
        <time>2022-06-06T09:25:13.000Z</time>
      </trkpt>
      <trkpt lat="49.86607" lon="4.76168">
        <ele>249</ele>
        <time>2022-06-06T09:25:14.000Z</time>
      </trkpt>
      <trkpt lat="49.86607" lon="4.76168">
        <ele>249</ele>
        <time>2022-06-06T09:25:15.000Z</time>
      </trkpt>
      <trkpt lat="49.86606" lon="4.76168">
        <ele>248</ele>
        <time>2022-06-06T09:25:16.000Z</time>
      </trkpt>
      <trkpt lat="49.86606" lon="4.76169">
        <ele>247</ele>
        <time>2022-06-06T09:25:17.000Z</time>
      </trkpt>
      <trkpt lat="49.86607" lon="4.7617">
        <ele>247</ele>
        <time>2022-06-06T09:25:18.000Z</time>
      </trkpt>
      <trkpt lat="49.86607" lon="4.76171">
        <ele>246</ele>
        <time>2022-06-06T09:25:19.000Z</time>
      </trkpt>
      <trkpt lat="49.86609" lon="4.76172">
        <ele>246</ele>
        <time>2022-06-06T09:25:20.000Z</time>
      </trkpt>
      <trkpt lat="49.86611" lon="4.76174">
        <ele>245</ele>
        <time>2022-06-06T09:25:21.000Z</time>
      </trkpt>
      <trkpt lat="49.86613" lon="4.76175">
        <ele>245</ele>
        <time>2022-06-06T09:25:22.000Z</time>
      </trkpt>
      <trkpt lat="49.86614" lon="4.76176">
        <ele>244</ele>
        <time>2022-06-06T09:25:23.000Z</time>
      </trkpt>
      <trkpt lat="49.86616" lon="4.76177">
        <ele>244</ele>
        <time>2022-06-06T09:25:24.000Z</time>
      </trkpt>
      <trkpt lat="49.86617" lon="4.76178">
        <ele>243</ele>
        <time>2022-06-06T09:25:25.000Z</time>
      </trkpt>
      <trkpt lat="49.86619" lon="4.76178">
        <ele>243</ele>
        <time>2022-06-06T09:25:26.000Z</time>
      </trkpt>
      <trkpt lat="49.8662" lon="4.76178">
        <ele>242</ele>
        <time>2022-06-06T09:25:27.000Z</time>
      </trkpt>
      <trkpt lat="49.86621" lon="4.76178">
        <ele>242</ele>
        <time>2022-06-06T09:25:28.000Z</time>
      </trkpt>
      <trkpt lat="49.86623" lon="4.76178">
        <ele>241</ele>
        <time>2022-06-06T09:25:29.000Z</time>
      </trkpt>
      <trkpt lat="49.86625" lon="4.76178">
        <ele>241</ele>
        <time>2022-06-06T09:25:30.000Z</time>
      </trkpt>
      <trkpt lat="49.86626" lon="4.76178">
        <ele>240</ele>
        <time>2022-06-06T09:25:31.000Z</time>
      </trkpt>
      <trkpt lat="49.86628" lon="4.76179">
        <ele>240</ele>
        <time>2022-06-06T09:25:32.000Z</time>
      </trkpt>
      <trkpt lat="49.86629" lon="4.7618">
        <ele>240</ele>
        <time>2022-06-06T09:25:33.000Z</time>
      </trkpt>
      <trkpt lat="49.86631" lon="4.76181">
        <ele>239</ele>
        <time>2022-06-06T09:25:34.000Z</time>
      </trkpt>
      <trkpt lat="49.86633" lon="4.76182">
        <ele>239</ele>
        <time>2022-06-06T09:25:35.000Z</time>
      </trkpt>
      <trkpt lat="49.86634" lon="4.76182">
        <ele>239</ele>
        <time>2022-06-06T09:25:36.000Z</time>
      </trkpt>
      <trkpt lat="49.86635" lon="4.76183">
        <ele>239</ele>
        <time>2022-06-06T09:25:37.000Z</time>
      </trkpt>
      <trkpt lat="49.86637" lon="4.76183">
        <ele>238</ele>
        <time>2022-06-06T09:25:38.000Z</time>
      </trkpt>
      <trkpt lat="49.86639" lon="4.76183">
        <ele>238</ele>
        <time>2022-06-06T09:25:39.000Z</time>
      </trkpt>
      <trkpt lat="49.8664" lon="4.76184">
        <ele>238</ele>
        <time>2022-06-06T09:25:40.000Z</time>
      </trkpt>
      <trkpt lat="49.86642" lon="4.76185">
        <ele>238</ele>
        <time>2022-06-06T09:25:41.000Z</time>
      </trkpt>
      <trkpt lat="49.86644" lon="4.76186">
        <ele>238</ele>
        <time>2022-06-06T09:25:42.000Z</time>
      </trkpt>
      <trkpt lat="49.86645" lon="4.76186">
        <ele>238</ele>
        <time>2022-06-06T09:25:43.000Z</time>
      </trkpt>
      <trkpt lat="49.86646" lon="4.76186">
        <ele>238</ele>
        <time>2022-06-06T09:25:44.000Z</time>
      </trkpt>
      <trkpt lat="49.86648" lon="4.76187">
        <ele>238</ele>
        <time>2022-06-06T09:25:45.000Z</time>
      </trkpt>
      <trkpt lat="49.86649" lon="4.76187">
        <ele>238</ele>
        <time>2022-06-06T09:25:46.000Z</time>
      </trkpt>
      <trkpt lat="49.86651" lon="4.76187">
        <ele>238</ele>
        <time>2022-06-06T09:25:47.000Z</time>
      </trkpt>
      <trkpt lat="49.86653" lon="4.76188">
        <ele>238</ele>
        <time>2022-06-06T09:25:48.000Z</time>
      </trkpt>
      <trkpt lat="49.86655" lon="4.76188">
        <ele>238</ele>
        <time>2022-06-06T09:25:49.000Z</time>
      </trkpt>
      <trkpt lat="49.86656" lon="4.76188">
        <ele>238</ele>
        <time>2022-06-06T09:25:50.000Z</time>
      </trkpt>
      <trkpt lat="49.86658" lon="4.76188">
        <ele>238</ele>
        <time>2022-06-06T09:25:51.000Z</time>
      </trkpt>
      <trkpt lat="49.86659" lon="4.76189">
        <ele>238</ele>
        <time>2022-06-06T09:25:52.000Z</time>
      </trkpt>
      <trkpt lat="49.86661" lon="4.7619">
        <ele>238</ele>
        <time>2022-06-06T09:25:53.000Z</time>
      </trkpt>
      <trkpt lat="49.86662" lon="4.76191">
        <ele>238</ele>
        <time>2022-06-06T09:25:54.000Z</time>
      </trkpt>
      <trkpt lat="49.86664" lon="4.76191">
        <ele>238</ele>
        <time>2022-06-06T09:25:55.000Z</time>
      </trkpt>
      <trkpt lat="49.86666" lon="4.76192">
        <ele>238</ele>
        <time>2022-06-06T09:25:56.000Z</time>
      </trkpt>
      <trkpt lat="49.86667" lon="4.76192">
        <ele>238</ele>
        <time>2022-06-06T09:25:57.000Z</time>
      </trkpt>
      <trkpt lat="49.86669" lon="4.76192">
        <ele>238</ele>
        <time>2022-06-06T09:25:58.000Z</time>
      </trkpt>
      <trkpt lat="49.86671" lon="4.76193">
        <ele>238</ele>
        <time>2022-06-06T09:25:59.000Z</time>
      </trkpt>
      <trkpt lat="49.86672" lon="4.76194">
        <ele>238</ele>
        <time>2022-06-06T09:26:00.000Z</time>
      </trkpt>
      <trkpt lat="49.86674" lon="4.76195">
        <ele>238</ele>
        <time>2022-06-06T09:26:01.000Z</time>
      </trkpt>
      <trkpt lat="49.86676" lon="4.76196">
        <ele>238</ele>
        <time>2022-06-06T09:26:02.000Z</time>
      </trkpt>
      <trkpt lat="49.86678" lon="4.76197">
        <ele>238</ele>
        <time>2022-06-06T09:26:03.000Z</time>
      </trkpt>
      <trkpt lat="49.8668" lon="4.76198">
        <ele>238</ele>
        <time>2022-06-06T09:26:04.000Z</time>
      </trkpt>
      <trkpt lat="49.86681" lon="4.76199">
        <ele>238</ele>
        <time>2022-06-06T09:26:05.000Z</time>
      </trkpt>
      <trkpt lat="49.86683" lon="4.76199">
        <ele>238</ele>
        <time>2022-06-06T09:26:06.000Z</time>
      </trkpt>
      <trkpt lat="49.86685" lon="4.762">
        <ele>238</ele>
        <time>2022-06-06T09:26:07.000Z</time>
      </trkpt>
      <trkpt lat="49.86688" lon="4.76201">
        <ele>237</ele>
        <time>2022-06-06T09:26:08.000Z</time>
      </trkpt>
      <trkpt lat="49.86689" lon="4.76202">
        <ele>237</ele>
        <time>2022-06-06T09:26:09.000Z</time>
      </trkpt>
      <trkpt lat="49.86691" lon="4.76203">
        <ele>237</ele>
        <time>2022-06-06T09:26:10.000Z</time>
      </trkpt>
      <trkpt lat="49.86693" lon="4.76205">
        <ele>238</ele>
        <time>2022-06-06T09:26:11.000Z</time>
      </trkpt>
      <trkpt lat="49.86695" lon="4.76206">
        <ele>238</ele>
        <time>2022-06-06T09:26:12.000Z</time>
      </trkpt>
      <trkpt lat="49.86696" lon="4.76208">
        <ele>238</ele>
        <time>2022-06-06T09:26:13.000Z</time>
      </trkpt>
      <trkpt lat="49.86698" lon="4.7621">
        <ele>238</ele>
        <time>2022-06-06T09:26:14.000Z</time>
      </trkpt>
      <trkpt lat="49.867" lon="4.76212">
        <ele>238</ele>
        <time>2022-06-06T09:26:15.000Z</time>
      </trkpt>
      <trkpt lat="49.86701" lon="4.76213">
        <ele>238</ele>
        <time>2022-06-06T09:26:16.000Z</time>
      </trkpt>
      <trkpt lat="49.86702" lon="4.76215">
        <ele>238</ele>
        <time>2022-06-06T09:26:17.000Z</time>
      </trkpt>
      <trkpt lat="49.86704" lon="4.76217">
        <ele>238</ele>
        <time>2022-06-06T09:26:18.000Z</time>
      </trkpt>
      <trkpt lat="49.86705" lon="4.76218">
        <ele>238</ele>
        <time>2022-06-06T09:26:19.000Z</time>
      </trkpt>
      <trkpt lat="49.86706" lon="4.7622">
        <ele>238</ele>
        <time>2022-06-06T09:26:20.000Z</time>
      </trkpt>
      <trkpt lat="49.86707" lon="4.76222">
        <ele>238</ele>
        <time>2022-06-06T09:26:21.000Z</time>
      </trkpt>
      <trkpt lat="49.86709" lon="4.76224">
        <ele>239</ele>
        <time>2022-06-06T09:26:22.000Z</time>
      </trkpt>
      <trkpt lat="49.8671" lon="4.76226">
        <ele>239</ele>
        <time>2022-06-06T09:26:23.000Z</time>
      </trkpt>
      <trkpt lat="49.86712" lon="4.76229">
        <ele>239</ele>
        <time>2022-06-06T09:26:24.000Z</time>
      </trkpt>
      <trkpt lat="49.86713" lon="4.76231">
        <ele>239</ele>
        <time>2022-06-06T09:26:25.000Z</time>
      </trkpt>
      <trkpt lat="49.86714" lon="4.76234">
        <ele>239</ele>
        <time>2022-06-06T09:26:26.000Z</time>
      </trkpt>
      <trkpt lat="49.86715" lon="4.76235">
        <ele>239</ele>
        <time>2022-06-06T09:26:27.000Z</time>
      </trkpt>
      <trkpt lat="49.86716" lon="4.76237">
        <ele>240</ele>
        <time>2022-06-06T09:26:28.000Z</time>
      </trkpt>
      <trkpt lat="49.86718" lon="4.76239">
        <ele>240</ele>
        <time>2022-06-06T09:26:29.000Z</time>
      </trkpt>
      <trkpt lat="49.86719" lon="4.76241">
        <ele>240</ele>
        <time>2022-06-06T09:26:30.000Z</time>
      </trkpt>
      <trkpt lat="49.8672" lon="4.76242">
        <ele>240</ele>
        <time>2022-06-06T09:26:31.000Z</time>
      </trkpt>
      <trkpt lat="49.86721" lon="4.76243">
        <ele>240</ele>
        <time>2022-06-06T09:26:32.000Z</time>
      </trkpt>
      <trkpt lat="49.86723" lon="4.76245">
        <ele>240</ele>
        <time>2022-06-06T09:26:33.000Z</time>
      </trkpt>
      <trkpt lat="49.86724" lon="4.76248">
        <ele>241</ele>
        <time>2022-06-06T09:26:34.000Z</time>
      </trkpt>
      <trkpt lat="49.86726" lon="4.7625">
        <ele>241</ele>
        <time>2022-06-06T09:26:35.000Z</time>
      </trkpt>
      <trkpt lat="49.86727" lon="4.76252">
        <ele>241</ele>
        <time>2022-06-06T09:26:36.000Z</time>
      </trkpt>
      <trkpt lat="49.86728" lon="4.76255">
        <ele>241</ele>
        <time>2022-06-06T09:26:37.000Z</time>
      </trkpt>
      <trkpt lat="49.8673" lon="4.76256">
        <ele>241</ele>
        <time>2022-06-06T09:26:38.000Z</time>
      </trkpt>
      <trkpt lat="49.86731" lon="4.76259">
        <ele>242</ele>
        <time>2022-06-06T09:26:39.000Z</time>
      </trkpt>
      <trkpt lat="49.86732" lon="4.76261">
        <ele>242</ele>
        <time>2022-06-06T09:26:40.000Z</time>
      </trkpt>
      <trkpt lat="49.86734" lon="4.76262">
        <ele>242</ele>
        <time>2022-06-06T09:26:41.000Z</time>
      </trkpt>
      <trkpt lat="49.86736" lon="4.76265">
        <ele>242</ele>
        <time>2022-06-06T09:26:42.000Z</time>
      </trkpt>
      <trkpt lat="49.86738" lon="4.76266">
        <ele>243</ele>
        <time>2022-06-06T09:26:43.000Z</time>
      </trkpt>
      <trkpt lat="49.8674" lon="4.76268">
        <ele>243</ele>
        <time>2022-06-06T09:26:44.000Z</time>
      </trkpt>
      <trkpt lat="49.86741" lon="4.7627">
        <ele>243</ele>
        <time>2022-06-06T09:26:45.000Z</time>
      </trkpt>
      <trkpt lat="49.86743" lon="4.76272">
        <ele>243</ele>
        <time>2022-06-06T09:26:46.000Z</time>
      </trkpt>
      <trkpt lat="49.86744" lon="4.76274">
        <ele>243</ele>
        <time>2022-06-06T09:26:47.000Z</time>
      </trkpt>
      <trkpt lat="49.86746" lon="4.76275">
        <ele>244</ele>
        <time>2022-06-06T09:26:48.000Z</time>
      </trkpt>
      <trkpt lat="49.86748" lon="4.76276">
        <ele>244</ele>
        <time>2022-06-06T09:26:49.000Z</time>
      </trkpt>
      <trkpt lat="49.86749" lon="4.76278">
        <ele>244</ele>
        <time>2022-06-06T09:26:50.000Z</time>
      </trkpt>
      <trkpt lat="49.86751" lon="4.76279">
        <ele>245</ele>
        <time>2022-06-06T09:26:51.000Z</time>
      </trkpt>
      <trkpt lat="49.86752" lon="4.76281">
        <ele>245</ele>
        <time>2022-06-06T09:26:52.000Z</time>
      </trkpt>
      <trkpt lat="49.86753" lon="4.76282">
        <ele>245</ele>
        <time>2022-06-06T09:26:53.000Z</time>
      </trkpt>
      <trkpt lat="49.86755" lon="4.76283">
        <ele>245</ele>
        <time>2022-06-06T09:26:54.000Z</time>
      </trkpt>
      <trkpt lat="49.86756" lon="4.76285">
        <ele>246</ele>
        <time>2022-06-06T09:26:55.000Z</time>
      </trkpt>
      <trkpt lat="49.86758" lon="4.76286">
        <ele>246</ele>
        <time>2022-06-06T09:26:56.000Z</time>
      </trkpt>
      <trkpt lat="49.86759" lon="4.76289">
        <ele>246</ele>
        <time>2022-06-06T09:26:57.000Z</time>
      </trkpt>
      <trkpt lat="49.86762" lon="4.7629">
        <ele>246</ele>
        <time>2022-06-06T09:26:58.000Z</time>
      </trkpt>
      <trkpt lat="49.86763" lon="4.76292">
        <ele>246</ele>
        <time>2022-06-06T09:26:59.000Z</time>
      </trkpt>
      <trkpt lat="49.86765" lon="4.76294">
        <ele>246</ele>
        <time>2022-06-06T09:27:00.000Z</time>
      </trkpt>
      <trkpt lat="49.86767" lon="4.76296">
        <ele>246</ele>
        <time>2022-06-06T09:27:01.000Z</time>
      </trkpt>
      <trkpt lat="49.86769" lon="4.76297">
        <ele>247</ele>
        <time>2022-06-06T09:27:02.000Z</time>
      </trkpt>
      <trkpt lat="49.8677" lon="4.76298">
        <ele>247</ele>
        <time>2022-06-06T09:27:03.000Z</time>
      </trkpt>
      <trkpt lat="49.86772" lon="4.763">
        <ele>247</ele>
        <time>2022-06-06T09:27:04.000Z</time>
      </trkpt>
      <trkpt lat="49.86774" lon="4.76302">
        <ele>247</ele>
        <time>2022-06-06T09:27:05.000Z</time>
      </trkpt>
      <trkpt lat="49.86776" lon="4.76305">
        <ele>247</ele>
        <time>2022-06-06T09:27:06.000Z</time>
      </trkpt>
      <trkpt lat="49.86778" lon="4.76307">
        <ele>247</ele>
        <time>2022-06-06T09:27:07.000Z</time>
      </trkpt>
      <trkpt lat="49.8678" lon="4.76309">
        <ele>248</ele>
        <time>2022-06-06T09:27:08.000Z</time>
      </trkpt>
      <trkpt lat="49.86781" lon="4.76311">
        <ele>248</ele>
        <time>2022-06-06T09:27:09.000Z</time>
      </trkpt>
      <trkpt lat="49.86783" lon="4.76313">
        <ele>248</ele>
        <time>2022-06-06T09:27:10.000Z</time>
      </trkpt>
      <trkpt lat="49.86785" lon="4.76316">
        <ele>248</ele>
        <time>2022-06-06T09:27:11.000Z</time>
      </trkpt>
      <trkpt lat="49.86787" lon="4.76318">
        <ele>248</ele>
        <time>2022-06-06T09:27:12.000Z</time>
      </trkpt>
      <trkpt lat="49.86788" lon="4.7632">
        <ele>248</ele>
        <time>2022-06-06T09:27:13.000Z</time>
      </trkpt>
      <trkpt lat="49.86789" lon="4.76322">
        <ele>248</ele>
        <time>2022-06-06T09:27:14.000Z</time>
      </trkpt>
      <trkpt lat="49.86791" lon="4.76324">
        <ele>248</ele>
        <time>2022-06-06T09:27:15.000Z</time>
      </trkpt>
      <trkpt lat="49.86793" lon="4.76327">
        <ele>248</ele>
        <time>2022-06-06T09:27:16.000Z</time>
      </trkpt>
      <trkpt lat="49.86794" lon="4.76329">
        <ele>249</ele>
        <time>2022-06-06T09:27:17.000Z</time>
      </trkpt>
      <trkpt lat="49.86796" lon="4.76332">
        <ele>249</ele>
        <time>2022-06-06T09:27:18.000Z</time>
      </trkpt>
      <trkpt lat="49.86797" lon="4.76334">
        <ele>249</ele>
        <time>2022-06-06T09:27:19.000Z</time>
      </trkpt>
      <trkpt lat="49.86799" lon="4.76336">
        <ele>249</ele>
        <time>2022-06-06T09:27:20.000Z</time>
      </trkpt>
      <trkpt lat="49.868" lon="4.76338">
        <ele>249</ele>
        <time>2022-06-06T09:27:21.000Z</time>
      </trkpt>
      <trkpt lat="49.86802" lon="4.7634">
        <ele>249</ele>
        <time>2022-06-06T09:27:22.000Z</time>
      </trkpt>
      <trkpt lat="49.86804" lon="4.76343">
        <ele>249</ele>
        <time>2022-06-06T09:27:23.000Z</time>
      </trkpt>
      <trkpt lat="49.86805" lon="4.76345">
        <ele>250</ele>
        <time>2022-06-06T09:27:24.000Z</time>
      </trkpt>
      <trkpt lat="49.86806" lon="4.76347">
        <ele>250</ele>
        <time>2022-06-06T09:27:25.000Z</time>
      </trkpt>
      <trkpt lat="49.86808" lon="4.76349">
        <ele>250</ele>
        <time>2022-06-06T09:27:26.000Z</time>
      </trkpt>
      <trkpt lat="49.8681" lon="4.76351">
        <ele>250</ele>
        <time>2022-06-06T09:27:27.000Z</time>
      </trkpt>
      <trkpt lat="49.86811" lon="4.76353">
        <ele>250</ele>
        <time>2022-06-06T09:27:28.000Z</time>
      </trkpt>
      <trkpt lat="49.86813" lon="4.76355">
        <ele>250</ele>
        <time>2022-06-06T09:27:29.000Z</time>
      </trkpt>
      <trkpt lat="49.86814" lon="4.76356">
        <ele>250</ele>
        <time>2022-06-06T09:27:30.000Z</time>
      </trkpt>
      <trkpt lat="49.86816" lon="4.76358">
        <ele>251</ele>
        <time>2022-06-06T09:27:31.000Z</time>
      </trkpt>
      <trkpt lat="49.86818" lon="4.7636">
        <ele>251</ele>
        <time>2022-06-06T09:27:32.000Z</time>
      </trkpt>
      <trkpt lat="49.86819" lon="4.76362">
        <ele>251</ele>
        <time>2022-06-06T09:27:33.000Z</time>
      </trkpt>
      <trkpt lat="49.86821" lon="4.76364">
        <ele>251</ele>
        <time>2022-06-06T09:27:34.000Z</time>
      </trkpt>
      <trkpt lat="49.86822" lon="4.76366">
        <ele>251</ele>
        <time>2022-06-06T09:27:35.000Z</time>
      </trkpt>
      <trkpt lat="49.86824" lon="4.76368">
        <ele>251</ele>
        <time>2022-06-06T09:27:36.000Z</time>
      </trkpt>
      <trkpt lat="49.86825" lon="4.76371">
        <ele>251</ele>
        <time>2022-06-06T09:27:37.000Z</time>
      </trkpt>
      <trkpt lat="49.86826" lon="4.76373">
        <ele>252</ele>
        <time>2022-06-06T09:27:38.000Z</time>
      </trkpt>
      <trkpt lat="49.86828" lon="4.76376">
        <ele>252</ele>
        <time>2022-06-06T09:27:39.000Z</time>
      </trkpt>
      <trkpt lat="49.86829" lon="4.76378">
        <ele>252</ele>
        <time>2022-06-06T09:27:40.000Z</time>
      </trkpt>
      <trkpt lat="49.86831" lon="4.76381">
        <ele>252</ele>
        <time>2022-06-06T09:27:41.000Z</time>
      </trkpt>
      <trkpt lat="49.86832" lon="4.76383">
        <ele>252</ele>
        <time>2022-06-06T09:27:42.000Z</time>
      </trkpt>
      <trkpt lat="49.86834" lon="4.76386">
        <ele>253</ele>
        <time>2022-06-06T09:27:43.000Z</time>
      </trkpt>
      <trkpt lat="49.86836" lon="4.76388">
        <ele>253</ele>
        <time>2022-06-06T09:27:44.000Z</time>
      </trkpt>
      <trkpt lat="49.86838" lon="4.76391">
        <ele>253</ele>
        <time>2022-06-06T09:27:45.000Z</time>
      </trkpt>
      <trkpt lat="49.86839" lon="4.76393">
        <ele>253</ele>
        <time>2022-06-06T09:27:46.000Z</time>
      </trkpt>
      <trkpt lat="49.86841" lon="4.76395">
        <ele>253</ele>
        <time>2022-06-06T09:27:47.000Z</time>
      </trkpt>
      <trkpt lat="49.86842" lon="4.76398">
        <ele>253</ele>
        <time>2022-06-06T09:27:48.000Z</time>
      </trkpt>
      <trkpt lat="49.86843" lon="4.764">
        <ele>254</ele>
        <time>2022-06-06T09:27:49.000Z</time>
      </trkpt>
      <trkpt lat="49.86845" lon="4.76402">
        <ele>254</ele>
        <time>2022-06-06T09:27:50.000Z</time>
      </trkpt>
      <trkpt lat="49.86846" lon="4.76405">
        <ele>254</ele>
        <time>2022-06-06T09:27:51.000Z</time>
      </trkpt>
      <trkpt lat="49.86848" lon="4.76408">
        <ele>255</ele>
        <time>2022-06-06T09:27:52.000Z</time>
      </trkpt>
      <trkpt lat="49.86849" lon="4.7641">
        <ele>255</ele>
        <time>2022-06-06T09:27:53.000Z</time>
      </trkpt>
      <trkpt lat="49.8685" lon="4.76411">
        <ele>255</ele>
        <time>2022-06-06T09:27:54.000Z</time>
      </trkpt>
      <trkpt lat="49.8685" lon="4.76413">
        <ele>255</ele>
        <time>2022-06-06T09:27:55.000Z</time>
      </trkpt>
      <trkpt lat="49.86851" lon="4.76414">
        <ele>256</ele>
        <time>2022-06-06T09:27:56.000Z</time>
      </trkpt>
      <trkpt lat="49.86851" lon="4.76415">
        <ele>256</ele>
        <time>2022-06-06T09:27:57.000Z</time>
      </trkpt>
      <trkpt lat="49.86851" lon="4.76417">
        <ele>256</ele>
        <time>2022-06-06T09:27:58.000Z</time>
      </trkpt>
      <trkpt lat="49.86852" lon="4.76419">
        <ele>257</ele>
        <time>2022-06-06T09:27:59.000Z</time>
      </trkpt>
      <trkpt lat="49.86853" lon="4.76421">
        <ele>257</ele>
        <time>2022-06-06T09:28:00.000Z</time>
      </trkpt>
      <trkpt lat="49.86853" lon="4.76424">
        <ele>257</ele>
        <time>2022-06-06T09:28:01.000Z</time>
      </trkpt>
      <trkpt lat="49.86854" lon="4.76427">
        <ele>257</ele>
        <time>2022-06-06T09:28:02.000Z</time>
      </trkpt>
      <trkpt lat="49.86854" lon="4.7643">
        <ele>258</ele>
        <time>2022-06-06T09:28:03.000Z</time>
      </trkpt>
      <trkpt lat="49.86855" lon="4.76432">
        <ele>258</ele>
        <time>2022-06-06T09:28:04.000Z</time>
      </trkpt>
      <trkpt lat="49.86856" lon="4.76435">
        <ele>258</ele>
        <time>2022-06-06T09:28:05.000Z</time>
      </trkpt>
      <trkpt lat="49.86857" lon="4.76438">
        <ele>258</ele>
        <time>2022-06-06T09:28:06.000Z</time>
      </trkpt>
      <trkpt lat="49.86857" lon="4.7644">
        <ele>259</ele>
        <time>2022-06-06T09:28:07.000Z</time>
      </trkpt>
      <trkpt lat="49.86858" lon="4.76442">
        <ele>259</ele>
        <time>2022-06-06T09:28:08.000Z</time>
      </trkpt>
      <trkpt lat="49.86859" lon="4.76445">
        <ele>259</ele>
        <time>2022-06-06T09:28:09.000Z</time>
      </trkpt>
      <trkpt lat="49.86859" lon="4.76449">
        <ele>259</ele>
        <time>2022-06-06T09:28:10.000Z</time>
      </trkpt>
      <trkpt lat="49.8686" lon="4.76452">
        <ele>259</ele>
        <time>2022-06-06T09:28:11.000Z</time>
      </trkpt>
      <trkpt lat="49.86861" lon="4.76456">
        <ele>259</ele>
        <time>2022-06-06T09:28:12.000Z</time>
      </trkpt>
      <trkpt lat="49.86862" lon="4.76459">
        <ele>260</ele>
        <time>2022-06-06T09:28:13.000Z</time>
      </trkpt>
      <trkpt lat="49.86863" lon="4.76463">
        <ele>260</ele>
        <time>2022-06-06T09:28:14.000Z</time>
      </trkpt>
      <trkpt lat="49.86864" lon="4.76467">
        <ele>260</ele>
        <time>2022-06-06T09:28:15.000Z</time>
      </trkpt>
      <trkpt lat="49.86865" lon="4.76471">
        <ele>260</ele>
        <time>2022-06-06T09:28:16.000Z</time>
      </trkpt>
      <trkpt lat="49.86866" lon="4.76474">
        <ele>260</ele>
        <time>2022-06-06T09:28:17.000Z</time>
      </trkpt>
      <trkpt lat="49.86868" lon="4.76478">
        <ele>260</ele>
        <time>2022-06-06T09:28:18.000Z</time>
      </trkpt>
      <trkpt lat="49.86869" lon="4.76481">
        <ele>260</ele>
        <time>2022-06-06T09:28:19.000Z</time>
      </trkpt>
      <trkpt lat="49.8687" lon="4.76483">
        <ele>261</ele>
        <time>2022-06-06T09:28:20.000Z</time>
      </trkpt>
      <trkpt lat="49.86871" lon="4.76485">
        <ele>261</ele>
        <time>2022-06-06T09:28:21.000Z</time>
      </trkpt>
      <trkpt lat="49.86872" lon="4.76488">
        <ele>261</ele>
        <time>2022-06-06T09:28:22.000Z</time>
      </trkpt>
      <trkpt lat="49.86873" lon="4.76492">
        <ele>261</ele>
        <time>2022-06-06T09:28:23.000Z</time>
      </trkpt>
      <trkpt lat="49.86874" lon="4.76496">
        <ele>262</ele>
        <time>2022-06-06T09:28:24.000Z</time>
      </trkpt>
      <trkpt lat="49.86875" lon="4.765">
        <ele>262</ele>
        <time>2022-06-06T09:28:25.000Z</time>
      </trkpt>
      <trkpt lat="49.86876" lon="4.76504">
        <ele>262</ele>
        <time>2022-06-06T09:28:26.000Z</time>
      </trkpt>
      <trkpt lat="49.86877" lon="4.76508">
        <ele>263</ele>
        <time>2022-06-06T09:28:27.000Z</time>
      </trkpt>
      <trkpt lat="49.86878" lon="4.76511">
        <ele>263</ele>
        <time>2022-06-06T09:28:28.000Z</time>
      </trkpt>
      <trkpt lat="49.86878" lon="4.76515">
        <ele>263</ele>
        <time>2022-06-06T09:28:29.000Z</time>
      </trkpt>
      <trkpt lat="49.86879" lon="4.76519">
        <ele>264</ele>
        <time>2022-06-06T09:28:30.000Z</time>
      </trkpt>
      <trkpt lat="49.8688" lon="4.76522">
        <ele>264</ele>
        <time>2022-06-06T09:28:31.000Z</time>
      </trkpt>
      <trkpt lat="49.86881" lon="4.76526">
        <ele>264</ele>
        <time>2022-06-06T09:28:32.000Z</time>
      </trkpt>
      <trkpt lat="49.86882" lon="4.76529">
        <ele>265</ele>
        <time>2022-06-06T09:28:33.000Z</time>
      </trkpt>
      <trkpt lat="49.86883" lon="4.76533">
        <ele>265</ele>
        <time>2022-06-06T09:28:34.000Z</time>
      </trkpt>
      <trkpt lat="49.86885" lon="4.76536">
        <ele>265</ele>
        <time>2022-06-06T09:28:35.000Z</time>
      </trkpt>
      <trkpt lat="49.86885" lon="4.76539">
        <ele>266</ele>
        <time>2022-06-06T09:28:36.000Z</time>
      </trkpt>
      <trkpt lat="49.86886" lon="4.76541">
        <ele>266</ele>
        <time>2022-06-06T09:28:37.000Z</time>
      </trkpt>
      <trkpt lat="49.86886" lon="4.76545">
        <ele>266</ele>
        <time>2022-06-06T09:28:38.000Z</time>
      </trkpt>
      <trkpt lat="49.86886" lon="4.76548">
        <ele>267</ele>
        <time>2022-06-06T09:28:39.000Z</time>
      </trkpt>
      <trkpt lat="49.86886" lon="4.76551">
        <ele>267</ele>
        <time>2022-06-06T09:28:40.000Z</time>
      </trkpt>
      <trkpt lat="49.86885" lon="4.76554">
        <ele>267</ele>
        <time>2022-06-06T09:28:41.000Z</time>
      </trkpt>
      <trkpt lat="49.86885" lon="4.76557">
        <ele>267</ele>
        <time>2022-06-06T09:28:42.000Z</time>
      </trkpt>
      <trkpt lat="49.86885" lon="4.76561">
        <ele>268</ele>
        <time>2022-06-06T09:28:43.000Z</time>
      </trkpt>
      <trkpt lat="49.86886" lon="4.76564">
        <ele>268</ele>
        <time>2022-06-06T09:28:44.000Z</time>
      </trkpt>
      <trkpt lat="49.86887" lon="4.76567">
        <ele>268</ele>
        <time>2022-06-06T09:28:45.000Z</time>
      </trkpt>
      <trkpt lat="49.86887" lon="4.7657">
        <ele>268</ele>
        <time>2022-06-06T09:28:46.000Z</time>
      </trkpt>
      <trkpt lat="49.86888" lon="4.76573">
        <ele>269</ele>
        <time>2022-06-06T09:28:47.000Z</time>
      </trkpt>
      <trkpt lat="49.86888" lon="4.76576">
        <ele>269</ele>
        <time>2022-06-06T09:28:48.000Z</time>
      </trkpt>
      <trkpt lat="49.86889" lon="4.76579">
        <ele>270</ele>
        <time>2022-06-06T09:28:49.000Z</time>
      </trkpt>
      <trkpt lat="49.8689" lon="4.76582">
        <ele>270</ele>
        <time>2022-06-06T09:28:50.000Z</time>
      </trkpt>
      <trkpt lat="49.8689" lon="4.76585">
        <ele>270</ele>
        <time>2022-06-06T09:28:51.000Z</time>
      </trkpt>
      <trkpt lat="49.86891" lon="4.76588">
        <ele>271</ele>
        <time>2022-06-06T09:28:52.000Z</time>
      </trkpt>
      <trkpt lat="49.86892" lon="4.7659">
        <ele>271</ele>
        <time>2022-06-06T09:28:53.000Z</time>
      </trkpt>
      <trkpt lat="49.86893" lon="4.76593">
        <ele>271</ele>
        <time>2022-06-06T09:28:54.000Z</time>
      </trkpt>
      <trkpt lat="49.86894" lon="4.76596">
        <ele>271</ele>
        <time>2022-06-06T09:28:55.000Z</time>
      </trkpt>
      <trkpt lat="49.86895" lon="4.76599">
        <ele>272</ele>
        <time>2022-06-06T09:28:56.000Z</time>
      </trkpt>
      <trkpt lat="49.86896" lon="4.76602">
        <ele>272</ele>
        <time>2022-06-06T09:28:57.000Z</time>
      </trkpt>
      <trkpt lat="49.86896" lon="4.76606">
        <ele>272</ele>
        <time>2022-06-06T09:28:58.000Z</time>
      </trkpt>
      <trkpt lat="49.86897" lon="4.7661">
        <ele>272</ele>
        <time>2022-06-06T09:28:59.000Z</time>
      </trkpt>
      <trkpt lat="49.86898" lon="4.76614">
        <ele>272</ele>
        <time>2022-06-06T09:29:00.000Z</time>
      </trkpt>
      <trkpt lat="49.86898" lon="4.76617">
        <ele>273</ele>
        <time>2022-06-06T09:29:01.000Z</time>
      </trkpt>
      <trkpt lat="49.86899" lon="4.76621">
        <ele>273</ele>
        <time>2022-06-06T09:29:02.000Z</time>
      </trkpt>
      <trkpt lat="49.869" lon="4.76625">
        <ele>273</ele>
        <time>2022-06-06T09:29:03.000Z</time>
      </trkpt>
      <trkpt lat="49.86901" lon="4.76628">
        <ele>274</ele>
        <time>2022-06-06T09:29:04.000Z</time>
      </trkpt>
      <trkpt lat="49.86902" lon="4.76632">
        <ele>274</ele>
        <time>2022-06-06T09:29:05.000Z</time>
      </trkpt>
      <trkpt lat="49.86903" lon="4.76636">
        <ele>274</ele>
        <time>2022-06-06T09:29:06.000Z</time>
      </trkpt>
      <trkpt lat="49.86904" lon="4.76639">
        <ele>275</ele>
        <time>2022-06-06T09:29:07.000Z</time>
      </trkpt>
      <trkpt lat="49.86905" lon="4.76643">
        <ele>275</ele>
        <time>2022-06-06T09:29:08.000Z</time>
      </trkpt>
      <trkpt lat="49.86905" lon="4.76647">
        <ele>275</ele>
        <time>2022-06-06T09:29:09.000Z</time>
      </trkpt>
      <trkpt lat="49.86906" lon="4.76652">
        <ele>275</ele>
        <time>2022-06-06T09:29:10.000Z</time>
      </trkpt>
      <trkpt lat="49.86907" lon="4.76656">
        <ele>276</ele>
        <time>2022-06-06T09:29:11.000Z</time>
      </trkpt>
      <trkpt lat="49.86908" lon="4.76661">
        <ele>276</ele>
        <time>2022-06-06T09:29:12.000Z</time>
      </trkpt>
      <trkpt lat="49.8691" lon="4.76665">
        <ele>276</ele>
        <time>2022-06-06T09:29:13.000Z</time>
      </trkpt>
      <trkpt lat="49.8691" lon="4.76669">
        <ele>277</ele>
        <time>2022-06-06T09:29:14.000Z</time>
      </trkpt>
      <trkpt lat="49.86911" lon="4.76672">
        <ele>277</ele>
        <time>2022-06-06T09:29:15.000Z</time>
      </trkpt>
      <trkpt lat="49.86912" lon="4.76675">
        <ele>277</ele>
        <time>2022-06-06T09:29:16.000Z</time>
      </trkpt>
      <trkpt lat="49.86913" lon="4.76679">
        <ele>278</ele>
        <time>2022-06-06T09:29:17.000Z</time>
      </trkpt>
      <trkpt lat="49.86914" lon="4.76683">
        <ele>278</ele>
        <time>2022-06-06T09:29:18.000Z</time>
      </trkpt>
      <trkpt lat="49.86914" lon="4.76685">
        <ele>278</ele>
        <time>2022-06-06T09:29:19.000Z</time>
      </trkpt>
      <trkpt lat="49.86915" lon="4.76688">
        <ele>278</ele>
        <time>2022-06-06T09:29:20.000Z</time>
      </trkpt>
      <trkpt lat="49.86915" lon="4.76691">
        <ele>279</ele>
        <time>2022-06-06T09:29:21.000Z</time>
      </trkpt>
      <trkpt lat="49.86915" lon="4.76694">
        <ele>279</ele>
        <time>2022-06-06T09:29:22.000Z</time>
      </trkpt>
      <trkpt lat="49.86916" lon="4.76698">
        <ele>279</ele>
        <time>2022-06-06T09:29:23.000Z</time>
      </trkpt>
      <trkpt lat="49.86918" lon="4.76703">
        <ele>280</ele>
        <time>2022-06-06T09:29:24.000Z</time>
      </trkpt>
      <trkpt lat="49.86919" lon="4.76707">
        <ele>280</ele>
        <time>2022-06-06T09:29:25.000Z</time>
      </trkpt>
      <trkpt lat="49.8692" lon="4.76712">
        <ele>280</ele>
        <time>2022-06-06T09:29:26.000Z</time>
      </trkpt>
      <trkpt lat="49.86921" lon="4.76716">
        <ele>281</ele>
        <time>2022-06-06T09:29:27.000Z</time>
      </trkpt>
      <trkpt lat="49.86922" lon="4.7672">
        <ele>281</ele>
        <time>2022-06-06T09:29:28.000Z</time>
      </trkpt>
      <trkpt lat="49.86923" lon="4.76724">
        <ele>281</ele>
        <time>2022-06-06T09:29:29.000Z</time>
      </trkpt>
      <trkpt lat="49.86925" lon="4.76728">
        <ele>281</ele>
        <time>2022-06-06T09:29:30.000Z</time>
      </trkpt>
      <trkpt lat="49.86926" lon="4.76732">
        <ele>282</ele>
        <time>2022-06-06T09:29:31.000Z</time>
      </trkpt>
      <trkpt lat="49.86927" lon="4.76737">
        <ele>282</ele>
        <time>2022-06-06T09:29:32.000Z</time>
      </trkpt>
      <trkpt lat="49.86928" lon="4.76741">
        <ele>282</ele>
        <time>2022-06-06T09:29:33.000Z</time>
      </trkpt>
      <trkpt lat="49.86929" lon="4.76745">
        <ele>282</ele>
        <time>2022-06-06T09:29:34.000Z</time>
      </trkpt>
      <trkpt lat="49.8693" lon="4.7675">
        <ele>283</ele>
        <time>2022-06-06T09:29:35.000Z</time>
      </trkpt>
      <trkpt lat="49.86931" lon="4.76754">
        <ele>283</ele>
        <time>2022-06-06T09:29:36.000Z</time>
      </trkpt>
      <trkpt lat="49.86933" lon="4.76758">
        <ele>283</ele>
        <time>2022-06-06T09:29:37.000Z</time>
      </trkpt>
      <trkpt lat="49.86935" lon="4.76762">
        <ele>283</ele>
        <time>2022-06-06T09:29:38.000Z</time>
      </trkpt>
      <trkpt lat="49.86936" lon="4.76766">
        <ele>284</ele>
        <time>2022-06-06T09:29:39.000Z</time>
      </trkpt>
      <trkpt lat="49.86938" lon="4.76771">
        <ele>284</ele>
        <time>2022-06-06T09:29:40.000Z</time>
      </trkpt>
      <trkpt lat="49.86939" lon="4.76774">
        <ele>284</ele>
        <time>2022-06-06T09:29:41.000Z</time>
      </trkpt>
      <trkpt lat="49.8694" lon="4.76778">
        <ele>284</ele>
        <time>2022-06-06T09:29:42.000Z</time>
      </trkpt>
      <trkpt lat="49.86941" lon="4.76781">
        <ele>285</ele>
        <time>2022-06-06T09:29:43.000Z</time>
      </trkpt>
      <trkpt lat="49.86942" lon="4.76784">
        <ele>285</ele>
        <time>2022-06-06T09:29:44.000Z</time>
      </trkpt>
      <trkpt lat="49.86943" lon="4.76786">
        <ele>285</ele>
        <time>2022-06-06T09:29:45.000Z</time>
      </trkpt>
      <trkpt lat="49.86944" lon="4.76789">
        <ele>285</ele>
        <time>2022-06-06T09:29:46.000Z</time>
      </trkpt>
      <trkpt lat="49.86945" lon="4.76791">
        <ele>285</ele>
        <time>2022-06-06T09:29:47.000Z</time>
      </trkpt>
      <trkpt lat="49.86946" lon="4.76794">
        <ele>286</ele>
        <time>2022-06-06T09:29:48.000Z</time>
      </trkpt>
      <trkpt lat="49.86947" lon="4.76799">
        <ele>286</ele>
        <time>2022-06-06T09:29:49.000Z</time>
      </trkpt>
      <trkpt lat="49.86948" lon="4.76803">
        <ele>286</ele>
        <time>2022-06-06T09:29:50.000Z</time>
      </trkpt>
      <trkpt lat="49.86948" lon="4.76808">
        <ele>286</ele>
        <time>2022-06-06T09:29:51.000Z</time>
      </trkpt>
      <trkpt lat="49.86948" lon="4.76812">
        <ele>286</ele>
        <time>2022-06-06T09:29:52.000Z</time>
      </trkpt>
      <trkpt lat="49.86949" lon="4.76815">
        <ele>286</ele>
        <time>2022-06-06T09:29:53.000Z</time>
      </trkpt>
      <trkpt lat="49.8695" lon="4.76818">
        <ele>286</ele>
        <time>2022-06-06T09:29:54.000Z</time>
      </trkpt>
      <trkpt lat="49.86951" lon="4.76821">
        <ele>286</ele>
        <time>2022-06-06T09:29:55.000Z</time>
      </trkpt>
      <trkpt lat="49.86952" lon="4.76824">
        <ele>286</ele>
        <time>2022-06-06T09:29:56.000Z</time>
      </trkpt>
      <trkpt lat="49.86952" lon="4.76827">
        <ele>286</ele>
        <time>2022-06-06T09:29:57.000Z</time>
      </trkpt>
      <trkpt lat="49.86953" lon="4.76829">
        <ele>287</ele>
        <time>2022-06-06T09:29:58.000Z</time>
      </trkpt>
      <trkpt lat="49.86953" lon="4.76832">
        <ele>287</ele>
        <time>2022-06-06T09:29:59.000Z</time>
      </trkpt>
      <trkpt lat="49.86954" lon="4.76835">
        <ele>287</ele>
        <time>2022-06-06T09:30:00.000Z</time>
      </trkpt>
      <trkpt lat="49.86954" lon="4.76837">
        <ele>287</ele>
        <time>2022-06-06T09:30:01.000Z</time>
      </trkpt>
      <trkpt lat="49.86955" lon="4.76839">
        <ele>287</ele>
        <time>2022-06-06T09:30:02.000Z</time>
      </trkpt>
      <trkpt lat="49.86955" lon="4.76842">
        <ele>288</ele>
        <time>2022-06-06T09:30:03.000Z</time>
      </trkpt>
      <trkpt lat="49.86955" lon="4.76844">
        <ele>288</ele>
        <time>2022-06-06T09:30:04.000Z</time>
      </trkpt>
      <trkpt lat="49.86955" lon="4.76847">
        <ele>288</ele>
        <time>2022-06-06T09:30:05.000Z</time>
      </trkpt>
      <trkpt lat="49.86956" lon="4.76849">
        <ele>288</ele>
        <time>2022-06-06T09:30:06.000Z</time>
      </trkpt>
      <trkpt lat="49.86956" lon="4.76852">
        <ele>289</ele>
        <time>2022-06-06T09:30:07.000Z</time>
      </trkpt>
      <trkpt lat="49.86956" lon="4.76854">
        <ele>289</ele>
        <time>2022-06-06T09:30:08.000Z</time>
      </trkpt>
      <trkpt lat="49.86956" lon="4.76856">
        <ele>289</ele>
        <time>2022-06-06T09:30:09.000Z</time>
      </trkpt>
      <trkpt lat="49.86957" lon="4.76858">
        <ele>289</ele>
        <time>2022-06-06T09:30:10.000Z</time>
      </trkpt>
      <trkpt lat="49.86957" lon="4.76861">
        <ele>290</ele>
        <time>2022-06-06T09:30:11.000Z</time>
      </trkpt>
      <trkpt lat="49.86957" lon="4.76863">
        <ele>290</ele>
        <time>2022-06-06T09:30:12.000Z</time>
      </trkpt>
      <trkpt lat="49.86958" lon="4.76865">
        <ele>290</ele>
        <time>2022-06-06T09:30:13.000Z</time>
      </trkpt>
      <trkpt lat="49.86959" lon="4.76868">
        <ele>290</ele>
        <time>2022-06-06T09:30:14.000Z</time>
      </trkpt>
      <trkpt lat="49.8696" lon="4.76871">
        <ele>290</ele>
        <time>2022-06-06T09:30:15.000Z</time>
      </trkpt>
      <trkpt lat="49.86961" lon="4.76872">
        <ele>291</ele>
        <time>2022-06-06T09:30:16.000Z</time>
      </trkpt>
      <trkpt lat="49.86961" lon="4.76874">
        <ele>291</ele>
        <time>2022-06-06T09:30:17.000Z</time>
      </trkpt>
      <trkpt lat="49.86962" lon="4.76876">
        <ele>291</ele>
        <time>2022-06-06T09:30:18.000Z</time>
      </trkpt>
      <trkpt lat="49.86963" lon="4.76878">
        <ele>292</ele>
        <time>2022-06-06T09:30:19.000Z</time>
      </trkpt>
      <trkpt lat="49.86963" lon="4.7688">
        <ele>292</ele>
        <time>2022-06-06T09:30:20.000Z</time>
      </trkpt>
      <trkpt lat="49.86964" lon="4.76881">
        <ele>292</ele>
        <time>2022-06-06T09:30:21.000Z</time>
      </trkpt>
      <trkpt lat="49.86965" lon="4.76883">
        <ele>292</ele>
        <time>2022-06-06T09:30:22.000Z</time>
      </trkpt>
      <trkpt lat="49.86965" lon="4.76885">
        <ele>293</ele>
        <time>2022-06-06T09:30:23.000Z</time>
      </trkpt>
      <trkpt lat="49.86966" lon="4.76886">
        <ele>293</ele>
        <time>2022-06-06T09:30:24.000Z</time>
      </trkpt>
      <trkpt lat="49.86966" lon="4.76887">
        <ele>293</ele>
        <time>2022-06-06T09:30:25.000Z</time>
      </trkpt>
      <trkpt lat="49.86967" lon="4.76888">
        <ele>293</ele>
        <time>2022-06-06T09:30:26.000Z</time>
      </trkpt>
      <trkpt lat="49.86967" lon="4.76889">
        <ele>294</ele>
        <time>2022-06-06T09:30:27.000Z</time>
      </trkpt>
      <trkpt lat="49.86968" lon="4.7689">
        <ele>294</ele>
        <time>2022-06-06T09:30:28.000Z</time>
      </trkpt>
      <trkpt lat="49.86968" lon="4.76892">
        <ele>294</ele>
        <time>2022-06-06T09:30:29.000Z</time>
      </trkpt>
      <trkpt lat="49.86968" lon="4.76893">
        <ele>294</ele>
        <time>2022-06-06T09:30:30.000Z</time>
      </trkpt>
      <trkpt lat="49.86969" lon="4.76896">
        <ele>295</ele>
        <time>2022-06-06T09:30:31.000Z</time>
      </trkpt>
      <trkpt lat="49.8697" lon="4.76898">
        <ele>295</ele>
        <time>2022-06-06T09:30:32.000Z</time>
      </trkpt>
      <trkpt lat="49.8697" lon="4.769">
        <ele>295</ele>
        <time>2022-06-06T09:30:33.000Z</time>
      </trkpt>
      <trkpt lat="49.86971" lon="4.76901">
        <ele>295</ele>
        <time>2022-06-06T09:30:34.000Z</time>
      </trkpt>
      <trkpt lat="49.86971" lon="4.76904">
        <ele>296</ele>
        <time>2022-06-06T09:30:35.000Z</time>
      </trkpt>
      <trkpt lat="49.86972" lon="4.76906">
        <ele>296</ele>
        <time>2022-06-06T09:30:36.000Z</time>
      </trkpt>
      <trkpt lat="49.86972" lon="4.76908">
        <ele>296</ele>
        <time>2022-06-06T09:30:37.000Z</time>
      </trkpt>
      <trkpt lat="49.86972" lon="4.7691">
        <ele>296</ele>
        <time>2022-06-06T09:30:38.000Z</time>
      </trkpt>
      <trkpt lat="49.86973" lon="4.76912">
        <ele>297</ele>
        <time>2022-06-06T09:30:39.000Z</time>
      </trkpt>
      <trkpt lat="49.86973" lon="4.76915">
        <ele>297</ele>
        <time>2022-06-06T09:30:40.000Z</time>
      </trkpt>
      <trkpt lat="49.86974" lon="4.76917">
        <ele>297</ele>
        <time>2022-06-06T09:30:41.000Z</time>
      </trkpt>
      <trkpt lat="49.86974" lon="4.76919">
        <ele>297</ele>
        <time>2022-06-06T09:30:42.000Z</time>
      </trkpt>
      <trkpt lat="49.86975" lon="4.76921">
        <ele>298</ele>
        <time>2022-06-06T09:30:43.000Z</time>
      </trkpt>
      <trkpt lat="49.86976" lon="4.76924">
        <ele>298</ele>
        <time>2022-06-06T09:30:44.000Z</time>
      </trkpt>
      <trkpt lat="49.86977" lon="4.76926">
        <ele>298</ele>
        <time>2022-06-06T09:30:45.000Z</time>
      </trkpt>
      <trkpt lat="49.86977" lon="4.76929">
        <ele>298</ele>
        <time>2022-06-06T09:30:46.000Z</time>
      </trkpt>
      <trkpt lat="49.86977" lon="4.76932">
        <ele>298</ele>
        <time>2022-06-06T09:30:47.000Z</time>
      </trkpt>
      <trkpt lat="49.86978" lon="4.76934">
        <ele>298</ele>
        <time>2022-06-06T09:30:48.000Z</time>
      </trkpt>
      <trkpt lat="49.86978" lon="4.76937">
        <ele>298</ele>
        <time>2022-06-06T09:30:49.000Z</time>
      </trkpt>
      <trkpt lat="49.86979" lon="4.7694">
        <ele>298</ele>
        <time>2022-06-06T09:30:50.000Z</time>
      </trkpt>
      <trkpt lat="49.86979" lon="4.76942">
        <ele>298</ele>
        <time>2022-06-06T09:30:51.000Z</time>
      </trkpt>
      <trkpt lat="49.8698" lon="4.76945">
        <ele>299</ele>
        <time>2022-06-06T09:30:52.000Z</time>
      </trkpt>
      <trkpt lat="49.8698" lon="4.76948">
        <ele>299</ele>
        <time>2022-06-06T09:30:53.000Z</time>
      </trkpt>
      <trkpt lat="49.86981" lon="4.76951">
        <ele>299</ele>
        <time>2022-06-06T09:30:54.000Z</time>
      </trkpt>
      <trkpt lat="49.86982" lon="4.76954">
        <ele>299</ele>
        <time>2022-06-06T09:30:55.000Z</time>
      </trkpt>
      <trkpt lat="49.86983" lon="4.76957">
        <ele>299</ele>
        <time>2022-06-06T09:30:56.000Z</time>
      </trkpt>
      <trkpt lat="49.86984" lon="4.7696">
        <ele>299</ele>
        <time>2022-06-06T09:30:57.000Z</time>
      </trkpt>
      <trkpt lat="49.86984" lon="4.76963">
        <ele>299</ele>
        <time>2022-06-06T09:30:58.000Z</time>
      </trkpt>
      <trkpt lat="49.86985" lon="4.76965">
        <ele>299</ele>
        <time>2022-06-06T09:30:59.000Z</time>
      </trkpt>
      <trkpt lat="49.86986" lon="4.76967">
        <ele>299</ele>
        <time>2022-06-06T09:31:00.000Z</time>
      </trkpt>
      <trkpt lat="49.86987" lon="4.76969">
        <ele>300</ele>
        <time>2022-06-06T09:31:01.000Z</time>
      </trkpt>
      <trkpt lat="49.86987" lon="4.76972">
        <ele>300</ele>
        <time>2022-06-06T09:31:02.000Z</time>
      </trkpt>
      <trkpt lat="49.86987" lon="4.76975">
        <ele>300</ele>
        <time>2022-06-06T09:31:03.000Z</time>
      </trkpt>
      <trkpt lat="49.86987" lon="4.76978">
        <ele>300</ele>
        <time>2022-06-06T09:31:04.000Z</time>
      </trkpt>
      <trkpt lat="49.86988" lon="4.76981">
        <ele>300</ele>
        <time>2022-06-06T09:31:05.000Z</time>
      </trkpt>
      <trkpt lat="49.86989" lon="4.76984">
        <ele>301</ele>
        <time>2022-06-06T09:31:06.000Z</time>
      </trkpt>
      <trkpt lat="49.8699" lon="4.76988">
        <ele>301</ele>
        <time>2022-06-06T09:31:07.000Z</time>
      </trkpt>
      <trkpt lat="49.86991" lon="4.76992">
        <ele>301</ele>
        <time>2022-06-06T09:31:08.000Z</time>
      </trkpt>
      <trkpt lat="49.86992" lon="4.76995">
        <ele>301</ele>
        <time>2022-06-06T09:31:09.000Z</time>
      </trkpt>
      <trkpt lat="49.86993" lon="4.76999">
        <ele>302</ele>
        <time>2022-06-06T09:31:10.000Z</time>
      </trkpt>
      <trkpt lat="49.86994" lon="4.77002">
        <ele>302</ele>
        <time>2022-06-06T09:31:11.000Z</time>
      </trkpt>
      <trkpt lat="49.86994" lon="4.77006">
        <ele>302</ele>
        <time>2022-06-06T09:31:12.000Z</time>
      </trkpt>
      <trkpt lat="49.86995" lon="4.77009">
        <ele>302</ele>
        <time>2022-06-06T09:31:13.000Z</time>
      </trkpt>
      <trkpt lat="49.86996" lon="4.77011">
        <ele>303</ele>
        <time>2022-06-06T09:31:14.000Z</time>
      </trkpt>
      <trkpt lat="49.86998" lon="4.77014">
        <ele>303</ele>
        <time>2022-06-06T09:31:15.000Z</time>
      </trkpt>
      <trkpt lat="49.86998" lon="4.77017">
        <ele>303</ele>
        <time>2022-06-06T09:31:16.000Z</time>
      </trkpt>
      <trkpt lat="49.86999" lon="4.7702">
        <ele>303</ele>
        <time>2022-06-06T09:31:17.000Z</time>
      </trkpt>
      <trkpt lat="49.87" lon="4.77024">
        <ele>303</ele>
        <time>2022-06-06T09:31:18.000Z</time>
      </trkpt>
      <trkpt lat="49.87002" lon="4.77028">
        <ele>302</ele>
        <time>2022-06-06T09:31:19.000Z</time>
      </trkpt>
      <trkpt lat="49.87003" lon="4.77032">
        <ele>302</ele>
        <time>2022-06-06T09:31:20.000Z</time>
      </trkpt>
      <trkpt lat="49.87004" lon="4.77034">
        <ele>302</ele>
        <time>2022-06-06T09:31:21.000Z</time>
      </trkpt>
      <trkpt lat="49.87005" lon="4.77038">
        <ele>302</ele>
        <time>2022-06-06T09:31:22.000Z</time>
      </trkpt>
      <trkpt lat="49.87005" lon="4.77041">
        <ele>302</ele>
        <time>2022-06-06T09:31:23.000Z</time>
      </trkpt>
      <trkpt lat="49.87005" lon="4.77044">
        <ele>302</ele>
        <time>2022-06-06T09:31:24.000Z</time>
      </trkpt>
      <trkpt lat="49.87006" lon="4.77048">
        <ele>302</ele>
        <time>2022-06-06T09:31:25.000Z</time>
      </trkpt>
      <trkpt lat="49.87006" lon="4.77052">
        <ele>302</ele>
        <time>2022-06-06T09:31:26.000Z</time>
      </trkpt>
      <trkpt lat="49.87005" lon="4.77054">
        <ele>302</ele>
        <time>2022-06-06T09:31:27.000Z</time>
      </trkpt>
      <trkpt lat="49.87005" lon="4.77057">
        <ele>302</ele>
        <time>2022-06-06T09:31:28.000Z</time>
      </trkpt>
      <trkpt lat="49.87005" lon="4.7706">
        <ele>302</ele>
        <time>2022-06-06T09:31:29.000Z</time>
      </trkpt>
      <trkpt lat="49.87004" lon="4.77062">
        <ele>302</ele>
        <time>2022-06-06T09:31:30.000Z</time>
      </trkpt>
      <trkpt lat="49.87003" lon="4.77065">
        <ele>302</ele>
        <time>2022-06-06T09:31:31.000Z</time>
      </trkpt>
      <trkpt lat="49.87001" lon="4.77068">
        <ele>303</ele>
        <time>2022-06-06T09:31:32.000Z</time>
      </trkpt>
      <trkpt lat="49.86999" lon="4.77073">
        <ele>303</ele>
        <time>2022-06-06T09:31:33.000Z</time>
      </trkpt>
      <trkpt lat="49.86998" lon="4.77076">
        <ele>303</ele>
        <time>2022-06-06T09:31:34.000Z</time>
      </trkpt>
      <trkpt lat="49.86996" lon="4.7708">
        <ele>303</ele>
        <time>2022-06-06T09:31:35.000Z</time>
      </trkpt>
      <trkpt lat="49.86995" lon="4.77082">
        <ele>303</ele>
        <time>2022-06-06T09:31:36.000Z</time>
      </trkpt>
      <trkpt lat="49.86994" lon="4.77085">
        <ele>303</ele>
        <time>2022-06-06T09:31:37.000Z</time>
      </trkpt>
      <trkpt lat="49.86994" lon="4.77088">
        <ele>304</ele>
        <time>2022-06-06T09:31:38.000Z</time>
      </trkpt>
      <trkpt lat="49.86993" lon="4.7709">
        <ele>304</ele>
        <time>2022-06-06T09:31:39.000Z</time>
      </trkpt>
      <trkpt lat="49.86992" lon="4.77092">
        <ele>304</ele>
        <time>2022-06-06T09:31:40.000Z</time>
      </trkpt>
      <trkpt lat="49.86991" lon="4.77095">
        <ele>304</ele>
        <time>2022-06-06T09:31:41.000Z</time>
      </trkpt>
      <trkpt lat="49.86989" lon="4.77099">
        <ele>304</ele>
        <time>2022-06-06T09:31:42.000Z</time>
      </trkpt>
      <trkpt lat="49.86987" lon="4.77103">
        <ele>305</ele>
        <time>2022-06-06T09:31:43.000Z</time>
      </trkpt>
      <trkpt lat="49.86985" lon="4.77107">
        <ele>305</ele>
        <time>2022-06-06T09:31:44.000Z</time>
      </trkpt>
      <trkpt lat="49.86983" lon="4.77111">
        <ele>305</ele>
        <time>2022-06-06T09:31:45.000Z</time>
      </trkpt>
      <trkpt lat="49.86981" lon="4.77115">
        <ele>305</ele>
        <time>2022-06-06T09:31:46.000Z</time>
      </trkpt>
      <trkpt lat="49.8698" lon="4.77119">
        <ele>305</ele>
        <time>2022-06-06T09:31:47.000Z</time>
      </trkpt>
      <trkpt lat="49.86978" lon="4.77122">
        <ele>305</ele>
        <time>2022-06-06T09:31:48.000Z</time>
      </trkpt>
      <trkpt lat="49.86976" lon="4.77126">
        <ele>305</ele>
        <time>2022-06-06T09:31:49.000Z</time>
      </trkpt>
      <trkpt lat="49.86974" lon="4.77129">
        <ele>305</ele>
        <time>2022-06-06T09:31:50.000Z</time>
      </trkpt>
      <trkpt lat="49.86972" lon="4.77133">
        <ele>306</ele>
        <time>2022-06-06T09:31:51.000Z</time>
      </trkpt>
      <trkpt lat="49.8697" lon="4.77136">
        <ele>306</ele>
        <time>2022-06-06T09:31:52.000Z</time>
      </trkpt>
      <trkpt lat="49.86968" lon="4.77139">
        <ele>306</ele>
        <time>2022-06-06T09:31:53.000Z</time>
      </trkpt>
      <trkpt lat="49.86967" lon="4.77141">
        <ele>306</ele>
        <time>2022-06-06T09:31:54.000Z</time>
      </trkpt>
      <trkpt lat="49.86965" lon="4.77144">
        <ele>306</ele>
        <time>2022-06-06T09:31:55.000Z</time>
      </trkpt>
      <trkpt lat="49.86964" lon="4.77147">
        <ele>306</ele>
        <time>2022-06-06T09:31:56.000Z</time>
      </trkpt>
      <trkpt lat="49.86962" lon="4.77151">
        <ele>306</ele>
        <time>2022-06-06T09:31:57.000Z</time>
      </trkpt>
      <trkpt lat="49.86961" lon="4.77154">
        <ele>306</ele>
        <time>2022-06-06T09:31:58.000Z</time>
      </trkpt>
      <trkpt lat="49.86959" lon="4.77159">
        <ele>306</ele>
        <time>2022-06-06T09:31:59.000Z</time>
      </trkpt>
      <trkpt lat="49.86957" lon="4.77163">
        <ele>306</ele>
        <time>2022-06-06T09:32:00.000Z</time>
      </trkpt>
      <trkpt lat="49.86955" lon="4.77167">
        <ele>306</ele>
        <time>2022-06-06T09:32:01.000Z</time>
      </trkpt>
      <trkpt lat="49.86953" lon="4.77171">
        <ele>306</ele>
        <time>2022-06-06T09:32:02.000Z</time>
      </trkpt>
      <trkpt lat="49.86952" lon="4.77175">
        <ele>306</ele>
        <time>2022-06-06T09:32:03.000Z</time>
      </trkpt>
      <trkpt lat="49.8695" lon="4.77179">
        <ele>307</ele>
        <time>2022-06-06T09:32:04.000Z</time>
      </trkpt>
      <trkpt lat="49.86948" lon="4.77183">
        <ele>307</ele>
        <time>2022-06-06T09:32:05.000Z</time>
      </trkpt>
      <trkpt lat="49.86947" lon="4.77186">
        <ele>307</ele>
        <time>2022-06-06T09:32:06.000Z</time>
      </trkpt>
      <trkpt lat="49.86946" lon="4.77189">
        <ele>307</ele>
        <time>2022-06-06T09:32:07.000Z</time>
      </trkpt>
      <trkpt lat="49.86945" lon="4.77192">
        <ele>307</ele>
        <time>2022-06-06T09:32:08.000Z</time>
      </trkpt>
      <trkpt lat="49.86944" lon="4.77196">
        <ele>307</ele>
        <time>2022-06-06T09:32:09.000Z</time>
      </trkpt>
      <trkpt lat="49.86942" lon="4.772">
        <ele>308</ele>
        <time>2022-06-06T09:32:10.000Z</time>
      </trkpt>
      <trkpt lat="49.8694" lon="4.77203">
        <ele>308</ele>
        <time>2022-06-06T09:32:11.000Z</time>
      </trkpt>
      <trkpt lat="49.86939" lon="4.77207">
        <ele>308</ele>
        <time>2022-06-06T09:32:12.000Z</time>
      </trkpt>
      <trkpt lat="49.86938" lon="4.77211">
        <ele>308</ele>
        <time>2022-06-06T09:32:13.000Z</time>
      </trkpt>
      <trkpt lat="49.86937" lon="4.77215">
        <ele>309</ele>
        <time>2022-06-06T09:32:14.000Z</time>
      </trkpt>
      <trkpt lat="49.86935" lon="4.77219">
        <ele>309</ele>
        <time>2022-06-06T09:32:15.000Z</time>
      </trkpt>
      <trkpt lat="49.86934" lon="4.77223">
        <ele>309</ele>
        <time>2022-06-06T09:32:16.000Z</time>
      </trkpt>
      <trkpt lat="49.86933" lon="4.77226">
        <ele>309</ele>
        <time>2022-06-06T09:32:17.000Z</time>
      </trkpt>
      <trkpt lat="49.86932" lon="4.7723">
        <ele>310</ele>
        <time>2022-06-06T09:32:18.000Z</time>
      </trkpt>
      <trkpt lat="49.86931" lon="4.77235">
        <ele>310</ele>
        <time>2022-06-06T09:32:19.000Z</time>
      </trkpt>
      <trkpt lat="49.8693" lon="4.77239">
        <ele>310</ele>
        <time>2022-06-06T09:32:20.000Z</time>
      </trkpt>
      <trkpt lat="49.86929" lon="4.77243">
        <ele>310</ele>
        <time>2022-06-06T09:32:21.000Z</time>
      </trkpt>
      <trkpt lat="49.86927" lon="4.77246">
        <ele>310</ele>
        <time>2022-06-06T09:32:22.000Z</time>
      </trkpt>
      <trkpt lat="49.86926" lon="4.77251">
        <ele>311</ele>
        <time>2022-06-06T09:32:23.000Z</time>
      </trkpt>
      <trkpt lat="49.86925" lon="4.77255">
        <ele>311</ele>
        <time>2022-06-06T09:32:24.000Z</time>
      </trkpt>
      <trkpt lat="49.86924" lon="4.77259">
        <ele>311</ele>
        <time>2022-06-06T09:32:25.000Z</time>
      </trkpt>
      <trkpt lat="49.86923" lon="4.77263">
        <ele>311</ele>
        <time>2022-06-06T09:32:26.000Z</time>
      </trkpt>
      <trkpt lat="49.86921" lon="4.77267">
        <ele>312</ele>
        <time>2022-06-06T09:32:27.000Z</time>
      </trkpt>
      <trkpt lat="49.8692" lon="4.7727">
        <ele>312</ele>
        <time>2022-06-06T09:32:28.000Z</time>
      </trkpt>
      <trkpt lat="49.86918" lon="4.77274">
        <ele>312</ele>
        <time>2022-06-06T09:32:29.000Z</time>
      </trkpt>
      <trkpt lat="49.86917" lon="4.77277">
        <ele>313</ele>
        <time>2022-06-06T09:32:30.000Z</time>
      </trkpt>
      <trkpt lat="49.86916" lon="4.77279">
        <ele>313</ele>
        <time>2022-06-06T09:32:31.000Z</time>
      </trkpt>
      <trkpt lat="49.86915" lon="4.77282">
        <ele>313</ele>
        <time>2022-06-06T09:32:32.000Z</time>
      </trkpt>
      <trkpt lat="49.86914" lon="4.77284">
        <ele>313</ele>
        <time>2022-06-06T09:32:33.000Z</time>
      </trkpt>
      <trkpt lat="49.86913" lon="4.77287">
        <ele>314</ele>
        <time>2022-06-06T09:32:34.000Z</time>
      </trkpt>
      <trkpt lat="49.86911" lon="4.77288">
        <ele>314</ele>
        <time>2022-06-06T09:32:35.000Z</time>
      </trkpt>
      <trkpt lat="49.8691" lon="4.7729">
        <ele>314</ele>
        <time>2022-06-06T09:32:36.000Z</time>
      </trkpt>
      <trkpt lat="49.86908" lon="4.77292">
        <ele>314</ele>
        <time>2022-06-06T09:32:37.000Z</time>
      </trkpt>
      <trkpt lat="49.86907" lon="4.77293">
        <ele>314</ele>
        <time>2022-06-06T09:32:38.000Z</time>
      </trkpt>
      <trkpt lat="49.86906" lon="4.77295">
        <ele>314</ele>
        <time>2022-06-06T09:32:39.000Z</time>
      </trkpt>
      <trkpt lat="49.86904" lon="4.77298">
        <ele>314</ele>
        <time>2022-06-06T09:32:40.000Z</time>
      </trkpt>
      <trkpt lat="49.86903" lon="4.77302">
        <ele>314</ele>
        <time>2022-06-06T09:32:41.000Z</time>
      </trkpt>
      <trkpt lat="49.86902" lon="4.77306">
        <ele>314</ele>
        <time>2022-06-06T09:32:42.000Z</time>
      </trkpt>
      <trkpt lat="49.86901" lon="4.7731">
        <ele>314</ele>
        <time>2022-06-06T09:32:43.000Z</time>
      </trkpt>
      <trkpt lat="49.86899" lon="4.77314">
        <ele>314</ele>
        <time>2022-06-06T09:32:44.000Z</time>
      </trkpt>
      <trkpt lat="49.86899" lon="4.77319">
        <ele>314</ele>
        <time>2022-06-06T09:32:45.000Z</time>
      </trkpt>
      <trkpt lat="49.86898" lon="4.77324">
        <ele>315</ele>
        <time>2022-06-06T09:32:46.000Z</time>
      </trkpt>
      <trkpt lat="49.86897" lon="4.77329">
        <ele>315</ele>
        <time>2022-06-06T09:32:47.000Z</time>
      </trkpt>
      <trkpt lat="49.86897" lon="4.77334">
        <ele>315</ele>
        <time>2022-06-06T09:32:48.000Z</time>
      </trkpt>
      <trkpt lat="49.86897" lon="4.77339">
        <ele>315</ele>
        <time>2022-06-06T09:32:49.000Z</time>
      </trkpt>
      <trkpt lat="49.86896" lon="4.77345">
        <ele>315</ele>
        <time>2022-06-06T09:32:50.000Z</time>
      </trkpt>
      <trkpt lat="49.86896" lon="4.77352">
        <ele>316</ele>
        <time>2022-06-06T09:32:51.000Z</time>
      </trkpt>
      <trkpt lat="49.86895" lon="4.77359">
        <ele>316</ele>
        <time>2022-06-06T09:32:52.000Z</time>
      </trkpt>
      <trkpt lat="49.86895" lon="4.77365">
        <ele>316</ele>
        <time>2022-06-06T09:32:53.000Z</time>
      </trkpt>
      <trkpt lat="49.86895" lon="4.77371">
        <ele>316</ele>
        <time>2022-06-06T09:32:54.000Z</time>
      </trkpt>
      <trkpt lat="49.86895" lon="4.77376">
        <ele>317</ele>
        <time>2022-06-06T09:32:55.000Z</time>
      </trkpt>
      <trkpt lat="49.86895" lon="4.77381">
        <ele>317</ele>
        <time>2022-06-06T09:32:56.000Z</time>
      </trkpt>
      <trkpt lat="49.86894" lon="4.77385">
        <ele>317</ele>
        <time>2022-06-06T09:32:57.000Z</time>
      </trkpt>
      <trkpt lat="49.86893" lon="4.77389">
        <ele>317</ele>
        <time>2022-06-06T09:32:58.000Z</time>
      </trkpt>
      <trkpt lat="49.86893" lon="4.77395">
        <ele>318</ele>
        <time>2022-06-06T09:32:59.000Z</time>
      </trkpt>
      <trkpt lat="49.86892" lon="4.774">
        <ele>318</ele>
        <time>2022-06-06T09:33:00.000Z</time>
      </trkpt>
      <trkpt lat="49.86892" lon="4.77406">
        <ele>318</ele>
        <time>2022-06-06T09:33:01.000Z</time>
      </trkpt>
      <trkpt lat="49.86891" lon="4.77411">
        <ele>318</ele>
        <time>2022-06-06T09:33:02.000Z</time>
      </trkpt>
      <trkpt lat="49.86891" lon="4.77416">
        <ele>319</ele>
        <time>2022-06-06T09:33:03.000Z</time>
      </trkpt>
      <trkpt lat="49.86892" lon="4.77419">
        <ele>319</ele>
        <time>2022-06-06T09:33:04.000Z</time>
      </trkpt>
      <trkpt lat="49.86893" lon="4.77423">
        <ele>319</ele>
        <time>2022-06-06T09:33:05.000Z</time>
      </trkpt>
      <trkpt lat="49.86895" lon="4.77429">
        <ele>319</ele>
        <time>2022-06-06T09:33:06.000Z</time>
      </trkpt>
      <trkpt lat="49.86895" lon="4.77435">
        <ele>320</ele>
        <time>2022-06-06T09:33:07.000Z</time>
      </trkpt>
      <trkpt lat="49.86896" lon="4.77442">
        <ele>320</ele>
        <time>2022-06-06T09:33:08.000Z</time>
      </trkpt>
      <trkpt lat="49.86897" lon="4.77448">
        <ele>320</ele>
        <time>2022-06-06T09:33:09.000Z</time>
      </trkpt>
      <trkpt lat="49.86897" lon="4.77454">
        <ele>320</ele>
        <time>2022-06-06T09:33:10.000Z</time>
      </trkpt>
      <trkpt lat="49.86898" lon="4.7746">
        <ele>321</ele>
        <time>2022-06-06T09:33:11.000Z</time>
      </trkpt>
      <trkpt lat="49.86899" lon="4.77466">
        <ele>321</ele>
        <time>2022-06-06T09:33:12.000Z</time>
      </trkpt>
      <trkpt lat="49.86899" lon="4.77472">
        <ele>321</ele>
        <time>2022-06-06T09:33:13.000Z</time>
      </trkpt>
      <trkpt lat="49.869" lon="4.77476">
        <ele>321</ele>
        <time>2022-06-06T09:33:14.000Z</time>
      </trkpt>
      <trkpt lat="49.869" lon="4.77481">
        <ele>321</ele>
        <time>2022-06-06T09:33:15.000Z</time>
      </trkpt>
      <trkpt lat="49.86901" lon="4.77485">
        <ele>321</ele>
        <time>2022-06-06T09:33:16.000Z</time>
      </trkpt>
      <trkpt lat="49.86903" lon="4.7749">
        <ele>321</ele>
        <time>2022-06-06T09:33:17.000Z</time>
      </trkpt>
      <trkpt lat="49.86904" lon="4.77495">
        <ele>321</ele>
        <time>2022-06-06T09:33:18.000Z</time>
      </trkpt>
      <trkpt lat="49.86906" lon="4.775">
        <ele>321</ele>
        <time>2022-06-06T09:33:19.000Z</time>
      </trkpt>
      <trkpt lat="49.86907" lon="4.77505">
        <ele>321</ele>
        <time>2022-06-06T09:33:20.000Z</time>
      </trkpt>
      <trkpt lat="49.86909" lon="4.7751">
        <ele>322</ele>
        <time>2022-06-06T09:33:21.000Z</time>
      </trkpt>
      <trkpt lat="49.8691" lon="4.77515">
        <ele>322</ele>
        <time>2022-06-06T09:33:22.000Z</time>
      </trkpt>
      <trkpt lat="49.86912" lon="4.7752">
        <ele>322</ele>
        <time>2022-06-06T09:33:23.000Z</time>
      </trkpt>
      <trkpt lat="49.86912" lon="4.77525">
        <ele>322</ele>
        <time>2022-06-06T09:33:24.000Z</time>
      </trkpt>
      <trkpt lat="49.86913" lon="4.77529">
        <ele>322</ele>
        <time>2022-06-06T09:33:25.000Z</time>
      </trkpt>
      <trkpt lat="49.86915" lon="4.77534">
        <ele>322</ele>
        <time>2022-06-06T09:33:26.000Z</time>
      </trkpt>
      <trkpt lat="49.86917" lon="4.77539">
        <ele>322</ele>
        <time>2022-06-06T09:33:27.000Z</time>
      </trkpt>
      <trkpt lat="49.86918" lon="4.77543">
        <ele>322</ele>
        <time>2022-06-06T09:33:28.000Z</time>
      </trkpt>
      <trkpt lat="49.8692" lon="4.77548">
        <ele>322</ele>
        <time>2022-06-06T09:33:29.000Z</time>
      </trkpt>
      <trkpt lat="49.86923" lon="4.77552">
        <ele>322</ele>
        <time>2022-06-06T09:33:30.000Z</time>
      </trkpt>
      <trkpt lat="49.86925" lon="4.77556">
        <ele>323</ele>
        <time>2022-06-06T09:33:31.000Z</time>
      </trkpt>
      <trkpt lat="49.86927" lon="4.77561">
        <ele>323</ele>
        <time>2022-06-06T09:33:32.000Z</time>
      </trkpt>
      <trkpt lat="49.86929" lon="4.77566">
        <ele>323</ele>
        <time>2022-06-06T09:33:33.000Z</time>
      </trkpt>
      <trkpt lat="49.8693" lon="4.7757">
        <ele>323</ele>
        <time>2022-06-06T09:33:34.000Z</time>
      </trkpt>
      <trkpt lat="49.86932" lon="4.77574">
        <ele>323</ele>
        <time>2022-06-06T09:33:35.000Z</time>
      </trkpt>
      <trkpt lat="49.86934" lon="4.77579">
        <ele>323</ele>
        <time>2022-06-06T09:33:36.000Z</time>
      </trkpt>
      <trkpt lat="49.86936" lon="4.77582">
        <ele>323</ele>
        <time>2022-06-06T09:33:37.000Z</time>
      </trkpt>
      <trkpt lat="49.86938" lon="4.77586">
        <ele>323</ele>
        <time>2022-06-06T09:33:38.000Z</time>
      </trkpt>
      <trkpt lat="49.8694" lon="4.77589">
        <ele>323</ele>
        <time>2022-06-06T09:33:39.000Z</time>
      </trkpt>
      <trkpt lat="49.86942" lon="4.77592">
        <ele>323</ele>
        <time>2022-06-06T09:33:40.000Z</time>
      </trkpt>
      <trkpt lat="49.86943" lon="4.77596">
        <ele>323</ele>
        <time>2022-06-06T09:33:41.000Z</time>
      </trkpt>
      <trkpt lat="49.86946" lon="4.776">
        <ele>322</ele>
        <time>2022-06-06T09:33:42.000Z</time>
      </trkpt>
      <trkpt lat="49.86949" lon="4.77605">
        <ele>322</ele>
        <time>2022-06-06T09:33:43.000Z</time>
      </trkpt>
      <trkpt lat="49.86951" lon="4.7761">
        <ele>322</ele>
        <time>2022-06-06T09:33:44.000Z</time>
      </trkpt>
      <trkpt lat="49.86954" lon="4.77614">
        <ele>322</ele>
        <time>2022-06-06T09:33:45.000Z</time>
      </trkpt>
      <trkpt lat="49.86956" lon="4.77617">
        <ele>322</ele>
        <time>2022-06-06T09:33:46.000Z</time>
      </trkpt>
      <trkpt lat="49.86958" lon="4.77621">
        <ele>322</ele>
        <time>2022-06-06T09:33:47.000Z</time>
      </trkpt>
      <trkpt lat="49.8696" lon="4.77625">
        <ele>322</ele>
        <time>2022-06-06T09:33:48.000Z</time>
      </trkpt>
      <trkpt lat="49.86963" lon="4.77629">
        <ele>322</ele>
        <time>2022-06-06T09:33:49.000Z</time>
      </trkpt>
      <trkpt lat="49.86965" lon="4.77633">
        <ele>321</ele>
        <time>2022-06-06T09:33:50.000Z</time>
      </trkpt>
      <trkpt lat="49.86967" lon="4.77637">
        <ele>321</ele>
        <time>2022-06-06T09:33:51.000Z</time>
      </trkpt>
      <trkpt lat="49.86969" lon="4.77641">
        <ele>321</ele>
        <time>2022-06-06T09:33:52.000Z</time>
      </trkpt>
      <trkpt lat="49.86971" lon="4.77644">
        <ele>321</ele>
        <time>2022-06-06T09:33:53.000Z</time>
      </trkpt>
      <trkpt lat="49.86973" lon="4.77649">
        <ele>321</ele>
        <time>2022-06-06T09:33:54.000Z</time>
      </trkpt>
      <trkpt lat="49.86975" lon="4.77653">
        <ele>321</ele>
        <time>2022-06-06T09:33:55.000Z</time>
      </trkpt>
      <trkpt lat="49.86977" lon="4.77658">
        <ele>321</ele>
        <time>2022-06-06T09:33:56.000Z</time>
      </trkpt>
      <trkpt lat="49.86978" lon="4.77662">
        <ele>321</ele>
        <time>2022-06-06T09:33:57.000Z</time>
      </trkpt>
      <trkpt lat="49.86978" lon="4.77668">
        <ele>321</ele>
        <time>2022-06-06T09:33:58.000Z</time>
      </trkpt>
      <trkpt lat="49.86977" lon="4.77672">
        <ele>321</ele>
        <time>2022-06-06T09:33:59.000Z</time>
      </trkpt>
      <trkpt lat="49.86976" lon="4.77674">
        <ele>321</ele>
        <time>2022-06-06T09:34:00.000Z</time>
      </trkpt>
      <trkpt lat="49.86974" lon="4.77676">
        <ele>321</ele>
        <time>2022-06-06T09:34:01.000Z</time>
      </trkpt>
      <trkpt lat="49.86972" lon="4.77677">
        <ele>321</ele>
        <time>2022-06-06T09:34:02.000Z</time>
      </trkpt>
      <trkpt lat="49.8697" lon="4.77677">
        <ele>321</ele>
        <time>2022-06-06T09:34:03.000Z</time>
      </trkpt>
      <trkpt lat="49.86968" lon="4.77676">
        <ele>322</ele>
        <time>2022-06-06T09:34:04.000Z</time>
      </trkpt>
      <trkpt lat="49.86966" lon="4.77676">
        <ele>322</ele>
        <time>2022-06-06T09:34:05.000Z</time>
      </trkpt>
      <trkpt lat="49.86964" lon="4.77675">
        <ele>322</ele>
        <time>2022-06-06T09:34:06.000Z</time>
      </trkpt>
      <trkpt lat="49.86962" lon="4.77675">
        <ele>322</ele>
        <time>2022-06-06T09:34:07.000Z</time>
      </trkpt>
      <trkpt lat="49.86959" lon="4.77674">
        <ele>322</ele>
        <time>2022-06-06T09:34:08.000Z</time>
      </trkpt>
      <trkpt lat="49.86956" lon="4.77672">
        <ele>322</ele>
        <time>2022-06-06T09:34:09.000Z</time>
      </trkpt>
      <trkpt lat="49.86954" lon="4.77669">
        <ele>322</ele>
        <time>2022-06-06T09:34:10.000Z</time>
      </trkpt>
      <trkpt lat="49.86951" lon="4.77667">
        <ele>322</ele>
        <time>2022-06-06T09:34:11.000Z</time>
      </trkpt>
      <trkpt lat="49.86948" lon="4.77666">
        <ele>322</ele>
        <time>2022-06-06T09:34:12.000Z</time>
      </trkpt>
      <trkpt lat="49.86945" lon="4.77665">
        <ele>322</ele>
        <time>2022-06-06T09:34:13.000Z</time>
      </trkpt>
      <trkpt lat="49.86942" lon="4.77667">
        <ele>322</ele>
        <time>2022-06-06T09:34:14.000Z</time>
      </trkpt>
      <trkpt lat="49.86938" lon="4.77668">
        <ele>322</ele>
        <time>2022-06-06T09:34:15.000Z</time>
      </trkpt>
      <trkpt lat="49.86935" lon="4.77669">
        <ele>322</ele>
        <time>2022-06-06T09:34:16.000Z</time>
      </trkpt>
      <trkpt lat="49.86932" lon="4.77669">
        <ele>322</ele>
        <time>2022-06-06T09:34:17.000Z</time>
      </trkpt>
      <trkpt lat="49.8693" lon="4.77668">
        <ele>322</ele>
        <time>2022-06-06T09:34:18.000Z</time>
      </trkpt>
      <trkpt lat="49.86928" lon="4.77668">
        <ele>322</ele>
        <time>2022-06-06T09:34:19.000Z</time>
      </trkpt>
      <trkpt lat="49.86926" lon="4.77668">
        <ele>322</ele>
        <time>2022-06-06T09:34:20.000Z</time>
      </trkpt>
      <trkpt lat="49.86923" lon="4.77669">
        <ele>322</ele>
        <time>2022-06-06T09:34:21.000Z</time>
      </trkpt>
      <trkpt lat="49.86921" lon="4.77671">
        <ele>322</ele>
        <time>2022-06-06T09:34:22.000Z</time>
      </trkpt>
      <trkpt lat="49.8692" lon="4.77673">
        <ele>322</ele>
        <time>2022-06-06T09:34:23.000Z</time>
      </trkpt>
      <trkpt lat="49.86918" lon="4.77676">
        <ele>322</ele>
        <time>2022-06-06T09:34:24.000Z</time>
      </trkpt>
      <trkpt lat="49.86915" lon="4.77676">
        <ele>322</ele>
        <time>2022-06-06T09:34:25.000Z</time>
      </trkpt>
      <trkpt lat="49.86913" lon="4.77676">
        <ele>322</ele>
        <time>2022-06-06T09:34:26.000Z</time>
      </trkpt>
      <trkpt lat="49.8691" lon="4.77675">
        <ele>322</ele>
        <time>2022-06-06T09:34:27.000Z</time>
      </trkpt>
      <trkpt lat="49.86909" lon="4.77675">
        <ele>323</ele>
        <time>2022-06-06T09:34:28.000Z</time>
      </trkpt>
      <trkpt lat="49.86907" lon="4.77675">
        <ele>323</ele>
        <time>2022-06-06T09:34:29.000Z</time>
      </trkpt>
      <trkpt lat="49.86905" lon="4.77675">
        <ele>323</ele>
        <time>2022-06-06T09:34:30.000Z</time>
      </trkpt>
      <trkpt lat="49.86903" lon="4.77675">
        <ele>322</ele>
        <time>2022-06-06T09:34:31.000Z</time>
      </trkpt>
      <trkpt lat="49.869" lon="4.77675">
        <ele>322</ele>
        <time>2022-06-06T09:34:32.000Z</time>
      </trkpt>
      <trkpt lat="49.86896" lon="4.77675">
        <ele>323</ele>
        <time>2022-06-06T09:34:33.000Z</time>
      </trkpt>
      <trkpt lat="49.86894" lon="4.77676">
        <ele>323</ele>
        <time>2022-06-06T09:34:34.000Z</time>
      </trkpt>
      <trkpt lat="49.86891" lon="4.77677">
        <ele>323</ele>
        <time>2022-06-06T09:34:35.000Z</time>
      </trkpt>
      <trkpt lat="49.86888" lon="4.77678">
        <ele>323</ele>
        <time>2022-06-06T09:34:36.000Z</time>
      </trkpt>
      <trkpt lat="49.86886" lon="4.77678">
        <ele>323</ele>
        <time>2022-06-06T09:34:37.000Z</time>
      </trkpt>
      <trkpt lat="49.86883" lon="4.77677">
        <ele>323</ele>
        <time>2022-06-06T09:34:38.000Z</time>
      </trkpt>
      <trkpt lat="49.8688" lon="4.77677">
        <ele>323</ele>
        <time>2022-06-06T09:34:39.000Z</time>
      </trkpt>
      <trkpt lat="49.86877" lon="4.77677">
        <ele>323</ele>
        <time>2022-06-06T09:34:40.000Z</time>
      </trkpt>
      <trkpt lat="49.86874" lon="4.77678">
        <ele>323</ele>
        <time>2022-06-06T09:34:41.000Z</time>
      </trkpt>
      <trkpt lat="49.86871" lon="4.77679">
        <ele>323</ele>
        <time>2022-06-06T09:34:42.000Z</time>
      </trkpt>
      <trkpt lat="49.86868" lon="4.7768">
        <ele>323</ele>
        <time>2022-06-06T09:34:43.000Z</time>
      </trkpt>
      <trkpt lat="49.86865" lon="4.77682">
        <ele>323</ele>
        <time>2022-06-06T09:34:44.000Z</time>
      </trkpt>
      <trkpt lat="49.86862" lon="4.77682">
        <ele>323</ele>
        <time>2022-06-06T09:34:45.000Z</time>
      </trkpt>
      <trkpt lat="49.86859" lon="4.77683">
        <ele>323</ele>
        <time>2022-06-06T09:34:46.000Z</time>
      </trkpt>
      <trkpt lat="49.86855" lon="4.77685">
        <ele>323</ele>
        <time>2022-06-06T09:34:47.000Z</time>
      </trkpt>
      <trkpt lat="49.86851" lon="4.77686">
        <ele>323</ele>
        <time>2022-06-06T09:34:48.000Z</time>
      </trkpt>
      <trkpt lat="49.86848" lon="4.77687">
        <ele>323</ele>
        <time>2022-06-06T09:34:49.000Z</time>
      </trkpt>
      <trkpt lat="49.86844" lon="4.77688">
        <ele>323</ele>
        <time>2022-06-06T09:34:50.000Z</time>
      </trkpt>
      <trkpt lat="49.86841" lon="4.77687">
        <ele>323</ele>
        <time>2022-06-06T09:34:51.000Z</time>
      </trkpt>
      <trkpt lat="49.86837" lon="4.77688">
        <ele>323</ele>
        <time>2022-06-06T09:34:52.000Z</time>
      </trkpt>
      <trkpt lat="49.86833" lon="4.77687">
        <ele>323</ele>
        <time>2022-06-06T09:34:53.000Z</time>
      </trkpt>
      <trkpt lat="49.86829" lon="4.77685">
        <ele>323</ele>
        <time>2022-06-06T09:34:54.000Z</time>
      </trkpt>
      <trkpt lat="49.86825" lon="4.77683">
        <ele>323</ele>
        <time>2022-06-06T09:34:55.000Z</time>
      </trkpt>
      <trkpt lat="49.86822" lon="4.77681">
        <ele>323</ele>
        <time>2022-06-06T09:34:56.000Z</time>
      </trkpt>
      <trkpt lat="49.86819" lon="4.77678">
        <ele>323</ele>
        <time>2022-06-06T09:34:57.000Z</time>
      </trkpt>
      <trkpt lat="49.86816" lon="4.77675">
        <ele>323</ele>
        <time>2022-06-06T09:34:58.000Z</time>
      </trkpt>
      <trkpt lat="49.86812" lon="4.77673">
        <ele>323</ele>
        <time>2022-06-06T09:34:59.000Z</time>
      </trkpt>
      <trkpt lat="49.86808" lon="4.7767">
        <ele>323</ele>
        <time>2022-06-06T09:35:00.000Z</time>
      </trkpt>
      <trkpt lat="49.86804" lon="4.77668">
        <ele>323</ele>
        <time>2022-06-06T09:35:01.000Z</time>
      </trkpt>
      <trkpt lat="49.86799" lon="4.77666">
        <ele>323</ele>
        <time>2022-06-06T09:35:02.000Z</time>
      </trkpt>
      <trkpt lat="49.86795" lon="4.77663">
        <ele>323</ele>
        <time>2022-06-06T09:35:03.000Z</time>
      </trkpt>
      <trkpt lat="49.86791" lon="4.77659">
        <ele>323</ele>
        <time>2022-06-06T09:35:04.000Z</time>
      </trkpt>
      <trkpt lat="49.86786" lon="4.77656">
        <ele>323</ele>
        <time>2022-06-06T09:35:05.000Z</time>
      </trkpt>
      <trkpt lat="49.86782" lon="4.77651">
        <ele>323</ele>
        <time>2022-06-06T09:35:06.000Z</time>
      </trkpt>
      <trkpt lat="49.86778" lon="4.77647">
        <ele>323</ele>
        <time>2022-06-06T09:35:07.000Z</time>
      </trkpt>
      <trkpt lat="49.86773" lon="4.77644">
        <ele>323</ele>
        <time>2022-06-06T09:35:08.000Z</time>
      </trkpt>
      <trkpt lat="49.86768" lon="4.77643">
        <ele>323</ele>
        <time>2022-06-06T09:35:09.000Z</time>
      </trkpt>
      <trkpt lat="49.86764" lon="4.77643">
        <ele>323</ele>
        <time>2022-06-06T09:35:10.000Z</time>
      </trkpt>
      <trkpt lat="49.86759" lon="4.77643">
        <ele>323</ele>
        <time>2022-06-06T09:35:11.000Z</time>
      </trkpt>
      <trkpt lat="49.86755" lon="4.77642">
        <ele>323</ele>
        <time>2022-06-06T09:35:12.000Z</time>
      </trkpt>
      <trkpt lat="49.8675" lon="4.77641">
        <ele>323</ele>
        <time>2022-06-06T09:35:13.000Z</time>
      </trkpt>
      <trkpt lat="49.86744" lon="4.77641">
        <ele>323</ele>
        <time>2022-06-06T09:35:14.000Z</time>
      </trkpt>
      <trkpt lat="49.86739" lon="4.7764">
        <ele>323</ele>
        <time>2022-06-06T09:35:15.000Z</time>
      </trkpt>
      <trkpt lat="49.86733" lon="4.7764">
        <ele>323</ele>
        <time>2022-06-06T09:35:16.000Z</time>
      </trkpt>
      <trkpt lat="49.86728" lon="4.77639">
        <ele>323</ele>
        <time>2022-06-06T09:35:17.000Z</time>
      </trkpt>
      <trkpt lat="49.86724" lon="4.77639">
        <ele>323</ele>
        <time>2022-06-06T09:35:18.000Z</time>
      </trkpt>
      <trkpt lat="49.8672" lon="4.7764">
        <ele>323</ele>
        <time>2022-06-06T09:35:19.000Z</time>
      </trkpt>
      <trkpt lat="49.86715" lon="4.7764">
        <ele>323</ele>
        <time>2022-06-06T09:35:20.000Z</time>
      </trkpt>
      <trkpt lat="49.8671" lon="4.77639">
        <ele>323</ele>
        <time>2022-06-06T09:35:21.000Z</time>
      </trkpt>
      <trkpt lat="49.86706" lon="4.7764">
        <ele>323</ele>
        <time>2022-06-06T09:35:22.000Z</time>
      </trkpt>
      <trkpt lat="49.86701" lon="4.77641">
        <ele>323</ele>
        <time>2022-06-06T09:35:23.000Z</time>
      </trkpt>
      <trkpt lat="49.86697" lon="4.77643">
        <ele>323</ele>
        <time>2022-06-06T09:35:24.000Z</time>
      </trkpt>
      <trkpt lat="49.86692" lon="4.77644">
        <ele>323</ele>
        <time>2022-06-06T09:35:25.000Z</time>
      </trkpt>
      <trkpt lat="49.86687" lon="4.77646">
        <ele>322</ele>
        <time>2022-06-06T09:35:26.000Z</time>
      </trkpt>
      <trkpt lat="49.86682" lon="4.77648">
        <ele>322</ele>
        <time>2022-06-06T09:35:27.000Z</time>
      </trkpt>
      <trkpt lat="49.86677" lon="4.7765">
        <ele>322</ele>
        <time>2022-06-06T09:35:28.000Z</time>
      </trkpt>
      <trkpt lat="49.86671" lon="4.77652">
        <ele>322</ele>
        <time>2022-06-06T09:35:29.000Z</time>
      </trkpt>
      <trkpt lat="49.86667" lon="4.77653">
        <ele>321</ele>
        <time>2022-06-06T09:35:30.000Z</time>
      </trkpt>
      <trkpt lat="49.86663" lon="4.77654">
        <ele>321</ele>
        <time>2022-06-06T09:35:31.000Z</time>
      </trkpt>
      <trkpt lat="49.86658" lon="4.77655">
        <ele>321</ele>
        <time>2022-06-06T09:35:32.000Z</time>
      </trkpt>
      <trkpt lat="49.86654" lon="4.77655">
        <ele>321</ele>
        <time>2022-06-06T09:35:33.000Z</time>
      </trkpt>
      <trkpt lat="49.8665" lon="4.77657">
        <ele>320</ele>
        <time>2022-06-06T09:35:34.000Z</time>
      </trkpt>
      <trkpt lat="49.86646" lon="4.77659">
        <ele>320</ele>
        <time>2022-06-06T09:35:35.000Z</time>
      </trkpt>
      <trkpt lat="49.86643" lon="4.77661">
        <ele>320</ele>
        <time>2022-06-06T09:35:36.000Z</time>
      </trkpt>
      <trkpt lat="49.86639" lon="4.77662">
        <ele>320</ele>
        <time>2022-06-06T09:35:37.000Z</time>
      </trkpt>
      <trkpt lat="49.86635" lon="4.77662">
        <ele>320</ele>
        <time>2022-06-06T09:35:38.000Z</time>
      </trkpt>
      <trkpt lat="49.86631" lon="4.77662">
        <ele>319</ele>
        <time>2022-06-06T09:35:39.000Z</time>
      </trkpt>
      <trkpt lat="49.86628" lon="4.77662">
        <ele>319</ele>
        <time>2022-06-06T09:35:40.000Z</time>
      </trkpt>
      <trkpt lat="49.86623" lon="4.77663">
        <ele>319</ele>
        <time>2022-06-06T09:35:41.000Z</time>
      </trkpt>
      <trkpt lat="49.86619" lon="4.77664">
        <ele>319</ele>
        <time>2022-06-06T09:35:42.000Z</time>
      </trkpt>
      <trkpt lat="49.86615" lon="4.77664">
        <ele>318</ele>
        <time>2022-06-06T09:35:43.000Z</time>
      </trkpt>
      <trkpt lat="49.86611" lon="4.77664">
        <ele>318</ele>
        <time>2022-06-06T09:35:44.000Z</time>
      </trkpt>
      <trkpt lat="49.86608" lon="4.77662">
        <ele>318</ele>
        <time>2022-06-06T09:35:45.000Z</time>
      </trkpt>
      <trkpt lat="49.86605" lon="4.77662">
        <ele>318</ele>
        <time>2022-06-06T09:35:46.000Z</time>
      </trkpt>
      <trkpt lat="49.86603" lon="4.77662">
        <ele>318</ele>
        <time>2022-06-06T09:35:47.000Z</time>
      </trkpt>
      <trkpt lat="49.866" lon="4.77662">
        <ele>317</ele>
        <time>2022-06-06T09:35:48.000Z</time>
      </trkpt>
      <trkpt lat="49.86597" lon="4.77663">
        <ele>317</ele>
        <time>2022-06-06T09:35:49.000Z</time>
      </trkpt>
      <trkpt lat="49.86593" lon="4.77664">
        <ele>317</ele>
        <time>2022-06-06T09:35:50.000Z</time>
      </trkpt>
      <trkpt lat="49.8659" lon="4.77666">
        <ele>317</ele>
        <time>2022-06-06T09:35:51.000Z</time>
      </trkpt>
      <trkpt lat="49.86587" lon="4.77669">
        <ele>317</ele>
        <time>2022-06-06T09:35:52.000Z</time>
      </trkpt>
      <trkpt lat="49.86583" lon="4.77672">
        <ele>317</ele>
        <time>2022-06-06T09:35:53.000Z</time>
      </trkpt>
      <trkpt lat="49.8658" lon="4.77675">
        <ele>317</ele>
        <time>2022-06-06T09:35:54.000Z</time>
      </trkpt>
      <trkpt lat="49.86576" lon="4.77676">
        <ele>317</ele>
        <time>2022-06-06T09:35:55.000Z</time>
      </trkpt>
      <trkpt lat="49.86572" lon="4.77676">
        <ele>317</ele>
        <time>2022-06-06T09:35:56.000Z</time>
      </trkpt>
      <trkpt lat="49.86568" lon="4.77675">
        <ele>317</ele>
        <time>2022-06-06T09:35:57.000Z</time>
      </trkpt>
      <trkpt lat="49.86564" lon="4.77676">
        <ele>317</ele>
        <time>2022-06-06T09:35:58.000Z</time>
      </trkpt>
      <trkpt lat="49.8656" lon="4.77678">
        <ele>317</ele>
        <time>2022-06-06T09:35:59.000Z</time>
      </trkpt>
      <trkpt lat="49.86556" lon="4.77682">
        <ele>317</ele>
        <time>2022-06-06T09:36:00.000Z</time>
      </trkpt>
      <trkpt lat="49.86551" lon="4.77685">
        <ele>316</ele>
        <time>2022-06-06T09:36:01.000Z</time>
      </trkpt>
      <trkpt lat="49.86546" lon="4.77688">
        <ele>316</ele>
        <time>2022-06-06T09:36:02.000Z</time>
      </trkpt>
      <trkpt lat="49.8654" lon="4.77692">
        <ele>316</ele>
        <time>2022-06-06T09:36:03.000Z</time>
      </trkpt>
      <trkpt lat="49.86535" lon="4.77694">
        <ele>316</ele>
        <time>2022-06-06T09:36:04.000Z</time>
      </trkpt>
      <trkpt lat="49.86531" lon="4.77695">
        <ele>315</ele>
        <time>2022-06-06T09:36:05.000Z</time>
      </trkpt>
      <trkpt lat="49.86527" lon="4.77698">
        <ele>315</ele>
        <time>2022-06-06T09:36:06.000Z</time>
      </trkpt>
      <trkpt lat="49.86523" lon="4.777">
        <ele>315</ele>
        <time>2022-06-06T09:36:07.000Z</time>
      </trkpt>
      <trkpt lat="49.86519" lon="4.77701">
        <ele>315</ele>
        <time>2022-06-06T09:36:08.000Z</time>
      </trkpt>
      <trkpt lat="49.86514" lon="4.77702">
        <ele>315</ele>
        <time>2022-06-06T09:36:09.000Z</time>
      </trkpt>
      <trkpt lat="49.8651" lon="4.77702">
        <ele>314</ele>
        <time>2022-06-06T09:36:10.000Z</time>
      </trkpt>
      <trkpt lat="49.86505" lon="4.77702">
        <ele>314</ele>
        <time>2022-06-06T09:36:11.000Z</time>
      </trkpt>
      <trkpt lat="49.86501" lon="4.77702">
        <ele>314</ele>
        <time>2022-06-06T09:36:12.000Z</time>
      </trkpt>
      <trkpt lat="49.86497" lon="4.77704">
        <ele>314</ele>
        <time>2022-06-06T09:36:13.000Z</time>
      </trkpt>
      <trkpt lat="49.86493" lon="4.77707">
        <ele>314</ele>
        <time>2022-06-06T09:36:14.000Z</time>
      </trkpt>
      <trkpt lat="49.86489" lon="4.77709">
        <ele>314</ele>
        <time>2022-06-06T09:36:15.000Z</time>
      </trkpt>
      <trkpt lat="49.86485" lon="4.77712">
        <ele>314</ele>
        <time>2022-06-06T09:36:16.000Z</time>
      </trkpt>
      <trkpt lat="49.86481" lon="4.77713">
        <ele>314</ele>
        <time>2022-06-06T09:36:17.000Z</time>
      </trkpt>
      <trkpt lat="49.86477" lon="4.77713">
        <ele>314</ele>
        <time>2022-06-06T09:36:18.000Z</time>
      </trkpt>
      <trkpt lat="49.86473" lon="4.77714">
        <ele>314</ele>
        <time>2022-06-06T09:36:19.000Z</time>
      </trkpt>
      <trkpt lat="49.86469" lon="4.77716">
        <ele>313</ele>
        <time>2022-06-06T09:36:20.000Z</time>
      </trkpt>
      <trkpt lat="49.86463" lon="4.77718">
        <ele>313</ele>
        <time>2022-06-06T09:36:21.000Z</time>
      </trkpt>
      <trkpt lat="49.86458" lon="4.77718">
        <ele>313</ele>
        <time>2022-06-06T09:36:22.000Z</time>
      </trkpt>
      <trkpt lat="49.86452" lon="4.77718">
        <ele>313</ele>
        <time>2022-06-06T09:36:23.000Z</time>
      </trkpt>
      <trkpt lat="49.86447" lon="4.77719">
        <ele>313</ele>
        <time>2022-06-06T09:36:24.000Z</time>
      </trkpt>
      <trkpt lat="49.86441" lon="4.77721">
        <ele>313</ele>
        <time>2022-06-06T09:36:25.000Z</time>
      </trkpt>
      <trkpt lat="49.86436" lon="4.77721">
        <ele>313</ele>
        <time>2022-06-06T09:36:26.000Z</time>
      </trkpt>
      <trkpt lat="49.86432" lon="4.77722">
        <ele>313</ele>
        <time>2022-06-06T09:36:27.000Z</time>
      </trkpt>
      <trkpt lat="49.86427" lon="4.77721">
        <ele>312</ele>
        <time>2022-06-06T09:36:28.000Z</time>
      </trkpt>
      <trkpt lat="49.86422" lon="4.77719">
        <ele>312</ele>
        <time>2022-06-06T09:36:29.000Z</time>
      </trkpt>
      <trkpt lat="49.86418" lon="4.77719">
        <ele>312</ele>
        <time>2022-06-06T09:36:30.000Z</time>
      </trkpt>
      <trkpt lat="49.86412" lon="4.77719">
        <ele>312</ele>
        <time>2022-06-06T09:36:31.000Z</time>
      </trkpt>
      <trkpt lat="49.86406" lon="4.7772">
        <ele>312</ele>
        <time>2022-06-06T09:36:32.000Z</time>
      </trkpt>
      <trkpt lat="49.86401" lon="4.77721">
        <ele>312</ele>
        <time>2022-06-06T09:36:33.000Z</time>
      </trkpt>
      <trkpt lat="49.86396" lon="4.77723">
        <ele>312</ele>
        <time>2022-06-06T09:36:34.000Z</time>
      </trkpt>
      <trkpt lat="49.86391" lon="4.77727">
        <ele>312</ele>
        <time>2022-06-06T09:36:35.000Z</time>
      </trkpt>
      <trkpt lat="49.86388" lon="4.77733">
        <ele>312</ele>
        <time>2022-06-06T09:36:36.000Z</time>
      </trkpt>
      <trkpt lat="49.86385" lon="4.77738">
        <ele>312</ele>
        <time>2022-06-06T09:36:37.000Z</time>
      </trkpt>
      <trkpt lat="49.86382" lon="4.77743">
        <ele>312</ele>
        <time>2022-06-06T09:36:38.000Z</time>
      </trkpt>
      <trkpt lat="49.86379" lon="4.77748">
        <ele>312</ele>
        <time>2022-06-06T09:36:39.000Z</time>
      </trkpt>
      <trkpt lat="49.86377" lon="4.77752">
        <ele>312</ele>
        <time>2022-06-06T09:36:40.000Z</time>
      </trkpt>
      <trkpt lat="49.86375" lon="4.77755">
        <ele>312</ele>
        <time>2022-06-06T09:36:41.000Z</time>
      </trkpt>
      <trkpt lat="49.86373" lon="4.77758">
        <ele>312</ele>
        <time>2022-06-06T09:36:42.000Z</time>
      </trkpt>
      <trkpt lat="49.86371" lon="4.77761">
        <ele>312</ele>
        <time>2022-06-06T09:36:43.000Z</time>
      </trkpt>
      <trkpt lat="49.8637" lon="4.77765">
        <ele>312</ele>
        <time>2022-06-06T09:36:44.000Z</time>
      </trkpt>
      <trkpt lat="49.86368" lon="4.77769">
        <ele>312</ele>
        <time>2022-06-06T09:36:45.000Z</time>
      </trkpt>
      <trkpt lat="49.86367" lon="4.77774">
        <ele>312</ele>
        <time>2022-06-06T09:36:46.000Z</time>
      </trkpt>
      <trkpt lat="49.86366" lon="4.77778">
        <ele>312</ele>
        <time>2022-06-06T09:36:47.000Z</time>
      </trkpt>
      <trkpt lat="49.86365" lon="4.77782">
        <ele>312</ele>
        <time>2022-06-06T09:36:48.000Z</time>
      </trkpt>
      <trkpt lat="49.86365" lon="4.77787">
        <ele>312</ele>
        <time>2022-06-06T09:36:49.000Z</time>
      </trkpt>
      <trkpt lat="49.86364" lon="4.77791">
        <ele>313</ele>
        <time>2022-06-06T09:36:50.000Z</time>
      </trkpt>
      <trkpt lat="49.86363" lon="4.77795">
        <ele>313</ele>
        <time>2022-06-06T09:36:51.000Z</time>
      </trkpt>
      <trkpt lat="49.86362" lon="4.778">
        <ele>313</ele>
        <time>2022-06-06T09:36:52.000Z</time>
      </trkpt>
      <trkpt lat="49.86361" lon="4.77804">
        <ele>313</ele>
        <time>2022-06-06T09:36:53.000Z</time>
      </trkpt>
      <trkpt lat="49.8636" lon="4.77808">
        <ele>314</ele>
        <time>2022-06-06T09:36:54.000Z</time>
      </trkpt>
      <trkpt lat="49.86359" lon="4.77812">
        <ele>314</ele>
        <time>2022-06-06T09:36:55.000Z</time>
      </trkpt>
      <trkpt lat="49.86359" lon="4.77816">
        <ele>314</ele>
        <time>2022-06-06T09:36:56.000Z</time>
      </trkpt>
      <trkpt lat="49.8636" lon="4.77819">
        <ele>314</ele>
        <time>2022-06-06T09:36:57.000Z</time>
      </trkpt>
      <trkpt lat="49.8636" lon="4.77822">
        <ele>314</ele>
        <time>2022-06-06T09:36:58.000Z</time>
      </trkpt>
      <trkpt lat="49.86361" lon="4.77825">
        <ele>314</ele>
        <time>2022-06-06T09:36:59.000Z</time>
      </trkpt>
      <trkpt lat="49.86362" lon="4.77826">
        <ele>314</ele>
        <time>2022-06-06T09:37:00.000Z</time>
      </trkpt>
      <trkpt lat="49.86362" lon="4.77827">
        <ele>315</ele>
        <time>2022-06-06T09:37:01.000Z</time>
      </trkpt>
      <trkpt lat="49.86362" lon="4.77828">
        <ele>315</ele>
        <time>2022-06-06T09:37:02.000Z</time>
      </trkpt>
      <trkpt lat="49.86362" lon="4.77828">
        <ele>315</ele>
        <time>2022-06-06T09:37:03.000Z</time>
      </trkpt>
      <trkpt lat="49.86362" lon="4.77829">
        <ele>315</ele>
        <time>2022-06-06T09:37:04.000Z</time>
      </trkpt>
      <trkpt lat="49.86362" lon="4.77829">
        <ele>315</ele>
        <time>2022-06-06T09:37:05.000Z</time>
      </trkpt>
      <trkpt lat="49.86362" lon="4.77829">
        <ele>315</ele>
        <time>2022-06-06T09:37:06.000Z</time>
      </trkpt>
      <trkpt lat="49.86362" lon="4.7783">
        <ele>315</ele>
        <time>2022-06-06T09:37:07.000Z</time>
      </trkpt>
      <trkpt lat="49.86362" lon="4.7783">
        <ele>316</ele>
        <time>2022-06-06T09:37:08.000Z</time>
      </trkpt>
      <trkpt lat="49.86363" lon="4.7783">
        <ele>316</ele>
        <time>2022-06-06T09:37:09.000Z</time>
      </trkpt>
      <trkpt lat="49.86363" lon="4.77831">
        <ele>316</ele>
        <time>2022-06-06T09:37:10.000Z</time>
      </trkpt>
      <trkpt lat="49.86363" lon="4.77831">
        <ele>316</ele>
        <time>2022-06-06T09:37:11.000Z</time>
      </trkpt>
      <trkpt lat="49.86363" lon="4.77831">
        <ele>316</ele>
        <time>2022-06-06T09:37:12.000Z</time>
      </trkpt>
      <trkpt lat="49.86363" lon="4.77831">
        <ele>316</ele>
        <time>2022-06-06T09:37:13.000Z</time>
      </trkpt>
      <trkpt lat="49.86363" lon="4.77831">
        <ele>316</ele>
        <time>2022-06-06T09:37:14.000Z</time>
      </trkpt>
      <trkpt lat="49.86363" lon="4.77832">
        <ele>316</ele>
        <time>2022-06-06T09:37:15.000Z</time>
      </trkpt>
      <trkpt lat="49.86363" lon="4.77832">
        <ele>316</ele>
        <time>2022-06-06T09:37:16.000Z</time>
      </trkpt>
      <trkpt lat="49.86363" lon="4.77832">
        <ele>317</ele>
        <time>2022-06-06T09:37:17.000Z</time>
      </trkpt>
      <trkpt lat="49.86363" lon="4.77832">
        <ele>317</ele>
        <time>2022-06-06T09:37:18.000Z</time>
      </trkpt>
      <trkpt lat="49.86363" lon="4.77832">
        <ele>317</ele>
        <time>2022-06-06T09:37:19.000Z</time>
      </trkpt>
      <trkpt lat="49.86363" lon="4.77832">
        <ele>317</ele>
        <time>2022-06-06T09:37:20.000Z</time>
      </trkpt>
      <trkpt lat="49.86363" lon="4.77832">
        <ele>317</ele>
        <time>2022-06-06T09:37:21.000Z</time>
      </trkpt>
      <trkpt lat="49.86363" lon="4.77831">
        <ele>317</ele>
        <time>2022-06-06T09:37:22.000Z</time>
      </trkpt>
      <trkpt lat="49.86363" lon="4.77831">
        <ele>317</ele>
        <time>2022-06-06T09:37:23.000Z</time>
      </trkpt>
      <trkpt lat="49.86363" lon="4.77831">
        <ele>317</ele>
        <time>2022-06-06T09:37:24.000Z</time>
      </trkpt>
      <trkpt lat="49.86363" lon="4.77831">
        <ele>317</ele>
        <time>2022-06-06T09:37:25.000Z</time>
      </trkpt>
      <trkpt lat="49.86363" lon="4.77831">
        <ele>317</ele>
        <time>2022-06-06T09:37:26.000Z</time>
      </trkpt>
      <trkpt lat="49.86363" lon="4.77831">
        <ele>317</ele>
        <time>2022-06-06T09:37:27.000Z</time>
      </trkpt>
      <trkpt lat="49.86363" lon="4.77831">
        <ele>317</ele>
        <time>2022-06-06T09:37:28.000Z</time>
      </trkpt>
      <trkpt lat="49.86363" lon="4.77831">
        <ele>317</ele>
        <time>2022-06-06T09:37:29.000Z</time>
      </trkpt>
      <trkpt lat="49.86363" lon="4.77831">
        <ele>317</ele>
        <time>2022-06-06T09:37:30.000Z</time>
      </trkpt>
      <trkpt lat="49.86363" lon="4.77831">
        <ele>317</ele>
        <time>2022-06-06T09:37:31.000Z</time>
      </trkpt>
      <trkpt lat="49.86363" lon="4.77831">
        <ele>317</ele>
        <time>2022-06-06T09:37:32.000Z</time>
      </trkpt>
      <trkpt lat="49.86363" lon="4.77831">
        <ele>317</ele>
        <time>2022-06-06T09:37:33.000Z</time>
      </trkpt>
      <trkpt lat="49.86363" lon="4.77831">
        <ele>317</ele>
        <time>2022-06-06T09:37:34.000Z</time>
      </trkpt>
      <trkpt lat="49.86363" lon="4.77831">
        <ele>317</ele>
        <time>2022-06-06T09:37:35.000Z</time>
      </trkpt>
      <trkpt lat="49.86363" lon="4.77831">
        <ele>317</ele>
        <time>2022-06-06T09:37:36.000Z</time>
      </trkpt>
      <trkpt lat="49.86363" lon="4.77831">
        <ele>317</ele>
        <time>2022-06-06T09:37:37.000Z</time>
      </trkpt>
      <trkpt lat="49.86363" lon="4.77831">
        <ele>317</ele>
        <time>2022-06-06T09:37:38.000Z</time>
      </trkpt>
      <trkpt lat="49.86363" lon="4.77831">
        <ele>317</ele>
        <time>2022-06-06T09:37:39.000Z</time>
      </trkpt>
      <trkpt lat="49.86363" lon="4.77831">
        <ele>317</ele>
        <time>2022-06-06T09:37:40.000Z</time>
      </trkpt>
      <trkpt lat="49.86363" lon="4.77831">
        <ele>317</ele>
        <time>2022-06-06T09:37:41.000Z</time>
      </trkpt>
      <trkpt lat="49.86363" lon="4.77831">
        <ele>317</ele>
        <time>2022-06-06T09:37:42.000Z</time>
      </trkpt>
      <trkpt lat="49.86363" lon="4.77831">
        <ele>317</ele>
        <time>2022-06-06T09:37:43.000Z</time>
      </trkpt>
      <trkpt lat="49.86363" lon="4.77831">
        <ele>317</ele>
        <time>2022-06-06T09:37:44.000Z</time>
      </trkpt>
      <trkpt lat="49.86362" lon="4.77831">
        <ele>317</ele>
        <time>2022-06-06T09:37:45.000Z</time>
      </trkpt>
      <trkpt lat="49.86362" lon="4.77831">
        <ele>317</ele>
        <time>2022-06-06T09:37:46.000Z</time>
      </trkpt>
      <trkpt lat="49.86362" lon="4.7783">
        <ele>317</ele>
        <time>2022-06-06T09:37:47.000Z</time>
      </trkpt>
      <trkpt lat="49.86362" lon="4.7783">
        <ele>317</ele>
        <time>2022-06-06T09:37:48.000Z</time>
      </trkpt>
      <trkpt lat="49.86362" lon="4.7783">
        <ele>317</ele>
        <time>2022-06-06T09:37:49.000Z</time>
      </trkpt>
      <trkpt lat="49.86362" lon="4.7783">
        <ele>317</ele>
        <time>2022-06-06T09:37:50.000Z</time>
      </trkpt>
      <trkpt lat="49.86362" lon="4.7783">
        <ele>317</ele>
        <time>2022-06-06T09:37:51.000Z</time>
      </trkpt>
      <trkpt lat="49.86362" lon="4.7783">
        <ele>317</ele>
        <time>2022-06-06T09:37:52.000Z</time>
      </trkpt>
      <trkpt lat="49.86362" lon="4.7783">
        <ele>317</ele>
        <time>2022-06-06T09:37:53.000Z</time>
      </trkpt>
      <trkpt lat="49.86362" lon="4.7783">
        <ele>317</ele>
        <time>2022-06-06T09:37:54.000Z</time>
      </trkpt>
      <trkpt lat="49.86362" lon="4.7783">
        <ele>317</ele>
        <time>2022-06-06T09:37:55.000Z</time>
      </trkpt>
      <trkpt lat="49.86362" lon="4.7783">
        <ele>317</ele>
        <time>2022-06-06T09:37:56.000Z</time>
      </trkpt>
      <trkpt lat="49.86362" lon="4.7783">
        <ele>317</ele>
        <time>2022-06-06T09:37:57.000Z</time>
      </trkpt>
      <trkpt lat="49.86362" lon="4.7783">
        <ele>317</ele>
        <time>2022-06-06T09:37:58.000Z</time>
      </trkpt>
      <trkpt lat="49.86362" lon="4.7783">
        <ele>317</ele>
        <time>2022-06-06T09:37:59.000Z</time>
      </trkpt>
      <trkpt lat="49.86362" lon="4.7783">
        <ele>317</ele>
        <time>2022-06-06T09:38:00.000Z</time>
      </trkpt>
      <trkpt lat="49.86362" lon="4.7783">
        <ele>317</ele>
        <time>2022-06-06T09:38:01.000Z</time>
      </trkpt>
      <trkpt lat="49.86362" lon="4.7783">
        <ele>317</ele>
        <time>2022-06-06T09:38:02.000Z</time>
      </trkpt>
      <trkpt lat="49.86362" lon="4.7783">
        <ele>317</ele>
        <time>2022-06-06T09:38:03.000Z</time>
      </trkpt>
      <trkpt lat="49.86362" lon="4.7783">
        <ele>317</ele>
        <time>2022-06-06T09:38:04.000Z</time>
      </trkpt>
      <trkpt lat="49.86362" lon="4.7783">
        <ele>317</ele>
        <time>2022-06-06T09:38:05.000Z</time>
      </trkpt>
      <trkpt lat="49.86362" lon="4.7783">
        <ele>317</ele>
        <time>2022-06-06T09:38:06.000Z</time>
      </trkpt>
      <trkpt lat="49.86362" lon="4.7783">
        <ele>317</ele>
        <time>2022-06-06T09:38:07.000Z</time>
      </trkpt>
      <trkpt lat="49.86362" lon="4.7783">
        <ele>317</ele>
        <time>2022-06-06T09:38:08.000Z</time>
      </trkpt>
      <trkpt lat="49.86362" lon="4.7783">
        <ele>317</ele>
        <time>2022-06-06T09:38:09.000Z</time>
      </trkpt>
      <trkpt lat="49.86362" lon="4.7783">
        <ele>317</ele>
        <time>2022-06-06T09:38:10.000Z</time>
      </trkpt>
      <trkpt lat="49.86362" lon="4.7783">
        <ele>317</ele>
        <time>2022-06-06T09:38:11.000Z</time>
      </trkpt>
      <trkpt lat="49.86362" lon="4.7783">
        <ele>317</ele>
        <time>2022-06-06T09:38:12.000Z</time>
      </trkpt>
      <trkpt lat="49.86362" lon="4.7783">
        <ele>317</ele>
        <time>2022-06-06T09:38:13.000Z</time>
      </trkpt>
      <trkpt lat="49.86362" lon="4.7783">
        <ele>317</ele>
        <time>2022-06-06T09:38:14.000Z</time>
      </trkpt>
      <trkpt lat="49.86362" lon="4.7783">
        <ele>317</ele>
        <time>2022-06-06T09:38:15.000Z</time>
      </trkpt>
      <trkpt lat="49.86362" lon="4.7783">
        <ele>317</ele>
        <time>2022-06-06T09:38:16.000Z</time>
      </trkpt>
      <trkpt lat="49.86362" lon="4.7783">
        <ele>317</ele>
        <time>2022-06-06T09:38:17.000Z</time>
      </trkpt>
      <trkpt lat="49.86362" lon="4.77831">
        <ele>317</ele>
        <time>2022-06-06T09:38:18.000Z</time>
      </trkpt>
      <trkpt lat="49.86363" lon="4.77831">
        <ele>317</ele>
        <time>2022-06-06T09:38:19.000Z</time>
      </trkpt>
      <trkpt lat="49.86363" lon="4.77832">
        <ele>317</ele>
        <time>2022-06-06T09:38:20.000Z</time>
      </trkpt>
      <trkpt lat="49.86363" lon="4.77832">
        <ele>317</ele>
        <time>2022-06-06T09:38:21.000Z</time>
      </trkpt>
      <trkpt lat="49.86363" lon="4.77832">
        <ele>317</ele>
        <time>2022-06-06T09:38:22.000Z</time>
      </trkpt>
      <trkpt lat="49.86363" lon="4.77832">
        <ele>317</ele>
        <time>2022-06-06T09:38:23.000Z</time>
      </trkpt>
      <trkpt lat="49.86363" lon="4.77832">
        <ele>317</ele>
        <time>2022-06-06T09:38:24.000Z</time>
      </trkpt>
      <trkpt lat="49.86363" lon="4.77832">
        <ele>317</ele>
        <time>2022-06-06T09:38:25.000Z</time>
      </trkpt>
      <trkpt lat="49.86363" lon="4.77832">
        <ele>317</ele>
        <time>2022-06-06T09:38:26.000Z</time>
      </trkpt>
      <trkpt lat="49.86363" lon="4.77832">
        <ele>317</ele>
        <time>2022-06-06T09:38:27.000Z</time>
      </trkpt>
      <trkpt lat="49.86363" lon="4.77832">
        <ele>317</ele>
        <time>2022-06-06T09:38:28.000Z</time>
      </trkpt>
      <trkpt lat="49.86363" lon="4.77832">
        <ele>317</ele>
        <time>2022-06-06T09:38:29.000Z</time>
      </trkpt>
      <trkpt lat="49.86363" lon="4.77832">
        <ele>317</ele>
        <time>2022-06-06T09:38:30.000Z</time>
      </trkpt>
      <trkpt lat="49.86363" lon="4.77832">
        <ele>317</ele>
        <time>2022-06-06T09:38:31.000Z</time>
      </trkpt>
      <trkpt lat="49.86363" lon="4.77832">
        <ele>317</ele>
        <time>2022-06-06T09:38:32.000Z</time>
      </trkpt>
      <trkpt lat="49.86363" lon="4.77832">
        <ele>317</ele>
        <time>2022-06-06T09:38:33.000Z</time>
      </trkpt>
      <trkpt lat="49.86363" lon="4.77832">
        <ele>317</ele>
        <time>2022-06-06T09:38:34.000Z</time>
      </trkpt>
      <trkpt lat="49.86362" lon="4.77831">
        <ele>317</ele>
        <time>2022-06-06T09:38:35.000Z</time>
      </trkpt>
      <trkpt lat="49.86362" lon="4.77831">
        <ele>317</ele>
        <time>2022-06-06T09:38:36.000Z</time>
      </trkpt>
      <trkpt lat="49.86362" lon="4.77831">
        <ele>317</ele>
        <time>2022-06-06T09:38:37.000Z</time>
      </trkpt>
      <trkpt lat="49.86362" lon="4.77831">
        <ele>317</ele>
        <time>2022-06-06T09:38:38.000Z</time>
      </trkpt>
      <trkpt lat="49.86362" lon="4.77832">
        <ele>317</ele>
        <time>2022-06-06T09:38:39.000Z</time>
      </trkpt>
      <trkpt lat="49.86362" lon="4.77832">
        <ele>317</ele>
        <time>2022-06-06T09:38:40.000Z</time>
      </trkpt>
      <trkpt lat="49.86362" lon="4.77832">
        <ele>317</ele>
        <time>2022-06-06T09:38:41.000Z</time>
      </trkpt>
      <trkpt lat="49.86362" lon="4.77832">
        <ele>317</ele>
        <time>2022-06-06T09:38:42.000Z</time>
      </trkpt>
      <trkpt lat="49.86362" lon="4.77832">
        <ele>317</ele>
        <time>2022-06-06T09:38:43.000Z</time>
      </trkpt>
      <trkpt lat="49.86362" lon="4.77832">
        <ele>317</ele>
        <time>2022-06-06T09:38:44.000Z</time>
      </trkpt>
      <trkpt lat="49.86362" lon="4.77832">
        <ele>317</ele>
        <time>2022-06-06T09:38:45.000Z</time>
      </trkpt>
      <trkpt lat="49.86362" lon="4.77832">
        <ele>317</ele>
        <time>2022-06-06T09:38:46.000Z</time>
      </trkpt>
      <trkpt lat="49.86362" lon="4.77832">
        <ele>317</ele>
        <time>2022-06-06T09:38:47.000Z</time>
      </trkpt>
      <trkpt lat="49.86362" lon="4.77832">
        <ele>317</ele>
        <time>2022-06-06T09:38:48.000Z</time>
      </trkpt>
      <trkpt lat="49.86363" lon="4.77832">
        <ele>317</ele>
        <time>2022-06-06T09:38:49.000Z</time>
      </trkpt>
      <trkpt lat="49.86363" lon="4.77832">
        <ele>317</ele>
        <time>2022-06-06T09:38:50.000Z</time>
      </trkpt>
      <trkpt lat="49.86363" lon="4.77832">
        <ele>317</ele>
        <time>2022-06-06T09:38:51.000Z</time>
      </trkpt>
      <trkpt lat="49.86363" lon="4.77832">
        <ele>317</ele>
        <time>2022-06-06T09:38:52.000Z</time>
      </trkpt>
      <trkpt lat="49.86363" lon="4.77832">
        <ele>317</ele>
        <time>2022-06-06T09:38:53.000Z</time>
      </trkpt>
      <trkpt lat="49.86363" lon="4.77832">
        <ele>317</ele>
        <time>2022-06-06T09:38:54.000Z</time>
      </trkpt>
      <trkpt lat="49.86363" lon="4.77832">
        <ele>318</ele>
        <time>2022-06-06T09:38:55.000Z</time>
      </trkpt>
      <trkpt lat="49.86363" lon="4.77832">
        <ele>318</ele>
        <time>2022-06-06T09:38:56.000Z</time>
      </trkpt>
      <trkpt lat="49.86363" lon="4.77832">
        <ele>318</ele>
        <time>2022-06-06T09:38:57.000Z</time>
      </trkpt>
      <trkpt lat="49.86363" lon="4.77832">
        <ele>318</ele>
        <time>2022-06-06T09:38:58.000Z</time>
      </trkpt>
      <trkpt lat="49.86363" lon="4.77832">
        <ele>318</ele>
        <time>2022-06-06T09:38:59.000Z</time>
      </trkpt>
      <trkpt lat="49.86363" lon="4.77832">
        <ele>318</ele>
        <time>2022-06-06T09:39:00.000Z</time>
      </trkpt>
      <trkpt lat="49.86363" lon="4.77832">
        <ele>318</ele>
        <time>2022-06-06T09:39:01.000Z</time>
      </trkpt>
      <trkpt lat="49.86362" lon="4.77832">
        <ele>318</ele>
        <time>2022-06-06T09:39:02.000Z</time>
      </trkpt>
      <trkpt lat="49.86363" lon="4.77832">
        <ele>318</ele>
        <time>2022-06-06T09:39:03.000Z</time>
      </trkpt>
      <trkpt lat="49.86363" lon="4.77832">
        <ele>318</ele>
        <time>2022-06-06T09:39:04.000Z</time>
      </trkpt>
      <trkpt lat="49.86363" lon="4.77832">
        <ele>318</ele>
        <time>2022-06-06T09:39:05.000Z</time>
      </trkpt>
      <trkpt lat="49.86363" lon="4.77832">
        <ele>318</ele>
        <time>2022-06-06T09:39:06.000Z</time>
      </trkpt>
      <trkpt lat="49.86363" lon="4.77832">
        <ele>318</ele>
        <time>2022-06-06T09:39:07.000Z</time>
      </trkpt>
      <trkpt lat="49.86363" lon="4.77832">
        <ele>318</ele>
        <time>2022-06-06T09:39:08.000Z</time>
      </trkpt>
      <trkpt lat="49.86363" lon="4.77832">
        <ele>318</ele>
        <time>2022-06-06T09:39:09.000Z</time>
      </trkpt>
      <trkpt lat="49.86363" lon="4.77832">
        <ele>318</ele>
        <time>2022-06-06T09:39:10.000Z</time>
      </trkpt>
      <trkpt lat="49.86363" lon="4.77832">
        <ele>318</ele>
        <time>2022-06-06T09:39:11.000Z</time>
      </trkpt>
      <trkpt lat="49.86362" lon="4.77832">
        <ele>318</ele>
        <time>2022-06-06T09:39:12.000Z</time>
      </trkpt>
      <trkpt lat="49.86363" lon="4.77833">
        <ele>318</ele>
        <time>2022-06-06T09:39:13.000Z</time>
      </trkpt>
      <trkpt lat="49.86363" lon="4.77833">
        <ele>318</ele>
        <time>2022-06-06T09:39:14.000Z</time>
      </trkpt>
      <trkpt lat="49.86363" lon="4.77832">
        <ele>318</ele>
        <time>2022-06-06T09:39:15.000Z</time>
      </trkpt>
      <trkpt lat="49.86363" lon="4.77833">
        <ele>317</ele>
        <time>2022-06-06T09:39:16.000Z</time>
      </trkpt>
      <trkpt lat="49.86363" lon="4.77833">
        <ele>317</ele>
        <time>2022-06-06T09:39:17.000Z</time>
      </trkpt>
      <trkpt lat="49.86363" lon="4.77833">
        <ele>317</ele>
        <time>2022-06-06T09:39:18.000Z</time>
      </trkpt>
      <trkpt lat="49.86362" lon="4.77833">
        <ele>317</ele>
        <time>2022-06-06T09:39:19.000Z</time>
      </trkpt>
      <trkpt lat="49.86362" lon="4.77833">
        <ele>317</ele>
        <time>2022-06-06T09:39:20.000Z</time>
      </trkpt>
      <trkpt lat="49.86362" lon="4.77832">
        <ele>317</ele>
        <time>2022-06-06T09:39:21.000Z</time>
      </trkpt>
      <trkpt lat="49.86362" lon="4.77832">
        <ele>317</ele>
        <time>2022-06-06T09:39:22.000Z</time>
      </trkpt>
      <trkpt lat="49.86362" lon="4.77832">
        <ele>317</ele>
        <time>2022-06-06T09:39:23.000Z</time>
      </trkpt>
      <trkpt lat="49.86362" lon="4.77832">
        <ele>317</ele>
        <time>2022-06-06T09:39:24.000Z</time>
      </trkpt>
      <trkpt lat="49.86362" lon="4.77832">
        <ele>317</ele>
        <time>2022-06-06T09:39:25.000Z</time>
      </trkpt>
      <trkpt lat="49.86362" lon="4.77833">
        <ele>317</ele>
        <time>2022-06-06T09:39:26.000Z</time>
      </trkpt>
      <trkpt lat="49.86362" lon="4.77833">
        <ele>317</ele>
        <time>2022-06-06T09:39:27.000Z</time>
      </trkpt>
      <trkpt lat="49.86362" lon="4.77833">
        <ele>317</ele>
        <time>2022-06-06T09:39:28.000Z</time>
      </trkpt>
      <trkpt lat="49.86362" lon="4.77833">
        <ele>317</ele>
        <time>2022-06-06T09:39:29.000Z</time>
      </trkpt>
      <trkpt lat="49.86361" lon="4.77833">
        <ele>317</ele>
        <time>2022-06-06T09:39:30.000Z</time>
      </trkpt>
      <trkpt lat="49.86361" lon="4.77833">
        <ele>317</ele>
        <time>2022-06-06T09:39:31.000Z</time>
      </trkpt>
      <trkpt lat="49.86361" lon="4.77833">
        <ele>317</ele>
        <time>2022-06-06T09:39:32.000Z</time>
      </trkpt>
      <trkpt lat="49.86361" lon="4.77833">
        <ele>317</ele>
        <time>2022-06-06T09:39:33.000Z</time>
      </trkpt>
      <trkpt lat="49.86361" lon="4.77833">
        <ele>317</ele>
        <time>2022-06-06T09:39:34.000Z</time>
      </trkpt>
      <trkpt lat="49.86361" lon="4.77833">
        <ele>317</ele>
        <time>2022-06-06T09:39:35.000Z</time>
      </trkpt>
      <trkpt lat="49.86361" lon="4.77833">
        <ele>317</ele>
        <time>2022-06-06T09:39:36.000Z</time>
      </trkpt>
      <trkpt lat="49.86361" lon="4.77833">
        <ele>317</ele>
        <time>2022-06-06T09:39:37.000Z</time>
      </trkpt>
      <trkpt lat="49.86361" lon="4.77833">
        <ele>317</ele>
        <time>2022-06-06T09:39:38.000Z</time>
      </trkpt>
      <trkpt lat="49.86362" lon="4.77833">
        <ele>317</ele>
        <time>2022-06-06T09:39:39.000Z</time>
      </trkpt>
      <trkpt lat="49.86362" lon="4.77833">
        <ele>317</ele>
        <time>2022-06-06T09:39:40.000Z</time>
      </trkpt>
      <trkpt lat="49.86362" lon="4.77833">
        <ele>317</ele>
        <time>2022-06-06T09:39:41.000Z</time>
      </trkpt>
      <trkpt lat="49.86362" lon="4.77833">
        <ele>317</ele>
        <time>2022-06-06T09:39:42.000Z</time>
      </trkpt>
      <trkpt lat="49.86362" lon="4.77833">
        <ele>317</ele>
        <time>2022-06-06T09:39:43.000Z</time>
      </trkpt>
      <trkpt lat="49.86362" lon="4.77833">
        <ele>317</ele>
        <time>2022-06-06T09:39:44.000Z</time>
      </trkpt>
      <trkpt lat="49.86362" lon="4.77833">
        <ele>317</ele>
        <time>2022-06-06T09:39:45.000Z</time>
      </trkpt>
      <trkpt lat="49.86362" lon="4.77833">
        <ele>317</ele>
        <time>2022-06-06T09:39:46.000Z</time>
      </trkpt>
      <trkpt lat="49.86362" lon="4.77833">
        <ele>317</ele>
        <time>2022-06-06T09:39:47.000Z</time>
      </trkpt>
      <trkpt lat="49.86362" lon="4.77833">
        <ele>317</ele>
        <time>2022-06-06T09:39:48.000Z</time>
      </trkpt>
      <trkpt lat="49.86362" lon="4.77833">
        <ele>317</ele>
        <time>2022-06-06T09:39:49.000Z</time>
      </trkpt>
      <trkpt lat="49.86362" lon="4.77833">
        <ele>317</ele>
        <time>2022-06-06T09:39:50.000Z</time>
      </trkpt>
      <trkpt lat="49.86362" lon="4.77833">
        <ele>317</ele>
        <time>2022-06-06T09:39:51.000Z</time>
      </trkpt>
      <trkpt lat="49.86362" lon="4.77833">
        <ele>317</ele>
        <time>2022-06-06T09:39:52.000Z</time>
      </trkpt>
      <trkpt lat="49.86361" lon="4.77833">
        <ele>317</ele>
        <time>2022-06-06T09:39:53.000Z</time>
      </trkpt>
      <trkpt lat="49.86361" lon="4.77833">
        <ele>317</ele>
        <time>2022-06-06T09:39:54.000Z</time>
      </trkpt>
      <trkpt lat="49.86361" lon="4.77833">
        <ele>317</ele>
        <time>2022-06-06T09:39:55.000Z</time>
      </trkpt>
      <trkpt lat="49.86361" lon="4.77833">
        <ele>317</ele>
        <time>2022-06-06T09:39:56.000Z</time>
      </trkpt>
      <trkpt lat="49.86361" lon="4.77833">
        <ele>317</ele>
        <time>2022-06-06T09:39:57.000Z</time>
      </trkpt>
      <trkpt lat="49.86362" lon="4.77833">
        <ele>317</ele>
        <time>2022-06-06T09:39:58.000Z</time>
      </trkpt>
      <trkpt lat="49.86362" lon="4.77833">
        <ele>317</ele>
        <time>2022-06-06T09:39:59.000Z</time>
      </trkpt>
      <trkpt lat="49.86362" lon="4.77832">
        <ele>317</ele>
        <time>2022-06-06T09:40:00.000Z</time>
      </trkpt>
      <trkpt lat="49.86362" lon="4.77832">
        <ele>317</ele>
        <time>2022-06-06T09:40:01.000Z</time>
      </trkpt>
      <trkpt lat="49.86362" lon="4.77832">
        <ele>317</ele>
        <time>2022-06-06T09:40:02.000Z</time>
      </trkpt>
      <trkpt lat="49.86362" lon="4.77832">
        <ele>317</ele>
        <time>2022-06-06T09:40:03.000Z</time>
      </trkpt>
      <trkpt lat="49.86361" lon="4.77832">
        <ele>317</ele>
        <time>2022-06-06T09:40:04.000Z</time>
      </trkpt>
      <trkpt lat="49.86361" lon="4.77831">
        <ele>317</ele>
        <time>2022-06-06T09:40:05.000Z</time>
      </trkpt>
      <trkpt lat="49.86361" lon="4.77831">
        <ele>317</ele>
        <time>2022-06-06T09:40:06.000Z</time>
      </trkpt>
      <trkpt lat="49.86361" lon="4.77831">
        <ele>317</ele>
        <time>2022-06-06T09:40:07.000Z</time>
      </trkpt>
      <trkpt lat="49.86361" lon="4.77831">
        <ele>317</ele>
        <time>2022-06-06T09:40:08.000Z</time>
      </trkpt>
      <trkpt lat="49.86361" lon="4.77831">
        <ele>317</ele>
        <time>2022-06-06T09:40:09.000Z</time>
      </trkpt>
      <trkpt lat="49.86361" lon="4.7783">
        <ele>317</ele>
        <time>2022-06-06T09:40:10.000Z</time>
      </trkpt>
      <trkpt lat="49.86361" lon="4.7783">
        <ele>317</ele>
        <time>2022-06-06T09:40:11.000Z</time>
      </trkpt>
      <trkpt lat="49.86361" lon="4.7783">
        <ele>318</ele>
        <time>2022-06-06T09:40:12.000Z</time>
      </trkpt>
      <trkpt lat="49.86361" lon="4.7783">
        <ele>318</ele>
        <time>2022-06-06T09:40:13.000Z</time>
      </trkpt>
      <trkpt lat="49.86361" lon="4.7783">
        <ele>318</ele>
        <time>2022-06-06T09:40:14.000Z</time>
      </trkpt>
      <trkpt lat="49.86361" lon="4.7783">
        <ele>318</ele>
        <time>2022-06-06T09:40:15.000Z</time>
      </trkpt>
      <trkpt lat="49.86361" lon="4.7783">
        <ele>318</ele>
        <time>2022-06-06T09:40:16.000Z</time>
      </trkpt>
      <trkpt lat="49.86361" lon="4.7783">
        <ele>318</ele>
        <time>2022-06-06T09:40:17.000Z</time>
      </trkpt>
      <trkpt lat="49.86361" lon="4.7783">
        <ele>318</ele>
        <time>2022-06-06T09:40:18.000Z</time>
      </trkpt>
      <trkpt lat="49.86361" lon="4.7783">
        <ele>318</ele>
        <time>2022-06-06T09:40:19.000Z</time>
      </trkpt>
      <trkpt lat="49.86361" lon="4.7783">
        <ele>318</ele>
        <time>2022-06-06T09:40:20.000Z</time>
      </trkpt>
      <trkpt lat="49.86361" lon="4.7783">
        <ele>318</ele>
        <time>2022-06-06T09:40:21.000Z</time>
      </trkpt>
      <trkpt lat="49.86361" lon="4.7783">
        <ele>318</ele>
        <time>2022-06-06T09:40:22.000Z</time>
      </trkpt>
      <trkpt lat="49.86361" lon="4.77829">
        <ele>318</ele>
        <time>2022-06-06T09:40:23.000Z</time>
      </trkpt>
      <trkpt lat="49.86361" lon="4.77829">
        <ele>318</ele>
        <time>2022-06-06T09:40:24.000Z</time>
      </trkpt>
      <trkpt lat="49.86361" lon="4.77829">
        <ele>318</ele>
        <time>2022-06-06T09:40:25.000Z</time>
      </trkpt>
      <trkpt lat="49.86361" lon="4.77829">
        <ele>318</ele>
        <time>2022-06-06T09:40:26.000Z</time>
      </trkpt>
      <trkpt lat="49.86361" lon="4.77829">
        <ele>318</ele>
        <time>2022-06-06T09:40:27.000Z</time>
      </trkpt>
      <trkpt lat="49.86361" lon="4.77829">
        <ele>318</ele>
        <time>2022-06-06T09:40:28.000Z</time>
      </trkpt>
      <trkpt lat="49.86361" lon="4.77829">
        <ele>318</ele>
        <time>2022-06-06T09:40:29.000Z</time>
      </trkpt>
      <trkpt lat="49.86361" lon="4.77829">
        <ele>318</ele>
        <time>2022-06-06T09:40:30.000Z</time>
      </trkpt>
      <trkpt lat="49.86361" lon="4.77828">
        <ele>318</ele>
        <time>2022-06-06T09:40:31.000Z</time>
      </trkpt>
      <trkpt lat="49.86361" lon="4.77828">
        <ele>318</ele>
        <time>2022-06-06T09:40:32.000Z</time>
      </trkpt>
      <trkpt lat="49.86361" lon="4.77828">
        <ele>318</ele>
        <time>2022-06-06T09:40:33.000Z</time>
      </trkpt>
      <trkpt lat="49.86361" lon="4.77828">
        <ele>318</ele>
        <time>2022-06-06T09:40:34.000Z</time>
      </trkpt>
      <trkpt lat="49.86362" lon="4.77828">
        <ele>318</ele>
        <time>2022-06-06T09:40:35.000Z</time>
      </trkpt>
      <trkpt lat="49.86362" lon="4.77828">
        <ele>318</ele>
        <time>2022-06-06T09:40:36.000Z</time>
      </trkpt>
      <trkpt lat="49.86362" lon="4.77827">
        <ele>318</ele>
        <time>2022-06-06T09:40:37.000Z</time>
      </trkpt>
      <trkpt lat="49.86362" lon="4.77827">
        <ele>318</ele>
        <time>2022-06-06T09:40:38.000Z</time>
      </trkpt>
      <trkpt lat="49.86362" lon="4.77827">
        <ele>318</ele>
        <time>2022-06-06T09:40:39.000Z</time>
      </trkpt>
      <trkpt lat="49.86361" lon="4.77827">
        <ele>318</ele>
        <time>2022-06-06T09:40:40.000Z</time>
      </trkpt>
      <trkpt lat="49.86361" lon="4.77826">
        <ele>318</ele>
        <time>2022-06-06T09:40:41.000Z</time>
      </trkpt>
      <trkpt lat="49.86361" lon="4.77826">
        <ele>318</ele>
        <time>2022-06-06T09:40:42.000Z</time>
      </trkpt>
      <trkpt lat="49.86361" lon="4.77826">
        <ele>318</ele>
        <time>2022-06-06T09:40:43.000Z</time>
      </trkpt>
      <trkpt lat="49.86361" lon="4.77826">
        <ele>318</ele>
        <time>2022-06-06T09:40:44.000Z</time>
      </trkpt>
      <trkpt lat="49.86361" lon="4.77826">
        <ele>318</ele>
        <time>2022-06-06T09:40:45.000Z</time>
      </trkpt>
      <trkpt lat="49.86361" lon="4.77825">
        <ele>318</ele>
        <time>2022-06-06T09:40:46.000Z</time>
      </trkpt>
      <trkpt lat="49.86361" lon="4.77825">
        <ele>318</ele>
        <time>2022-06-06T09:40:47.000Z</time>
      </trkpt>
      <trkpt lat="49.86361" lon="4.77825">
        <ele>318</ele>
        <time>2022-06-06T09:40:48.000Z</time>
      </trkpt>
      <trkpt lat="49.86361" lon="4.77825">
        <ele>318</ele>
        <time>2022-06-06T09:40:49.000Z</time>
      </trkpt>
      <trkpt lat="49.86361" lon="4.77825">
        <ele>317</ele>
        <time>2022-06-06T09:40:50.000Z</time>
      </trkpt>
      <trkpt lat="49.86361" lon="4.77825">
        <ele>317</ele>
        <time>2022-06-06T09:40:51.000Z</time>
      </trkpt>
      <trkpt lat="49.86361" lon="4.77825">
        <ele>317</ele>
        <time>2022-06-06T09:40:52.000Z</time>
      </trkpt>
      <trkpt lat="49.86361" lon="4.77825">
        <ele>317</ele>
        <time>2022-06-06T09:40:53.000Z</time>
      </trkpt>
      <trkpt lat="49.86361" lon="4.77825">
        <ele>317</ele>
        <time>2022-06-06T09:40:54.000Z</time>
      </trkpt>
      <trkpt lat="49.86361" lon="4.77825">
        <ele>317</ele>
        <time>2022-06-06T09:40:55.000Z</time>
      </trkpt>
      <trkpt lat="49.86361" lon="4.77825">
        <ele>317</ele>
        <time>2022-06-06T09:40:56.000Z</time>
      </trkpt>
      <trkpt lat="49.86361" lon="4.77825">
        <ele>317</ele>
        <time>2022-06-06T09:40:57.000Z</time>
      </trkpt>
      <trkpt lat="49.86361" lon="4.77825">
        <ele>317</ele>
        <time>2022-06-06T09:40:58.000Z</time>
      </trkpt>
      <trkpt lat="49.86361" lon="4.77825">
        <ele>317</ele>
        <time>2022-06-06T09:40:59.000Z</time>
      </trkpt>
      <trkpt lat="49.86361" lon="4.77824">
        <ele>317</ele>
        <time>2022-06-06T09:41:00.000Z</time>
      </trkpt>
      <trkpt lat="49.86361" lon="4.77824">
        <ele>317</ele>
        <time>2022-06-06T09:41:01.000Z</time>
      </trkpt>
      <trkpt lat="49.86361" lon="4.77824">
        <ele>317</ele>
        <time>2022-06-06T09:41:02.000Z</time>
      </trkpt>
      <trkpt lat="49.86361" lon="4.77824">
        <ele>317</ele>
        <time>2022-06-06T09:41:03.000Z</time>
      </trkpt>
      <trkpt lat="49.86361" lon="4.77824">
        <ele>317</ele>
        <time>2022-06-06T09:41:04.000Z</time>
      </trkpt>
      <trkpt lat="49.86361" lon="4.77824">
        <ele>317</ele>
        <time>2022-06-06T09:41:05.000Z</time>
      </trkpt>
      <trkpt lat="49.86361" lon="4.77824">
        <ele>317</ele>
        <time>2022-06-06T09:41:06.000Z</time>
      </trkpt>
      <trkpt lat="49.86361" lon="4.77824">
        <ele>317</ele>
        <time>2022-06-06T09:41:07.000Z</time>
      </trkpt>
      <trkpt lat="49.86361" lon="4.77824">
        <ele>317</ele>
        <time>2022-06-06T09:41:08.000Z</time>
      </trkpt>
      <trkpt lat="49.86361" lon="4.77824">
        <ele>317</ele>
        <time>2022-06-06T09:41:09.000Z</time>
      </trkpt>
      <trkpt lat="49.86361" lon="4.77824">
        <ele>317</ele>
        <time>2022-06-06T09:41:10.000Z</time>
      </trkpt>
      <trkpt lat="49.86361" lon="4.77824">
        <ele>317</ele>
        <time>2022-06-06T09:41:11.000Z</time>
      </trkpt>
      <trkpt lat="49.86361" lon="4.77824">
        <ele>317</ele>
        <time>2022-06-06T09:41:12.000Z</time>
      </trkpt>
      <trkpt lat="49.86361" lon="4.77824">
        <ele>317</ele>
        <time>2022-06-06T09:41:13.000Z</time>
      </trkpt>
      <trkpt lat="49.86361" lon="4.77824">
        <ele>317</ele>
        <time>2022-06-06T09:41:14.000Z</time>
      </trkpt>
      <trkpt lat="49.86361" lon="4.77824">
        <ele>317</ele>
        <time>2022-06-06T09:41:15.000Z</time>
      </trkpt>
      <trkpt lat="49.86362" lon="4.77824">
        <ele>316</ele>
        <time>2022-06-06T09:41:16.000Z</time>
      </trkpt>
      <trkpt lat="49.86361" lon="4.77824">
        <ele>316</ele>
        <time>2022-06-06T09:41:17.000Z</time>
      </trkpt>
      <trkpt lat="49.86361" lon="4.77824">
        <ele>316</ele>
        <time>2022-06-06T09:41:18.000Z</time>
      </trkpt>
      <trkpt lat="49.86361" lon="4.77824">
        <ele>316</ele>
        <time>2022-06-06T09:41:19.000Z</time>
      </trkpt>
      <trkpt lat="49.86362" lon="4.77824">
        <ele>316</ele>
        <time>2022-06-06T09:41:20.000Z</time>
      </trkpt>
      <trkpt lat="49.86362" lon="4.77823">
        <ele>316</ele>
        <time>2022-06-06T09:41:21.000Z</time>
      </trkpt>
      <trkpt lat="49.86362" lon="4.77823">
        <ele>316</ele>
        <time>2022-06-06T09:41:22.000Z</time>
      </trkpt>
      <trkpt lat="49.86362" lon="4.77823">
        <ele>316</ele>
        <time>2022-06-06T09:41:23.000Z</time>
      </trkpt>
      <trkpt lat="49.86361" lon="4.77822">
        <ele>316</ele>
        <time>2022-06-06T09:41:24.000Z</time>
      </trkpt>
      <trkpt lat="49.86361" lon="4.77821">
        <ele>316</ele>
        <time>2022-06-06T09:41:25.000Z</time>
      </trkpt>
      <trkpt lat="49.86359" lon="4.7782">
        <ele>316</ele>
        <time>2022-06-06T09:41:26.000Z</time>
      </trkpt>
      <trkpt lat="49.86357" lon="4.77819">
        <ele>316</ele>
        <time>2022-06-06T09:41:27.000Z</time>
      </trkpt>
      <trkpt lat="49.86354" lon="4.77819">
        <ele>316</ele>
        <time>2022-06-06T09:41:28.000Z</time>
      </trkpt>
      <trkpt lat="49.86351" lon="4.77819">
        <ele>316</ele>
        <time>2022-06-06T09:41:29.000Z</time>
      </trkpt>
      <trkpt lat="49.86348" lon="4.77819">
        <ele>316</ele>
        <time>2022-06-06T09:41:30.000Z</time>
      </trkpt>
      <trkpt lat="49.86345" lon="4.77819">
        <ele>316</ele>
        <time>2022-06-06T09:41:31.000Z</time>
      </trkpt>
      <trkpt lat="49.86342" lon="4.77819">
        <ele>316</ele>
        <time>2022-06-06T09:41:32.000Z</time>
      </trkpt>
      <trkpt lat="49.86339" lon="4.77818">
        <ele>316</ele>
        <time>2022-06-06T09:41:33.000Z</time>
      </trkpt>
      <trkpt lat="49.86335" lon="4.77819">
        <ele>316</ele>
        <time>2022-06-06T09:41:34.000Z</time>
      </trkpt>
      <trkpt lat="49.86333" lon="4.77819">
        <ele>316</ele>
        <time>2022-06-06T09:41:35.000Z</time>
      </trkpt>
      <trkpt lat="49.8633" lon="4.77819">
        <ele>316</ele>
        <time>2022-06-06T09:41:36.000Z</time>
      </trkpt>
      <trkpt lat="49.86327" lon="4.7782">
        <ele>316</ele>
        <time>2022-06-06T09:41:37.000Z</time>
      </trkpt>
      <trkpt lat="49.86324" lon="4.77821">
        <ele>316</ele>
        <time>2022-06-06T09:41:38.000Z</time>
      </trkpt>
      <trkpt lat="49.86322" lon="4.77821">
        <ele>316</ele>
        <time>2022-06-06T09:41:39.000Z</time>
      </trkpt>
      <trkpt lat="49.86318" lon="4.77822">
        <ele>316</ele>
        <time>2022-06-06T09:41:40.000Z</time>
      </trkpt>
      <trkpt lat="49.86315" lon="4.77822">
        <ele>316</ele>
        <time>2022-06-06T09:41:41.000Z</time>
      </trkpt>
      <trkpt lat="49.86311" lon="4.77825">
        <ele>316</ele>
        <time>2022-06-06T09:41:42.000Z</time>
      </trkpt>
      <trkpt lat="49.86308" lon="4.7783">
        <ele>316</ele>
        <time>2022-06-06T09:41:43.000Z</time>
      </trkpt>
      <trkpt lat="49.86306" lon="4.77834">
        <ele>316</ele>
        <time>2022-06-06T09:41:44.000Z</time>
      </trkpt>
      <trkpt lat="49.86303" lon="4.77838">
        <ele>316</ele>
        <time>2022-06-06T09:41:45.000Z</time>
      </trkpt>
      <trkpt lat="49.86301" lon="4.77841">
        <ele>316</ele>
        <time>2022-06-06T09:41:46.000Z</time>
      </trkpt>
      <trkpt lat="49.863" lon="4.77843">
        <ele>317</ele>
        <time>2022-06-06T09:41:47.000Z</time>
      </trkpt>
      <trkpt lat="49.86299" lon="4.77846">
        <ele>317</ele>
        <time>2022-06-06T09:41:48.000Z</time>
      </trkpt>
      <trkpt lat="49.86296" lon="4.77848">
        <ele>317</ele>
        <time>2022-06-06T09:41:49.000Z</time>
      </trkpt>
      <trkpt lat="49.86294" lon="4.7785">
        <ele>317</ele>
        <time>2022-06-06T09:41:50.000Z</time>
      </trkpt>
      <trkpt lat="49.8629" lon="4.77852">
        <ele>317</ele>
        <time>2022-06-06T09:41:51.000Z</time>
      </trkpt>
      <trkpt lat="49.86286" lon="4.77853">
        <ele>317</ele>
        <time>2022-06-06T09:41:52.000Z</time>
      </trkpt>
      <trkpt lat="49.86282" lon="4.77855">
        <ele>317</ele>
        <time>2022-06-06T09:41:53.000Z</time>
      </trkpt>
      <trkpt lat="49.86278" lon="4.77854">
        <ele>318</ele>
        <time>2022-06-06T09:41:54.000Z</time>
      </trkpt>
      <trkpt lat="49.86274" lon="4.77853">
        <ele>318</ele>
        <time>2022-06-06T09:41:55.000Z</time>
      </trkpt>
      <trkpt lat="49.8627" lon="4.77851">
        <ele>318</ele>
        <time>2022-06-06T09:41:56.000Z</time>
      </trkpt>
      <trkpt lat="49.86267" lon="4.77846">
        <ele>318</ele>
        <time>2022-06-06T09:41:57.000Z</time>
      </trkpt>
      <trkpt lat="49.86265" lon="4.7784">
        <ele>318</ele>
        <time>2022-06-06T09:41:58.000Z</time>
      </trkpt>
      <trkpt lat="49.86265" lon="4.77834">
        <ele>318</ele>
        <time>2022-06-06T09:41:59.000Z</time>
      </trkpt>
      <trkpt lat="49.86265" lon="4.77827">
        <ele>318</ele>
        <time>2022-06-06T09:42:00.000Z</time>
      </trkpt>
      <trkpt lat="49.86266" lon="4.77821">
        <ele>318</ele>
        <time>2022-06-06T09:42:01.000Z</time>
      </trkpt>
      <trkpt lat="49.86266" lon="4.77815">
        <ele>319</ele>
        <time>2022-06-06T09:42:02.000Z</time>
      </trkpt>
      <trkpt lat="49.86267" lon="4.77809">
        <ele>319</ele>
        <time>2022-06-06T09:42:03.000Z</time>
      </trkpt>
      <trkpt lat="49.86269" lon="4.77803">
        <ele>319</ele>
        <time>2022-06-06T09:42:04.000Z</time>
      </trkpt>
      <trkpt lat="49.86271" lon="4.77797">
        <ele>319</ele>
        <time>2022-06-06T09:42:05.000Z</time>
      </trkpt>
      <trkpt lat="49.86273" lon="4.77791">
        <ele>319</ele>
        <time>2022-06-06T09:42:06.000Z</time>
      </trkpt>
      <trkpt lat="49.86274" lon="4.77785">
        <ele>319</ele>
        <time>2022-06-06T09:42:07.000Z</time>
      </trkpt>
      <trkpt lat="49.86275" lon="4.77778">
        <ele>320</ele>
        <time>2022-06-06T09:42:08.000Z</time>
      </trkpt>
      <trkpt lat="49.86276" lon="4.77771">
        <ele>320</ele>
        <time>2022-06-06T09:42:09.000Z</time>
      </trkpt>
      <trkpt lat="49.86277" lon="4.77765">
        <ele>320</ele>
        <time>2022-06-06T09:42:10.000Z</time>
      </trkpt>
      <trkpt lat="49.86278" lon="4.7776">
        <ele>320</ele>
        <time>2022-06-06T09:42:11.000Z</time>
      </trkpt>
      <trkpt lat="49.86279" lon="4.77753">
        <ele>320</ele>
        <time>2022-06-06T09:42:12.000Z</time>
      </trkpt>
      <trkpt lat="49.8628" lon="4.77748">
        <ele>321</ele>
        <time>2022-06-06T09:42:13.000Z</time>
      </trkpt>
      <trkpt lat="49.8628" lon="4.77743">
        <ele>321</ele>
        <time>2022-06-06T09:42:14.000Z</time>
      </trkpt>
      <trkpt lat="49.86279" lon="4.77739">
        <ele>321</ele>
        <time>2022-06-06T09:42:15.000Z</time>
      </trkpt>
      <trkpt lat="49.86276" lon="4.77736">
        <ele>321</ele>
        <time>2022-06-06T09:42:16.000Z</time>
      </trkpt>
      <trkpt lat="49.86273" lon="4.77732">
        <ele>321</ele>
        <time>2022-06-06T09:42:17.000Z</time>
      </trkpt>
      <trkpt lat="49.8627" lon="4.7773">
        <ele>321</ele>
        <time>2022-06-06T09:42:18.000Z</time>
      </trkpt>
      <trkpt lat="49.86268" lon="4.77728">
        <ele>322</ele>
        <time>2022-06-06T09:42:19.000Z</time>
      </trkpt>
      <trkpt lat="49.86265" lon="4.77727">
        <ele>322</ele>
        <time>2022-06-06T09:42:20.000Z</time>
      </trkpt>
      <trkpt lat="49.86262" lon="4.77725">
        <ele>322</ele>
        <time>2022-06-06T09:42:21.000Z</time>
      </trkpt>
      <trkpt lat="49.86258" lon="4.77723">
        <ele>322</ele>
        <time>2022-06-06T09:42:22.000Z</time>
      </trkpt>
      <trkpt lat="49.86254" lon="4.77721">
        <ele>322</ele>
        <time>2022-06-06T09:42:23.000Z</time>
      </trkpt>
      <trkpt lat="49.86251" lon="4.77718">
        <ele>322</ele>
        <time>2022-06-06T09:42:24.000Z</time>
      </trkpt>
      <trkpt lat="49.86247" lon="4.77714">
        <ele>323</ele>
        <time>2022-06-06T09:42:25.000Z</time>
      </trkpt>
      <trkpt lat="49.86243" lon="4.77711">
        <ele>323</ele>
        <time>2022-06-06T09:42:26.000Z</time>
      </trkpt>
      <trkpt lat="49.8624" lon="4.77709">
        <ele>323</ele>
        <time>2022-06-06T09:42:27.000Z</time>
      </trkpt>
      <trkpt lat="49.86236" lon="4.77707">
        <ele>323</ele>
        <time>2022-06-06T09:42:28.000Z</time>
      </trkpt>
      <trkpt lat="49.86232" lon="4.77705">
        <ele>323</ele>
        <time>2022-06-06T09:42:29.000Z</time>
      </trkpt>
      <trkpt lat="49.86228" lon="4.77702">
        <ele>324</ele>
        <time>2022-06-06T09:42:30.000Z</time>
      </trkpt>
      <trkpt lat="49.86224" lon="4.777">
        <ele>324</ele>
        <time>2022-06-06T09:42:31.000Z</time>
      </trkpt>
      <trkpt lat="49.8622" lon="4.77698">
        <ele>324</ele>
        <time>2022-06-06T09:42:32.000Z</time>
      </trkpt>
      <trkpt lat="49.86215" lon="4.77697">
        <ele>324</ele>
        <time>2022-06-06T09:42:33.000Z</time>
      </trkpt>
      <trkpt lat="49.8621" lon="4.77696">
        <ele>324</ele>
        <time>2022-06-06T09:42:34.000Z</time>
      </trkpt>
      <trkpt lat="49.86204" lon="4.77696">
        <ele>324</ele>
        <time>2022-06-06T09:42:35.000Z</time>
      </trkpt>
      <trkpt lat="49.86198" lon="4.77695">
        <ele>324</ele>
        <time>2022-06-06T09:42:36.000Z</time>
      </trkpt>
      <trkpt lat="49.86193" lon="4.77694">
        <ele>324</ele>
        <time>2022-06-06T09:42:37.000Z</time>
      </trkpt>
      <trkpt lat="49.86189" lon="4.77693">
        <ele>324</ele>
        <time>2022-06-06T09:42:38.000Z</time>
      </trkpt>
      <trkpt lat="49.86185" lon="4.77691">
        <ele>324</ele>
        <time>2022-06-06T09:42:39.000Z</time>
      </trkpt>
      <trkpt lat="49.86182" lon="4.7769">
        <ele>324</ele>
        <time>2022-06-06T09:42:40.000Z</time>
      </trkpt>
      <trkpt lat="49.86178" lon="4.77689">
        <ele>324</ele>
        <time>2022-06-06T09:42:41.000Z</time>
      </trkpt>
      <trkpt lat="49.86174" lon="4.77688">
        <ele>325</ele>
        <time>2022-06-06T09:42:42.000Z</time>
      </trkpt>
      <trkpt lat="49.86171" lon="4.77687">
        <ele>325</ele>
        <time>2022-06-06T09:42:43.000Z</time>
      </trkpt>
      <trkpt lat="49.86167" lon="4.77686">
        <ele>325</ele>
        <time>2022-06-06T09:42:44.000Z</time>
      </trkpt>
      <trkpt lat="49.86163" lon="4.77685">
        <ele>325</ele>
        <time>2022-06-06T09:42:45.000Z</time>
      </trkpt>
      <trkpt lat="49.86159" lon="4.77684">
        <ele>325</ele>
        <time>2022-06-06T09:42:46.000Z</time>
      </trkpt>
      <trkpt lat="49.86155" lon="4.77683">
        <ele>326</ele>
        <time>2022-06-06T09:42:47.000Z</time>
      </trkpt>
      <trkpt lat="49.86151" lon="4.77682">
        <ele>326</ele>
        <time>2022-06-06T09:42:48.000Z</time>
      </trkpt>
      <trkpt lat="49.86146" lon="4.77681">
        <ele>326</ele>
        <time>2022-06-06T09:42:49.000Z</time>
      </trkpt>
      <trkpt lat="49.86142" lon="4.77681">
        <ele>326</ele>
        <time>2022-06-06T09:42:50.000Z</time>
      </trkpt>
      <trkpt lat="49.86139" lon="4.77681">
        <ele>327</ele>
        <time>2022-06-06T09:42:51.000Z</time>
      </trkpt>
      <trkpt lat="49.86136" lon="4.77681">
        <ele>327</ele>
        <time>2022-06-06T09:42:52.000Z</time>
      </trkpt>
      <trkpt lat="49.86133" lon="4.77681">
        <ele>327</ele>
        <time>2022-06-06T09:42:53.000Z</time>
      </trkpt>
      <trkpt lat="49.86129" lon="4.77681">
        <ele>327</ele>
        <time>2022-06-06T09:42:54.000Z</time>
      </trkpt>
      <trkpt lat="49.86126" lon="4.7768">
        <ele>327</ele>
        <time>2022-06-06T09:42:55.000Z</time>
      </trkpt>
      <trkpt lat="49.86122" lon="4.7768">
        <ele>327</ele>
        <time>2022-06-06T09:42:56.000Z</time>
      </trkpt>
      <trkpt lat="49.86118" lon="4.77679">
        <ele>327</ele>
        <time>2022-06-06T09:42:57.000Z</time>
      </trkpt>
      <trkpt lat="49.86114" lon="4.77679">
        <ele>327</ele>
        <time>2022-06-06T09:42:58.000Z</time>
      </trkpt>
      <trkpt lat="49.8611" lon="4.77679">
        <ele>327</ele>
        <time>2022-06-06T09:42:59.000Z</time>
      </trkpt>
      <trkpt lat="49.86106" lon="4.77679">
        <ele>328</ele>
        <time>2022-06-06T09:43:00.000Z</time>
      </trkpt>
      <trkpt lat="49.86102" lon="4.7768">
        <ele>328</ele>
        <time>2022-06-06T09:43:01.000Z</time>
      </trkpt>
      <trkpt lat="49.86099" lon="4.7768">
        <ele>328</ele>
        <time>2022-06-06T09:43:02.000Z</time>
      </trkpt>
      <trkpt lat="49.86096" lon="4.7768">
        <ele>328</ele>
        <time>2022-06-06T09:43:03.000Z</time>
      </trkpt>
      <trkpt lat="49.86092" lon="4.77679">
        <ele>328</ele>
        <time>2022-06-06T09:43:04.000Z</time>
      </trkpt>
      <trkpt lat="49.86088" lon="4.7768">
        <ele>328</ele>
        <time>2022-06-06T09:43:05.000Z</time>
      </trkpt>
      <trkpt lat="49.86084" lon="4.7768">
        <ele>328</ele>
        <time>2022-06-06T09:43:06.000Z</time>
      </trkpt>
      <trkpt lat="49.86079" lon="4.7768">
        <ele>328</ele>
        <time>2022-06-06T09:43:07.000Z</time>
      </trkpt>
      <trkpt lat="49.86074" lon="4.7768">
        <ele>328</ele>
        <time>2022-06-06T09:43:08.000Z</time>
      </trkpt>
      <trkpt lat="49.86071" lon="4.7768">
        <ele>328</ele>
        <time>2022-06-06T09:43:09.000Z</time>
      </trkpt>
      <trkpt lat="49.86067" lon="4.77682">
        <ele>328</ele>
        <time>2022-06-06T09:43:10.000Z</time>
      </trkpt>
      <trkpt lat="49.86063" lon="4.77683">
        <ele>328</ele>
        <time>2022-06-06T09:43:11.000Z</time>
      </trkpt>
      <trkpt lat="49.86058" lon="4.77684">
        <ele>329</ele>
        <time>2022-06-06T09:43:12.000Z</time>
      </trkpt>
      <trkpt lat="49.86054" lon="4.77686">
        <ele>329</ele>
        <time>2022-06-06T09:43:13.000Z</time>
      </trkpt>
      <trkpt lat="49.86049" lon="4.77687">
        <ele>329</ele>
        <time>2022-06-06T09:43:14.000Z</time>
      </trkpt>
      <trkpt lat="49.86045" lon="4.77687">
        <ele>329</ele>
        <time>2022-06-06T09:43:15.000Z</time>
      </trkpt>
      <trkpt lat="49.8604" lon="4.77687">
        <ele>329</ele>
        <time>2022-06-06T09:43:16.000Z</time>
      </trkpt>
      <trkpt lat="49.86036" lon="4.77688">
        <ele>329</ele>
        <time>2022-06-06T09:43:17.000Z</time>
      </trkpt>
      <trkpt lat="49.86031" lon="4.77689">
        <ele>329</ele>
        <time>2022-06-06T09:43:18.000Z</time>
      </trkpt>
      <trkpt lat="49.86027" lon="4.7769">
        <ele>329</ele>
        <time>2022-06-06T09:43:19.000Z</time>
      </trkpt>
      <trkpt lat="49.86022" lon="4.77691">
        <ele>329</ele>
        <time>2022-06-06T09:43:20.000Z</time>
      </trkpt>
      <trkpt lat="49.86017" lon="4.77692">
        <ele>330</ele>
        <time>2022-06-06T09:43:21.000Z</time>
      </trkpt>
      <trkpt lat="49.86012" lon="4.77693">
        <ele>330</ele>
        <time>2022-06-06T09:43:22.000Z</time>
      </trkpt>
      <trkpt lat="49.86007" lon="4.77694">
        <ele>330</ele>
        <time>2022-06-06T09:43:23.000Z</time>
      </trkpt>
      <trkpt lat="49.86003" lon="4.77695">
        <ele>330</ele>
        <time>2022-06-06T09:43:24.000Z</time>
      </trkpt>
      <trkpt lat="49.85998" lon="4.77695">
        <ele>330</ele>
        <time>2022-06-06T09:43:25.000Z</time>
      </trkpt>
      <trkpt lat="49.85993" lon="4.77696">
        <ele>330</ele>
        <time>2022-06-06T09:43:26.000Z</time>
      </trkpt>
      <trkpt lat="49.85988" lon="4.77698">
        <ele>330</ele>
        <time>2022-06-06T09:43:27.000Z</time>
      </trkpt>
      <trkpt lat="49.85983" lon="4.77699">
        <ele>330</ele>
        <time>2022-06-06T09:43:28.000Z</time>
      </trkpt>
      <trkpt lat="49.85977" lon="4.777">
        <ele>331</ele>
        <time>2022-06-06T09:43:29.000Z</time>
      </trkpt>
      <trkpt lat="49.8597" lon="4.77701">
        <ele>331</ele>
        <time>2022-06-06T09:43:30.000Z</time>
      </trkpt>
      <trkpt lat="49.85964" lon="4.77701">
        <ele>331</ele>
        <time>2022-06-06T09:43:31.000Z</time>
      </trkpt>
      <trkpt lat="49.85959" lon="4.77701">
        <ele>330</ele>
        <time>2022-06-06T09:43:32.000Z</time>
      </trkpt>
      <trkpt lat="49.85953" lon="4.77703">
        <ele>330</ele>
        <time>2022-06-06T09:43:33.000Z</time>
      </trkpt>
      <trkpt lat="49.85947" lon="4.77705">
        <ele>330</ele>
        <time>2022-06-06T09:43:34.000Z</time>
      </trkpt>
      <trkpt lat="49.85942" lon="4.77707">
        <ele>330</ele>
        <time>2022-06-06T09:43:35.000Z</time>
      </trkpt>
      <trkpt lat="49.85936" lon="4.77709">
        <ele>329</ele>
        <time>2022-06-06T09:43:36.000Z</time>
      </trkpt>
      <trkpt lat="49.8593" lon="4.77712">
        <ele>329</ele>
        <time>2022-06-06T09:43:37.000Z</time>
      </trkpt>
      <trkpt lat="49.85924" lon="4.77715">
        <ele>329</ele>
        <time>2022-06-06T09:43:38.000Z</time>
      </trkpt>
      <trkpt lat="49.85919" lon="4.77717">
        <ele>328</ele>
        <time>2022-06-06T09:43:39.000Z</time>
      </trkpt>
      <trkpt lat="49.85914" lon="4.77719">
        <ele>328</ele>
        <time>2022-06-06T09:43:40.000Z</time>
      </trkpt>
      <trkpt lat="49.8591" lon="4.77722">
        <ele>328</ele>
        <time>2022-06-06T09:43:41.000Z</time>
      </trkpt>
      <trkpt lat="49.85905" lon="4.77725">
        <ele>327</ele>
        <time>2022-06-06T09:43:42.000Z</time>
      </trkpt>
      <trkpt lat="49.859" lon="4.77728">
        <ele>327</ele>
        <time>2022-06-06T09:43:43.000Z</time>
      </trkpt>
      <trkpt lat="49.85894" lon="4.77732">
        <ele>327</ele>
        <time>2022-06-06T09:43:44.000Z</time>
      </trkpt>
      <trkpt lat="49.85888" lon="4.77735">
        <ele>327</ele>
        <time>2022-06-06T09:43:45.000Z</time>
      </trkpt>
      <trkpt lat="49.85882" lon="4.77738">
        <ele>327</ele>
        <time>2022-06-06T09:43:46.000Z</time>
      </trkpt>
      <trkpt lat="49.85876" lon="4.77741">
        <ele>326</ele>
        <time>2022-06-06T09:43:47.000Z</time>
      </trkpt>
      <trkpt lat="49.8587" lon="4.77743">
        <ele>326</ele>
        <time>2022-06-06T09:43:48.000Z</time>
      </trkpt>
      <trkpt lat="49.85864" lon="4.77745">
        <ele>326</ele>
        <time>2022-06-06T09:43:49.000Z</time>
      </trkpt>
      <trkpt lat="49.85858" lon="4.77747">
        <ele>326</ele>
        <time>2022-06-06T09:43:50.000Z</time>
      </trkpt>
      <trkpt lat="49.85851" lon="4.77748">
        <ele>325</ele>
        <time>2022-06-06T09:43:51.000Z</time>
      </trkpt>
      <trkpt lat="49.85843" lon="4.7775">
        <ele>325</ele>
        <time>2022-06-06T09:43:52.000Z</time>
      </trkpt>
      <trkpt lat="49.85836" lon="4.77751">
        <ele>325</ele>
        <time>2022-06-06T09:43:53.000Z</time>
      </trkpt>
      <trkpt lat="49.85828" lon="4.77751">
        <ele>324</ele>
        <time>2022-06-06T09:43:54.000Z</time>
      </trkpt>
      <trkpt lat="49.85821" lon="4.77751">
        <ele>324</ele>
        <time>2022-06-06T09:43:55.000Z</time>
      </trkpt>
      <trkpt lat="49.85815" lon="4.77751">
        <ele>323</ele>
        <time>2022-06-06T09:43:56.000Z</time>
      </trkpt>
      <trkpt lat="49.85809" lon="4.77752">
        <ele>322</ele>
        <time>2022-06-06T09:43:57.000Z</time>
      </trkpt>
      <trkpt lat="49.85803" lon="4.77753">
        <ele>322</ele>
        <time>2022-06-06T09:43:58.000Z</time>
      </trkpt>
      <trkpt lat="49.85798" lon="4.77754">
        <ele>321</ele>
        <time>2022-06-06T09:43:59.000Z</time>
      </trkpt>
      <trkpt lat="49.85792" lon="4.77754">
        <ele>320</ele>
        <time>2022-06-06T09:44:00.000Z</time>
      </trkpt>
      <trkpt lat="49.85787" lon="4.77753">
        <ele>319</ele>
        <time>2022-06-06T09:44:01.000Z</time>
      </trkpt>
      <trkpt lat="49.85782" lon="4.77751">
        <ele>318</ele>
        <time>2022-06-06T09:44:02.000Z</time>
      </trkpt>
      <trkpt lat="49.85778" lon="4.77748">
        <ele>318</ele>
        <time>2022-06-06T09:44:03.000Z</time>
      </trkpt>
      <trkpt lat="49.85773" lon="4.77746">
        <ele>317</ele>
        <time>2022-06-06T09:44:04.000Z</time>
      </trkpt>
      <trkpt lat="49.85767" lon="4.77746">
        <ele>316</ele>
        <time>2022-06-06T09:44:05.000Z</time>
      </trkpt>
      <trkpt lat="49.85763" lon="4.77746">
        <ele>316</ele>
        <time>2022-06-06T09:44:06.000Z</time>
      </trkpt>
      <trkpt lat="49.85761" lon="4.77745">
        <ele>315</ele>
        <time>2022-06-06T09:44:07.000Z</time>
      </trkpt>
      <trkpt lat="49.85761" lon="4.77743">
        <ele>315</ele>
        <time>2022-06-06T09:44:08.000Z</time>
      </trkpt>
      <trkpt lat="49.85762" lon="4.77741">
        <ele>314</ele>
        <time>2022-06-06T09:44:09.000Z</time>
      </trkpt>
      <trkpt lat="49.85763" lon="4.77738">
        <ele>314</ele>
        <time>2022-06-06T09:44:10.000Z</time>
      </trkpt>
      <trkpt lat="49.85765" lon="4.77736">
        <ele>313</ele>
        <time>2022-06-06T09:44:11.000Z</time>
      </trkpt>
      <trkpt lat="49.85766" lon="4.77733">
        <ele>313</ele>
        <time>2022-06-06T09:44:12.000Z</time>
      </trkpt>
      <trkpt lat="49.85766" lon="4.77731">
        <ele>312</ele>
        <time>2022-06-06T09:44:13.000Z</time>
      </trkpt>
      <trkpt lat="49.85765" lon="4.77727">
        <ele>312</ele>
        <time>2022-06-06T09:44:14.000Z</time>
      </trkpt>
      <trkpt lat="49.85762" lon="4.77723">
        <ele>311</ele>
        <time>2022-06-06T09:44:15.000Z</time>
      </trkpt>
      <trkpt lat="49.85758" lon="4.77719">
        <ele>311</ele>
        <time>2022-06-06T09:44:16.000Z</time>
      </trkpt>
      <trkpt lat="49.85753" lon="4.77713">
        <ele>310</ele>
        <time>2022-06-06T09:44:17.000Z</time>
      </trkpt>
      <trkpt lat="49.8575" lon="4.77707">
        <ele>309</ele>
        <time>2022-06-06T09:44:18.000Z</time>
      </trkpt>
      <trkpt lat="49.85745" lon="4.777">
        <ele>309</ele>
        <time>2022-06-06T09:44:19.000Z</time>
      </trkpt>
      <trkpt lat="49.85742" lon="4.77695">
        <ele>308</ele>
        <time>2022-06-06T09:44:20.000Z</time>
      </trkpt>
      <trkpt lat="49.85738" lon="4.7769">
        <ele>308</ele>
        <time>2022-06-06T09:44:21.000Z</time>
      </trkpt>
      <trkpt lat="49.85734" lon="4.77685">
        <ele>307</ele>
        <time>2022-06-06T09:44:22.000Z</time>
      </trkpt>
      <trkpt lat="49.85729" lon="4.77681">
        <ele>307</ele>
        <time>2022-06-06T09:44:23.000Z</time>
      </trkpt>
      <trkpt lat="49.85725" lon="4.77677">
        <ele>306</ele>
        <time>2022-06-06T09:44:24.000Z</time>
      </trkpt>
      <trkpt lat="49.8572" lon="4.77675">
        <ele>306</ele>
        <time>2022-06-06T09:44:25.000Z</time>
      </trkpt>
      <trkpt lat="49.85716" lon="4.77674">
        <ele>306</ele>
        <time>2022-06-06T09:44:26.000Z</time>
      </trkpt>
      <trkpt lat="49.85711" lon="4.77673">
        <ele>305</ele>
        <time>2022-06-06T09:44:27.000Z</time>
      </trkpt>
      <trkpt lat="49.85707" lon="4.77672">
        <ele>305</ele>
        <time>2022-06-06T09:44:28.000Z</time>
      </trkpt>
      <trkpt lat="49.85703" lon="4.7767">
        <ele>304</ele>
        <time>2022-06-06T09:44:29.000Z</time>
      </trkpt>
      <trkpt lat="49.857" lon="4.7767">
        <ele>304</ele>
        <time>2022-06-06T09:44:30.000Z</time>
      </trkpt>
      <trkpt lat="49.85697" lon="4.77669">
        <ele>304</ele>
        <time>2022-06-06T09:44:31.000Z</time>
      </trkpt>
      <trkpt lat="49.85695" lon="4.77669">
        <ele>303</ele>
        <time>2022-06-06T09:44:32.000Z</time>
      </trkpt>
      <trkpt lat="49.85693" lon="4.7767">
        <ele>303</ele>
        <time>2022-06-06T09:44:33.000Z</time>
      </trkpt>
      <trkpt lat="49.85692" lon="4.77671">
        <ele>303</ele>
        <time>2022-06-06T09:44:34.000Z</time>
      </trkpt>
      <trkpt lat="49.85691" lon="4.77672">
        <ele>302</ele>
        <time>2022-06-06T09:44:35.000Z</time>
      </trkpt>
      <trkpt lat="49.85689" lon="4.77673">
        <ele>302</ele>
        <time>2022-06-06T09:44:36.000Z</time>
      </trkpt>
      <trkpt lat="49.85687" lon="4.77674">
        <ele>302</ele>
        <time>2022-06-06T09:44:37.000Z</time>
      </trkpt>
      <trkpt lat="49.85684" lon="4.77675">
        <ele>302</ele>
        <time>2022-06-06T09:44:38.000Z</time>
      </trkpt>
      <trkpt lat="49.85681" lon="4.77676">
        <ele>302</ele>
        <time>2022-06-06T09:44:39.000Z</time>
      </trkpt>
      <trkpt lat="49.85679" lon="4.77677">
        <ele>302</ele>
        <time>2022-06-06T09:44:40.000Z</time>
      </trkpt>
      <trkpt lat="49.85677" lon="4.77677">
        <ele>302</ele>
        <time>2022-06-06T09:44:41.000Z</time>
      </trkpt>
      <trkpt lat="49.85675" lon="4.77677">
        <ele>301</ele>
        <time>2022-06-06T09:44:42.000Z</time>
      </trkpt>
      <trkpt lat="49.85673" lon="4.77678">
        <ele>301</ele>
        <time>2022-06-06T09:44:43.000Z</time>
      </trkpt>
      <trkpt lat="49.85671" lon="4.7768">
        <ele>301</ele>
        <time>2022-06-06T09:44:44.000Z</time>
      </trkpt>
      <trkpt lat="49.85669" lon="4.77681">
        <ele>301</ele>
        <time>2022-06-06T09:44:45.000Z</time>
      </trkpt>
      <trkpt lat="49.85667" lon="4.77682">
        <ele>301</ele>
        <time>2022-06-06T09:44:46.000Z</time>
      </trkpt>
      <trkpt lat="49.85665" lon="4.77683">
        <ele>301</ele>
        <time>2022-06-06T09:44:47.000Z</time>
      </trkpt>
      <trkpt lat="49.85663" lon="4.77684">
        <ele>301</ele>
        <time>2022-06-06T09:44:48.000Z</time>
      </trkpt>
      <trkpt lat="49.85661" lon="4.77685">
        <ele>301</ele>
        <time>2022-06-06T09:44:49.000Z</time>
      </trkpt>
      <trkpt lat="49.85659" lon="4.77686">
        <ele>301</ele>
        <time>2022-06-06T09:44:50.000Z</time>
      </trkpt>
      <trkpt lat="49.85657" lon="4.77687">
        <ele>301</ele>
        <time>2022-06-06T09:44:51.000Z</time>
      </trkpt>
      <trkpt lat="49.85656" lon="4.77688">
        <ele>301</ele>
        <time>2022-06-06T09:44:52.000Z</time>
      </trkpt>
      <trkpt lat="49.85654" lon="4.77689">
        <ele>301</ele>
        <time>2022-06-06T09:44:53.000Z</time>
      </trkpt>
      <trkpt lat="49.85652" lon="4.77691">
        <ele>301</ele>
        <time>2022-06-06T09:44:54.000Z</time>
      </trkpt>
      <trkpt lat="49.8565" lon="4.77693">
        <ele>301</ele>
        <time>2022-06-06T09:44:55.000Z</time>
      </trkpt>
      <trkpt lat="49.85648" lon="4.77694">
        <ele>301</ele>
        <time>2022-06-06T09:44:56.000Z</time>
      </trkpt>
      <trkpt lat="49.85646" lon="4.77696">
        <ele>301</ele>
        <time>2022-06-06T09:44:57.000Z</time>
      </trkpt>
      <trkpt lat="49.85645" lon="4.77697">
        <ele>302</ele>
        <time>2022-06-06T09:44:58.000Z</time>
      </trkpt>
      <trkpt lat="49.85644" lon="4.77698">
        <ele>302</ele>
        <time>2022-06-06T09:44:59.000Z</time>
      </trkpt>
      <trkpt lat="49.85642" lon="4.77699">
        <ele>302</ele>
        <time>2022-06-06T09:45:00.000Z</time>
      </trkpt>
      <trkpt lat="49.85641" lon="4.777">
        <ele>302</ele>
        <time>2022-06-06T09:45:01.000Z</time>
      </trkpt>
      <trkpt lat="49.85639" lon="4.77701">
        <ele>303</ele>
        <time>2022-06-06T09:45:02.000Z</time>
      </trkpt>
      <trkpt lat="49.85638" lon="4.77702">
        <ele>303</ele>
        <time>2022-06-06T09:45:03.000Z</time>
      </trkpt>
      <trkpt lat="49.85636" lon="4.77703">
        <ele>303</ele>
        <time>2022-06-06T09:45:04.000Z</time>
      </trkpt>
      <trkpt lat="49.85634" lon="4.77704">
        <ele>304</ele>
        <time>2022-06-06T09:45:05.000Z</time>
      </trkpt>
      <trkpt lat="49.85632" lon="4.77706">
        <ele>304</ele>
        <time>2022-06-06T09:45:06.000Z</time>
      </trkpt>
      <trkpt lat="49.8563" lon="4.77708">
        <ele>304</ele>
        <time>2022-06-06T09:45:07.000Z</time>
      </trkpt>
      <trkpt lat="49.85627" lon="4.7771">
        <ele>304</ele>
        <time>2022-06-06T09:45:08.000Z</time>
      </trkpt>
      <trkpt lat="49.85625" lon="4.77712">
        <ele>305</ele>
        <time>2022-06-06T09:45:09.000Z</time>
      </trkpt>
      <trkpt lat="49.85622" lon="4.77713">
        <ele>305</ele>
        <time>2022-06-06T09:45:10.000Z</time>
      </trkpt>
      <trkpt lat="49.85619" lon="4.77716">
        <ele>305</ele>
        <time>2022-06-06T09:45:11.000Z</time>
      </trkpt>
      <trkpt lat="49.85617" lon="4.77718">
        <ele>305</ele>
        <time>2022-06-06T09:45:12.000Z</time>
      </trkpt>
      <trkpt lat="49.85614" lon="4.77719">
        <ele>305</ele>
        <time>2022-06-06T09:45:13.000Z</time>
      </trkpt>
      <trkpt lat="49.85612" lon="4.77721">
        <ele>305</ele>
        <time>2022-06-06T09:45:14.000Z</time>
      </trkpt>
      <trkpt lat="49.8561" lon="4.77724">
        <ele>305</ele>
        <time>2022-06-06T09:45:15.000Z</time>
      </trkpt>
      <trkpt lat="49.85607" lon="4.77727">
        <ele>306</ele>
        <time>2022-06-06T09:45:16.000Z</time>
      </trkpt>
      <trkpt lat="49.85604" lon="4.77729">
        <ele>306</ele>
        <time>2022-06-06T09:45:17.000Z</time>
      </trkpt>
      <trkpt lat="49.85601" lon="4.77731">
        <ele>306</ele>
        <time>2022-06-06T09:45:18.000Z</time>
      </trkpt>
      <trkpt lat="49.85598" lon="4.77733">
        <ele>306</ele>
        <time>2022-06-06T09:45:19.000Z</time>
      </trkpt>
      <trkpt lat="49.85595" lon="4.77735">
        <ele>307</ele>
        <time>2022-06-06T09:45:20.000Z</time>
      </trkpt>
      <trkpt lat="49.85593" lon="4.77738">
        <ele>307</ele>
        <time>2022-06-06T09:45:21.000Z</time>
      </trkpt>
      <trkpt lat="49.8559" lon="4.7774">
        <ele>307</ele>
        <time>2022-06-06T09:45:22.000Z</time>
      </trkpt>
      <trkpt lat="49.85587" lon="4.77741">
        <ele>307</ele>
        <time>2022-06-06T09:45:23.000Z</time>
      </trkpt>
      <trkpt lat="49.85583" lon="4.77744">
        <ele>307</ele>
        <time>2022-06-06T09:45:24.000Z</time>
      </trkpt>
      <trkpt lat="49.85578" lon="4.77747">
        <ele>307</ele>
        <time>2022-06-06T09:45:25.000Z</time>
      </trkpt>
      <trkpt lat="49.85574" lon="4.7775">
        <ele>307</ele>
        <time>2022-06-06T09:45:26.000Z</time>
      </trkpt>
      <trkpt lat="49.8557" lon="4.77754">
        <ele>307</ele>
        <time>2022-06-06T09:45:27.000Z</time>
      </trkpt>
      <trkpt lat="49.85565" lon="4.77757">
        <ele>307</ele>
        <time>2022-06-06T09:45:28.000Z</time>
      </trkpt>
      <trkpt lat="49.85561" lon="4.77761">
        <ele>307</ele>
        <time>2022-06-06T09:45:29.000Z</time>
      </trkpt>
      <trkpt lat="49.85556" lon="4.77765">
        <ele>307</ele>
        <time>2022-06-06T09:45:30.000Z</time>
      </trkpt>
      <trkpt lat="49.85552" lon="4.77769">
        <ele>307</ele>
        <time>2022-06-06T09:45:31.000Z</time>
      </trkpt>
      <trkpt lat="49.85548" lon="4.77772">
        <ele>308</ele>
        <time>2022-06-06T09:45:32.000Z</time>
      </trkpt>
      <trkpt lat="49.85544" lon="4.77776">
        <ele>308</ele>
        <time>2022-06-06T09:45:33.000Z</time>
      </trkpt>
      <trkpt lat="49.85539" lon="4.77779">
        <ele>308</ele>
        <time>2022-06-06T09:45:34.000Z</time>
      </trkpt>
      <trkpt lat="49.85535" lon="4.77782">
        <ele>308</ele>
        <time>2022-06-06T09:45:35.000Z</time>
      </trkpt>
      <trkpt lat="49.85531" lon="4.77786">
        <ele>307</ele>
        <time>2022-06-06T09:45:36.000Z</time>
      </trkpt>
      <trkpt lat="49.85527" lon="4.7779">
        <ele>307</ele>
        <time>2022-06-06T09:45:37.000Z</time>
      </trkpt>
      <trkpt lat="49.85523" lon="4.77794">
        <ele>307</ele>
        <time>2022-06-06T09:45:38.000Z</time>
      </trkpt>
      <trkpt lat="49.8552" lon="4.77797">
        <ele>307</ele>
        <time>2022-06-06T09:45:39.000Z</time>
      </trkpt>
      <trkpt lat="49.85517" lon="4.77799">
        <ele>307</ele>
        <time>2022-06-06T09:45:40.000Z</time>
      </trkpt>
      <trkpt lat="49.85514" lon="4.77801">
        <ele>307</ele>
        <time>2022-06-06T09:45:41.000Z</time>
      </trkpt>
      <trkpt lat="49.85511" lon="4.77804">
        <ele>307</ele>
        <time>2022-06-06T09:45:42.000Z</time>
      </trkpt>
      <trkpt lat="49.85508" lon="4.77806">
        <ele>307</ele>
        <time>2022-06-06T09:45:43.000Z</time>
      </trkpt>
      <trkpt lat="49.85505" lon="4.77809">
        <ele>307</ele>
        <time>2022-06-06T09:45:44.000Z</time>
      </trkpt>
      <trkpt lat="49.85501" lon="4.77812">
        <ele>307</ele>
        <time>2022-06-06T09:45:45.000Z</time>
      </trkpt>
      <trkpt lat="49.85497" lon="4.77815">
        <ele>307</ele>
        <time>2022-06-06T09:45:46.000Z</time>
      </trkpt>
      <trkpt lat="49.85493" lon="4.77819">
        <ele>307</ele>
        <time>2022-06-06T09:45:47.000Z</time>
      </trkpt>
      <trkpt lat="49.85489" lon="4.77822">
        <ele>307</ele>
        <time>2022-06-06T09:45:48.000Z</time>
      </trkpt>
      <trkpt lat="49.85485" lon="4.77826">
        <ele>307</ele>
        <time>2022-06-06T09:45:49.000Z</time>
      </trkpt>
      <trkpt lat="49.85481" lon="4.77829">
        <ele>307</ele>
        <time>2022-06-06T09:45:50.000Z</time>
      </trkpt>
      <trkpt lat="49.85477" lon="4.77833">
        <ele>307</ele>
        <time>2022-06-06T09:45:51.000Z</time>
      </trkpt>
      <trkpt lat="49.85472" lon="4.77837">
        <ele>307</ele>
        <time>2022-06-06T09:45:52.000Z</time>
      </trkpt>
      <trkpt lat="49.85468" lon="4.77841">
        <ele>307</ele>
        <time>2022-06-06T09:45:53.000Z</time>
      </trkpt>
      <trkpt lat="49.85463" lon="4.77844">
        <ele>307</ele>
        <time>2022-06-06T09:45:54.000Z</time>
      </trkpt>
      <trkpt lat="49.85459" lon="4.77847">
        <ele>306</ele>
        <time>2022-06-06T09:45:55.000Z</time>
      </trkpt>
      <trkpt lat="49.85454" lon="4.77851">
        <ele>306</ele>
        <time>2022-06-06T09:45:56.000Z</time>
      </trkpt>
      <trkpt lat="49.85449" lon="4.77854">
        <ele>306</ele>
        <time>2022-06-06T09:45:57.000Z</time>
      </trkpt>
      <trkpt lat="49.85444" lon="4.77858">
        <ele>306</ele>
        <time>2022-06-06T09:45:58.000Z</time>
      </trkpt>
      <trkpt lat="49.8544" lon="4.77862">
        <ele>306</ele>
        <time>2022-06-06T09:45:59.000Z</time>
      </trkpt>
      <trkpt lat="49.85436" lon="4.77865">
        <ele>305</ele>
        <time>2022-06-06T09:46:00.000Z</time>
      </trkpt>
      <trkpt lat="49.85431" lon="4.77868">
        <ele>305</ele>
        <time>2022-06-06T09:46:01.000Z</time>
      </trkpt>
      <trkpt lat="49.85427" lon="4.77872">
        <ele>305</ele>
        <time>2022-06-06T09:46:02.000Z</time>
      </trkpt>
      <trkpt lat="49.85422" lon="4.77877">
        <ele>304</ele>
        <time>2022-06-06T09:46:03.000Z</time>
      </trkpt>
      <trkpt lat="49.85418" lon="4.77881">
        <ele>304</ele>
        <time>2022-06-06T09:46:04.000Z</time>
      </trkpt>
      <trkpt lat="49.85413" lon="4.77886">
        <ele>304</ele>
        <time>2022-06-06T09:46:05.000Z</time>
      </trkpt>
      <trkpt lat="49.85408" lon="4.7789">
        <ele>304</ele>
        <time>2022-06-06T09:46:06.000Z</time>
      </trkpt>
      <trkpt lat="49.85402" lon="4.77895">
        <ele>303</ele>
        <time>2022-06-06T09:46:07.000Z</time>
      </trkpt>
      <trkpt lat="49.85396" lon="4.77899">
        <ele>303</ele>
        <time>2022-06-06T09:46:08.000Z</time>
      </trkpt>
      <trkpt lat="49.85391" lon="4.77902">
        <ele>303</ele>
        <time>2022-06-06T09:46:09.000Z</time>
      </trkpt>
      <trkpt lat="49.85386" lon="4.77905">
        <ele>302</ele>
        <time>2022-06-06T09:46:10.000Z</time>
      </trkpt>
      <trkpt lat="49.85381" lon="4.77909">
        <ele>302</ele>
        <time>2022-06-06T09:46:11.000Z</time>
      </trkpt>
      <trkpt lat="49.85376" lon="4.77911">
        <ele>301</ele>
        <time>2022-06-06T09:46:12.000Z</time>
      </trkpt>
      <trkpt lat="49.85372" lon="4.77915">
        <ele>301</ele>
        <time>2022-06-06T09:46:13.000Z</time>
      </trkpt>
      <trkpt lat="49.85368" lon="4.77918">
        <ele>300</ele>
        <time>2022-06-06T09:46:14.000Z</time>
      </trkpt>
      <trkpt lat="49.85364" lon="4.77921">
        <ele>300</ele>
        <time>2022-06-06T09:46:15.000Z</time>
      </trkpt>
      <trkpt lat="49.8536" lon="4.77924">
        <ele>300</ele>
        <time>2022-06-06T09:46:16.000Z</time>
      </trkpt>
      <trkpt lat="49.85356" lon="4.77926">
        <ele>299</ele>
        <time>2022-06-06T09:46:17.000Z</time>
      </trkpt>
      <trkpt lat="49.85354" lon="4.77928">
        <ele>299</ele>
        <time>2022-06-06T09:46:18.000Z</time>
      </trkpt>
      <trkpt lat="49.85352" lon="4.77928">
        <ele>299</ele>
        <time>2022-06-06T09:46:19.000Z</time>
      </trkpt>
      <trkpt lat="49.8535" lon="4.77929">
        <ele>298</ele>
        <time>2022-06-06T09:46:20.000Z</time>
      </trkpt>
      <trkpt lat="49.85349" lon="4.77929">
        <ele>298</ele>
        <time>2022-06-06T09:46:21.000Z</time>
      </trkpt>
      <trkpt lat="49.85348" lon="4.7793">
        <ele>298</ele>
        <time>2022-06-06T09:46:22.000Z</time>
      </trkpt>
      <trkpt lat="49.85347" lon="4.77931">
        <ele>297</ele>
        <time>2022-06-06T09:46:23.000Z</time>
      </trkpt>
      <trkpt lat="49.85346" lon="4.77931">
        <ele>297</ele>
        <time>2022-06-06T09:46:24.000Z</time>
      </trkpt>
      <trkpt lat="49.85345" lon="4.77932">
        <ele>296</ele>
        <time>2022-06-06T09:46:25.000Z</time>
      </trkpt>
      <trkpt lat="49.85343" lon="4.77933">
        <ele>296</ele>
        <time>2022-06-06T09:46:26.000Z</time>
      </trkpt>
      <trkpt lat="49.85342" lon="4.77935">
        <ele>296</ele>
        <time>2022-06-06T09:46:27.000Z</time>
      </trkpt>
      <trkpt lat="49.85339" lon="4.77936">
        <ele>296</ele>
        <time>2022-06-06T09:46:28.000Z</time>
      </trkpt>
      <trkpt lat="49.85337" lon="4.77937">
        <ele>295</ele>
        <time>2022-06-06T09:46:29.000Z</time>
      </trkpt>
      <trkpt lat="49.85335" lon="4.7794">
        <ele>295</ele>
        <time>2022-06-06T09:46:30.000Z</time>
      </trkpt>
      <trkpt lat="49.85333" lon="4.77943">
        <ele>295</ele>
        <time>2022-06-06T09:46:31.000Z</time>
      </trkpt>
      <trkpt lat="49.85332" lon="4.77945">
        <ele>295</ele>
        <time>2022-06-06T09:46:32.000Z</time>
      </trkpt>
      <trkpt lat="49.85331" lon="4.77948">
        <ele>295</ele>
        <time>2022-06-06T09:46:33.000Z</time>
      </trkpt>
      <trkpt lat="49.8533" lon="4.77949">
        <ele>295</ele>
        <time>2022-06-06T09:46:34.000Z</time>
      </trkpt>
      <trkpt lat="49.85329" lon="4.77951">
        <ele>295</ele>
        <time>2022-06-06T09:46:35.000Z</time>
      </trkpt>
      <trkpt lat="49.85329" lon="4.77953">
        <ele>294</ele>
        <time>2022-06-06T09:46:36.000Z</time>
      </trkpt>
      <trkpt lat="49.85329" lon="4.77955">
        <ele>294</ele>
        <time>2022-06-06T09:46:37.000Z</time>
      </trkpt>
      <trkpt lat="49.85329" lon="4.77957">
        <ele>294</ele>
        <time>2022-06-06T09:46:38.000Z</time>
      </trkpt>
      <trkpt lat="49.85329" lon="4.77959">
        <ele>294</ele>
        <time>2022-06-06T09:46:39.000Z</time>
      </trkpt>
      <trkpt lat="49.8533" lon="4.77962">
        <ele>294</ele>
        <time>2022-06-06T09:46:40.000Z</time>
      </trkpt>
      <trkpt lat="49.8533" lon="4.77964">
        <ele>293</ele>
        <time>2022-06-06T09:46:41.000Z</time>
      </trkpt>
      <trkpt lat="49.85331" lon="4.77965">
        <ele>293</ele>
        <time>2022-06-06T09:46:42.000Z</time>
      </trkpt>
      <trkpt lat="49.85331" lon="4.77967">
        <ele>293</ele>
        <time>2022-06-06T09:46:43.000Z</time>
      </trkpt>
      <trkpt lat="49.85331" lon="4.77968">
        <ele>293</ele>
        <time>2022-06-06T09:46:44.000Z</time>
      </trkpt>
      <trkpt lat="49.85331" lon="4.77969">
        <ele>292</ele>
        <time>2022-06-06T09:46:45.000Z</time>
      </trkpt>
      <trkpt lat="49.85331" lon="4.77971">
        <ele>292</ele>
        <time>2022-06-06T09:46:46.000Z</time>
      </trkpt>
      <trkpt lat="49.85332" lon="4.77974">
        <ele>292</ele>
        <time>2022-06-06T09:46:47.000Z</time>
      </trkpt>
      <trkpt lat="49.85332" lon="4.77976">
        <ele>292</ele>
        <time>2022-06-06T09:46:48.000Z</time>
      </trkpt>
      <trkpt lat="49.85333" lon="4.77978">
        <ele>292</ele>
        <time>2022-06-06T09:46:49.000Z</time>
      </trkpt>
      <trkpt lat="49.85333" lon="4.77979">
        <ele>291</ele>
        <time>2022-06-06T09:46:50.000Z</time>
      </trkpt>
      <trkpt lat="49.85333" lon="4.7798">
        <ele>291</ele>
        <time>2022-06-06T09:46:51.000Z</time>
      </trkpt>
      <trkpt lat="49.85334" lon="4.77982">
        <ele>291</ele>
        <time>2022-06-06T09:46:52.000Z</time>
      </trkpt>
      <trkpt lat="49.85334" lon="4.77983">
        <ele>291</ele>
        <time>2022-06-06T09:46:53.000Z</time>
      </trkpt>
      <trkpt lat="49.85335" lon="4.77985">
        <ele>291</ele>
        <time>2022-06-06T09:46:54.000Z</time>
      </trkpt>
      <trkpt lat="49.85336" lon="4.77987">
        <ele>290</ele>
        <time>2022-06-06T09:46:55.000Z</time>
      </trkpt>
      <trkpt lat="49.85336" lon="4.77989">
        <ele>290</ele>
        <time>2022-06-06T09:46:56.000Z</time>
      </trkpt>
      <trkpt lat="49.85336" lon="4.7799">
        <ele>290</ele>
        <time>2022-06-06T09:46:57.000Z</time>
      </trkpt>
      <trkpt lat="49.85337" lon="4.77992">
        <ele>290</ele>
        <time>2022-06-06T09:46:58.000Z</time>
      </trkpt>
      <trkpt lat="49.85337" lon="4.77994">
        <ele>290</ele>
        <time>2022-06-06T09:46:59.000Z</time>
      </trkpt>
      <trkpt lat="49.85338" lon="4.77996">
        <ele>290</ele>
        <time>2022-06-06T09:47:00.000Z</time>
      </trkpt>
      <trkpt lat="49.85339" lon="4.77997">
        <ele>290</ele>
        <time>2022-06-06T09:47:01.000Z</time>
      </trkpt>
      <trkpt lat="49.85339" lon="4.77999">
        <ele>290</ele>
        <time>2022-06-06T09:47:02.000Z</time>
      </trkpt>
      <trkpt lat="49.8534" lon="4.78001">
        <ele>289</ele>
        <time>2022-06-06T09:47:03.000Z</time>
      </trkpt>
      <trkpt lat="49.8534" lon="4.78003">
        <ele>289</ele>
        <time>2022-06-06T09:47:04.000Z</time>
      </trkpt>
      <trkpt lat="49.85341" lon="4.78005">
        <ele>289</ele>
        <time>2022-06-06T09:47:05.000Z</time>
      </trkpt>
      <trkpt lat="49.85342" lon="4.78007">
        <ele>289</ele>
        <time>2022-06-06T09:47:06.000Z</time>
      </trkpt>
      <trkpt lat="49.85342" lon="4.78008">
        <ele>289</ele>
        <time>2022-06-06T09:47:07.000Z</time>
      </trkpt>
      <trkpt lat="49.85343" lon="4.78009">
        <ele>289</ele>
        <time>2022-06-06T09:47:08.000Z</time>
      </trkpt>
      <trkpt lat="49.85344" lon="4.7801">
        <ele>289</ele>
        <time>2022-06-06T09:47:09.000Z</time>
      </trkpt>
      <trkpt lat="49.85344" lon="4.78012">
        <ele>289</ele>
        <time>2022-06-06T09:47:10.000Z</time>
      </trkpt>
      <trkpt lat="49.85344" lon="4.78013">
        <ele>289</ele>
        <time>2022-06-06T09:47:11.000Z</time>
      </trkpt>
      <trkpt lat="49.85345" lon="4.78015">
        <ele>289</ele>
        <time>2022-06-06T09:47:12.000Z</time>
      </trkpt>
      <trkpt lat="49.85345" lon="4.78016">
        <ele>290</ele>
        <time>2022-06-06T09:47:13.000Z</time>
      </trkpt>
      <trkpt lat="49.85346" lon="4.78017">
        <ele>290</ele>
        <time>2022-06-06T09:47:14.000Z</time>
      </trkpt>
      <trkpt lat="49.85346" lon="4.78019">
        <ele>290</ele>
        <time>2022-06-06T09:47:15.000Z</time>
      </trkpt>
      <trkpt lat="49.85347" lon="4.7802">
        <ele>290</ele>
        <time>2022-06-06T09:47:16.000Z</time>
      </trkpt>
      <trkpt lat="49.85347" lon="4.78022">
        <ele>290</ele>
        <time>2022-06-06T09:47:17.000Z</time>
      </trkpt>
      <trkpt lat="49.85348" lon="4.78023">
        <ele>290</ele>
        <time>2022-06-06T09:47:18.000Z</time>
      </trkpt>
      <trkpt lat="49.85348" lon="4.78024">
        <ele>290</ele>
        <time>2022-06-06T09:47:19.000Z</time>
      </trkpt>
      <trkpt lat="49.85349" lon="4.78024">
        <ele>290</ele>
        <time>2022-06-06T09:47:20.000Z</time>
      </trkpt>
      <trkpt lat="49.85349" lon="4.78025">
        <ele>290</ele>
        <time>2022-06-06T09:47:21.000Z</time>
      </trkpt>
      <trkpt lat="49.8535" lon="4.78026">
        <ele>290</ele>
        <time>2022-06-06T09:47:22.000Z</time>
      </trkpt>
      <trkpt lat="49.8535" lon="4.78028">
        <ele>290</ele>
        <time>2022-06-06T09:47:23.000Z</time>
      </trkpt>
      <trkpt lat="49.85351" lon="4.7803">
        <ele>290</ele>
        <time>2022-06-06T09:47:24.000Z</time>
      </trkpt>
      <trkpt lat="49.85352" lon="4.78033">
        <ele>291</ele>
        <time>2022-06-06T09:47:25.000Z</time>
      </trkpt>
      <trkpt lat="49.85353" lon="4.78035">
        <ele>291</ele>
        <time>2022-06-06T09:47:26.000Z</time>
      </trkpt>
      <trkpt lat="49.85354" lon="4.78037">
        <ele>291</ele>
        <time>2022-06-06T09:47:27.000Z</time>
      </trkpt>
      <trkpt lat="49.85354" lon="4.78039">
        <ele>291</ele>
        <time>2022-06-06T09:47:28.000Z</time>
      </trkpt>
      <trkpt lat="49.85355" lon="4.78041">
        <ele>291</ele>
        <time>2022-06-06T09:47:29.000Z</time>
      </trkpt>
      <trkpt lat="49.85355" lon="4.78042">
        <ele>291</ele>
        <time>2022-06-06T09:47:30.000Z</time>
      </trkpt>
      <trkpt lat="49.85356" lon="4.78045">
        <ele>291</ele>
        <time>2022-06-06T09:47:31.000Z</time>
      </trkpt>
      <trkpt lat="49.85356" lon="4.78047">
        <ele>291</ele>
        <time>2022-06-06T09:47:32.000Z</time>
      </trkpt>
      <trkpt lat="49.85357" lon="4.78049">
        <ele>291</ele>
        <time>2022-06-06T09:47:33.000Z</time>
      </trkpt>
      <trkpt lat="49.85357" lon="4.78051">
        <ele>291</ele>
        <time>2022-06-06T09:47:34.000Z</time>
      </trkpt>
      <trkpt lat="49.85357" lon="4.78053">
        <ele>291</ele>
        <time>2022-06-06T09:47:35.000Z</time>
      </trkpt>
      <trkpt lat="49.85357" lon="4.78056">
        <ele>292</ele>
        <time>2022-06-06T09:47:36.000Z</time>
      </trkpt>
      <trkpt lat="49.85358" lon="4.78058">
        <ele>292</ele>
        <time>2022-06-06T09:47:37.000Z</time>
      </trkpt>
      <trkpt lat="49.85359" lon="4.7806">
        <ele>292</ele>
        <time>2022-06-06T09:47:38.000Z</time>
      </trkpt>
      <trkpt lat="49.8536" lon="4.78062">
        <ele>292</ele>
        <time>2022-06-06T09:47:39.000Z</time>
      </trkpt>
      <trkpt lat="49.85361" lon="4.78064">
        <ele>292</ele>
        <time>2022-06-06T09:47:40.000Z</time>
      </trkpt>
      <trkpt lat="49.85362" lon="4.78067">
        <ele>292</ele>
        <time>2022-06-06T09:47:41.000Z</time>
      </trkpt>
      <trkpt lat="49.85363" lon="4.7807">
        <ele>293</ele>
        <time>2022-06-06T09:47:42.000Z</time>
      </trkpt>
      <trkpt lat="49.85364" lon="4.78073">
        <ele>293</ele>
        <time>2022-06-06T09:47:43.000Z</time>
      </trkpt>
      <trkpt lat="49.85366" lon="4.78076">
        <ele>293</ele>
        <time>2022-06-06T09:47:44.000Z</time>
      </trkpt>
      <trkpt lat="49.85366" lon="4.78078">
        <ele>293</ele>
        <time>2022-06-06T09:47:45.000Z</time>
      </trkpt>
      <trkpt lat="49.85368" lon="4.7808">
        <ele>293</ele>
        <time>2022-06-06T09:47:46.000Z</time>
      </trkpt>
      <trkpt lat="49.85368" lon="4.78083">
        <ele>294</ele>
        <time>2022-06-06T09:47:47.000Z</time>
      </trkpt>
      <trkpt lat="49.8537" lon="4.78085">
        <ele>294</ele>
        <time>2022-06-06T09:47:48.000Z</time>
      </trkpt>
      <trkpt lat="49.85371" lon="4.78087">
        <ele>294</ele>
        <time>2022-06-06T09:47:49.000Z</time>
      </trkpt>
      <trkpt lat="49.85372" lon="4.7809">
        <ele>294</ele>
        <time>2022-06-06T09:47:50.000Z</time>
      </trkpt>
      <trkpt lat="49.85372" lon="4.78092">
        <ele>294</ele>
        <time>2022-06-06T09:47:51.000Z</time>
      </trkpt>
      <trkpt lat="49.85373" lon="4.78094">
        <ele>294</ele>
        <time>2022-06-06T09:47:52.000Z</time>
      </trkpt>
      <trkpt lat="49.85373" lon="4.78096">
        <ele>294</ele>
        <time>2022-06-06T09:47:53.000Z</time>
      </trkpt>
      <trkpt lat="49.85373" lon="4.78099">
        <ele>295</ele>
        <time>2022-06-06T09:47:54.000Z</time>
      </trkpt>
      <trkpt lat="49.85374" lon="4.78101">
        <ele>295</ele>
        <time>2022-06-06T09:47:55.000Z</time>
      </trkpt>
      <trkpt lat="49.85374" lon="4.78103">
        <ele>295</ele>
        <time>2022-06-06T09:47:56.000Z</time>
      </trkpt>
      <trkpt lat="49.85375" lon="4.78105">
        <ele>295</ele>
        <time>2022-06-06T09:47:57.000Z</time>
      </trkpt>
      <trkpt lat="49.85376" lon="4.78108">
        <ele>296</ele>
        <time>2022-06-06T09:47:58.000Z</time>
      </trkpt>
      <trkpt lat="49.85377" lon="4.78111">
        <ele>296</ele>
        <time>2022-06-06T09:47:59.000Z</time>
      </trkpt>
      <trkpt lat="49.85378" lon="4.78113">
        <ele>296</ele>
        <time>2022-06-06T09:48:00.000Z</time>
      </trkpt>
      <trkpt lat="49.85379" lon="4.78116">
        <ele>296</ele>
        <time>2022-06-06T09:48:01.000Z</time>
      </trkpt>
      <trkpt lat="49.8538" lon="4.78118">
        <ele>296</ele>
        <time>2022-06-06T09:48:02.000Z</time>
      </trkpt>
      <trkpt lat="49.85381" lon="4.7812">
        <ele>296</ele>
        <time>2022-06-06T09:48:03.000Z</time>
      </trkpt>
      <trkpt lat="49.85382" lon="4.78122">
        <ele>297</ele>
        <time>2022-06-06T09:48:04.000Z</time>
      </trkpt>
      <trkpt lat="49.85383" lon="4.78124">
        <ele>297</ele>
        <time>2022-06-06T09:48:05.000Z</time>
      </trkpt>
      <trkpt lat="49.85384" lon="4.78127">
        <ele>297</ele>
        <time>2022-06-06T09:48:06.000Z</time>
      </trkpt>
      <trkpt lat="49.85384" lon="4.78129">
        <ele>297</ele>
        <time>2022-06-06T09:48:07.000Z</time>
      </trkpt>
      <trkpt lat="49.85385" lon="4.78131">
        <ele>297</ele>
        <time>2022-06-06T09:48:08.000Z</time>
      </trkpt>
      <trkpt lat="49.85386" lon="4.78133">
        <ele>297</ele>
        <time>2022-06-06T09:48:09.000Z</time>
      </trkpt>
      <trkpt lat="49.85387" lon="4.78136">
        <ele>298</ele>
        <time>2022-06-06T09:48:10.000Z</time>
      </trkpt>
      <trkpt lat="49.85388" lon="4.78138">
        <ele>298</ele>
        <time>2022-06-06T09:48:11.000Z</time>
      </trkpt>
      <trkpt lat="49.85388" lon="4.7814">
        <ele>298</ele>
        <time>2022-06-06T09:48:12.000Z</time>
      </trkpt>
      <trkpt lat="49.85389" lon="4.78143">
        <ele>298</ele>
        <time>2022-06-06T09:48:13.000Z</time>
      </trkpt>
      <trkpt lat="49.85391" lon="4.78146">
        <ele>298</ele>
        <time>2022-06-06T09:48:14.000Z</time>
      </trkpt>
      <trkpt lat="49.85391" lon="4.78148">
        <ele>298</ele>
        <time>2022-06-06T09:48:15.000Z</time>
      </trkpt>
      <trkpt lat="49.85391" lon="4.78151">
        <ele>299</ele>
        <time>2022-06-06T09:48:16.000Z</time>
      </trkpt>
      <trkpt lat="49.85392" lon="4.78153">
        <ele>299</ele>
        <time>2022-06-06T09:48:17.000Z</time>
      </trkpt>
      <trkpt lat="49.85391" lon="4.78155">
        <ele>299</ele>
        <time>2022-06-06T09:48:18.000Z</time>
      </trkpt>
      <trkpt lat="49.8539" lon="4.78157">
        <ele>300</ele>
        <time>2022-06-06T09:48:19.000Z</time>
      </trkpt>
      <trkpt lat="49.85389" lon="4.78158">
        <ele>300</ele>
        <time>2022-06-06T09:48:20.000Z</time>
      </trkpt>
      <trkpt lat="49.85388" lon="4.78159">
        <ele>300</ele>
        <time>2022-06-06T09:48:21.000Z</time>
      </trkpt>
      <trkpt lat="49.85387" lon="4.7816">
        <ele>301</ele>
        <time>2022-06-06T09:48:22.000Z</time>
      </trkpt>
      <trkpt lat="49.85386" lon="4.78162">
        <ele>301</ele>
        <time>2022-06-06T09:48:23.000Z</time>
      </trkpt>
      <trkpt lat="49.85384" lon="4.78164">
        <ele>301</ele>
        <time>2022-06-06T09:48:24.000Z</time>
      </trkpt>
      <trkpt lat="49.85383" lon="4.78165">
        <ele>301</ele>
        <time>2022-06-06T09:48:25.000Z</time>
      </trkpt>
      <trkpt lat="49.85381" lon="4.78167">
        <ele>302</ele>
        <time>2022-06-06T09:48:26.000Z</time>
      </trkpt>
      <trkpt lat="49.85379" lon="4.78169">
        <ele>302</ele>
        <time>2022-06-06T09:48:27.000Z</time>
      </trkpt>
      <trkpt lat="49.85377" lon="4.78171">
        <ele>302</ele>
        <time>2022-06-06T09:48:28.000Z</time>
      </trkpt>
      <trkpt lat="49.85375" lon="4.78173">
        <ele>302</ele>
        <time>2022-06-06T09:48:29.000Z</time>
      </trkpt>
      <trkpt lat="49.85373" lon="4.78175">
        <ele>303</ele>
        <time>2022-06-06T09:48:30.000Z</time>
      </trkpt>
      <trkpt lat="49.85371" lon="4.78176">
        <ele>303</ele>
        <time>2022-06-06T09:48:31.000Z</time>
      </trkpt>
      <trkpt lat="49.85369" lon="4.78178">
        <ele>303</ele>
        <time>2022-06-06T09:48:32.000Z</time>
      </trkpt>
      <trkpt lat="49.85367" lon="4.7818">
        <ele>303</ele>
        <time>2022-06-06T09:48:33.000Z</time>
      </trkpt>
      <trkpt lat="49.85365" lon="4.78181">
        <ele>303</ele>
        <time>2022-06-06T09:48:34.000Z</time>
      </trkpt>
      <trkpt lat="49.85363" lon="4.78183">
        <ele>303</ele>
        <time>2022-06-06T09:48:35.000Z</time>
      </trkpt>
      <trkpt lat="49.85361" lon="4.78186">
        <ele>303</ele>
        <time>2022-06-06T09:48:36.000Z</time>
      </trkpt>
      <trkpt lat="49.85359" lon="4.78188">
        <ele>304</ele>
        <time>2022-06-06T09:48:37.000Z</time>
      </trkpt>
      <trkpt lat="49.85358" lon="4.78189">
        <ele>304</ele>
        <time>2022-06-06T09:48:38.000Z</time>
      </trkpt>
      <trkpt lat="49.85356" lon="4.78191">
        <ele>304</ele>
        <time>2022-06-06T09:48:39.000Z</time>
      </trkpt>
      <trkpt lat="49.85354" lon="4.78193">
        <ele>304</ele>
        <time>2022-06-06T09:48:40.000Z</time>
      </trkpt>
      <trkpt lat="49.85352" lon="4.78195">
        <ele>304</ele>
        <time>2022-06-06T09:48:41.000Z</time>
      </trkpt>
      <trkpt lat="49.85349" lon="4.78196">
        <ele>304</ele>
        <time>2022-06-06T09:48:42.000Z</time>
      </trkpt>
      <trkpt lat="49.85347" lon="4.78198">
        <ele>304</ele>
        <time>2022-06-06T09:48:43.000Z</time>
      </trkpt>
      <trkpt lat="49.85345" lon="4.78199">
        <ele>304</ele>
        <time>2022-06-06T09:48:44.000Z</time>
      </trkpt>
      <trkpt lat="49.85343" lon="4.78201">
        <ele>305</ele>
        <time>2022-06-06T09:48:45.000Z</time>
      </trkpt>
      <trkpt lat="49.85341" lon="4.78203">
        <ele>305</ele>
        <time>2022-06-06T09:48:46.000Z</time>
      </trkpt>
      <trkpt lat="49.85339" lon="4.78205">
        <ele>305</ele>
        <time>2022-06-06T09:48:47.000Z</time>
      </trkpt>
      <trkpt lat="49.85337" lon="4.78206">
        <ele>305</ele>
        <time>2022-06-06T09:48:48.000Z</time>
      </trkpt>
      <trkpt lat="49.85335" lon="4.78207">
        <ele>305</ele>
        <time>2022-06-06T09:48:49.000Z</time>
      </trkpt>
      <trkpt lat="49.85333" lon="4.78208">
        <ele>305</ele>
        <time>2022-06-06T09:48:50.000Z</time>
      </trkpt>
      <trkpt lat="49.85331" lon="4.7821">
        <ele>305</ele>
        <time>2022-06-06T09:48:51.000Z</time>
      </trkpt>
      <trkpt lat="49.8533" lon="4.78212">
        <ele>305</ele>
        <time>2022-06-06T09:48:52.000Z</time>
      </trkpt>
      <trkpt lat="49.85328" lon="4.78213">
        <ele>305</ele>
        <time>2022-06-06T09:48:53.000Z</time>
      </trkpt>
      <trkpt lat="49.85326" lon="4.78214">
        <ele>306</ele>
        <time>2022-06-06T09:48:54.000Z</time>
      </trkpt>
      <trkpt lat="49.85324" lon="4.78215">
        <ele>306</ele>
        <time>2022-06-06T09:48:55.000Z</time>
      </trkpt>
      <trkpt lat="49.85323" lon="4.78217">
        <ele>306</ele>
        <time>2022-06-06T09:48:56.000Z</time>
      </trkpt>
      <trkpt lat="49.85321" lon="4.78218">
        <ele>306</ele>
        <time>2022-06-06T09:48:57.000Z</time>
      </trkpt>
      <trkpt lat="49.85319" lon="4.78219">
        <ele>306</ele>
        <time>2022-06-06T09:48:58.000Z</time>
      </trkpt>
      <trkpt lat="49.85317" lon="4.7822">
        <ele>306</ele>
        <time>2022-06-06T09:48:59.000Z</time>
      </trkpt>
      <trkpt lat="49.85315" lon="4.78221">
        <ele>306</ele>
        <time>2022-06-06T09:49:00.000Z</time>
      </trkpt>
      <trkpt lat="49.85313" lon="4.78223">
        <ele>306</ele>
        <time>2022-06-06T09:49:01.000Z</time>
      </trkpt>
      <trkpt lat="49.85311" lon="4.78224">
        <ele>307</ele>
        <time>2022-06-06T09:49:02.000Z</time>
      </trkpt>
      <trkpt lat="49.85309" lon="4.78225">
        <ele>307</ele>
        <time>2022-06-06T09:49:03.000Z</time>
      </trkpt>
      <trkpt lat="49.85307" lon="4.78227">
        <ele>307</ele>
        <time>2022-06-06T09:49:04.000Z</time>
      </trkpt>
      <trkpt lat="49.85305" lon="4.78229">
        <ele>307</ele>
        <time>2022-06-06T09:49:05.000Z</time>
      </trkpt>
      <trkpt lat="49.85303" lon="4.7823">
        <ele>307</ele>
        <time>2022-06-06T09:49:06.000Z</time>
      </trkpt>
      <trkpt lat="49.85301" lon="4.78232">
        <ele>307</ele>
        <time>2022-06-06T09:49:07.000Z</time>
      </trkpt>
      <trkpt lat="49.85299" lon="4.78232">
        <ele>307</ele>
        <time>2022-06-06T09:49:08.000Z</time>
      </trkpt>
      <trkpt lat="49.85297" lon="4.78234">
        <ele>308</ele>
        <time>2022-06-06T09:49:09.000Z</time>
      </trkpt>
      <trkpt lat="49.85295" lon="4.78235">
        <ele>308</ele>
        <time>2022-06-06T09:49:10.000Z</time>
      </trkpt>
      <trkpt lat="49.85293" lon="4.78237">
        <ele>308</ele>
        <time>2022-06-06T09:49:11.000Z</time>
      </trkpt>
      <trkpt lat="49.85291" lon="4.78238">
        <ele>308</ele>
        <time>2022-06-06T09:49:12.000Z</time>
      </trkpt>
      <trkpt lat="49.8529" lon="4.78239">
        <ele>308</ele>
        <time>2022-06-06T09:49:13.000Z</time>
      </trkpt>
      <trkpt lat="49.85288" lon="4.78241">
        <ele>308</ele>
        <time>2022-06-06T09:49:14.000Z</time>
      </trkpt>
      <trkpt lat="49.85286" lon="4.78243">
        <ele>309</ele>
        <time>2022-06-06T09:49:15.000Z</time>
      </trkpt>
      <trkpt lat="49.85285" lon="4.78245">
        <ele>309</ele>
        <time>2022-06-06T09:49:16.000Z</time>
      </trkpt>
      <trkpt lat="49.85283" lon="4.78247">
        <ele>309</ele>
        <time>2022-06-06T09:49:17.000Z</time>
      </trkpt>
      <trkpt lat="49.85281" lon="4.78249">
        <ele>310</ele>
        <time>2022-06-06T09:49:18.000Z</time>
      </trkpt>
      <trkpt lat="49.85279" lon="4.78251">
        <ele>310</ele>
        <time>2022-06-06T09:49:19.000Z</time>
      </trkpt>
      <trkpt lat="49.85278" lon="4.78252">
        <ele>310</ele>
        <time>2022-06-06T09:49:20.000Z</time>
      </trkpt>
      <trkpt lat="49.85276" lon="4.78253">
        <ele>311</ele>
        <time>2022-06-06T09:49:21.000Z</time>
      </trkpt>
      <trkpt lat="49.85274" lon="4.78255">
        <ele>311</ele>
        <time>2022-06-06T09:49:22.000Z</time>
      </trkpt>
      <trkpt lat="49.85272" lon="4.78257">
        <ele>311</ele>
        <time>2022-06-06T09:49:23.000Z</time>
      </trkpt>
      <trkpt lat="49.85271" lon="4.78259">
        <ele>311</ele>
        <time>2022-06-06T09:49:24.000Z</time>
      </trkpt>
      <trkpt lat="49.8527" lon="4.78261">
        <ele>312</ele>
        <time>2022-06-06T09:49:25.000Z</time>
      </trkpt>
      <trkpt lat="49.85268" lon="4.78263">
        <ele>312</ele>
        <time>2022-06-06T09:49:26.000Z</time>
      </trkpt>
      <trkpt lat="49.85267" lon="4.78264">
        <ele>312</ele>
        <time>2022-06-06T09:49:27.000Z</time>
      </trkpt>
      <trkpt lat="49.85265" lon="4.78266">
        <ele>312</ele>
        <time>2022-06-06T09:49:28.000Z</time>
      </trkpt>
      <trkpt lat="49.85264" lon="4.78268">
        <ele>313</ele>
        <time>2022-06-06T09:49:29.000Z</time>
      </trkpt>
      <trkpt lat="49.85261" lon="4.78269">
        <ele>313</ele>
        <time>2022-06-06T09:49:30.000Z</time>
      </trkpt>
      <trkpt lat="49.8526" lon="4.78271">
        <ele>313</ele>
        <time>2022-06-06T09:49:31.000Z</time>
      </trkpt>
      <trkpt lat="49.85258" lon="4.78273">
        <ele>313</ele>
        <time>2022-06-06T09:49:32.000Z</time>
      </trkpt>
      <trkpt lat="49.85256" lon="4.78275">
        <ele>313</ele>
        <time>2022-06-06T09:49:33.000Z</time>
      </trkpt>
      <trkpt lat="49.85254" lon="4.78276">
        <ele>314</ele>
        <time>2022-06-06T09:49:34.000Z</time>
      </trkpt>
      <trkpt lat="49.85252" lon="4.78278">
        <ele>314</ele>
        <time>2022-06-06T09:49:35.000Z</time>
      </trkpt>
      <trkpt lat="49.8525" lon="4.7828">
        <ele>314</ele>
        <time>2022-06-06T09:49:36.000Z</time>
      </trkpt>
      <trkpt lat="49.85248" lon="4.78282">
        <ele>314</ele>
        <time>2022-06-06T09:49:37.000Z</time>
      </trkpt>
      <trkpt lat="49.85246" lon="4.78283">
        <ele>314</ele>
        <time>2022-06-06T09:49:38.000Z</time>
      </trkpt>
      <trkpt lat="49.85244" lon="4.78285">
        <ele>315</ele>
        <time>2022-06-06T09:49:39.000Z</time>
      </trkpt>
      <trkpt lat="49.85242" lon="4.78287">
        <ele>315</ele>
        <time>2022-06-06T09:49:40.000Z</time>
      </trkpt>
      <trkpt lat="49.8524" lon="4.78289">
        <ele>315</ele>
        <time>2022-06-06T09:49:41.000Z</time>
      </trkpt>
      <trkpt lat="49.85239" lon="4.78291">
        <ele>315</ele>
        <time>2022-06-06T09:49:42.000Z</time>
      </trkpt>
      <trkpt lat="49.85237" lon="4.78293">
        <ele>315</ele>
        <time>2022-06-06T09:49:43.000Z</time>
      </trkpt>
      <trkpt lat="49.85235" lon="4.78295">
        <ele>316</ele>
        <time>2022-06-06T09:49:44.000Z</time>
      </trkpt>
      <trkpt lat="49.85233" lon="4.78297">
        <ele>316</ele>
        <time>2022-06-06T09:49:45.000Z</time>
      </trkpt>
      <trkpt lat="49.85231" lon="4.78298">
        <ele>316</ele>
        <time>2022-06-06T09:49:46.000Z</time>
      </trkpt>
      <trkpt lat="49.85228" lon="4.783">
        <ele>316</ele>
        <time>2022-06-06T09:49:47.000Z</time>
      </trkpt>
      <trkpt lat="49.85226" lon="4.78301">
        <ele>317</ele>
        <time>2022-06-06T09:49:48.000Z</time>
      </trkpt>
      <trkpt lat="49.85223" lon="4.78302">
        <ele>317</ele>
        <time>2022-06-06T09:49:49.000Z</time>
      </trkpt>
      <trkpt lat="49.85221" lon="4.78304">
        <ele>317</ele>
        <time>2022-06-06T09:49:50.000Z</time>
      </trkpt>
      <trkpt lat="49.85218" lon="4.78305">
        <ele>317</ele>
        <time>2022-06-06T09:49:51.000Z</time>
      </trkpt>
      <trkpt lat="49.85216" lon="4.78306">
        <ele>317</ele>
        <time>2022-06-06T09:49:52.000Z</time>
      </trkpt>
      <trkpt lat="49.85213" lon="4.78308">
        <ele>317</ele>
        <time>2022-06-06T09:49:53.000Z</time>
      </trkpt>
      <trkpt lat="49.85211" lon="4.7831">
        <ele>318</ele>
        <time>2022-06-06T09:49:54.000Z</time>
      </trkpt>
      <trkpt lat="49.85209" lon="4.78312">
        <ele>318</ele>
        <time>2022-06-06T09:49:55.000Z</time>
      </trkpt>
      <trkpt lat="49.85207" lon="4.78314">
        <ele>318</ele>
        <time>2022-06-06T09:49:56.000Z</time>
      </trkpt>
      <trkpt lat="49.85205" lon="4.78316">
        <ele>318</ele>
        <time>2022-06-06T09:49:57.000Z</time>
      </trkpt>
      <trkpt lat="49.85202" lon="4.78319">
        <ele>318</ele>
        <time>2022-06-06T09:49:58.000Z</time>
      </trkpt>
      <trkpt lat="49.85199" lon="4.7832">
        <ele>318</ele>
        <time>2022-06-06T09:49:59.000Z</time>
      </trkpt>
      <trkpt lat="49.85196" lon="4.78322">
        <ele>318</ele>
        <time>2022-06-06T09:50:00.000Z</time>
      </trkpt>
      <trkpt lat="49.85193" lon="4.78323">
        <ele>318</ele>
        <time>2022-06-06T09:50:01.000Z</time>
      </trkpt>
      <trkpt lat="49.8519" lon="4.78325">
        <ele>318</ele>
        <time>2022-06-06T09:50:02.000Z</time>
      </trkpt>
      <trkpt lat="49.85188" lon="4.78327">
        <ele>318</ele>
        <time>2022-06-06T09:50:03.000Z</time>
      </trkpt>
      <trkpt lat="49.85185" lon="4.78329">
        <ele>318</ele>
        <time>2022-06-06T09:50:04.000Z</time>
      </trkpt>
      <trkpt lat="49.85183" lon="4.78331">
        <ele>318</ele>
        <time>2022-06-06T09:50:05.000Z</time>
      </trkpt>
      <trkpt lat="49.8518" lon="4.78332">
        <ele>318</ele>
        <time>2022-06-06T09:50:06.000Z</time>
      </trkpt>
      <trkpt lat="49.85177" lon="4.78334">
        <ele>318</ele>
        <time>2022-06-06T09:50:07.000Z</time>
      </trkpt>
      <trkpt lat="49.85174" lon="4.78337">
        <ele>318</ele>
        <time>2022-06-06T09:50:08.000Z</time>
      </trkpt>
      <trkpt lat="49.8517" lon="4.7834">
        <ele>318</ele>
        <time>2022-06-06T09:50:09.000Z</time>
      </trkpt>
      <trkpt lat="49.85167" lon="4.78343">
        <ele>318</ele>
        <time>2022-06-06T09:50:10.000Z</time>
      </trkpt>
      <trkpt lat="49.85163" lon="4.78347">
        <ele>318</ele>
        <time>2022-06-06T09:50:11.000Z</time>
      </trkpt>
      <trkpt lat="49.8516" lon="4.7835">
        <ele>318</ele>
        <time>2022-06-06T09:50:12.000Z</time>
      </trkpt>
      <trkpt lat="49.85157" lon="4.78353">
        <ele>318</ele>
        <time>2022-06-06T09:50:13.000Z</time>
      </trkpt>
      <trkpt lat="49.85153" lon="4.78356">
        <ele>318</ele>
        <time>2022-06-06T09:50:14.000Z</time>
      </trkpt>
      <trkpt lat="49.85149" lon="4.78359">
        <ele>318</ele>
        <time>2022-06-06T09:50:15.000Z</time>
      </trkpt>
      <trkpt lat="49.85145" lon="4.78363">
        <ele>318</ele>
        <time>2022-06-06T09:50:16.000Z</time>
      </trkpt>
      <trkpt lat="49.85141" lon="4.78365">
        <ele>318</ele>
        <time>2022-06-06T09:50:17.000Z</time>
      </trkpt>
      <trkpt lat="49.85138" lon="4.78368">
        <ele>318</ele>
        <time>2022-06-06T09:50:18.000Z</time>
      </trkpt>
      <trkpt lat="49.85135" lon="4.7837">
        <ele>318</ele>
        <time>2022-06-06T09:50:19.000Z</time>
      </trkpt>
      <trkpt lat="49.85134" lon="4.78371">
        <ele>318</ele>
        <time>2022-06-06T09:50:20.000Z</time>
      </trkpt>
      <trkpt lat="49.85132" lon="4.78372">
        <ele>318</ele>
        <time>2022-06-06T09:50:21.000Z</time>
      </trkpt>
      <trkpt lat="49.85131" lon="4.78374">
        <ele>318</ele>
        <time>2022-06-06T09:50:22.000Z</time>
      </trkpt>
      <trkpt lat="49.85129" lon="4.78376">
        <ele>319</ele>
        <time>2022-06-06T09:50:23.000Z</time>
      </trkpt>
      <trkpt lat="49.85126" lon="4.78377">
        <ele>319</ele>
        <time>2022-06-06T09:50:24.000Z</time>
      </trkpt>
      <trkpt lat="49.85124" lon="4.7838">
        <ele>319</ele>
        <time>2022-06-06T09:50:25.000Z</time>
      </trkpt>
      <trkpt lat="49.85121" lon="4.78382">
        <ele>319</ele>
        <time>2022-06-06T09:50:26.000Z</time>
      </trkpt>
      <trkpt lat="49.85118" lon="4.78385">
        <ele>319</ele>
        <time>2022-06-06T09:50:27.000Z</time>
      </trkpt>
      <trkpt lat="49.85115" lon="4.78387">
        <ele>319</ele>
        <time>2022-06-06T09:50:28.000Z</time>
      </trkpt>
      <trkpt lat="49.85112" lon="4.78389">
        <ele>319</ele>
        <time>2022-06-06T09:50:29.000Z</time>
      </trkpt>
      <trkpt lat="49.8511" lon="4.78391">
        <ele>319</ele>
        <time>2022-06-06T09:50:30.000Z</time>
      </trkpt>
      <trkpt lat="49.85107" lon="4.78393">
        <ele>320</ele>
        <time>2022-06-06T09:50:31.000Z</time>
      </trkpt>
      <trkpt lat="49.85105" lon="4.78395">
        <ele>320</ele>
        <time>2022-06-06T09:50:32.000Z</time>
      </trkpt>
      <trkpt lat="49.85103" lon="4.78397">
        <ele>320</ele>
        <time>2022-06-06T09:50:33.000Z</time>
      </trkpt>
      <trkpt lat="49.85101" lon="4.78398">
        <ele>321</ele>
        <time>2022-06-06T09:50:34.000Z</time>
      </trkpt>
      <trkpt lat="49.85098" lon="4.78399">
        <ele>321</ele>
        <time>2022-06-06T09:50:35.000Z</time>
      </trkpt>
      <trkpt lat="49.85095" lon="4.784">
        <ele>321</ele>
        <time>2022-06-06T09:50:36.000Z</time>
      </trkpt>
      <trkpt lat="49.85093" lon="4.78402">
        <ele>321</ele>
        <time>2022-06-06T09:50:37.000Z</time>
      </trkpt>
      <trkpt lat="49.8509" lon="4.78404">
        <ele>321</ele>
        <time>2022-06-06T09:50:38.000Z</time>
      </trkpt>
      <trkpt lat="49.85087" lon="4.78406">
        <ele>321</ele>
        <time>2022-06-06T09:50:39.000Z</time>
      </trkpt>
      <trkpt lat="49.85083" lon="4.78409">
        <ele>321</ele>
        <time>2022-06-06T09:50:40.000Z</time>
      </trkpt>
      <trkpt lat="49.8508" lon="4.78411">
        <ele>321</ele>
        <time>2022-06-06T09:50:41.000Z</time>
      </trkpt>
      <trkpt lat="49.85077" lon="4.78414">
        <ele>321</ele>
        <time>2022-06-06T09:50:42.000Z</time>
      </trkpt>
      <trkpt lat="49.85075" lon="4.78416">
        <ele>321</ele>
        <time>2022-06-06T09:50:43.000Z</time>
      </trkpt>
      <trkpt lat="49.85072" lon="4.78419">
        <ele>322</ele>
        <time>2022-06-06T09:50:44.000Z</time>
      </trkpt>
      <trkpt lat="49.85069" lon="4.78421">
        <ele>322</ele>
        <time>2022-06-06T09:50:45.000Z</time>
      </trkpt>
      <trkpt lat="49.85066" lon="4.78423">
        <ele>322</ele>
        <time>2022-06-06T09:50:46.000Z</time>
      </trkpt>
      <trkpt lat="49.85064" lon="4.78425">
        <ele>322</ele>
        <time>2022-06-06T09:50:47.000Z</time>
      </trkpt>
      <trkpt lat="49.85062" lon="4.78427">
        <ele>322</ele>
        <time>2022-06-06T09:50:48.000Z</time>
      </trkpt>
      <trkpt lat="49.85059" lon="4.7843">
        <ele>322</ele>
        <time>2022-06-06T09:50:49.000Z</time>
      </trkpt>
      <trkpt lat="49.85056" lon="4.78432">
        <ele>322</ele>
        <time>2022-06-06T09:50:50.000Z</time>
      </trkpt>
      <trkpt lat="49.85053" lon="4.78434">
        <ele>322</ele>
        <time>2022-06-06T09:50:51.000Z</time>
      </trkpt>
      <trkpt lat="49.8505" lon="4.78436">
        <ele>322</ele>
        <time>2022-06-06T09:50:52.000Z</time>
      </trkpt>
      <trkpt lat="49.85047" lon="4.78439">
        <ele>322</ele>
        <time>2022-06-06T09:50:53.000Z</time>
      </trkpt>
      <trkpt lat="49.85044" lon="4.78442">
        <ele>322</ele>
        <time>2022-06-06T09:50:54.000Z</time>
      </trkpt>
      <trkpt lat="49.85041" lon="4.78445">
        <ele>322</ele>
        <time>2022-06-06T09:50:55.000Z</time>
      </trkpt>
      <trkpt lat="49.85038" lon="4.78447">
        <ele>322</ele>
        <time>2022-06-06T09:50:56.000Z</time>
      </trkpt>
      <trkpt lat="49.85035" lon="4.7845">
        <ele>323</ele>
        <time>2022-06-06T09:50:57.000Z</time>
      </trkpt>
      <trkpt lat="49.85032" lon="4.78451">
        <ele>323</ele>
        <time>2022-06-06T09:50:58.000Z</time>
      </trkpt>
      <trkpt lat="49.85029" lon="4.78452">
        <ele>323</ele>
        <time>2022-06-06T09:50:59.000Z</time>
      </trkpt>
      <trkpt lat="49.85027" lon="4.78454">
        <ele>322</ele>
        <time>2022-06-06T09:51:00.000Z</time>
      </trkpt>
      <trkpt lat="49.85024" lon="4.78456">
        <ele>322</ele>
        <time>2022-06-06T09:51:01.000Z</time>
      </trkpt>
      <trkpt lat="49.85021" lon="4.78459">
        <ele>322</ele>
        <time>2022-06-06T09:51:02.000Z</time>
      </trkpt>
      <trkpt lat="49.85018" lon="4.78462">
        <ele>322</ele>
        <time>2022-06-06T09:51:03.000Z</time>
      </trkpt>
      <trkpt lat="49.85015" lon="4.78464">
        <ele>322</ele>
        <time>2022-06-06T09:51:04.000Z</time>
      </trkpt>
      <trkpt lat="49.85012" lon="4.78466">
        <ele>322</ele>
        <time>2022-06-06T09:51:05.000Z</time>
      </trkpt>
      <trkpt lat="49.8501" lon="4.78469">
        <ele>322</ele>
        <time>2022-06-06T09:51:06.000Z</time>
      </trkpt>
      <trkpt lat="49.85007" lon="4.78471">
        <ele>322</ele>
        <time>2022-06-06T09:51:07.000Z</time>
      </trkpt>
      <trkpt lat="49.85004" lon="4.78474">
        <ele>322</ele>
        <time>2022-06-06T09:51:08.000Z</time>
      </trkpt>
      <trkpt lat="49.85001" lon="4.78477">
        <ele>322</ele>
        <time>2022-06-06T09:51:09.000Z</time>
      </trkpt>
      <trkpt lat="49.84998" lon="4.78479">
        <ele>322</ele>
        <time>2022-06-06T09:51:10.000Z</time>
      </trkpt>
      <trkpt lat="49.84995" lon="4.78481">
        <ele>323</ele>
        <time>2022-06-06T09:51:11.000Z</time>
      </trkpt>
      <trkpt lat="49.84993" lon="4.78484">
        <ele>323</ele>
        <time>2022-06-06T09:51:12.000Z</time>
      </trkpt>
      <trkpt lat="49.84991" lon="4.78486">
        <ele>323</ele>
        <time>2022-06-06T09:51:13.000Z</time>
      </trkpt>
      <trkpt lat="49.84988" lon="4.78487">
        <ele>323</ele>
        <time>2022-06-06T09:51:14.000Z</time>
      </trkpt>
      <trkpt lat="49.84985" lon="4.78489">
        <ele>323</ele>
        <time>2022-06-06T09:51:15.000Z</time>
      </trkpt>
      <trkpt lat="49.84982" lon="4.78491">
        <ele>323</ele>
        <time>2022-06-06T09:51:16.000Z</time>
      </trkpt>
      <trkpt lat="49.84979" lon="4.78492">
        <ele>323</ele>
        <time>2022-06-06T09:51:17.000Z</time>
      </trkpt>
      <trkpt lat="49.84976" lon="4.78493">
        <ele>323</ele>
        <time>2022-06-06T09:51:18.000Z</time>
      </trkpt>
      <trkpt lat="49.84974" lon="4.78493">
        <ele>323</ele>
        <time>2022-06-06T09:51:19.000Z</time>
      </trkpt>
      <trkpt lat="49.84971" lon="4.78493">
        <ele>323</ele>
        <time>2022-06-06T09:51:20.000Z</time>
      </trkpt>
      <trkpt lat="49.84968" lon="4.78494">
        <ele>323</ele>
        <time>2022-06-06T09:51:21.000Z</time>
      </trkpt>
      <trkpt lat="49.84964" lon="4.78494">
        <ele>323</ele>
        <time>2022-06-06T09:51:22.000Z</time>
      </trkpt>
      <trkpt lat="49.84959" lon="4.78495">
        <ele>323</ele>
        <time>2022-06-06T09:51:23.000Z</time>
      </trkpt>
      <trkpt lat="49.84955" lon="4.78495">
        <ele>323</ele>
        <time>2022-06-06T09:51:24.000Z</time>
      </trkpt>
      <trkpt lat="49.84951" lon="4.78496">
        <ele>323</ele>
        <time>2022-06-06T09:51:25.000Z</time>
      </trkpt>
      <trkpt lat="49.84946" lon="4.78496">
        <ele>323</ele>
        <time>2022-06-06T09:51:26.000Z</time>
      </trkpt>
      <trkpt lat="49.84941" lon="4.78496">
        <ele>323</ele>
        <time>2022-06-06T09:51:27.000Z</time>
      </trkpt>
      <trkpt lat="49.84937" lon="4.78497">
        <ele>323</ele>
        <time>2022-06-06T09:51:28.000Z</time>
      </trkpt>
      <trkpt lat="49.84932" lon="4.78499">
        <ele>323</ele>
        <time>2022-06-06T09:51:29.000Z</time>
      </trkpt>
      <trkpt lat="49.84928" lon="4.78501">
        <ele>323</ele>
        <time>2022-06-06T09:51:30.000Z</time>
      </trkpt>
      <trkpt lat="49.84924" lon="4.78505">
        <ele>322</ele>
        <time>2022-06-06T09:51:31.000Z</time>
      </trkpt>
      <trkpt lat="49.8492" lon="4.7851">
        <ele>322</ele>
        <time>2022-06-06T09:51:32.000Z</time>
      </trkpt>
      <trkpt lat="49.84917" lon="4.78516">
        <ele>322</ele>
        <time>2022-06-06T09:51:33.000Z</time>
      </trkpt>
      <trkpt lat="49.84915" lon="4.78523">
        <ele>322</ele>
        <time>2022-06-06T09:51:34.000Z</time>
      </trkpt>
      <trkpt lat="49.84912" lon="4.78531">
        <ele>322</ele>
        <time>2022-06-06T09:51:35.000Z</time>
      </trkpt>
      <trkpt lat="49.8491" lon="4.78539">
        <ele>322</ele>
        <time>2022-06-06T09:51:36.000Z</time>
      </trkpt>
      <trkpt lat="49.84909" lon="4.78548">
        <ele>322</ele>
        <time>2022-06-06T09:51:37.000Z</time>
      </trkpt>
      <trkpt lat="49.84908" lon="4.78555">
        <ele>322</ele>
        <time>2022-06-06T09:51:38.000Z</time>
      </trkpt>
      <trkpt lat="49.84907" lon="4.78561">
        <ele>322</ele>
        <time>2022-06-06T09:51:39.000Z</time>
      </trkpt>
      <trkpt lat="49.84905" lon="4.78565">
        <ele>322</ele>
        <time>2022-06-06T09:51:40.000Z</time>
      </trkpt>
      <trkpt lat="49.84904" lon="4.7857">
        <ele>322</ele>
        <time>2022-06-06T09:51:41.000Z</time>
      </trkpt>
      <trkpt lat="49.84903" lon="4.78576">
        <ele>322</ele>
        <time>2022-06-06T09:51:42.000Z</time>
      </trkpt>
      <trkpt lat="49.84902" lon="4.78582">
        <ele>322</ele>
        <time>2022-06-06T09:51:43.000Z</time>
      </trkpt>
      <trkpt lat="49.84902" lon="4.78589">
        <ele>322</ele>
        <time>2022-06-06T09:51:44.000Z</time>
      </trkpt>
      <trkpt lat="49.84901" lon="4.78596">
        <ele>322</ele>
        <time>2022-06-06T09:51:45.000Z</time>
      </trkpt>
      <trkpt lat="49.84901" lon="4.78604">
        <ele>322</ele>
        <time>2022-06-06T09:51:46.000Z</time>
      </trkpt>
      <trkpt lat="49.84901" lon="4.78611">
        <ele>322</ele>
        <time>2022-06-06T09:51:47.000Z</time>
      </trkpt>
      <trkpt lat="49.84902" lon="4.78617">
        <ele>322</ele>
        <time>2022-06-06T09:51:48.000Z</time>
      </trkpt>
      <trkpt lat="49.84903" lon="4.78622">
        <ele>322</ele>
        <time>2022-06-06T09:51:49.000Z</time>
      </trkpt>
      <trkpt lat="49.84903" lon="4.78628">
        <ele>322</ele>
        <time>2022-06-06T09:51:50.000Z</time>
      </trkpt>
      <trkpt lat="49.84903" lon="4.78634">
        <ele>322</ele>
        <time>2022-06-06T09:51:51.000Z</time>
      </trkpt>
      <trkpt lat="49.84904" lon="4.78642">
        <ele>322</ele>
        <time>2022-06-06T09:51:52.000Z</time>
      </trkpt>
      <trkpt lat="49.84904" lon="4.78649">
        <ele>322</ele>
        <time>2022-06-06T09:51:53.000Z</time>
      </trkpt>
      <trkpt lat="49.84903" lon="4.78656">
        <ele>323</ele>
        <time>2022-06-06T09:51:54.000Z</time>
      </trkpt>
      <trkpt lat="49.84903" lon="4.78663">
        <ele>323</ele>
        <time>2022-06-06T09:51:55.000Z</time>
      </trkpt>
      <trkpt lat="49.84903" lon="4.7867">
        <ele>323</ele>
        <time>2022-06-06T09:51:56.000Z</time>
      </trkpt>
      <trkpt lat="49.84902" lon="4.78677">
        <ele>323</ele>
        <time>2022-06-06T09:51:57.000Z</time>
      </trkpt>
      <trkpt lat="49.84901" lon="4.78682">
        <ele>323</ele>
        <time>2022-06-06T09:51:58.000Z</time>
      </trkpt>
      <trkpt lat="49.849" lon="4.78687">
        <ele>323</ele>
        <time>2022-06-06T09:51:59.000Z</time>
      </trkpt>
      <trkpt lat="49.84899" lon="4.78692">
        <ele>324</ele>
        <time>2022-06-06T09:52:00.000Z</time>
      </trkpt>
      <trkpt lat="49.84899" lon="4.78698">
        <ele>324</ele>
        <time>2022-06-06T09:52:01.000Z</time>
      </trkpt>
      <trkpt lat="49.84898" lon="4.78703">
        <ele>324</ele>
        <time>2022-06-06T09:52:02.000Z</time>
      </trkpt>
      <trkpt lat="49.84897" lon="4.78708">
        <ele>324</ele>
        <time>2022-06-06T09:52:03.000Z</time>
      </trkpt>
      <trkpt lat="49.84896" lon="4.78713">
        <ele>324</ele>
        <time>2022-06-06T09:52:04.000Z</time>
      </trkpt>
      <trkpt lat="49.84895" lon="4.78717">
        <ele>324</ele>
        <time>2022-06-06T09:52:05.000Z</time>
      </trkpt>
      <trkpt lat="49.84894" lon="4.7872">
        <ele>325</ele>
        <time>2022-06-06T09:52:06.000Z</time>
      </trkpt>
      <trkpt lat="49.84893" lon="4.78722">
        <ele>325</ele>
        <time>2022-06-06T09:52:07.000Z</time>
      </trkpt>
      <trkpt lat="49.84892" lon="4.78724">
        <ele>325</ele>
        <time>2022-06-06T09:52:08.000Z</time>
      </trkpt>
      <trkpt lat="49.84891" lon="4.78726">
        <ele>325</ele>
        <time>2022-06-06T09:52:09.000Z</time>
      </trkpt>
      <trkpt lat="49.84889" lon="4.78728">
        <ele>326</ele>
        <time>2022-06-06T09:52:10.000Z</time>
      </trkpt>
      <trkpt lat="49.84888" lon="4.78731">
        <ele>326</ele>
        <time>2022-06-06T09:52:11.000Z</time>
      </trkpt>
      <trkpt lat="49.84886" lon="4.78735">
        <ele>326</ele>
        <time>2022-06-06T09:52:12.000Z</time>
      </trkpt>
      <trkpt lat="49.84884" lon="4.78739">
        <ele>326</ele>
        <time>2022-06-06T09:52:13.000Z</time>
      </trkpt>
      <trkpt lat="49.84882" lon="4.78743">
        <ele>326</ele>
        <time>2022-06-06T09:52:14.000Z</time>
      </trkpt>
      <trkpt lat="49.8488" lon="4.78748">
        <ele>326</ele>
        <time>2022-06-06T09:52:15.000Z</time>
      </trkpt>
      <trkpt lat="49.84877" lon="4.78754">
        <ele>326</ele>
        <time>2022-06-06T09:52:16.000Z</time>
      </trkpt>
      <trkpt lat="49.84874" lon="4.78759">
        <ele>326</ele>
        <time>2022-06-06T09:52:17.000Z</time>
      </trkpt>
      <trkpt lat="49.84872" lon="4.78765">
        <ele>326</ele>
        <time>2022-06-06T09:52:18.000Z</time>
      </trkpt>
      <trkpt lat="49.84869" lon="4.78771">
        <ele>327</ele>
        <time>2022-06-06T09:52:19.000Z</time>
      </trkpt>
      <trkpt lat="49.84866" lon="4.78777">
        <ele>327</ele>
        <time>2022-06-06T09:52:20.000Z</time>
      </trkpt>
      <trkpt lat="49.84864" lon="4.78783">
        <ele>327</ele>
        <time>2022-06-06T09:52:21.000Z</time>
      </trkpt>
      <trkpt lat="49.84862" lon="4.78788">
        <ele>327</ele>
        <time>2022-06-06T09:52:22.000Z</time>
      </trkpt>
      <trkpt lat="49.84859" lon="4.78793">
        <ele>327</ele>
        <time>2022-06-06T09:52:23.000Z</time>
      </trkpt>
      <trkpt lat="49.84857" lon="4.78797">
        <ele>327</ele>
        <time>2022-06-06T09:52:24.000Z</time>
      </trkpt>
      <trkpt lat="49.84855" lon="4.78801">
        <ele>327</ele>
        <time>2022-06-06T09:52:25.000Z</time>
      </trkpt>
      <trkpt lat="49.84853" lon="4.78805">
        <ele>327</ele>
        <time>2022-06-06T09:52:26.000Z</time>
      </trkpt>
      <trkpt lat="49.84851" lon="4.7881">
        <ele>328</ele>
        <time>2022-06-06T09:52:27.000Z</time>
      </trkpt>
      <trkpt lat="49.84849" lon="4.78813">
        <ele>328</ele>
        <time>2022-06-06T09:52:28.000Z</time>
      </trkpt>
      <trkpt lat="49.84847" lon="4.78818">
        <ele>328</ele>
        <time>2022-06-06T09:52:29.000Z</time>
      </trkpt>
      <trkpt lat="49.84845" lon="4.78822">
        <ele>328</ele>
        <time>2022-06-06T09:52:30.000Z</time>
      </trkpt>
      <trkpt lat="49.84844" lon="4.78825">
        <ele>328</ele>
        <time>2022-06-06T09:52:31.000Z</time>
      </trkpt>
      <trkpt lat="49.84842" lon="4.78829">
        <ele>328</ele>
        <time>2022-06-06T09:52:32.000Z</time>
      </trkpt>
      <trkpt lat="49.84841" lon="4.78832">
        <ele>328</ele>
        <time>2022-06-06T09:52:33.000Z</time>
      </trkpt>
      <trkpt lat="49.84839" lon="4.78836">
        <ele>328</ele>
        <time>2022-06-06T09:52:34.000Z</time>
      </trkpt>
      <trkpt lat="49.84838" lon="4.7884">
        <ele>329</ele>
        <time>2022-06-06T09:52:35.000Z</time>
      </trkpt>
      <trkpt lat="49.84837" lon="4.78843">
        <ele>329</ele>
        <time>2022-06-06T09:52:36.000Z</time>
      </trkpt>
      <trkpt lat="49.84836" lon="4.78847">
        <ele>329</ele>
        <time>2022-06-06T09:52:37.000Z</time>
      </trkpt>
      <trkpt lat="49.84834" lon="4.78851">
        <ele>329</ele>
        <time>2022-06-06T09:52:38.000Z</time>
      </trkpt>
      <trkpt lat="49.84834" lon="4.78854">
        <ele>329</ele>
        <time>2022-06-06T09:52:39.000Z</time>
      </trkpt>
      <trkpt lat="49.84832" lon="4.78858">
        <ele>329</ele>
        <time>2022-06-06T09:52:40.000Z</time>
      </trkpt>
      <trkpt lat="49.84831" lon="4.78861">
        <ele>329</ele>
        <time>2022-06-06T09:52:41.000Z</time>
      </trkpt>
      <trkpt lat="49.8483" lon="4.78864">
        <ele>329</ele>
        <time>2022-06-06T09:52:42.000Z</time>
      </trkpt>
      <trkpt lat="49.8483" lon="4.78867">
        <ele>330</ele>
        <time>2022-06-06T09:52:43.000Z</time>
      </trkpt>
      <trkpt lat="49.84829" lon="4.78871">
        <ele>330</ele>
        <time>2022-06-06T09:52:44.000Z</time>
      </trkpt>
      <trkpt lat="49.84828" lon="4.78874">
        <ele>330</ele>
        <time>2022-06-06T09:52:45.000Z</time>
      </trkpt>
      <trkpt lat="49.84827" lon="4.78878">
        <ele>330</ele>
        <time>2022-06-06T09:52:46.000Z</time>
      </trkpt>
      <trkpt lat="49.84827" lon="4.78882">
        <ele>330</ele>
        <time>2022-06-06T09:52:47.000Z</time>
      </trkpt>
      <trkpt lat="49.84826" lon="4.78885">
        <ele>331</ele>
        <time>2022-06-06T09:52:48.000Z</time>
      </trkpt>
      <trkpt lat="49.84825" lon="4.78889">
        <ele>331</ele>
        <time>2022-06-06T09:52:49.000Z</time>
      </trkpt>
      <trkpt lat="49.84824" lon="4.78892">
        <ele>331</ele>
        <time>2022-06-06T09:52:50.000Z</time>
      </trkpt>
      <trkpt lat="49.84823" lon="4.78896">
        <ele>331</ele>
        <time>2022-06-06T09:52:51.000Z</time>
      </trkpt>
      <trkpt lat="49.84822" lon="4.78898">
        <ele>331</ele>
        <time>2022-06-06T09:52:52.000Z</time>
      </trkpt>
      <trkpt lat="49.84821" lon="4.78901">
        <ele>332</ele>
        <time>2022-06-06T09:52:53.000Z</time>
      </trkpt>
      <trkpt lat="49.84821" lon="4.78904">
        <ele>332</ele>
        <time>2022-06-06T09:52:54.000Z</time>
      </trkpt>
      <trkpt lat="49.8482" lon="4.78906">
        <ele>332</ele>
        <time>2022-06-06T09:52:55.000Z</time>
      </trkpt>
      <trkpt lat="49.8482" lon="4.78909">
        <ele>332</ele>
        <time>2022-06-06T09:52:56.000Z</time>
      </trkpt>
      <trkpt lat="49.84819" lon="4.78913">
        <ele>332</ele>
        <time>2022-06-06T09:52:57.000Z</time>
      </trkpt>
      <trkpt lat="49.84819" lon="4.78916">
        <ele>332</ele>
        <time>2022-06-06T09:52:58.000Z</time>
      </trkpt>
      <trkpt lat="49.84819" lon="4.7892">
        <ele>332</ele>
        <time>2022-06-06T09:52:59.000Z</time>
      </trkpt>
      <trkpt lat="49.84818" lon="4.78924">
        <ele>333</ele>
        <time>2022-06-06T09:53:00.000Z</time>
      </trkpt>
      <trkpt lat="49.84818" lon="4.78928">
        <ele>333</ele>
        <time>2022-06-06T09:53:01.000Z</time>
      </trkpt>
      <trkpt lat="49.84819" lon="4.78932">
        <ele>333</ele>
        <time>2022-06-06T09:53:02.000Z</time>
      </trkpt>
      <trkpt lat="49.8482" lon="4.78936">
        <ele>333</ele>
        <time>2022-06-06T09:53:03.000Z</time>
      </trkpt>
      <trkpt lat="49.8482" lon="4.78941">
        <ele>333</ele>
        <time>2022-06-06T09:53:04.000Z</time>
      </trkpt>
      <trkpt lat="49.84821" lon="4.78945">
        <ele>334</ele>
        <time>2022-06-06T09:53:05.000Z</time>
      </trkpt>
      <trkpt lat="49.84821" lon="4.7895">
        <ele>334</ele>
        <time>2022-06-06T09:53:06.000Z</time>
      </trkpt>
      <trkpt lat="49.84821" lon="4.78954">
        <ele>334</ele>
        <time>2022-06-06T09:53:07.000Z</time>
      </trkpt>
      <trkpt lat="49.84821" lon="4.78959">
        <ele>334</ele>
        <time>2022-06-06T09:53:08.000Z</time>
      </trkpt>
      <trkpt lat="49.84821" lon="4.78963">
        <ele>334</ele>
        <time>2022-06-06T09:53:09.000Z</time>
      </trkpt>
      <trkpt lat="49.8482" lon="4.78967">
        <ele>335</ele>
        <time>2022-06-06T09:53:10.000Z</time>
      </trkpt>
      <trkpt lat="49.8482" lon="4.7897">
        <ele>335</ele>
        <time>2022-06-06T09:53:11.000Z</time>
      </trkpt>
      <trkpt lat="49.84819" lon="4.78973">
        <ele>335</ele>
        <time>2022-06-06T09:53:12.000Z</time>
      </trkpt>
      <trkpt lat="49.84818" lon="4.78977">
        <ele>336</ele>
        <time>2022-06-06T09:53:13.000Z</time>
      </trkpt>
      <trkpt lat="49.84817" lon="4.7898">
        <ele>336</ele>
        <time>2022-06-06T09:53:14.000Z</time>
      </trkpt>
      <trkpt lat="49.84816" lon="4.78983">
        <ele>336</ele>
        <time>2022-06-06T09:53:15.000Z</time>
      </trkpt>
      <trkpt lat="49.84815" lon="4.78986">
        <ele>337</ele>
        <time>2022-06-06T09:53:16.000Z</time>
      </trkpt>
      <trkpt lat="49.84814" lon="4.7899">
        <ele>337</ele>
        <time>2022-06-06T09:53:17.000Z</time>
      </trkpt>
      <trkpt lat="49.84814" lon="4.78992">
        <ele>338</ele>
        <time>2022-06-06T09:53:18.000Z</time>
      </trkpt>
      <trkpt lat="49.84814" lon="4.78995">
        <ele>338</ele>
        <time>2022-06-06T09:53:19.000Z</time>
      </trkpt>
      <trkpt lat="49.84815" lon="4.78997">
        <ele>338</ele>
        <time>2022-06-06T09:53:20.000Z</time>
      </trkpt>
      <trkpt lat="49.84815" lon="4.78999">
        <ele>338</ele>
        <time>2022-06-06T09:53:21.000Z</time>
      </trkpt>
      <trkpt lat="49.84815" lon="4.79001">
        <ele>339</ele>
        <time>2022-06-06T09:53:22.000Z</time>
      </trkpt>
      <trkpt lat="49.84816" lon="4.79004">
        <ele>339</ele>
        <time>2022-06-06T09:53:23.000Z</time>
      </trkpt>
      <trkpt lat="49.84817" lon="4.79007">
        <ele>339</ele>
        <time>2022-06-06T09:53:24.000Z</time>
      </trkpt>
      <trkpt lat="49.84818" lon="4.79012">
        <ele>339</ele>
        <time>2022-06-06T09:53:25.000Z</time>
      </trkpt>
      <trkpt lat="49.84818" lon="4.79016">
        <ele>340</ele>
        <time>2022-06-06T09:53:26.000Z</time>
      </trkpt>
      <trkpt lat="49.84819" lon="4.79021">
        <ele>340</ele>
        <time>2022-06-06T09:53:27.000Z</time>
      </trkpt>
      <trkpt lat="49.8482" lon="4.79025">
        <ele>340</ele>
        <time>2022-06-06T09:53:28.000Z</time>
      </trkpt>
      <trkpt lat="49.84822" lon="4.7903">
        <ele>340</ele>
        <time>2022-06-06T09:53:29.000Z</time>
      </trkpt>
      <trkpt lat="49.84823" lon="4.79034">
        <ele>340</ele>
        <time>2022-06-06T09:53:30.000Z</time>
      </trkpt>
      <trkpt lat="49.84824" lon="4.79038">
        <ele>340</ele>
        <time>2022-06-06T09:53:31.000Z</time>
      </trkpt>
      <trkpt lat="49.84826" lon="4.79043">
        <ele>341</ele>
        <time>2022-06-06T09:53:32.000Z</time>
      </trkpt>
      <trkpt lat="49.84826" lon="4.79047">
        <ele>341</ele>
        <time>2022-06-06T09:53:33.000Z</time>
      </trkpt>
      <trkpt lat="49.84827" lon="4.79051">
        <ele>341</ele>
        <time>2022-06-06T09:53:34.000Z</time>
      </trkpt>
      <trkpt lat="49.84827" lon="4.79055">
        <ele>342</ele>
        <time>2022-06-06T09:53:35.000Z</time>
      </trkpt>
      <trkpt lat="49.84827" lon="4.7906">
        <ele>342</ele>
        <time>2022-06-06T09:53:36.000Z</time>
      </trkpt>
      <trkpt lat="49.84827" lon="4.79064">
        <ele>342</ele>
        <time>2022-06-06T09:53:37.000Z</time>
      </trkpt>
      <trkpt lat="49.84827" lon="4.79069">
        <ele>342</ele>
        <time>2022-06-06T09:53:38.000Z</time>
      </trkpt>
      <trkpt lat="49.84826" lon="4.79074">
        <ele>342</ele>
        <time>2022-06-06T09:53:39.000Z</time>
      </trkpt>
      <trkpt lat="49.84827" lon="4.79078">
        <ele>343</ele>
        <time>2022-06-06T09:53:40.000Z</time>
      </trkpt>
      <trkpt lat="49.84827" lon="4.79083">
        <ele>343</ele>
        <time>2022-06-06T09:53:41.000Z</time>
      </trkpt>
      <trkpt lat="49.84827" lon="4.79087">
        <ele>343</ele>
        <time>2022-06-06T09:53:42.000Z</time>
      </trkpt>
      <trkpt lat="49.84826" lon="4.79091">
        <ele>344</ele>
        <time>2022-06-06T09:53:43.000Z</time>
      </trkpt>
      <trkpt lat="49.84826" lon="4.79094">
        <ele>344</ele>
        <time>2022-06-06T09:53:44.000Z</time>
      </trkpt>
      <trkpt lat="49.84825" lon="4.79098">
        <ele>344</ele>
        <time>2022-06-06T09:53:45.000Z</time>
      </trkpt>
      <trkpt lat="49.84825" lon="4.79101">
        <ele>345</ele>
        <time>2022-06-06T09:53:46.000Z</time>
      </trkpt>
      <trkpt lat="49.84824" lon="4.79105">
        <ele>345</ele>
        <time>2022-06-06T09:53:47.000Z</time>
      </trkpt>
      <trkpt lat="49.84824" lon="4.79109">
        <ele>345</ele>
        <time>2022-06-06T09:53:48.000Z</time>
      </trkpt>
      <trkpt lat="49.84823" lon="4.79113">
        <ele>345</ele>
        <time>2022-06-06T09:53:49.000Z</time>
      </trkpt>
      <trkpt lat="49.84822" lon="4.79117">
        <ele>346</ele>
        <time>2022-06-06T09:53:50.000Z</time>
      </trkpt>
      <trkpt lat="49.84821" lon="4.79121">
        <ele>346</ele>
        <time>2022-06-06T09:53:51.000Z</time>
      </trkpt>
      <trkpt lat="49.8482" lon="4.79125">
        <ele>346</ele>
        <time>2022-06-06T09:53:52.000Z</time>
      </trkpt>
      <trkpt lat="49.84818" lon="4.79129">
        <ele>346</ele>
        <time>2022-06-06T09:53:53.000Z</time>
      </trkpt>
      <trkpt lat="49.84817" lon="4.79133">
        <ele>347</ele>
        <time>2022-06-06T09:53:54.000Z</time>
      </trkpt>
      <trkpt lat="49.84814" lon="4.79137">
        <ele>347</ele>
        <time>2022-06-06T09:53:55.000Z</time>
      </trkpt>
      <trkpt lat="49.84811" lon="4.7914">
        <ele>347</ele>
        <time>2022-06-06T09:53:56.000Z</time>
      </trkpt>
      <trkpt lat="49.84808" lon="4.79142">
        <ele>347</ele>
        <time>2022-06-06T09:53:57.000Z</time>
      </trkpt>
      <trkpt lat="49.84806" lon="4.79144">
        <ele>347</ele>
        <time>2022-06-06T09:53:58.000Z</time>
      </trkpt>
      <trkpt lat="49.84803" lon="4.79147">
        <ele>348</ele>
        <time>2022-06-06T09:53:59.000Z</time>
      </trkpt>
      <trkpt lat="49.84801" lon="4.79149">
        <ele>348</ele>
        <time>2022-06-06T09:54:00.000Z</time>
      </trkpt>
      <trkpt lat="49.84799" lon="4.7915">
        <ele>348</ele>
        <time>2022-06-06T09:54:01.000Z</time>
      </trkpt>
      <trkpt lat="49.84798" lon="4.79151">
        <ele>348</ele>
        <time>2022-06-06T09:54:02.000Z</time>
      </trkpt>
      <trkpt lat="49.84795" lon="4.79152">
        <ele>348</ele>
        <time>2022-06-06T09:54:03.000Z</time>
      </trkpt>
      <trkpt lat="49.84794" lon="4.79153">
        <ele>348</ele>
        <time>2022-06-06T09:54:04.000Z</time>
      </trkpt>
      <trkpt lat="49.84792" lon="4.79153">
        <ele>348</ele>
        <time>2022-06-06T09:54:05.000Z</time>
      </trkpt>
      <trkpt lat="49.84791" lon="4.79154">
        <ele>348</ele>
        <time>2022-06-06T09:54:06.000Z</time>
      </trkpt>
      <trkpt lat="49.84788" lon="4.79155">
        <ele>348</ele>
        <time>2022-06-06T09:54:07.000Z</time>
      </trkpt>
      <trkpt lat="49.84786" lon="4.79155">
        <ele>349</ele>
        <time>2022-06-06T09:54:08.000Z</time>
      </trkpt>
      <trkpt lat="49.84783" lon="4.79155">
        <ele>349</ele>
        <time>2022-06-06T09:54:09.000Z</time>
      </trkpt>
      <trkpt lat="49.84779" lon="4.79155">
        <ele>348</ele>
        <time>2022-06-06T09:54:10.000Z</time>
      </trkpt>
      <trkpt lat="49.84776" lon="4.79154">
        <ele>348</ele>
        <time>2022-06-06T09:54:11.000Z</time>
      </trkpt>
      <trkpt lat="49.84773" lon="4.79154">
        <ele>348</ele>
        <time>2022-06-06T09:54:12.000Z</time>
      </trkpt>
      <trkpt lat="49.8477" lon="4.79153">
        <ele>348</ele>
        <time>2022-06-06T09:54:13.000Z</time>
      </trkpt>
      <trkpt lat="49.84767" lon="4.79153">
        <ele>348</ele>
        <time>2022-06-06T09:54:14.000Z</time>
      </trkpt>
      <trkpt lat="49.84764" lon="4.79152">
        <ele>348</ele>
        <time>2022-06-06T09:54:15.000Z</time>
      </trkpt>
      <trkpt lat="49.8476" lon="4.79151">
        <ele>348</ele>
        <time>2022-06-06T09:54:16.000Z</time>
      </trkpt>
      <trkpt lat="49.84757" lon="4.79151">
        <ele>348</ele>
        <time>2022-06-06T09:54:17.000Z</time>
      </trkpt>
      <trkpt lat="49.84754" lon="4.7915">
        <ele>348</ele>
        <time>2022-06-06T09:54:18.000Z</time>
      </trkpt>
      <trkpt lat="49.84751" lon="4.7915">
        <ele>348</ele>
        <time>2022-06-06T09:54:19.000Z</time>
      </trkpt>
      <trkpt lat="49.84747" lon="4.79149">
        <ele>348</ele>
        <time>2022-06-06T09:54:20.000Z</time>
      </trkpt>
      <trkpt lat="49.84744" lon="4.79149">
        <ele>348</ele>
        <time>2022-06-06T09:54:21.000Z</time>
      </trkpt>
      <trkpt lat="49.8474" lon="4.79149">
        <ele>348</ele>
        <time>2022-06-06T09:54:22.000Z</time>
      </trkpt>
      <trkpt lat="49.84737" lon="4.79148">
        <ele>348</ele>
        <time>2022-06-06T09:54:23.000Z</time>
      </trkpt>
      <trkpt lat="49.84734" lon="4.79147">
        <ele>348</ele>
        <time>2022-06-06T09:54:24.000Z</time>
      </trkpt>
      <trkpt lat="49.84732" lon="4.79147">
        <ele>348</ele>
        <time>2022-06-06T09:54:25.000Z</time>
      </trkpt>
      <trkpt lat="49.8473" lon="4.79146">
        <ele>348</ele>
        <time>2022-06-06T09:54:26.000Z</time>
      </trkpt>
      <trkpt lat="49.84727" lon="4.79145">
        <ele>348</ele>
        <time>2022-06-06T09:54:27.000Z</time>
      </trkpt>
      <trkpt lat="49.84725" lon="4.79145">
        <ele>348</ele>
        <time>2022-06-06T09:54:28.000Z</time>
      </trkpt>
      <trkpt lat="49.84723" lon="4.79144">
        <ele>348</ele>
        <time>2022-06-06T09:54:29.000Z</time>
      </trkpt>
      <trkpt lat="49.84721" lon="4.79143">
        <ele>348</ele>
        <time>2022-06-06T09:54:30.000Z</time>
      </trkpt>
      <trkpt lat="49.84719" lon="4.79143">
        <ele>348</ele>
        <time>2022-06-06T09:54:31.000Z</time>
      </trkpt>
      <trkpt lat="49.84717" lon="4.79143">
        <ele>349</ele>
        <time>2022-06-06T09:54:32.000Z</time>
      </trkpt>
      <trkpt lat="49.84714" lon="4.79142">
        <ele>349</ele>
        <time>2022-06-06T09:54:33.000Z</time>
      </trkpt>
      <trkpt lat="49.84712" lon="4.79142">
        <ele>349</ele>
        <time>2022-06-06T09:54:34.000Z</time>
      </trkpt>
      <trkpt lat="49.84709" lon="4.79141">
        <ele>349</ele>
        <time>2022-06-06T09:54:35.000Z</time>
      </trkpt>
      <trkpt lat="49.84707" lon="4.79141">
        <ele>349</ele>
        <time>2022-06-06T09:54:36.000Z</time>
      </trkpt>
      <trkpt lat="49.84705" lon="4.7914">
        <ele>349</ele>
        <time>2022-06-06T09:54:37.000Z</time>
      </trkpt>
      <trkpt lat="49.84704" lon="4.7914">
        <ele>349</ele>
        <time>2022-06-06T09:54:38.000Z</time>
      </trkpt>
      <trkpt lat="49.84702" lon="4.79139">
        <ele>349</ele>
        <time>2022-06-06T09:54:39.000Z</time>
      </trkpt>
      <trkpt lat="49.847" lon="4.79139">
        <ele>349</ele>
        <time>2022-06-06T09:54:40.000Z</time>
      </trkpt>
      <trkpt lat="49.84699" lon="4.79138">
        <ele>350</ele>
        <time>2022-06-06T09:54:41.000Z</time>
      </trkpt>
      <trkpt lat="49.84697" lon="4.79138">
        <ele>350</ele>
        <time>2022-06-06T09:54:42.000Z</time>
      </trkpt>
      <trkpt lat="49.84695" lon="4.79137">
        <ele>350</ele>
        <time>2022-06-06T09:54:43.000Z</time>
      </trkpt>
      <trkpt lat="49.84693" lon="4.79137">
        <ele>350</ele>
        <time>2022-06-06T09:54:44.000Z</time>
      </trkpt>
      <trkpt lat="49.84691" lon="4.79136">
        <ele>350</ele>
        <time>2022-06-06T09:54:45.000Z</time>
      </trkpt>
      <trkpt lat="49.84689" lon="4.79136">
        <ele>350</ele>
        <time>2022-06-06T09:54:46.000Z</time>
      </trkpt>
      <trkpt lat="49.84688" lon="4.79134">
        <ele>351</ele>
        <time>2022-06-06T09:54:47.000Z</time>
      </trkpt>
      <trkpt lat="49.84686" lon="4.79134">
        <ele>351</ele>
        <time>2022-06-06T09:54:48.000Z</time>
      </trkpt>
      <trkpt lat="49.84684" lon="4.79133">
        <ele>351</ele>
        <time>2022-06-06T09:54:49.000Z</time>
      </trkpt>
      <trkpt lat="49.84683" lon="4.79133">
        <ele>352</ele>
        <time>2022-06-06T09:54:50.000Z</time>
      </trkpt>
      <trkpt lat="49.84681" lon="4.79133">
        <ele>352</ele>
        <time>2022-06-06T09:54:51.000Z</time>
      </trkpt>
      <trkpt lat="49.84679" lon="4.79133">
        <ele>352</ele>
        <time>2022-06-06T09:54:52.000Z</time>
      </trkpt>
      <trkpt lat="49.84677" lon="4.79132">
        <ele>352</ele>
        <time>2022-06-06T09:54:53.000Z</time>
      </trkpt>
      <trkpt lat="49.84676" lon="4.79131">
        <ele>352</ele>
        <time>2022-06-06T09:54:54.000Z</time>
      </trkpt>
      <trkpt lat="49.84674" lon="4.7913">
        <ele>353</ele>
        <time>2022-06-06T09:54:55.000Z</time>
      </trkpt>
      <trkpt lat="49.84671" lon="4.79129">
        <ele>353</ele>
        <time>2022-06-06T09:54:56.000Z</time>
      </trkpt>
      <trkpt lat="49.84669" lon="4.79129">
        <ele>353</ele>
        <time>2022-06-06T09:54:57.000Z</time>
      </trkpt>
      <trkpt lat="49.84667" lon="4.79127">
        <ele>353</ele>
        <time>2022-06-06T09:54:58.000Z</time>
      </trkpt>
      <trkpt lat="49.84666" lon="4.79127">
        <ele>354</ele>
        <time>2022-06-06T09:54:59.000Z</time>
      </trkpt>
      <trkpt lat="49.84664" lon="4.79126">
        <ele>354</ele>
        <time>2022-06-06T09:55:00.000Z</time>
      </trkpt>
      <trkpt lat="49.84663" lon="4.79125">
        <ele>354</ele>
        <time>2022-06-06T09:55:01.000Z</time>
      </trkpt>
      <trkpt lat="49.84661" lon="4.79123">
        <ele>354</ele>
        <time>2022-06-06T09:55:02.000Z</time>
      </trkpt>
      <trkpt lat="49.84659" lon="4.79122">
        <ele>355</ele>
        <time>2022-06-06T09:55:03.000Z</time>
      </trkpt>
      <trkpt lat="49.84657" lon="4.79121">
        <ele>355</ele>
        <time>2022-06-06T09:55:04.000Z</time>
      </trkpt>
      <trkpt lat="49.84655" lon="4.7912">
        <ele>355</ele>
        <time>2022-06-06T09:55:05.000Z</time>
      </trkpt>
      <trkpt lat="49.84652" lon="4.79119">
        <ele>356</ele>
        <time>2022-06-06T09:55:06.000Z</time>
      </trkpt>
      <trkpt lat="49.8465" lon="4.79118">
        <ele>356</ele>
        <time>2022-06-06T09:55:07.000Z</time>
      </trkpt>
      <trkpt lat="49.84648" lon="4.79118">
        <ele>356</ele>
        <time>2022-06-06T09:55:08.000Z</time>
      </trkpt>
      <trkpt lat="49.84646" lon="4.79117">
        <ele>357</ele>
        <time>2022-06-06T09:55:09.000Z</time>
      </trkpt>
      <trkpt lat="49.84644" lon="4.79116">
        <ele>357</ele>
        <time>2022-06-06T09:55:10.000Z</time>
      </trkpt>
      <trkpt lat="49.84643" lon="4.79116">
        <ele>358</ele>
        <time>2022-06-06T09:55:11.000Z</time>
      </trkpt>
      <trkpt lat="49.84642" lon="4.79116">
        <ele>358</ele>
        <time>2022-06-06T09:55:12.000Z</time>
      </trkpt>
      <trkpt lat="49.8464" lon="4.79115">
        <ele>358</ele>
        <time>2022-06-06T09:55:13.000Z</time>
      </trkpt>
      <trkpt lat="49.84639" lon="4.79114">
        <ele>359</ele>
        <time>2022-06-06T09:55:14.000Z</time>
      </trkpt>
      <trkpt lat="49.84637" lon="4.79114">
        <ele>359</ele>
        <time>2022-06-06T09:55:15.000Z</time>
      </trkpt>
      <trkpt lat="49.84636" lon="4.79114">
        <ele>360</ele>
        <time>2022-06-06T09:55:16.000Z</time>
      </trkpt>
      <trkpt lat="49.84634" lon="4.79113">
        <ele>360</ele>
        <time>2022-06-06T09:55:17.000Z</time>
      </trkpt>
      <trkpt lat="49.84632" lon="4.79113">
        <ele>361</ele>
        <time>2022-06-06T09:55:18.000Z</time>
      </trkpt>
      <trkpt lat="49.84631" lon="4.79114">
        <ele>361</ele>
        <time>2022-06-06T09:55:19.000Z</time>
      </trkpt>
      <trkpt lat="49.84629" lon="4.79114">
        <ele>362</ele>
        <time>2022-06-06T09:55:20.000Z</time>
      </trkpt>
      <trkpt lat="49.84627" lon="4.79113">
        <ele>362</ele>
        <time>2022-06-06T09:55:21.000Z</time>
      </trkpt>
      <trkpt lat="49.84625" lon="4.79113">
        <ele>363</ele>
        <time>2022-06-06T09:55:22.000Z</time>
      </trkpt>
      <trkpt lat="49.84624" lon="4.79113">
        <ele>363</ele>
        <time>2022-06-06T09:55:23.000Z</time>
      </trkpt>
      <trkpt lat="49.84622" lon="4.79113">
        <ele>364</ele>
        <time>2022-06-06T09:55:24.000Z</time>
      </trkpt>
      <trkpt lat="49.8462" lon="4.79113">
        <ele>364</ele>
        <time>2022-06-06T09:55:25.000Z</time>
      </trkpt>
      <trkpt lat="49.84618" lon="4.79113">
        <ele>365</ele>
        <time>2022-06-06T09:55:26.000Z</time>
      </trkpt>
      <trkpt lat="49.84616" lon="4.79113">
        <ele>365</ele>
        <time>2022-06-06T09:55:27.000Z</time>
      </trkpt>
      <trkpt lat="49.84614" lon="4.79114">
        <ele>366</ele>
        <time>2022-06-06T09:55:28.000Z</time>
      </trkpt>
      <trkpt lat="49.84611" lon="4.79114">
        <ele>366</ele>
        <time>2022-06-06T09:55:29.000Z</time>
      </trkpt>
      <trkpt lat="49.84609" lon="4.79114">
        <ele>367</ele>
        <time>2022-06-06T09:55:30.000Z</time>
      </trkpt>
      <trkpt lat="49.84606" lon="4.79115">
        <ele>367</ele>
        <time>2022-06-06T09:55:31.000Z</time>
      </trkpt>
      <trkpt lat="49.84603" lon="4.79115">
        <ele>368</ele>
        <time>2022-06-06T09:55:32.000Z</time>
      </trkpt>
      <trkpt lat="49.84601" lon="4.79115">
        <ele>368</ele>
        <time>2022-06-06T09:55:33.000Z</time>
      </trkpt>
      <trkpt lat="49.846" lon="4.79115">
        <ele>369</ele>
        <time>2022-06-06T09:55:34.000Z</time>
      </trkpt>
      <trkpt lat="49.84598" lon="4.79115">
        <ele>369</ele>
        <time>2022-06-06T09:55:35.000Z</time>
      </trkpt>
      <trkpt lat="49.84596" lon="4.79115">
        <ele>369</ele>
        <time>2022-06-06T09:55:36.000Z</time>
      </trkpt>
      <trkpt lat="49.84594" lon="4.79115">
        <ele>370</ele>
        <time>2022-06-06T09:55:37.000Z</time>
      </trkpt>
      <trkpt lat="49.84592" lon="4.79115">
        <ele>370</ele>
        <time>2022-06-06T09:55:38.000Z</time>
      </trkpt>
      <trkpt lat="49.84589" lon="4.79114">
        <ele>370</ele>
        <time>2022-06-06T09:55:39.000Z</time>
      </trkpt>
      <trkpt lat="49.84587" lon="4.79115">
        <ele>371</ele>
        <time>2022-06-06T09:55:40.000Z</time>
      </trkpt>
      <trkpt lat="49.84586" lon="4.79115">
        <ele>371</ele>
        <time>2022-06-06T09:55:41.000Z</time>
      </trkpt>
      <trkpt lat="49.84584" lon="4.79116">
        <ele>372</ele>
        <time>2022-06-06T09:55:42.000Z</time>
      </trkpt>
      <trkpt lat="49.84581" lon="4.79117">
        <ele>372</ele>
        <time>2022-06-06T09:55:43.000Z</time>
      </trkpt>
      <trkpt lat="49.84579" lon="4.79118">
        <ele>372</ele>
        <time>2022-06-06T09:55:44.000Z</time>
      </trkpt>
      <trkpt lat="49.84576" lon="4.79118">
        <ele>372</ele>
        <time>2022-06-06T09:55:45.000Z</time>
      </trkpt>
      <trkpt lat="49.84574" lon="4.79118">
        <ele>372</ele>
        <time>2022-06-06T09:55:46.000Z</time>
      </trkpt>
      <trkpt lat="49.84571" lon="4.79118">
        <ele>373</ele>
        <time>2022-06-06T09:55:47.000Z</time>
      </trkpt>
      <trkpt lat="49.84569" lon="4.79117">
        <ele>373</ele>
        <time>2022-06-06T09:55:48.000Z</time>
      </trkpt>
      <trkpt lat="49.84568" lon="4.79117">
        <ele>373</ele>
        <time>2022-06-06T09:55:49.000Z</time>
      </trkpt>
      <trkpt lat="49.84567" lon="4.79117">
        <ele>373</ele>
        <time>2022-06-06T09:55:50.000Z</time>
      </trkpt>
      <trkpt lat="49.84565" lon="4.79116">
        <ele>374</ele>
        <time>2022-06-06T09:55:51.000Z</time>
      </trkpt>
      <trkpt lat="49.84562" lon="4.79116">
        <ele>374</ele>
        <time>2022-06-06T09:55:52.000Z</time>
      </trkpt>
      <trkpt lat="49.8456" lon="4.79117">
        <ele>374</ele>
        <time>2022-06-06T09:55:53.000Z</time>
      </trkpt>
      <trkpt lat="49.84558" lon="4.79117">
        <ele>374</ele>
        <time>2022-06-06T09:55:54.000Z</time>
      </trkpt>
      <trkpt lat="49.84555" lon="4.79117">
        <ele>374</ele>
        <time>2022-06-06T09:55:55.000Z</time>
      </trkpt>
      <trkpt lat="49.84553" lon="4.79118">
        <ele>374</ele>
        <time>2022-06-06T09:55:56.000Z</time>
      </trkpt>
      <trkpt lat="49.84551" lon="4.79117">
        <ele>374</ele>
        <time>2022-06-06T09:55:57.000Z</time>
      </trkpt>
      <trkpt lat="49.84548" lon="4.79117">
        <ele>374</ele>
        <time>2022-06-06T09:55:58.000Z</time>
      </trkpt>
      <trkpt lat="49.84546" lon="4.79117">
        <ele>374</ele>
        <time>2022-06-06T09:55:59.000Z</time>
      </trkpt>
      <trkpt lat="49.84545" lon="4.79117">
        <ele>374</ele>
        <time>2022-06-06T09:56:00.000Z</time>
      </trkpt>
      <trkpt lat="49.84543" lon="4.79116">
        <ele>374</ele>
        <time>2022-06-06T09:56:01.000Z</time>
      </trkpt>
      <trkpt lat="49.84541" lon="4.79116">
        <ele>374</ele>
        <time>2022-06-06T09:56:02.000Z</time>
      </trkpt>
      <trkpt lat="49.84539" lon="4.79116">
        <ele>374</ele>
        <time>2022-06-06T09:56:03.000Z</time>
      </trkpt>
      <trkpt lat="49.84537" lon="4.79115">
        <ele>375</ele>
        <time>2022-06-06T09:56:04.000Z</time>
      </trkpt>
      <trkpt lat="49.84534" lon="4.79115">
        <ele>375</ele>
        <time>2022-06-06T09:56:05.000Z</time>
      </trkpt>
      <trkpt lat="49.84532" lon="4.79115">
        <ele>375</ele>
        <time>2022-06-06T09:56:06.000Z</time>
      </trkpt>
      <trkpt lat="49.84529" lon="4.79115">
        <ele>375</ele>
        <time>2022-06-06T09:56:07.000Z</time>
      </trkpt>
      <trkpt lat="49.84526" lon="4.79116">
        <ele>375</ele>
        <time>2022-06-06T09:56:08.000Z</time>
      </trkpt>
      <trkpt lat="49.84524" lon="4.79116">
        <ele>375</ele>
        <time>2022-06-06T09:56:09.000Z</time>
      </trkpt>
      <trkpt lat="49.84521" lon="4.79116">
        <ele>375</ele>
        <time>2022-06-06T09:56:10.000Z</time>
      </trkpt>
      <trkpt lat="49.84518" lon="4.79117">
        <ele>375</ele>
        <time>2022-06-06T09:56:11.000Z</time>
      </trkpt>
      <trkpt lat="49.84515" lon="4.79117">
        <ele>376</ele>
        <time>2022-06-06T09:56:12.000Z</time>
      </trkpt>
      <trkpt lat="49.84512" lon="4.79118">
        <ele>376</ele>
        <time>2022-06-06T09:56:13.000Z</time>
      </trkpt>
      <trkpt lat="49.8451" lon="4.79118">
        <ele>376</ele>
        <time>2022-06-06T09:56:14.000Z</time>
      </trkpt>
      <trkpt lat="49.84507" lon="4.79118">
        <ele>376</ele>
        <time>2022-06-06T09:56:15.000Z</time>
      </trkpt>
      <trkpt lat="49.84505" lon="4.79118">
        <ele>376</ele>
        <time>2022-06-06T09:56:16.000Z</time>
      </trkpt>
      <trkpt lat="49.84502" lon="4.79118">
        <ele>376</ele>
        <time>2022-06-06T09:56:17.000Z</time>
      </trkpt>
      <trkpt lat="49.84499" lon="4.79118">
        <ele>376</ele>
        <time>2022-06-06T09:56:18.000Z</time>
      </trkpt>
      <trkpt lat="49.84496" lon="4.79118">
        <ele>376</ele>
        <time>2022-06-06T09:56:19.000Z</time>
      </trkpt>
      <trkpt lat="49.84493" lon="4.79119">
        <ele>376</ele>
        <time>2022-06-06T09:56:20.000Z</time>
      </trkpt>
      <trkpt lat="49.8449" lon="4.79119">
        <ele>377</ele>
        <time>2022-06-06T09:56:21.000Z</time>
      </trkpt>
      <trkpt lat="49.84488" lon="4.79119">
        <ele>377</ele>
        <time>2022-06-06T09:56:22.000Z</time>
      </trkpt>
      <trkpt lat="49.84485" lon="4.79119">
        <ele>377</ele>
        <time>2022-06-06T09:56:23.000Z</time>
      </trkpt>
      <trkpt lat="49.84482" lon="4.79119">
        <ele>377</ele>
        <time>2022-06-06T09:56:24.000Z</time>
      </trkpt>
      <trkpt lat="49.84478" lon="4.7912">
        <ele>377</ele>
        <time>2022-06-06T09:56:25.000Z</time>
      </trkpt>
      <trkpt lat="49.84475" lon="4.7912">
        <ele>378</ele>
        <time>2022-06-06T09:56:26.000Z</time>
      </trkpt>
      <trkpt lat="49.84471" lon="4.7912">
        <ele>378</ele>
        <time>2022-06-06T09:56:27.000Z</time>
      </trkpt>
      <trkpt lat="49.84467" lon="4.79119">
        <ele>378</ele>
        <time>2022-06-06T09:56:28.000Z</time>
      </trkpt>
      <trkpt lat="49.84463" lon="4.79119">
        <ele>378</ele>
        <time>2022-06-06T09:56:29.000Z</time>
      </trkpt>
      <trkpt lat="49.84459" lon="4.79119">
        <ele>378</ele>
        <time>2022-06-06T09:56:30.000Z</time>
      </trkpt>
      <trkpt lat="49.84456" lon="4.79119">
        <ele>378</ele>
        <time>2022-06-06T09:56:31.000Z</time>
      </trkpt>
      <trkpt lat="49.84452" lon="4.79119">
        <ele>378</ele>
        <time>2022-06-06T09:56:32.000Z</time>
      </trkpt>
      <trkpt lat="49.84449" lon="4.79119">
        <ele>378</ele>
        <time>2022-06-06T09:56:33.000Z</time>
      </trkpt>
      <trkpt lat="49.84445" lon="4.79119">
        <ele>378</ele>
        <time>2022-06-06T09:56:34.000Z</time>
      </trkpt>
      <trkpt lat="49.84441" lon="4.79118">
        <ele>378</ele>
        <time>2022-06-06T09:56:35.000Z</time>
      </trkpt>
      <trkpt lat="49.84437" lon="4.79118">
        <ele>378</ele>
        <time>2022-06-06T09:56:36.000Z</time>
      </trkpt>
      <trkpt lat="49.84433" lon="4.79118">
        <ele>378</ele>
        <time>2022-06-06T09:56:37.000Z</time>
      </trkpt>
      <trkpt lat="49.84429" lon="4.79119">
        <ele>378</ele>
        <time>2022-06-06T09:56:38.000Z</time>
      </trkpt>
      <trkpt lat="49.84425" lon="4.79119">
        <ele>378</ele>
        <time>2022-06-06T09:56:39.000Z</time>
      </trkpt>
      <trkpt lat="49.8442" lon="4.79119">
        <ele>377</ele>
        <time>2022-06-06T09:56:40.000Z</time>
      </trkpt>
      <trkpt lat="49.84416" lon="4.79121">
        <ele>377</ele>
        <time>2022-06-06T09:56:41.000Z</time>
      </trkpt>
      <trkpt lat="49.84413" lon="4.79125">
        <ele>377</ele>
        <time>2022-06-06T09:56:42.000Z</time>
      </trkpt>
      <trkpt lat="49.8441" lon="4.79129">
        <ele>377</ele>
        <time>2022-06-06T09:56:43.000Z</time>
      </trkpt>
      <trkpt lat="49.84408" lon="4.79135">
        <ele>377</ele>
        <time>2022-06-06T09:56:44.000Z</time>
      </trkpt>
      <trkpt lat="49.84407" lon="4.7914">
        <ele>377</ele>
        <time>2022-06-06T09:56:45.000Z</time>
      </trkpt>
      <trkpt lat="49.84408" lon="4.79146">
        <ele>376</ele>
        <time>2022-06-06T09:56:46.000Z</time>
      </trkpt>
      <trkpt lat="49.84409" lon="4.79151">
        <ele>376</ele>
        <time>2022-06-06T09:56:47.000Z</time>
      </trkpt>
      <trkpt lat="49.84411" lon="4.79155">
        <ele>376</ele>
        <time>2022-06-06T09:56:48.000Z</time>
      </trkpt>
      <trkpt lat="49.84413" lon="4.79159">
        <ele>376</ele>
        <time>2022-06-06T09:56:49.000Z</time>
      </trkpt>
      <trkpt lat="49.84415" lon="4.79163">
        <ele>376</ele>
        <time>2022-06-06T09:56:50.000Z</time>
      </trkpt>
      <trkpt lat="49.84416" lon="4.79168">
        <ele>376</ele>
        <time>2022-06-06T09:56:51.000Z</time>
      </trkpt>
      <trkpt lat="49.84418" lon="4.79172">
        <ele>376</ele>
        <time>2022-06-06T09:56:52.000Z</time>
      </trkpt>
      <trkpt lat="49.8442" lon="4.79176">
        <ele>376</ele>
        <time>2022-06-06T09:56:53.000Z</time>
      </trkpt>
      <trkpt lat="49.84422" lon="4.79181">
        <ele>376</ele>
        <time>2022-06-06T09:56:54.000Z</time>
      </trkpt>
      <trkpt lat="49.84424" lon="4.79185">
        <ele>376</ele>
        <time>2022-06-06T09:56:55.000Z</time>
      </trkpt>
      <trkpt lat="49.84427" lon="4.79189">
        <ele>377</ele>
        <time>2022-06-06T09:56:56.000Z</time>
      </trkpt>
      <trkpt lat="49.84429" lon="4.79194">
        <ele>377</ele>
        <time>2022-06-06T09:56:57.000Z</time>
      </trkpt>
      <trkpt lat="49.84431" lon="4.79199">
        <ele>377</ele>
        <time>2022-06-06T09:56:58.000Z</time>
      </trkpt>
      <trkpt lat="49.84433" lon="4.79204">
        <ele>377</ele>
        <time>2022-06-06T09:56:59.000Z</time>
      </trkpt>
      <trkpt lat="49.84435" lon="4.79209">
        <ele>377</ele>
        <time>2022-06-06T09:57:00.000Z</time>
      </trkpt>
      <trkpt lat="49.84436" lon="4.79215">
        <ele>377</ele>
        <time>2022-06-06T09:57:01.000Z</time>
      </trkpt>
      <trkpt lat="49.84438" lon="4.79221">
        <ele>377</ele>
        <time>2022-06-06T09:57:02.000Z</time>
      </trkpt>
      <trkpt lat="49.8444" lon="4.79227">
        <ele>377</ele>
        <time>2022-06-06T09:57:03.000Z</time>
      </trkpt>
      <trkpt lat="49.84441" lon="4.79233">
        <ele>378</ele>
        <time>2022-06-06T09:57:04.000Z</time>
      </trkpt>
      <trkpt lat="49.84443" lon="4.7924">
        <ele>378</ele>
        <time>2022-06-06T09:57:05.000Z</time>
      </trkpt>
      <trkpt lat="49.84444" lon="4.79246">
        <ele>378</ele>
        <time>2022-06-06T09:57:06.000Z</time>
      </trkpt>
      <trkpt lat="49.84444" lon="4.79252">
        <ele>378</ele>
        <time>2022-06-06T09:57:07.000Z</time>
      </trkpt>
      <trkpt lat="49.84446" lon="4.79257">
        <ele>379</ele>
        <time>2022-06-06T09:57:08.000Z</time>
      </trkpt>
      <trkpt lat="49.84448" lon="4.79261">
        <ele>379</ele>
        <time>2022-06-06T09:57:09.000Z</time>
      </trkpt>
      <trkpt lat="49.84449" lon="4.79266">
        <ele>379</ele>
        <time>2022-06-06T09:57:10.000Z</time>
      </trkpt>
      <trkpt lat="49.8445" lon="4.79271">
        <ele>379</ele>
        <time>2022-06-06T09:57:11.000Z</time>
      </trkpt>
      <trkpt lat="49.84452" lon="4.79276">
        <ele>379</ele>
        <time>2022-06-06T09:57:12.000Z</time>
      </trkpt>
      <trkpt lat="49.84453" lon="4.79281">
        <ele>379</ele>
        <time>2022-06-06T09:57:13.000Z</time>
      </trkpt>
      <trkpt lat="49.84454" lon="4.79285">
        <ele>380</ele>
        <time>2022-06-06T09:57:14.000Z</time>
      </trkpt>
      <trkpt lat="49.84456" lon="4.79289">
        <ele>380</ele>
        <time>2022-06-06T09:57:15.000Z</time>
      </trkpt>
      <trkpt lat="49.84457" lon="4.79293">
        <ele>380</ele>
        <time>2022-06-06T09:57:16.000Z</time>
      </trkpt>
      <trkpt lat="49.84459" lon="4.79298">
        <ele>380</ele>
        <time>2022-06-06T09:57:17.000Z</time>
      </trkpt>
      <trkpt lat="49.8446" lon="4.79302">
        <ele>380</ele>
        <time>2022-06-06T09:57:18.000Z</time>
      </trkpt>
      <trkpt lat="49.84461" lon="4.79307">
        <ele>380</ele>
        <time>2022-06-06T09:57:19.000Z</time>
      </trkpt>
      <trkpt lat="49.84462" lon="4.79313">
        <ele>381</ele>
        <time>2022-06-06T09:57:20.000Z</time>
      </trkpt>
      <trkpt lat="49.84463" lon="4.79319">
        <ele>381</ele>
        <time>2022-06-06T09:57:21.000Z</time>
      </trkpt>
      <trkpt lat="49.84465" lon="4.79324">
        <ele>381</ele>
        <time>2022-06-06T09:57:22.000Z</time>
      </trkpt>
      <trkpt lat="49.84466" lon="4.7933">
        <ele>381</ele>
        <time>2022-06-06T09:57:23.000Z</time>
      </trkpt>
      <trkpt lat="49.84468" lon="4.79335">
        <ele>381</ele>
        <time>2022-06-06T09:57:24.000Z</time>
      </trkpt>
      <trkpt lat="49.84469" lon="4.79341">
        <ele>381</ele>
        <time>2022-06-06T09:57:25.000Z</time>
      </trkpt>
      <trkpt lat="49.8447" lon="4.79347">
        <ele>381</ele>
        <time>2022-06-06T09:57:26.000Z</time>
      </trkpt>
      <trkpt lat="49.84472" lon="4.79353">
        <ele>381</ele>
        <time>2022-06-06T09:57:27.000Z</time>
      </trkpt>
      <trkpt lat="49.84474" lon="4.79359">
        <ele>381</ele>
        <time>2022-06-06T09:57:28.000Z</time>
      </trkpt>
      <trkpt lat="49.84476" lon="4.79365">
        <ele>381</ele>
        <time>2022-06-06T09:57:29.000Z</time>
      </trkpt>
      <trkpt lat="49.84477" lon="4.79372">
        <ele>381</ele>
        <time>2022-06-06T09:57:30.000Z</time>
      </trkpt>
      <trkpt lat="49.84479" lon="4.79379">
        <ele>381</ele>
        <time>2022-06-06T09:57:31.000Z</time>
      </trkpt>
      <trkpt lat="49.8448" lon="4.79386">
        <ele>382</ele>
        <time>2022-06-06T09:57:32.000Z</time>
      </trkpt>
      <trkpt lat="49.8448" lon="4.79393">
        <ele>382</ele>
        <time>2022-06-06T09:57:33.000Z</time>
      </trkpt>
      <trkpt lat="49.84481" lon="4.794">
        <ele>382</ele>
        <time>2022-06-06T09:57:34.000Z</time>
      </trkpt>
      <trkpt lat="49.84482" lon="4.79406">
        <ele>382</ele>
        <time>2022-06-06T09:57:35.000Z</time>
      </trkpt>
      <trkpt lat="49.84482" lon="4.79412">
        <ele>382</ele>
        <time>2022-06-06T09:57:36.000Z</time>
      </trkpt>
      <trkpt lat="49.84483" lon="4.79419">
        <ele>383</ele>
        <time>2022-06-06T09:57:37.000Z</time>
      </trkpt>
      <trkpt lat="49.84483" lon="4.79425">
        <ele>383</ele>
        <time>2022-06-06T09:57:38.000Z</time>
      </trkpt>
      <trkpt lat="49.84482" lon="4.79432">
        <ele>383</ele>
        <time>2022-06-06T09:57:39.000Z</time>
      </trkpt>
      <trkpt lat="49.84482" lon="4.79438">
        <ele>383</ele>
        <time>2022-06-06T09:57:40.000Z</time>
      </trkpt>
      <trkpt lat="49.84482" lon="4.79444">
        <ele>383</ele>
        <time>2022-06-06T09:57:41.000Z</time>
      </trkpt>
      <trkpt lat="49.84482" lon="4.79451">
        <ele>384</ele>
        <time>2022-06-06T09:57:42.000Z</time>
      </trkpt>
      <trkpt lat="49.84481" lon="4.79457">
        <ele>384</ele>
        <time>2022-06-06T09:57:43.000Z</time>
      </trkpt>
      <trkpt lat="49.8448" lon="4.79464">
        <ele>384</ele>
        <time>2022-06-06T09:57:44.000Z</time>
      </trkpt>
      <trkpt lat="49.84477" lon="4.79469">
        <ele>384</ele>
        <time>2022-06-06T09:57:45.000Z</time>
      </trkpt>
      <trkpt lat="49.84474" lon="4.79474">
        <ele>384</ele>
        <time>2022-06-06T09:57:46.000Z</time>
      </trkpt>
      <trkpt lat="49.84472" lon="4.79478">
        <ele>384</ele>
        <time>2022-06-06T09:57:47.000Z</time>
      </trkpt>
      <trkpt lat="49.8447" lon="4.79481">
        <ele>384</ele>
        <time>2022-06-06T09:57:48.000Z</time>
      </trkpt>
      <trkpt lat="49.84469" lon="4.79484">
        <ele>384</ele>
        <time>2022-06-06T09:57:49.000Z</time>
      </trkpt>
      <trkpt lat="49.84468" lon="4.79487">
        <ele>384</ele>
        <time>2022-06-06T09:57:50.000Z</time>
      </trkpt>
      <trkpt lat="49.84468" lon="4.79491">
        <ele>384</ele>
        <time>2022-06-06T09:57:51.000Z</time>
      </trkpt>
      <trkpt lat="49.84468" lon="4.79495">
        <ele>384</ele>
        <time>2022-06-06T09:57:52.000Z</time>
      </trkpt>
      <trkpt lat="49.84469" lon="4.795">
        <ele>384</ele>
        <time>2022-06-06T09:57:53.000Z</time>
      </trkpt>
      <trkpt lat="49.8447" lon="4.79503">
        <ele>384</ele>
        <time>2022-06-06T09:57:54.000Z</time>
      </trkpt>
      <trkpt lat="49.84471" lon="4.79508">
        <ele>384</ele>
        <time>2022-06-06T09:57:55.000Z</time>
      </trkpt>
      <trkpt lat="49.84472" lon="4.79514">
        <ele>384</ele>
        <time>2022-06-06T09:57:56.000Z</time>
      </trkpt>
      <trkpt lat="49.84473" lon="4.7952">
        <ele>384</ele>
        <time>2022-06-06T09:57:57.000Z</time>
      </trkpt>
      <trkpt lat="49.84474" lon="4.79526">
        <ele>384</ele>
        <time>2022-06-06T09:57:58.000Z</time>
      </trkpt>
      <trkpt lat="49.84475" lon="4.79533">
        <ele>385</ele>
        <time>2022-06-06T09:57:59.000Z</time>
      </trkpt>
      <trkpt lat="49.84476" lon="4.7954">
        <ele>385</ele>
        <time>2022-06-06T09:58:00.000Z</time>
      </trkpt>
      <trkpt lat="49.84476" lon="4.79546">
        <ele>385</ele>
        <time>2022-06-06T09:58:01.000Z</time>
      </trkpt>
      <trkpt lat="49.84475" lon="4.79552">
        <ele>385</ele>
        <time>2022-06-06T09:58:02.000Z</time>
      </trkpt>
      <trkpt lat="49.84474" lon="4.79558">
        <ele>385</ele>
        <time>2022-06-06T09:58:03.000Z</time>
      </trkpt>
      <trkpt lat="49.84473" lon="4.79564">
        <ele>385</ele>
        <time>2022-06-06T09:58:04.000Z</time>
      </trkpt>
      <trkpt lat="49.84471" lon="4.7957">
        <ele>385</ele>
        <time>2022-06-06T09:58:05.000Z</time>
      </trkpt>
      <trkpt lat="49.84471" lon="4.79576">
        <ele>385</ele>
        <time>2022-06-06T09:58:06.000Z</time>
      </trkpt>
      <trkpt lat="49.8447" lon="4.79582">
        <ele>386</ele>
        <time>2022-06-06T09:58:07.000Z</time>
      </trkpt>
      <trkpt lat="49.84469" lon="4.79588">
        <ele>386</ele>
        <time>2022-06-06T09:58:08.000Z</time>
      </trkpt>
      <trkpt lat="49.84467" lon="4.79594">
        <ele>386</ele>
        <time>2022-06-06T09:58:09.000Z</time>
      </trkpt>
      <trkpt lat="49.84465" lon="4.796">
        <ele>386</ele>
        <time>2022-06-06T09:58:10.000Z</time>
      </trkpt>
      <trkpt lat="49.84464" lon="4.79606">
        <ele>386</ele>
        <time>2022-06-06T09:58:11.000Z</time>
      </trkpt>
      <trkpt lat="49.84462" lon="4.79612">
        <ele>386</ele>
        <time>2022-06-06T09:58:12.000Z</time>
      </trkpt>
      <trkpt lat="49.84462" lon="4.79617">
        <ele>386</ele>
        <time>2022-06-06T09:58:13.000Z</time>
      </trkpt>
      <trkpt lat="49.84462" lon="4.79623">
        <ele>386</ele>
        <time>2022-06-06T09:58:14.000Z</time>
      </trkpt>
      <trkpt lat="49.84463" lon="4.79628">
        <ele>386</ele>
        <time>2022-06-06T09:58:15.000Z</time>
      </trkpt>
      <trkpt lat="49.84464" lon="4.79632">
        <ele>386</ele>
        <time>2022-06-06T09:58:16.000Z</time>
      </trkpt>
      <trkpt lat="49.84466" lon="4.79634">
        <ele>386</ele>
        <time>2022-06-06T09:58:17.000Z</time>
      </trkpt>
      <trkpt lat="49.84468" lon="4.79635">
        <ele>386</ele>
        <time>2022-06-06T09:58:18.000Z</time>
      </trkpt>
      <trkpt lat="49.84471" lon="4.79635">
        <ele>385</ele>
        <time>2022-06-06T09:58:19.000Z</time>
      </trkpt>
      <trkpt lat="49.84474" lon="4.79634">
        <ele>385</ele>
        <time>2022-06-06T09:58:20.000Z</time>
      </trkpt>
      <trkpt lat="49.84477" lon="4.79634">
        <ele>385</ele>
        <time>2022-06-06T09:58:21.000Z</time>
      </trkpt>
      <trkpt lat="49.84479" lon="4.79634">
        <ele>385</ele>
        <time>2022-06-06T09:58:22.000Z</time>
      </trkpt>
      <trkpt lat="49.84482" lon="4.79634">
        <ele>385</ele>
        <time>2022-06-06T09:58:23.000Z</time>
      </trkpt>
      <trkpt lat="49.84486" lon="4.79635">
        <ele>385</ele>
        <time>2022-06-06T09:58:24.000Z</time>
      </trkpt>
      <trkpt lat="49.84489" lon="4.79636">
        <ele>385</ele>
        <time>2022-06-06T09:58:25.000Z</time>
      </trkpt>
      <trkpt lat="49.84492" lon="4.79639">
        <ele>385</ele>
        <time>2022-06-06T09:58:26.000Z</time>
      </trkpt>
      <trkpt lat="49.84495" lon="4.79643">
        <ele>385</ele>
        <time>2022-06-06T09:58:27.000Z</time>
      </trkpt>
      <trkpt lat="49.84497" lon="4.7965">
        <ele>385</ele>
        <time>2022-06-06T09:58:28.000Z</time>
      </trkpt>
      <trkpt lat="49.84497" lon="4.79657">
        <ele>385</ele>
        <time>2022-06-06T09:58:29.000Z</time>
      </trkpt>
      <trkpt lat="49.84498" lon="4.79663">
        <ele>385</ele>
        <time>2022-06-06T09:58:30.000Z</time>
      </trkpt>
      <trkpt lat="49.84499" lon="4.7967">
        <ele>385</ele>
        <time>2022-06-06T09:58:31.000Z</time>
      </trkpt>
      <trkpt lat="49.84499" lon="4.79675">
        <ele>385</ele>
        <time>2022-06-06T09:58:32.000Z</time>
      </trkpt>
      <trkpt lat="49.845" lon="4.79682">
        <ele>385</ele>
        <time>2022-06-06T09:58:33.000Z</time>
      </trkpt>
      <trkpt lat="49.845" lon="4.79688">
        <ele>385</ele>
        <time>2022-06-06T09:58:34.000Z</time>
      </trkpt>
      <trkpt lat="49.84501" lon="4.79695">
        <ele>385</ele>
        <time>2022-06-06T09:58:35.000Z</time>
      </trkpt>
      <trkpt lat="49.84502" lon="4.79702">
        <ele>385</ele>
        <time>2022-06-06T09:58:36.000Z</time>
      </trkpt>
      <trkpt lat="49.84503" lon="4.79708">
        <ele>385</ele>
        <time>2022-06-06T09:58:37.000Z</time>
      </trkpt>
      <trkpt lat="49.84503" lon="4.79715">
        <ele>385</ele>
        <time>2022-06-06T09:58:38.000Z</time>
      </trkpt>
      <trkpt lat="49.84504" lon="4.79721">
        <ele>385</ele>
        <time>2022-06-06T09:58:39.000Z</time>
      </trkpt>
      <trkpt lat="49.84505" lon="4.79728">
        <ele>385</ele>
        <time>2022-06-06T09:58:40.000Z</time>
      </trkpt>
      <trkpt lat="49.84506" lon="4.79735">
        <ele>386</ele>
        <time>2022-06-06T09:58:41.000Z</time>
      </trkpt>
      <trkpt lat="49.84507" lon="4.79742">
        <ele>386</ele>
        <time>2022-06-06T09:58:42.000Z</time>
      </trkpt>
      <trkpt lat="49.84507" lon="4.79749">
        <ele>386</ele>
        <time>2022-06-06T09:58:43.000Z</time>
      </trkpt>
      <trkpt lat="49.84506" lon="4.79755">
        <ele>386</ele>
        <time>2022-06-06T09:58:44.000Z</time>
      </trkpt>
      <trkpt lat="49.84506" lon="4.79762">
        <ele>386</ele>
        <time>2022-06-06T09:58:45.000Z</time>
      </trkpt>
      <trkpt lat="49.84506" lon="4.79769">
        <ele>387</ele>
        <time>2022-06-06T09:58:46.000Z</time>
      </trkpt>
      <trkpt lat="49.84506" lon="4.79775">
        <ele>387</ele>
        <time>2022-06-06T09:58:47.000Z</time>
      </trkpt>
      <trkpt lat="49.84507" lon="4.79782">
        <ele>387</ele>
        <time>2022-06-06T09:58:48.000Z</time>
      </trkpt>
      <trkpt lat="49.84508" lon="4.79789">
        <ele>387</ele>
        <time>2022-06-06T09:58:49.000Z</time>
      </trkpt>
      <trkpt lat="49.84509" lon="4.79795">
        <ele>388</ele>
        <time>2022-06-06T09:58:50.000Z</time>
      </trkpt>
      <trkpt lat="49.84509" lon="4.79802">
        <ele>388</ele>
        <time>2022-06-06T09:58:51.000Z</time>
      </trkpt>
      <trkpt lat="49.84508" lon="4.79808">
        <ele>388</ele>
        <time>2022-06-06T09:58:52.000Z</time>
      </trkpt>
      <trkpt lat="49.84508" lon="4.79814">
        <ele>389</ele>
        <time>2022-06-06T09:58:53.000Z</time>
      </trkpt>
      <trkpt lat="49.84509" lon="4.79821">
        <ele>389</ele>
        <time>2022-06-06T09:58:54.000Z</time>
      </trkpt>
      <trkpt lat="49.8451" lon="4.79827">
        <ele>389</ele>
        <time>2022-06-06T09:58:55.000Z</time>
      </trkpt>
      <trkpt lat="49.84511" lon="4.79834">
        <ele>390</ele>
        <time>2022-06-06T09:58:56.000Z</time>
      </trkpt>
      <trkpt lat="49.84513" lon="4.79841">
        <ele>390</ele>
        <time>2022-06-06T09:58:57.000Z</time>
      </trkpt>
      <trkpt lat="49.84514" lon="4.79848">
        <ele>390</ele>
        <time>2022-06-06T09:58:58.000Z</time>
      </trkpt>
      <trkpt lat="49.84516" lon="4.79854">
        <ele>390</ele>
        <time>2022-06-06T09:58:59.000Z</time>
      </trkpt>
      <trkpt lat="49.84517" lon="4.79861">
        <ele>390</ele>
        <time>2022-06-06T09:59:00.000Z</time>
      </trkpt>
      <trkpt lat="49.84519" lon="4.79867">
        <ele>391</ele>
        <time>2022-06-06T09:59:01.000Z</time>
      </trkpt>
      <trkpt lat="49.8452" lon="4.79874">
        <ele>391</ele>
        <time>2022-06-06T09:59:02.000Z</time>
      </trkpt>
      <trkpt lat="49.84522" lon="4.7988">
        <ele>391</ele>
        <time>2022-06-06T09:59:03.000Z</time>
      </trkpt>
      <trkpt lat="49.84524" lon="4.79886">
        <ele>391</ele>
        <time>2022-06-06T09:59:04.000Z</time>
      </trkpt>
      <trkpt lat="49.84526" lon="4.79892">
        <ele>391</ele>
        <time>2022-06-06T09:59:05.000Z</time>
      </trkpt>
      <trkpt lat="49.84527" lon="4.79898">
        <ele>391</ele>
        <time>2022-06-06T09:59:06.000Z</time>
      </trkpt>
      <trkpt lat="49.84529" lon="4.79904">
        <ele>392</ele>
        <time>2022-06-06T09:59:07.000Z</time>
      </trkpt>
      <trkpt lat="49.84531" lon="4.7991">
        <ele>392</ele>
        <time>2022-06-06T09:59:08.000Z</time>
      </trkpt>
      <trkpt lat="49.84532" lon="4.79917">
        <ele>392</ele>
        <time>2022-06-06T09:59:09.000Z</time>
      </trkpt>
      <trkpt lat="49.84533" lon="4.79923">
        <ele>392</ele>
        <time>2022-06-06T09:59:10.000Z</time>
      </trkpt>
      <trkpt lat="49.84535" lon="4.79929">
        <ele>392</ele>
        <time>2022-06-06T09:59:11.000Z</time>
      </trkpt>
      <trkpt lat="49.84537" lon="4.79935">
        <ele>393</ele>
        <time>2022-06-06T09:59:12.000Z</time>
      </trkpt>
      <trkpt lat="49.84539" lon="4.79941">
        <ele>393</ele>
        <time>2022-06-06T09:59:13.000Z</time>
      </trkpt>
      <trkpt lat="49.84541" lon="4.79946">
        <ele>393</ele>
        <time>2022-06-06T09:59:14.000Z</time>
      </trkpt>
      <trkpt lat="49.84543" lon="4.79952">
        <ele>393</ele>
        <time>2022-06-06T09:59:15.000Z</time>
      </trkpt>
      <trkpt lat="49.84545" lon="4.79957">
        <ele>393</ele>
        <time>2022-06-06T09:59:16.000Z</time>
      </trkpt>
      <trkpt lat="49.84546" lon="4.79963">
        <ele>394</ele>
        <time>2022-06-06T09:59:17.000Z</time>
      </trkpt>
      <trkpt lat="49.84548" lon="4.79969">
        <ele>394</ele>
        <time>2022-06-06T09:59:18.000Z</time>
      </trkpt>
      <trkpt lat="49.8455" lon="4.79975">
        <ele>394</ele>
        <time>2022-06-06T09:59:19.000Z</time>
      </trkpt>
      <trkpt lat="49.84551" lon="4.7998">
        <ele>394</ele>
        <time>2022-06-06T09:59:20.000Z</time>
      </trkpt>
      <trkpt lat="49.84553" lon="4.79986">
        <ele>394</ele>
        <time>2022-06-06T09:59:21.000Z</time>
      </trkpt>
      <trkpt lat="49.84555" lon="4.79992">
        <ele>394</ele>
        <time>2022-06-06T09:59:22.000Z</time>
      </trkpt>
      <trkpt lat="49.84556" lon="4.79998">
        <ele>394</ele>
        <time>2022-06-06T09:59:23.000Z</time>
      </trkpt>
      <trkpt lat="49.84556" lon="4.80003">
        <ele>394</ele>
        <time>2022-06-06T09:59:24.000Z</time>
      </trkpt>
      <trkpt lat="49.84557" lon="4.80009">
        <ele>394</ele>
        <time>2022-06-06T09:59:25.000Z</time>
      </trkpt>
      <trkpt lat="49.84559" lon="4.80015">
        <ele>395</ele>
        <time>2022-06-06T09:59:26.000Z</time>
      </trkpt>
      <trkpt lat="49.8456" lon="4.80021">
        <ele>395</ele>
        <time>2022-06-06T09:59:27.000Z</time>
      </trkpt>
      <trkpt lat="49.84561" lon="4.80026">
        <ele>395</ele>
        <time>2022-06-06T09:59:28.000Z</time>
      </trkpt>
      <trkpt lat="49.84562" lon="4.80031">
        <ele>395</ele>
        <time>2022-06-06T09:59:29.000Z</time>
      </trkpt>
      <trkpt lat="49.84564" lon="4.80037">
        <ele>395</ele>
        <time>2022-06-06T09:59:30.000Z</time>
      </trkpt>
      <trkpt lat="49.84566" lon="4.80043">
        <ele>395</ele>
        <time>2022-06-06T09:59:31.000Z</time>
      </trkpt>
      <trkpt lat="49.84569" lon="4.80049">
        <ele>395</ele>
        <time>2022-06-06T09:59:32.000Z</time>
      </trkpt>
      <trkpt lat="49.84571" lon="4.80055">
        <ele>395</ele>
        <time>2022-06-06T09:59:33.000Z</time>
      </trkpt>
      <trkpt lat="49.84573" lon="4.80061">
        <ele>396</ele>
        <time>2022-06-06T09:59:34.000Z</time>
      </trkpt>
      <trkpt lat="49.84576" lon="4.80067">
        <ele>396</ele>
        <time>2022-06-06T09:59:35.000Z</time>
      </trkpt>
      <trkpt lat="49.84577" lon="4.80073">
        <ele>396</ele>
        <time>2022-06-06T09:59:36.000Z</time>
      </trkpt>
      <trkpt lat="49.84578" lon="4.80079">
        <ele>396</ele>
        <time>2022-06-06T09:59:37.000Z</time>
      </trkpt>
      <trkpt lat="49.8458" lon="4.80086">
        <ele>396</ele>
        <time>2022-06-06T09:59:38.000Z</time>
      </trkpt>
      <trkpt lat="49.84582" lon="4.80092">
        <ele>396</ele>
        <time>2022-06-06T09:59:39.000Z</time>
      </trkpt>
      <trkpt lat="49.84583" lon="4.80099">
        <ele>396</ele>
        <time>2022-06-06T09:59:40.000Z</time>
      </trkpt>
      <trkpt lat="49.84585" lon="4.80105">
        <ele>396</ele>
        <time>2022-06-06T09:59:41.000Z</time>
      </trkpt>
      <trkpt lat="49.84587" lon="4.80112">
        <ele>396</ele>
        <time>2022-06-06T09:59:42.000Z</time>
      </trkpt>
      <trkpt lat="49.8459" lon="4.80118">
        <ele>396</ele>
        <time>2022-06-06T09:59:43.000Z</time>
      </trkpt>
      <trkpt lat="49.84593" lon="4.80124">
        <ele>396</ele>
        <time>2022-06-06T09:59:44.000Z</time>
      </trkpt>
      <trkpt lat="49.84595" lon="4.8013">
        <ele>396</ele>
        <time>2022-06-06T09:59:45.000Z</time>
      </trkpt>
      <trkpt lat="49.84597" lon="4.80137">
        <ele>397</ele>
        <time>2022-06-06T09:59:46.000Z</time>
      </trkpt>
      <trkpt lat="49.84599" lon="4.80143">
        <ele>397</ele>
        <time>2022-06-06T09:59:47.000Z</time>
      </trkpt>
      <trkpt lat="49.84601" lon="4.8015">
        <ele>397</ele>
        <time>2022-06-06T09:59:48.000Z</time>
      </trkpt>
      <trkpt lat="49.84602" lon="4.80157">
        <ele>397</ele>
        <time>2022-06-06T09:59:49.000Z</time>
      </trkpt>
      <trkpt lat="49.84602" lon="4.80164">
        <ele>397</ele>
        <time>2022-06-06T09:59:50.000Z</time>
      </trkpt>
      <trkpt lat="49.84602" lon="4.80171">
        <ele>397</ele>
        <time>2022-06-06T09:59:51.000Z</time>
      </trkpt>
      <trkpt lat="49.84603" lon="4.80178">
        <ele>397</ele>
        <time>2022-06-06T09:59:52.000Z</time>
      </trkpt>
      <trkpt lat="49.84603" lon="4.80183">
        <ele>398</ele>
        <time>2022-06-06T09:59:53.000Z</time>
      </trkpt>
      <trkpt lat="49.84603" lon="4.80188">
        <ele>398</ele>
        <time>2022-06-06T09:59:54.000Z</time>
      </trkpt>
      <trkpt lat="49.84604" lon="4.80193">
        <ele>398</ele>
        <time>2022-06-06T09:59:55.000Z</time>
      </trkpt>
      <trkpt lat="49.84606" lon="4.80199">
        <ele>398</ele>
        <time>2022-06-06T09:59:56.000Z</time>
      </trkpt>
      <trkpt lat="49.84608" lon="4.80204">
        <ele>399</ele>
        <time>2022-06-06T09:59:57.000Z</time>
      </trkpt>
      <trkpt lat="49.8461" lon="4.80209">
        <ele>399</ele>
        <time>2022-06-06T09:59:58.000Z</time>
      </trkpt>
      <trkpt lat="49.84612" lon="4.80213">
        <ele>399</ele>
        <time>2022-06-06T09:59:59.000Z</time>
      </trkpt>
      <trkpt lat="49.84615" lon="4.80218">
        <ele>399</ele>
        <time>2022-06-06T10:00:00.000Z</time>
      </trkpt>
      <trkpt lat="49.84617" lon="4.80223">
        <ele>400</ele>
        <time>2022-06-06T10:00:01.000Z</time>
      </trkpt>
      <trkpt lat="49.84619" lon="4.80228">
        <ele>400</ele>
        <time>2022-06-06T10:00:02.000Z</time>
      </trkpt>
      <trkpt lat="49.84621" lon="4.80232">
        <ele>400</ele>
        <time>2022-06-06T10:00:03.000Z</time>
      </trkpt>
      <trkpt lat="49.84623" lon="4.80236">
        <ele>401</ele>
        <time>2022-06-06T10:00:04.000Z</time>
      </trkpt>
      <trkpt lat="49.84624" lon="4.8024">
        <ele>401</ele>
        <time>2022-06-06T10:00:05.000Z</time>
      </trkpt>
      <trkpt lat="49.84626" lon="4.80244">
        <ele>401</ele>
        <time>2022-06-06T10:00:06.000Z</time>
      </trkpt>
      <trkpt lat="49.84628" lon="4.8025">
        <ele>401</ele>
        <time>2022-06-06T10:00:07.000Z</time>
      </trkpt>
      <trkpt lat="49.84629" lon="4.80255">
        <ele>401</ele>
        <time>2022-06-06T10:00:08.000Z</time>
      </trkpt>
      <trkpt lat="49.8463" lon="4.80261">
        <ele>401</ele>
        <time>2022-06-06T10:00:09.000Z</time>
      </trkpt>
      <trkpt lat="49.84631" lon="4.80266">
        <ele>402</ele>
        <time>2022-06-06T10:00:10.000Z</time>
      </trkpt>
      <trkpt lat="49.84632" lon="4.8027">
        <ele>402</ele>
        <time>2022-06-06T10:00:11.000Z</time>
      </trkpt>
      <trkpt lat="49.84634" lon="4.80275">
        <ele>402</ele>
        <time>2022-06-06T10:00:12.000Z</time>
      </trkpt>
      <trkpt lat="49.84635" lon="4.8028">
        <ele>402</ele>
        <time>2022-06-06T10:00:13.000Z</time>
      </trkpt>
      <trkpt lat="49.84637" lon="4.80285">
        <ele>402</ele>
        <time>2022-06-06T10:00:14.000Z</time>
      </trkpt>
      <trkpt lat="49.84639" lon="4.80291">
        <ele>402</ele>
        <time>2022-06-06T10:00:15.000Z</time>
      </trkpt>
      <trkpt lat="49.84642" lon="4.80298">
        <ele>402</ele>
        <time>2022-06-06T10:00:16.000Z</time>
      </trkpt>
      <trkpt lat="49.84645" lon="4.80306">
        <ele>402</ele>
        <time>2022-06-06T10:00:17.000Z</time>
      </trkpt>
      <trkpt lat="49.84648" lon="4.80313">
        <ele>402</ele>
        <time>2022-06-06T10:00:18.000Z</time>
      </trkpt>
      <trkpt lat="49.84652" lon="4.80321">
        <ele>402</ele>
        <time>2022-06-06T10:00:19.000Z</time>
      </trkpt>
      <trkpt lat="49.84656" lon="4.80328">
        <ele>403</ele>
        <time>2022-06-06T10:00:20.000Z</time>
      </trkpt>
      <trkpt lat="49.84659" lon="4.80335">
        <ele>403</ele>
        <time>2022-06-06T10:00:21.000Z</time>
      </trkpt>
      <trkpt lat="49.84662" lon="4.80342">
        <ele>403</ele>
        <time>2022-06-06T10:00:22.000Z</time>
      </trkpt>
      <trkpt lat="49.84665" lon="4.80349">
        <ele>403</ele>
        <time>2022-06-06T10:00:23.000Z</time>
      </trkpt>
      <trkpt lat="49.84668" lon="4.80355">
        <ele>403</ele>
        <time>2022-06-06T10:00:24.000Z</time>
      </trkpt>
      <trkpt lat="49.8467" lon="4.80361">
        <ele>403</ele>
        <time>2022-06-06T10:00:25.000Z</time>
      </trkpt>
      <trkpt lat="49.84672" lon="4.80368">
        <ele>403</ele>
        <time>2022-06-06T10:00:26.000Z</time>
      </trkpt>
      <trkpt lat="49.84674" lon="4.80376">
        <ele>403</ele>
        <time>2022-06-06T10:00:27.000Z</time>
      </trkpt>
      <trkpt lat="49.84677" lon="4.80383">
        <ele>403</ele>
        <time>2022-06-06T10:00:28.000Z</time>
      </trkpt>
      <trkpt lat="49.84681" lon="4.80392">
        <ele>402</ele>
        <time>2022-06-06T10:00:29.000Z</time>
      </trkpt>
      <trkpt lat="49.84684" lon="4.804">
        <ele>402</ele>
        <time>2022-06-06T10:00:30.000Z</time>
      </trkpt>
      <trkpt lat="49.84687" lon="4.80408">
        <ele>402</ele>
        <time>2022-06-06T10:00:31.000Z</time>
      </trkpt>
      <trkpt lat="49.84691" lon="4.80416">
        <ele>402</ele>
        <time>2022-06-06T10:00:32.000Z</time>
      </trkpt>
      <trkpt lat="49.84694" lon="4.80424">
        <ele>402</ele>
        <time>2022-06-06T10:00:33.000Z</time>
      </trkpt>
      <trkpt lat="49.84697" lon="4.80432">
        <ele>402</ele>
        <time>2022-06-06T10:00:34.000Z</time>
      </trkpt>
      <trkpt lat="49.84701" lon="4.8044">
        <ele>401</ele>
        <time>2022-06-06T10:00:35.000Z</time>
      </trkpt>
      <trkpt lat="49.84704" lon="4.80448">
        <ele>401</ele>
        <time>2022-06-06T10:00:36.000Z</time>
      </trkpt>
      <trkpt lat="49.84706" lon="4.80455">
        <ele>401</ele>
        <time>2022-06-06T10:00:37.000Z</time>
      </trkpt>
      <trkpt lat="49.84709" lon="4.80462">
        <ele>401</ele>
        <time>2022-06-06T10:00:38.000Z</time>
      </trkpt>
      <trkpt lat="49.84711" lon="4.80469">
        <ele>401</ele>
        <time>2022-06-06T10:00:39.000Z</time>
      </trkpt>
      <trkpt lat="49.84714" lon="4.80475">
        <ele>400</ele>
        <time>2022-06-06T10:00:40.000Z</time>
      </trkpt>
      <trkpt lat="49.84717" lon="4.80483">
        <ele>400</ele>
        <time>2022-06-06T10:00:41.000Z</time>
      </trkpt>
      <trkpt lat="49.84721" lon="4.8049">
        <ele>400</ele>
        <time>2022-06-06T10:00:42.000Z</time>
      </trkpt>
      <trkpt lat="49.84724" lon="4.80497">
        <ele>400</ele>
        <time>2022-06-06T10:00:43.000Z</time>
      </trkpt>
      <trkpt lat="49.84727" lon="4.80505">
        <ele>400</ele>
        <time>2022-06-06T10:00:44.000Z</time>
      </trkpt>
      <trkpt lat="49.8473" lon="4.80512">
        <ele>399</ele>
        <time>2022-06-06T10:00:45.000Z</time>
      </trkpt>
      <trkpt lat="49.84733" lon="4.80519">
        <ele>399</ele>
        <time>2022-06-06T10:00:46.000Z</time>
      </trkpt>
      <trkpt lat="49.84736" lon="4.80527">
        <ele>399</ele>
        <time>2022-06-06T10:00:47.000Z</time>
      </trkpt>
      <trkpt lat="49.8474" lon="4.80534">
        <ele>399</ele>
        <time>2022-06-06T10:00:48.000Z</time>
      </trkpt>
      <trkpt lat="49.84743" lon="4.8054">
        <ele>399</ele>
        <time>2022-06-06T10:00:49.000Z</time>
      </trkpt>
      <trkpt lat="49.84746" lon="4.80546">
        <ele>399</ele>
        <time>2022-06-06T10:00:50.000Z</time>
      </trkpt>
      <trkpt lat="49.84748" lon="4.8055">
        <ele>398</ele>
        <time>2022-06-06T10:00:51.000Z</time>
      </trkpt>
      <trkpt lat="49.8475" lon="4.80553">
        <ele>398</ele>
        <time>2022-06-06T10:00:52.000Z</time>
      </trkpt>
      <trkpt lat="49.84752" lon="4.80555">
        <ele>398</ele>
        <time>2022-06-06T10:00:53.000Z</time>
      </trkpt>
      <trkpt lat="49.84753" lon="4.80557">
        <ele>398</ele>
        <time>2022-06-06T10:00:54.000Z</time>
      </trkpt>
      <trkpt lat="49.84755" lon="4.80559">
        <ele>398</ele>
        <time>2022-06-06T10:00:55.000Z</time>
      </trkpt>
      <trkpt lat="49.84756" lon="4.80562">
        <ele>397</ele>
        <time>2022-06-06T10:00:56.000Z</time>
      </trkpt>
      <trkpt lat="49.84756" lon="4.80564">
        <ele>397</ele>
        <time>2022-06-06T10:00:57.000Z</time>
      </trkpt>
      <trkpt lat="49.84755" lon="4.80567">
        <ele>397</ele>
        <time>2022-06-06T10:00:58.000Z</time>
      </trkpt>
      <trkpt lat="49.84755" lon="4.80571">
        <ele>397</ele>
        <time>2022-06-06T10:00:59.000Z</time>
      </trkpt>
      <trkpt lat="49.84755" lon="4.80576">
        <ele>396</ele>
        <time>2022-06-06T10:01:00.000Z</time>
      </trkpt>
      <trkpt lat="49.84755" lon="4.80582">
        <ele>396</ele>
        <time>2022-06-06T10:01:01.000Z</time>
      </trkpt>
      <trkpt lat="49.84755" lon="4.80588">
        <ele>396</ele>
        <time>2022-06-06T10:01:02.000Z</time>
      </trkpt>
      <trkpt lat="49.84755" lon="4.80593">
        <ele>395</ele>
        <time>2022-06-06T10:01:03.000Z</time>
      </trkpt>
      <trkpt lat="49.84758" lon="4.80599">
        <ele>395</ele>
        <time>2022-06-06T10:01:04.000Z</time>
      </trkpt>
      <trkpt lat="49.84761" lon="4.80604">
        <ele>394</ele>
        <time>2022-06-06T10:01:05.000Z</time>
      </trkpt>
      <trkpt lat="49.84764" lon="4.8061">
        <ele>394</ele>
        <time>2022-06-06T10:01:06.000Z</time>
      </trkpt>
      <trkpt lat="49.84767" lon="4.80617">
        <ele>394</ele>
        <time>2022-06-06T10:01:07.000Z</time>
      </trkpt>
      <trkpt lat="49.8477" lon="4.80624">
        <ele>393</ele>
        <time>2022-06-06T10:01:08.000Z</time>
      </trkpt>
      <trkpt lat="49.84773" lon="4.80631">
        <ele>393</ele>
        <time>2022-06-06T10:01:09.000Z</time>
      </trkpt>
      <trkpt lat="49.84777" lon="4.80638">
        <ele>393</ele>
        <time>2022-06-06T10:01:10.000Z</time>
      </trkpt>
      <trkpt lat="49.8478" lon="4.80645">
        <ele>392</ele>
        <time>2022-06-06T10:01:11.000Z</time>
      </trkpt>
      <trkpt lat="49.84784" lon="4.80652">
        <ele>392</ele>
        <time>2022-06-06T10:01:12.000Z</time>
      </trkpt>
      <trkpt lat="49.84788" lon="4.80659">
        <ele>392</ele>
        <time>2022-06-06T10:01:13.000Z</time>
      </trkpt>
      <trkpt lat="49.84791" lon="4.80666">
        <ele>392</ele>
        <time>2022-06-06T10:01:14.000Z</time>
      </trkpt>
      <trkpt lat="49.84794" lon="4.80673">
        <ele>391</ele>
        <time>2022-06-06T10:01:15.000Z</time>
      </trkpt>
      <trkpt lat="49.84797" lon="4.8068">
        <ele>391</ele>
        <time>2022-06-06T10:01:16.000Z</time>
      </trkpt>
      <trkpt lat="49.84801" lon="4.80687">
        <ele>391</ele>
        <time>2022-06-06T10:01:17.000Z</time>
      </trkpt>
      <trkpt lat="49.84804" lon="4.80693">
        <ele>391</ele>
        <time>2022-06-06T10:01:18.000Z</time>
      </trkpt>
      <trkpt lat="49.84808" lon="4.80699">
        <ele>391</ele>
        <time>2022-06-06T10:01:19.000Z</time>
      </trkpt>
      <trkpt lat="49.84811" lon="4.80703">
        <ele>390</ele>
        <time>2022-06-06T10:01:20.000Z</time>
      </trkpt>
      <trkpt lat="49.84815" lon="4.80707">
        <ele>390</ele>
        <time>2022-06-06T10:01:21.000Z</time>
      </trkpt>
      <trkpt lat="49.84818" lon="4.80712">
        <ele>390</ele>
        <time>2022-06-06T10:01:22.000Z</time>
      </trkpt>
      <trkpt lat="49.84819" lon="4.80717">
        <ele>390</ele>
        <time>2022-06-06T10:01:23.000Z</time>
      </trkpt>
      <trkpt lat="49.8482" lon="4.80723">
        <ele>389</ele>
        <time>2022-06-06T10:01:24.000Z</time>
      </trkpt>
      <trkpt lat="49.84822" lon="4.80729">
        <ele>389</ele>
        <time>2022-06-06T10:01:25.000Z</time>
      </trkpt>
      <trkpt lat="49.84824" lon="4.80734">
        <ele>389</ele>
        <time>2022-06-06T10:01:26.000Z</time>
      </trkpt>
      <trkpt lat="49.84826" lon="4.80741">
        <ele>389</ele>
        <time>2022-06-06T10:01:27.000Z</time>
      </trkpt>
      <trkpt lat="49.84829" lon="4.80747">
        <ele>389</ele>
        <time>2022-06-06T10:01:28.000Z</time>
      </trkpt>
      <trkpt lat="49.84833" lon="4.80755">
        <ele>388</ele>
        <time>2022-06-06T10:01:29.000Z</time>
      </trkpt>
      <trkpt lat="49.84837" lon="4.80761">
        <ele>388</ele>
        <time>2022-06-06T10:01:30.000Z</time>
      </trkpt>
      <trkpt lat="49.84841" lon="4.80767">
        <ele>388</ele>
        <time>2022-06-06T10:01:31.000Z</time>
      </trkpt>
      <trkpt lat="49.84845" lon="4.80773">
        <ele>388</ele>
        <time>2022-06-06T10:01:32.000Z</time>
      </trkpt>
      <trkpt lat="49.84849" lon="4.80779">
        <ele>388</ele>
        <time>2022-06-06T10:01:33.000Z</time>
      </trkpt>
      <trkpt lat="49.84853" lon="4.80784">
        <ele>388</ele>
        <time>2022-06-06T10:01:34.000Z</time>
      </trkpt>
      <trkpt lat="49.84857" lon="4.80787">
        <ele>387</ele>
        <time>2022-06-06T10:01:35.000Z</time>
      </trkpt>
      <trkpt lat="49.84861" lon="4.80791">
        <ele>387</ele>
        <time>2022-06-06T10:01:36.000Z</time>
      </trkpt>
      <trkpt lat="49.84864" lon="4.80796">
        <ele>387</ele>
        <time>2022-06-06T10:01:37.000Z</time>
      </trkpt>
      <trkpt lat="49.84869" lon="4.808">
        <ele>387</ele>
        <time>2022-06-06T10:01:38.000Z</time>
      </trkpt>
      <trkpt lat="49.84873" lon="4.80802">
        <ele>387</ele>
        <time>2022-06-06T10:01:39.000Z</time>
      </trkpt>
      <trkpt lat="49.84878" lon="4.80807">
        <ele>387</ele>
        <time>2022-06-06T10:01:40.000Z</time>
      </trkpt>
      <trkpt lat="49.84882" lon="4.80812">
        <ele>387</ele>
        <time>2022-06-06T10:01:41.000Z</time>
      </trkpt>
      <trkpt lat="49.84887" lon="4.80818">
        <ele>387</ele>
        <time>2022-06-06T10:01:42.000Z</time>
      </trkpt>
      <trkpt lat="49.84891" lon="4.80825">
        <ele>387</ele>
        <time>2022-06-06T10:01:43.000Z</time>
      </trkpt>
      <trkpt lat="49.84895" lon="4.80833">
        <ele>387</ele>
        <time>2022-06-06T10:01:44.000Z</time>
      </trkpt>
      <trkpt lat="49.84899" lon="4.80841">
        <ele>387</ele>
        <time>2022-06-06T10:01:45.000Z</time>
      </trkpt>
      <trkpt lat="49.84902" lon="4.80849">
        <ele>386</ele>
        <time>2022-06-06T10:01:46.000Z</time>
      </trkpt>
      <trkpt lat="49.84906" lon="4.80857">
        <ele>386</ele>
        <time>2022-06-06T10:01:47.000Z</time>
      </trkpt>
      <trkpt lat="49.8491" lon="4.80865">
        <ele>386</ele>
        <time>2022-06-06T10:01:48.000Z</time>
      </trkpt>
      <trkpt lat="49.84914" lon="4.80873">
        <ele>386</ele>
        <time>2022-06-06T10:01:49.000Z</time>
      </trkpt>
      <trkpt lat="49.84918" lon="4.80881">
        <ele>386</ele>
        <time>2022-06-06T10:01:50.000Z</time>
      </trkpt>
      <trkpt lat="49.8492" lon="4.80891">
        <ele>387</ele>
        <time>2022-06-06T10:01:51.000Z</time>
      </trkpt>
      <trkpt lat="49.84922" lon="4.809">
        <ele>387</ele>
        <time>2022-06-06T10:01:52.000Z</time>
      </trkpt>
      <trkpt lat="49.84923" lon="4.80909">
        <ele>387</ele>
        <time>2022-06-06T10:01:53.000Z</time>
      </trkpt>
      <trkpt lat="49.84923" lon="4.80917">
        <ele>387</ele>
        <time>2022-06-06T10:01:54.000Z</time>
      </trkpt>
      <trkpt lat="49.84924" lon="4.80925">
        <ele>387</ele>
        <time>2022-06-06T10:01:55.000Z</time>
      </trkpt>
      <trkpt lat="49.84925" lon="4.80933">
        <ele>387</ele>
        <time>2022-06-06T10:01:56.000Z</time>
      </trkpt>
      <trkpt lat="49.84927" lon="4.80939">
        <ele>387</ele>
        <time>2022-06-06T10:01:57.000Z</time>
      </trkpt>
      <trkpt lat="49.84929" lon="4.80946">
        <ele>387</ele>
        <time>2022-06-06T10:01:58.000Z</time>
      </trkpt>
      <trkpt lat="49.84931" lon="4.80953">
        <ele>387</ele>
        <time>2022-06-06T10:01:59.000Z</time>
      </trkpt>
      <trkpt lat="49.84933" lon="4.80959">
        <ele>387</ele>
        <time>2022-06-06T10:02:00.000Z</time>
      </trkpt>
      <trkpt lat="49.84936" lon="4.80966">
        <ele>387</ele>
        <time>2022-06-06T10:02:01.000Z</time>
      </trkpt>
      <trkpt lat="49.84939" lon="4.80972">
        <ele>387</ele>
        <time>2022-06-06T10:02:02.000Z</time>
      </trkpt>
      <trkpt lat="49.84941" lon="4.80979">
        <ele>387</ele>
        <time>2022-06-06T10:02:03.000Z</time>
      </trkpt>
      <trkpt lat="49.84944" lon="4.80986">
        <ele>387</ele>
        <time>2022-06-06T10:02:04.000Z</time>
      </trkpt>
      <trkpt lat="49.84946" lon="4.80993">
        <ele>387</ele>
        <time>2022-06-06T10:02:05.000Z</time>
      </trkpt>
      <trkpt lat="49.84948" lon="4.81">
        <ele>387</ele>
        <time>2022-06-06T10:02:06.000Z</time>
      </trkpt>
      <trkpt lat="49.8495" lon="4.81006">
        <ele>387</ele>
        <time>2022-06-06T10:02:07.000Z</time>
      </trkpt>
      <trkpt lat="49.84953" lon="4.81013">
        <ele>387</ele>
        <time>2022-06-06T10:02:08.000Z</time>
      </trkpt>
      <trkpt lat="49.84955" lon="4.8102">
        <ele>388</ele>
        <time>2022-06-06T10:02:09.000Z</time>
      </trkpt>
      <trkpt lat="49.84957" lon="4.81027">
        <ele>388</ele>
        <time>2022-06-06T10:02:10.000Z</time>
      </trkpt>
      <trkpt lat="49.8496" lon="4.81033">
        <ele>388</ele>
        <time>2022-06-06T10:02:11.000Z</time>
      </trkpt>
      <trkpt lat="49.84962" lon="4.81039">
        <ele>388</ele>
        <time>2022-06-06T10:02:12.000Z</time>
      </trkpt>
      <trkpt lat="49.84964" lon="4.81045">
        <ele>388</ele>
        <time>2022-06-06T10:02:13.000Z</time>
      </trkpt>
      <trkpt lat="49.84967" lon="4.81052">
        <ele>388</ele>
        <time>2022-06-06T10:02:14.000Z</time>
      </trkpt>
      <trkpt lat="49.84969" lon="4.81058">
        <ele>388</ele>
        <time>2022-06-06T10:02:15.000Z</time>
      </trkpt>
      <trkpt lat="49.84971" lon="4.81065">
        <ele>388</ele>
        <time>2022-06-06T10:02:16.000Z</time>
      </trkpt>
      <trkpt lat="49.84974" lon="4.81072">
        <ele>388</ele>
        <time>2022-06-06T10:02:17.000Z</time>
      </trkpt>
      <trkpt lat="49.84976" lon="4.81078">
        <ele>389</ele>
        <time>2022-06-06T10:02:18.000Z</time>
      </trkpt>
      <trkpt lat="49.84979" lon="4.81084">
        <ele>389</ele>
        <time>2022-06-06T10:02:19.000Z</time>
      </trkpt>
      <trkpt lat="49.84981" lon="4.81091">
        <ele>389</ele>
        <time>2022-06-06T10:02:20.000Z</time>
      </trkpt>
      <trkpt lat="49.84983" lon="4.81097">
        <ele>389</ele>
        <time>2022-06-06T10:02:21.000Z</time>
      </trkpt>
      <trkpt lat="49.84985" lon="4.81103">
        <ele>389</ele>
        <time>2022-06-06T10:02:22.000Z</time>
      </trkpt>
      <trkpt lat="49.84987" lon="4.81109">
        <ele>389</ele>
        <time>2022-06-06T10:02:23.000Z</time>
      </trkpt>
      <trkpt lat="49.8499" lon="4.81115">
        <ele>389</ele>
        <time>2022-06-06T10:02:24.000Z</time>
      </trkpt>
      <trkpt lat="49.84992" lon="4.8112">
        <ele>390</ele>
        <time>2022-06-06T10:02:25.000Z</time>
      </trkpt>
      <trkpt lat="49.84995" lon="4.81126">
        <ele>390</ele>
        <time>2022-06-06T10:02:26.000Z</time>
      </trkpt>
      <trkpt lat="49.84997" lon="4.81132">
        <ele>390</ele>
        <time>2022-06-06T10:02:27.000Z</time>
      </trkpt>
      <trkpt lat="49.85" lon="4.81138">
        <ele>390</ele>
        <time>2022-06-06T10:02:28.000Z</time>
      </trkpt>
      <trkpt lat="49.85003" lon="4.81143">
        <ele>390</ele>
        <time>2022-06-06T10:02:29.000Z</time>
      </trkpt>
      <trkpt lat="49.85006" lon="4.81149">
        <ele>390</ele>
        <time>2022-06-06T10:02:30.000Z</time>
      </trkpt>
      <trkpt lat="49.85009" lon="4.81154">
        <ele>390</ele>
        <time>2022-06-06T10:02:31.000Z</time>
      </trkpt>
      <trkpt lat="49.85012" lon="4.81158">
        <ele>390</ele>
        <time>2022-06-06T10:02:32.000Z</time>
      </trkpt>
      <trkpt lat="49.85016" lon="4.81164">
        <ele>390</ele>
        <time>2022-06-06T10:02:33.000Z</time>
      </trkpt>
      <trkpt lat="49.85019" lon="4.81169">
        <ele>390</ele>
        <time>2022-06-06T10:02:34.000Z</time>
      </trkpt>
      <trkpt lat="49.85023" lon="4.81175">
        <ele>390</ele>
        <time>2022-06-06T10:02:35.000Z</time>
      </trkpt>
      <trkpt lat="49.85027" lon="4.8118">
        <ele>390</ele>
        <time>2022-06-06T10:02:36.000Z</time>
      </trkpt>
      <trkpt lat="49.85031" lon="4.81186">
        <ele>390</ele>
        <time>2022-06-06T10:02:37.000Z</time>
      </trkpt>
      <trkpt lat="49.85034" lon="4.81192">
        <ele>390</ele>
        <time>2022-06-06T10:02:38.000Z</time>
      </trkpt>
      <trkpt lat="49.85038" lon="4.81198">
        <ele>390</ele>
        <time>2022-06-06T10:02:39.000Z</time>
      </trkpt>
      <trkpt lat="49.85042" lon="4.81204">
        <ele>391</ele>
        <time>2022-06-06T10:02:40.000Z</time>
      </trkpt>
      <trkpt lat="49.85046" lon="4.8121">
        <ele>391</ele>
        <time>2022-06-06T10:02:41.000Z</time>
      </trkpt>
      <trkpt lat="49.8505" lon="4.81215">
        <ele>391</ele>
        <time>2022-06-06T10:02:42.000Z</time>
      </trkpt>
      <trkpt lat="49.85054" lon="4.81221">
        <ele>391</ele>
        <time>2022-06-06T10:02:43.000Z</time>
      </trkpt>
      <trkpt lat="49.85057" lon="4.81227">
        <ele>391</ele>
        <time>2022-06-06T10:02:44.000Z</time>
      </trkpt>
      <trkpt lat="49.85061" lon="4.81232">
        <ele>391</ele>
        <time>2022-06-06T10:02:45.000Z</time>
      </trkpt>
      <trkpt lat="49.85065" lon="4.81237">
        <ele>391</ele>
        <time>2022-06-06T10:02:46.000Z</time>
      </trkpt>
      <trkpt lat="49.85069" lon="4.81243">
        <ele>391</ele>
        <time>2022-06-06T10:02:47.000Z</time>
      </trkpt>
      <trkpt lat="49.85073" lon="4.81249">
        <ele>391</ele>
        <time>2022-06-06T10:02:48.000Z</time>
      </trkpt>
      <trkpt lat="49.85077" lon="4.81255">
        <ele>391</ele>
        <time>2022-06-06T10:02:49.000Z</time>
      </trkpt>
      <trkpt lat="49.8508" lon="4.81261">
        <ele>391</ele>
        <time>2022-06-06T10:02:50.000Z</time>
      </trkpt>
      <trkpt lat="49.85084" lon="4.81266">
        <ele>391</ele>
        <time>2022-06-06T10:02:51.000Z</time>
      </trkpt>
      <trkpt lat="49.85087" lon="4.81271">
        <ele>391</ele>
        <time>2022-06-06T10:02:52.000Z</time>
      </trkpt>
      <trkpt lat="49.85091" lon="4.81276">
        <ele>391</ele>
        <time>2022-06-06T10:02:53.000Z</time>
      </trkpt>
      <trkpt lat="49.85095" lon="4.81281">
        <ele>391</ele>
        <time>2022-06-06T10:02:54.000Z</time>
      </trkpt>
      <trkpt lat="49.85099" lon="4.81286">
        <ele>391</ele>
        <time>2022-06-06T10:02:55.000Z</time>
      </trkpt>
      <trkpt lat="49.85101" lon="4.81291">
        <ele>391</ele>
        <time>2022-06-06T10:02:56.000Z</time>
      </trkpt>
      <trkpt lat="49.85104" lon="4.81296">
        <ele>391</ele>
        <time>2022-06-06T10:02:57.000Z</time>
      </trkpt>
      <trkpt lat="49.85107" lon="4.81302">
        <ele>391</ele>
        <time>2022-06-06T10:02:58.000Z</time>
      </trkpt>
      <trkpt lat="49.85109" lon="4.81308">
        <ele>391</ele>
        <time>2022-06-06T10:02:59.000Z</time>
      </trkpt>
      <trkpt lat="49.85112" lon="4.81314">
        <ele>391</ele>
        <time>2022-06-06T10:03:00.000Z</time>
      </trkpt>
      <trkpt lat="49.85115" lon="4.81319">
        <ele>391</ele>
        <time>2022-06-06T10:03:01.000Z</time>
      </trkpt>
      <trkpt lat="49.85117" lon="4.81324">
        <ele>391</ele>
        <time>2022-06-06T10:03:02.000Z</time>
      </trkpt>
      <trkpt lat="49.8512" lon="4.81329">
        <ele>391</ele>
        <time>2022-06-06T10:03:03.000Z</time>
      </trkpt>
      <trkpt lat="49.85122" lon="4.81335">
        <ele>391</ele>
        <time>2022-06-06T10:03:04.000Z</time>
      </trkpt>
      <trkpt lat="49.85125" lon="4.8134">
        <ele>391</ele>
        <time>2022-06-06T10:03:05.000Z</time>
      </trkpt>
      <trkpt lat="49.85128" lon="4.81344">
        <ele>391</ele>
        <time>2022-06-06T10:03:06.000Z</time>
      </trkpt>
      <trkpt lat="49.8513" lon="4.8135">
        <ele>391</ele>
        <time>2022-06-06T10:03:07.000Z</time>
      </trkpt>
      <trkpt lat="49.85133" lon="4.81356">
        <ele>391</ele>
        <time>2022-06-06T10:03:08.000Z</time>
      </trkpt>
      <trkpt lat="49.85135" lon="4.81362">
        <ele>391</ele>
        <time>2022-06-06T10:03:09.000Z</time>
      </trkpt>
      <trkpt lat="49.85138" lon="4.81369">
        <ele>391</ele>
        <time>2022-06-06T10:03:10.000Z</time>
      </trkpt>
      <trkpt lat="49.8514" lon="4.81376">
        <ele>391</ele>
        <time>2022-06-06T10:03:11.000Z</time>
      </trkpt>
      <trkpt lat="49.85143" lon="4.81382">
        <ele>391</ele>
        <time>2022-06-06T10:03:12.000Z</time>
      </trkpt>
      <trkpt lat="49.85146" lon="4.81388">
        <ele>391</ele>
        <time>2022-06-06T10:03:13.000Z</time>
      </trkpt>
      <trkpt lat="49.85148" lon="4.81394">
        <ele>392</ele>
        <time>2022-06-06T10:03:14.000Z</time>
      </trkpt>
      <trkpt lat="49.85149" lon="4.81401">
        <ele>392</ele>
        <time>2022-06-06T10:03:15.000Z</time>
      </trkpt>
      <trkpt lat="49.8515" lon="4.81409">
        <ele>392</ele>
        <time>2022-06-06T10:03:16.000Z</time>
      </trkpt>
      <trkpt lat="49.85151" lon="4.81417">
        <ele>392</ele>
        <time>2022-06-06T10:03:17.000Z</time>
      </trkpt>
      <trkpt lat="49.85152" lon="4.81426">
        <ele>392</ele>
        <time>2022-06-06T10:03:18.000Z</time>
      </trkpt>
      <trkpt lat="49.85153" lon="4.81434">
        <ele>392</ele>
        <time>2022-06-06T10:03:19.000Z</time>
      </trkpt>
      <trkpt lat="49.85153" lon="4.81441">
        <ele>392</ele>
        <time>2022-06-06T10:03:20.000Z</time>
      </trkpt>
      <trkpt lat="49.85154" lon="4.81449">
        <ele>392</ele>
        <time>2022-06-06T10:03:21.000Z</time>
      </trkpt>
      <trkpt lat="49.85153" lon="4.81457">
        <ele>392</ele>
        <time>2022-06-06T10:03:22.000Z</time>
      </trkpt>
      <trkpt lat="49.85152" lon="4.81464">
        <ele>392</ele>
        <time>2022-06-06T10:03:23.000Z</time>
      </trkpt>
      <trkpt lat="49.85151" lon="4.81472">
        <ele>392</ele>
        <time>2022-06-06T10:03:24.000Z</time>
      </trkpt>
      <trkpt lat="49.8515" lon="4.8148">
        <ele>392</ele>
        <time>2022-06-06T10:03:25.000Z</time>
      </trkpt>
      <trkpt lat="49.8515" lon="4.81488">
        <ele>392</ele>
        <time>2022-06-06T10:03:26.000Z</time>
      </trkpt>
      <trkpt lat="49.85148" lon="4.81496">
        <ele>393</ele>
        <time>2022-06-06T10:03:27.000Z</time>
      </trkpt>
      <trkpt lat="49.85148" lon="4.81504">
        <ele>393</ele>
        <time>2022-06-06T10:03:28.000Z</time>
      </trkpt>
      <trkpt lat="49.85147" lon="4.81511">
        <ele>393</ele>
        <time>2022-06-06T10:03:29.000Z</time>
      </trkpt>
      <trkpt lat="49.85146" lon="4.81518">
        <ele>393</ele>
        <time>2022-06-06T10:03:30.000Z</time>
      </trkpt>
      <trkpt lat="49.85145" lon="4.81524">
        <ele>393</ele>
        <time>2022-06-06T10:03:31.000Z</time>
      </trkpt>
      <trkpt lat="49.85143" lon="4.81531">
        <ele>393</ele>
        <time>2022-06-06T10:03:32.000Z</time>
      </trkpt>
      <trkpt lat="49.85142" lon="4.81538">
        <ele>393</ele>
        <time>2022-06-06T10:03:33.000Z</time>
      </trkpt>
      <trkpt lat="49.85141" lon="4.81545">
        <ele>394</ele>
        <time>2022-06-06T10:03:34.000Z</time>
      </trkpt>
      <trkpt lat="49.85141" lon="4.81553">
        <ele>394</ele>
        <time>2022-06-06T10:03:35.000Z</time>
      </trkpt>
      <trkpt lat="49.8514" lon="4.81561">
        <ele>394</ele>
        <time>2022-06-06T10:03:36.000Z</time>
      </trkpt>
      <trkpt lat="49.8514" lon="4.81568">
        <ele>394</ele>
        <time>2022-06-06T10:03:37.000Z</time>
      </trkpt>
      <trkpt lat="49.85138" lon="4.81575">
        <ele>394</ele>
        <time>2022-06-06T10:03:38.000Z</time>
      </trkpt>
      <trkpt lat="49.85137" lon="4.81582">
        <ele>394</ele>
        <time>2022-06-06T10:03:39.000Z</time>
      </trkpt>
      <trkpt lat="49.85136" lon="4.81588">
        <ele>394</ele>
        <time>2022-06-06T10:03:40.000Z</time>
      </trkpt>
      <trkpt lat="49.85134" lon="4.81595">
        <ele>394</ele>
        <time>2022-06-06T10:03:41.000Z</time>
      </trkpt>
      <trkpt lat="49.85134" lon="4.81602">
        <ele>394</ele>
        <time>2022-06-06T10:03:42.000Z</time>
      </trkpt>
      <trkpt lat="49.85133" lon="4.81609">
        <ele>394</ele>
        <time>2022-06-06T10:03:43.000Z</time>
      </trkpt>
      <trkpt lat="49.85132" lon="4.81616">
        <ele>395</ele>
        <time>2022-06-06T10:03:44.000Z</time>
      </trkpt>
      <trkpt lat="49.85133" lon="4.81623">
        <ele>395</ele>
        <time>2022-06-06T10:03:45.000Z</time>
      </trkpt>
      <trkpt lat="49.85133" lon="4.8163">
        <ele>395</ele>
        <time>2022-06-06T10:03:46.000Z</time>
      </trkpt>
      <trkpt lat="49.85133" lon="4.81637">
        <ele>395</ele>
        <time>2022-06-06T10:03:47.000Z</time>
      </trkpt>
      <trkpt lat="49.85135" lon="4.81645">
        <ele>395</ele>
        <time>2022-06-06T10:03:48.000Z</time>
      </trkpt>
      <trkpt lat="49.85136" lon="4.81653">
        <ele>395</ele>
        <time>2022-06-06T10:03:49.000Z</time>
      </trkpt>
      <trkpt lat="49.85137" lon="4.81661">
        <ele>395</ele>
        <time>2022-06-06T10:03:50.000Z</time>
      </trkpt>
      <trkpt lat="49.85139" lon="4.81668">
        <ele>395</ele>
        <time>2022-06-06T10:03:51.000Z</time>
      </trkpt>
      <trkpt lat="49.85141" lon="4.81676">
        <ele>395</ele>
        <time>2022-06-06T10:03:52.000Z</time>
      </trkpt>
      <trkpt lat="49.85142" lon="4.81683">
        <ele>395</ele>
        <time>2022-06-06T10:03:53.000Z</time>
      </trkpt>
      <trkpt lat="49.85144" lon="4.8169">
        <ele>395</ele>
        <time>2022-06-06T10:03:54.000Z</time>
      </trkpt>
      <trkpt lat="49.85146" lon="4.81697">
        <ele>395</ele>
        <time>2022-06-06T10:03:55.000Z</time>
      </trkpt>
      <trkpt lat="49.85147" lon="4.81705">
        <ele>395</ele>
        <time>2022-06-06T10:03:56.000Z</time>
      </trkpt>
      <trkpt lat="49.85149" lon="4.81713">
        <ele>395</ele>
        <time>2022-06-06T10:03:57.000Z</time>
      </trkpt>
      <trkpt lat="49.85151" lon="4.81721">
        <ele>395</ele>
        <time>2022-06-06T10:03:58.000Z</time>
      </trkpt>
      <trkpt lat="49.85153" lon="4.8173">
        <ele>395</ele>
        <time>2022-06-06T10:03:59.000Z</time>
      </trkpt>
      <trkpt lat="49.85156" lon="4.81739">
        <ele>395</ele>
        <time>2022-06-06T10:04:00.000Z</time>
      </trkpt>
      <trkpt lat="49.85158" lon="4.81749">
        <ele>395</ele>
        <time>2022-06-06T10:04:01.000Z</time>
      </trkpt>
      <trkpt lat="49.85161" lon="4.81758">
        <ele>395</ele>
        <time>2022-06-06T10:04:02.000Z</time>
      </trkpt>
      <trkpt lat="49.85164" lon="4.81767">
        <ele>395</ele>
        <time>2022-06-06T10:04:03.000Z</time>
      </trkpt>
      <trkpt lat="49.85166" lon="4.81776">
        <ele>395</ele>
        <time>2022-06-06T10:04:04.000Z</time>
      </trkpt>
      <trkpt lat="49.8517" lon="4.81786">
        <ele>395</ele>
        <time>2022-06-06T10:04:05.000Z</time>
      </trkpt>
      <trkpt lat="49.85173" lon="4.81795">
        <ele>396</ele>
        <time>2022-06-06T10:04:06.000Z</time>
      </trkpt>
      <trkpt lat="49.85176" lon="4.81805">
        <ele>396</ele>
        <time>2022-06-06T10:04:07.000Z</time>
      </trkpt>
      <trkpt lat="49.85178" lon="4.81816">
        <ele>396</ele>
        <time>2022-06-06T10:04:08.000Z</time>
      </trkpt>
      <trkpt lat="49.8518" lon="4.81826">
        <ele>396</ele>
        <time>2022-06-06T10:04:09.000Z</time>
      </trkpt>
      <trkpt lat="49.85182" lon="4.81838">
        <ele>395</ele>
        <time>2022-06-06T10:04:10.000Z</time>
      </trkpt>
      <trkpt lat="49.85184" lon="4.81849">
        <ele>395</ele>
        <time>2022-06-06T10:04:11.000Z</time>
      </trkpt>
      <trkpt lat="49.85186" lon="4.8186">
        <ele>395</ele>
        <time>2022-06-06T10:04:12.000Z</time>
      </trkpt>
      <trkpt lat="49.85187" lon="4.81872">
        <ele>395</ele>
        <time>2022-06-06T10:04:13.000Z</time>
      </trkpt>
      <trkpt lat="49.85188" lon="4.81883">
        <ele>395</ele>
        <time>2022-06-06T10:04:14.000Z</time>
      </trkpt>
      <trkpt lat="49.85189" lon="4.81894">
        <ele>395</ele>
        <time>2022-06-06T10:04:15.000Z</time>
      </trkpt>
      <trkpt lat="49.85189" lon="4.81904">
        <ele>395</ele>
        <time>2022-06-06T10:04:16.000Z</time>
      </trkpt>
      <trkpt lat="49.8519" lon="4.81916">
        <ele>395</ele>
        <time>2022-06-06T10:04:17.000Z</time>
      </trkpt>
      <trkpt lat="49.8519" lon="4.81928">
        <ele>394</ele>
        <time>2022-06-06T10:04:18.000Z</time>
      </trkpt>
      <trkpt lat="49.8519" lon="4.81941">
        <ele>394</ele>
        <time>2022-06-06T10:04:19.000Z</time>
      </trkpt>
      <trkpt lat="49.85191" lon="4.81952">
        <ele>394</ele>
        <time>2022-06-06T10:04:20.000Z</time>
      </trkpt>
      <trkpt lat="49.85191" lon="4.81964">
        <ele>394</ele>
        <time>2022-06-06T10:04:21.000Z</time>
      </trkpt>
      <trkpt lat="49.85192" lon="4.81974">
        <ele>393</ele>
        <time>2022-06-06T10:04:22.000Z</time>
      </trkpt>
      <trkpt lat="49.85193" lon="4.81984">
        <ele>393</ele>
        <time>2022-06-06T10:04:23.000Z</time>
      </trkpt>
      <trkpt lat="49.85194" lon="4.81994">
        <ele>393</ele>
        <time>2022-06-06T10:04:24.000Z</time>
      </trkpt>
      <trkpt lat="49.85196" lon="4.82004">
        <ele>393</ele>
        <time>2022-06-06T10:04:25.000Z</time>
      </trkpt>
      <trkpt lat="49.85198" lon="4.82013">
        <ele>392</ele>
        <time>2022-06-06T10:04:26.000Z</time>
      </trkpt>
      <trkpt lat="49.85199" lon="4.82023">
        <ele>392</ele>
        <time>2022-06-06T10:04:27.000Z</time>
      </trkpt>
      <trkpt lat="49.85199" lon="4.82032">
        <ele>392</ele>
        <time>2022-06-06T10:04:28.000Z</time>
      </trkpt>
      <trkpt lat="49.852" lon="4.82041">
        <ele>391</ele>
        <time>2022-06-06T10:04:29.000Z</time>
      </trkpt>
      <trkpt lat="49.85201" lon="4.8205">
        <ele>391</ele>
        <time>2022-06-06T10:04:30.000Z</time>
      </trkpt>
      <trkpt lat="49.85203" lon="4.82059">
        <ele>391</ele>
        <time>2022-06-06T10:04:31.000Z</time>
      </trkpt>
      <trkpt lat="49.85205" lon="4.82069">
        <ele>390</ele>
        <time>2022-06-06T10:04:32.000Z</time>
      </trkpt>
      <trkpt lat="49.85207" lon="4.8208">
        <ele>390</ele>
        <time>2022-06-06T10:04:33.000Z</time>
      </trkpt>
      <trkpt lat="49.85209" lon="4.8209">
        <ele>390</ele>
        <time>2022-06-06T10:04:34.000Z</time>
      </trkpt>
      <trkpt lat="49.85209" lon="4.82099">
        <ele>389</ele>
        <time>2022-06-06T10:04:35.000Z</time>
      </trkpt>
      <trkpt lat="49.8521" lon="4.82109">
        <ele>389</ele>
        <time>2022-06-06T10:04:36.000Z</time>
      </trkpt>
      <trkpt lat="49.85211" lon="4.82119">
        <ele>389</ele>
        <time>2022-06-06T10:04:37.000Z</time>
      </trkpt>
      <trkpt lat="49.85213" lon="4.82131">
        <ele>388</ele>
        <time>2022-06-06T10:04:38.000Z</time>
      </trkpt>
      <trkpt lat="49.85214" lon="4.82142">
        <ele>388</ele>
        <time>2022-06-06T10:04:39.000Z</time>
      </trkpt>
      <trkpt lat="49.85216" lon="4.82153">
        <ele>388</ele>
        <time>2022-06-06T10:04:40.000Z</time>
      </trkpt>
      <trkpt lat="49.85217" lon="4.82164">
        <ele>388</ele>
        <time>2022-06-06T10:04:41.000Z</time>
      </trkpt>
      <trkpt lat="49.85219" lon="4.82174">
        <ele>387</ele>
        <time>2022-06-06T10:04:42.000Z</time>
      </trkpt>
      <trkpt lat="49.8522" lon="4.82183">
        <ele>387</ele>
        <time>2022-06-06T10:04:43.000Z</time>
      </trkpt>
      <trkpt lat="49.85222" lon="4.82192">
        <ele>387</ele>
        <time>2022-06-06T10:04:44.000Z</time>
      </trkpt>
      <trkpt lat="49.85224" lon="4.82202">
        <ele>387</ele>
        <time>2022-06-06T10:04:45.000Z</time>
      </trkpt>
      <trkpt lat="49.85226" lon="4.82212">
        <ele>386</ele>
        <time>2022-06-06T10:04:46.000Z</time>
      </trkpt>
      <trkpt lat="49.85227" lon="4.82223">
        <ele>386</ele>
        <time>2022-06-06T10:04:47.000Z</time>
      </trkpt>
      <trkpt lat="49.85228" lon="4.82235">
        <ele>385</ele>
        <time>2022-06-06T10:04:48.000Z</time>
      </trkpt>
      <trkpt lat="49.85229" lon="4.82247">
        <ele>385</ele>
        <time>2022-06-06T10:04:49.000Z</time>
      </trkpt>
      <trkpt lat="49.85229" lon="4.82258">
        <ele>385</ele>
        <time>2022-06-06T10:04:50.000Z</time>
      </trkpt>
      <trkpt lat="49.85229" lon="4.82268">
        <ele>384</ele>
        <time>2022-06-06T10:04:51.000Z</time>
      </trkpt>
      <trkpt lat="49.85229" lon="4.82279">
        <ele>384</ele>
        <time>2022-06-06T10:04:52.000Z</time>
      </trkpt>
      <trkpt lat="49.8523" lon="4.82291">
        <ele>383</ele>
        <time>2022-06-06T10:04:53.000Z</time>
      </trkpt>
      <trkpt lat="49.85231" lon="4.82302">
        <ele>383</ele>
        <time>2022-06-06T10:04:54.000Z</time>
      </trkpt>
      <trkpt lat="49.85232" lon="4.82314">
        <ele>382</ele>
        <time>2022-06-06T10:04:55.000Z</time>
      </trkpt>
      <trkpt lat="49.85233" lon="4.82326">
        <ele>381</ele>
        <time>2022-06-06T10:04:56.000Z</time>
      </trkpt>
      <trkpt lat="49.85233" lon="4.82338">
        <ele>381</ele>
        <time>2022-06-06T10:04:57.000Z</time>
      </trkpt>
      <trkpt lat="49.85235" lon="4.8235">
        <ele>380</ele>
        <time>2022-06-06T10:04:58.000Z</time>
      </trkpt>
      <trkpt lat="49.85236" lon="4.82362">
        <ele>379</ele>
        <time>2022-06-06T10:04:59.000Z</time>
      </trkpt>
      <trkpt lat="49.85237" lon="4.82373">
        <ele>379</ele>
        <time>2022-06-06T10:05:00.000Z</time>
      </trkpt>
      <trkpt lat="49.85237" lon="4.82382">
        <ele>378</ele>
        <time>2022-06-06T10:05:01.000Z</time>
      </trkpt>
      <trkpt lat="49.85237" lon="4.8239">
        <ele>378</ele>
        <time>2022-06-06T10:05:02.000Z</time>
      </trkpt>
      <trkpt lat="49.85236" lon="4.82397">
        <ele>377</ele>
        <time>2022-06-06T10:05:03.000Z</time>
      </trkpt>
      <trkpt lat="49.85235" lon="4.82403">
        <ele>376</ele>
        <time>2022-06-06T10:05:04.000Z</time>
      </trkpt>
      <trkpt lat="49.85234" lon="4.82408">
        <ele>376</ele>
        <time>2022-06-06T10:05:05.000Z</time>
      </trkpt>
      <trkpt lat="49.85232" lon="4.82414">
        <ele>375</ele>
        <time>2022-06-06T10:05:06.000Z</time>
      </trkpt>
      <trkpt lat="49.85231" lon="4.82419">
        <ele>375</ele>
        <time>2022-06-06T10:05:07.000Z</time>
      </trkpt>
      <trkpt lat="49.8523" lon="4.82424">
        <ele>375</ele>
        <time>2022-06-06T10:05:08.000Z</time>
      </trkpt>
      <trkpt lat="49.85228" lon="4.82429">
        <ele>374</ele>
        <time>2022-06-06T10:05:09.000Z</time>
      </trkpt>
      <trkpt lat="49.85227" lon="4.82434">
        <ele>374</ele>
        <time>2022-06-06T10:05:10.000Z</time>
      </trkpt>
      <trkpt lat="49.85225" lon="4.8244">
        <ele>374</ele>
        <time>2022-06-06T10:05:11.000Z</time>
      </trkpt>
      <trkpt lat="49.85224" lon="4.82445">
        <ele>373</ele>
        <time>2022-06-06T10:05:12.000Z</time>
      </trkpt>
      <trkpt lat="49.85222" lon="4.8245">
        <ele>373</ele>
        <time>2022-06-06T10:05:13.000Z</time>
      </trkpt>
      <trkpt lat="49.8522" lon="4.82455">
        <ele>373</ele>
        <time>2022-06-06T10:05:14.000Z</time>
      </trkpt>
      <trkpt lat="49.85219" lon="4.82459">
        <ele>373</ele>
        <time>2022-06-06T10:05:15.000Z</time>
      </trkpt>
      <trkpt lat="49.85217" lon="4.82463">
        <ele>373</ele>
        <time>2022-06-06T10:05:16.000Z</time>
      </trkpt>
      <trkpt lat="49.85216" lon="4.82466">
        <ele>372</ele>
        <time>2022-06-06T10:05:17.000Z</time>
      </trkpt>
      <trkpt lat="49.85215" lon="4.82469">
        <ele>372</ele>
        <time>2022-06-06T10:05:18.000Z</time>
      </trkpt>
      <trkpt lat="49.85214" lon="4.82473">
        <ele>372</ele>
        <time>2022-06-06T10:05:19.000Z</time>
      </trkpt>
      <trkpt lat="49.85213" lon="4.82476">
        <ele>372</ele>
        <time>2022-06-06T10:05:20.000Z</time>
      </trkpt>
      <trkpt lat="49.85212" lon="4.82479">
        <ele>372</ele>
        <time>2022-06-06T10:05:21.000Z</time>
      </trkpt>
      <trkpt lat="49.8521" lon="4.82482">
        <ele>372</ele>
        <time>2022-06-06T10:05:22.000Z</time>
      </trkpt>
      <trkpt lat="49.8521" lon="4.82485">
        <ele>372</ele>
        <time>2022-06-06T10:05:23.000Z</time>
      </trkpt>
      <trkpt lat="49.85209" lon="4.82489">
        <ele>372</ele>
        <time>2022-06-06T10:05:24.000Z</time>
      </trkpt>
      <trkpt lat="49.85208" lon="4.82492">
        <ele>372</ele>
        <time>2022-06-06T10:05:25.000Z</time>
      </trkpt>
      <trkpt lat="49.85207" lon="4.82495">
        <ele>372</ele>
        <time>2022-06-06T10:05:26.000Z</time>
      </trkpt>
      <trkpt lat="49.85206" lon="4.82498">
        <ele>372</ele>
        <time>2022-06-06T10:05:27.000Z</time>
      </trkpt>
      <trkpt lat="49.85205" lon="4.82501">
        <ele>372</ele>
        <time>2022-06-06T10:05:28.000Z</time>
      </trkpt>
      <trkpt lat="49.85203" lon="4.82503">
        <ele>372</ele>
        <time>2022-06-06T10:05:29.000Z</time>
      </trkpt>
      <trkpt lat="49.85201" lon="4.82505">
        <ele>372</ele>
        <time>2022-06-06T10:05:30.000Z</time>
      </trkpt>
      <trkpt lat="49.85198" lon="4.82507">
        <ele>372</ele>
        <time>2022-06-06T10:05:31.000Z</time>
      </trkpt>
      <trkpt lat="49.85196" lon="4.82509">
        <ele>373</ele>
        <time>2022-06-06T10:05:32.000Z</time>
      </trkpt>
      <trkpt lat="49.85194" lon="4.82511">
        <ele>373</ele>
        <time>2022-06-06T10:05:33.000Z</time>
      </trkpt>
      <trkpt lat="49.85192" lon="4.82513">
        <ele>373</ele>
        <time>2022-06-06T10:05:34.000Z</time>
      </trkpt>
      <trkpt lat="49.85191" lon="4.82515">
        <ele>373</ele>
        <time>2022-06-06T10:05:35.000Z</time>
      </trkpt>
      <trkpt lat="49.85191" lon="4.82517">
        <ele>373</ele>
        <time>2022-06-06T10:05:36.000Z</time>
      </trkpt>
      <trkpt lat="49.8519" lon="4.8252">
        <ele>374</ele>
        <time>2022-06-06T10:05:37.000Z</time>
      </trkpt>
      <trkpt lat="49.85189" lon="4.82522">
        <ele>374</ele>
        <time>2022-06-06T10:05:38.000Z</time>
      </trkpt>
      <trkpt lat="49.85188" lon="4.82525">
        <ele>374</ele>
        <time>2022-06-06T10:05:39.000Z</time>
      </trkpt>
      <trkpt lat="49.85186" lon="4.82527">
        <ele>374</ele>
        <time>2022-06-06T10:05:40.000Z</time>
      </trkpt>
      <trkpt lat="49.85184" lon="4.8253">
        <ele>374</ele>
        <time>2022-06-06T10:05:41.000Z</time>
      </trkpt>
      <trkpt lat="49.85183" lon="4.82532">
        <ele>374</ele>
        <time>2022-06-06T10:05:42.000Z</time>
      </trkpt>
      <trkpt lat="49.85182" lon="4.82534">
        <ele>375</ele>
        <time>2022-06-06T10:05:43.000Z</time>
      </trkpt>
      <trkpt lat="49.85181" lon="4.82537">
        <ele>375</ele>
        <time>2022-06-06T10:05:44.000Z</time>
      </trkpt>
      <trkpt lat="49.8518" lon="4.82539">
        <ele>375</ele>
        <time>2022-06-06T10:05:45.000Z</time>
      </trkpt>
      <trkpt lat="49.85179" lon="4.82541">
        <ele>375</ele>
        <time>2022-06-06T10:05:46.000Z</time>
      </trkpt>
      <trkpt lat="49.85179" lon="4.82544">
        <ele>375</ele>
        <time>2022-06-06T10:05:47.000Z</time>
      </trkpt>
      <trkpt lat="49.85178" lon="4.82546">
        <ele>376</ele>
        <time>2022-06-06T10:05:48.000Z</time>
      </trkpt>
      <trkpt lat="49.85177" lon="4.82548">
        <ele>376</ele>
        <time>2022-06-06T10:05:49.000Z</time>
      </trkpt>
      <trkpt lat="49.85176" lon="4.8255">
        <ele>376</ele>
        <time>2022-06-06T10:05:50.000Z</time>
      </trkpt>
      <trkpt lat="49.85175" lon="4.82553">
        <ele>376</ele>
        <time>2022-06-06T10:05:51.000Z</time>
      </trkpt>
      <trkpt lat="49.85174" lon="4.82555">
        <ele>377</ele>
        <time>2022-06-06T10:05:52.000Z</time>
      </trkpt>
      <trkpt lat="49.85174" lon="4.82557">
        <ele>377</ele>
        <time>2022-06-06T10:05:53.000Z</time>
      </trkpt>
      <trkpt lat="49.85173" lon="4.82559">
        <ele>377</ele>
        <time>2022-06-06T10:05:54.000Z</time>
      </trkpt>
      <trkpt lat="49.85172" lon="4.82561">
        <ele>377</ele>
        <time>2022-06-06T10:05:55.000Z</time>
      </trkpt>
      <trkpt lat="49.85171" lon="4.82562">
        <ele>378</ele>
        <time>2022-06-06T10:05:56.000Z</time>
      </trkpt>
      <trkpt lat="49.8517" lon="4.82564">
        <ele>378</ele>
        <time>2022-06-06T10:05:57.000Z</time>
      </trkpt>
      <trkpt lat="49.85168" lon="4.82567">
        <ele>378</ele>
        <time>2022-06-06T10:05:58.000Z</time>
      </trkpt>
      <trkpt lat="49.85166" lon="4.82569">
        <ele>378</ele>
        <time>2022-06-06T10:05:59.000Z</time>
      </trkpt>
      <trkpt lat="49.85164" lon="4.82571">
        <ele>379</ele>
        <time>2022-06-06T10:06:00.000Z</time>
      </trkpt>
      <trkpt lat="49.85163" lon="4.82574">
        <ele>379</ele>
        <time>2022-06-06T10:06:01.000Z</time>
      </trkpt>
      <trkpt lat="49.85161" lon="4.82576">
        <ele>379</ele>
        <time>2022-06-06T10:06:02.000Z</time>
      </trkpt>
      <trkpt lat="49.85159" lon="4.82579">
        <ele>379</ele>
        <time>2022-06-06T10:06:03.000Z</time>
      </trkpt>
      <trkpt lat="49.85158" lon="4.82581">
        <ele>379</ele>
        <time>2022-06-06T10:06:04.000Z</time>
      </trkpt>
      <trkpt lat="49.85156" lon="4.82583">
        <ele>379</ele>
        <time>2022-06-06T10:06:05.000Z</time>
      </trkpt>
      <trkpt lat="49.85155" lon="4.82584">
        <ele>379</ele>
        <time>2022-06-06T10:06:06.000Z</time>
      </trkpt>
      <trkpt lat="49.85154" lon="4.82586">
        <ele>379</ele>
        <time>2022-06-06T10:06:07.000Z</time>
      </trkpt>
      <trkpt lat="49.85153" lon="4.82588">
        <ele>379</ele>
        <time>2022-06-06T10:06:08.000Z</time>
      </trkpt>
      <trkpt lat="49.85152" lon="4.82591">
        <ele>379</ele>
        <time>2022-06-06T10:06:09.000Z</time>
      </trkpt>
      <trkpt lat="49.8515" lon="4.82593">
        <ele>380</ele>
        <time>2022-06-06T10:06:10.000Z</time>
      </trkpt>
      <trkpt lat="49.85149" lon="4.82596">
        <ele>380</ele>
        <time>2022-06-06T10:06:11.000Z</time>
      </trkpt>
      <trkpt lat="49.85147" lon="4.82598">
        <ele>380</ele>
        <time>2022-06-06T10:06:12.000Z</time>
      </trkpt>
      <trkpt lat="49.85145" lon="4.826">
        <ele>380</ele>
        <time>2022-06-06T10:06:13.000Z</time>
      </trkpt>
      <trkpt lat="49.85143" lon="4.82603">
        <ele>380</ele>
        <time>2022-06-06T10:06:14.000Z</time>
      </trkpt>
      <trkpt lat="49.85142" lon="4.82605">
        <ele>380</ele>
        <time>2022-06-06T10:06:15.000Z</time>
      </trkpt>
      <trkpt lat="49.8514" lon="4.82608">
        <ele>381</ele>
        <time>2022-06-06T10:06:16.000Z</time>
      </trkpt>
      <trkpt lat="49.85139" lon="4.82612">
        <ele>381</ele>
        <time>2022-06-06T10:06:17.000Z</time>
      </trkpt>
      <trkpt lat="49.85137" lon="4.82615">
        <ele>381</ele>
        <time>2022-06-06T10:06:18.000Z</time>
      </trkpt>
      <trkpt lat="49.85136" lon="4.82619">
        <ele>381</ele>
        <time>2022-06-06T10:06:19.000Z</time>
      </trkpt>
      <trkpt lat="49.85134" lon="4.82622">
        <ele>381</ele>
        <time>2022-06-06T10:06:20.000Z</time>
      </trkpt>
      <trkpt lat="49.85133" lon="4.82624">
        <ele>381</ele>
        <time>2022-06-06T10:06:21.000Z</time>
      </trkpt>
      <trkpt lat="49.85131" lon="4.82627">
        <ele>381</ele>
        <time>2022-06-06T10:06:22.000Z</time>
      </trkpt>
      <trkpt lat="49.8513" lon="4.8263">
        <ele>381</ele>
        <time>2022-06-06T10:06:23.000Z</time>
      </trkpt>
      <trkpt lat="49.85129" lon="4.82633">
        <ele>381</ele>
        <time>2022-06-06T10:06:24.000Z</time>
      </trkpt>
      <trkpt lat="49.85128" lon="4.82637">
        <ele>381</ele>
        <time>2022-06-06T10:06:25.000Z</time>
      </trkpt>
      <trkpt lat="49.85127" lon="4.8264">
        <ele>381</ele>
        <time>2022-06-06T10:06:26.000Z</time>
      </trkpt>
      <trkpt lat="49.85126" lon="4.82644">
        <ele>381</ele>
        <time>2022-06-06T10:06:27.000Z</time>
      </trkpt>
      <trkpt lat="49.85125" lon="4.82648">
        <ele>381</ele>
        <time>2022-06-06T10:06:28.000Z</time>
      </trkpt>
      <trkpt lat="49.85124" lon="4.82653">
        <ele>381</ele>
        <time>2022-06-06T10:06:29.000Z</time>
      </trkpt>
      <trkpt lat="49.85122" lon="4.82656">
        <ele>380</ele>
        <time>2022-06-06T10:06:30.000Z</time>
      </trkpt>
      <trkpt lat="49.8512" lon="4.8266">
        <ele>380</ele>
        <time>2022-06-06T10:06:31.000Z</time>
      </trkpt>
      <trkpt lat="49.85119" lon="4.82663">
        <ele>380</ele>
        <time>2022-06-06T10:06:32.000Z</time>
      </trkpt>
      <trkpt lat="49.85117" lon="4.82666">
        <ele>380</ele>
        <time>2022-06-06T10:06:33.000Z</time>
      </trkpt>
      <trkpt lat="49.85115" lon="4.82669">
        <ele>380</ele>
        <time>2022-06-06T10:06:34.000Z</time>
      </trkpt>
      <trkpt lat="49.85112" lon="4.82671">
        <ele>380</ele>
        <time>2022-06-06T10:06:35.000Z</time>
      </trkpt>
      <trkpt lat="49.8511" lon="4.82673">
        <ele>380</ele>
        <time>2022-06-06T10:06:36.000Z</time>
      </trkpt>
      <trkpt lat="49.85108" lon="4.82675">
        <ele>380</ele>
        <time>2022-06-06T10:06:37.000Z</time>
      </trkpt>
      <trkpt lat="49.85105" lon="4.82677">
        <ele>380</ele>
        <time>2022-06-06T10:06:38.000Z</time>
      </trkpt>
      <trkpt lat="49.85104" lon="4.8268">
        <ele>379</ele>
        <time>2022-06-06T10:06:39.000Z</time>
      </trkpt>
      <trkpt lat="49.85102" lon="4.82684">
        <ele>379</ele>
        <time>2022-06-06T10:06:40.000Z</time>
      </trkpt>
      <trkpt lat="49.85101" lon="4.82689">
        <ele>379</ele>
        <time>2022-06-06T10:06:41.000Z</time>
      </trkpt>
      <trkpt lat="49.851" lon="4.82695">
        <ele>379</ele>
        <time>2022-06-06T10:06:42.000Z</time>
      </trkpt>
      <trkpt lat="49.85099" lon="4.82701">
        <ele>379</ele>
        <time>2022-06-06T10:06:43.000Z</time>
      </trkpt>
      <trkpt lat="49.85099" lon="4.82707">
        <ele>379</ele>
        <time>2022-06-06T10:06:44.000Z</time>
      </trkpt>
      <trkpt lat="49.85099" lon="4.82713">
        <ele>379</ele>
        <time>2022-06-06T10:06:45.000Z</time>
      </trkpt>
      <trkpt lat="49.85099" lon="4.8272">
        <ele>379</ele>
        <time>2022-06-06T10:06:46.000Z</time>
      </trkpt>
      <trkpt lat="49.85097" lon="4.82726">
        <ele>379</ele>
        <time>2022-06-06T10:06:47.000Z</time>
      </trkpt>
      <trkpt lat="49.85094" lon="4.82731">
        <ele>379</ele>
        <time>2022-06-06T10:06:48.000Z</time>
      </trkpt>
      <trkpt lat="49.85091" lon="4.82734">
        <ele>379</ele>
        <time>2022-06-06T10:06:49.000Z</time>
      </trkpt>
      <trkpt lat="49.85087" lon="4.82736">
        <ele>379</ele>
        <time>2022-06-06T10:06:50.000Z</time>
      </trkpt>
      <trkpt lat="49.85083" lon="4.82738">
        <ele>379</ele>
        <time>2022-06-06T10:06:51.000Z</time>
      </trkpt>
      <trkpt lat="49.8508" lon="4.82741">
        <ele>379</ele>
        <time>2022-06-06T10:06:52.000Z</time>
      </trkpt>
      <trkpt lat="49.85077" lon="4.82746">
        <ele>379</ele>
        <time>2022-06-06T10:06:53.000Z</time>
      </trkpt>
      <trkpt lat="49.85074" lon="4.8275">
        <ele>379</ele>
        <time>2022-06-06T10:06:54.000Z</time>
      </trkpt>
      <trkpt lat="49.85071" lon="4.82753">
        <ele>379</ele>
        <time>2022-06-06T10:06:55.000Z</time>
      </trkpt>
      <trkpt lat="49.85068" lon="4.82756">
        <ele>379</ele>
        <time>2022-06-06T10:06:56.000Z</time>
      </trkpt>
      <trkpt lat="49.85066" lon="4.82759">
        <ele>379</ele>
        <time>2022-06-06T10:06:57.000Z</time>
      </trkpt>
      <trkpt lat="49.85064" lon="4.82762">
        <ele>379</ele>
        <time>2022-06-06T10:06:58.000Z</time>
      </trkpt>
      <trkpt lat="49.85062" lon="4.82765">
        <ele>379</ele>
        <time>2022-06-06T10:06:59.000Z</time>
      </trkpt>
      <trkpt lat="49.85059" lon="4.82768">
        <ele>379</ele>
        <time>2022-06-06T10:07:00.000Z</time>
      </trkpt>
      <trkpt lat="49.85057" lon="4.8277">
        <ele>379</ele>
        <time>2022-06-06T10:07:01.000Z</time>
      </trkpt>
      <trkpt lat="49.85055" lon="4.82772">
        <ele>379</ele>
        <time>2022-06-06T10:07:02.000Z</time>
      </trkpt>
      <trkpt lat="49.85054" lon="4.82775">
        <ele>378</ele>
        <time>2022-06-06T10:07:03.000Z</time>
      </trkpt>
      <trkpt lat="49.85052" lon="4.82777">
        <ele>378</ele>
        <time>2022-06-06T10:07:04.000Z</time>
      </trkpt>
      <trkpt lat="49.85052" lon="4.82779">
        <ele>378</ele>
        <time>2022-06-06T10:07:05.000Z</time>
      </trkpt>
      <trkpt lat="49.85051" lon="4.82781">
        <ele>378</ele>
        <time>2022-06-06T10:07:06.000Z</time>
      </trkpt>
      <trkpt lat="49.8505" lon="4.82784">
        <ele>378</ele>
        <time>2022-06-06T10:07:07.000Z</time>
      </trkpt>
      <trkpt lat="49.85049" lon="4.82786">
        <ele>378</ele>
        <time>2022-06-06T10:07:08.000Z</time>
      </trkpt>
      <trkpt lat="49.85047" lon="4.82788">
        <ele>378</ele>
        <time>2022-06-06T10:07:09.000Z</time>
      </trkpt>
      <trkpt lat="49.85046" lon="4.8279">
        <ele>378</ele>
        <time>2022-06-06T10:07:10.000Z</time>
      </trkpt>
      <trkpt lat="49.85044" lon="4.82792">
        <ele>378</ele>
        <time>2022-06-06T10:07:11.000Z</time>
      </trkpt>
      <trkpt lat="49.85042" lon="4.82795">
        <ele>378</ele>
        <time>2022-06-06T10:07:12.000Z</time>
      </trkpt>
      <trkpt lat="49.8504" lon="4.82797">
        <ele>378</ele>
        <time>2022-06-06T10:07:13.000Z</time>
      </trkpt>
      <trkpt lat="49.85038" lon="4.828">
        <ele>378</ele>
        <time>2022-06-06T10:07:14.000Z</time>
      </trkpt>
      <trkpt lat="49.85035" lon="4.82803">
        <ele>379</ele>
        <time>2022-06-06T10:07:15.000Z</time>
      </trkpt>
      <trkpt lat="49.85033" lon="4.82806">
        <ele>379</ele>
        <time>2022-06-06T10:07:16.000Z</time>
      </trkpt>
      <trkpt lat="49.8503" lon="4.82809">
        <ele>379</ele>
        <time>2022-06-06T10:07:17.000Z</time>
      </trkpt>
      <trkpt lat="49.85027" lon="4.82812">
        <ele>379</ele>
        <time>2022-06-06T10:07:18.000Z</time>
      </trkpt>
      <trkpt lat="49.85024" lon="4.82816">
        <ele>379</ele>
        <time>2022-06-06T10:07:19.000Z</time>
      </trkpt>
      <trkpt lat="49.85021" lon="4.8282">
        <ele>379</ele>
        <time>2022-06-06T10:07:20.000Z</time>
      </trkpt>
      <trkpt lat="49.85018" lon="4.82824">
        <ele>379</ele>
        <time>2022-06-06T10:07:21.000Z</time>
      </trkpt>
      <trkpt lat="49.85015" lon="4.82829">
        <ele>379</ele>
        <time>2022-06-06T10:07:22.000Z</time>
      </trkpt>
      <trkpt lat="49.85012" lon="4.82833">
        <ele>379</ele>
        <time>2022-06-06T10:07:23.000Z</time>
      </trkpt>
      <trkpt lat="49.85009" lon="4.82837">
        <ele>379</ele>
        <time>2022-06-06T10:07:24.000Z</time>
      </trkpt>
      <trkpt lat="49.85005" lon="4.82841">
        <ele>379</ele>
        <time>2022-06-06T10:07:25.000Z</time>
      </trkpt>
      <trkpt lat="49.85001" lon="4.82847">
        <ele>379</ele>
        <time>2022-06-06T10:07:26.000Z</time>
      </trkpt>
      <trkpt lat="49.84996" lon="4.82852">
        <ele>378</ele>
        <time>2022-06-06T10:07:27.000Z</time>
      </trkpt>
      <trkpt lat="49.8499" lon="4.82858">
        <ele>378</ele>
        <time>2022-06-06T10:07:28.000Z</time>
      </trkpt>
      <trkpt lat="49.84984" lon="4.82862">
        <ele>378</ele>
        <time>2022-06-06T10:07:29.000Z</time>
      </trkpt>
      <trkpt lat="49.8498" lon="4.82867">
        <ele>378</ele>
        <time>2022-06-06T10:07:30.000Z</time>
      </trkpt>
      <trkpt lat="49.84976" lon="4.82871">
        <ele>378</ele>
        <time>2022-06-06T10:07:31.000Z</time>
      </trkpt>
      <trkpt lat="49.84972" lon="4.82875">
        <ele>378</ele>
        <time>2022-06-06T10:07:32.000Z</time>
      </trkpt>
      <trkpt lat="49.84968" lon="4.82879">
        <ele>378</ele>
        <time>2022-06-06T10:07:33.000Z</time>
      </trkpt>
      <trkpt lat="49.84966" lon="4.82883">
        <ele>378</ele>
        <time>2022-06-06T10:07:34.000Z</time>
      </trkpt>
      <trkpt lat="49.84964" lon="4.82886">
        <ele>378</ele>
        <time>2022-06-06T10:07:35.000Z</time>
      </trkpt>
      <trkpt lat="49.84964" lon="4.8289">
        <ele>377</ele>
        <time>2022-06-06T10:07:36.000Z</time>
      </trkpt>
      <trkpt lat="49.84963" lon="4.82893">
        <ele>377</ele>
        <time>2022-06-06T10:07:37.000Z</time>
      </trkpt>
      <trkpt lat="49.84962" lon="4.82896">
        <ele>377</ele>
        <time>2022-06-06T10:07:38.000Z</time>
      </trkpt>
      <trkpt lat="49.84961" lon="4.82898">
        <ele>377</ele>
        <time>2022-06-06T10:07:39.000Z</time>
      </trkpt>
      <trkpt lat="49.8496" lon="4.82901">
        <ele>377</ele>
        <time>2022-06-06T10:07:40.000Z</time>
      </trkpt>
      <trkpt lat="49.84959" lon="4.82904">
        <ele>377</ele>
        <time>2022-06-06T10:07:41.000Z</time>
      </trkpt>
      <trkpt lat="49.84959" lon="4.82907">
        <ele>377</ele>
        <time>2022-06-06T10:07:42.000Z</time>
      </trkpt>
      <trkpt lat="49.84958" lon="4.8291">
        <ele>377</ele>
        <time>2022-06-06T10:07:43.000Z</time>
      </trkpt>
      <trkpt lat="49.84957" lon="4.82914">
        <ele>377</ele>
        <time>2022-06-06T10:07:44.000Z</time>
      </trkpt>
      <trkpt lat="49.84956" lon="4.82917">
        <ele>377</ele>
        <time>2022-06-06T10:07:45.000Z</time>
      </trkpt>
      <trkpt lat="49.84955" lon="4.82921">
        <ele>377</ele>
        <time>2022-06-06T10:07:46.000Z</time>
      </trkpt>
      <trkpt lat="49.84952" lon="4.82926">
        <ele>377</ele>
        <time>2022-06-06T10:07:47.000Z</time>
      </trkpt>
      <trkpt lat="49.84951" lon="4.82931">
        <ele>377</ele>
        <time>2022-06-06T10:07:48.000Z</time>
      </trkpt>
      <trkpt lat="49.84949" lon="4.82936">
        <ele>377</ele>
        <time>2022-06-06T10:07:49.000Z</time>
      </trkpt>
      <trkpt lat="49.84947" lon="4.82941">
        <ele>377</ele>
        <time>2022-06-06T10:07:50.000Z</time>
      </trkpt>
      <trkpt lat="49.84945" lon="4.82947">
        <ele>377</ele>
        <time>2022-06-06T10:07:51.000Z</time>
      </trkpt>
      <trkpt lat="49.84941" lon="4.82954">
        <ele>377</ele>
        <time>2022-06-06T10:07:52.000Z</time>
      </trkpt>
      <trkpt lat="49.84938" lon="4.82962">
        <ele>377</ele>
        <time>2022-06-06T10:07:53.000Z</time>
      </trkpt>
      <trkpt lat="49.84934" lon="4.82971">
        <ele>377</ele>
        <time>2022-06-06T10:07:54.000Z</time>
      </trkpt>
      <trkpt lat="49.8493" lon="4.82979">
        <ele>377</ele>
        <time>2022-06-06T10:07:55.000Z</time>
      </trkpt>
      <trkpt lat="49.84926" lon="4.82986">
        <ele>377</ele>
        <time>2022-06-06T10:07:56.000Z</time>
      </trkpt>
      <trkpt lat="49.84923" lon="4.82993">
        <ele>377</ele>
        <time>2022-06-06T10:07:57.000Z</time>
      </trkpt>
      <trkpt lat="49.84919" lon="4.83">
        <ele>377</ele>
        <time>2022-06-06T10:07:58.000Z</time>
      </trkpt>
      <trkpt lat="49.84915" lon="4.83007">
        <ele>377</ele>
        <time>2022-06-06T10:07:59.000Z</time>
      </trkpt>
      <trkpt lat="49.84911" lon="4.83013">
        <ele>377</ele>
        <time>2022-06-06T10:08:00.000Z</time>
      </trkpt>
      <trkpt lat="49.84907" lon="4.83019">
        <ele>377</ele>
        <time>2022-06-06T10:08:01.000Z</time>
      </trkpt>
      <trkpt lat="49.84902" lon="4.83026">
        <ele>377</ele>
        <time>2022-06-06T10:08:02.000Z</time>
      </trkpt>
      <trkpt lat="49.84898" lon="4.83033">
        <ele>376</ele>
        <time>2022-06-06T10:08:03.000Z</time>
      </trkpt>
      <trkpt lat="49.84893" lon="4.83039">
        <ele>376</ele>
        <time>2022-06-06T10:08:04.000Z</time>
      </trkpt>
      <trkpt lat="49.8489" lon="4.83045">
        <ele>376</ele>
        <time>2022-06-06T10:08:05.000Z</time>
      </trkpt>
      <trkpt lat="49.84886" lon="4.83051">
        <ele>376</ele>
        <time>2022-06-06T10:08:06.000Z</time>
      </trkpt>
      <trkpt lat="49.84883" lon="4.83057">
        <ele>376</ele>
        <time>2022-06-06T10:08:07.000Z</time>
      </trkpt>
      <trkpt lat="49.84878" lon="4.83063">
        <ele>375</ele>
        <time>2022-06-06T10:08:08.000Z</time>
      </trkpt>
      <trkpt lat="49.84873" lon="4.8307">
        <ele>375</ele>
        <time>2022-06-06T10:08:09.000Z</time>
      </trkpt>
      <trkpt lat="49.84868" lon="4.83076">
        <ele>375</ele>
        <time>2022-06-06T10:08:10.000Z</time>
      </trkpt>
      <trkpt lat="49.84864" lon="4.83083">
        <ele>374</ele>
        <time>2022-06-06T10:08:11.000Z</time>
      </trkpt>
      <trkpt lat="49.84861" lon="4.83089">
        <ele>374</ele>
        <time>2022-06-06T10:08:12.000Z</time>
      </trkpt>
      <trkpt lat="49.84857" lon="4.83095">
        <ele>374</ele>
        <time>2022-06-06T10:08:13.000Z</time>
      </trkpt>
      <trkpt lat="49.84853" lon="4.83101">
        <ele>373</ele>
        <time>2022-06-06T10:08:14.000Z</time>
      </trkpt>
      <trkpt lat="49.8485" lon="4.83107">
        <ele>373</ele>
        <time>2022-06-06T10:08:15.000Z</time>
      </trkpt>
      <trkpt lat="49.84847" lon="4.83113">
        <ele>373</ele>
        <time>2022-06-06T10:08:16.000Z</time>
      </trkpt>
      <trkpt lat="49.84843" lon="4.83119">
        <ele>373</ele>
        <time>2022-06-06T10:08:17.000Z</time>
      </trkpt>
      <trkpt lat="49.84839" lon="4.83125">
        <ele>372</ele>
        <time>2022-06-06T10:08:18.000Z</time>
      </trkpt>
      <trkpt lat="49.84835" lon="4.83132">
        <ele>372</ele>
        <time>2022-06-06T10:08:19.000Z</time>
      </trkpt>
      <trkpt lat="49.84831" lon="4.83139">
        <ele>372</ele>
        <time>2022-06-06T10:08:20.000Z</time>
      </trkpt>
      <trkpt lat="49.84827" lon="4.83145">
        <ele>372</ele>
        <time>2022-06-06T10:08:21.000Z</time>
      </trkpt>
      <trkpt lat="49.84824" lon="4.83151">
        <ele>372</ele>
        <time>2022-06-06T10:08:22.000Z</time>
      </trkpt>
      <trkpt lat="49.8482" lon="4.83157">
        <ele>371</ele>
        <time>2022-06-06T10:08:23.000Z</time>
      </trkpt>
      <trkpt lat="49.84817" lon="4.83163">
        <ele>371</ele>
        <time>2022-06-06T10:08:24.000Z</time>
      </trkpt>
      <trkpt lat="49.84814" lon="4.83167">
        <ele>371</ele>
        <time>2022-06-06T10:08:25.000Z</time>
      </trkpt>
      <trkpt lat="49.84812" lon="4.83169">
        <ele>371</ele>
        <time>2022-06-06T10:08:26.000Z</time>
      </trkpt>
      <trkpt lat="49.84811" lon="4.83171">
        <ele>370</ele>
        <time>2022-06-06T10:08:27.000Z</time>
      </trkpt>
      <trkpt lat="49.84809" lon="4.83173">
        <ele>370</ele>
        <time>2022-06-06T10:08:28.000Z</time>
      </trkpt>
      <trkpt lat="49.84808" lon="4.83176">
        <ele>370</ele>
        <time>2022-06-06T10:08:29.000Z</time>
      </trkpt>
      <trkpt lat="49.84806" lon="4.83179">
        <ele>370</ele>
        <time>2022-06-06T10:08:30.000Z</time>
      </trkpt>
      <trkpt lat="49.84803" lon="4.83184">
        <ele>369</ele>
        <time>2022-06-06T10:08:31.000Z</time>
      </trkpt>
      <trkpt lat="49.848" lon="4.83189">
        <ele>369</ele>
        <time>2022-06-06T10:08:32.000Z</time>
      </trkpt>
      <trkpt lat="49.84797" lon="4.83194">
        <ele>369</ele>
        <time>2022-06-06T10:08:33.000Z</time>
      </trkpt>
      <trkpt lat="49.84794" lon="4.83199">
        <ele>368</ele>
        <time>2022-06-06T10:08:34.000Z</time>
      </trkpt>
      <trkpt lat="49.8479" lon="4.83204">
        <ele>368</ele>
        <time>2022-06-06T10:08:35.000Z</time>
      </trkpt>
      <trkpt lat="49.84787" lon="4.8321">
        <ele>368</ele>
        <time>2022-06-06T10:08:36.000Z</time>
      </trkpt>
      <trkpt lat="49.84784" lon="4.83216">
        <ele>367</ele>
        <time>2022-06-06T10:08:37.000Z</time>
      </trkpt>
      <trkpt lat="49.84782" lon="4.83222">
        <ele>367</ele>
        <time>2022-06-06T10:08:38.000Z</time>
      </trkpt>
      <trkpt lat="49.8478" lon="4.83227">
        <ele>367</ele>
        <time>2022-06-06T10:08:39.000Z</time>
      </trkpt>
      <trkpt lat="49.84778" lon="4.83232">
        <ele>367</ele>
        <time>2022-06-06T10:08:40.000Z</time>
      </trkpt>
      <trkpt lat="49.84777" lon="4.83237">
        <ele>367</ele>
        <time>2022-06-06T10:08:41.000Z</time>
      </trkpt>
      <trkpt lat="49.84776" lon="4.83242">
        <ele>367</ele>
        <time>2022-06-06T10:08:42.000Z</time>
      </trkpt>
      <trkpt lat="49.84775" lon="4.83249">
        <ele>367</ele>
        <time>2022-06-06T10:08:43.000Z</time>
      </trkpt>
      <trkpt lat="49.84774" lon="4.83255">
        <ele>367</ele>
        <time>2022-06-06T10:08:44.000Z</time>
      </trkpt>
      <trkpt lat="49.84775" lon="4.83263">
        <ele>366</ele>
        <time>2022-06-06T10:08:45.000Z</time>
      </trkpt>
      <trkpt lat="49.84776" lon="4.8327">
        <ele>366</ele>
        <time>2022-06-06T10:08:46.000Z</time>
      </trkpt>
      <trkpt lat="49.84776" lon="4.83278">
        <ele>366</ele>
        <time>2022-06-06T10:08:47.000Z</time>
      </trkpt>
      <trkpt lat="49.84777" lon="4.83286">
        <ele>366</ele>
        <time>2022-06-06T10:08:48.000Z</time>
      </trkpt>
      <trkpt lat="49.84778" lon="4.83293">
        <ele>366</ele>
        <time>2022-06-06T10:08:49.000Z</time>
      </trkpt>
      <trkpt lat="49.84779" lon="4.83302">
        <ele>366</ele>
        <time>2022-06-06T10:08:50.000Z</time>
      </trkpt>
      <trkpt lat="49.84781" lon="4.83313">
        <ele>366</ele>
        <time>2022-06-06T10:08:51.000Z</time>
      </trkpt>
      <trkpt lat="49.84782" lon="4.83324">
        <ele>366</ele>
        <time>2022-06-06T10:08:52.000Z</time>
      </trkpt>
      <trkpt lat="49.84783" lon="4.83336">
        <ele>366</ele>
        <time>2022-06-06T10:08:53.000Z</time>
      </trkpt>
      <trkpt lat="49.84783" lon="4.83348">
        <ele>366</ele>
        <time>2022-06-06T10:08:54.000Z</time>
      </trkpt>
      <trkpt lat="49.84784" lon="4.8336">
        <ele>366</ele>
        <time>2022-06-06T10:08:55.000Z</time>
      </trkpt>
      <trkpt lat="49.84784" lon="4.83373">
        <ele>366</ele>
        <time>2022-06-06T10:08:56.000Z</time>
      </trkpt>
      <trkpt lat="49.84785" lon="4.83385">
        <ele>366</ele>
        <time>2022-06-06T10:08:57.000Z</time>
      </trkpt>
      <trkpt lat="49.84787" lon="4.83397">
        <ele>365</ele>
        <time>2022-06-06T10:08:58.000Z</time>
      </trkpt>
      <trkpt lat="49.84789" lon="4.83409">
        <ele>365</ele>
        <time>2022-06-06T10:08:59.000Z</time>
      </trkpt>
      <trkpt lat="49.8479" lon="4.83422">
        <ele>365</ele>
        <time>2022-06-06T10:09:00.000Z</time>
      </trkpt>
      <trkpt lat="49.8479" lon="4.83435">
        <ele>365</ele>
        <time>2022-06-06T10:09:01.000Z</time>
      </trkpt>
      <trkpt lat="49.8479" lon="4.83448">
        <ele>364</ele>
        <time>2022-06-06T10:09:02.000Z</time>
      </trkpt>
      <trkpt lat="49.8479" lon="4.83459">
        <ele>364</ele>
        <time>2022-06-06T10:09:03.000Z</time>
      </trkpt>
      <trkpt lat="49.84789" lon="4.83468">
        <ele>364</ele>
        <time>2022-06-06T10:09:04.000Z</time>
      </trkpt>
      <trkpt lat="49.84788" lon="4.83476">
        <ele>363</ele>
        <time>2022-06-06T10:09:05.000Z</time>
      </trkpt>
      <trkpt lat="49.84787" lon="4.83484">
        <ele>363</ele>
        <time>2022-06-06T10:09:06.000Z</time>
      </trkpt>
      <trkpt lat="49.84786" lon="4.83492">
        <ele>363</ele>
        <time>2022-06-06T10:09:07.000Z</time>
      </trkpt>
      <trkpt lat="49.84785" lon="4.835">
        <ele>362</ele>
        <time>2022-06-06T10:09:08.000Z</time>
      </trkpt>
      <trkpt lat="49.84784" lon="4.83509">
        <ele>362</ele>
        <time>2022-06-06T10:09:09.000Z</time>
      </trkpt>
      <trkpt lat="49.84783" lon="4.83518">
        <ele>362</ele>
        <time>2022-06-06T10:09:10.000Z</time>
      </trkpt>
      <trkpt lat="49.84782" lon="4.83527">
        <ele>362</ele>
        <time>2022-06-06T10:09:11.000Z</time>
      </trkpt>
      <trkpt lat="49.84782" lon="4.83536">
        <ele>361</ele>
        <time>2022-06-06T10:09:12.000Z</time>
      </trkpt>
      <trkpt lat="49.84782" lon="4.83545">
        <ele>361</ele>
        <time>2022-06-06T10:09:13.000Z</time>
      </trkpt>
      <trkpt lat="49.84781" lon="4.83553">
        <ele>361</ele>
        <time>2022-06-06T10:09:14.000Z</time>
      </trkpt>
      <trkpt lat="49.84781" lon="4.83561">
        <ele>360</ele>
        <time>2022-06-06T10:09:15.000Z</time>
      </trkpt>
      <trkpt lat="49.84781" lon="4.83569">
        <ele>360</ele>
        <time>2022-06-06T10:09:16.000Z</time>
      </trkpt>
      <trkpt lat="49.84781" lon="4.83576">
        <ele>360</ele>
        <time>2022-06-06T10:09:17.000Z</time>
      </trkpt>
      <trkpt lat="49.84782" lon="4.83583">
        <ele>360</ele>
        <time>2022-06-06T10:09:18.000Z</time>
      </trkpt>
      <trkpt lat="49.84783" lon="4.83591">
        <ele>360</ele>
        <time>2022-06-06T10:09:19.000Z</time>
      </trkpt>
      <trkpt lat="49.84784" lon="4.83599">
        <ele>360</ele>
        <time>2022-06-06T10:09:20.000Z</time>
      </trkpt>
      <trkpt lat="49.84785" lon="4.83607">
        <ele>360</ele>
        <time>2022-06-06T10:09:21.000Z</time>
      </trkpt>
      <trkpt lat="49.84785" lon="4.83614">
        <ele>360</ele>
        <time>2022-06-06T10:09:22.000Z</time>
      </trkpt>
      <trkpt lat="49.84786" lon="4.83621">
        <ele>360</ele>
        <time>2022-06-06T10:09:23.000Z</time>
      </trkpt>
      <trkpt lat="49.84786" lon="4.83627">
        <ele>360</ele>
        <time>2022-06-06T10:09:24.000Z</time>
      </trkpt>
      <trkpt lat="49.84786" lon="4.83634">
        <ele>359</ele>
        <time>2022-06-06T10:09:25.000Z</time>
      </trkpt>
      <trkpt lat="49.84786" lon="4.8364">
        <ele>359</ele>
        <time>2022-06-06T10:09:26.000Z</time>
      </trkpt>
      <trkpt lat="49.84785" lon="4.83645">
        <ele>359</ele>
        <time>2022-06-06T10:09:27.000Z</time>
      </trkpt>
      <trkpt lat="49.84784" lon="4.83653">
        <ele>359</ele>
        <time>2022-06-06T10:09:28.000Z</time>
      </trkpt>
      <trkpt lat="49.84783" lon="4.83661">
        <ele>359</ele>
        <time>2022-06-06T10:09:29.000Z</time>
      </trkpt>
      <trkpt lat="49.84783" lon="4.8367">
        <ele>359</ele>
        <time>2022-06-06T10:09:30.000Z</time>
      </trkpt>
      <trkpt lat="49.84784" lon="4.83678">
        <ele>359</ele>
        <time>2022-06-06T10:09:31.000Z</time>
      </trkpt>
      <trkpt lat="49.84784" lon="4.83686">
        <ele>358</ele>
        <time>2022-06-06T10:09:32.000Z</time>
      </trkpt>
      <trkpt lat="49.84784" lon="4.83694">
        <ele>358</ele>
        <time>2022-06-06T10:09:33.000Z</time>
      </trkpt>
      <trkpt lat="49.84785" lon="4.83703">
        <ele>358</ele>
        <time>2022-06-06T10:09:34.000Z</time>
      </trkpt>
      <trkpt lat="49.84784" lon="4.83713">
        <ele>358</ele>
        <time>2022-06-06T10:09:35.000Z</time>
      </trkpt>
      <trkpt lat="49.84784" lon="4.83723">
        <ele>358</ele>
        <time>2022-06-06T10:09:36.000Z</time>
      </trkpt>
      <trkpt lat="49.84784" lon="4.83733">
        <ele>358</ele>
        <time>2022-06-06T10:09:37.000Z</time>
      </trkpt>
      <trkpt lat="49.84784" lon="4.83743">
        <ele>358</ele>
        <time>2022-06-06T10:09:38.000Z</time>
      </trkpt>
      <trkpt lat="49.84783" lon="4.83752">
        <ele>358</ele>
        <time>2022-06-06T10:09:39.000Z</time>
      </trkpt>
      <trkpt lat="49.84783" lon="4.83762">
        <ele>358</ele>
        <time>2022-06-06T10:09:40.000Z</time>
      </trkpt>
      <trkpt lat="49.84783" lon="4.83772">
        <ele>358</ele>
        <time>2022-06-06T10:09:41.000Z</time>
      </trkpt>
      <trkpt lat="49.84782" lon="4.8378">
        <ele>358</ele>
        <time>2022-06-06T10:09:42.000Z</time>
      </trkpt>
      <trkpt lat="49.84782" lon="4.83788">
        <ele>358</ele>
        <time>2022-06-06T10:09:43.000Z</time>
      </trkpt>
      <trkpt lat="49.84783" lon="4.83797">
        <ele>358</ele>
        <time>2022-06-06T10:09:44.000Z</time>
      </trkpt>
      <trkpt lat="49.84783" lon="4.83804">
        <ele>358</ele>
        <time>2022-06-06T10:09:45.000Z</time>
      </trkpt>
      <trkpt lat="49.84783" lon="4.8381">
        <ele>358</ele>
        <time>2022-06-06T10:09:46.000Z</time>
      </trkpt>
      <trkpt lat="49.84782" lon="4.83817">
        <ele>358</ele>
        <time>2022-06-06T10:09:47.000Z</time>
      </trkpt>
      <trkpt lat="49.8478" lon="4.83822">
        <ele>358</ele>
        <time>2022-06-06T10:09:48.000Z</time>
      </trkpt>
      <trkpt lat="49.84779" lon="4.83828">
        <ele>358</ele>
        <time>2022-06-06T10:09:49.000Z</time>
      </trkpt>
      <trkpt lat="49.84777" lon="4.83836">
        <ele>358</ele>
        <time>2022-06-06T10:09:50.000Z</time>
      </trkpt>
      <trkpt lat="49.84774" lon="4.83843">
        <ele>358</ele>
        <time>2022-06-06T10:09:51.000Z</time>
      </trkpt>
      <trkpt lat="49.84772" lon="4.8385">
        <ele>358</ele>
        <time>2022-06-06T10:09:52.000Z</time>
      </trkpt>
      <trkpt lat="49.8477" lon="4.83856">
        <ele>358</ele>
        <time>2022-06-06T10:09:53.000Z</time>
      </trkpt>
      <trkpt lat="49.84768" lon="4.83862">
        <ele>358</ele>
        <time>2022-06-06T10:09:54.000Z</time>
      </trkpt>
      <trkpt lat="49.84766" lon="4.83868">
        <ele>358</ele>
        <time>2022-06-06T10:09:55.000Z</time>
      </trkpt>
      <trkpt lat="49.84764" lon="4.83875">
        <ele>358</ele>
        <time>2022-06-06T10:09:56.000Z</time>
      </trkpt>
      <trkpt lat="49.84762" lon="4.83882">
        <ele>358</ele>
        <time>2022-06-06T10:09:57.000Z</time>
      </trkpt>
      <trkpt lat="49.84759" lon="4.83888">
        <ele>358</ele>
        <time>2022-06-06T10:09:58.000Z</time>
      </trkpt>
      <trkpt lat="49.84756" lon="4.83894">
        <ele>358</ele>
        <time>2022-06-06T10:09:59.000Z</time>
      </trkpt>
      <trkpt lat="49.84754" lon="4.839">
        <ele>358</ele>
        <time>2022-06-06T10:10:00.000Z</time>
      </trkpt>
      <trkpt lat="49.84751" lon="4.83906">
        <ele>358</ele>
        <time>2022-06-06T10:10:01.000Z</time>
      </trkpt>
      <trkpt lat="49.84749" lon="4.83912">
        <ele>358</ele>
        <time>2022-06-06T10:10:02.000Z</time>
      </trkpt>
      <trkpt lat="49.84746" lon="4.83917">
        <ele>358</ele>
        <time>2022-06-06T10:10:03.000Z</time>
      </trkpt>
      <trkpt lat="49.84744" lon="4.83923">
        <ele>358</ele>
        <time>2022-06-06T10:10:04.000Z</time>
      </trkpt>
      <trkpt lat="49.84741" lon="4.83928">
        <ele>358</ele>
        <time>2022-06-06T10:10:05.000Z</time>
      </trkpt>
      <trkpt lat="49.84738" lon="4.83932">
        <ele>358</ele>
        <time>2022-06-06T10:10:06.000Z</time>
      </trkpt>
      <trkpt lat="49.84736" lon="4.83937">
        <ele>358</ele>
        <time>2022-06-06T10:10:07.000Z</time>
      </trkpt>
      <trkpt lat="49.84732" lon="4.83942">
        <ele>358</ele>
        <time>2022-06-06T10:10:08.000Z</time>
      </trkpt>
      <trkpt lat="49.84729" lon="4.83947">
        <ele>359</ele>
        <time>2022-06-06T10:10:09.000Z</time>
      </trkpt>
      <trkpt lat="49.84727" lon="4.83951">
        <ele>359</ele>
        <time>2022-06-06T10:10:10.000Z</time>
      </trkpt>
      <trkpt lat="49.84725" lon="4.83955">
        <ele>359</ele>
        <time>2022-06-06T10:10:11.000Z</time>
      </trkpt>
      <trkpt lat="49.84722" lon="4.8396">
        <ele>359</ele>
        <time>2022-06-06T10:10:12.000Z</time>
      </trkpt>
      <trkpt lat="49.8472" lon="4.83964">
        <ele>359</ele>
        <time>2022-06-06T10:10:13.000Z</time>
      </trkpt>
      <trkpt lat="49.84717" lon="4.83967">
        <ele>360</ele>
        <time>2022-06-06T10:10:14.000Z</time>
      </trkpt>
      <trkpt lat="49.84715" lon="4.83969">
        <ele>360</ele>
        <time>2022-06-06T10:10:15.000Z</time>
      </trkpt>
      <trkpt lat="49.84713" lon="4.83971">
        <ele>360</ele>
        <time>2022-06-06T10:10:16.000Z</time>
      </trkpt>
      <trkpt lat="49.84711" lon="4.83973">
        <ele>360</ele>
        <time>2022-06-06T10:10:17.000Z</time>
      </trkpt>
      <trkpt lat="49.84709" lon="4.83975">
        <ele>361</ele>
        <time>2022-06-06T10:10:18.000Z</time>
      </trkpt>
      <trkpt lat="49.84707" lon="4.83976">
        <ele>361</ele>
        <time>2022-06-06T10:10:19.000Z</time>
      </trkpt>
      <trkpt lat="49.84706" lon="4.83977">
        <ele>361</ele>
        <time>2022-06-06T10:10:20.000Z</time>
      </trkpt>
      <trkpt lat="49.84703" lon="4.83979">
        <ele>361</ele>
        <time>2022-06-06T10:10:21.000Z</time>
      </trkpt>
      <trkpt lat="49.84701" lon="4.8398">
        <ele>362</ele>
        <time>2022-06-06T10:10:22.000Z</time>
      </trkpt>
      <trkpt lat="49.84697" lon="4.83981">
        <ele>362</ele>
        <time>2022-06-06T10:10:23.000Z</time>
      </trkpt>
      <trkpt lat="49.84693" lon="4.83982">
        <ele>362</ele>
        <time>2022-06-06T10:10:24.000Z</time>
      </trkpt>
      <trkpt lat="49.84689" lon="4.83984">
        <ele>363</ele>
        <time>2022-06-06T10:10:25.000Z</time>
      </trkpt>
      <trkpt lat="49.84685" lon="4.83985">
        <ele>363</ele>
        <time>2022-06-06T10:10:26.000Z</time>
      </trkpt>
      <trkpt lat="49.84682" lon="4.83985">
        <ele>363</ele>
        <time>2022-06-06T10:10:27.000Z</time>
      </trkpt>
      <trkpt lat="49.84678" lon="4.83987">
        <ele>363</ele>
        <time>2022-06-06T10:10:28.000Z</time>
      </trkpt>
      <trkpt lat="49.84675" lon="4.83987">
        <ele>364</ele>
        <time>2022-06-06T10:10:29.000Z</time>
      </trkpt>
      <trkpt lat="49.84671" lon="4.83988">
        <ele>364</ele>
        <time>2022-06-06T10:10:30.000Z</time>
      </trkpt>
      <trkpt lat="49.84667" lon="4.83989">
        <ele>364</ele>
        <time>2022-06-06T10:10:31.000Z</time>
      </trkpt>
      <trkpt lat="49.84663" lon="4.8399">
        <ele>364</ele>
        <time>2022-06-06T10:10:32.000Z</time>
      </trkpt>
      <trkpt lat="49.84659" lon="4.83991">
        <ele>365</ele>
        <time>2022-06-06T10:10:33.000Z</time>
      </trkpt>
      <trkpt lat="49.84656" lon="4.83992">
        <ele>365</ele>
        <time>2022-06-06T10:10:34.000Z</time>
      </trkpt>
      <trkpt lat="49.84653" lon="4.83993">
        <ele>365</ele>
        <time>2022-06-06T10:10:35.000Z</time>
      </trkpt>
      <trkpt lat="49.84649" lon="4.83994">
        <ele>365</ele>
        <time>2022-06-06T10:10:36.000Z</time>
      </trkpt>
      <trkpt lat="49.84646" lon="4.83995">
        <ele>365</ele>
        <time>2022-06-06T10:10:37.000Z</time>
      </trkpt>
      <trkpt lat="49.84643" lon="4.83995">
        <ele>366</ele>
        <time>2022-06-06T10:10:38.000Z</time>
      </trkpt>
      <trkpt lat="49.84639" lon="4.83996">
        <ele>366</ele>
        <time>2022-06-06T10:10:39.000Z</time>
      </trkpt>
      <trkpt lat="49.84636" lon="4.83997">
        <ele>366</ele>
        <time>2022-06-06T10:10:40.000Z</time>
      </trkpt>
      <trkpt lat="49.84633" lon="4.83998">
        <ele>366</ele>
        <time>2022-06-06T10:10:41.000Z</time>
      </trkpt>
      <trkpt lat="49.84629" lon="4.83999">
        <ele>366</ele>
        <time>2022-06-06T10:10:42.000Z</time>
      </trkpt>
      <trkpt lat="49.84626" lon="4.84">
        <ele>366</ele>
        <time>2022-06-06T10:10:43.000Z</time>
      </trkpt>
      <trkpt lat="49.84622" lon="4.84002">
        <ele>366</ele>
        <time>2022-06-06T10:10:44.000Z</time>
      </trkpt>
      <trkpt lat="49.84619" lon="4.84004">
        <ele>366</ele>
        <time>2022-06-06T10:10:45.000Z</time>
      </trkpt>
      <trkpt lat="49.84615" lon="4.84006">
        <ele>366</ele>
        <time>2022-06-06T10:10:46.000Z</time>
      </trkpt>
      <trkpt lat="49.84612" lon="4.84008">
        <ele>367</ele>
        <time>2022-06-06T10:10:47.000Z</time>
      </trkpt>
      <trkpt lat="49.84608" lon="4.84011">
        <ele>367</ele>
        <time>2022-06-06T10:10:48.000Z</time>
      </trkpt>
      <trkpt lat="49.84604" lon="4.84014">
        <ele>367</ele>
        <time>2022-06-06T10:10:49.000Z</time>
      </trkpt>
      <trkpt lat="49.84601" lon="4.84016">
        <ele>367</ele>
        <time>2022-06-06T10:10:50.000Z</time>
      </trkpt>
      <trkpt lat="49.84598" lon="4.84018">
        <ele>367</ele>
        <time>2022-06-06T10:10:51.000Z</time>
      </trkpt>
      <trkpt lat="49.84595" lon="4.8402">
        <ele>367</ele>
        <time>2022-06-06T10:10:52.000Z</time>
      </trkpt>
      <trkpt lat="49.84592" lon="4.84022">
        <ele>367</ele>
        <time>2022-06-06T10:10:53.000Z</time>
      </trkpt>
      <trkpt lat="49.84589" lon="4.84024">
        <ele>367</ele>
        <time>2022-06-06T10:10:54.000Z</time>
      </trkpt>
      <trkpt lat="49.84585" lon="4.84027">
        <ele>368</ele>
        <time>2022-06-06T10:10:55.000Z</time>
      </trkpt>
      <trkpt lat="49.84582" lon="4.8403">
        <ele>368</ele>
        <time>2022-06-06T10:10:56.000Z</time>
      </trkpt>
      <trkpt lat="49.84578" lon="4.84033">
        <ele>368</ele>
        <time>2022-06-06T10:10:57.000Z</time>
      </trkpt>
      <trkpt lat="49.84575" lon="4.84036">
        <ele>368</ele>
        <time>2022-06-06T10:10:58.000Z</time>
      </trkpt>
      <trkpt lat="49.84571" lon="4.8404">
        <ele>368</ele>
        <time>2022-06-06T10:10:59.000Z</time>
      </trkpt>
      <trkpt lat="49.84568" lon="4.84044">
        <ele>368</ele>
        <time>2022-06-06T10:11:00.000Z</time>
      </trkpt>
      <trkpt lat="49.84564" lon="4.8405">
        <ele>368</ele>
        <time>2022-06-06T10:11:01.000Z</time>
      </trkpt>
      <trkpt lat="49.8456" lon="4.84054">
        <ele>369</ele>
        <time>2022-06-06T10:11:02.000Z</time>
      </trkpt>
      <trkpt lat="49.84556" lon="4.84059">
        <ele>369</ele>
        <time>2022-06-06T10:11:03.000Z</time>
      </trkpt>
      <trkpt lat="49.84552" lon="4.84065">
        <ele>369</ele>
        <time>2022-06-06T10:11:04.000Z</time>
      </trkpt>
      <trkpt lat="49.84547" lon="4.84071">
        <ele>369</ele>
        <time>2022-06-06T10:11:05.000Z</time>
      </trkpt>
      <trkpt lat="49.84543" lon="4.84077">
        <ele>369</ele>
        <time>2022-06-06T10:11:06.000Z</time>
      </trkpt>
      <trkpt lat="49.84538" lon="4.84083">
        <ele>369</ele>
        <time>2022-06-06T10:11:07.000Z</time>
      </trkpt>
      <trkpt lat="49.84534" lon="4.84089">
        <ele>369</ele>
        <time>2022-06-06T10:11:08.000Z</time>
      </trkpt>
      <trkpt lat="49.84529" lon="4.84094">
        <ele>370</ele>
        <time>2022-06-06T10:11:09.000Z</time>
      </trkpt>
      <trkpt lat="49.84525" lon="4.841">
        <ele>370</ele>
        <time>2022-06-06T10:11:10.000Z</time>
      </trkpt>
      <trkpt lat="49.84521" lon="4.84105">
        <ele>370</ele>
        <time>2022-06-06T10:11:11.000Z</time>
      </trkpt>
      <trkpt lat="49.84517" lon="4.84109">
        <ele>370</ele>
        <time>2022-06-06T10:11:12.000Z</time>
      </trkpt>
      <trkpt lat="49.84514" lon="4.84113">
        <ele>370</ele>
        <time>2022-06-06T10:11:13.000Z</time>
      </trkpt>
      <trkpt lat="49.84512" lon="4.84115">
        <ele>370</ele>
        <time>2022-06-06T10:11:14.000Z</time>
      </trkpt>
      <trkpt lat="49.8451" lon="4.84118">
        <ele>370</ele>
        <time>2022-06-06T10:11:15.000Z</time>
      </trkpt>
      <trkpt lat="49.84508" lon="4.84122">
        <ele>370</ele>
        <time>2022-06-06T10:11:16.000Z</time>
      </trkpt>
      <trkpt lat="49.84506" lon="4.84126">
        <ele>370</ele>
        <time>2022-06-06T10:11:17.000Z</time>
      </trkpt>
      <trkpt lat="49.84503" lon="4.8413">
        <ele>370</ele>
        <time>2022-06-06T10:11:18.000Z</time>
      </trkpt>
      <trkpt lat="49.84499" lon="4.84135">
        <ele>370</ele>
        <time>2022-06-06T10:11:19.000Z</time>
      </trkpt>
      <trkpt lat="49.84496" lon="4.8414">
        <ele>370</ele>
        <time>2022-06-06T10:11:20.000Z</time>
      </trkpt>
      <trkpt lat="49.84492" lon="4.84145">
        <ele>370</ele>
        <time>2022-06-06T10:11:21.000Z</time>
      </trkpt>
      <trkpt lat="49.84488" lon="4.8415">
        <ele>370</ele>
        <time>2022-06-06T10:11:22.000Z</time>
      </trkpt>
      <trkpt lat="49.84485" lon="4.84156">
        <ele>370</ele>
        <time>2022-06-06T10:11:23.000Z</time>
      </trkpt>
      <trkpt lat="49.84481" lon="4.84163">
        <ele>370</ele>
        <time>2022-06-06T10:11:24.000Z</time>
      </trkpt>
      <trkpt lat="49.84476" lon="4.84168">
        <ele>370</ele>
        <time>2022-06-06T10:11:25.000Z</time>
      </trkpt>
      <trkpt lat="49.84471" lon="4.84173">
        <ele>370</ele>
        <time>2022-06-06T10:11:26.000Z</time>
      </trkpt>
      <trkpt lat="49.84466" lon="4.84178">
        <ele>370</ele>
        <time>2022-06-06T10:11:27.000Z</time>
      </trkpt>
      <trkpt lat="49.84461" lon="4.84183">
        <ele>370</ele>
        <time>2022-06-06T10:11:28.000Z</time>
      </trkpt>
      <trkpt lat="49.84457" lon="4.84187">
        <ele>370</ele>
        <time>2022-06-06T10:11:29.000Z</time>
      </trkpt>
      <trkpt lat="49.84453" lon="4.84192">
        <ele>370</ele>
        <time>2022-06-06T10:11:30.000Z</time>
      </trkpt>
      <trkpt lat="49.84448" lon="4.84197">
        <ele>370</ele>
        <time>2022-06-06T10:11:31.000Z</time>
      </trkpt>
      <trkpt lat="49.84443" lon="4.84202">
        <ele>370</ele>
        <time>2022-06-06T10:11:32.000Z</time>
      </trkpt>
      <trkpt lat="49.84438" lon="4.84206">
        <ele>370</ele>
        <time>2022-06-06T10:11:33.000Z</time>
      </trkpt>
      <trkpt lat="49.84433" lon="4.8421">
        <ele>369</ele>
        <time>2022-06-06T10:11:34.000Z</time>
      </trkpt>
      <trkpt lat="49.84428" lon="4.84212">
        <ele>369</ele>
        <time>2022-06-06T10:11:35.000Z</time>
      </trkpt>
      <trkpt lat="49.84423" lon="4.84213">
        <ele>369</ele>
        <time>2022-06-06T10:11:36.000Z</time>
      </trkpt>
      <trkpt lat="49.84418" lon="4.84216">
        <ele>369</ele>
        <time>2022-06-06T10:11:37.000Z</time>
      </trkpt>
      <trkpt lat="49.84413" lon="4.84219">
        <ele>369</ele>
        <time>2022-06-06T10:11:38.000Z</time>
      </trkpt>
      <trkpt lat="49.84408" lon="4.84223">
        <ele>368</ele>
        <time>2022-06-06T10:11:39.000Z</time>
      </trkpt>
      <trkpt lat="49.84404" lon="4.84227">
        <ele>368</ele>
        <time>2022-06-06T10:11:40.000Z</time>
      </trkpt>
      <trkpt lat="49.844" lon="4.8423">
        <ele>368</ele>
        <time>2022-06-06T10:11:41.000Z</time>
      </trkpt>
      <trkpt lat="49.84396" lon="4.84232">
        <ele>368</ele>
        <time>2022-06-06T10:11:42.000Z</time>
      </trkpt>
      <trkpt lat="49.84391" lon="4.84234">
        <ele>368</ele>
        <time>2022-06-06T10:11:43.000Z</time>
      </trkpt>
      <trkpt lat="49.84386" lon="4.84236">
        <ele>368</ele>
        <time>2022-06-06T10:11:44.000Z</time>
      </trkpt>
      <trkpt lat="49.84381" lon="4.84238">
        <ele>368</ele>
        <time>2022-06-06T10:11:45.000Z</time>
      </trkpt>
      <trkpt lat="49.84377" lon="4.8424">
        <ele>368</ele>
        <time>2022-06-06T10:11:46.000Z</time>
      </trkpt>
      <trkpt lat="49.84372" lon="4.84241">
        <ele>368</ele>
        <time>2022-06-06T10:11:47.000Z</time>
      </trkpt>
      <trkpt lat="49.84366" lon="4.84242">
        <ele>368</ele>
        <time>2022-06-06T10:11:48.000Z</time>
      </trkpt>
      <trkpt lat="49.84361" lon="4.84243">
        <ele>367</ele>
        <time>2022-06-06T10:11:49.000Z</time>
      </trkpt>
      <trkpt lat="49.84356" lon="4.84245">
        <ele>367</ele>
        <time>2022-06-06T10:11:50.000Z</time>
      </trkpt>
      <trkpt lat="49.8435" lon="4.84246">
        <ele>367</ele>
        <time>2022-06-06T10:11:51.000Z</time>
      </trkpt>
      <trkpt lat="49.84345" lon="4.84247">
        <ele>367</ele>
        <time>2022-06-06T10:11:52.000Z</time>
      </trkpt>
      <trkpt lat="49.8434" lon="4.84249">
        <ele>366</ele>
        <time>2022-06-06T10:11:53.000Z</time>
      </trkpt>
      <trkpt lat="49.84335" lon="4.84251">
        <ele>366</ele>
        <time>2022-06-06T10:11:54.000Z</time>
      </trkpt>
      <trkpt lat="49.84331" lon="4.84252">
        <ele>366</ele>
        <time>2022-06-06T10:11:55.000Z</time>
      </trkpt>
      <trkpt lat="49.84327" lon="4.84254">
        <ele>365</ele>
        <time>2022-06-06T10:11:56.000Z</time>
      </trkpt>
      <trkpt lat="49.84322" lon="4.84256">
        <ele>365</ele>
        <time>2022-06-06T10:11:57.000Z</time>
      </trkpt>
      <trkpt lat="49.84318" lon="4.84258">
        <ele>365</ele>
        <time>2022-06-06T10:11:58.000Z</time>
      </trkpt>
      <trkpt lat="49.84313" lon="4.8426">
        <ele>364</ele>
        <time>2022-06-06T10:11:59.000Z</time>
      </trkpt>
      <trkpt lat="49.84309" lon="4.84263">
        <ele>364</ele>
        <time>2022-06-06T10:12:00.000Z</time>
      </trkpt>
      <trkpt lat="49.84304" lon="4.84265">
        <ele>364</ele>
        <time>2022-06-06T10:12:01.000Z</time>
      </trkpt>
      <trkpt lat="49.84299" lon="4.84267">
        <ele>363</ele>
        <time>2022-06-06T10:12:02.000Z</time>
      </trkpt>
      <trkpt lat="49.84294" lon="4.8427">
        <ele>363</ele>
        <time>2022-06-06T10:12:03.000Z</time>
      </trkpt>
      <trkpt lat="49.8429" lon="4.84273">
        <ele>363</ele>
        <time>2022-06-06T10:12:04.000Z</time>
      </trkpt>
      <trkpt lat="49.84286" lon="4.84276">
        <ele>363</ele>
        <time>2022-06-06T10:12:05.000Z</time>
      </trkpt>
      <trkpt lat="49.84282" lon="4.84279">
        <ele>363</ele>
        <time>2022-06-06T10:12:06.000Z</time>
      </trkpt>
      <trkpt lat="49.84278" lon="4.84279">
        <ele>363</ele>
        <time>2022-06-06T10:12:07.000Z</time>
      </trkpt>
      <trkpt lat="49.84275" lon="4.8428">
        <ele>362</ele>
        <time>2022-06-06T10:12:08.000Z</time>
      </trkpt>
      <trkpt lat="49.84271" lon="4.84281">
        <ele>362</ele>
        <time>2022-06-06T10:12:09.000Z</time>
      </trkpt>
      <trkpt lat="49.84269" lon="4.84285">
        <ele>362</ele>
        <time>2022-06-06T10:12:10.000Z</time>
      </trkpt>
      <trkpt lat="49.84267" lon="4.8429">
        <ele>362</ele>
        <time>2022-06-06T10:12:11.000Z</time>
      </trkpt>
      <trkpt lat="49.84266" lon="4.84295">
        <ele>362</ele>
        <time>2022-06-06T10:12:12.000Z</time>
      </trkpt>
      <trkpt lat="49.84264" lon="4.84301">
        <ele>362</ele>
        <time>2022-06-06T10:12:13.000Z</time>
      </trkpt>
      <trkpt lat="49.84261" lon="4.84306">
        <ele>362</ele>
        <time>2022-06-06T10:12:14.000Z</time>
      </trkpt>
      <trkpt lat="49.84257" lon="4.8431">
        <ele>362</ele>
        <time>2022-06-06T10:12:15.000Z</time>
      </trkpt>
      <trkpt lat="49.84253" lon="4.84313">
        <ele>362</ele>
        <time>2022-06-06T10:12:16.000Z</time>
      </trkpt>
      <trkpt lat="49.84247" lon="4.84314">
        <ele>362</ele>
        <time>2022-06-06T10:12:17.000Z</time>
      </trkpt>
      <trkpt lat="49.84242" lon="4.84314">
        <ele>362</ele>
        <time>2022-06-06T10:12:18.000Z</time>
      </trkpt>
      <trkpt lat="49.84237" lon="4.84314">
        <ele>362</ele>
        <time>2022-06-06T10:12:19.000Z</time>
      </trkpt>
      <trkpt lat="49.84232" lon="4.84313">
        <ele>362</ele>
        <time>2022-06-06T10:12:20.000Z</time>
      </trkpt>
      <trkpt lat="49.84227" lon="4.84312">
        <ele>362</ele>
        <time>2022-06-06T10:12:21.000Z</time>
      </trkpt>
      <trkpt lat="49.84222" lon="4.84311">
        <ele>362</ele>
        <time>2022-06-06T10:12:22.000Z</time>
      </trkpt>
      <trkpt lat="49.84216" lon="4.8431">
        <ele>362</ele>
        <time>2022-06-06T10:12:23.000Z</time>
      </trkpt>
      <trkpt lat="49.8421" lon="4.8431">
        <ele>362</ele>
        <time>2022-06-06T10:12:24.000Z</time>
      </trkpt>
      <trkpt lat="49.84204" lon="4.84309">
        <ele>362</ele>
        <time>2022-06-06T10:12:25.000Z</time>
      </trkpt>
      <trkpt lat="49.84197" lon="4.84308">
        <ele>362</ele>
        <time>2022-06-06T10:12:26.000Z</time>
      </trkpt>
      <trkpt lat="49.8419" lon="4.84308">
        <ele>362</ele>
        <time>2022-06-06T10:12:27.000Z</time>
      </trkpt>
      <trkpt lat="49.84184" lon="4.84307">
        <ele>362</ele>
        <time>2022-06-06T10:12:28.000Z</time>
      </trkpt>
      <trkpt lat="49.84176" lon="4.84306">
        <ele>362</ele>
        <time>2022-06-06T10:12:29.000Z</time>
      </trkpt>
      <trkpt lat="49.84168" lon="4.84306">
        <ele>362</ele>
        <time>2022-06-06T10:12:30.000Z</time>
      </trkpt>
      <trkpt lat="49.84161" lon="4.84305">
        <ele>362</ele>
        <time>2022-06-06T10:12:31.000Z</time>
      </trkpt>
      <trkpt lat="49.84154" lon="4.84304">
        <ele>362</ele>
        <time>2022-06-06T10:12:32.000Z</time>
      </trkpt>
      <trkpt lat="49.84147" lon="4.84304">
        <ele>362</ele>
        <time>2022-06-06T10:12:33.000Z</time>
      </trkpt>
      <trkpt lat="49.8414" lon="4.84302">
        <ele>362</ele>
        <time>2022-06-06T10:12:34.000Z</time>
      </trkpt>
      <trkpt lat="49.84134" lon="4.84301">
        <ele>362</ele>
        <time>2022-06-06T10:12:35.000Z</time>
      </trkpt>
      <trkpt lat="49.84128" lon="4.843">
        <ele>362</ele>
        <time>2022-06-06T10:12:36.000Z</time>
      </trkpt>
      <trkpt lat="49.84122" lon="4.84299">
        <ele>362</ele>
        <time>2022-06-06T10:12:37.000Z</time>
      </trkpt>
      <trkpt lat="49.84117" lon="4.84298">
        <ele>362</ele>
        <time>2022-06-06T10:12:38.000Z</time>
      </trkpt>
      <trkpt lat="49.84111" lon="4.84296">
        <ele>361</ele>
        <time>2022-06-06T10:12:39.000Z</time>
      </trkpt>
      <trkpt lat="49.84106" lon="4.84296">
        <ele>361</ele>
        <time>2022-06-06T10:12:40.000Z</time>
      </trkpt>
      <trkpt lat="49.84101" lon="4.84294">
        <ele>361</ele>
        <time>2022-06-06T10:12:41.000Z</time>
      </trkpt>
      <trkpt lat="49.84096" lon="4.84293">
        <ele>361</ele>
        <time>2022-06-06T10:12:42.000Z</time>
      </trkpt>
      <trkpt lat="49.8409" lon="4.84292">
        <ele>361</ele>
        <time>2022-06-06T10:12:43.000Z</time>
      </trkpt>
      <trkpt lat="49.84085" lon="4.8429">
        <ele>361</ele>
        <time>2022-06-06T10:12:44.000Z</time>
      </trkpt>
      <trkpt lat="49.84081" lon="4.84288">
        <ele>361</ele>
        <time>2022-06-06T10:12:45.000Z</time>
      </trkpt>
      <trkpt lat="49.84076" lon="4.84287">
        <ele>361</ele>
        <time>2022-06-06T10:12:46.000Z</time>
      </trkpt>
      <trkpt lat="49.8407" lon="4.84286">
        <ele>361</ele>
        <time>2022-06-06T10:12:47.000Z</time>
      </trkpt>
      <trkpt lat="49.84063" lon="4.84285">
        <ele>361</ele>
        <time>2022-06-06T10:12:48.000Z</time>
      </trkpt>
      <trkpt lat="49.84056" lon="4.84283">
        <ele>361</ele>
        <time>2022-06-06T10:12:49.000Z</time>
      </trkpt>
      <trkpt lat="49.84049" lon="4.84282">
        <ele>360</ele>
        <time>2022-06-06T10:12:50.000Z</time>
      </trkpt>
      <trkpt lat="49.84043" lon="4.8428">
        <ele>360</ele>
        <time>2022-06-06T10:12:51.000Z</time>
      </trkpt>
      <trkpt lat="49.84036" lon="4.84279">
        <ele>360</ele>
        <time>2022-06-06T10:12:52.000Z</time>
      </trkpt>
      <trkpt lat="49.84029" lon="4.84278">
        <ele>360</ele>
        <time>2022-06-06T10:12:53.000Z</time>
      </trkpt>
      <trkpt lat="49.84022" lon="4.84276">
        <ele>360</ele>
        <time>2022-06-06T10:12:54.000Z</time>
      </trkpt>
      <trkpt lat="49.84015" lon="4.84275">
        <ele>360</ele>
        <time>2022-06-06T10:12:55.000Z</time>
      </trkpt>
      <trkpt lat="49.84008" lon="4.84273">
        <ele>360</ele>
        <time>2022-06-06T10:12:56.000Z</time>
      </trkpt>
      <trkpt lat="49.84001" lon="4.84272">
        <ele>360</ele>
        <time>2022-06-06T10:12:57.000Z</time>
      </trkpt>
      <trkpt lat="49.83993" lon="4.84271">
        <ele>359</ele>
        <time>2022-06-06T10:12:58.000Z</time>
      </trkpt>
      <trkpt lat="49.83986" lon="4.84269">
        <ele>359</ele>
        <time>2022-06-06T10:12:59.000Z</time>
      </trkpt>
      <trkpt lat="49.83979" lon="4.84268">
        <ele>359</ele>
        <time>2022-06-06T10:13:00.000Z</time>
      </trkpt>
      <trkpt lat="49.83973" lon="4.84266">
        <ele>359</ele>
        <time>2022-06-06T10:13:01.000Z</time>
      </trkpt>
      <trkpt lat="49.83966" lon="4.84264">
        <ele>359</ele>
        <time>2022-06-06T10:13:02.000Z</time>
      </trkpt>
      <trkpt lat="49.83959" lon="4.84262">
        <ele>359</ele>
        <time>2022-06-06T10:13:03.000Z</time>
      </trkpt>
      <trkpt lat="49.83952" lon="4.84261">
        <ele>359</ele>
        <time>2022-06-06T10:13:04.000Z</time>
      </trkpt>
      <trkpt lat="49.83945" lon="4.84259">
        <ele>359</ele>
        <time>2022-06-06T10:13:05.000Z</time>
      </trkpt>
      <trkpt lat="49.83939" lon="4.84257">
        <ele>359</ele>
        <time>2022-06-06T10:13:06.000Z</time>
      </trkpt>
      <trkpt lat="49.83933" lon="4.84256">
        <ele>359</ele>
        <time>2022-06-06T10:13:07.000Z</time>
      </trkpt>
      <trkpt lat="49.83925" lon="4.84255">
        <ele>358</ele>
        <time>2022-06-06T10:13:08.000Z</time>
      </trkpt>
      <trkpt lat="49.83917" lon="4.84254">
        <ele>358</ele>
        <time>2022-06-06T10:13:09.000Z</time>
      </trkpt>
      <trkpt lat="49.8391" lon="4.84252">
        <ele>358</ele>
        <time>2022-06-06T10:13:10.000Z</time>
      </trkpt>
      <trkpt lat="49.83902" lon="4.84251">
        <ele>358</ele>
        <time>2022-06-06T10:13:11.000Z</time>
      </trkpt>
      <trkpt lat="49.83895" lon="4.84249">
        <ele>357</ele>
        <time>2022-06-06T10:13:12.000Z</time>
      </trkpt>
      <trkpt lat="49.83889" lon="4.84247">
        <ele>357</ele>
        <time>2022-06-06T10:13:13.000Z</time>
      </trkpt>
      <trkpt lat="49.83883" lon="4.84246">
        <ele>357</ele>
        <time>2022-06-06T10:13:14.000Z</time>
      </trkpt>
      <trkpt lat="49.83876" lon="4.84244">
        <ele>357</ele>
        <time>2022-06-06T10:13:15.000Z</time>
      </trkpt>
      <trkpt lat="49.8387" lon="4.84242">
        <ele>357</ele>
        <time>2022-06-06T10:13:16.000Z</time>
      </trkpt>
      <trkpt lat="49.83863" lon="4.8424">
        <ele>357</ele>
        <time>2022-06-06T10:13:17.000Z</time>
      </trkpt>
      <trkpt lat="49.83856" lon="4.84239">
        <ele>357</ele>
        <time>2022-06-06T10:13:18.000Z</time>
      </trkpt>
      <trkpt lat="49.83849" lon="4.84238">
        <ele>357</ele>
        <time>2022-06-06T10:13:19.000Z</time>
      </trkpt>
      <trkpt lat="49.83842" lon="4.84236">
        <ele>357</ele>
        <time>2022-06-06T10:13:20.000Z</time>
      </trkpt>
      <trkpt lat="49.83835" lon="4.84235">
        <ele>357</ele>
        <time>2022-06-06T10:13:21.000Z</time>
      </trkpt>
      <trkpt lat="49.83828" lon="4.84233">
        <ele>357</ele>
        <time>2022-06-06T10:13:22.000Z</time>
      </trkpt>
      <trkpt lat="49.83822" lon="4.84232">
        <ele>357</ele>
        <time>2022-06-06T10:13:23.000Z</time>
      </trkpt>
      <trkpt lat="49.83816" lon="4.84231">
        <ele>357</ele>
        <time>2022-06-06T10:13:24.000Z</time>
      </trkpt>
      <trkpt lat="49.83811" lon="4.8423">
        <ele>358</ele>
        <time>2022-06-06T10:13:25.000Z</time>
      </trkpt>
      <trkpt lat="49.83805" lon="4.84229">
        <ele>358</ele>
        <time>2022-06-06T10:13:26.000Z</time>
      </trkpt>
      <trkpt lat="49.838" lon="4.84228">
        <ele>358</ele>
        <time>2022-06-06T10:13:27.000Z</time>
      </trkpt>
      <trkpt lat="49.83795" lon="4.84228">
        <ele>358</ele>
        <time>2022-06-06T10:13:28.000Z</time>
      </trkpt>
      <trkpt lat="49.8379" lon="4.84226">
        <ele>358</ele>
        <time>2022-06-06T10:13:29.000Z</time>
      </trkpt>
      <trkpt lat="49.83785" lon="4.84225">
        <ele>358</ele>
        <time>2022-06-06T10:13:30.000Z</time>
      </trkpt>
      <trkpt lat="49.8378" lon="4.84225">
        <ele>359</ele>
        <time>2022-06-06T10:13:31.000Z</time>
      </trkpt>
      <trkpt lat="49.83775" lon="4.84224">
        <ele>359</ele>
        <time>2022-06-06T10:13:32.000Z</time>
      </trkpt>
      <trkpt lat="49.83771" lon="4.84222">
        <ele>359</ele>
        <time>2022-06-06T10:13:33.000Z</time>
      </trkpt>
      <trkpt lat="49.83766" lon="4.84222">
        <ele>359</ele>
        <time>2022-06-06T10:13:34.000Z</time>
      </trkpt>
      <trkpt lat="49.83762" lon="4.84221">
        <ele>359</ele>
        <time>2022-06-06T10:13:35.000Z</time>
      </trkpt>
      <trkpt lat="49.83758" lon="4.84221">
        <ele>360</ele>
        <time>2022-06-06T10:13:36.000Z</time>
      </trkpt>
      <trkpt lat="49.83754" lon="4.84219">
        <ele>360</ele>
        <time>2022-06-06T10:13:37.000Z</time>
      </trkpt>
      <trkpt lat="49.8375" lon="4.84219">
        <ele>360</ele>
        <time>2022-06-06T10:13:38.000Z</time>
      </trkpt>
      <trkpt lat="49.83745" lon="4.84218">
        <ele>360</ele>
        <time>2022-06-06T10:13:39.000Z</time>
      </trkpt>
      <trkpt lat="49.8374" lon="4.84217">
        <ele>360</ele>
        <time>2022-06-06T10:13:40.000Z</time>
      </trkpt>
      <trkpt lat="49.83736" lon="4.84216">
        <ele>361</ele>
        <time>2022-06-06T10:13:41.000Z</time>
      </trkpt>
      <trkpt lat="49.83732" lon="4.84216">
        <ele>361</ele>
        <time>2022-06-06T10:13:42.000Z</time>
      </trkpt>
      <trkpt lat="49.83728" lon="4.84215">
        <ele>361</ele>
        <time>2022-06-06T10:13:43.000Z</time>
      </trkpt>
      <trkpt lat="49.83723" lon="4.84214">
        <ele>362</ele>
        <time>2022-06-06T10:13:44.000Z</time>
      </trkpt>
      <trkpt lat="49.83718" lon="4.84213">
        <ele>362</ele>
        <time>2022-06-06T10:13:45.000Z</time>
      </trkpt>
      <trkpt lat="49.83714" lon="4.84212">
        <ele>362</ele>
        <time>2022-06-06T10:13:46.000Z</time>
      </trkpt>
      <trkpt lat="49.83709" lon="4.84211">
        <ele>362</ele>
        <time>2022-06-06T10:13:47.000Z</time>
      </trkpt>
      <trkpt lat="49.83704" lon="4.8421">
        <ele>362</ele>
        <time>2022-06-06T10:13:48.000Z</time>
      </trkpt>
      <trkpt lat="49.83699" lon="4.84209">
        <ele>362</ele>
        <time>2022-06-06T10:13:49.000Z</time>
      </trkpt>
      <trkpt lat="49.83695" lon="4.84208">
        <ele>363</ele>
        <time>2022-06-06T10:13:50.000Z</time>
      </trkpt>
      <trkpt lat="49.83691" lon="4.84208">
        <ele>363</ele>
        <time>2022-06-06T10:13:51.000Z</time>
      </trkpt>
      <trkpt lat="49.83687" lon="4.84207">
        <ele>363</ele>
        <time>2022-06-06T10:13:52.000Z</time>
      </trkpt>
      <trkpt lat="49.83683" lon="4.84205">
        <ele>363</ele>
        <time>2022-06-06T10:13:53.000Z</time>
      </trkpt>
      <trkpt lat="49.8368" lon="4.84205">
        <ele>363</ele>
        <time>2022-06-06T10:13:54.000Z</time>
      </trkpt>
      <trkpt lat="49.83676" lon="4.84204">
        <ele>363</ele>
        <time>2022-06-06T10:13:55.000Z</time>
      </trkpt>
      <trkpt lat="49.83673" lon="4.84203">
        <ele>364</ele>
        <time>2022-06-06T10:13:56.000Z</time>
      </trkpt>
      <trkpt lat="49.8367" lon="4.84203">
        <ele>364</ele>
        <time>2022-06-06T10:13:57.000Z</time>
      </trkpt>
      <trkpt lat="49.83669" lon="4.84202">
        <ele>364</ele>
        <time>2022-06-06T10:13:58.000Z</time>
      </trkpt>
      <trkpt lat="49.83668" lon="4.84203">
        <ele>364</ele>
        <time>2022-06-06T10:13:59.000Z</time>
      </trkpt>
      <trkpt lat="49.83667" lon="4.84203">
        <ele>364</ele>
        <time>2022-06-06T10:14:00.000Z</time>
      </trkpt>
      <trkpt lat="49.83667" lon="4.84203">
        <ele>365</ele>
        <time>2022-06-06T10:14:01.000Z</time>
      </trkpt>
      <trkpt lat="49.83667" lon="4.84202">
        <ele>365</ele>
        <time>2022-06-06T10:14:02.000Z</time>
      </trkpt>
      <trkpt lat="49.83666" lon="4.84202">
        <ele>365</ele>
        <time>2022-06-06T10:14:03.000Z</time>
      </trkpt>
      <trkpt lat="49.83665" lon="4.84202">
        <ele>365</ele>
        <time>2022-06-06T10:14:04.000Z</time>
      </trkpt>
      <trkpt lat="49.83664" lon="4.84203">
        <ele>366</ele>
        <time>2022-06-06T10:14:05.000Z</time>
      </trkpt>
      <trkpt lat="49.83663" lon="4.84204">
        <ele>366</ele>
        <time>2022-06-06T10:14:06.000Z</time>
      </trkpt>
      <trkpt lat="49.83662" lon="4.84206">
        <ele>366</ele>
        <time>2022-06-06T10:14:07.000Z</time>
      </trkpt>
      <trkpt lat="49.8366" lon="4.84209">
        <ele>366</ele>
        <time>2022-06-06T10:14:08.000Z</time>
      </trkpt>
      <trkpt lat="49.83658" lon="4.84212">
        <ele>366</ele>
        <time>2022-06-06T10:14:09.000Z</time>
      </trkpt>
      <trkpt lat="49.83656" lon="4.84215">
        <ele>366</ele>
        <time>2022-06-06T10:14:10.000Z</time>
      </trkpt>
      <trkpt lat="49.83654" lon="4.84219">
        <ele>366</ele>
        <time>2022-06-06T10:14:11.000Z</time>
      </trkpt>
      <trkpt lat="49.83651" lon="4.84224">
        <ele>366</ele>
        <time>2022-06-06T10:14:12.000Z</time>
      </trkpt>
      <trkpt lat="49.83648" lon="4.8423">
        <ele>366</ele>
        <time>2022-06-06T10:14:13.000Z</time>
      </trkpt>
      <trkpt lat="49.83645" lon="4.84238">
        <ele>366</ele>
        <time>2022-06-06T10:14:14.000Z</time>
      </trkpt>
      <trkpt lat="49.83642" lon="4.84245">
        <ele>366</ele>
        <time>2022-06-06T10:14:15.000Z</time>
      </trkpt>
      <trkpt lat="49.83639" lon="4.84254">
        <ele>366</ele>
        <time>2022-06-06T10:14:16.000Z</time>
      </trkpt>
      <trkpt lat="49.83637" lon="4.84264">
        <ele>366</ele>
        <time>2022-06-06T10:14:17.000Z</time>
      </trkpt>
      <trkpt lat="49.83633" lon="4.84275">
        <ele>365</ele>
        <time>2022-06-06T10:14:18.000Z</time>
      </trkpt>
      <trkpt lat="49.83629" lon="4.84286">
        <ele>365</ele>
        <time>2022-06-06T10:14:19.000Z</time>
      </trkpt>
      <trkpt lat="49.83625" lon="4.84297">
        <ele>365</ele>
        <time>2022-06-06T10:14:20.000Z</time>
      </trkpt>
      <trkpt lat="49.83621" lon="4.84307">
        <ele>365</ele>
        <time>2022-06-06T10:14:21.000Z</time>
      </trkpt>
      <trkpt lat="49.83618" lon="4.84316">
        <ele>365</ele>
        <time>2022-06-06T10:14:22.000Z</time>
      </trkpt>
      <trkpt lat="49.83616" lon="4.84326">
        <ele>365</ele>
        <time>2022-06-06T10:14:23.000Z</time>
      </trkpt>
      <trkpt lat="49.83613" lon="4.84335">
        <ele>364</ele>
        <time>2022-06-06T10:14:24.000Z</time>
      </trkpt>
      <trkpt lat="49.83611" lon="4.84345">
        <ele>364</ele>
        <time>2022-06-06T10:14:25.000Z</time>
      </trkpt>
      <trkpt lat="49.83609" lon="4.84355">
        <ele>364</ele>
        <time>2022-06-06T10:14:26.000Z</time>
      </trkpt>
      <trkpt lat="49.83607" lon="4.84365">
        <ele>363</ele>
        <time>2022-06-06T10:14:27.000Z</time>
      </trkpt>
      <trkpt lat="49.83606" lon="4.84374">
        <ele>363</ele>
        <time>2022-06-06T10:14:28.000Z</time>
      </trkpt>
      <trkpt lat="49.83604" lon="4.84384">
        <ele>363</ele>
        <time>2022-06-06T10:14:29.000Z</time>
      </trkpt>
      <trkpt lat="49.83601" lon="4.84394">
        <ele>362</ele>
        <time>2022-06-06T10:14:30.000Z</time>
      </trkpt>
      <trkpt lat="49.83598" lon="4.84404">
        <ele>362</ele>
        <time>2022-06-06T10:14:31.000Z</time>
      </trkpt>
      <trkpt lat="49.83595" lon="4.84414">
        <ele>362</ele>
        <time>2022-06-06T10:14:32.000Z</time>
      </trkpt>
      <trkpt lat="49.83591" lon="4.84424">
        <ele>362</ele>
        <time>2022-06-06T10:14:33.000Z</time>
      </trkpt>
      <trkpt lat="49.83587" lon="4.84433">
        <ele>361</ele>
        <time>2022-06-06T10:14:34.000Z</time>
      </trkpt>
      <trkpt lat="49.83584" lon="4.84442">
        <ele>361</ele>
        <time>2022-06-06T10:14:35.000Z</time>
      </trkpt>
      <trkpt lat="49.83581" lon="4.8445">
        <ele>360</ele>
        <time>2022-06-06T10:14:36.000Z</time>
      </trkpt>
      <trkpt lat="49.83579" lon="4.84458">
        <ele>360</ele>
        <time>2022-06-06T10:14:37.000Z</time>
      </trkpt>
      <trkpt lat="49.83577" lon="4.84467">
        <ele>360</ele>
        <time>2022-06-06T10:14:38.000Z</time>
      </trkpt>
      <trkpt lat="49.83576" lon="4.84475">
        <ele>359</ele>
        <time>2022-06-06T10:14:39.000Z</time>
      </trkpt>
      <trkpt lat="49.83575" lon="4.84484">
        <ele>359</ele>
        <time>2022-06-06T10:14:40.000Z</time>
      </trkpt>
      <trkpt lat="49.83573" lon="4.84492">
        <ele>358</ele>
        <time>2022-06-06T10:14:41.000Z</time>
      </trkpt>
      <trkpt lat="49.83572" lon="4.84501">
        <ele>358</ele>
        <time>2022-06-06T10:14:42.000Z</time>
      </trkpt>
      <trkpt lat="49.8357" lon="4.8451">
        <ele>357</ele>
        <time>2022-06-06T10:14:43.000Z</time>
      </trkpt>
      <trkpt lat="49.83568" lon="4.84519">
        <ele>357</ele>
        <time>2022-06-06T10:14:44.000Z</time>
      </trkpt>
      <trkpt lat="49.83567" lon="4.84528">
        <ele>356</ele>
        <time>2022-06-06T10:14:45.000Z</time>
      </trkpt>
      <trkpt lat="49.83565" lon="4.84538">
        <ele>356</ele>
        <time>2022-06-06T10:14:46.000Z</time>
      </trkpt>
      <trkpt lat="49.83563" lon="4.84547">
        <ele>356</ele>
        <time>2022-06-06T10:14:47.000Z</time>
      </trkpt>
      <trkpt lat="49.83562" lon="4.84557">
        <ele>356</ele>
        <time>2022-06-06T10:14:48.000Z</time>
      </trkpt>
      <trkpt lat="49.8356" lon="4.84567">
        <ele>355</ele>
        <time>2022-06-06T10:14:49.000Z</time>
      </trkpt>
      <trkpt lat="49.83558" lon="4.84576">
        <ele>355</ele>
        <time>2022-06-06T10:14:50.000Z</time>
      </trkpt>
      <trkpt lat="49.83556" lon="4.84586">
        <ele>355</ele>
        <time>2022-06-06T10:14:51.000Z</time>
      </trkpt>
      <trkpt lat="49.83554" lon="4.84595">
        <ele>354</ele>
        <time>2022-06-06T10:14:52.000Z</time>
      </trkpt>
      <trkpt lat="49.83552" lon="4.84605">
        <ele>354</ele>
        <time>2022-06-06T10:14:53.000Z</time>
      </trkpt>
      <trkpt lat="49.8355" lon="4.84614">
        <ele>354</ele>
        <time>2022-06-06T10:14:54.000Z</time>
      </trkpt>
      <trkpt lat="49.83548" lon="4.84623">
        <ele>354</ele>
        <time>2022-06-06T10:14:55.000Z</time>
      </trkpt>
      <trkpt lat="49.83547" lon="4.84632">
        <ele>353</ele>
        <time>2022-06-06T10:14:56.000Z</time>
      </trkpt>
      <trkpt lat="49.83545" lon="4.84641">
        <ele>353</ele>
        <time>2022-06-06T10:14:57.000Z</time>
      </trkpt>
      <trkpt lat="49.83543" lon="4.8465">
        <ele>353</ele>
        <time>2022-06-06T10:14:58.000Z</time>
      </trkpt>
      <trkpt lat="49.83541" lon="4.84659">
        <ele>353</ele>
        <time>2022-06-06T10:14:59.000Z</time>
      </trkpt>
      <trkpt lat="49.83539" lon="4.84668">
        <ele>352</ele>
        <time>2022-06-06T10:15:00.000Z</time>
      </trkpt>
      <trkpt lat="49.83537" lon="4.84677">
        <ele>352</ele>
        <time>2022-06-06T10:15:01.000Z</time>
      </trkpt>
      <trkpt lat="49.83535" lon="4.84685">
        <ele>352</ele>
        <time>2022-06-06T10:15:02.000Z</time>
      </trkpt>
      <trkpt lat="49.83534" lon="4.84694">
        <ele>352</ele>
        <time>2022-06-06T10:15:03.000Z</time>
      </trkpt>
      <trkpt lat="49.83532" lon="4.84702">
        <ele>351</ele>
        <time>2022-06-06T10:15:04.000Z</time>
      </trkpt>
      <trkpt lat="49.8353" lon="4.84711">
        <ele>351</ele>
        <time>2022-06-06T10:15:05.000Z</time>
      </trkpt>
      <trkpt lat="49.83529" lon="4.8472">
        <ele>351</ele>
        <time>2022-06-06T10:15:06.000Z</time>
      </trkpt>
      <trkpt lat="49.83528" lon="4.84728">
        <ele>351</ele>
        <time>2022-06-06T10:15:07.000Z</time>
      </trkpt>
      <trkpt lat="49.83527" lon="4.84736">
        <ele>350</ele>
        <time>2022-06-06T10:15:08.000Z</time>
      </trkpt>
      <trkpt lat="49.83526" lon="4.84745">
        <ele>350</ele>
        <time>2022-06-06T10:15:09.000Z</time>
      </trkpt>
      <trkpt lat="49.83524" lon="4.84753">
        <ele>350</ele>
        <time>2022-06-06T10:15:10.000Z</time>
      </trkpt>
      <trkpt lat="49.83523" lon="4.84762">
        <ele>350</ele>
        <time>2022-06-06T10:15:11.000Z</time>
      </trkpt>
      <trkpt lat="49.83521" lon="4.8477">
        <ele>350</ele>
        <time>2022-06-06T10:15:12.000Z</time>
      </trkpt>
      <trkpt lat="49.8352" lon="4.84779">
        <ele>349</ele>
        <time>2022-06-06T10:15:13.000Z</time>
      </trkpt>
      <trkpt lat="49.83518" lon="4.84787">
        <ele>349</ele>
        <time>2022-06-06T10:15:14.000Z</time>
      </trkpt>
      <trkpt lat="49.83517" lon="4.84795">
        <ele>349</ele>
        <time>2022-06-06T10:15:15.000Z</time>
      </trkpt>
      <trkpt lat="49.83516" lon="4.84803">
        <ele>349</ele>
        <time>2022-06-06T10:15:16.000Z</time>
      </trkpt>
      <trkpt lat="49.83514" lon="4.84811">
        <ele>349</ele>
        <time>2022-06-06T10:15:17.000Z</time>
      </trkpt>
      <trkpt lat="49.83512" lon="4.84819">
        <ele>349</ele>
        <time>2022-06-06T10:15:18.000Z</time>
      </trkpt>
      <trkpt lat="49.83511" lon="4.84827">
        <ele>348</ele>
        <time>2022-06-06T10:15:19.000Z</time>
      </trkpt>
      <trkpt lat="49.83509" lon="4.84835">
        <ele>348</ele>
        <time>2022-06-06T10:15:20.000Z</time>
      </trkpt>
      <trkpt lat="49.83508" lon="4.84843">
        <ele>348</ele>
        <time>2022-06-06T10:15:21.000Z</time>
      </trkpt>
      <trkpt lat="49.83506" lon="4.84851">
        <ele>348</ele>
        <time>2022-06-06T10:15:22.000Z</time>
      </trkpt>
      <trkpt lat="49.83505" lon="4.84859">
        <ele>348</ele>
        <time>2022-06-06T10:15:23.000Z</time>
      </trkpt>
      <trkpt lat="49.83503" lon="4.84866">
        <ele>348</ele>
        <time>2022-06-06T10:15:24.000Z</time>
      </trkpt>
      <trkpt lat="49.83501" lon="4.84873">
        <ele>348</ele>
        <time>2022-06-06T10:15:25.000Z</time>
      </trkpt>
      <trkpt lat="49.83499" lon="4.84879">
        <ele>349</ele>
        <time>2022-06-06T10:15:26.000Z</time>
      </trkpt>
      <trkpt lat="49.83497" lon="4.84884">
        <ele>349</ele>
        <time>2022-06-06T10:15:27.000Z</time>
      </trkpt>
      <trkpt lat="49.83494" lon="4.8489">
        <ele>349</ele>
        <time>2022-06-06T10:15:28.000Z</time>
      </trkpt>
      <trkpt lat="49.83492" lon="4.84896">
        <ele>349</ele>
        <time>2022-06-06T10:15:29.000Z</time>
      </trkpt>
      <trkpt lat="49.83489" lon="4.849">
        <ele>349</ele>
        <time>2022-06-06T10:15:30.000Z</time>
      </trkpt>
      <trkpt lat="49.83487" lon="4.84905">
        <ele>349</ele>
        <time>2022-06-06T10:15:31.000Z</time>
      </trkpt>
      <trkpt lat="49.83483" lon="4.84909">
        <ele>349</ele>
        <time>2022-06-06T10:15:32.000Z</time>
      </trkpt>
      <trkpt lat="49.8348" lon="4.84912">
        <ele>349</ele>
        <time>2022-06-06T10:15:33.000Z</time>
      </trkpt>
      <trkpt lat="49.83477" lon="4.84916">
        <ele>349</ele>
        <time>2022-06-06T10:15:34.000Z</time>
      </trkpt>
      <trkpt lat="49.83474" lon="4.84919">
        <ele>349</ele>
        <time>2022-06-06T10:15:35.000Z</time>
      </trkpt>
      <trkpt lat="49.83471" lon="4.84923">
        <ele>349</ele>
        <time>2022-06-06T10:15:36.000Z</time>
      </trkpt>
      <trkpt lat="49.83467" lon="4.84926">
        <ele>349</ele>
        <time>2022-06-06T10:15:37.000Z</time>
      </trkpt>
      <trkpt lat="49.83464" lon="4.84929">
        <ele>349</ele>
        <time>2022-06-06T10:15:38.000Z</time>
      </trkpt>
      <trkpt lat="49.8346" lon="4.84932">
        <ele>349</ele>
        <time>2022-06-06T10:15:39.000Z</time>
      </trkpt>
      <trkpt lat="49.83456" lon="4.84936">
        <ele>349</ele>
        <time>2022-06-06T10:15:40.000Z</time>
      </trkpt>
      <trkpt lat="49.83453" lon="4.8494">
        <ele>349</ele>
        <time>2022-06-06T10:15:41.000Z</time>
      </trkpt>
      <trkpt lat="49.83449" lon="4.84943">
        <ele>349</ele>
        <time>2022-06-06T10:15:42.000Z</time>
      </trkpt>
      <trkpt lat="49.83445" lon="4.84947">
        <ele>349</ele>
        <time>2022-06-06T10:15:43.000Z</time>
      </trkpt>
      <trkpt lat="49.83442" lon="4.84951">
        <ele>349</ele>
        <time>2022-06-06T10:15:44.000Z</time>
      </trkpt>
      <trkpt lat="49.83438" lon="4.84954">
        <ele>350</ele>
        <time>2022-06-06T10:15:45.000Z</time>
      </trkpt>
      <trkpt lat="49.83435" lon="4.84957">
        <ele>350</ele>
        <time>2022-06-06T10:15:46.000Z</time>
      </trkpt>
      <trkpt lat="49.83431" lon="4.8496">
        <ele>350</ele>
        <time>2022-06-06T10:15:47.000Z</time>
      </trkpt>
      <trkpt lat="49.83427" lon="4.84964">
        <ele>350</ele>
        <time>2022-06-06T10:15:48.000Z</time>
      </trkpt>
      <trkpt lat="49.83423" lon="4.84968">
        <ele>350</ele>
        <time>2022-06-06T10:15:49.000Z</time>
      </trkpt>
      <trkpt lat="49.8342" lon="4.84971">
        <ele>351</ele>
        <time>2022-06-06T10:15:50.000Z</time>
      </trkpt>
      <trkpt lat="49.83416" lon="4.84975">
        <ele>351</ele>
        <time>2022-06-06T10:15:51.000Z</time>
      </trkpt>
      <trkpt lat="49.83413" lon="4.84978">
        <ele>351</ele>
        <time>2022-06-06T10:15:52.000Z</time>
      </trkpt>
      <trkpt lat="49.8341" lon="4.84981">
        <ele>351</ele>
        <time>2022-06-06T10:15:53.000Z</time>
      </trkpt>
      <trkpt lat="49.83407" lon="4.84985">
        <ele>352</ele>
        <time>2022-06-06T10:15:54.000Z</time>
      </trkpt>
      <trkpt lat="49.83403" lon="4.84988">
        <ele>352</ele>
        <time>2022-06-06T10:15:55.000Z</time>
      </trkpt>
      <trkpt lat="49.83399" lon="4.84992">
        <ele>352</ele>
        <time>2022-06-06T10:15:56.000Z</time>
      </trkpt>
      <trkpt lat="49.83396" lon="4.84995">
        <ele>352</ele>
        <time>2022-06-06T10:15:57.000Z</time>
      </trkpt>
      <trkpt lat="49.83392" lon="4.84999">
        <ele>353</ele>
        <time>2022-06-06T10:15:58.000Z</time>
      </trkpt>
      <trkpt lat="49.83389" lon="4.85002">
        <ele>353</ele>
        <time>2022-06-06T10:15:59.000Z</time>
      </trkpt>
      <trkpt lat="49.83385" lon="4.85005">
        <ele>353</ele>
        <time>2022-06-06T10:16:00.000Z</time>
      </trkpt>
      <trkpt lat="49.83382" lon="4.85009">
        <ele>353</ele>
        <time>2022-06-06T10:16:01.000Z</time>
      </trkpt>
      <trkpt lat="49.83378" lon="4.85012">
        <ele>353</ele>
        <time>2022-06-06T10:16:02.000Z</time>
      </trkpt>
      <trkpt lat="49.83375" lon="4.85015">
        <ele>354</ele>
        <time>2022-06-06T10:16:03.000Z</time>
      </trkpt>
      <trkpt lat="49.83371" lon="4.85018">
        <ele>354</ele>
        <time>2022-06-06T10:16:04.000Z</time>
      </trkpt>
      <trkpt lat="49.83368" lon="4.85021">
        <ele>354</ele>
        <time>2022-06-06T10:16:05.000Z</time>
      </trkpt>
      <trkpt lat="49.83365" lon="4.85023">
        <ele>354</ele>
        <time>2022-06-06T10:16:06.000Z</time>
      </trkpt>
      <trkpt lat="49.83362" lon="4.85025">
        <ele>354</ele>
        <time>2022-06-06T10:16:07.000Z</time>
      </trkpt>
      <trkpt lat="49.83359" lon="4.85028">
        <ele>355</ele>
        <time>2022-06-06T10:16:08.000Z</time>
      </trkpt>
      <trkpt lat="49.83356" lon="4.8503">
        <ele>355</ele>
        <time>2022-06-06T10:16:09.000Z</time>
      </trkpt>
      <trkpt lat="49.83353" lon="4.85032">
        <ele>355</ele>
        <time>2022-06-06T10:16:10.000Z</time>
      </trkpt>
      <trkpt lat="49.8335" lon="4.85034">
        <ele>355</ele>
        <time>2022-06-06T10:16:11.000Z</time>
      </trkpt>
      <trkpt lat="49.83347" lon="4.85036">
        <ele>355</ele>
        <time>2022-06-06T10:16:12.000Z</time>
      </trkpt>
      <trkpt lat="49.83344" lon="4.85037">
        <ele>355</ele>
        <time>2022-06-06T10:16:13.000Z</time>
      </trkpt>
      <trkpt lat="49.83341" lon="4.85039">
        <ele>356</ele>
        <time>2022-06-06T10:16:14.000Z</time>
      </trkpt>
      <trkpt lat="49.83338" lon="4.8504">
        <ele>356</ele>
        <time>2022-06-06T10:16:15.000Z</time>
      </trkpt>
      <trkpt lat="49.83336" lon="4.85041">
        <ele>356</ele>
        <time>2022-06-06T10:16:16.000Z</time>
      </trkpt>
      <trkpt lat="49.83333" lon="4.85042">
        <ele>356</ele>
        <time>2022-06-06T10:16:17.000Z</time>
      </trkpt>
      <trkpt lat="49.8333" lon="4.85043">
        <ele>356</ele>
        <time>2022-06-06T10:16:18.000Z</time>
      </trkpt>
      <trkpt lat="49.83328" lon="4.85044">
        <ele>356</ele>
        <time>2022-06-06T10:16:19.000Z</time>
      </trkpt>
      <trkpt lat="49.83325" lon="4.85044">
        <ele>357</ele>
        <time>2022-06-06T10:16:20.000Z</time>
      </trkpt>
      <trkpt lat="49.83322" lon="4.85044">
        <ele>357</ele>
        <time>2022-06-06T10:16:21.000Z</time>
      </trkpt>
      <trkpt lat="49.83319" lon="4.85045">
        <ele>357</ele>
        <time>2022-06-06T10:16:22.000Z</time>
      </trkpt>
      <trkpt lat="49.83316" lon="4.85046">
        <ele>357</ele>
        <time>2022-06-06T10:16:23.000Z</time>
      </trkpt>
      <trkpt lat="49.83313" lon="4.85046">
        <ele>357</ele>
        <time>2022-06-06T10:16:24.000Z</time>
      </trkpt>
      <trkpt lat="49.83309" lon="4.85047">
        <ele>357</ele>
        <time>2022-06-06T10:16:25.000Z</time>
      </trkpt>
      <trkpt lat="49.83306" lon="4.85049">
        <ele>357</ele>
        <time>2022-06-06T10:16:26.000Z</time>
      </trkpt>
      <trkpt lat="49.83303" lon="4.8505">
        <ele>357</ele>
        <time>2022-06-06T10:16:27.000Z</time>
      </trkpt>
      <trkpt lat="49.833" lon="4.85051">
        <ele>358</ele>
        <time>2022-06-06T10:16:28.000Z</time>
      </trkpt>
      <trkpt lat="49.83296" lon="4.85052">
        <ele>358</ele>
        <time>2022-06-06T10:16:29.000Z</time>
      </trkpt>
      <trkpt lat="49.83293" lon="4.85053">
        <ele>358</ele>
        <time>2022-06-06T10:16:30.000Z</time>
      </trkpt>
      <trkpt lat="49.8329" lon="4.85054">
        <ele>358</ele>
        <time>2022-06-06T10:16:31.000Z</time>
      </trkpt>
      <trkpt lat="49.83287" lon="4.85055">
        <ele>359</ele>
        <time>2022-06-06T10:16:32.000Z</time>
      </trkpt>
      <trkpt lat="49.83284" lon="4.85056">
        <ele>359</ele>
        <time>2022-06-06T10:16:33.000Z</time>
      </trkpt>
      <trkpt lat="49.83281" lon="4.85056">
        <ele>359</ele>
        <time>2022-06-06T10:16:34.000Z</time>
      </trkpt>
      <trkpt lat="49.83278" lon="4.85056">
        <ele>359</ele>
        <time>2022-06-06T10:16:35.000Z</time>
      </trkpt>
      <trkpt lat="49.83275" lon="4.85055">
        <ele>360</ele>
        <time>2022-06-06T10:16:36.000Z</time>
      </trkpt>
      <trkpt lat="49.83272" lon="4.85054">
        <ele>360</ele>
        <time>2022-06-06T10:16:37.000Z</time>
      </trkpt>
      <trkpt lat="49.83269" lon="4.85052">
        <ele>360</ele>
        <time>2022-06-06T10:16:38.000Z</time>
      </trkpt>
      <trkpt lat="49.83266" lon="4.85051">
        <ele>360</ele>
        <time>2022-06-06T10:16:39.000Z</time>
      </trkpt>
      <trkpt lat="49.83263" lon="4.8505">
        <ele>361</ele>
        <time>2022-06-06T10:16:40.000Z</time>
      </trkpt>
      <trkpt lat="49.8326" lon="4.85048">
        <ele>361</ele>
        <time>2022-06-06T10:16:41.000Z</time>
      </trkpt>
      <trkpt lat="49.83257" lon="4.85046">
        <ele>361</ele>
        <time>2022-06-06T10:16:42.000Z</time>
      </trkpt>
      <trkpt lat="49.83254" lon="4.85043">
        <ele>361</ele>
        <time>2022-06-06T10:16:43.000Z</time>
      </trkpt>
      <trkpt lat="49.83251" lon="4.8504">
        <ele>361</ele>
        <time>2022-06-06T10:16:44.000Z</time>
      </trkpt>
      <trkpt lat="49.83247" lon="4.85037">
        <ele>362</ele>
        <time>2022-06-06T10:16:45.000Z</time>
      </trkpt>
      <trkpt lat="49.83244" lon="4.85034">
        <ele>362</ele>
        <time>2022-06-06T10:16:46.000Z</time>
      </trkpt>
      <trkpt lat="49.8324" lon="4.85031">
        <ele>362</ele>
        <time>2022-06-06T10:16:47.000Z</time>
      </trkpt>
      <trkpt lat="49.83236" lon="4.85028">
        <ele>362</ele>
        <time>2022-06-06T10:16:48.000Z</time>
      </trkpt>
      <trkpt lat="49.83233" lon="4.85025">
        <ele>362</ele>
        <time>2022-06-06T10:16:49.000Z</time>
      </trkpt>
      <trkpt lat="49.8323" lon="4.85022">
        <ele>362</ele>
        <time>2022-06-06T10:16:50.000Z</time>
      </trkpt>
      <trkpt lat="49.83226" lon="4.85019">
        <ele>363</ele>
        <time>2022-06-06T10:16:51.000Z</time>
      </trkpt>
      <trkpt lat="49.83223" lon="4.85016">
        <ele>363</ele>
        <time>2022-06-06T10:16:52.000Z</time>
      </trkpt>
      <trkpt lat="49.83219" lon="4.85012">
        <ele>363</ele>
        <time>2022-06-06T10:16:53.000Z</time>
      </trkpt>
      <trkpt lat="49.83216" lon="4.85008">
        <ele>363</ele>
        <time>2022-06-06T10:16:54.000Z</time>
      </trkpt>
      <trkpt lat="49.83212" lon="4.85004">
        <ele>363</ele>
        <time>2022-06-06T10:16:55.000Z</time>
      </trkpt>
      <trkpt lat="49.83208" lon="4.85">
        <ele>363</ele>
        <time>2022-06-06T10:16:56.000Z</time>
      </trkpt>
      <trkpt lat="49.83204" lon="4.84996">
        <ele>363</ele>
        <time>2022-06-06T10:16:57.000Z</time>
      </trkpt>
      <trkpt lat="49.83201" lon="4.84993">
        <ele>363</ele>
        <time>2022-06-06T10:16:58.000Z</time>
      </trkpt>
      <trkpt lat="49.83199" lon="4.8499">
        <ele>363</ele>
        <time>2022-06-06T10:16:59.000Z</time>
      </trkpt>
      <trkpt lat="49.83195" lon="4.84985">
        <ele>363</ele>
        <time>2022-06-06T10:17:00.000Z</time>
      </trkpt>
      <trkpt lat="49.8319" lon="4.84981">
        <ele>364</ele>
        <time>2022-06-06T10:17:01.000Z</time>
      </trkpt>
      <trkpt lat="49.83186" lon="4.84976">
        <ele>364</ele>
        <time>2022-06-06T10:17:02.000Z</time>
      </trkpt>
      <trkpt lat="49.83182" lon="4.84972">
        <ele>364</ele>
        <time>2022-06-06T10:17:03.000Z</time>
      </trkpt>
      <trkpt lat="49.83178" lon="4.84968">
        <ele>364</ele>
        <time>2022-06-06T10:17:04.000Z</time>
      </trkpt>
      <trkpt lat="49.83175" lon="4.84965">
        <ele>364</ele>
        <time>2022-06-06T10:17:05.000Z</time>
      </trkpt>
      <trkpt lat="49.83171" lon="4.84961">
        <ele>364</ele>
        <time>2022-06-06T10:17:06.000Z</time>
      </trkpt>
      <trkpt lat="49.83167" lon="4.84957">
        <ele>364</ele>
        <time>2022-06-06T10:17:07.000Z</time>
      </trkpt>
      <trkpt lat="49.83164" lon="4.84953">
        <ele>364</ele>
        <time>2022-06-06T10:17:08.000Z</time>
      </trkpt>
      <trkpt lat="49.8316" lon="4.84949">
        <ele>365</ele>
        <time>2022-06-06T10:17:09.000Z</time>
      </trkpt>
      <trkpt lat="49.83156" lon="4.84946">
        <ele>365</ele>
        <time>2022-06-06T10:17:10.000Z</time>
      </trkpt>
      <trkpt lat="49.83153" lon="4.84943">
        <ele>365</ele>
        <time>2022-06-06T10:17:11.000Z</time>
      </trkpt>
      <trkpt lat="49.8315" lon="4.84939">
        <ele>365</ele>
        <time>2022-06-06T10:17:12.000Z</time>
      </trkpt>
      <trkpt lat="49.83146" lon="4.84936">
        <ele>365</ele>
        <time>2022-06-06T10:17:13.000Z</time>
      </trkpt>
      <trkpt lat="49.83142" lon="4.84933">
        <ele>365</ele>
        <time>2022-06-06T10:17:14.000Z</time>
      </trkpt>
      <trkpt lat="49.83138" lon="4.84928">
        <ele>365</ele>
        <time>2022-06-06T10:17:15.000Z</time>
      </trkpt>
      <trkpt lat="49.83135" lon="4.84925">
        <ele>365</ele>
        <time>2022-06-06T10:17:16.000Z</time>
      </trkpt>
      <trkpt lat="49.83132" lon="4.84922">
        <ele>366</ele>
        <time>2022-06-06T10:17:17.000Z</time>
      </trkpt>
      <trkpt lat="49.83129" lon="4.84919">
        <ele>366</ele>
        <time>2022-06-06T10:17:18.000Z</time>
      </trkpt>
      <trkpt lat="49.83126" lon="4.84916">
        <ele>366</ele>
        <time>2022-06-06T10:17:19.000Z</time>
      </trkpt>
      <trkpt lat="49.83123" lon="4.84913">
        <ele>366</ele>
        <time>2022-06-06T10:17:20.000Z</time>
      </trkpt>
      <trkpt lat="49.83119" lon="4.84909">
        <ele>366</ele>
        <time>2022-06-06T10:17:21.000Z</time>
      </trkpt>
      <trkpt lat="49.83115" lon="4.84905">
        <ele>366</ele>
        <time>2022-06-06T10:17:22.000Z</time>
      </trkpt>
      <trkpt lat="49.8311" lon="4.84901">
        <ele>366</ele>
        <time>2022-06-06T10:17:23.000Z</time>
      </trkpt>
      <trkpt lat="49.83106" lon="4.84896">
        <ele>366</ele>
        <time>2022-06-06T10:17:24.000Z</time>
      </trkpt>
      <trkpt lat="49.83101" lon="4.84892">
        <ele>366</ele>
        <time>2022-06-06T10:17:25.000Z</time>
      </trkpt>
      <trkpt lat="49.83097" lon="4.84887">
        <ele>366</ele>
        <time>2022-06-06T10:17:26.000Z</time>
      </trkpt>
      <trkpt lat="49.83093" lon="4.84882">
        <ele>366</ele>
        <time>2022-06-06T10:17:27.000Z</time>
      </trkpt>
      <trkpt lat="49.83089" lon="4.84877">
        <ele>366</ele>
        <time>2022-06-06T10:17:28.000Z</time>
      </trkpt>
      <trkpt lat="49.83084" lon="4.84873">
        <ele>366</ele>
        <time>2022-06-06T10:17:29.000Z</time>
      </trkpt>
      <trkpt lat="49.83079" lon="4.84868">
        <ele>366</ele>
        <time>2022-06-06T10:17:30.000Z</time>
      </trkpt>
      <trkpt lat="49.83075" lon="4.84864">
        <ele>366</ele>
        <time>2022-06-06T10:17:31.000Z</time>
      </trkpt>
      <trkpt lat="49.8307" lon="4.84859">
        <ele>365</ele>
        <time>2022-06-06T10:17:32.000Z</time>
      </trkpt>
      <trkpt lat="49.83064" lon="4.84854">
        <ele>365</ele>
        <time>2022-06-06T10:17:33.000Z</time>
      </trkpt>
      <trkpt lat="49.83058" lon="4.84849">
        <ele>365</ele>
        <time>2022-06-06T10:17:34.000Z</time>
      </trkpt>
      <trkpt lat="49.83053" lon="4.84845">
        <ele>365</ele>
        <time>2022-06-06T10:17:35.000Z</time>
      </trkpt>
      <trkpt lat="49.83049" lon="4.84842">
        <ele>365</ele>
        <time>2022-06-06T10:17:36.000Z</time>
      </trkpt>
      <trkpt lat="49.83044" lon="4.84839">
        <ele>365</ele>
        <time>2022-06-06T10:17:37.000Z</time>
      </trkpt>
      <trkpt lat="49.83039" lon="4.84838">
        <ele>364</ele>
        <time>2022-06-06T10:17:38.000Z</time>
      </trkpt>
      <trkpt lat="49.83033" lon="4.84839">
        <ele>364</ele>
        <time>2022-06-06T10:17:39.000Z</time>
      </trkpt>
      <trkpt lat="49.83027" lon="4.84841">
        <ele>364</ele>
        <time>2022-06-06T10:17:40.000Z</time>
      </trkpt>
      <trkpt lat="49.83021" lon="4.84841">
        <ele>363</ele>
        <time>2022-06-06T10:17:41.000Z</time>
      </trkpt>
      <trkpt lat="49.83013" lon="4.84841">
        <ele>363</ele>
        <time>2022-06-06T10:17:42.000Z</time>
      </trkpt>
      <trkpt lat="49.83006" lon="4.84841">
        <ele>362</ele>
        <time>2022-06-06T10:17:43.000Z</time>
      </trkpt>
      <trkpt lat="49.82998" lon="4.84839">
        <ele>362</ele>
        <time>2022-06-06T10:17:44.000Z</time>
      </trkpt>
      <trkpt lat="49.8299" lon="4.84836">
        <ele>361</ele>
        <time>2022-06-06T10:17:45.000Z</time>
      </trkpt>
      <trkpt lat="49.82982" lon="4.84834">
        <ele>361</ele>
        <time>2022-06-06T10:17:46.000Z</time>
      </trkpt>
      <trkpt lat="49.82974" lon="4.84832">
        <ele>360</ele>
        <time>2022-06-06T10:17:47.000Z</time>
      </trkpt>
      <trkpt lat="49.82968" lon="4.84833">
        <ele>360</ele>
        <time>2022-06-06T10:17:48.000Z</time>
      </trkpt>
      <trkpt lat="49.82961" lon="4.84835">
        <ele>359</ele>
        <time>2022-06-06T10:17:49.000Z</time>
      </trkpt>
      <trkpt lat="49.82956" lon="4.84838">
        <ele>359</ele>
        <time>2022-06-06T10:17:50.000Z</time>
      </trkpt>
      <trkpt lat="49.82952" lon="4.84843">
        <ele>358</ele>
        <time>2022-06-06T10:17:51.000Z</time>
      </trkpt>
      <trkpt lat="49.82947" lon="4.84849">
        <ele>358</ele>
        <time>2022-06-06T10:17:52.000Z</time>
      </trkpt>
      <trkpt lat="49.82941" lon="4.84856">
        <ele>357</ele>
        <time>2022-06-06T10:17:53.000Z</time>
      </trkpt>
      <trkpt lat="49.82937" lon="4.84863">
        <ele>357</ele>
        <time>2022-06-06T10:17:54.000Z</time>
      </trkpt>
      <trkpt lat="49.82933" lon="4.84868">
        <ele>356</ele>
        <time>2022-06-06T10:17:55.000Z</time>
      </trkpt>
      <trkpt lat="49.82929" lon="4.84872">
        <ele>355</ele>
        <time>2022-06-06T10:17:56.000Z</time>
      </trkpt>
      <trkpt lat="49.82925" lon="4.84875">
        <ele>355</ele>
        <time>2022-06-06T10:17:57.000Z</time>
      </trkpt>
      <trkpt lat="49.82919" lon="4.84878">
        <ele>354</ele>
        <time>2022-06-06T10:17:58.000Z</time>
      </trkpt>
      <trkpt lat="49.82915" lon="4.8488">
        <ele>354</ele>
        <time>2022-06-06T10:17:59.000Z</time>
      </trkpt>
      <trkpt lat="49.82911" lon="4.8488">
        <ele>354</ele>
        <time>2022-06-06T10:18:00.000Z</time>
      </trkpt>
      <trkpt lat="49.82906" lon="4.84881">
        <ele>353</ele>
        <time>2022-06-06T10:18:01.000Z</time>
      </trkpt>
      <trkpt lat="49.82902" lon="4.84882">
        <ele>353</ele>
        <time>2022-06-06T10:18:02.000Z</time>
      </trkpt>
      <trkpt lat="49.82898" lon="4.84884">
        <ele>352</ele>
        <time>2022-06-06T10:18:03.000Z</time>
      </trkpt>
      <trkpt lat="49.82894" lon="4.84886">
        <ele>351</ele>
        <time>2022-06-06T10:18:04.000Z</time>
      </trkpt>
      <trkpt lat="49.82892" lon="4.84889">
        <ele>351</ele>
        <time>2022-06-06T10:18:05.000Z</time>
      </trkpt>
      <trkpt lat="49.82891" lon="4.84891">
        <ele>350</ele>
        <time>2022-06-06T10:18:06.000Z</time>
      </trkpt>
      <trkpt lat="49.8289" lon="4.84895">
        <ele>349</ele>
        <time>2022-06-06T10:18:07.000Z</time>
      </trkpt>
      <trkpt lat="49.82889" lon="4.84899">
        <ele>349</ele>
        <time>2022-06-06T10:18:08.000Z</time>
      </trkpt>
      <trkpt lat="49.82889" lon="4.84904">
        <ele>348</ele>
        <time>2022-06-06T10:18:09.000Z</time>
      </trkpt>
      <trkpt lat="49.82889" lon="4.84908">
        <ele>348</ele>
        <time>2022-06-06T10:18:10.000Z</time>
      </trkpt>
      <trkpt lat="49.82891" lon="4.84912">
        <ele>347</ele>
        <time>2022-06-06T10:18:11.000Z</time>
      </trkpt>
      <trkpt lat="49.82892" lon="4.84917">
        <ele>347</ele>
        <time>2022-06-06T10:18:12.000Z</time>
      </trkpt>
      <trkpt lat="49.82894" lon="4.84922">
        <ele>346</ele>
        <time>2022-06-06T10:18:13.000Z</time>
      </trkpt>
      <trkpt lat="49.82895" lon="4.84927">
        <ele>346</ele>
        <time>2022-06-06T10:18:14.000Z</time>
      </trkpt>
      <trkpt lat="49.82896" lon="4.84932">
        <ele>345</ele>
        <time>2022-06-06T10:18:15.000Z</time>
      </trkpt>
      <trkpt lat="49.82898" lon="4.84937">
        <ele>345</ele>
        <time>2022-06-06T10:18:16.000Z</time>
      </trkpt>
      <trkpt lat="49.82899" lon="4.84941">
        <ele>344</ele>
        <time>2022-06-06T10:18:17.000Z</time>
      </trkpt>
      <trkpt lat="49.829" lon="4.84946">
        <ele>344</ele>
        <time>2022-06-06T10:18:18.000Z</time>
      </trkpt>
      <trkpt lat="49.82901" lon="4.8495">
        <ele>344</ele>
        <time>2022-06-06T10:18:19.000Z</time>
      </trkpt>
      <trkpt lat="49.82903" lon="4.84955">
        <ele>343</ele>
        <time>2022-06-06T10:18:20.000Z</time>
      </trkpt>
      <trkpt lat="49.82904" lon="4.84959">
        <ele>343</ele>
        <time>2022-06-06T10:18:21.000Z</time>
      </trkpt>
      <trkpt lat="49.82905" lon="4.84963">
        <ele>343</ele>
        <time>2022-06-06T10:18:22.000Z</time>
      </trkpt>
      <trkpt lat="49.82907" lon="4.84967">
        <ele>343</ele>
        <time>2022-06-06T10:18:23.000Z</time>
      </trkpt>
      <trkpt lat="49.82908" lon="4.8497">
        <ele>342</ele>
        <time>2022-06-06T10:18:24.000Z</time>
      </trkpt>
      <trkpt lat="49.82909" lon="4.84974">
        <ele>342</ele>
        <time>2022-06-06T10:18:25.000Z</time>
      </trkpt>
      <trkpt lat="49.82911" lon="4.84979">
        <ele>342</ele>
        <time>2022-06-06T10:18:26.000Z</time>
      </trkpt>
      <trkpt lat="49.82912" lon="4.84984">
        <ele>342</ele>
        <time>2022-06-06T10:18:27.000Z</time>
      </trkpt>
      <trkpt lat="49.82913" lon="4.84989">
        <ele>341</ele>
        <time>2022-06-06T10:18:28.000Z</time>
      </trkpt>
      <trkpt lat="49.82913" lon="4.84994">
        <ele>341</ele>
        <time>2022-06-06T10:18:29.000Z</time>
      </trkpt>
      <trkpt lat="49.82913" lon="4.84999">
        <ele>341</ele>
        <time>2022-06-06T10:18:30.000Z</time>
      </trkpt>
      <trkpt lat="49.82913" lon="4.85004">
        <ele>341</ele>
        <time>2022-06-06T10:18:31.000Z</time>
      </trkpt>
      <trkpt lat="49.82913" lon="4.85009">
        <ele>341</ele>
        <time>2022-06-06T10:18:32.000Z</time>
      </trkpt>
      <trkpt lat="49.82913" lon="4.85014">
        <ele>341</ele>
        <time>2022-06-06T10:18:33.000Z</time>
      </trkpt>
      <trkpt lat="49.82913" lon="4.85019">
        <ele>341</ele>
        <time>2022-06-06T10:18:34.000Z</time>
      </trkpt>
      <trkpt lat="49.82912" lon="4.85024">
        <ele>341</ele>
        <time>2022-06-06T10:18:35.000Z</time>
      </trkpt>
      <trkpt lat="49.82912" lon="4.8503">
        <ele>341</ele>
        <time>2022-06-06T10:18:36.000Z</time>
      </trkpt>
      <trkpt lat="49.82911" lon="4.85034">
        <ele>340</ele>
        <time>2022-06-06T10:18:37.000Z</time>
      </trkpt>
      <trkpt lat="49.82911" lon="4.85039">
        <ele>340</ele>
        <time>2022-06-06T10:18:38.000Z</time>
      </trkpt>
      <trkpt lat="49.82909" lon="4.85042">
        <ele>340</ele>
        <time>2022-06-06T10:18:39.000Z</time>
      </trkpt>
      <trkpt lat="49.82908" lon="4.85046">
        <ele>340</ele>
        <time>2022-06-06T10:18:40.000Z</time>
      </trkpt>
      <trkpt lat="49.82907" lon="4.8505">
        <ele>340</ele>
        <time>2022-06-06T10:18:41.000Z</time>
      </trkpt>
      <trkpt lat="49.82906" lon="4.85053">
        <ele>340</ele>
        <time>2022-06-06T10:18:42.000Z</time>
      </trkpt>
      <trkpt lat="49.82905" lon="4.85056">
        <ele>340</ele>
        <time>2022-06-06T10:18:43.000Z</time>
      </trkpt>
      <trkpt lat="49.82904" lon="4.85059">
        <ele>340</ele>
        <time>2022-06-06T10:18:44.000Z</time>
      </trkpt>
      <trkpt lat="49.82903" lon="4.85062">
        <ele>340</ele>
        <time>2022-06-06T10:18:45.000Z</time>
      </trkpt>
      <trkpt lat="49.82901" lon="4.85064">
        <ele>340</ele>
        <time>2022-06-06T10:18:46.000Z</time>
      </trkpt>
      <trkpt lat="49.82899" lon="4.85068">
        <ele>340</ele>
        <time>2022-06-06T10:18:47.000Z</time>
      </trkpt>
      <trkpt lat="49.82897" lon="4.85072">
        <ele>341</ele>
        <time>2022-06-06T10:18:48.000Z</time>
      </trkpt>
      <trkpt lat="49.82895" lon="4.85075">
        <ele>341</ele>
        <time>2022-06-06T10:18:49.000Z</time>
      </trkpt>
      <trkpt lat="49.82893" lon="4.85078">
        <ele>341</ele>
        <time>2022-06-06T10:18:50.000Z</time>
      </trkpt>
      <trkpt lat="49.82891" lon="4.8508">
        <ele>341</ele>
        <time>2022-06-06T10:18:51.000Z</time>
      </trkpt>
      <trkpt lat="49.82888" lon="4.85083">
        <ele>341</ele>
        <time>2022-06-06T10:18:52.000Z</time>
      </trkpt>
      <trkpt lat="49.82886" lon="4.85086">
        <ele>341</ele>
        <time>2022-06-06T10:18:53.000Z</time>
      </trkpt>
      <trkpt lat="49.82883" lon="4.85089">
        <ele>341</ele>
        <time>2022-06-06T10:18:54.000Z</time>
      </trkpt>
      <trkpt lat="49.82881" lon="4.85092">
        <ele>341</ele>
        <time>2022-06-06T10:18:55.000Z</time>
      </trkpt>
      <trkpt lat="49.82878" lon="4.85095">
        <ele>342</ele>
        <time>2022-06-06T10:18:56.000Z</time>
      </trkpt>
      <trkpt lat="49.82876" lon="4.85097">
        <ele>342</ele>
        <time>2022-06-06T10:18:57.000Z</time>
      </trkpt>
      <trkpt lat="49.82874" lon="4.85099">
        <ele>342</ele>
        <time>2022-06-06T10:18:58.000Z</time>
      </trkpt>
      <trkpt lat="49.82872" lon="4.85102">
        <ele>342</ele>
        <time>2022-06-06T10:18:59.000Z</time>
      </trkpt>
      <trkpt lat="49.82869" lon="4.85105">
        <ele>342</ele>
        <time>2022-06-06T10:19:00.000Z</time>
      </trkpt>
      <trkpt lat="49.82866" lon="4.85107">
        <ele>342</ele>
        <time>2022-06-06T10:19:01.000Z</time>
      </trkpt>
      <trkpt lat="49.82863" lon="4.8511">
        <ele>343</ele>
        <time>2022-06-06T10:19:02.000Z</time>
      </trkpt>
      <trkpt lat="49.82859" lon="4.85113">
        <ele>343</ele>
        <time>2022-06-06T10:19:03.000Z</time>
      </trkpt>
      <trkpt lat="49.82857" lon="4.85116">
        <ele>343</ele>
        <time>2022-06-06T10:19:04.000Z</time>
      </trkpt>
      <trkpt lat="49.82854" lon="4.85119">
        <ele>343</ele>
        <time>2022-06-06T10:19:05.000Z</time>
      </trkpt>
      <trkpt lat="49.82851" lon="4.85122">
        <ele>343</ele>
        <time>2022-06-06T10:19:06.000Z</time>
      </trkpt>
      <trkpt lat="49.82849" lon="4.85125">
        <ele>343</ele>
        <time>2022-06-06T10:19:07.000Z</time>
      </trkpt>
      <trkpt lat="49.82846" lon="4.85128">
        <ele>343</ele>
        <time>2022-06-06T10:19:08.000Z</time>
      </trkpt>
      <trkpt lat="49.82844" lon="4.85131">
        <ele>344</ele>
        <time>2022-06-06T10:19:09.000Z</time>
      </trkpt>
      <trkpt lat="49.82842" lon="4.85134">
        <ele>344</ele>
        <time>2022-06-06T10:19:10.000Z</time>
      </trkpt>
      <trkpt lat="49.82839" lon="4.85137">
        <ele>344</ele>
        <time>2022-06-06T10:19:11.000Z</time>
      </trkpt>
      <trkpt lat="49.82837" lon="4.8514">
        <ele>344</ele>
        <time>2022-06-06T10:19:12.000Z</time>
      </trkpt>
      <trkpt lat="49.82834" lon="4.85143">
        <ele>344</ele>
        <time>2022-06-06T10:19:13.000Z</time>
      </trkpt>
      <trkpt lat="49.82832" lon="4.85147">
        <ele>344</ele>
        <time>2022-06-06T10:19:14.000Z</time>
      </trkpt>
      <trkpt lat="49.82831" lon="4.85151">
        <ele>344</ele>
        <time>2022-06-06T10:19:15.000Z</time>
      </trkpt>
      <trkpt lat="49.82829" lon="4.85154">
        <ele>344</ele>
        <time>2022-06-06T10:19:16.000Z</time>
      </trkpt>
      <trkpt lat="49.82827" lon="4.85158">
        <ele>344</ele>
        <time>2022-06-06T10:19:17.000Z</time>
      </trkpt>
      <trkpt lat="49.82825" lon="4.85162">
        <ele>345</ele>
        <time>2022-06-06T10:19:18.000Z</time>
      </trkpt>
      <trkpt lat="49.82822" lon="4.85165">
        <ele>345</ele>
        <time>2022-06-06T10:19:19.000Z</time>
      </trkpt>
      <trkpt lat="49.8282" lon="4.85169">
        <ele>345</ele>
        <time>2022-06-06T10:19:20.000Z</time>
      </trkpt>
      <trkpt lat="49.82817" lon="4.85172">
        <ele>345</ele>
        <time>2022-06-06T10:19:21.000Z</time>
      </trkpt>
      <trkpt lat="49.82814" lon="4.85175">
        <ele>346</ele>
        <time>2022-06-06T10:19:22.000Z</time>
      </trkpt>
      <trkpt lat="49.82812" lon="4.85179">
        <ele>346</ele>
        <time>2022-06-06T10:19:23.000Z</time>
      </trkpt>
      <trkpt lat="49.8281" lon="4.85183">
        <ele>346</ele>
        <time>2022-06-06T10:19:24.000Z</time>
      </trkpt>
      <trkpt lat="49.82808" lon="4.85187">
        <ele>346</ele>
        <time>2022-06-06T10:19:25.000Z</time>
      </trkpt>
      <trkpt lat="49.82806" lon="4.85191">
        <ele>347</ele>
        <time>2022-06-06T10:19:26.000Z</time>
      </trkpt>
      <trkpt lat="49.82804" lon="4.85194">
        <ele>347</ele>
        <time>2022-06-06T10:19:27.000Z</time>
      </trkpt>
      <trkpt lat="49.82803" lon="4.85198">
        <ele>347</ele>
        <time>2022-06-06T10:19:28.000Z</time>
      </trkpt>
      <trkpt lat="49.82801" lon="4.85202">
        <ele>347</ele>
        <time>2022-06-06T10:19:29.000Z</time>
      </trkpt>
      <trkpt lat="49.82799" lon="4.85206">
        <ele>347</ele>
        <time>2022-06-06T10:19:30.000Z</time>
      </trkpt>
      <trkpt lat="49.82798" lon="4.85211">
        <ele>347</ele>
        <time>2022-06-06T10:19:31.000Z</time>
      </trkpt>
      <trkpt lat="49.82796" lon="4.85215">
        <ele>347</ele>
        <time>2022-06-06T10:19:32.000Z</time>
      </trkpt>
      <trkpt lat="49.82794" lon="4.85218">
        <ele>348</ele>
        <time>2022-06-06T10:19:33.000Z</time>
      </trkpt>
      <trkpt lat="49.82793" lon="4.85221">
        <ele>348</ele>
        <time>2022-06-06T10:19:34.000Z</time>
      </trkpt>
      <trkpt lat="49.82791" lon="4.85224">
        <ele>348</ele>
        <time>2022-06-06T10:19:35.000Z</time>
      </trkpt>
      <trkpt lat="49.82789" lon="4.85228">
        <ele>348</ele>
        <time>2022-06-06T10:19:36.000Z</time>
      </trkpt>
      <trkpt lat="49.82788" lon="4.85232">
        <ele>348</ele>
        <time>2022-06-06T10:19:37.000Z</time>
      </trkpt>
      <trkpt lat="49.82787" lon="4.85236">
        <ele>348</ele>
        <time>2022-06-06T10:19:38.000Z</time>
      </trkpt>
      <trkpt lat="49.82786" lon="4.85241">
        <ele>349</ele>
        <time>2022-06-06T10:19:39.000Z</time>
      </trkpt>
      <trkpt lat="49.82785" lon="4.85247">
        <ele>349</ele>
        <time>2022-06-06T10:19:40.000Z</time>
      </trkpt>
      <trkpt lat="49.82785" lon="4.85252">
        <ele>349</ele>
        <time>2022-06-06T10:19:41.000Z</time>
      </trkpt>
      <trkpt lat="49.82784" lon="4.85257">
        <ele>349</ele>
        <time>2022-06-06T10:19:42.000Z</time>
      </trkpt>
      <trkpt lat="49.82784" lon="4.85262">
        <ele>349</ele>
        <time>2022-06-06T10:19:43.000Z</time>
      </trkpt>
      <trkpt lat="49.82783" lon="4.85266">
        <ele>350</ele>
        <time>2022-06-06T10:19:44.000Z</time>
      </trkpt>
      <trkpt lat="49.82783" lon="4.85271">
        <ele>350</ele>
        <time>2022-06-06T10:19:45.000Z</time>
      </trkpt>
      <trkpt lat="49.82783" lon="4.85276">
        <ele>350</ele>
        <time>2022-06-06T10:19:46.000Z</time>
      </trkpt>
      <trkpt lat="49.82783" lon="4.8528">
        <ele>350</ele>
        <time>2022-06-06T10:19:47.000Z</time>
      </trkpt>
      <trkpt lat="49.82784" lon="4.85285">
        <ele>350</ele>
        <time>2022-06-06T10:19:48.000Z</time>
      </trkpt>
      <trkpt lat="49.82784" lon="4.85289">
        <ele>350</ele>
        <time>2022-06-06T10:19:49.000Z</time>
      </trkpt>
      <trkpt lat="49.82784" lon="4.85294">
        <ele>350</ele>
        <time>2022-06-06T10:19:50.000Z</time>
      </trkpt>
      <trkpt lat="49.82784" lon="4.85299">
        <ele>351</ele>
        <time>2022-06-06T10:19:51.000Z</time>
      </trkpt>
      <trkpt lat="49.82785" lon="4.85303">
        <ele>351</ele>
        <time>2022-06-06T10:19:52.000Z</time>
      </trkpt>
      <trkpt lat="49.82787" lon="4.85308">
        <ele>351</ele>
        <time>2022-06-06T10:19:53.000Z</time>
      </trkpt>
      <trkpt lat="49.82789" lon="4.85313">
        <ele>351</ele>
        <time>2022-06-06T10:19:54.000Z</time>
      </trkpt>
      <trkpt lat="49.82792" lon="4.85318">
        <ele>351</ele>
        <time>2022-06-06T10:19:55.000Z</time>
      </trkpt>
      <trkpt lat="49.82795" lon="4.85323">
        <ele>351</ele>
        <time>2022-06-06T10:19:56.000Z</time>
      </trkpt>
      <trkpt lat="49.82797" lon="4.85328">
        <ele>351</ele>
        <time>2022-06-06T10:19:57.000Z</time>
      </trkpt>
      <trkpt lat="49.82799" lon="4.85332">
        <ele>351</ele>
        <time>2022-06-06T10:19:58.000Z</time>
      </trkpt>
      <trkpt lat="49.82802" lon="4.85335">
        <ele>352</ele>
        <time>2022-06-06T10:19:59.000Z</time>
      </trkpt>
      <trkpt lat="49.82805" lon="4.85339">
        <ele>352</ele>
        <time>2022-06-06T10:20:00.000Z</time>
      </trkpt>
      <trkpt lat="49.82807" lon="4.85342">
        <ele>352</ele>
        <time>2022-06-06T10:20:01.000Z</time>
      </trkpt>
      <trkpt lat="49.82809" lon="4.85345">
        <ele>352</ele>
        <time>2022-06-06T10:20:02.000Z</time>
      </trkpt>
      <trkpt lat="49.82811" lon="4.8535">
        <ele>352</ele>
        <time>2022-06-06T10:20:03.000Z</time>
      </trkpt>
      <trkpt lat="49.82813" lon="4.85355">
        <ele>352</ele>
        <time>2022-06-06T10:20:04.000Z</time>
      </trkpt>
      <trkpt lat="49.82816" lon="4.85359">
        <ele>352</ele>
        <time>2022-06-06T10:20:05.000Z</time>
      </trkpt>
      <trkpt lat="49.82819" lon="4.85363">
        <ele>353</ele>
        <time>2022-06-06T10:20:06.000Z</time>
      </trkpt>
      <trkpt lat="49.82823" lon="4.85367">
        <ele>353</ele>
        <time>2022-06-06T10:20:07.000Z</time>
      </trkpt>
      <trkpt lat="49.82827" lon="4.85371">
        <ele>353</ele>
        <time>2022-06-06T10:20:08.000Z</time>
      </trkpt>
      <trkpt lat="49.82832" lon="4.85376">
        <ele>353</ele>
        <time>2022-06-06T10:20:09.000Z</time>
      </trkpt>
      <trkpt lat="49.82837" lon="4.8538">
        <ele>353</ele>
        <time>2022-06-06T10:20:10.000Z</time>
      </trkpt>
      <trkpt lat="49.82841" lon="4.85385">
        <ele>353</ele>
        <time>2022-06-06T10:20:11.000Z</time>
      </trkpt>
      <trkpt lat="49.82845" lon="4.85389">
        <ele>353</ele>
        <time>2022-06-06T10:20:12.000Z</time>
      </trkpt>
      <trkpt lat="49.82848" lon="4.85395">
        <ele>353</ele>
        <time>2022-06-06T10:20:13.000Z</time>
      </trkpt>
      <trkpt lat="49.82852" lon="4.85401">
        <ele>353</ele>
        <time>2022-06-06T10:20:14.000Z</time>
      </trkpt>
      <trkpt lat="49.82855" lon="4.85406">
        <ele>353</ele>
        <time>2022-06-06T10:20:15.000Z</time>
      </trkpt>
      <trkpt lat="49.82859" lon="4.85412">
        <ele>353</ele>
        <time>2022-06-06T10:20:16.000Z</time>
      </trkpt>
      <trkpt lat="49.82863" lon="4.85418">
        <ele>353</ele>
        <time>2022-06-06T10:20:17.000Z</time>
      </trkpt>
      <trkpt lat="49.82867" lon="4.85424">
        <ele>353</ele>
        <time>2022-06-06T10:20:18.000Z</time>
      </trkpt>
      <trkpt lat="49.8287" lon="4.8543">
        <ele>353</ele>
        <time>2022-06-06T10:20:19.000Z</time>
      </trkpt>
      <trkpt lat="49.82873" lon="4.85436">
        <ele>353</ele>
        <time>2022-06-06T10:20:20.000Z</time>
      </trkpt>
      <trkpt lat="49.82876" lon="4.85442">
        <ele>353</ele>
        <time>2022-06-06T10:20:21.000Z</time>
      </trkpt>
      <trkpt lat="49.82879" lon="4.8545">
        <ele>353</ele>
        <time>2022-06-06T10:20:22.000Z</time>
      </trkpt>
      <trkpt lat="49.82881" lon="4.85459">
        <ele>353</ele>
        <time>2022-06-06T10:20:23.000Z</time>
      </trkpt>
      <trkpt lat="49.82883" lon="4.85467">
        <ele>353</ele>
        <time>2022-06-06T10:20:24.000Z</time>
      </trkpt>
      <trkpt lat="49.82884" lon="4.85475">
        <ele>353</ele>
        <time>2022-06-06T10:20:25.000Z</time>
      </trkpt>
      <trkpt lat="49.82886" lon="4.85484">
        <ele>354</ele>
        <time>2022-06-06T10:20:26.000Z</time>
      </trkpt>
      <trkpt lat="49.82889" lon="4.85493">
        <ele>353</ele>
        <time>2022-06-06T10:20:27.000Z</time>
      </trkpt>
      <trkpt lat="49.82892" lon="4.85502">
        <ele>353</ele>
        <time>2022-06-06T10:20:28.000Z</time>
      </trkpt>
      <trkpt lat="49.82895" lon="4.85512">
        <ele>353</ele>
        <time>2022-06-06T10:20:29.000Z</time>
      </trkpt>
      <trkpt lat="49.82897" lon="4.85521">
        <ele>353</ele>
        <time>2022-06-06T10:20:30.000Z</time>
      </trkpt>
      <trkpt lat="49.82899" lon="4.85532">
        <ele>353</ele>
        <time>2022-06-06T10:20:31.000Z</time>
      </trkpt>
      <trkpt lat="49.82902" lon="4.85543">
        <ele>353</ele>
        <time>2022-06-06T10:20:32.000Z</time>
      </trkpt>
      <trkpt lat="49.82905" lon="4.85554">
        <ele>353</ele>
        <time>2022-06-06T10:20:33.000Z</time>
      </trkpt>
      <trkpt lat="49.82908" lon="4.85565">
        <ele>353</ele>
        <time>2022-06-06T10:20:34.000Z</time>
      </trkpt>
      <trkpt lat="49.82911" lon="4.85576">
        <ele>352</ele>
        <time>2022-06-06T10:20:35.000Z</time>
      </trkpt>
      <trkpt lat="49.82914" lon="4.85588">
        <ele>352</ele>
        <time>2022-06-06T10:20:36.000Z</time>
      </trkpt>
      <trkpt lat="49.82917" lon="4.85599">
        <ele>352</ele>
        <time>2022-06-06T10:20:37.000Z</time>
      </trkpt>
      <trkpt lat="49.8292" lon="4.8561">
        <ele>352</ele>
        <time>2022-06-06T10:20:38.000Z</time>
      </trkpt>
      <trkpt lat="49.82923" lon="4.85621">
        <ele>351</ele>
        <time>2022-06-06T10:20:39.000Z</time>
      </trkpt>
      <trkpt lat="49.82926" lon="4.85632">
        <ele>351</ele>
        <time>2022-06-06T10:20:40.000Z</time>
      </trkpt>
      <trkpt lat="49.8293" lon="4.85642">
        <ele>351</ele>
        <time>2022-06-06T10:20:41.000Z</time>
      </trkpt>
      <trkpt lat="49.82934" lon="4.85652">
        <ele>351</ele>
        <time>2022-06-06T10:20:42.000Z</time>
      </trkpt>
      <trkpt lat="49.82938" lon="4.85663">
        <ele>350</ele>
        <time>2022-06-06T10:20:43.000Z</time>
      </trkpt>
      <trkpt lat="49.82943" lon="4.85673">
        <ele>350</ele>
        <time>2022-06-06T10:20:44.000Z</time>
      </trkpt>
      <trkpt lat="49.82948" lon="4.85683">
        <ele>350</ele>
        <time>2022-06-06T10:20:45.000Z</time>
      </trkpt>
      <trkpt lat="49.82953" lon="4.85692">
        <ele>349</ele>
        <time>2022-06-06T10:20:46.000Z</time>
      </trkpt>
      <trkpt lat="49.82959" lon="4.85702">
        <ele>349</ele>
        <time>2022-06-06T10:20:47.000Z</time>
      </trkpt>
      <trkpt lat="49.82964" lon="4.85712">
        <ele>348</ele>
        <time>2022-06-06T10:20:48.000Z</time>
      </trkpt>
      <trkpt lat="49.82969" lon="4.85723">
        <ele>348</ele>
        <time>2022-06-06T10:20:49.000Z</time>
      </trkpt>
      <trkpt lat="49.82973" lon="4.85735">
        <ele>347</ele>
        <time>2022-06-06T10:20:50.000Z</time>
      </trkpt>
      <trkpt lat="49.82976" lon="4.85747">
        <ele>347</ele>
        <time>2022-06-06T10:20:51.000Z</time>
      </trkpt>
      <trkpt lat="49.82978" lon="4.8576">
        <ele>346</ele>
        <time>2022-06-06T10:20:52.000Z</time>
      </trkpt>
      <trkpt lat="49.8298" lon="4.85773">
        <ele>346</ele>
        <time>2022-06-06T10:20:53.000Z</time>
      </trkpt>
      <trkpt lat="49.82981" lon="4.85785">
        <ele>345</ele>
        <time>2022-06-06T10:20:54.000Z</time>
      </trkpt>
      <trkpt lat="49.82982" lon="4.85797">
        <ele>345</ele>
        <time>2022-06-06T10:20:55.000Z</time>
      </trkpt>
      <trkpt lat="49.82983" lon="4.85808">
        <ele>345</ele>
        <time>2022-06-06T10:20:56.000Z</time>
      </trkpt>
      <trkpt lat="49.82983" lon="4.85819">
        <ele>344</ele>
        <time>2022-06-06T10:20:57.000Z</time>
      </trkpt>
      <trkpt lat="49.82983" lon="4.8583">
        <ele>344</ele>
        <time>2022-06-06T10:20:58.000Z</time>
      </trkpt>
      <trkpt lat="49.82983" lon="4.85841">
        <ele>344</ele>
        <time>2022-06-06T10:20:59.000Z</time>
      </trkpt>
      <trkpt lat="49.82983" lon="4.85852">
        <ele>344</ele>
        <time>2022-06-06T10:21:00.000Z</time>
      </trkpt>
      <trkpt lat="49.82982" lon="4.85862">
        <ele>344</ele>
        <time>2022-06-06T10:21:01.000Z</time>
      </trkpt>
      <trkpt lat="49.82983" lon="4.85872">
        <ele>344</ele>
        <time>2022-06-06T10:21:02.000Z</time>
      </trkpt>
      <trkpt lat="49.82984" lon="4.85882">
        <ele>344</ele>
        <time>2022-06-06T10:21:03.000Z</time>
      </trkpt>
      <trkpt lat="49.82986" lon="4.85891">
        <ele>344</ele>
        <time>2022-06-06T10:21:04.000Z</time>
      </trkpt>
      <trkpt lat="49.82989" lon="4.859">
        <ele>344</ele>
        <time>2022-06-06T10:21:05.000Z</time>
      </trkpt>
      <trkpt lat="49.82992" lon="4.85908">
        <ele>344</ele>
        <time>2022-06-06T10:21:06.000Z</time>
      </trkpt>
      <trkpt lat="49.82995" lon="4.85916">
        <ele>344</ele>
        <time>2022-06-06T10:21:07.000Z</time>
      </trkpt>
      <trkpt lat="49.82997" lon="4.85924">
        <ele>344</ele>
        <time>2022-06-06T10:21:08.000Z</time>
      </trkpt>
      <trkpt lat="49.83" lon="4.85931">
        <ele>344</ele>
        <time>2022-06-06T10:21:09.000Z</time>
      </trkpt>
      <trkpt lat="49.83001" lon="4.85938">
        <ele>344</ele>
        <time>2022-06-06T10:21:10.000Z</time>
      </trkpt>
      <trkpt lat="49.83003" lon="4.85945">
        <ele>345</ele>
        <time>2022-06-06T10:21:11.000Z</time>
      </trkpt>
      <trkpt lat="49.83005" lon="4.85952">
        <ele>345</ele>
        <time>2022-06-06T10:21:12.000Z</time>
      </trkpt>
      <trkpt lat="49.83006" lon="4.85958">
        <ele>345</ele>
        <time>2022-06-06T10:21:13.000Z</time>
      </trkpt>
      <trkpt lat="49.83008" lon="4.85964">
        <ele>345</ele>
        <time>2022-06-06T10:21:14.000Z</time>
      </trkpt>
      <trkpt lat="49.83009" lon="4.85971">
        <ele>345</ele>
        <time>2022-06-06T10:21:15.000Z</time>
      </trkpt>
      <trkpt lat="49.8301" lon="4.85978">
        <ele>345</ele>
        <time>2022-06-06T10:21:16.000Z</time>
      </trkpt>
      <trkpt lat="49.83011" lon="4.85985">
        <ele>345</ele>
        <time>2022-06-06T10:21:17.000Z</time>
      </trkpt>
      <trkpt lat="49.83013" lon="4.85991">
        <ele>345</ele>
        <time>2022-06-06T10:21:18.000Z</time>
      </trkpt>
      <trkpt lat="49.83014" lon="4.85998">
        <ele>345</ele>
        <time>2022-06-06T10:21:19.000Z</time>
      </trkpt>
      <trkpt lat="49.83015" lon="4.86005">
        <ele>345</ele>
        <time>2022-06-06T10:21:20.000Z</time>
      </trkpt>
      <trkpt lat="49.83016" lon="4.86012">
        <ele>345</ele>
        <time>2022-06-06T10:21:21.000Z</time>
      </trkpt>
      <trkpt lat="49.83016" lon="4.86019">
        <ele>345</ele>
        <time>2022-06-06T10:21:22.000Z</time>
      </trkpt>
      <trkpt lat="49.83017" lon="4.86026">
        <ele>345</ele>
        <time>2022-06-06T10:21:23.000Z</time>
      </trkpt>
      <trkpt lat="49.83017" lon="4.86033">
        <ele>345</ele>
        <time>2022-06-06T10:21:24.000Z</time>
      </trkpt>
      <trkpt lat="49.83018" lon="4.86041">
        <ele>345</ele>
        <time>2022-06-06T10:21:25.000Z</time>
      </trkpt>
      <trkpt lat="49.83019" lon="4.86048">
        <ele>345</ele>
        <time>2022-06-06T10:21:26.000Z</time>
      </trkpt>
      <trkpt lat="49.8302" lon="4.86055">
        <ele>345</ele>
        <time>2022-06-06T10:21:27.000Z</time>
      </trkpt>
      <trkpt lat="49.83021" lon="4.86062">
        <ele>345</ele>
        <time>2022-06-06T10:21:28.000Z</time>
      </trkpt>
      <trkpt lat="49.83022" lon="4.86069">
        <ele>345</ele>
        <time>2022-06-06T10:21:29.000Z</time>
      </trkpt>
      <trkpt lat="49.83022" lon="4.86077">
        <ele>345</ele>
        <time>2022-06-06T10:21:30.000Z</time>
      </trkpt>
      <trkpt lat="49.83023" lon="4.86084">
        <ele>345</ele>
        <time>2022-06-06T10:21:31.000Z</time>
      </trkpt>
      <trkpt lat="49.83024" lon="4.86091">
        <ele>345</ele>
        <time>2022-06-06T10:21:32.000Z</time>
      </trkpt>
      <trkpt lat="49.83025" lon="4.86099">
        <ele>345</ele>
        <time>2022-06-06T10:21:33.000Z</time>
      </trkpt>
      <trkpt lat="49.83026" lon="4.86106">
        <ele>345</ele>
        <time>2022-06-06T10:21:34.000Z</time>
      </trkpt>
      <trkpt lat="49.83026" lon="4.86114">
        <ele>345</ele>
        <time>2022-06-06T10:21:35.000Z</time>
      </trkpt>
      <trkpt lat="49.83027" lon="4.86122">
        <ele>346</ele>
        <time>2022-06-06T10:21:36.000Z</time>
      </trkpt>
      <trkpt lat="49.83028" lon="4.86129">
        <ele>346</ele>
        <time>2022-06-06T10:21:37.000Z</time>
      </trkpt>
      <trkpt lat="49.83028" lon="4.86135">
        <ele>346</ele>
        <time>2022-06-06T10:21:38.000Z</time>
      </trkpt>
      <trkpt lat="49.83029" lon="4.86141">
        <ele>346</ele>
        <time>2022-06-06T10:21:39.000Z</time>
      </trkpt>
      <trkpt lat="49.83029" lon="4.86147">
        <ele>346</ele>
        <time>2022-06-06T10:21:40.000Z</time>
      </trkpt>
      <trkpt lat="49.83029" lon="4.86152">
        <ele>346</ele>
        <time>2022-06-06T10:21:41.000Z</time>
      </trkpt>
      <trkpt lat="49.83029" lon="4.86158">
        <ele>346</ele>
        <time>2022-06-06T10:21:42.000Z</time>
      </trkpt>
      <trkpt lat="49.83028" lon="4.86164">
        <ele>346</ele>
        <time>2022-06-06T10:21:43.000Z</time>
      </trkpt>
      <trkpt lat="49.83027" lon="4.8617">
        <ele>347</ele>
        <time>2022-06-06T10:21:44.000Z</time>
      </trkpt>
      <trkpt lat="49.83026" lon="4.86176">
        <ele>347</ele>
        <time>2022-06-06T10:21:45.000Z</time>
      </trkpt>
      <trkpt lat="49.83025" lon="4.86183">
        <ele>347</ele>
        <time>2022-06-06T10:21:46.000Z</time>
      </trkpt>
      <trkpt lat="49.83024" lon="4.86191">
        <ele>347</ele>
        <time>2022-06-06T10:21:47.000Z</time>
      </trkpt>
      <trkpt lat="49.83023" lon="4.86198">
        <ele>347</ele>
        <time>2022-06-06T10:21:48.000Z</time>
      </trkpt>
      <trkpt lat="49.83022" lon="4.86205">
        <ele>347</ele>
        <time>2022-06-06T10:21:49.000Z</time>
      </trkpt>
      <trkpt lat="49.83021" lon="4.86211">
        <ele>347</ele>
        <time>2022-06-06T10:21:50.000Z</time>
      </trkpt>
      <trkpt lat="49.83019" lon="4.86218">
        <ele>347</ele>
        <time>2022-06-06T10:21:51.000Z</time>
      </trkpt>
      <trkpt lat="49.83018" lon="4.86224">
        <ele>347</ele>
        <time>2022-06-06T10:21:52.000Z</time>
      </trkpt>
      <trkpt lat="49.83015" lon="4.86229">
        <ele>347</ele>
        <time>2022-06-06T10:21:53.000Z</time>
      </trkpt>
      <trkpt lat="49.83013" lon="4.86235">
        <ele>347</ele>
        <time>2022-06-06T10:21:54.000Z</time>
      </trkpt>
      <trkpt lat="49.83011" lon="4.86242">
        <ele>347</ele>
        <time>2022-06-06T10:21:55.000Z</time>
      </trkpt>
      <trkpt lat="49.83009" lon="4.86249">
        <ele>347</ele>
        <time>2022-06-06T10:21:56.000Z</time>
      </trkpt>
      <trkpt lat="49.83008" lon="4.86256">
        <ele>347</ele>
        <time>2022-06-06T10:21:57.000Z</time>
      </trkpt>
      <trkpt lat="49.83006" lon="4.86263">
        <ele>348</ele>
        <time>2022-06-06T10:21:58.000Z</time>
      </trkpt>
      <trkpt lat="49.83004" lon="4.86271">
        <ele>348</ele>
        <time>2022-06-06T10:21:59.000Z</time>
      </trkpt>
      <trkpt lat="49.83002" lon="4.86279">
        <ele>348</ele>
        <time>2022-06-06T10:22:00.000Z</time>
      </trkpt>
      <trkpt lat="49.83001" lon="4.86287">
        <ele>348</ele>
        <time>2022-06-06T10:22:01.000Z</time>
      </trkpt>
      <trkpt lat="49.82999" lon="4.86295">
        <ele>348</ele>
        <time>2022-06-06T10:22:02.000Z</time>
      </trkpt>
      <trkpt lat="49.82997" lon="4.86302">
        <ele>348</ele>
        <time>2022-06-06T10:22:03.000Z</time>
      </trkpt>
      <trkpt lat="49.82995" lon="4.86309">
        <ele>348</ele>
        <time>2022-06-06T10:22:04.000Z</time>
      </trkpt>
      <trkpt lat="49.82992" lon="4.86316">
        <ele>348</ele>
        <time>2022-06-06T10:22:05.000Z</time>
      </trkpt>
      <trkpt lat="49.8299" lon="4.86323">
        <ele>348</ele>
        <time>2022-06-06T10:22:06.000Z</time>
      </trkpt>
      <trkpt lat="49.82987" lon="4.86329">
        <ele>348</ele>
        <time>2022-06-06T10:22:07.000Z</time>
      </trkpt>
      <trkpt lat="49.82985" lon="4.86337">
        <ele>348</ele>
        <time>2022-06-06T10:22:08.000Z</time>
      </trkpt>
      <trkpt lat="49.82982" lon="4.86343">
        <ele>349</ele>
        <time>2022-06-06T10:22:09.000Z</time>
      </trkpt>
      <trkpt lat="49.8298" lon="4.8635">
        <ele>349</ele>
        <time>2022-06-06T10:22:10.000Z</time>
      </trkpt>
      <trkpt lat="49.82977" lon="4.86356">
        <ele>349</ele>
        <time>2022-06-06T10:22:11.000Z</time>
      </trkpt>
      <trkpt lat="49.82974" lon="4.86363">
        <ele>349</ele>
        <time>2022-06-06T10:22:12.000Z</time>
      </trkpt>
      <trkpt lat="49.82971" lon="4.8637">
        <ele>349</ele>
        <time>2022-06-06T10:22:13.000Z</time>
      </trkpt>
      <trkpt lat="49.82968" lon="4.86377">
        <ele>349</ele>
        <time>2022-06-06T10:22:14.000Z</time>
      </trkpt>
      <trkpt lat="49.82965" lon="4.86384">
        <ele>349</ele>
        <time>2022-06-06T10:22:15.000Z</time>
      </trkpt>
      <trkpt lat="49.82963" lon="4.8639">
        <ele>349</ele>
        <time>2022-06-06T10:22:16.000Z</time>
      </trkpt>
      <trkpt lat="49.82959" lon="4.86396">
        <ele>349</ele>
        <time>2022-06-06T10:22:17.000Z</time>
      </trkpt>
      <trkpt lat="49.82956" lon="4.86402">
        <ele>349</ele>
        <time>2022-06-06T10:22:18.000Z</time>
      </trkpt>
      <trkpt lat="49.82953" lon="4.86408">
        <ele>349</ele>
        <time>2022-06-06T10:22:19.000Z</time>
      </trkpt>
      <trkpt lat="49.8295" lon="4.86414">
        <ele>349</ele>
        <time>2022-06-06T10:22:20.000Z</time>
      </trkpt>
      <trkpt lat="49.82947" lon="4.8642">
        <ele>349</ele>
        <time>2022-06-06T10:22:21.000Z</time>
      </trkpt>
      <trkpt lat="49.82944" lon="4.86425">
        <ele>349</ele>
        <time>2022-06-06T10:22:22.000Z</time>
      </trkpt>
      <trkpt lat="49.82941" lon="4.86432">
        <ele>349</ele>
        <time>2022-06-06T10:22:23.000Z</time>
      </trkpt>
      <trkpt lat="49.82939" lon="4.86438">
        <ele>349</ele>
        <time>2022-06-06T10:22:24.000Z</time>
      </trkpt>
      <trkpt lat="49.82936" lon="4.86445">
        <ele>349</ele>
        <time>2022-06-06T10:22:25.000Z</time>
      </trkpt>
      <trkpt lat="49.82933" lon="4.86452">
        <ele>349</ele>
        <time>2022-06-06T10:22:26.000Z</time>
      </trkpt>
      <trkpt lat="49.8293" lon="4.86457">
        <ele>349</ele>
        <time>2022-06-06T10:22:27.000Z</time>
      </trkpt>
      <trkpt lat="49.82928" lon="4.86463">
        <ele>349</ele>
        <time>2022-06-06T10:22:28.000Z</time>
      </trkpt>
      <trkpt lat="49.82925" lon="4.8647">
        <ele>349</ele>
        <time>2022-06-06T10:22:29.000Z</time>
      </trkpt>
      <trkpt lat="49.82922" lon="4.86477">
        <ele>349</ele>
        <time>2022-06-06T10:22:30.000Z</time>
      </trkpt>
      <trkpt lat="49.82919" lon="4.86484">
        <ele>349</ele>
        <time>2022-06-06T10:22:31.000Z</time>
      </trkpt>
      <trkpt lat="49.82915" lon="4.8649">
        <ele>349</ele>
        <time>2022-06-06T10:22:32.000Z</time>
      </trkpt>
      <trkpt lat="49.82912" lon="4.86496">
        <ele>349</ele>
        <time>2022-06-06T10:22:33.000Z</time>
      </trkpt>
      <trkpt lat="49.82908" lon="4.86502">
        <ele>349</ele>
        <time>2022-06-06T10:22:34.000Z</time>
      </trkpt>
      <trkpt lat="49.82904" lon="4.86507">
        <ele>349</ele>
        <time>2022-06-06T10:22:35.000Z</time>
      </trkpt>
      <trkpt lat="49.829" lon="4.86512">
        <ele>349</ele>
        <time>2022-06-06T10:22:36.000Z</time>
      </trkpt>
      <trkpt lat="49.82896" lon="4.86518">
        <ele>350</ele>
        <time>2022-06-06T10:22:37.000Z</time>
      </trkpt>
      <trkpt lat="49.82892" lon="4.86523">
        <ele>350</ele>
        <time>2022-06-06T10:22:38.000Z</time>
      </trkpt>
      <trkpt lat="49.82888" lon="4.86528">
        <ele>350</ele>
        <time>2022-06-06T10:22:39.000Z</time>
      </trkpt>
      <trkpt lat="49.82884" lon="4.86532">
        <ele>350</ele>
        <time>2022-06-06T10:22:40.000Z</time>
      </trkpt>
      <trkpt lat="49.82881" lon="4.86536">
        <ele>350</ele>
        <time>2022-06-06T10:22:41.000Z</time>
      </trkpt>
      <trkpt lat="49.82877" lon="4.86538">
        <ele>350</ele>
        <time>2022-06-06T10:22:42.000Z</time>
      </trkpt>
      <trkpt lat="49.82874" lon="4.86541">
        <ele>350</ele>
        <time>2022-06-06T10:22:43.000Z</time>
      </trkpt>
      <trkpt lat="49.82871" lon="4.86543">
        <ele>350</ele>
        <time>2022-06-06T10:22:44.000Z</time>
      </trkpt>
      <trkpt lat="49.82866" lon="4.86546">
        <ele>350</ele>
        <time>2022-06-06T10:22:45.000Z</time>
      </trkpt>
      <trkpt lat="49.82862" lon="4.86548">
        <ele>350</ele>
        <time>2022-06-06T10:22:46.000Z</time>
      </trkpt>
      <trkpt lat="49.82858" lon="4.86551">
        <ele>350</ele>
        <time>2022-06-06T10:22:47.000Z</time>
      </trkpt>
      <trkpt lat="49.82854" lon="4.86553">
        <ele>351</ele>
        <time>2022-06-06T10:22:48.000Z</time>
      </trkpt>
      <trkpt lat="49.8285" lon="4.86555">
        <ele>351</ele>
        <time>2022-06-06T10:22:49.000Z</time>
      </trkpt>
      <trkpt lat="49.82846" lon="4.86559">
        <ele>351</ele>
        <time>2022-06-06T10:22:50.000Z</time>
      </trkpt>
      <trkpt lat="49.82842" lon="4.86562">
        <ele>351</ele>
        <time>2022-06-06T10:22:51.000Z</time>
      </trkpt>
      <trkpt lat="49.82838" lon="4.86565">
        <ele>351</ele>
        <time>2022-06-06T10:22:52.000Z</time>
      </trkpt>
      <trkpt lat="49.82834" lon="4.86567">
        <ele>351</ele>
        <time>2022-06-06T10:22:53.000Z</time>
      </trkpt>
      <trkpt lat="49.82831" lon="4.8657">
        <ele>351</ele>
        <time>2022-06-06T10:22:54.000Z</time>
      </trkpt>
      <trkpt lat="49.82828" lon="4.86573">
        <ele>351</ele>
        <time>2022-06-06T10:22:55.000Z</time>
      </trkpt>
      <trkpt lat="49.82825" lon="4.86575">
        <ele>352</ele>
        <time>2022-06-06T10:22:56.000Z</time>
      </trkpt>
      <trkpt lat="49.82822" lon="4.86578">
        <ele>352</ele>
        <time>2022-06-06T10:22:57.000Z</time>
      </trkpt>
      <trkpt lat="49.82818" lon="4.8658">
        <ele>352</ele>
        <time>2022-06-06T10:22:58.000Z</time>
      </trkpt>
      <trkpt lat="49.82814" lon="4.86584">
        <ele>352</ele>
        <time>2022-06-06T10:22:59.000Z</time>
      </trkpt>
      <trkpt lat="49.8281" lon="4.86588">
        <ele>352</ele>
        <time>2022-06-06T10:23:00.000Z</time>
      </trkpt>
      <trkpt lat="49.82806" lon="4.86591">
        <ele>352</ele>
        <time>2022-06-06T10:23:01.000Z</time>
      </trkpt>
      <trkpt lat="49.82802" lon="4.86594">
        <ele>353</ele>
        <time>2022-06-06T10:23:02.000Z</time>
      </trkpt>
      <trkpt lat="49.82798" lon="4.86596">
        <ele>353</ele>
        <time>2022-06-06T10:23:03.000Z</time>
      </trkpt>
      <trkpt lat="49.82794" lon="4.86598">
        <ele>353</ele>
        <time>2022-06-06T10:23:04.000Z</time>
      </trkpt>
      <trkpt lat="49.82791" lon="4.866">
        <ele>354</ele>
        <time>2022-06-06T10:23:05.000Z</time>
      </trkpt>
      <trkpt lat="49.82787" lon="4.86603">
        <ele>354</ele>
        <time>2022-06-06T10:23:06.000Z</time>
      </trkpt>
      <trkpt lat="49.82783" lon="4.86606">
        <ele>354</ele>
        <time>2022-06-06T10:23:07.000Z</time>
      </trkpt>
      <trkpt lat="49.82779" lon="4.86609">
        <ele>354</ele>
        <time>2022-06-06T10:23:08.000Z</time>
      </trkpt>
      <trkpt lat="49.82773" lon="4.86612">
        <ele>355</ele>
        <time>2022-06-06T10:23:09.000Z</time>
      </trkpt>
      <trkpt lat="49.82768" lon="4.86616">
        <ele>355</ele>
        <time>2022-06-06T10:23:10.000Z</time>
      </trkpt>
      <trkpt lat="49.82762" lon="4.8662">
        <ele>355</ele>
        <time>2022-06-06T10:23:11.000Z</time>
      </trkpt>
      <trkpt lat="49.82757" lon="4.86624">
        <ele>355</ele>
        <time>2022-06-06T10:23:12.000Z</time>
      </trkpt>
      <trkpt lat="49.82751" lon="4.86629">
        <ele>355</ele>
        <time>2022-06-06T10:23:13.000Z</time>
      </trkpt>
      <trkpt lat="49.82746" lon="4.86634">
        <ele>355</ele>
        <time>2022-06-06T10:23:14.000Z</time>
      </trkpt>
      <trkpt lat="49.82741" lon="4.86639">
        <ele>356</ele>
        <time>2022-06-06T10:23:15.000Z</time>
      </trkpt>
      <trkpt lat="49.82736" lon="4.86645">
        <ele>356</ele>
        <time>2022-06-06T10:23:16.000Z</time>
      </trkpt>
      <trkpt lat="49.82732" lon="4.86651">
        <ele>356</ele>
        <time>2022-06-06T10:23:17.000Z</time>
      </trkpt>
      <trkpt lat="49.82728" lon="4.86657">
        <ele>356</ele>
        <time>2022-06-06T10:23:18.000Z</time>
      </trkpt>
      <trkpt lat="49.82724" lon="4.86662">
        <ele>356</ele>
        <time>2022-06-06T10:23:19.000Z</time>
      </trkpt>
      <trkpt lat="49.8272" lon="4.86668">
        <ele>356</ele>
        <time>2022-06-06T10:23:20.000Z</time>
      </trkpt>
      <trkpt lat="49.82716" lon="4.86674">
        <ele>356</ele>
        <time>2022-06-06T10:23:21.000Z</time>
      </trkpt>
      <trkpt lat="49.82712" lon="4.8668">
        <ele>356</ele>
        <time>2022-06-06T10:23:22.000Z</time>
      </trkpt>
      <trkpt lat="49.82709" lon="4.86686">
        <ele>356</ele>
        <time>2022-06-06T10:23:23.000Z</time>
      </trkpt>
      <trkpt lat="49.82706" lon="4.8669">
        <ele>356</ele>
        <time>2022-06-06T10:23:24.000Z</time>
      </trkpt>
      <trkpt lat="49.82703" lon="4.86696">
        <ele>356</ele>
        <time>2022-06-06T10:23:25.000Z</time>
      </trkpt>
      <trkpt lat="49.82701" lon="4.86701">
        <ele>356</ele>
        <time>2022-06-06T10:23:26.000Z</time>
      </trkpt>
      <trkpt lat="49.82698" lon="4.86707">
        <ele>356</ele>
        <time>2022-06-06T10:23:27.000Z</time>
      </trkpt>
      <trkpt lat="49.82696" lon="4.86712">
        <ele>356</ele>
        <time>2022-06-06T10:23:28.000Z</time>
      </trkpt>
      <trkpt lat="49.82693" lon="4.86718">
        <ele>356</ele>
        <time>2022-06-06T10:23:29.000Z</time>
      </trkpt>
      <trkpt lat="49.8269" lon="4.86722">
        <ele>356</ele>
        <time>2022-06-06T10:23:30.000Z</time>
      </trkpt>
      <trkpt lat="49.82687" lon="4.86727">
        <ele>356</ele>
        <time>2022-06-06T10:23:31.000Z</time>
      </trkpt>
      <trkpt lat="49.82684" lon="4.86733">
        <ele>356</ele>
        <time>2022-06-06T10:23:32.000Z</time>
      </trkpt>
      <trkpt lat="49.82681" lon="4.86738">
        <ele>356</ele>
        <time>2022-06-06T10:23:33.000Z</time>
      </trkpt>
      <trkpt lat="49.82677" lon="4.86743">
        <ele>356</ele>
        <time>2022-06-06T10:23:34.000Z</time>
      </trkpt>
      <trkpt lat="49.82674" lon="4.86748">
        <ele>356</ele>
        <time>2022-06-06T10:23:35.000Z</time>
      </trkpt>
      <trkpt lat="49.82671" lon="4.86753">
        <ele>357</ele>
        <time>2022-06-06T10:23:36.000Z</time>
      </trkpt>
      <trkpt lat="49.82669" lon="4.86759">
        <ele>357</ele>
        <time>2022-06-06T10:23:37.000Z</time>
      </trkpt>
      <trkpt lat="49.82666" lon="4.86765">
        <ele>357</ele>
        <time>2022-06-06T10:23:38.000Z</time>
      </trkpt>
      <trkpt lat="49.82663" lon="4.86771">
        <ele>357</ele>
        <time>2022-06-06T10:23:39.000Z</time>
      </trkpt>
      <trkpt lat="49.82661" lon="4.86776">
        <ele>357</ele>
        <time>2022-06-06T10:23:40.000Z</time>
      </trkpt>
      <trkpt lat="49.82659" lon="4.86781">
        <ele>357</ele>
        <time>2022-06-06T10:23:41.000Z</time>
      </trkpt>
      <trkpt lat="49.82657" lon="4.86785">
        <ele>357</ele>
        <time>2022-06-06T10:23:42.000Z</time>
      </trkpt>
      <trkpt lat="49.82655" lon="4.86791">
        <ele>357</ele>
        <time>2022-06-06T10:23:43.000Z</time>
      </trkpt>
      <trkpt lat="49.82653" lon="4.86797">
        <ele>357</ele>
        <time>2022-06-06T10:23:44.000Z</time>
      </trkpt>
      <trkpt lat="49.82652" lon="4.86803">
        <ele>357</ele>
        <time>2022-06-06T10:23:45.000Z</time>
      </trkpt>
      <trkpt lat="49.82651" lon="4.86808">
        <ele>357</ele>
        <time>2022-06-06T10:23:46.000Z</time>
      </trkpt>
      <trkpt lat="49.8265" lon="4.86814">
        <ele>357</ele>
        <time>2022-06-06T10:23:47.000Z</time>
      </trkpt>
      <trkpt lat="49.82649" lon="4.86819">
        <ele>357</ele>
        <time>2022-06-06T10:23:48.000Z</time>
      </trkpt>
      <trkpt lat="49.82648" lon="4.86824">
        <ele>357</ele>
        <time>2022-06-06T10:23:49.000Z</time>
      </trkpt>
      <trkpt lat="49.82647" lon="4.8683">
        <ele>358</ele>
        <time>2022-06-06T10:23:50.000Z</time>
      </trkpt>
      <trkpt lat="49.82647" lon="4.86836">
        <ele>358</ele>
        <time>2022-06-06T10:23:51.000Z</time>
      </trkpt>
      <trkpt lat="49.82646" lon="4.86842">
        <ele>358</ele>
        <time>2022-06-06T10:23:52.000Z</time>
      </trkpt>
      <trkpt lat="49.82645" lon="4.86848">
        <ele>358</ele>
        <time>2022-06-06T10:23:53.000Z</time>
      </trkpt>
      <trkpt lat="49.82645" lon="4.86854">
        <ele>358</ele>
        <time>2022-06-06T10:23:54.000Z</time>
      </trkpt>
      <trkpt lat="49.82644" lon="4.8686">
        <ele>358</ele>
        <time>2022-06-06T10:23:55.000Z</time>
      </trkpt>
      <trkpt lat="49.82644" lon="4.86866">
        <ele>358</ele>
        <time>2022-06-06T10:23:56.000Z</time>
      </trkpt>
      <trkpt lat="49.82644" lon="4.86872">
        <ele>358</ele>
        <time>2022-06-06T10:23:57.000Z</time>
      </trkpt>
      <trkpt lat="49.82642" lon="4.86878">
        <ele>359</ele>
        <time>2022-06-06T10:23:58.000Z</time>
      </trkpt>
      <trkpt lat="49.82641" lon="4.86884">
        <ele>359</ele>
        <time>2022-06-06T10:23:59.000Z</time>
      </trkpt>
      <trkpt lat="49.8264" lon="4.8689">
        <ele>359</ele>
        <time>2022-06-06T10:24:00.000Z</time>
      </trkpt>
      <trkpt lat="49.8264" lon="4.86896">
        <ele>359</ele>
        <time>2022-06-06T10:24:01.000Z</time>
      </trkpt>
      <trkpt lat="49.82639" lon="4.86902">
        <ele>359</ele>
        <time>2022-06-06T10:24:02.000Z</time>
      </trkpt>
      <trkpt lat="49.82639" lon="4.86908">
        <ele>359</ele>
        <time>2022-06-06T10:24:03.000Z</time>
      </trkpt>
      <trkpt lat="49.82639" lon="4.86915">
        <ele>359</ele>
        <time>2022-06-06T10:24:04.000Z</time>
      </trkpt>
      <trkpt lat="49.82639" lon="4.86921">
        <ele>359</ele>
        <time>2022-06-06T10:24:05.000Z</time>
      </trkpt>
      <trkpt lat="49.82638" lon="4.86927">
        <ele>359</ele>
        <time>2022-06-06T10:24:06.000Z</time>
      </trkpt>
      <trkpt lat="49.82637" lon="4.86933">
        <ele>359</ele>
        <time>2022-06-06T10:24:07.000Z</time>
      </trkpt>
      <trkpt lat="49.82636" lon="4.86938">
        <ele>360</ele>
        <time>2022-06-06T10:24:08.000Z</time>
      </trkpt>
      <trkpt lat="49.82636" lon="4.86944">
        <ele>360</ele>
        <time>2022-06-06T10:24:09.000Z</time>
      </trkpt>
      <trkpt lat="49.82635" lon="4.8695">
        <ele>360</ele>
        <time>2022-06-06T10:24:10.000Z</time>
      </trkpt>
      <trkpt lat="49.82634" lon="4.86956">
        <ele>360</ele>
        <time>2022-06-06T10:24:11.000Z</time>
      </trkpt>
      <trkpt lat="49.82632" lon="4.86962">
        <ele>360</ele>
        <time>2022-06-06T10:24:12.000Z</time>
      </trkpt>
      <trkpt lat="49.82631" lon="4.86968">
        <ele>360</ele>
        <time>2022-06-06T10:24:13.000Z</time>
      </trkpt>
      <trkpt lat="49.82629" lon="4.86974">
        <ele>360</ele>
        <time>2022-06-06T10:24:14.000Z</time>
      </trkpt>
      <trkpt lat="49.82628" lon="4.8698">
        <ele>361</ele>
        <time>2022-06-06T10:24:15.000Z</time>
      </trkpt>
      <trkpt lat="49.82626" lon="4.86985">
        <ele>361</ele>
        <time>2022-06-06T10:24:16.000Z</time>
      </trkpt>
      <trkpt lat="49.82623" lon="4.86991">
        <ele>361</ele>
        <time>2022-06-06T10:24:17.000Z</time>
      </trkpt>
      <trkpt lat="49.82621" lon="4.86997">
        <ele>361</ele>
        <time>2022-06-06T10:24:18.000Z</time>
      </trkpt>
      <trkpt lat="49.82618" lon="4.87002">
        <ele>361</ele>
        <time>2022-06-06T10:24:19.000Z</time>
      </trkpt>
      <trkpt lat="49.82615" lon="4.87007">
        <ele>361</ele>
        <time>2022-06-06T10:24:20.000Z</time>
      </trkpt>
      <trkpt lat="49.82611" lon="4.87012">
        <ele>361</ele>
        <time>2022-06-06T10:24:21.000Z</time>
      </trkpt>
      <trkpt lat="49.82607" lon="4.87017">
        <ele>360</ele>
        <time>2022-06-06T10:24:22.000Z</time>
      </trkpt>
      <trkpt lat="49.82604" lon="4.87022">
        <ele>360</ele>
        <time>2022-06-06T10:24:23.000Z</time>
      </trkpt>
      <trkpt lat="49.82599" lon="4.87026">
        <ele>360</ele>
        <time>2022-06-06T10:24:24.000Z</time>
      </trkpt>
      <trkpt lat="49.82595" lon="4.8703">
        <ele>360</ele>
        <time>2022-06-06T10:24:25.000Z</time>
      </trkpt>
      <trkpt lat="49.82591" lon="4.87034">
        <ele>360</ele>
        <time>2022-06-06T10:24:26.000Z</time>
      </trkpt>
      <trkpt lat="49.82586" lon="4.87038">
        <ele>360</ele>
        <time>2022-06-06T10:24:27.000Z</time>
      </trkpt>
      <trkpt lat="49.82582" lon="4.87041">
        <ele>360</ele>
        <time>2022-06-06T10:24:28.000Z</time>
      </trkpt>
      <trkpt lat="49.82577" lon="4.87045">
        <ele>360</ele>
        <time>2022-06-06T10:24:29.000Z</time>
      </trkpt>
      <trkpt lat="49.82572" lon="4.8705">
        <ele>359</ele>
        <time>2022-06-06T10:24:30.000Z</time>
      </trkpt>
      <trkpt lat="49.82568" lon="4.87054">
        <ele>359</ele>
        <time>2022-06-06T10:24:31.000Z</time>
      </trkpt>
      <trkpt lat="49.82564" lon="4.87058">
        <ele>359</ele>
        <time>2022-06-06T10:24:32.000Z</time>
      </trkpt>
      <trkpt lat="49.8256" lon="4.87061">
        <ele>359</ele>
        <time>2022-06-06T10:24:33.000Z</time>
      </trkpt>
      <trkpt lat="49.82556" lon="4.87065">
        <ele>359</ele>
        <time>2022-06-06T10:24:34.000Z</time>
      </trkpt>
      <trkpt lat="49.82552" lon="4.87069">
        <ele>359</ele>
        <time>2022-06-06T10:24:35.000Z</time>
      </trkpt>
      <trkpt lat="49.82548" lon="4.87073">
        <ele>359</ele>
        <time>2022-06-06T10:24:36.000Z</time>
      </trkpt>
      <trkpt lat="49.82544" lon="4.87077">
        <ele>359</ele>
        <time>2022-06-06T10:24:37.000Z</time>
      </trkpt>
      <trkpt lat="49.82541" lon="4.8708">
        <ele>359</ele>
        <time>2022-06-06T10:24:38.000Z</time>
      </trkpt>
      <trkpt lat="49.82538" lon="4.87085">
        <ele>359</ele>
        <time>2022-06-06T10:24:39.000Z</time>
      </trkpt>
      <trkpt lat="49.82534" lon="4.8709">
        <ele>359</ele>
        <time>2022-06-06T10:24:40.000Z</time>
      </trkpt>
      <trkpt lat="49.82529" lon="4.87096">
        <ele>359</ele>
        <time>2022-06-06T10:24:41.000Z</time>
      </trkpt>
      <trkpt lat="49.82525" lon="4.87101">
        <ele>359</ele>
        <time>2022-06-06T10:24:42.000Z</time>
      </trkpt>
      <trkpt lat="49.82521" lon="4.87107">
        <ele>359</ele>
        <time>2022-06-06T10:24:43.000Z</time>
      </trkpt>
      <trkpt lat="49.82517" lon="4.87113">
        <ele>359</ele>
        <time>2022-06-06T10:24:44.000Z</time>
      </trkpt>
      <trkpt lat="49.82513" lon="4.8712">
        <ele>359</ele>
        <time>2022-06-06T10:24:45.000Z</time>
      </trkpt>
      <trkpt lat="49.82509" lon="4.87126">
        <ele>359</ele>
        <time>2022-06-06T10:24:46.000Z</time>
      </trkpt>
      <trkpt lat="49.82505" lon="4.87133">
        <ele>359</ele>
        <time>2022-06-06T10:24:47.000Z</time>
      </trkpt>
      <trkpt lat="49.82502" lon="4.8714">
        <ele>359</ele>
        <time>2022-06-06T10:24:48.000Z</time>
      </trkpt>
      <trkpt lat="49.82499" lon="4.87147">
        <ele>359</ele>
        <time>2022-06-06T10:24:49.000Z</time>
      </trkpt>
      <trkpt lat="49.82495" lon="4.87155">
        <ele>359</ele>
        <time>2022-06-06T10:24:50.000Z</time>
      </trkpt>
      <trkpt lat="49.82492" lon="4.87161">
        <ele>359</ele>
        <time>2022-06-06T10:24:51.000Z</time>
      </trkpt>
      <trkpt lat="49.82488" lon="4.87168">
        <ele>359</ele>
        <time>2022-06-06T10:24:52.000Z</time>
      </trkpt>
      <trkpt lat="49.82485" lon="4.87176">
        <ele>359</ele>
        <time>2022-06-06T10:24:53.000Z</time>
      </trkpt>
      <trkpt lat="49.82482" lon="4.87183">
        <ele>359</ele>
        <time>2022-06-06T10:24:54.000Z</time>
      </trkpt>
      <trkpt lat="49.82479" lon="4.8719">
        <ele>359</ele>
        <time>2022-06-06T10:24:55.000Z</time>
      </trkpt>
      <trkpt lat="49.82476" lon="4.87198">
        <ele>359</ele>
        <time>2022-06-06T10:24:56.000Z</time>
      </trkpt>
      <trkpt lat="49.82473" lon="4.87205">
        <ele>359</ele>
        <time>2022-06-06T10:24:57.000Z</time>
      </trkpt>
      <trkpt lat="49.8247" lon="4.87213">
        <ele>359</ele>
        <time>2022-06-06T10:24:58.000Z</time>
      </trkpt>
      <trkpt lat="49.82468" lon="4.8722">
        <ele>359</ele>
        <time>2022-06-06T10:24:59.000Z</time>
      </trkpt>
      <trkpt lat="49.82465" lon="4.87228">
        <ele>359</ele>
        <time>2022-06-06T10:25:00.000Z</time>
      </trkpt>
      <trkpt lat="49.82462" lon="4.87235">
        <ele>359</ele>
        <time>2022-06-06T10:25:01.000Z</time>
      </trkpt>
      <trkpt lat="49.8246" lon="4.87242">
        <ele>359</ele>
        <time>2022-06-06T10:25:02.000Z</time>
      </trkpt>
      <trkpt lat="49.82457" lon="4.8725">
        <ele>359</ele>
        <time>2022-06-06T10:25:03.000Z</time>
      </trkpt>
      <trkpt lat="49.82454" lon="4.87257">
        <ele>359</ele>
        <time>2022-06-06T10:25:04.000Z</time>
      </trkpt>
      <trkpt lat="49.82451" lon="4.87264">
        <ele>360</ele>
        <time>2022-06-06T10:25:05.000Z</time>
      </trkpt>
      <trkpt lat="49.82448" lon="4.87271">
        <ele>360</ele>
        <time>2022-06-06T10:25:06.000Z</time>
      </trkpt>
      <trkpt lat="49.82445" lon="4.87278">
        <ele>360</ele>
        <time>2022-06-06T10:25:07.000Z</time>
      </trkpt>
      <trkpt lat="49.82443" lon="4.87285">
        <ele>360</ele>
        <time>2022-06-06T10:25:08.000Z</time>
      </trkpt>
      <trkpt lat="49.82441" lon="4.87292">
        <ele>360</ele>
        <time>2022-06-06T10:25:09.000Z</time>
      </trkpt>
      <trkpt lat="49.82438" lon="4.87299">
        <ele>361</ele>
        <time>2022-06-06T10:25:10.000Z</time>
      </trkpt>
      <trkpt lat="49.82436" lon="4.87306">
        <ele>361</ele>
        <time>2022-06-06T10:25:11.000Z</time>
      </trkpt>
      <trkpt lat="49.82434" lon="4.87313">
        <ele>361</ele>
        <time>2022-06-06T10:25:12.000Z</time>
      </trkpt>
      <trkpt lat="49.82432" lon="4.8732">
        <ele>361</ele>
        <time>2022-06-06T10:25:13.000Z</time>
      </trkpt>
      <trkpt lat="49.82431" lon="4.87327">
        <ele>361</ele>
        <time>2022-06-06T10:25:14.000Z</time>
      </trkpt>
      <trkpt lat="49.8243" lon="4.87334">
        <ele>361</ele>
        <time>2022-06-06T10:25:15.000Z</time>
      </trkpt>
      <trkpt lat="49.82429" lon="4.87341">
        <ele>361</ele>
        <time>2022-06-06T10:25:16.000Z</time>
      </trkpt>
      <trkpt lat="49.82428" lon="4.87348">
        <ele>361</ele>
        <time>2022-06-06T10:25:17.000Z</time>
      </trkpt>
      <trkpt lat="49.82427" lon="4.87355">
        <ele>361</ele>
        <time>2022-06-06T10:25:18.000Z</time>
      </trkpt>
      <trkpt lat="49.82426" lon="4.87362">
        <ele>361</ele>
        <time>2022-06-06T10:25:19.000Z</time>
      </trkpt>
      <trkpt lat="49.82425" lon="4.87369">
        <ele>362</ele>
        <time>2022-06-06T10:25:20.000Z</time>
      </trkpt>
      <trkpt lat="49.82424" lon="4.87376">
        <ele>362</ele>
        <time>2022-06-06T10:25:21.000Z</time>
      </trkpt>
      <trkpt lat="49.82423" lon="4.87382">
        <ele>362</ele>
        <time>2022-06-06T10:25:22.000Z</time>
      </trkpt>
      <trkpt lat="49.82423" lon="4.87389">
        <ele>362</ele>
        <time>2022-06-06T10:25:23.000Z</time>
      </trkpt>
      <trkpt lat="49.82423" lon="4.87395">
        <ele>362</ele>
        <time>2022-06-06T10:25:24.000Z</time>
      </trkpt>
      <trkpt lat="49.82422" lon="4.87401">
        <ele>362</ele>
        <time>2022-06-06T10:25:25.000Z</time>
      </trkpt>
      <trkpt lat="49.82421" lon="4.87406">
        <ele>362</ele>
        <time>2022-06-06T10:25:26.000Z</time>
      </trkpt>
      <trkpt lat="49.82421" lon="4.87412">
        <ele>362</ele>
        <time>2022-06-06T10:25:27.000Z</time>
      </trkpt>
      <trkpt lat="49.8242" lon="4.87418">
        <ele>362</ele>
        <time>2022-06-06T10:25:28.000Z</time>
      </trkpt>
      <trkpt lat="49.82418" lon="4.87423">
        <ele>362</ele>
        <time>2022-06-06T10:25:29.000Z</time>
      </trkpt>
      <trkpt lat="49.82415" lon="4.87426">
        <ele>362</ele>
        <time>2022-06-06T10:25:30.000Z</time>
      </trkpt>
      <trkpt lat="49.82412" lon="4.87427">
        <ele>362</ele>
        <time>2022-06-06T10:25:31.000Z</time>
      </trkpt>
      <trkpt lat="49.82409" lon="4.87428">
        <ele>362</ele>
        <time>2022-06-06T10:25:32.000Z</time>
      </trkpt>
      <trkpt lat="49.82406" lon="4.87429">
        <ele>363</ele>
        <time>2022-06-06T10:25:33.000Z</time>
      </trkpt>
      <trkpt lat="49.82403" lon="4.87429">
        <ele>363</ele>
        <time>2022-06-06T10:25:34.000Z</time>
      </trkpt>
      <trkpt lat="49.824" lon="4.87428">
        <ele>363</ele>
        <time>2022-06-06T10:25:35.000Z</time>
      </trkpt>
      <trkpt lat="49.82397" lon="4.87428">
        <ele>363</ele>
        <time>2022-06-06T10:25:36.000Z</time>
      </trkpt>
      <trkpt lat="49.82394" lon="4.87428">
        <ele>363</ele>
        <time>2022-06-06T10:25:37.000Z</time>
      </trkpt>
      <trkpt lat="49.82391" lon="4.87427">
        <ele>363</ele>
        <time>2022-06-06T10:25:38.000Z</time>
      </trkpt>
      <trkpt lat="49.82388" lon="4.87427">
        <ele>363</ele>
        <time>2022-06-06T10:25:39.000Z</time>
      </trkpt>
      <trkpt lat="49.82384" lon="4.87427">
        <ele>363</ele>
        <time>2022-06-06T10:25:40.000Z</time>
      </trkpt>
      <trkpt lat="49.8238" lon="4.87429">
        <ele>363</ele>
        <time>2022-06-06T10:25:41.000Z</time>
      </trkpt>
      <trkpt lat="49.82376" lon="4.87431">
        <ele>363</ele>
        <time>2022-06-06T10:25:42.000Z</time>
      </trkpt>
      <trkpt lat="49.82373" lon="4.87434">
        <ele>363</ele>
        <time>2022-06-06T10:25:43.000Z</time>
      </trkpt>
      <trkpt lat="49.82369" lon="4.87438">
        <ele>363</ele>
        <time>2022-06-06T10:25:44.000Z</time>
      </trkpt>
      <trkpt lat="49.82366" lon="4.87442">
        <ele>363</ele>
        <time>2022-06-06T10:25:45.000Z</time>
      </trkpt>
      <trkpt lat="49.82362" lon="4.87447">
        <ele>363</ele>
        <time>2022-06-06T10:25:46.000Z</time>
      </trkpt>
      <trkpt lat="49.82359" lon="4.87453">
        <ele>363</ele>
        <time>2022-06-06T10:25:47.000Z</time>
      </trkpt>
      <trkpt lat="49.82356" lon="4.87458">
        <ele>363</ele>
        <time>2022-06-06T10:25:48.000Z</time>
      </trkpt>
      <trkpt lat="49.82352" lon="4.87465">
        <ele>363</ele>
        <time>2022-06-06T10:25:49.000Z</time>
      </trkpt>
      <trkpt lat="49.82349" lon="4.87471">
        <ele>362</ele>
        <time>2022-06-06T10:25:50.000Z</time>
      </trkpt>
      <trkpt lat="49.82346" lon="4.87478">
        <ele>362</ele>
        <time>2022-06-06T10:25:51.000Z</time>
      </trkpt>
      <trkpt lat="49.82342" lon="4.87485">
        <ele>362</ele>
        <time>2022-06-06T10:25:52.000Z</time>
      </trkpt>
      <trkpt lat="49.82338" lon="4.87492">
        <ele>362</ele>
        <time>2022-06-06T10:25:53.000Z</time>
      </trkpt>
      <trkpt lat="49.82334" lon="4.87499">
        <ele>362</ele>
        <time>2022-06-06T10:25:54.000Z</time>
      </trkpt>
      <trkpt lat="49.82329" lon="4.87505">
        <ele>361</ele>
        <time>2022-06-06T10:25:55.000Z</time>
      </trkpt>
      <trkpt lat="49.82324" lon="4.87511">
        <ele>361</ele>
        <time>2022-06-06T10:25:56.000Z</time>
      </trkpt>
      <trkpt lat="49.82319" lon="4.87517">
        <ele>360</ele>
        <time>2022-06-06T10:25:57.000Z</time>
      </trkpt>
      <trkpt lat="49.82313" lon="4.87523">
        <ele>360</ele>
        <time>2022-06-06T10:25:58.000Z</time>
      </trkpt>
      <trkpt lat="49.82307" lon="4.87528">
        <ele>359</ele>
        <time>2022-06-06T10:25:59.000Z</time>
      </trkpt>
      <trkpt lat="49.823" lon="4.87532">
        <ele>358</ele>
        <time>2022-06-06T10:26:00.000Z</time>
      </trkpt>
      <trkpt lat="49.82294" lon="4.87536">
        <ele>357</ele>
        <time>2022-06-06T10:26:01.000Z</time>
      </trkpt>
      <trkpt lat="49.82288" lon="4.87539">
        <ele>357</ele>
        <time>2022-06-06T10:26:02.000Z</time>
      </trkpt>
      <trkpt lat="49.82282" lon="4.87542">
        <ele>356</ele>
        <time>2022-06-06T10:26:03.000Z</time>
      </trkpt>
      <trkpt lat="49.82275" lon="4.87545">
        <ele>355</ele>
        <time>2022-06-06T10:26:04.000Z</time>
      </trkpt>
      <trkpt lat="49.82268" lon="4.87547">
        <ele>354</ele>
        <time>2022-06-06T10:26:05.000Z</time>
      </trkpt>
      <trkpt lat="49.82261" lon="4.8755">
        <ele>354</ele>
        <time>2022-06-06T10:26:06.000Z</time>
      </trkpt>
      <trkpt lat="49.82255" lon="4.87552">
        <ele>353</ele>
        <time>2022-06-06T10:26:07.000Z</time>
      </trkpt>
      <trkpt lat="49.82249" lon="4.87553">
        <ele>352</ele>
        <time>2022-06-06T10:26:08.000Z</time>
      </trkpt>
      <trkpt lat="49.82243" lon="4.87551">
        <ele>351</ele>
        <time>2022-06-06T10:26:09.000Z</time>
      </trkpt>
      <trkpt lat="49.82237" lon="4.87549">
        <ele>351</ele>
        <time>2022-06-06T10:26:10.000Z</time>
      </trkpt>
      <trkpt lat="49.82232" lon="4.87546">
        <ele>350</ele>
        <time>2022-06-06T10:26:11.000Z</time>
      </trkpt>
      <trkpt lat="49.82228" lon="4.87543">
        <ele>350</ele>
        <time>2022-06-06T10:26:12.000Z</time>
      </trkpt>
      <trkpt lat="49.82224" lon="4.87539">
        <ele>349</ele>
        <time>2022-06-06T10:26:13.000Z</time>
      </trkpt>
      <trkpt lat="49.82219" lon="4.87535">
        <ele>349</ele>
        <time>2022-06-06T10:26:14.000Z</time>
      </trkpt>
      <trkpt lat="49.82214" lon="4.87531">
        <ele>349</ele>
        <time>2022-06-06T10:26:15.000Z</time>
      </trkpt>
      <trkpt lat="49.82209" lon="4.87528">
        <ele>348</ele>
        <time>2022-06-06T10:26:16.000Z</time>
      </trkpt>
      <trkpt lat="49.82205" lon="4.87525">
        <ele>348</ele>
        <time>2022-06-06T10:26:17.000Z</time>
      </trkpt>
      <trkpt lat="49.822" lon="4.87523">
        <ele>348</ele>
        <time>2022-06-06T10:26:18.000Z</time>
      </trkpt>
      <trkpt lat="49.82195" lon="4.8752">
        <ele>348</ele>
        <time>2022-06-06T10:26:19.000Z</time>
      </trkpt>
      <trkpt lat="49.8219" lon="4.87518">
        <ele>348</ele>
        <time>2022-06-06T10:26:20.000Z</time>
      </trkpt>
      <trkpt lat="49.82184" lon="4.87518">
        <ele>348</ele>
        <time>2022-06-06T10:26:21.000Z</time>
      </trkpt>
      <trkpt lat="49.82178" lon="4.87518">
        <ele>347</ele>
        <time>2022-06-06T10:26:22.000Z</time>
      </trkpt>
      <trkpt lat="49.82171" lon="4.87519">
        <ele>347</ele>
        <time>2022-06-06T10:26:23.000Z</time>
      </trkpt>
      <trkpt lat="49.82164" lon="4.8752">
        <ele>347</ele>
        <time>2022-06-06T10:26:24.000Z</time>
      </trkpt>
      <trkpt lat="49.82158" lon="4.87521">
        <ele>346</ele>
        <time>2022-06-06T10:26:25.000Z</time>
      </trkpt>
      <trkpt lat="49.82153" lon="4.87521">
        <ele>346</ele>
        <time>2022-06-06T10:26:26.000Z</time>
      </trkpt>
      <trkpt lat="49.82148" lon="4.87519">
        <ele>346</ele>
        <time>2022-06-06T10:26:27.000Z</time>
      </trkpt>
      <trkpt lat="49.82145" lon="4.87516">
        <ele>345</ele>
        <time>2022-06-06T10:26:28.000Z</time>
      </trkpt>
      <trkpt lat="49.82141" lon="4.87511">
        <ele>345</ele>
        <time>2022-06-06T10:26:29.000Z</time>
      </trkpt>
      <trkpt lat="49.82138" lon="4.87506">
        <ele>345</ele>
        <time>2022-06-06T10:26:30.000Z</time>
      </trkpt>
      <trkpt lat="49.82136" lon="4.87501">
        <ele>344</ele>
        <time>2022-06-06T10:26:31.000Z</time>
      </trkpt>
      <trkpt lat="49.82133" lon="4.87495">
        <ele>344</ele>
        <time>2022-06-06T10:26:32.000Z</time>
      </trkpt>
      <trkpt lat="49.82131" lon="4.87489">
        <ele>344</ele>
        <time>2022-06-06T10:26:33.000Z</time>
      </trkpt>
      <trkpt lat="49.82129" lon="4.87484">
        <ele>343</ele>
        <time>2022-06-06T10:26:34.000Z</time>
      </trkpt>
      <trkpt lat="49.82127" lon="4.87478">
        <ele>343</ele>
        <time>2022-06-06T10:26:35.000Z</time>
      </trkpt>
      <trkpt lat="49.82126" lon="4.87472">
        <ele>343</ele>
        <time>2022-06-06T10:26:36.000Z</time>
      </trkpt>
      <trkpt lat="49.82125" lon="4.87465">
        <ele>343</ele>
        <time>2022-06-06T10:26:37.000Z</time>
      </trkpt>
      <trkpt lat="49.82123" lon="4.87458">
        <ele>342</ele>
        <time>2022-06-06T10:26:38.000Z</time>
      </trkpt>
      <trkpt lat="49.82121" lon="4.87451">
        <ele>342</ele>
        <time>2022-06-06T10:26:39.000Z</time>
      </trkpt>
      <trkpt lat="49.8212" lon="4.87445">
        <ele>341</ele>
        <time>2022-06-06T10:26:40.000Z</time>
      </trkpt>
      <trkpt lat="49.82118" lon="4.8744">
        <ele>341</ele>
        <time>2022-06-06T10:26:41.000Z</time>
      </trkpt>
      <trkpt lat="49.82116" lon="4.87436">
        <ele>341</ele>
        <time>2022-06-06T10:26:42.000Z</time>
      </trkpt>
      <trkpt lat="49.82114" lon="4.87435">
        <ele>340</ele>
        <time>2022-06-06T10:26:43.000Z</time>
      </trkpt>
      <trkpt lat="49.82113" lon="4.87434">
        <ele>340</ele>
        <time>2022-06-06T10:26:44.000Z</time>
      </trkpt>
      <trkpt lat="49.82111" lon="4.87433">
        <ele>340</ele>
        <time>2022-06-06T10:26:45.000Z</time>
      </trkpt>
      <trkpt lat="49.8211" lon="4.87432">
        <ele>340</ele>
        <time>2022-06-06T10:26:46.000Z</time>
      </trkpt>
      <trkpt lat="49.82108" lon="4.87431">
        <ele>339</ele>
        <time>2022-06-06T10:26:47.000Z</time>
      </trkpt>
      <trkpt lat="49.82106" lon="4.87431">
        <ele>339</ele>
        <time>2022-06-06T10:26:48.000Z</time>
      </trkpt>
      <trkpt lat="49.82104" lon="4.87433">
        <ele>339</ele>
        <time>2022-06-06T10:26:49.000Z</time>
      </trkpt>
      <trkpt lat="49.82102" lon="4.87436">
        <ele>339</ele>
        <time>2022-06-06T10:26:50.000Z</time>
      </trkpt>
      <trkpt lat="49.821" lon="4.87438">
        <ele>338</ele>
        <time>2022-06-06T10:26:51.000Z</time>
      </trkpt>
      <trkpt lat="49.82098" lon="4.8744">
        <ele>338</ele>
        <time>2022-06-06T10:26:52.000Z</time>
      </trkpt>
      <trkpt lat="49.82096" lon="4.87442">
        <ele>338</ele>
        <time>2022-06-06T10:26:53.000Z</time>
      </trkpt>
      <trkpt lat="49.82094" lon="4.87444">
        <ele>338</ele>
        <time>2022-06-06T10:26:54.000Z</time>
      </trkpt>
      <trkpt lat="49.82092" lon="4.87446">
        <ele>338</ele>
        <time>2022-06-06T10:26:55.000Z</time>
      </trkpt>
      <trkpt lat="49.8209" lon="4.87449">
        <ele>338</ele>
        <time>2022-06-06T10:26:56.000Z</time>
      </trkpt>
      <trkpt lat="49.82088" lon="4.87451">
        <ele>337</ele>
        <time>2022-06-06T10:26:57.000Z</time>
      </trkpt>
      <trkpt lat="49.82085" lon="4.87455">
        <ele>337</ele>
        <time>2022-06-06T10:26:58.000Z</time>
      </trkpt>
      <trkpt lat="49.82083" lon="4.87458">
        <ele>337</ele>
        <time>2022-06-06T10:26:59.000Z</time>
      </trkpt>
      <trkpt lat="49.8208" lon="4.87462">
        <ele>337</ele>
        <time>2022-06-06T10:27:00.000Z</time>
      </trkpt>
      <trkpt lat="49.82077" lon="4.87465">
        <ele>337</ele>
        <time>2022-06-06T10:27:01.000Z</time>
      </trkpt>
      <trkpt lat="49.82074" lon="4.87469">
        <ele>336</ele>
        <time>2022-06-06T10:27:02.000Z</time>
      </trkpt>
      <trkpt lat="49.82072" lon="4.87472">
        <ele>336</ele>
        <time>2022-06-06T10:27:03.000Z</time>
      </trkpt>
      <trkpt lat="49.8207" lon="4.87476">
        <ele>336</ele>
        <time>2022-06-06T10:27:04.000Z</time>
      </trkpt>
      <trkpt lat="49.82067" lon="4.87479">
        <ele>336</ele>
        <time>2022-06-06T10:27:05.000Z</time>
      </trkpt>
      <trkpt lat="49.82065" lon="4.87483">
        <ele>335</ele>
        <time>2022-06-06T10:27:06.000Z</time>
      </trkpt>
      <trkpt lat="49.82063" lon="4.87486">
        <ele>335</ele>
        <time>2022-06-06T10:27:07.000Z</time>
      </trkpt>
      <trkpt lat="49.82061" lon="4.8749">
        <ele>335</ele>
        <time>2022-06-06T10:27:08.000Z</time>
      </trkpt>
      <trkpt lat="49.82057" lon="4.87494">
        <ele>335</ele>
        <time>2022-06-06T10:27:09.000Z</time>
      </trkpt>
      <trkpt lat="49.82054" lon="4.87498">
        <ele>334</ele>
        <time>2022-06-06T10:27:10.000Z</time>
      </trkpt>
      <trkpt lat="49.82051" lon="4.87501">
        <ele>334</ele>
        <time>2022-06-06T10:27:11.000Z</time>
      </trkpt>
      <trkpt lat="49.82049" lon="4.87504">
        <ele>334</ele>
        <time>2022-06-06T10:27:12.000Z</time>
      </trkpt>
      <trkpt lat="49.82047" lon="4.87508">
        <ele>334</ele>
        <time>2022-06-06T10:27:13.000Z</time>
      </trkpt>
      <trkpt lat="49.82045" lon="4.87513">
        <ele>333</ele>
        <time>2022-06-06T10:27:14.000Z</time>
      </trkpt>
      <trkpt lat="49.82042" lon="4.87518">
        <ele>333</ele>
        <time>2022-06-06T10:27:15.000Z</time>
      </trkpt>
      <trkpt lat="49.82039" lon="4.87523">
        <ele>333</ele>
        <time>2022-06-06T10:27:16.000Z</time>
      </trkpt>
      <trkpt lat="49.82035" lon="4.87527">
        <ele>332</ele>
        <time>2022-06-06T10:27:17.000Z</time>
      </trkpt>
      <trkpt lat="49.82031" lon="4.8753">
        <ele>332</ele>
        <time>2022-06-06T10:27:18.000Z</time>
      </trkpt>
      <trkpt lat="49.82027" lon="4.87534">
        <ele>331</ele>
        <time>2022-06-06T10:27:19.000Z</time>
      </trkpt>
      <trkpt lat="49.82023" lon="4.87538">
        <ele>330</ele>
        <time>2022-06-06T10:27:20.000Z</time>
      </trkpt>
      <trkpt lat="49.82018" lon="4.8754">
        <ele>330</ele>
        <time>2022-06-06T10:27:21.000Z</time>
      </trkpt>
      <trkpt lat="49.82014" lon="4.87542">
        <ele>329</ele>
        <time>2022-06-06T10:27:22.000Z</time>
      </trkpt>
      <trkpt lat="49.8201" lon="4.87544">
        <ele>329</ele>
        <time>2022-06-06T10:27:23.000Z</time>
      </trkpt>
      <trkpt lat="49.82005" lon="4.87545">
        <ele>328</ele>
        <time>2022-06-06T10:27:24.000Z</time>
      </trkpt>
      <trkpt lat="49.82001" lon="4.87547">
        <ele>328</ele>
        <time>2022-06-06T10:27:25.000Z</time>
      </trkpt>
      <trkpt lat="49.81996" lon="4.87548">
        <ele>327</ele>
        <time>2022-06-06T10:27:26.000Z</time>
      </trkpt>
      <trkpt lat="49.81992" lon="4.87549">
        <ele>326</ele>
        <time>2022-06-06T10:27:27.000Z</time>
      </trkpt>
      <trkpt lat="49.81987" lon="4.87551">
        <ele>326</ele>
        <time>2022-06-06T10:27:28.000Z</time>
      </trkpt>
      <trkpt lat="49.81983" lon="4.87552">
        <ele>325</ele>
        <time>2022-06-06T10:27:29.000Z</time>
      </trkpt>
      <trkpt lat="49.81979" lon="4.87553">
        <ele>325</ele>
        <time>2022-06-06T10:27:30.000Z</time>
      </trkpt>
      <trkpt lat="49.81976" lon="4.87555">
        <ele>324</ele>
        <time>2022-06-06T10:27:31.000Z</time>
      </trkpt>
      <trkpt lat="49.81973" lon="4.87555">
        <ele>323</ele>
        <time>2022-06-06T10:27:32.000Z</time>
      </trkpt>
      <trkpt lat="49.8197" lon="4.87555">
        <ele>323</ele>
        <time>2022-06-06T10:27:33.000Z</time>
      </trkpt>
      <trkpt lat="49.81967" lon="4.87555">
        <ele>322</ele>
        <time>2022-06-06T10:27:34.000Z</time>
      </trkpt>
      <trkpt lat="49.81963" lon="4.87556">
        <ele>321</ele>
        <time>2022-06-06T10:27:35.000Z</time>
      </trkpt>
      <trkpt lat="49.81958" lon="4.87556">
        <ele>321</ele>
        <time>2022-06-06T10:27:36.000Z</time>
      </trkpt>
      <trkpt lat="49.81953" lon="4.87556">
        <ele>320</ele>
        <time>2022-06-06T10:27:37.000Z</time>
      </trkpt>
      <trkpt lat="49.81949" lon="4.87556">
        <ele>319</ele>
        <time>2022-06-06T10:27:38.000Z</time>
      </trkpt>
      <trkpt lat="49.81944" lon="4.87556">
        <ele>318</ele>
        <time>2022-06-06T10:27:39.000Z</time>
      </trkpt>
      <trkpt lat="49.81939" lon="4.87555">
        <ele>317</ele>
        <time>2022-06-06T10:27:40.000Z</time>
      </trkpt>
      <trkpt lat="49.81934" lon="4.87553">
        <ele>317</ele>
        <time>2022-06-06T10:27:41.000Z</time>
      </trkpt>
      <trkpt lat="49.81929" lon="4.87552">
        <ele>316</ele>
        <time>2022-06-06T10:27:42.000Z</time>
      </trkpt>
      <trkpt lat="49.81924" lon="4.87551">
        <ele>315</ele>
        <time>2022-06-06T10:27:43.000Z</time>
      </trkpt>
      <trkpt lat="49.81919" lon="4.87551">
        <ele>314</ele>
        <time>2022-06-06T10:27:44.000Z</time>
      </trkpt>
      <trkpt lat="49.81914" lon="4.87551">
        <ele>313</ele>
        <time>2022-06-06T10:27:45.000Z</time>
      </trkpt>
      <trkpt lat="49.81909" lon="4.87552">
        <ele>312</ele>
        <time>2022-06-06T10:27:46.000Z</time>
      </trkpt>
      <trkpt lat="49.81904" lon="4.87553">
        <ele>312</ele>
        <time>2022-06-06T10:27:47.000Z</time>
      </trkpt>
      <trkpt lat="49.81899" lon="4.87555">
        <ele>311</ele>
        <time>2022-06-06T10:27:48.000Z</time>
      </trkpt>
      <trkpt lat="49.81894" lon="4.87556">
        <ele>310</ele>
        <time>2022-06-06T10:27:49.000Z</time>
      </trkpt>
      <trkpt lat="49.81889" lon="4.87557">
        <ele>310</ele>
        <time>2022-06-06T10:27:50.000Z</time>
      </trkpt>
      <trkpt lat="49.81884" lon="4.87558">
        <ele>309</ele>
        <time>2022-06-06T10:27:51.000Z</time>
      </trkpt>
      <trkpt lat="49.81879" lon="4.87558">
        <ele>309</ele>
        <time>2022-06-06T10:27:52.000Z</time>
      </trkpt>
      <trkpt lat="49.81873" lon="4.87558">
        <ele>308</ele>
        <time>2022-06-06T10:27:53.000Z</time>
      </trkpt>
      <trkpt lat="49.81869" lon="4.87557">
        <ele>307</ele>
        <time>2022-06-06T10:27:54.000Z</time>
      </trkpt>
      <trkpt lat="49.81865" lon="4.87557">
        <ele>306</ele>
        <time>2022-06-06T10:27:55.000Z</time>
      </trkpt>
      <trkpt lat="49.81861" lon="4.87557">
        <ele>306</ele>
        <time>2022-06-06T10:27:56.000Z</time>
      </trkpt>
      <trkpt lat="49.81857" lon="4.87556">
        <ele>305</ele>
        <time>2022-06-06T10:27:57.000Z</time>
      </trkpt>
      <trkpt lat="49.81852" lon="4.87556">
        <ele>304</ele>
        <time>2022-06-06T10:27:58.000Z</time>
      </trkpt>
      <trkpt lat="49.81848" lon="4.87556">
        <ele>304</ele>
        <time>2022-06-06T10:27:59.000Z</time>
      </trkpt>
      <trkpt lat="49.81843" lon="4.87555">
        <ele>303</ele>
        <time>2022-06-06T10:28:00.000Z</time>
      </trkpt>
      <trkpt lat="49.81838" lon="4.87555">
        <ele>302</ele>
        <time>2022-06-06T10:28:01.000Z</time>
      </trkpt>
      <trkpt lat="49.81833" lon="4.87554">
        <ele>301</ele>
        <time>2022-06-06T10:28:02.000Z</time>
      </trkpt>
      <trkpt lat="49.81828" lon="4.87555">
        <ele>300</ele>
        <time>2022-06-06T10:28:03.000Z</time>
      </trkpt>
      <trkpt lat="49.81824" lon="4.87555">
        <ele>299</ele>
        <time>2022-06-06T10:28:04.000Z</time>
      </trkpt>
      <trkpt lat="49.81821" lon="4.87555">
        <ele>298</ele>
        <time>2022-06-06T10:28:05.000Z</time>
      </trkpt>
      <trkpt lat="49.81817" lon="4.87554">
        <ele>297</ele>
        <time>2022-06-06T10:28:06.000Z</time>
      </trkpt>
      <trkpt lat="49.81812" lon="4.87553">
        <ele>296</ele>
        <time>2022-06-06T10:28:07.000Z</time>
      </trkpt>
      <trkpt lat="49.81807" lon="4.87553">
        <ele>296</ele>
        <time>2022-06-06T10:28:08.000Z</time>
      </trkpt>
      <trkpt lat="49.81801" lon="4.87553">
        <ele>295</ele>
        <time>2022-06-06T10:28:09.000Z</time>
      </trkpt>
      <trkpt lat="49.81795" lon="4.87553">
        <ele>294</ele>
        <time>2022-06-06T10:28:10.000Z</time>
      </trkpt>
      <trkpt lat="49.8179" lon="4.87552">
        <ele>293</ele>
        <time>2022-06-06T10:28:11.000Z</time>
      </trkpt>
      <trkpt lat="49.81785" lon="4.87551">
        <ele>292</ele>
        <time>2022-06-06T10:28:12.000Z</time>
      </trkpt>
      <trkpt lat="49.8178" lon="4.8755">
        <ele>291</ele>
        <time>2022-06-06T10:28:13.000Z</time>
      </trkpt>
      <trkpt lat="49.81774" lon="4.87549">
        <ele>290</ele>
        <time>2022-06-06T10:28:14.000Z</time>
      </trkpt>
      <trkpt lat="49.8177" lon="4.87548">
        <ele>289</ele>
        <time>2022-06-06T10:28:15.000Z</time>
      </trkpt>
      <trkpt lat="49.81766" lon="4.87546">
        <ele>288</ele>
        <time>2022-06-06T10:28:16.000Z</time>
      </trkpt>
      <trkpt lat="49.81763" lon="4.87544">
        <ele>287</ele>
        <time>2022-06-06T10:28:17.000Z</time>
      </trkpt>
      <trkpt lat="49.8176" lon="4.87541">
        <ele>287</ele>
        <time>2022-06-06T10:28:18.000Z</time>
      </trkpt>
      <trkpt lat="49.81757" lon="4.87539">
        <ele>286</ele>
        <time>2022-06-06T10:28:19.000Z</time>
      </trkpt>
      <trkpt lat="49.81754" lon="4.87536">
        <ele>285</ele>
        <time>2022-06-06T10:28:20.000Z</time>
      </trkpt>
      <trkpt lat="49.81752" lon="4.87533">
        <ele>285</ele>
        <time>2022-06-06T10:28:21.000Z</time>
      </trkpt>
      <trkpt lat="49.81749" lon="4.8753">
        <ele>284</ele>
        <time>2022-06-06T10:28:22.000Z</time>
      </trkpt>
      <trkpt lat="49.81747" lon="4.87526">
        <ele>284</ele>
        <time>2022-06-06T10:28:23.000Z</time>
      </trkpt>
      <trkpt lat="49.81744" lon="4.87522">
        <ele>283</ele>
        <time>2022-06-06T10:28:24.000Z</time>
      </trkpt>
      <trkpt lat="49.81741" lon="4.87518">
        <ele>283</ele>
        <time>2022-06-06T10:28:25.000Z</time>
      </trkpt>
      <trkpt lat="49.81738" lon="4.87515">
        <ele>282</ele>
        <time>2022-06-06T10:28:26.000Z</time>
      </trkpt>
      <trkpt lat="49.81735" lon="4.87512">
        <ele>282</ele>
        <time>2022-06-06T10:28:27.000Z</time>
      </trkpt>
      <trkpt lat="49.81733" lon="4.87508">
        <ele>282</ele>
        <time>2022-06-06T10:28:28.000Z</time>
      </trkpt>
      <trkpt lat="49.81731" lon="4.87505">
        <ele>281</ele>
        <time>2022-06-06T10:28:29.000Z</time>
      </trkpt>
      <trkpt lat="49.81728" lon="4.87502">
        <ele>281</ele>
        <time>2022-06-06T10:28:30.000Z</time>
      </trkpt>
      <trkpt lat="49.81726" lon="4.87499">
        <ele>281</ele>
        <time>2022-06-06T10:28:31.000Z</time>
      </trkpt>
      <trkpt lat="49.81724" lon="4.87495">
        <ele>281</ele>
        <time>2022-06-06T10:28:32.000Z</time>
      </trkpt>
      <trkpt lat="49.8172" lon="4.8749">
        <ele>280</ele>
        <time>2022-06-06T10:28:33.000Z</time>
      </trkpt>
      <trkpt lat="49.81717" lon="4.87485">
        <ele>280</ele>
        <time>2022-06-06T10:28:34.000Z</time>
      </trkpt>
      <trkpt lat="49.81713" lon="4.87482">
        <ele>280</ele>
        <time>2022-06-06T10:28:35.000Z</time>
      </trkpt>
      <trkpt lat="49.81712" lon="4.8748">
        <ele>279</ele>
        <time>2022-06-06T10:28:36.000Z</time>
      </trkpt>
      <trkpt lat="49.81711" lon="4.87478">
        <ele>279</ele>
        <time>2022-06-06T10:28:37.000Z</time>
      </trkpt>
      <trkpt lat="49.8171" lon="4.87478">
        <ele>279</ele>
        <time>2022-06-06T10:28:38.000Z</time>
      </trkpt>
      <trkpt lat="49.8171" lon="4.87478">
        <ele>279</ele>
        <time>2022-06-06T10:28:39.000Z</time>
      </trkpt>
      <trkpt lat="49.81711" lon="4.87478">
        <ele>278</ele>
        <time>2022-06-06T10:28:40.000Z</time>
      </trkpt>
      <trkpt lat="49.81712" lon="4.87477">
        <ele>278</ele>
        <time>2022-06-06T10:28:41.000Z</time>
      </trkpt>
      <trkpt lat="49.81712" lon="4.87475">
        <ele>278</ele>
        <time>2022-06-06T10:28:42.000Z</time>
      </trkpt>
      <trkpt lat="49.81712" lon="4.87474">
        <ele>278</ele>
        <time>2022-06-06T10:28:43.000Z</time>
      </trkpt>
      <trkpt lat="49.81712" lon="4.87473">
        <ele>278</ele>
        <time>2022-06-06T10:28:44.000Z</time>
      </trkpt>
      <trkpt lat="49.81712" lon="4.87472">
        <ele>277</ele>
        <time>2022-06-06T10:28:45.000Z</time>
      </trkpt>
      <trkpt lat="49.81712" lon="4.8747">
        <ele>277</ele>
        <time>2022-06-06T10:28:46.000Z</time>
      </trkpt>
      <trkpt lat="49.81711" lon="4.87468">
        <ele>277</ele>
        <time>2022-06-06T10:28:47.000Z</time>
      </trkpt>
      <trkpt lat="49.81711" lon="4.87467">
        <ele>277</ele>
        <time>2022-06-06T10:28:48.000Z</time>
      </trkpt>
      <trkpt lat="49.8171" lon="4.87464">
        <ele>277</ele>
        <time>2022-06-06T10:28:49.000Z</time>
      </trkpt>
      <trkpt lat="49.81709" lon="4.87462">
        <ele>277</ele>
        <time>2022-06-06T10:28:50.000Z</time>
      </trkpt>
      <trkpt lat="49.81709" lon="4.8746">
        <ele>277</ele>
        <time>2022-06-06T10:28:51.000Z</time>
      </trkpt>
      <trkpt lat="49.81709" lon="4.87457">
        <ele>277</ele>
        <time>2022-06-06T10:28:52.000Z</time>
      </trkpt>
      <trkpt lat="49.81709" lon="4.87453">
        <ele>276</ele>
        <time>2022-06-06T10:28:53.000Z</time>
      </trkpt>
      <trkpt lat="49.8171" lon="4.8745">
        <ele>276</ele>
        <time>2022-06-06T10:28:54.000Z</time>
      </trkpt>
      <trkpt lat="49.8171" lon="4.87447">
        <ele>276</ele>
        <time>2022-06-06T10:28:55.000Z</time>
      </trkpt>
      <trkpt lat="49.8171" lon="4.87444">
        <ele>276</ele>
        <time>2022-06-06T10:28:56.000Z</time>
      </trkpt>
      <trkpt lat="49.8171" lon="4.87439">
        <ele>276</ele>
        <time>2022-06-06T10:28:57.000Z</time>
      </trkpt>
      <trkpt lat="49.81709" lon="4.87435">
        <ele>276</ele>
        <time>2022-06-06T10:28:58.000Z</time>
      </trkpt>
      <trkpt lat="49.81709" lon="4.8743">
        <ele>276</ele>
        <time>2022-06-06T10:28:59.000Z</time>
      </trkpt>
      <trkpt lat="49.81708" lon="4.87424">
        <ele>276</ele>
        <time>2022-06-06T10:29:00.000Z</time>
      </trkpt>
      <trkpt lat="49.81707" lon="4.87417">
        <ele>275</ele>
        <time>2022-06-06T10:29:01.000Z</time>
      </trkpt>
      <trkpt lat="49.81706" lon="4.87409">
        <ele>275</ele>
        <time>2022-06-06T10:29:02.000Z</time>
      </trkpt>
      <trkpt lat="49.81704" lon="4.87401">
        <ele>275</ele>
        <time>2022-06-06T10:29:03.000Z</time>
      </trkpt>
      <trkpt lat="49.81703" lon="4.87394">
        <ele>275</ele>
        <time>2022-06-06T10:29:04.000Z</time>
      </trkpt>
      <trkpt lat="49.81702" lon="4.87386">
        <ele>275</ele>
        <time>2022-06-06T10:29:05.000Z</time>
      </trkpt>
      <trkpt lat="49.817" lon="4.87378">
        <ele>275</ele>
        <time>2022-06-06T10:29:06.000Z</time>
      </trkpt>
      <trkpt lat="49.81699" lon="4.8737">
        <ele>275</ele>
        <time>2022-06-06T10:29:07.000Z</time>
      </trkpt>
      <trkpt lat="49.81698" lon="4.87362">
        <ele>274</ele>
        <time>2022-06-06T10:29:08.000Z</time>
      </trkpt>
      <trkpt lat="49.81696" lon="4.87353">
        <ele>274</ele>
        <time>2022-06-06T10:29:09.000Z</time>
      </trkpt>
      <trkpt lat="49.81696" lon="4.87345">
        <ele>274</ele>
        <time>2022-06-06T10:29:10.000Z</time>
      </trkpt>
      <trkpt lat="49.81696" lon="4.87337">
        <ele>274</ele>
        <time>2022-06-06T10:29:11.000Z</time>
      </trkpt>
      <trkpt lat="49.81696" lon="4.87328">
        <ele>274</ele>
        <time>2022-06-06T10:29:12.000Z</time>
      </trkpt>
      <trkpt lat="49.81696" lon="4.87319">
        <ele>274</ele>
        <time>2022-06-06T10:29:13.000Z</time>
      </trkpt>
      <trkpt lat="49.81695" lon="4.8731">
        <ele>274</ele>
        <time>2022-06-06T10:29:14.000Z</time>
      </trkpt>
      <trkpt lat="49.81695" lon="4.87301">
        <ele>274</ele>
        <time>2022-06-06T10:29:15.000Z</time>
      </trkpt>
      <trkpt lat="49.81694" lon="4.87291">
        <ele>273</ele>
        <time>2022-06-06T10:29:16.000Z</time>
      </trkpt>
      <trkpt lat="49.81693" lon="4.87281">
        <ele>273</ele>
        <time>2022-06-06T10:29:17.000Z</time>
      </trkpt>
      <trkpt lat="49.81692" lon="4.87272">
        <ele>273</ele>
        <time>2022-06-06T10:29:18.000Z</time>
      </trkpt>
      <trkpt lat="49.81691" lon="4.87263">
        <ele>273</ele>
        <time>2022-06-06T10:29:19.000Z</time>
      </trkpt>
      <trkpt lat="49.8169" lon="4.87254">
        <ele>273</ele>
        <time>2022-06-06T10:29:20.000Z</time>
      </trkpt>
      <trkpt lat="49.81688" lon="4.87245">
        <ele>273</ele>
        <time>2022-06-06T10:29:21.000Z</time>
      </trkpt>
      <trkpt lat="49.81687" lon="4.87236">
        <ele>273</ele>
        <time>2022-06-06T10:29:22.000Z</time>
      </trkpt>
      <trkpt lat="49.81686" lon="4.87227">
        <ele>273</ele>
        <time>2022-06-06T10:29:23.000Z</time>
      </trkpt>
      <trkpt lat="49.81685" lon="4.87218">
        <ele>273</ele>
        <time>2022-06-06T10:29:24.000Z</time>
      </trkpt>
      <trkpt lat="49.81684" lon="4.8721">
        <ele>273</ele>
        <time>2022-06-06T10:29:25.000Z</time>
      </trkpt>
      <trkpt lat="49.81682" lon="4.87201">
        <ele>273</ele>
        <time>2022-06-06T10:29:26.000Z</time>
      </trkpt>
      <trkpt lat="49.81681" lon="4.87192">
        <ele>272</ele>
        <time>2022-06-06T10:29:27.000Z</time>
      </trkpt>
      <trkpt lat="49.81681" lon="4.87183">
        <ele>272</ele>
        <time>2022-06-06T10:29:28.000Z</time>
      </trkpt>
      <trkpt lat="49.8168" lon="4.87174">
        <ele>272</ele>
        <time>2022-06-06T10:29:29.000Z</time>
      </trkpt>
      <trkpt lat="49.81679" lon="4.87165">
        <ele>272</ele>
        <time>2022-06-06T10:29:30.000Z</time>
      </trkpt>
      <trkpt lat="49.81678" lon="4.87156">
        <ele>272</ele>
        <time>2022-06-06T10:29:31.000Z</time>
      </trkpt>
      <trkpt lat="49.81677" lon="4.87147">
        <ele>272</ele>
        <time>2022-06-06T10:29:32.000Z</time>
      </trkpt>
      <trkpt lat="49.81676" lon="4.87138">
        <ele>272</ele>
        <time>2022-06-06T10:29:33.000Z</time>
      </trkpt>
      <trkpt lat="49.81675" lon="4.8713">
        <ele>272</ele>
        <time>2022-06-06T10:29:34.000Z</time>
      </trkpt>
      <trkpt lat="49.81673" lon="4.87121">
        <ele>272</ele>
        <time>2022-06-06T10:29:35.000Z</time>
      </trkpt>
      <trkpt lat="49.81672" lon="4.87112">
        <ele>272</ele>
        <time>2022-06-06T10:29:36.000Z</time>
      </trkpt>
      <trkpt lat="49.81671" lon="4.87103">
        <ele>272</ele>
        <time>2022-06-06T10:29:37.000Z</time>
      </trkpt>
      <trkpt lat="49.8167" lon="4.87095">
        <ele>272</ele>
        <time>2022-06-06T10:29:38.000Z</time>
      </trkpt>
      <trkpt lat="49.8167" lon="4.87086">
        <ele>272</ele>
        <time>2022-06-06T10:29:39.000Z</time>
      </trkpt>
      <trkpt lat="49.81669" lon="4.87078">
        <ele>272</ele>
        <time>2022-06-06T10:29:40.000Z</time>
      </trkpt>
      <trkpt lat="49.81668" lon="4.8707">
        <ele>272</ele>
        <time>2022-06-06T10:29:41.000Z</time>
      </trkpt>
      <trkpt lat="49.81668" lon="4.87062">
        <ele>273</ele>
        <time>2022-06-06T10:29:42.000Z</time>
      </trkpt>
      <trkpt lat="49.81667" lon="4.87053">
        <ele>273</ele>
        <time>2022-06-06T10:29:43.000Z</time>
      </trkpt>
      <trkpt lat="49.81666" lon="4.87045">
        <ele>273</ele>
        <time>2022-06-06T10:29:44.000Z</time>
      </trkpt>
      <trkpt lat="49.81665" lon="4.87038">
        <ele>273</ele>
        <time>2022-06-06T10:29:45.000Z</time>
      </trkpt>
      <trkpt lat="49.81664" lon="4.8703">
        <ele>273</ele>
        <time>2022-06-06T10:29:46.000Z</time>
      </trkpt>
      <trkpt lat="49.81663" lon="4.87023">
        <ele>273</ele>
        <time>2022-06-06T10:29:47.000Z</time>
      </trkpt>
      <trkpt lat="49.81662" lon="4.87015">
        <ele>273</ele>
        <time>2022-06-06T10:29:48.000Z</time>
      </trkpt>
      <trkpt lat="49.81661" lon="4.87007">
        <ele>273</ele>
        <time>2022-06-06T10:29:49.000Z</time>
      </trkpt>
      <trkpt lat="49.81661" lon="4.86999">
        <ele>273</ele>
        <time>2022-06-06T10:29:50.000Z</time>
      </trkpt>
      <trkpt lat="49.8166" lon="4.8699">
        <ele>273</ele>
        <time>2022-06-06T10:29:51.000Z</time>
      </trkpt>
      <trkpt lat="49.81659" lon="4.86982">
        <ele>273</ele>
        <time>2022-06-06T10:29:52.000Z</time>
      </trkpt>
      <trkpt lat="49.81658" lon="4.86973">
        <ele>273</ele>
        <time>2022-06-06T10:29:53.000Z</time>
      </trkpt>
      <trkpt lat="49.81657" lon="4.86964">
        <ele>273</ele>
        <time>2022-06-06T10:29:54.000Z</time>
      </trkpt>
      <trkpt lat="49.81655" lon="4.86956">
        <ele>273</ele>
        <time>2022-06-06T10:29:55.000Z</time>
      </trkpt>
      <trkpt lat="49.81654" lon="4.86948">
        <ele>273</ele>
        <time>2022-06-06T10:29:56.000Z</time>
      </trkpt>
      <trkpt lat="49.81653" lon="4.8694">
        <ele>273</ele>
        <time>2022-06-06T10:29:57.000Z</time>
      </trkpt>
      <trkpt lat="49.81653" lon="4.86932">
        <ele>273</ele>
        <time>2022-06-06T10:29:58.000Z</time>
      </trkpt>
      <trkpt lat="49.81652" lon="4.86925">
        <ele>273</ele>
        <time>2022-06-06T10:29:59.000Z</time>
      </trkpt>
      <trkpt lat="49.81651" lon="4.86918">
        <ele>273</ele>
        <time>2022-06-06T10:30:00.000Z</time>
      </trkpt>
      <trkpt lat="49.8165" lon="4.86912">
        <ele>273</ele>
        <time>2022-06-06T10:30:01.000Z</time>
      </trkpt>
      <trkpt lat="49.81649" lon="4.86905">
        <ele>273</ele>
        <time>2022-06-06T10:30:02.000Z</time>
      </trkpt>
      <trkpt lat="49.81648" lon="4.86899">
        <ele>273</ele>
        <time>2022-06-06T10:30:03.000Z</time>
      </trkpt>
      <trkpt lat="49.81649" lon="4.86893">
        <ele>273</ele>
        <time>2022-06-06T10:30:04.000Z</time>
      </trkpt>
      <trkpt lat="49.81649" lon="4.86886">
        <ele>273</ele>
        <time>2022-06-06T10:30:05.000Z</time>
      </trkpt>
      <trkpt lat="49.81649" lon="4.86879">
        <ele>273</ele>
        <time>2022-06-06T10:30:06.000Z</time>
      </trkpt>
      <trkpt lat="49.8165" lon="4.86873">
        <ele>273</ele>
        <time>2022-06-06T10:30:07.000Z</time>
      </trkpt>
      <trkpt lat="49.8165" lon="4.86867">
        <ele>273</ele>
        <time>2022-06-06T10:30:08.000Z</time>
      </trkpt>
      <trkpt lat="49.81651" lon="4.86861">
        <ele>272</ele>
        <time>2022-06-06T10:30:09.000Z</time>
      </trkpt>
      <trkpt lat="49.81651" lon="4.86856">
        <ele>272</ele>
        <time>2022-06-06T10:30:10.000Z</time>
      </trkpt>
      <trkpt lat="49.8165" lon="4.86851">
        <ele>272</ele>
        <time>2022-06-06T10:30:11.000Z</time>
      </trkpt>
      <trkpt lat="49.8165" lon="4.86846">
        <ele>273</ele>
        <time>2022-06-06T10:30:12.000Z</time>
      </trkpt>
      <trkpt lat="49.8165" lon="4.86841">
        <ele>273</ele>
        <time>2022-06-06T10:30:13.000Z</time>
      </trkpt>
      <trkpt lat="49.8165" lon="4.86836">
        <ele>273</ele>
        <time>2022-06-06T10:30:14.000Z</time>
      </trkpt>
      <trkpt lat="49.81648" lon="4.86832">
        <ele>273</ele>
        <time>2022-06-06T10:30:15.000Z</time>
      </trkpt>
      <trkpt lat="49.81647" lon="4.86826">
        <ele>273</ele>
        <time>2022-06-06T10:30:16.000Z</time>
      </trkpt>
      <trkpt lat="49.81645" lon="4.86821">
        <ele>273</ele>
        <time>2022-06-06T10:30:17.000Z</time>
      </trkpt>
      <trkpt lat="49.81643" lon="4.86815">
        <ele>273</ele>
        <time>2022-06-06T10:30:18.000Z</time>
      </trkpt>
      <trkpt lat="49.81641" lon="4.8681">
        <ele>274</ele>
        <time>2022-06-06T10:30:19.000Z</time>
      </trkpt>
      <trkpt lat="49.8164" lon="4.86806">
        <ele>274</ele>
        <time>2022-06-06T10:30:20.000Z</time>
      </trkpt>
      <trkpt lat="49.81639" lon="4.86802">
        <ele>274</ele>
        <time>2022-06-06T10:30:21.000Z</time>
      </trkpt>
      <trkpt lat="49.81638" lon="4.86798">
        <ele>274</ele>
        <time>2022-06-06T10:30:22.000Z</time>
      </trkpt>
      <trkpt lat="49.81637" lon="4.86794">
        <ele>274</ele>
        <time>2022-06-06T10:30:23.000Z</time>
      </trkpt>
      <trkpt lat="49.81635" lon="4.8679">
        <ele>275</ele>
        <time>2022-06-06T10:30:24.000Z</time>
      </trkpt>
      <trkpt lat="49.81631" lon="4.86785">
        <ele>275</ele>
        <time>2022-06-06T10:30:25.000Z</time>
      </trkpt>
      <trkpt lat="49.81628" lon="4.8678">
        <ele>275</ele>
        <time>2022-06-06T10:30:26.000Z</time>
      </trkpt>
      <trkpt lat="49.81625" lon="4.86774">
        <ele>275</ele>
        <time>2022-06-06T10:30:27.000Z</time>
      </trkpt>
      <trkpt lat="49.81621" lon="4.86769">
        <ele>275</ele>
        <time>2022-06-06T10:30:28.000Z</time>
      </trkpt>
      <trkpt lat="49.81619" lon="4.86763">
        <ele>276</ele>
        <time>2022-06-06T10:30:29.000Z</time>
      </trkpt>
      <trkpt lat="49.81616" lon="4.86757">
        <ele>276</ele>
        <time>2022-06-06T10:30:30.000Z</time>
      </trkpt>
      <trkpt lat="49.81613" lon="4.86751">
        <ele>276</ele>
        <time>2022-06-06T10:30:31.000Z</time>
      </trkpt>
      <trkpt lat="49.81609" lon="4.86746">
        <ele>276</ele>
        <time>2022-06-06T10:30:32.000Z</time>
      </trkpt>
      <trkpt lat="49.81607" lon="4.86741">
        <ele>277</ele>
        <time>2022-06-06T10:30:33.000Z</time>
      </trkpt>
      <trkpt lat="49.81604" lon="4.86737">
        <ele>277</ele>
        <time>2022-06-06T10:30:34.000Z</time>
      </trkpt>
      <trkpt lat="49.81601" lon="4.86733">
        <ele>277</ele>
        <time>2022-06-06T10:30:35.000Z</time>
      </trkpt>
      <trkpt lat="49.81598" lon="4.8673">
        <ele>277</ele>
        <time>2022-06-06T10:30:36.000Z</time>
      </trkpt>
      <trkpt lat="49.81596" lon="4.86727">
        <ele>278</ele>
        <time>2022-06-06T10:30:37.000Z</time>
      </trkpt>
      <trkpt lat="49.81594" lon="4.86724">
        <ele>278</ele>
        <time>2022-06-06T10:30:38.000Z</time>
      </trkpt>
      <trkpt lat="49.8159" lon="4.86722">
        <ele>278</ele>
        <time>2022-06-06T10:30:39.000Z</time>
      </trkpt>
      <trkpt lat="49.81586" lon="4.8672">
        <ele>278</ele>
        <time>2022-06-06T10:30:40.000Z</time>
      </trkpt>
      <trkpt lat="49.81583" lon="4.86719">
        <ele>278</ele>
        <time>2022-06-06T10:30:41.000Z</time>
      </trkpt>
      <trkpt lat="49.81578" lon="4.86717">
        <ele>279</ele>
        <time>2022-06-06T10:30:42.000Z</time>
      </trkpt>
      <trkpt lat="49.81573" lon="4.86717">
        <ele>279</ele>
        <time>2022-06-06T10:30:43.000Z</time>
      </trkpt>
      <trkpt lat="49.81569" lon="4.86716">
        <ele>279</ele>
        <time>2022-06-06T10:30:44.000Z</time>
      </trkpt>
      <trkpt lat="49.81565" lon="4.86715">
        <ele>279</ele>
        <time>2022-06-06T10:30:45.000Z</time>
      </trkpt>
      <trkpt lat="49.81561" lon="4.86714">
        <ele>279</ele>
        <time>2022-06-06T10:30:46.000Z</time>
      </trkpt>
      <trkpt lat="49.81557" lon="4.86713">
        <ele>280</ele>
        <time>2022-06-06T10:30:47.000Z</time>
      </trkpt>
      <trkpt lat="49.81553" lon="4.86712">
        <ele>280</ele>
        <time>2022-06-06T10:30:48.000Z</time>
      </trkpt>
      <trkpt lat="49.81549" lon="4.8671">
        <ele>280</ele>
        <time>2022-06-06T10:30:49.000Z</time>
      </trkpt>
      <trkpt lat="49.81544" lon="4.86707">
        <ele>280</ele>
        <time>2022-06-06T10:30:50.000Z</time>
      </trkpt>
      <trkpt lat="49.81539" lon="4.86704">
        <ele>280</ele>
        <time>2022-06-06T10:30:51.000Z</time>
      </trkpt>
      <trkpt lat="49.81533" lon="4.86702">
        <ele>280</ele>
        <time>2022-06-06T10:30:52.000Z</time>
      </trkpt>
      <trkpt lat="49.81526" lon="4.86699">
        <ele>280</ele>
        <time>2022-06-06T10:30:53.000Z</time>
      </trkpt>
      <trkpt lat="49.8152" lon="4.86696">
        <ele>280</ele>
        <time>2022-06-06T10:30:54.000Z</time>
      </trkpt>
      <trkpt lat="49.81514" lon="4.86693">
        <ele>280</ele>
        <time>2022-06-06T10:30:55.000Z</time>
      </trkpt>
      <trkpt lat="49.81508" lon="4.86691">
        <ele>280</ele>
        <time>2022-06-06T10:30:56.000Z</time>
      </trkpt>
      <trkpt lat="49.81502" lon="4.86689">
        <ele>280</ele>
        <time>2022-06-06T10:30:57.000Z</time>
      </trkpt>
      <trkpt lat="49.81496" lon="4.86687">
        <ele>280</ele>
        <time>2022-06-06T10:30:58.000Z</time>
      </trkpt>
      <trkpt lat="49.81491" lon="4.86685">
        <ele>279</ele>
        <time>2022-06-06T10:30:59.000Z</time>
      </trkpt>
      <trkpt lat="49.81486" lon="4.86684">
        <ele>279</ele>
        <time>2022-06-06T10:31:00.000Z</time>
      </trkpt>
      <trkpt lat="49.81481" lon="4.86682">
        <ele>279</ele>
        <time>2022-06-06T10:31:01.000Z</time>
      </trkpt>
      <trkpt lat="49.81477" lon="4.86679">
        <ele>279</ele>
        <time>2022-06-06T10:31:02.000Z</time>
      </trkpt>
      <trkpt lat="49.81472" lon="4.86677">
        <ele>279</ele>
        <time>2022-06-06T10:31:03.000Z</time>
      </trkpt>
      <trkpt lat="49.81468" lon="4.86673">
        <ele>279</ele>
        <time>2022-06-06T10:31:04.000Z</time>
      </trkpt>
      <trkpt lat="49.81463" lon="4.8667">
        <ele>279</ele>
        <time>2022-06-06T10:31:05.000Z</time>
      </trkpt>
      <trkpt lat="49.81458" lon="4.86665">
        <ele>279</ele>
        <time>2022-06-06T10:31:06.000Z</time>
      </trkpt>
      <trkpt lat="49.81454" lon="4.8666">
        <ele>279</ele>
        <time>2022-06-06T10:31:07.000Z</time>
      </trkpt>
      <trkpt lat="49.8145" lon="4.86655">
        <ele>279</ele>
        <time>2022-06-06T10:31:08.000Z</time>
      </trkpt>
      <trkpt lat="49.81446" lon="4.86649">
        <ele>279</ele>
        <time>2022-06-06T10:31:09.000Z</time>
      </trkpt>
      <trkpt lat="49.81443" lon="4.86645">
        <ele>279</ele>
        <time>2022-06-06T10:31:10.000Z</time>
      </trkpt>
      <trkpt lat="49.8144" lon="4.8664">
        <ele>279</ele>
        <time>2022-06-06T10:31:11.000Z</time>
      </trkpt>
      <trkpt lat="49.81438" lon="4.86637">
        <ele>279</ele>
        <time>2022-06-06T10:31:12.000Z</time>
      </trkpt>
      <trkpt lat="49.81435" lon="4.86633">
        <ele>279</ele>
        <time>2022-06-06T10:31:13.000Z</time>
      </trkpt>
      <trkpt lat="49.81433" lon="4.86628">
        <ele>279</ele>
        <time>2022-06-06T10:31:14.000Z</time>
      </trkpt>
      <trkpt lat="49.81431" lon="4.86621">
        <ele>279</ele>
        <time>2022-06-06T10:31:15.000Z</time>
      </trkpt>
      <trkpt lat="49.81429" lon="4.86614">
        <ele>279</ele>
        <time>2022-06-06T10:31:16.000Z</time>
      </trkpt>
      <trkpt lat="49.81427" lon="4.86606">
        <ele>279</ele>
        <time>2022-06-06T10:31:17.000Z</time>
      </trkpt>
      <trkpt lat="49.81426" lon="4.86597">
        <ele>279</ele>
        <time>2022-06-06T10:31:18.000Z</time>
      </trkpt>
      <trkpt lat="49.81424" lon="4.86589">
        <ele>279</ele>
        <time>2022-06-06T10:31:19.000Z</time>
      </trkpt>
      <trkpt lat="49.81421" lon="4.8658">
        <ele>279</ele>
        <time>2022-06-06T10:31:20.000Z</time>
      </trkpt>
      <trkpt lat="49.81418" lon="4.86571">
        <ele>279</ele>
        <time>2022-06-06T10:31:21.000Z</time>
      </trkpt>
      <trkpt lat="49.81415" lon="4.86561">
        <ele>279</ele>
        <time>2022-06-06T10:31:22.000Z</time>
      </trkpt>
      <trkpt lat="49.81414" lon="4.86551">
        <ele>279</ele>
        <time>2022-06-06T10:31:23.000Z</time>
      </trkpt>
      <trkpt lat="49.81412" lon="4.8654">
        <ele>278</ele>
        <time>2022-06-06T10:31:24.000Z</time>
      </trkpt>
      <trkpt lat="49.81411" lon="4.8653">
        <ele>278</ele>
        <time>2022-06-06T10:31:25.000Z</time>
      </trkpt>
      <trkpt lat="49.81409" lon="4.86519">
        <ele>278</ele>
        <time>2022-06-06T10:31:26.000Z</time>
      </trkpt>
      <trkpt lat="49.81407" lon="4.86508">
        <ele>278</ele>
        <time>2022-06-06T10:31:27.000Z</time>
      </trkpt>
      <trkpt lat="49.81406" lon="4.86497">
        <ele>278</ele>
        <time>2022-06-06T10:31:28.000Z</time>
      </trkpt>
      <trkpt lat="49.81404" lon="4.86485">
        <ele>277</ele>
        <time>2022-06-06T10:31:29.000Z</time>
      </trkpt>
      <trkpt lat="49.81403" lon="4.86473">
        <ele>277</ele>
        <time>2022-06-06T10:31:30.000Z</time>
      </trkpt>
      <trkpt lat="49.81401" lon="4.86461">
        <ele>277</ele>
        <time>2022-06-06T10:31:31.000Z</time>
      </trkpt>
      <trkpt lat="49.81399" lon="4.8645">
        <ele>276</ele>
        <time>2022-06-06T10:31:32.000Z</time>
      </trkpt>
      <trkpt lat="49.81398" lon="4.8644">
        <ele>276</ele>
        <time>2022-06-06T10:31:33.000Z</time>
      </trkpt>
      <trkpt lat="49.81396" lon="4.8643">
        <ele>276</ele>
        <time>2022-06-06T10:31:34.000Z</time>
      </trkpt>
      <trkpt lat="49.81394" lon="4.86421">
        <ele>275</ele>
        <time>2022-06-06T10:31:35.000Z</time>
      </trkpt>
      <trkpt lat="49.81393" lon="4.86411">
        <ele>275</ele>
        <time>2022-06-06T10:31:36.000Z</time>
      </trkpt>
      <trkpt lat="49.81391" lon="4.86402">
        <ele>274</ele>
        <time>2022-06-06T10:31:37.000Z</time>
      </trkpt>
      <trkpt lat="49.81389" lon="4.86393">
        <ele>274</ele>
        <time>2022-06-06T10:31:38.000Z</time>
      </trkpt>
      <trkpt lat="49.81387" lon="4.86385">
        <ele>273</ele>
        <time>2022-06-06T10:31:39.000Z</time>
      </trkpt>
      <trkpt lat="49.81386" lon="4.86378">
        <ele>273</ele>
        <time>2022-06-06T10:31:40.000Z</time>
      </trkpt>
      <trkpt lat="49.81385" lon="4.8637">
        <ele>273</ele>
        <time>2022-06-06T10:31:41.000Z</time>
      </trkpt>
      <trkpt lat="49.81383" lon="4.86363">
        <ele>272</ele>
        <time>2022-06-06T10:31:42.000Z</time>
      </trkpt>
      <trkpt lat="49.81382" lon="4.86354">
        <ele>272</ele>
        <time>2022-06-06T10:31:43.000Z</time>
      </trkpt>
      <trkpt lat="49.81381" lon="4.86347">
        <ele>271</ele>
        <time>2022-06-06T10:31:44.000Z</time>
      </trkpt>
      <trkpt lat="49.81379" lon="4.86339">
        <ele>271</ele>
        <time>2022-06-06T10:31:45.000Z</time>
      </trkpt>
      <trkpt lat="49.81379" lon="4.8633">
        <ele>270</ele>
        <time>2022-06-06T10:31:46.000Z</time>
      </trkpt>
      <trkpt lat="49.81378" lon="4.86322">
        <ele>270</ele>
        <time>2022-06-06T10:31:47.000Z</time>
      </trkpt>
      <trkpt lat="49.81377" lon="4.86313">
        <ele>269</ele>
        <time>2022-06-06T10:31:48.000Z</time>
      </trkpt>
      <trkpt lat="49.81376" lon="4.86305">
        <ele>269</ele>
        <time>2022-06-06T10:31:49.000Z</time>
      </trkpt>
      <trkpt lat="49.81375" lon="4.86296">
        <ele>269</ele>
        <time>2022-06-06T10:31:50.000Z</time>
      </trkpt>
      <trkpt lat="49.81374" lon="4.86288">
        <ele>268</ele>
        <time>2022-06-06T10:31:51.000Z</time>
      </trkpt>
      <trkpt lat="49.81373" lon="4.8628">
        <ele>268</ele>
        <time>2022-06-06T10:31:52.000Z</time>
      </trkpt>
      <trkpt lat="49.81372" lon="4.86271">
        <ele>268</ele>
        <time>2022-06-06T10:31:53.000Z</time>
      </trkpt>
      <trkpt lat="49.81371" lon="4.86261">
        <ele>267</ele>
        <time>2022-06-06T10:31:54.000Z</time>
      </trkpt>
      <trkpt lat="49.8137" lon="4.86251">
        <ele>267</ele>
        <time>2022-06-06T10:31:55.000Z</time>
      </trkpt>
      <trkpt lat="49.81369" lon="4.8624">
        <ele>266</ele>
        <time>2022-06-06T10:31:56.000Z</time>
      </trkpt>
      <trkpt lat="49.81368" lon="4.8623">
        <ele>266</ele>
        <time>2022-06-06T10:31:57.000Z</time>
      </trkpt>
      <trkpt lat="49.81367" lon="4.8622">
        <ele>266</ele>
        <time>2022-06-06T10:31:58.000Z</time>
      </trkpt>
      <trkpt lat="49.81366" lon="4.86211">
        <ele>265</ele>
        <time>2022-06-06T10:31:59.000Z</time>
      </trkpt>
      <trkpt lat="49.81366" lon="4.86202">
        <ele>265</ele>
        <time>2022-06-06T10:32:00.000Z</time>
      </trkpt>
      <trkpt lat="49.81365" lon="4.86194">
        <ele>265</ele>
        <time>2022-06-06T10:32:01.000Z</time>
      </trkpt>
      <trkpt lat="49.81363" lon="4.86185">
        <ele>264</ele>
        <time>2022-06-06T10:32:02.000Z</time>
      </trkpt>
      <trkpt lat="49.81362" lon="4.86176">
        <ele>264</ele>
        <time>2022-06-06T10:32:03.000Z</time>
      </trkpt>
      <trkpt lat="49.8136" lon="4.86167">
        <ele>264</ele>
        <time>2022-06-06T10:32:04.000Z</time>
      </trkpt>
      <trkpt lat="49.81358" lon="4.8616">
        <ele>263</ele>
        <time>2022-06-06T10:32:05.000Z</time>
      </trkpt>
      <trkpt lat="49.81356" lon="4.86152">
        <ele>263</ele>
        <time>2022-06-06T10:32:06.000Z</time>
      </trkpt>
      <trkpt lat="49.81355" lon="4.86144">
        <ele>263</ele>
        <time>2022-06-06T10:32:07.000Z</time>
      </trkpt>
      <trkpt lat="49.81353" lon="4.86136">
        <ele>263</ele>
        <time>2022-06-06T10:32:08.000Z</time>
      </trkpt>
      <trkpt lat="49.81352" lon="4.86128">
        <ele>263</ele>
        <time>2022-06-06T10:32:09.000Z</time>
      </trkpt>
      <trkpt lat="49.81351" lon="4.8612">
        <ele>262</ele>
        <time>2022-06-06T10:32:10.000Z</time>
      </trkpt>
      <trkpt lat="49.8135" lon="4.86112">
        <ele>262</ele>
        <time>2022-06-06T10:32:11.000Z</time>
      </trkpt>
      <trkpt lat="49.81349" lon="4.86104">
        <ele>262</ele>
        <time>2022-06-06T10:32:12.000Z</time>
      </trkpt>
      <trkpt lat="49.81348" lon="4.86095">
        <ele>262</ele>
        <time>2022-06-06T10:32:13.000Z</time>
      </trkpt>
      <trkpt lat="49.81348" lon="4.86087">
        <ele>262</ele>
        <time>2022-06-06T10:32:14.000Z</time>
      </trkpt>
      <trkpt lat="49.81349" lon="4.86079">
        <ele>261</ele>
        <time>2022-06-06T10:32:15.000Z</time>
      </trkpt>
      <trkpt lat="49.81349" lon="4.86071">
        <ele>261</ele>
        <time>2022-06-06T10:32:16.000Z</time>
      </trkpt>
      <trkpt lat="49.81349" lon="4.86062">
        <ele>261</ele>
        <time>2022-06-06T10:32:17.000Z</time>
      </trkpt>
      <trkpt lat="49.81349" lon="4.86054">
        <ele>261</ele>
        <time>2022-06-06T10:32:18.000Z</time>
      </trkpt>
      <trkpt lat="49.81349" lon="4.86045">
        <ele>261</ele>
        <time>2022-06-06T10:32:19.000Z</time>
      </trkpt>
      <trkpt lat="49.81349" lon="4.86038">
        <ele>260</ele>
        <time>2022-06-06T10:32:20.000Z</time>
      </trkpt>
      <trkpt lat="49.81349" lon="4.86029">
        <ele>260</ele>
        <time>2022-06-06T10:32:21.000Z</time>
      </trkpt>
      <trkpt lat="49.81349" lon="4.8602">
        <ele>260</ele>
        <time>2022-06-06T10:32:22.000Z</time>
      </trkpt>
      <trkpt lat="49.81349" lon="4.86011">
        <ele>260</ele>
        <time>2022-06-06T10:32:23.000Z</time>
      </trkpt>
      <trkpt lat="49.81349" lon="4.86002">
        <ele>260</ele>
        <time>2022-06-06T10:32:24.000Z</time>
      </trkpt>
      <trkpt lat="49.81349" lon="4.85992">
        <ele>260</ele>
        <time>2022-06-06T10:32:25.000Z</time>
      </trkpt>
      <trkpt lat="49.81349" lon="4.85982">
        <ele>260</ele>
        <time>2022-06-06T10:32:26.000Z</time>
      </trkpt>
      <trkpt lat="49.81349" lon="4.85972">
        <ele>259</ele>
        <time>2022-06-06T10:32:27.000Z</time>
      </trkpt>
      <trkpt lat="49.81349" lon="4.85961">
        <ele>259</ele>
        <time>2022-06-06T10:32:28.000Z</time>
      </trkpt>
      <trkpt lat="49.8135" lon="4.85951">
        <ele>259</ele>
        <time>2022-06-06T10:32:29.000Z</time>
      </trkpt>
      <trkpt lat="49.8135" lon="4.8594">
        <ele>259</ele>
        <time>2022-06-06T10:32:30.000Z</time>
      </trkpt>
      <trkpt lat="49.81351" lon="4.85931">
        <ele>259</ele>
        <time>2022-06-06T10:32:31.000Z</time>
      </trkpt>
      <trkpt lat="49.81351" lon="4.85922">
        <ele>259</ele>
        <time>2022-06-06T10:32:32.000Z</time>
      </trkpt>
      <trkpt lat="49.81351" lon="4.85912">
        <ele>258</ele>
        <time>2022-06-06T10:32:33.000Z</time>
      </trkpt>
      <trkpt lat="49.81352" lon="4.85902">
        <ele>258</ele>
        <time>2022-06-06T10:32:34.000Z</time>
      </trkpt>
      <trkpt lat="49.81354" lon="4.85893">
        <ele>258</ele>
        <time>2022-06-06T10:32:35.000Z</time>
      </trkpt>
      <trkpt lat="49.81355" lon="4.85885">
        <ele>257</ele>
        <time>2022-06-06T10:32:36.000Z</time>
      </trkpt>
      <trkpt lat="49.81357" lon="4.85877">
        <ele>257</ele>
        <time>2022-06-06T10:32:37.000Z</time>
      </trkpt>
      <trkpt lat="49.81359" lon="4.85868">
        <ele>257</ele>
        <time>2022-06-06T10:32:38.000Z</time>
      </trkpt>
      <trkpt lat="49.81361" lon="4.8586">
        <ele>256</ele>
        <time>2022-06-06T10:32:39.000Z</time>
      </trkpt>
      <trkpt lat="49.81364" lon="4.85852">
        <ele>256</ele>
        <time>2022-06-06T10:32:40.000Z</time>
      </trkpt>
      <trkpt lat="49.81366" lon="4.85844">
        <ele>255</ele>
        <time>2022-06-06T10:32:41.000Z</time>
      </trkpt>
      <trkpt lat="49.81369" lon="4.85835">
        <ele>255</ele>
        <time>2022-06-06T10:32:42.000Z</time>
      </trkpt>
      <trkpt lat="49.81372" lon="4.85828">
        <ele>255</ele>
        <time>2022-06-06T10:32:43.000Z</time>
      </trkpt>
      <trkpt lat="49.81374" lon="4.8582">
        <ele>254</ele>
        <time>2022-06-06T10:32:44.000Z</time>
      </trkpt>
      <trkpt lat="49.81376" lon="4.85811">
        <ele>254</ele>
        <time>2022-06-06T10:32:45.000Z</time>
      </trkpt>
      <trkpt lat="49.81378" lon="4.85803">
        <ele>253</ele>
        <time>2022-06-06T10:32:46.000Z</time>
      </trkpt>
      <trkpt lat="49.8138" lon="4.85794">
        <ele>253</ele>
        <time>2022-06-06T10:32:47.000Z</time>
      </trkpt>
      <trkpt lat="49.81382" lon="4.85785">
        <ele>253</ele>
        <time>2022-06-06T10:32:48.000Z</time>
      </trkpt>
      <trkpt lat="49.81384" lon="4.85776">
        <ele>252</ele>
        <time>2022-06-06T10:32:49.000Z</time>
      </trkpt>
      <trkpt lat="49.81385" lon="4.85767">
        <ele>252</ele>
        <time>2022-06-06T10:32:50.000Z</time>
      </trkpt>
      <trkpt lat="49.81387" lon="4.85757">
        <ele>251</ele>
        <time>2022-06-06T10:32:51.000Z</time>
      </trkpt>
      <trkpt lat="49.81389" lon="4.85749">
        <ele>251</ele>
        <time>2022-06-06T10:32:52.000Z</time>
      </trkpt>
      <trkpt lat="49.81391" lon="4.85741">
        <ele>251</ele>
        <time>2022-06-06T10:32:53.000Z</time>
      </trkpt>
      <trkpt lat="49.81392" lon="4.85733">
        <ele>250</ele>
        <time>2022-06-06T10:32:54.000Z</time>
      </trkpt>
      <trkpt lat="49.81393" lon="4.85725">
        <ele>250</ele>
        <time>2022-06-06T10:32:55.000Z</time>
      </trkpt>
      <trkpt lat="49.81395" lon="4.85717">
        <ele>249</ele>
        <time>2022-06-06T10:32:56.000Z</time>
      </trkpt>
      <trkpt lat="49.81396" lon="4.85709">
        <ele>249</ele>
        <time>2022-06-06T10:32:57.000Z</time>
      </trkpt>
      <trkpt lat="49.81398" lon="4.857">
        <ele>249</ele>
        <time>2022-06-06T10:32:58.000Z</time>
      </trkpt>
      <trkpt lat="49.814" lon="4.85691">
        <ele>248</ele>
        <time>2022-06-06T10:32:59.000Z</time>
      </trkpt>
      <trkpt lat="49.81402" lon="4.85684">
        <ele>248</ele>
        <time>2022-06-06T10:33:00.000Z</time>
      </trkpt>
      <trkpt lat="49.81403" lon="4.85677">
        <ele>247</ele>
        <time>2022-06-06T10:33:01.000Z</time>
      </trkpt>
      <trkpt lat="49.81405" lon="4.85669">
        <ele>247</ele>
        <time>2022-06-06T10:33:02.000Z</time>
      </trkpt>
      <trkpt lat="49.81407" lon="4.85662">
        <ele>247</ele>
        <time>2022-06-06T10:33:03.000Z</time>
      </trkpt>
      <trkpt lat="49.81408" lon="4.85654">
        <ele>247</ele>
        <time>2022-06-06T10:33:04.000Z</time>
      </trkpt>
      <trkpt lat="49.8141" lon="4.85645">
        <ele>246</ele>
        <time>2022-06-06T10:33:05.000Z</time>
      </trkpt>
      <trkpt lat="49.81411" lon="4.85637">
        <ele>246</ele>
        <time>2022-06-06T10:33:06.000Z</time>
      </trkpt>
      <trkpt lat="49.81413" lon="4.85629">
        <ele>246</ele>
        <time>2022-06-06T10:33:07.000Z</time>
      </trkpt>
      <trkpt lat="49.81414" lon="4.85621">
        <ele>246</ele>
        <time>2022-06-06T10:33:08.000Z</time>
      </trkpt>
      <trkpt lat="49.81417" lon="4.85612">
        <ele>245</ele>
        <time>2022-06-06T10:33:09.000Z</time>
      </trkpt>
      <trkpt lat="49.81419" lon="4.85603">
        <ele>245</ele>
        <time>2022-06-06T10:33:10.000Z</time>
      </trkpt>
      <trkpt lat="49.8142" lon="4.85594">
        <ele>245</ele>
        <time>2022-06-06T10:33:11.000Z</time>
      </trkpt>
      <trkpt lat="49.81422" lon="4.85584">
        <ele>244</ele>
        <time>2022-06-06T10:33:12.000Z</time>
      </trkpt>
      <trkpt lat="49.81424" lon="4.85574">
        <ele>244</ele>
        <time>2022-06-06T10:33:13.000Z</time>
      </trkpt>
      <trkpt lat="49.81427" lon="4.85565">
        <ele>244</ele>
        <time>2022-06-06T10:33:14.000Z</time>
      </trkpt>
      <trkpt lat="49.81429" lon="4.85556">
        <ele>243</ele>
        <time>2022-06-06T10:33:15.000Z</time>
      </trkpt>
      <trkpt lat="49.81431" lon="4.85548">
        <ele>243</ele>
        <time>2022-06-06T10:33:16.000Z</time>
      </trkpt>
      <trkpt lat="49.81434" lon="4.8554">
        <ele>243</ele>
        <time>2022-06-06T10:33:17.000Z</time>
      </trkpt>
      <trkpt lat="49.81437" lon="4.85532">
        <ele>242</ele>
        <time>2022-06-06T10:33:18.000Z</time>
      </trkpt>
      <trkpt lat="49.81439" lon="4.85525">
        <ele>242</ele>
        <time>2022-06-06T10:33:19.000Z</time>
      </trkpt>
      <trkpt lat="49.81442" lon="4.85519">
        <ele>242</ele>
        <time>2022-06-06T10:33:20.000Z</time>
      </trkpt>
      <trkpt lat="49.81445" lon="4.85512">
        <ele>242</ele>
        <time>2022-06-06T10:33:21.000Z</time>
      </trkpt>
      <trkpt lat="49.81448" lon="4.85507">
        <ele>242</ele>
        <time>2022-06-06T10:33:22.000Z</time>
      </trkpt>
      <trkpt lat="49.81451" lon="4.855">
        <ele>241</ele>
        <time>2022-06-06T10:33:23.000Z</time>
      </trkpt>
      <trkpt lat="49.81455" lon="4.85493">
        <ele>241</ele>
        <time>2022-06-06T10:33:24.000Z</time>
      </trkpt>
      <trkpt lat="49.81458" lon="4.85486">
        <ele>241</ele>
        <time>2022-06-06T10:33:25.000Z</time>
      </trkpt>
      <trkpt lat="49.81462" lon="4.85479">
        <ele>241</ele>
        <time>2022-06-06T10:33:26.000Z</time>
      </trkpt>
      <trkpt lat="49.81465" lon="4.85472">
        <ele>241</ele>
        <time>2022-06-06T10:33:27.000Z</time>
      </trkpt>
      <trkpt lat="49.81469" lon="4.85466">
        <ele>241</ele>
        <time>2022-06-06T10:33:28.000Z</time>
      </trkpt>
      <trkpt lat="49.81473" lon="4.85462">
        <ele>241</ele>
        <time>2022-06-06T10:33:29.000Z</time>
      </trkpt>
      <trkpt lat="49.81477" lon="4.85457">
        <ele>240</ele>
        <time>2022-06-06T10:33:30.000Z</time>
      </trkpt>
      <trkpt lat="49.81482" lon="4.85452">
        <ele>240</ele>
        <time>2022-06-06T10:33:31.000Z</time>
      </trkpt>
      <trkpt lat="49.81487" lon="4.85448">
        <ele>240</ele>
        <time>2022-06-06T10:33:32.000Z</time>
      </trkpt>
      <trkpt lat="49.81492" lon="4.85444">
        <ele>240</ele>
        <time>2022-06-06T10:33:33.000Z</time>
      </trkpt>
      <trkpt lat="49.81498" lon="4.85441">
        <ele>240</ele>
        <time>2022-06-06T10:33:34.000Z</time>
      </trkpt>
      <trkpt lat="49.81502" lon="4.85438">
        <ele>239</ele>
        <time>2022-06-06T10:33:35.000Z</time>
      </trkpt>
      <trkpt lat="49.81507" lon="4.85435">
        <ele>239</ele>
        <time>2022-06-06T10:33:36.000Z</time>
      </trkpt>
      <trkpt lat="49.81512" lon="4.85433">
        <ele>239</ele>
        <time>2022-06-06T10:33:37.000Z</time>
      </trkpt>
      <trkpt lat="49.81517" lon="4.85432">
        <ele>239</ele>
        <time>2022-06-06T10:33:38.000Z</time>
      </trkpt>
      <trkpt lat="49.81522" lon="4.85432">
        <ele>239</ele>
        <time>2022-06-06T10:33:39.000Z</time>
      </trkpt>
      <trkpt lat="49.81527" lon="4.85433">
        <ele>239</ele>
        <time>2022-06-06T10:33:40.000Z</time>
      </trkpt>
      <trkpt lat="49.81532" lon="4.85433">
        <ele>239</ele>
        <time>2022-06-06T10:33:41.000Z</time>
      </trkpt>
      <trkpt lat="49.81535" lon="4.85434">
        <ele>239</ele>
        <time>2022-06-06T10:33:42.000Z</time>
      </trkpt>
      <trkpt lat="49.8154" lon="4.85433">
        <ele>239</ele>
        <time>2022-06-06T10:33:43.000Z</time>
      </trkpt>
      <trkpt lat="49.81544" lon="4.85433">
        <ele>239</ele>
        <time>2022-06-06T10:33:44.000Z</time>
      </trkpt>
      <trkpt lat="49.81549" lon="4.85432">
        <ele>239</ele>
        <time>2022-06-06T10:33:45.000Z</time>
      </trkpt>
      <trkpt lat="49.81552" lon="4.8543">
        <ele>239</ele>
        <time>2022-06-06T10:33:46.000Z</time>
      </trkpt>
      <trkpt lat="49.81555" lon="4.85429">
        <ele>239</ele>
        <time>2022-06-06T10:33:47.000Z</time>
      </trkpt>
      <trkpt lat="49.81559" lon="4.85429">
        <ele>239</ele>
        <time>2022-06-06T10:33:48.000Z</time>
      </trkpt>
      <trkpt lat="49.81563" lon="4.85429">
        <ele>238</ele>
        <time>2022-06-06T10:33:49.000Z</time>
      </trkpt>
      <trkpt lat="49.81567" lon="4.85428">
        <ele>238</ele>
        <time>2022-06-06T10:33:50.000Z</time>
      </trkpt>
      <trkpt lat="49.81572" lon="4.85428">
        <ele>238</ele>
        <time>2022-06-06T10:33:51.000Z</time>
      </trkpt>
      <trkpt lat="49.81576" lon="4.85427">
        <ele>238</ele>
        <time>2022-06-06T10:33:52.000Z</time>
      </trkpt>
      <trkpt lat="49.8158" lon="4.85426">
        <ele>238</ele>
        <time>2022-06-06T10:33:53.000Z</time>
      </trkpt>
      <trkpt lat="49.81585" lon="4.85426">
        <ele>238</ele>
        <time>2022-06-06T10:33:54.000Z</time>
      </trkpt>
      <trkpt lat="49.81589" lon="4.85426">
        <ele>238</ele>
        <time>2022-06-06T10:33:55.000Z</time>
      </trkpt>
      <trkpt lat="49.81593" lon="4.85426">
        <ele>239</ele>
        <time>2022-06-06T10:33:56.000Z</time>
      </trkpt>
      <trkpt lat="49.81598" lon="4.85426">
        <ele>239</ele>
        <time>2022-06-06T10:33:57.000Z</time>
      </trkpt>
      <trkpt lat="49.81603" lon="4.85427">
        <ele>239</ele>
        <time>2022-06-06T10:33:58.000Z</time>
      </trkpt>
      <trkpt lat="49.81608" lon="4.85428">
        <ele>239</ele>
        <time>2022-06-06T10:33:59.000Z</time>
      </trkpt>
      <trkpt lat="49.81613" lon="4.85429">
        <ele>239</ele>
        <time>2022-06-06T10:34:00.000Z</time>
      </trkpt>
      <trkpt lat="49.81619" lon="4.8543">
        <ele>239</ele>
        <time>2022-06-06T10:34:01.000Z</time>
      </trkpt>
      <trkpt lat="49.81624" lon="4.85432">
        <ele>239</ele>
        <time>2022-06-06T10:34:02.000Z</time>
      </trkpt>
      <trkpt lat="49.81628" lon="4.85434">
        <ele>239</ele>
        <time>2022-06-06T10:34:03.000Z</time>
      </trkpt>
      <trkpt lat="49.81633" lon="4.85436">
        <ele>239</ele>
        <time>2022-06-06T10:34:04.000Z</time>
      </trkpt>
      <trkpt lat="49.81637" lon="4.85439">
        <ele>239</ele>
        <time>2022-06-06T10:34:05.000Z</time>
      </trkpt>
      <trkpt lat="49.81641" lon="4.8544">
        <ele>239</ele>
        <time>2022-06-06T10:34:06.000Z</time>
      </trkpt>
      <trkpt lat="49.81645" lon="4.85442">
        <ele>239</ele>
        <time>2022-06-06T10:34:07.000Z</time>
      </trkpt>
      <trkpt lat="49.8165" lon="4.85445">
        <ele>239</ele>
        <time>2022-06-06T10:34:08.000Z</time>
      </trkpt>
      <trkpt lat="49.81655" lon="4.85447">
        <ele>240</ele>
        <time>2022-06-06T10:34:09.000Z</time>
      </trkpt>
      <trkpt lat="49.8166" lon="4.85448">
        <ele>240</ele>
        <time>2022-06-06T10:34:10.000Z</time>
      </trkpt>
      <trkpt lat="49.81665" lon="4.8545">
        <ele>240</ele>
        <time>2022-06-06T10:34:11.000Z</time>
      </trkpt>
      <trkpt lat="49.8167" lon="4.8545">
        <ele>240</ele>
        <time>2022-06-06T10:34:12.000Z</time>
      </trkpt>
      <trkpt lat="49.81674" lon="4.85449">
        <ele>240</ele>
        <time>2022-06-06T10:34:13.000Z</time>
      </trkpt>
      <trkpt lat="49.81679" lon="4.85448">
        <ele>240</ele>
        <time>2022-06-06T10:34:14.000Z</time>
      </trkpt>
      <trkpt lat="49.81682" lon="4.85447">
        <ele>240</ele>
        <time>2022-06-06T10:34:15.000Z</time>
      </trkpt>
      <trkpt lat="49.81684" lon="4.85445">
        <ele>240</ele>
        <time>2022-06-06T10:34:16.000Z</time>
      </trkpt>
      <trkpt lat="49.81686" lon="4.85443">
        <ele>240</ele>
        <time>2022-06-06T10:34:17.000Z</time>
      </trkpt>
      <trkpt lat="49.81687" lon="4.8544">
        <ele>240</ele>
        <time>2022-06-06T10:34:18.000Z</time>
      </trkpt>
      <trkpt lat="49.81687" lon="4.85436">
        <ele>239</ele>
        <time>2022-06-06T10:34:19.000Z</time>
      </trkpt>
      <trkpt lat="49.81686" lon="4.85432">
        <ele>239</ele>
        <time>2022-06-06T10:34:20.000Z</time>
      </trkpt>
      <trkpt lat="49.81685" lon="4.85427">
        <ele>239</ele>
        <time>2022-06-06T10:34:21.000Z</time>
      </trkpt>
      <trkpt lat="49.81684" lon="4.8542">
        <ele>239</ele>
        <time>2022-06-06T10:34:22.000Z</time>
      </trkpt>
      <trkpt lat="49.81682" lon="4.85413">
        <ele>239</ele>
        <time>2022-06-06T10:34:23.000Z</time>
      </trkpt>
      <trkpt lat="49.8168" lon="4.85405">
        <ele>239</ele>
        <time>2022-06-06T10:34:24.000Z</time>
      </trkpt>
      <trkpt lat="49.81678" lon="4.85396">
        <ele>239</ele>
        <time>2022-06-06T10:34:25.000Z</time>
      </trkpt>
      <trkpt lat="49.81676" lon="4.85386">
        <ele>238</ele>
        <time>2022-06-06T10:34:26.000Z</time>
      </trkpt>
      <trkpt lat="49.81672" lon="4.85377">
        <ele>238</ele>
        <time>2022-06-06T10:34:27.000Z</time>
      </trkpt>
      <trkpt lat="49.81669" lon="4.85366">
        <ele>238</ele>
        <time>2022-06-06T10:34:28.000Z</time>
      </trkpt>
      <trkpt lat="49.81666" lon="4.85355">
        <ele>238</ele>
        <time>2022-06-06T10:34:29.000Z</time>
      </trkpt>
      <trkpt lat="49.81662" lon="4.85344">
        <ele>237</ele>
        <time>2022-06-06T10:34:30.000Z</time>
      </trkpt>
      <trkpt lat="49.81658" lon="4.85332">
        <ele>237</ele>
        <time>2022-06-06T10:34:31.000Z</time>
      </trkpt>
      <trkpt lat="49.81655" lon="4.85321">
        <ele>237</ele>
        <time>2022-06-06T10:34:32.000Z</time>
      </trkpt>
      <trkpt lat="49.81652" lon="4.8531">
        <ele>236</ele>
        <time>2022-06-06T10:34:33.000Z</time>
      </trkpt>
      <trkpt lat="49.81648" lon="4.85298">
        <ele>236</ele>
        <time>2022-06-06T10:34:34.000Z</time>
      </trkpt>
      <trkpt lat="49.81644" lon="4.85287">
        <ele>235</ele>
        <time>2022-06-06T10:34:35.000Z</time>
      </trkpt>
      <trkpt lat="49.8164" lon="4.85276">
        <ele>234</ele>
        <time>2022-06-06T10:34:36.000Z</time>
      </trkpt>
      <trkpt lat="49.81636" lon="4.85264">
        <ele>234</ele>
        <time>2022-06-06T10:34:37.000Z</time>
      </trkpt>
      <trkpt lat="49.81633" lon="4.85252">
        <ele>233</ele>
        <time>2022-06-06T10:34:38.000Z</time>
      </trkpt>
      <trkpt lat="49.81629" lon="4.8524">
        <ele>232</ele>
        <time>2022-06-06T10:34:39.000Z</time>
      </trkpt>
      <trkpt lat="49.81625" lon="4.85228">
        <ele>232</ele>
        <time>2022-06-06T10:34:40.000Z</time>
      </trkpt>
      <trkpt lat="49.81621" lon="4.85216">
        <ele>231</ele>
        <time>2022-06-06T10:34:41.000Z</time>
      </trkpt>
      <trkpt lat="49.81617" lon="4.85204">
        <ele>230</ele>
        <time>2022-06-06T10:34:42.000Z</time>
      </trkpt>
      <trkpt lat="49.81613" lon="4.85192">
        <ele>230</ele>
        <time>2022-06-06T10:34:43.000Z</time>
      </trkpt>
      <trkpt lat="49.81609" lon="4.8518">
        <ele>229</ele>
        <time>2022-06-06T10:34:44.000Z</time>
      </trkpt>
      <trkpt lat="49.81605" lon="4.85168">
        <ele>229</ele>
        <time>2022-06-06T10:34:45.000Z</time>
      </trkpt>
      <trkpt lat="49.816" lon="4.85156">
        <ele>228</ele>
        <time>2022-06-06T10:34:46.000Z</time>
      </trkpt>
      <trkpt lat="49.81596" lon="4.85145">
        <ele>227</ele>
        <time>2022-06-06T10:34:47.000Z</time>
      </trkpt>
      <trkpt lat="49.81591" lon="4.85134">
        <ele>227</ele>
        <time>2022-06-06T10:34:48.000Z</time>
      </trkpt>
      <trkpt lat="49.81587" lon="4.85124">
        <ele>226</ele>
        <time>2022-06-06T10:34:49.000Z</time>
      </trkpt>
      <trkpt lat="49.81583" lon="4.85114">
        <ele>226</ele>
        <time>2022-06-06T10:34:50.000Z</time>
      </trkpt>
      <trkpt lat="49.81578" lon="4.85104">
        <ele>226</ele>
        <time>2022-06-06T10:34:51.000Z</time>
      </trkpt>
      <trkpt lat="49.81574" lon="4.85096">
        <ele>225</ele>
        <time>2022-06-06T10:34:52.000Z</time>
      </trkpt>
      <trkpt lat="49.8157" lon="4.85087">
        <ele>225</ele>
        <time>2022-06-06T10:34:53.000Z</time>
      </trkpt>
      <trkpt lat="49.81566" lon="4.85078">
        <ele>224</ele>
        <time>2022-06-06T10:34:54.000Z</time>
      </trkpt>
      <trkpt lat="49.81563" lon="4.85069">
        <ele>224</ele>
        <time>2022-06-06T10:34:55.000Z</time>
      </trkpt>
      <trkpt lat="49.8156" lon="4.8506">
        <ele>224</ele>
        <time>2022-06-06T10:34:56.000Z</time>
      </trkpt>
      <trkpt lat="49.81559" lon="4.8505">
        <ele>224</ele>
        <time>2022-06-06T10:34:57.000Z</time>
      </trkpt>
      <trkpt lat="49.81559" lon="4.85041">
        <ele>223</ele>
        <time>2022-06-06T10:34:58.000Z</time>
      </trkpt>
      <trkpt lat="49.81559" lon="4.85032">
        <ele>223</ele>
        <time>2022-06-06T10:34:59.000Z</time>
      </trkpt>
      <trkpt lat="49.81559" lon="4.85024">
        <ele>223</ele>
        <time>2022-06-06T10:35:00.000Z</time>
      </trkpt>
      <trkpt lat="49.81559" lon="4.85018">
        <ele>223</ele>
        <time>2022-06-06T10:35:01.000Z</time>
      </trkpt>
      <trkpt lat="49.81559" lon="4.85011">
        <ele>223</ele>
        <time>2022-06-06T10:35:02.000Z</time>
      </trkpt>
      <trkpt lat="49.8156" lon="4.85005">
        <ele>223</ele>
        <time>2022-06-06T10:35:03.000Z</time>
      </trkpt>
      <trkpt lat="49.81559" lon="4.84998">
        <ele>223</ele>
        <time>2022-06-06T10:35:04.000Z</time>
      </trkpt>
      <trkpt lat="49.81558" lon="4.84992">
        <ele>223</ele>
        <time>2022-06-06T10:35:05.000Z</time>
      </trkpt>
      <trkpt lat="49.81555" lon="4.84988">
        <ele>223</ele>
        <time>2022-06-06T10:35:06.000Z</time>
      </trkpt>
      <trkpt lat="49.81553" lon="4.84986">
        <ele>223</ele>
        <time>2022-06-06T10:35:07.000Z</time>
      </trkpt>
      <trkpt lat="49.81551" lon="4.84987">
        <ele>223</ele>
        <time>2022-06-06T10:35:08.000Z</time>
      </trkpt>
      <trkpt lat="49.81549" lon="4.84989">
        <ele>223</ele>
        <time>2022-06-06T10:35:09.000Z</time>
      </trkpt>
      <trkpt lat="49.81546" lon="4.84992">
        <ele>223</ele>
        <time>2022-06-06T10:35:10.000Z</time>
      </trkpt>
      <trkpt lat="49.81544" lon="4.84994">
        <ele>223</ele>
        <time>2022-06-06T10:35:11.000Z</time>
      </trkpt>
      <trkpt lat="49.81541" lon="4.84995">
        <ele>223</ele>
        <time>2022-06-06T10:35:12.000Z</time>
      </trkpt>
      <trkpt lat="49.81537" lon="4.84994">
        <ele>223</ele>
        <time>2022-06-06T10:35:13.000Z</time>
      </trkpt>
      <trkpt lat="49.81534" lon="4.84992">
        <ele>223</ele>
        <time>2022-06-06T10:35:14.000Z</time>
      </trkpt>
      <trkpt lat="49.81531" lon="4.84989">
        <ele>223</ele>
        <time>2022-06-06T10:35:15.000Z</time>
      </trkpt>
      <trkpt lat="49.81529" lon="4.84984">
        <ele>223</ele>
        <time>2022-06-06T10:35:16.000Z</time>
      </trkpt>
      <trkpt lat="49.81528" lon="4.8498">
        <ele>224</ele>
        <time>2022-06-06T10:35:17.000Z</time>
      </trkpt>
      <trkpt lat="49.81527" lon="4.84975">
        <ele>224</ele>
        <time>2022-06-06T10:35:18.000Z</time>
      </trkpt>
      <trkpt lat="49.81528" lon="4.8497">
        <ele>224</ele>
        <time>2022-06-06T10:35:19.000Z</time>
      </trkpt>
      <trkpt lat="49.81529" lon="4.84965">
        <ele>224</ele>
        <time>2022-06-06T10:35:20.000Z</time>
      </trkpt>
      <trkpt lat="49.81531" lon="4.8496">
        <ele>224</ele>
        <time>2022-06-06T10:35:21.000Z</time>
      </trkpt>
      <trkpt lat="49.81534" lon="4.84953">
        <ele>224</ele>
        <time>2022-06-06T10:35:22.000Z</time>
      </trkpt>
      <trkpt lat="49.81536" lon="4.84947">
        <ele>224</ele>
        <time>2022-06-06T10:35:23.000Z</time>
      </trkpt>
      <trkpt lat="49.81538" lon="4.8494">
        <ele>224</ele>
        <time>2022-06-06T10:35:24.000Z</time>
      </trkpt>
      <trkpt lat="49.81539" lon="4.84933">
        <ele>224</ele>
        <time>2022-06-06T10:35:25.000Z</time>
      </trkpt>
      <trkpt lat="49.81541" lon="4.84926">
        <ele>224</ele>
        <time>2022-06-06T10:35:26.000Z</time>
      </trkpt>
      <trkpt lat="49.81541" lon="4.84919">
        <ele>224</ele>
        <time>2022-06-06T10:35:27.000Z</time>
      </trkpt>
      <trkpt lat="49.81542" lon="4.84912">
        <ele>224</ele>
        <time>2022-06-06T10:35:28.000Z</time>
      </trkpt>
      <trkpt lat="49.81542" lon="4.84905">
        <ele>224</ele>
        <time>2022-06-06T10:35:29.000Z</time>
      </trkpt>
      <trkpt lat="49.81542" lon="4.84898">
        <ele>224</ele>
        <time>2022-06-06T10:35:30.000Z</time>
      </trkpt>
      <trkpt lat="49.81541" lon="4.84892">
        <ele>223</ele>
        <time>2022-06-06T10:35:31.000Z</time>
      </trkpt>
      <trkpt lat="49.8154" lon="4.84886">
        <ele>224</ele>
        <time>2022-06-06T10:35:32.000Z</time>
      </trkpt>
      <trkpt lat="49.81539" lon="4.84879">
        <ele>224</ele>
        <time>2022-06-06T10:35:33.000Z</time>
      </trkpt>
      <trkpt lat="49.81538" lon="4.84873">
        <ele>224</ele>
        <time>2022-06-06T10:35:34.000Z</time>
      </trkpt>
      <trkpt lat="49.81536" lon="4.84867">
        <ele>224</ele>
        <time>2022-06-06T10:35:35.000Z</time>
      </trkpt>
      <trkpt lat="49.81535" lon="4.8486">
        <ele>224</ele>
        <time>2022-06-06T10:35:36.000Z</time>
      </trkpt>
      <trkpt lat="49.81534" lon="4.84854">
        <ele>224</ele>
        <time>2022-06-06T10:35:37.000Z</time>
      </trkpt>
      <trkpt lat="49.81533" lon="4.84847">
        <ele>224</ele>
        <time>2022-06-06T10:35:38.000Z</time>
      </trkpt>
      <trkpt lat="49.81531" lon="4.8484">
        <ele>224</ele>
        <time>2022-06-06T10:35:39.000Z</time>
      </trkpt>
      <trkpt lat="49.81529" lon="4.84832">
        <ele>224</ele>
        <time>2022-06-06T10:35:40.000Z</time>
      </trkpt>
      <trkpt lat="49.81528" lon="4.84825">
        <ele>224</ele>
        <time>2022-06-06T10:35:41.000Z</time>
      </trkpt>
      <trkpt lat="49.81526" lon="4.84816">
        <ele>224</ele>
        <time>2022-06-06T10:35:42.000Z</time>
      </trkpt>
      <trkpt lat="49.81525" lon="4.84808">
        <ele>224</ele>
        <time>2022-06-06T10:35:43.000Z</time>
      </trkpt>
      <trkpt lat="49.81523" lon="4.848">
        <ele>224</ele>
        <time>2022-06-06T10:35:44.000Z</time>
      </trkpt>
      <trkpt lat="49.81521" lon="4.84792">
        <ele>224</ele>
        <time>2022-06-06T10:35:45.000Z</time>
      </trkpt>
      <trkpt lat="49.81519" lon="4.84784">
        <ele>224</ele>
        <time>2022-06-06T10:35:46.000Z</time>
      </trkpt>
      <trkpt lat="49.81517" lon="4.84776">
        <ele>224</ele>
        <time>2022-06-06T10:35:47.000Z</time>
      </trkpt>
      <trkpt lat="49.81515" lon="4.84768">
        <ele>224</ele>
        <time>2022-06-06T10:35:48.000Z</time>
      </trkpt>
      <trkpt lat="49.81513" lon="4.8476">
        <ele>224</ele>
        <time>2022-06-06T10:35:49.000Z</time>
      </trkpt>
      <trkpt lat="49.81511" lon="4.84751">
        <ele>224</ele>
        <time>2022-06-06T10:35:50.000Z</time>
      </trkpt>
      <trkpt lat="49.81509" lon="4.84743">
        <ele>224</ele>
        <time>2022-06-06T10:35:51.000Z</time>
      </trkpt>
      <trkpt lat="49.81507" lon="4.84734">
        <ele>224</ele>
        <time>2022-06-06T10:35:52.000Z</time>
      </trkpt>
      <trkpt lat="49.81505" lon="4.84726">
        <ele>224</ele>
        <time>2022-06-06T10:35:53.000Z</time>
      </trkpt>
      <trkpt lat="49.81503" lon="4.84717">
        <ele>224</ele>
        <time>2022-06-06T10:35:54.000Z</time>
      </trkpt>
      <trkpt lat="49.81502" lon="4.84709">
        <ele>224</ele>
        <time>2022-06-06T10:35:55.000Z</time>
      </trkpt>
      <trkpt lat="49.81502" lon="4.847">
        <ele>224</ele>
        <time>2022-06-06T10:35:56.000Z</time>
      </trkpt>
      <trkpt lat="49.81501" lon="4.84691">
        <ele>224</ele>
        <time>2022-06-06T10:35:57.000Z</time>
      </trkpt>
      <trkpt lat="49.815" lon="4.84683">
        <ele>224</ele>
        <time>2022-06-06T10:35:58.000Z</time>
      </trkpt>
      <trkpt lat="49.81499" lon="4.84675">
        <ele>224</ele>
        <time>2022-06-06T10:35:59.000Z</time>
      </trkpt>
      <trkpt lat="49.81497" lon="4.84667">
        <ele>224</ele>
        <time>2022-06-06T10:36:00.000Z</time>
      </trkpt>
      <trkpt lat="49.81495" lon="4.84661">
        <ele>224</ele>
        <time>2022-06-06T10:36:01.000Z</time>
      </trkpt>
      <trkpt lat="49.81493" lon="4.84657">
        <ele>224</ele>
        <time>2022-06-06T10:36:02.000Z</time>
      </trkpt>
      <trkpt lat="49.81492" lon="4.84654">
        <ele>224</ele>
        <time>2022-06-06T10:36:03.000Z</time>
      </trkpt>
      <trkpt lat="49.8149" lon="4.84651">
        <ele>223</ele>
        <time>2022-06-06T10:36:04.000Z</time>
      </trkpt>
      <trkpt lat="49.81487" lon="4.84647">
        <ele>223</ele>
        <time>2022-06-06T10:36:05.000Z</time>
      </trkpt>
      <trkpt lat="49.81483" lon="4.84644">
        <ele>223</ele>
        <time>2022-06-06T10:36:06.000Z</time>
      </trkpt>
      <trkpt lat="49.81479" lon="4.84641">
        <ele>223</ele>
        <time>2022-06-06T10:36:07.000Z</time>
      </trkpt>
      <trkpt lat="49.81474" lon="4.84638">
        <ele>223</ele>
        <time>2022-06-06T10:36:08.000Z</time>
      </trkpt>
      <trkpt lat="49.8147" lon="4.84636">
        <ele>223</ele>
        <time>2022-06-06T10:36:09.000Z</time>
      </trkpt>
      <trkpt lat="49.81467" lon="4.84633">
        <ele>223</ele>
        <time>2022-06-06T10:36:10.000Z</time>
      </trkpt>
      <trkpt lat="49.81464" lon="4.84628">
        <ele>223</ele>
        <time>2022-06-06T10:36:11.000Z</time>
      </trkpt>
      <trkpt lat="49.81462" lon="4.84622">
        <ele>223</ele>
        <time>2022-06-06T10:36:12.000Z</time>
      </trkpt>
      <trkpt lat="49.8146" lon="4.84614">
        <ele>223</ele>
        <time>2022-06-06T10:36:13.000Z</time>
      </trkpt>
      <trkpt lat="49.8146" lon="4.84605">
        <ele>223</ele>
        <time>2022-06-06T10:36:14.000Z</time>
      </trkpt>
      <trkpt lat="49.8146" lon="4.84596">
        <ele>223</ele>
        <time>2022-06-06T10:36:15.000Z</time>
      </trkpt>
      <trkpt lat="49.81459" lon="4.84587">
        <ele>223</ele>
        <time>2022-06-06T10:36:16.000Z</time>
      </trkpt>
      <trkpt lat="49.81459" lon="4.84577">
        <ele>223</ele>
        <time>2022-06-06T10:36:17.000Z</time>
      </trkpt>
      <trkpt lat="49.8146" lon="4.84568">
        <ele>223</ele>
        <time>2022-06-06T10:36:18.000Z</time>
      </trkpt>
      <trkpt lat="49.81461" lon="4.84559">
        <ele>223</ele>
        <time>2022-06-06T10:36:19.000Z</time>
      </trkpt>
      <trkpt lat="49.81461" lon="4.84549">
        <ele>222</ele>
        <time>2022-06-06T10:36:20.000Z</time>
      </trkpt>
      <trkpt lat="49.8146" lon="4.84537">
        <ele>222</ele>
        <time>2022-06-06T10:36:21.000Z</time>
      </trkpt>
      <trkpt lat="49.8146" lon="4.84525">
        <ele>222</ele>
        <time>2022-06-06T10:36:22.000Z</time>
      </trkpt>
      <trkpt lat="49.8146" lon="4.84512">
        <ele>221</ele>
        <time>2022-06-06T10:36:23.000Z</time>
      </trkpt>
      <trkpt lat="49.81459" lon="4.845">
        <ele>221</ele>
        <time>2022-06-06T10:36:24.000Z</time>
      </trkpt>
      <trkpt lat="49.81459" lon="4.84488">
        <ele>220</ele>
        <time>2022-06-06T10:36:25.000Z</time>
      </trkpt>
      <trkpt lat="49.81459" lon="4.84475">
        <ele>220</ele>
        <time>2022-06-06T10:36:26.000Z</time>
      </trkpt>
      <trkpt lat="49.8146" lon="4.84464">
        <ele>219</ele>
        <time>2022-06-06T10:36:27.000Z</time>
      </trkpt>
      <trkpt lat="49.8146" lon="4.84453">
        <ele>219</ele>
        <time>2022-06-06T10:36:28.000Z</time>
      </trkpt>
      <trkpt lat="49.81459" lon="4.84443">
        <ele>219</ele>
        <time>2022-06-06T10:36:29.000Z</time>
      </trkpt>
      <trkpt lat="49.8146" lon="4.84435">
        <ele>218</ele>
        <time>2022-06-06T10:36:30.000Z</time>
      </trkpt>
      <trkpt lat="49.81461" lon="4.84429">
        <ele>218</ele>
        <time>2022-06-06T10:36:31.000Z</time>
      </trkpt>
      <trkpt lat="49.81464" lon="4.84424">
        <ele>218</ele>
        <time>2022-06-06T10:36:32.000Z</time>
      </trkpt>
      <trkpt lat="49.81467" lon="4.8442">
        <ele>217</ele>
        <time>2022-06-06T10:36:33.000Z</time>
      </trkpt>
      <trkpt lat="49.81469" lon="4.84415">
        <ele>217</ele>
        <time>2022-06-06T10:36:34.000Z</time>
      </trkpt>
      <trkpt lat="49.81471" lon="4.84408">
        <ele>217</ele>
        <time>2022-06-06T10:36:35.000Z</time>
      </trkpt>
      <trkpt lat="49.81471" lon="4.84401">
        <ele>217</ele>
        <time>2022-06-06T10:36:36.000Z</time>
      </trkpt>
      <trkpt lat="49.81471" lon="4.84393">
        <ele>217</ele>
        <time>2022-06-06T10:36:37.000Z</time>
      </trkpt>
      <trkpt lat="49.81471" lon="4.84385">
        <ele>216</ele>
        <time>2022-06-06T10:36:38.000Z</time>
      </trkpt>
      <trkpt lat="49.81471" lon="4.84377">
        <ele>216</ele>
        <time>2022-06-06T10:36:39.000Z</time>
      </trkpt>
      <trkpt lat="49.81471" lon="4.84368">
        <ele>216</ele>
        <time>2022-06-06T10:36:40.000Z</time>
      </trkpt>
      <trkpt lat="49.81472" lon="4.8436">
        <ele>216</ele>
        <time>2022-06-06T10:36:41.000Z</time>
      </trkpt>
      <trkpt lat="49.81474" lon="4.84352">
        <ele>216</ele>
        <time>2022-06-06T10:36:42.000Z</time>
      </trkpt>
      <trkpt lat="49.81476" lon="4.84343">
        <ele>216</ele>
        <time>2022-06-06T10:36:43.000Z</time>
      </trkpt>
      <trkpt lat="49.81478" lon="4.84335">
        <ele>216</ele>
        <time>2022-06-06T10:36:44.000Z</time>
      </trkpt>
      <trkpt lat="49.8148" lon="4.84327">
        <ele>216</ele>
        <time>2022-06-06T10:36:45.000Z</time>
      </trkpt>
      <trkpt lat="49.81483" lon="4.84319">
        <ele>217</ele>
        <time>2022-06-06T10:36:46.000Z</time>
      </trkpt>
      <trkpt lat="49.81485" lon="4.84311">
        <ele>217</ele>
        <time>2022-06-06T10:36:47.000Z</time>
      </trkpt>
      <trkpt lat="49.81488" lon="4.84303">
        <ele>217</ele>
        <time>2022-06-06T10:36:48.000Z</time>
      </trkpt>
      <trkpt lat="49.8149" lon="4.84295">
        <ele>217</ele>
        <time>2022-06-06T10:36:49.000Z</time>
      </trkpt>
      <trkpt lat="49.81492" lon="4.84286">
        <ele>217</ele>
        <time>2022-06-06T10:36:50.000Z</time>
      </trkpt>
      <trkpt lat="49.81494" lon="4.84278">
        <ele>217</ele>
        <time>2022-06-06T10:36:51.000Z</time>
      </trkpt>
      <trkpt lat="49.81495" lon="4.8427">
        <ele>217</ele>
        <time>2022-06-06T10:36:52.000Z</time>
      </trkpt>
      <trkpt lat="49.81495" lon="4.84262">
        <ele>217</ele>
        <time>2022-06-06T10:36:53.000Z</time>
      </trkpt>
      <trkpt lat="49.81494" lon="4.84254">
        <ele>217</ele>
        <time>2022-06-06T10:36:54.000Z</time>
      </trkpt>
      <trkpt lat="49.81494" lon="4.84247">
        <ele>217</ele>
        <time>2022-06-06T10:36:55.000Z</time>
      </trkpt>
      <trkpt lat="49.81493" lon="4.84241">
        <ele>217</ele>
        <time>2022-06-06T10:36:56.000Z</time>
      </trkpt>
      <trkpt lat="49.81492" lon="4.84235">
        <ele>217</ele>
        <time>2022-06-06T10:36:57.000Z</time>
      </trkpt>
      <trkpt lat="49.81491" lon="4.8423">
        <ele>217</ele>
        <time>2022-06-06T10:36:58.000Z</time>
      </trkpt>
      <trkpt lat="49.81489" lon="4.84225">
        <ele>217</ele>
        <time>2022-06-06T10:36:59.000Z</time>
      </trkpt>
      <trkpt lat="49.81488" lon="4.84222">
        <ele>217</ele>
        <time>2022-06-06T10:37:00.000Z</time>
      </trkpt>
      <trkpt lat="49.81488" lon="4.84218">
        <ele>217</ele>
        <time>2022-06-06T10:37:01.000Z</time>
      </trkpt>
      <trkpt lat="49.81488" lon="4.84213">
        <ele>217</ele>
        <time>2022-06-06T10:37:02.000Z</time>
      </trkpt>
      <trkpt lat="49.8149" lon="4.84208">
        <ele>217</ele>
        <time>2022-06-06T10:37:03.000Z</time>
      </trkpt>
      <trkpt lat="49.81492" lon="4.84201">
        <ele>217</ele>
        <time>2022-06-06T10:37:04.000Z</time>
      </trkpt>
      <trkpt lat="49.81493" lon="4.84196">
        <ele>217</ele>
        <time>2022-06-06T10:37:05.000Z</time>
      </trkpt>
      <trkpt lat="49.81495" lon="4.8419">
        <ele>217</ele>
        <time>2022-06-06T10:37:06.000Z</time>
      </trkpt>
      <trkpt lat="49.81496" lon="4.84184">
        <ele>217</ele>
        <time>2022-06-06T10:37:07.000Z</time>
      </trkpt>
      <trkpt lat="49.81498" lon="4.84176">
        <ele>217</ele>
        <time>2022-06-06T10:37:08.000Z</time>
      </trkpt>
      <trkpt lat="49.815" lon="4.84168">
        <ele>217</ele>
        <time>2022-06-06T10:37:09.000Z</time>
      </trkpt>
      <trkpt lat="49.81501" lon="4.8416">
        <ele>217</ele>
        <time>2022-06-06T10:37:10.000Z</time>
      </trkpt>
      <trkpt lat="49.81502" lon="4.84151">
        <ele>217</ele>
        <time>2022-06-06T10:37:11.000Z</time>
      </trkpt>
      <trkpt lat="49.81503" lon="4.84142">
        <ele>216</ele>
        <time>2022-06-06T10:37:12.000Z</time>
      </trkpt>
      <trkpt lat="49.81504" lon="4.84132">
        <ele>216</ele>
        <time>2022-06-06T10:37:13.000Z</time>
      </trkpt>
      <trkpt lat="49.81504" lon="4.84123">
        <ele>216</ele>
        <time>2022-06-06T10:37:14.000Z</time>
      </trkpt>
      <trkpt lat="49.81504" lon="4.84113">
        <ele>216</ele>
        <time>2022-06-06T10:37:15.000Z</time>
      </trkpt>
      <trkpt lat="49.81504" lon="4.84104">
        <ele>216</ele>
        <time>2022-06-06T10:37:16.000Z</time>
      </trkpt>
      <trkpt lat="49.81503" lon="4.84095">
        <ele>216</ele>
        <time>2022-06-06T10:37:17.000Z</time>
      </trkpt>
      <trkpt lat="49.81503" lon="4.84086">
        <ele>216</ele>
        <time>2022-06-06T10:37:18.000Z</time>
      </trkpt>
      <trkpt lat="49.81501" lon="4.84077">
        <ele>216</ele>
        <time>2022-06-06T10:37:19.000Z</time>
      </trkpt>
      <trkpt lat="49.815" lon="4.84067">
        <ele>216</ele>
        <time>2022-06-06T10:37:20.000Z</time>
      </trkpt>
      <trkpt lat="49.81498" lon="4.84058">
        <ele>216</ele>
        <time>2022-06-06T10:37:21.000Z</time>
      </trkpt>
      <trkpt lat="49.81497" lon="4.84049">
        <ele>216</ele>
        <time>2022-06-06T10:37:22.000Z</time>
      </trkpt>
      <trkpt lat="49.81496" lon="4.84041">
        <ele>216</ele>
        <time>2022-06-06T10:37:23.000Z</time>
      </trkpt>
      <trkpt lat="49.81495" lon="4.84034">
        <ele>216</ele>
        <time>2022-06-06T10:37:24.000Z</time>
      </trkpt>
      <trkpt lat="49.81494" lon="4.84027">
        <ele>216</ele>
        <time>2022-06-06T10:37:25.000Z</time>
      </trkpt>
      <trkpt lat="49.81493" lon="4.84019">
        <ele>216</ele>
        <time>2022-06-06T10:37:26.000Z</time>
      </trkpt>
      <trkpt lat="49.81491" lon="4.8401">
        <ele>216</ele>
        <time>2022-06-06T10:37:27.000Z</time>
      </trkpt>
      <trkpt lat="49.8149" lon="4.84001">
        <ele>216</ele>
        <time>2022-06-06T10:37:28.000Z</time>
      </trkpt>
      <trkpt lat="49.81489" lon="4.83993">
        <ele>216</ele>
        <time>2022-06-06T10:37:29.000Z</time>
      </trkpt>
      <trkpt lat="49.81488" lon="4.83986">
        <ele>216</ele>
        <time>2022-06-06T10:37:30.000Z</time>
      </trkpt>
      <trkpt lat="49.81486" lon="4.83979">
        <ele>216</ele>
        <time>2022-06-06T10:37:31.000Z</time>
      </trkpt>
      <trkpt lat="49.81485" lon="4.8397">
        <ele>216</ele>
        <time>2022-06-06T10:37:32.000Z</time>
      </trkpt>
      <trkpt lat="49.81484" lon="4.83961">
        <ele>215</ele>
        <time>2022-06-06T10:37:33.000Z</time>
      </trkpt>
      <trkpt lat="49.81482" lon="4.83952">
        <ele>215</ele>
        <time>2022-06-06T10:37:34.000Z</time>
      </trkpt>
      <trkpt lat="49.81479" lon="4.83943">
        <ele>215</ele>
        <time>2022-06-06T10:37:35.000Z</time>
      </trkpt>
      <trkpt lat="49.81477" lon="4.83934">
        <ele>215</ele>
        <time>2022-06-06T10:37:36.000Z</time>
      </trkpt>
      <trkpt lat="49.81475" lon="4.83926">
        <ele>215</ele>
        <time>2022-06-06T10:37:37.000Z</time>
      </trkpt>
      <trkpt lat="49.81474" lon="4.83918">
        <ele>215</ele>
        <time>2022-06-06T10:37:38.000Z</time>
      </trkpt>
      <trkpt lat="49.81472" lon="4.8391">
        <ele>215</ele>
        <time>2022-06-06T10:37:39.000Z</time>
      </trkpt>
      <trkpt lat="49.81472" lon="4.83901">
        <ele>215</ele>
        <time>2022-06-06T10:37:40.000Z</time>
      </trkpt>
      <trkpt lat="49.81471" lon="4.83893">
        <ele>215</ele>
        <time>2022-06-06T10:37:41.000Z</time>
      </trkpt>
      <trkpt lat="49.81471" lon="4.83886">
        <ele>215</ele>
        <time>2022-06-06T10:37:42.000Z</time>
      </trkpt>
      <trkpt lat="49.8147" lon="4.83878">
        <ele>215</ele>
        <time>2022-06-06T10:37:43.000Z</time>
      </trkpt>
      <trkpt lat="49.81469" lon="4.83873">
        <ele>215</ele>
        <time>2022-06-06T10:37:44.000Z</time>
      </trkpt>
      <trkpt lat="49.81468" lon="4.83868">
        <ele>215</ele>
        <time>2022-06-06T10:37:45.000Z</time>
      </trkpt>
      <trkpt lat="49.81466" lon="4.83866">
        <ele>215</ele>
        <time>2022-06-06T10:37:46.000Z</time>
      </trkpt>
      <trkpt lat="49.81464" lon="4.83863">
        <ele>215</ele>
        <time>2022-06-06T10:37:47.000Z</time>
      </trkpt>
      <trkpt lat="49.81462" lon="4.83861">
        <ele>215</ele>
        <time>2022-06-06T10:37:48.000Z</time>
      </trkpt>
      <trkpt lat="49.8146" lon="4.8386">
        <ele>215</ele>
        <time>2022-06-06T10:37:49.000Z</time>
      </trkpt>
      <trkpt lat="49.81459" lon="4.8386">
        <ele>215</ele>
        <time>2022-06-06T10:37:50.000Z</time>
      </trkpt>
      <trkpt lat="49.81457" lon="4.83859">
        <ele>215</ele>
        <time>2022-06-06T10:37:51.000Z</time>
      </trkpt>
      <trkpt lat="49.81456" lon="4.83858">
        <ele>215</ele>
        <time>2022-06-06T10:37:52.000Z</time>
      </trkpt>
      <trkpt lat="49.81454" lon="4.83857">
        <ele>215</ele>
        <time>2022-06-06T10:37:53.000Z</time>
      </trkpt>
      <trkpt lat="49.81453" lon="4.83857">
        <ele>216</ele>
        <time>2022-06-06T10:37:54.000Z</time>
      </trkpt>
      <trkpt lat="49.81452" lon="4.83857">
        <ele>216</ele>
        <time>2022-06-06T10:37:55.000Z</time>
      </trkpt>
      <trkpt lat="49.8145" lon="4.83857">
        <ele>216</ele>
        <time>2022-06-06T10:37:56.000Z</time>
      </trkpt>
      <trkpt lat="49.81448" lon="4.83857">
        <ele>216</ele>
        <time>2022-06-06T10:37:57.000Z</time>
      </trkpt>
      <trkpt lat="49.81446" lon="4.83858">
        <ele>216</ele>
        <time>2022-06-06T10:37:58.000Z</time>
      </trkpt>
      <trkpt lat="49.81444" lon="4.83857">
        <ele>216</ele>
        <time>2022-06-06T10:37:59.000Z</time>
      </trkpt>
      <trkpt lat="49.81442" lon="4.83857">
        <ele>217</ele>
        <time>2022-06-06T10:38:00.000Z</time>
      </trkpt>
      <trkpt lat="49.8144" lon="4.83856">
        <ele>217</ele>
        <time>2022-06-06T10:38:01.000Z</time>
      </trkpt>
      <trkpt lat="49.81438" lon="4.83856">
        <ele>217</ele>
        <time>2022-06-06T10:38:02.000Z</time>
      </trkpt>
      <trkpt lat="49.81436" lon="4.83855">
        <ele>217</ele>
        <time>2022-06-06T10:38:03.000Z</time>
      </trkpt>
      <trkpt lat="49.81434" lon="4.83854">
        <ele>217</ele>
        <time>2022-06-06T10:38:04.000Z</time>
      </trkpt>
      <trkpt lat="49.81433" lon="4.83852">
        <ele>217</ele>
        <time>2022-06-06T10:38:05.000Z</time>
      </trkpt>
      <trkpt lat="49.81432" lon="4.83851">
        <ele>217</ele>
        <time>2022-06-06T10:38:06.000Z</time>
      </trkpt>
      <trkpt lat="49.8143" lon="4.83851">
        <ele>218</ele>
        <time>2022-06-06T10:38:07.000Z</time>
      </trkpt>
      <trkpt lat="49.81427" lon="4.8385">
        <ele>218</ele>
        <time>2022-06-06T10:38:08.000Z</time>
      </trkpt>
      <trkpt lat="49.81423" lon="4.83849">
        <ele>218</ele>
        <time>2022-06-06T10:38:09.000Z</time>
      </trkpt>
      <trkpt lat="49.8142" lon="4.83848">
        <ele>218</ele>
        <time>2022-06-06T10:38:10.000Z</time>
      </trkpt>
      <trkpt lat="49.81416" lon="4.83848">
        <ele>218</ele>
        <time>2022-06-06T10:38:11.000Z</time>
      </trkpt>
      <trkpt lat="49.81413" lon="4.83847">
        <ele>218</ele>
        <time>2022-06-06T10:38:12.000Z</time>
      </trkpt>
      <trkpt lat="49.8141" lon="4.83847">
        <ele>219</ele>
        <time>2022-06-06T10:38:13.000Z</time>
      </trkpt>
      <trkpt lat="49.81406" lon="4.83846">
        <ele>219</ele>
        <time>2022-06-06T10:38:14.000Z</time>
      </trkpt>
      <trkpt lat="49.81403" lon="4.83847">
        <ele>219</ele>
        <time>2022-06-06T10:38:15.000Z</time>
      </trkpt>
      <trkpt lat="49.814" lon="4.83847">
        <ele>219</ele>
        <time>2022-06-06T10:38:16.000Z</time>
      </trkpt>
      <trkpt lat="49.81397" lon="4.83847">
        <ele>220</ele>
        <time>2022-06-06T10:38:17.000Z</time>
      </trkpt>
      <trkpt lat="49.81394" lon="4.83847">
        <ele>220</ele>
        <time>2022-06-06T10:38:18.000Z</time>
      </trkpt>
      <trkpt lat="49.81391" lon="4.83848">
        <ele>220</ele>
        <time>2022-06-06T10:38:19.000Z</time>
      </trkpt>
      <trkpt lat="49.81388" lon="4.83848">
        <ele>220</ele>
        <time>2022-06-06T10:38:20.000Z</time>
      </trkpt>
      <trkpt lat="49.81385" lon="4.83848">
        <ele>220</ele>
        <time>2022-06-06T10:38:21.000Z</time>
      </trkpt>
      <trkpt lat="49.81381" lon="4.83847">
        <ele>221</ele>
        <time>2022-06-06T10:38:22.000Z</time>
      </trkpt>
      <trkpt lat="49.81378" lon="4.83847">
        <ele>221</ele>
        <time>2022-06-06T10:38:23.000Z</time>
      </trkpt>
      <trkpt lat="49.81375" lon="4.83846">
        <ele>221</ele>
        <time>2022-06-06T10:38:24.000Z</time>
      </trkpt>
      <trkpt lat="49.81373" lon="4.83845">
        <ele>221</ele>
        <time>2022-06-06T10:38:25.000Z</time>
      </trkpt>
      <trkpt lat="49.81369" lon="4.83844">
        <ele>222</ele>
        <time>2022-06-06T10:38:26.000Z</time>
      </trkpt>
      <trkpt lat="49.81366" lon="4.83843">
        <ele>222</ele>
        <time>2022-06-06T10:38:27.000Z</time>
      </trkpt>
      <trkpt lat="49.81362" lon="4.83843">
        <ele>222</ele>
        <time>2022-06-06T10:38:28.000Z</time>
      </trkpt>
      <trkpt lat="49.81359" lon="4.83842">
        <ele>223</ele>
        <time>2022-06-06T10:38:29.000Z</time>
      </trkpt>
      <trkpt lat="49.81355" lon="4.83841">
        <ele>223</ele>
        <time>2022-06-06T10:38:30.000Z</time>
      </trkpt>
      <trkpt lat="49.81351" lon="4.83841">
        <ele>223</ele>
        <time>2022-06-06T10:38:31.000Z</time>
      </trkpt>
      <trkpt lat="49.81348" lon="4.8384">
        <ele>223</ele>
        <time>2022-06-06T10:38:32.000Z</time>
      </trkpt>
      <trkpt lat="49.81344" lon="4.83839">
        <ele>224</ele>
        <time>2022-06-06T10:38:33.000Z</time>
      </trkpt>
      <trkpt lat="49.8134" lon="4.83839">
        <ele>224</ele>
        <time>2022-06-06T10:38:34.000Z</time>
      </trkpt>
      <trkpt lat="49.81336" lon="4.83838">
        <ele>224</ele>
        <time>2022-06-06T10:38:35.000Z</time>
      </trkpt>
      <trkpt lat="49.81332" lon="4.83838">
        <ele>224</ele>
        <time>2022-06-06T10:38:36.000Z</time>
      </trkpt>
      <trkpt lat="49.81329" lon="4.83838">
        <ele>224</ele>
        <time>2022-06-06T10:38:37.000Z</time>
      </trkpt>
      <trkpt lat="49.81325" lon="4.83838">
        <ele>225</ele>
        <time>2022-06-06T10:38:38.000Z</time>
      </trkpt>
      <trkpt lat="49.8132" lon="4.83839">
        <ele>225</ele>
        <time>2022-06-06T10:38:39.000Z</time>
      </trkpt>
      <trkpt lat="49.81316" lon="4.8384">
        <ele>225</ele>
        <time>2022-06-06T10:38:40.000Z</time>
      </trkpt>
      <trkpt lat="49.81313" lon="4.83842">
        <ele>226</ele>
        <time>2022-06-06T10:38:41.000Z</time>
      </trkpt>
      <trkpt lat="49.8131" lon="4.83845">
        <ele>226</ele>
        <time>2022-06-06T10:38:42.000Z</time>
      </trkpt>
      <trkpt lat="49.81306" lon="4.83848">
        <ele>226</ele>
        <time>2022-06-06T10:38:43.000Z</time>
      </trkpt>
      <trkpt lat="49.81304" lon="4.83851">
        <ele>226</ele>
        <time>2022-06-06T10:38:44.000Z</time>
      </trkpt>
      <trkpt lat="49.81302" lon="4.83855">
        <ele>227</ele>
        <time>2022-06-06T10:38:45.000Z</time>
      </trkpt>
      <trkpt lat="49.81299" lon="4.83857">
        <ele>227</ele>
        <time>2022-06-06T10:38:46.000Z</time>
      </trkpt>
      <trkpt lat="49.81297" lon="4.83858">
        <ele>227</ele>
        <time>2022-06-06T10:38:47.000Z</time>
      </trkpt>
      <trkpt lat="49.81295" lon="4.83859">
        <ele>227</ele>
        <time>2022-06-06T10:38:48.000Z</time>
      </trkpt>
      <trkpt lat="49.81293" lon="4.83861">
        <ele>227</ele>
        <time>2022-06-06T10:38:49.000Z</time>
      </trkpt>
      <trkpt lat="49.81291" lon="4.83862">
        <ele>227</ele>
        <time>2022-06-06T10:38:50.000Z</time>
      </trkpt>
      <trkpt lat="49.81289" lon="4.83863">
        <ele>227</ele>
        <time>2022-06-06T10:38:51.000Z</time>
      </trkpt>
      <trkpt lat="49.81288" lon="4.83865">
        <ele>227</ele>
        <time>2022-06-06T10:38:52.000Z</time>
      </trkpt>
      <trkpt lat="49.81286" lon="4.83866">
        <ele>227</ele>
        <time>2022-06-06T10:38:53.000Z</time>
      </trkpt>
      <trkpt lat="49.81284" lon="4.83868">
        <ele>227</ele>
        <time>2022-06-06T10:38:54.000Z</time>
      </trkpt>
      <trkpt lat="49.81281" lon="4.83869">
        <ele>228</ele>
        <time>2022-06-06T10:38:55.000Z</time>
      </trkpt>
      <trkpt lat="49.81279" lon="4.8387">
        <ele>228</ele>
        <time>2022-06-06T10:38:56.000Z</time>
      </trkpt>
      <trkpt lat="49.81276" lon="4.83872">
        <ele>228</ele>
        <time>2022-06-06T10:38:57.000Z</time>
      </trkpt>
      <trkpt lat="49.81274" lon="4.83874">
        <ele>228</ele>
        <time>2022-06-06T10:38:58.000Z</time>
      </trkpt>
      <trkpt lat="49.81271" lon="4.83876">
        <ele>229</ele>
        <time>2022-06-06T10:38:59.000Z</time>
      </trkpt>
      <trkpt lat="49.81269" lon="4.83877">
        <ele>229</ele>
        <time>2022-06-06T10:39:00.000Z</time>
      </trkpt>
      <trkpt lat="49.81265" lon="4.83878">
        <ele>229</ele>
        <time>2022-06-06T10:39:01.000Z</time>
      </trkpt>
      <trkpt lat="49.81262" lon="4.83878">
        <ele>230</ele>
        <time>2022-06-06T10:39:02.000Z</time>
      </trkpt>
      <trkpt lat="49.81259" lon="4.83879">
        <ele>230</ele>
        <time>2022-06-06T10:39:03.000Z</time>
      </trkpt>
      <trkpt lat="49.81255" lon="4.83879">
        <ele>230</ele>
        <time>2022-06-06T10:39:04.000Z</time>
      </trkpt>
      <trkpt lat="49.81252" lon="4.8388">
        <ele>231</ele>
        <time>2022-06-06T10:39:05.000Z</time>
      </trkpt>
      <trkpt lat="49.81248" lon="4.8388">
        <ele>231</ele>
        <time>2022-06-06T10:39:06.000Z</time>
      </trkpt>
      <trkpt lat="49.81243" lon="4.83881">
        <ele>231</ele>
        <time>2022-06-06T10:39:07.000Z</time>
      </trkpt>
      <trkpt lat="49.81239" lon="4.83881">
        <ele>232</ele>
        <time>2022-06-06T10:39:08.000Z</time>
      </trkpt>
      <trkpt lat="49.81235" lon="4.83882">
        <ele>232</ele>
        <time>2022-06-06T10:39:09.000Z</time>
      </trkpt>
      <trkpt lat="49.81231" lon="4.83884">
        <ele>232</ele>
        <time>2022-06-06T10:39:10.000Z</time>
      </trkpt>
      <trkpt lat="49.81226" lon="4.83885">
        <ele>232</ele>
        <time>2022-06-06T10:39:11.000Z</time>
      </trkpt>
      <trkpt lat="49.81221" lon="4.83885">
        <ele>233</ele>
        <time>2022-06-06T10:39:12.000Z</time>
      </trkpt>
      <trkpt lat="49.81216" lon="4.83886">
        <ele>233</ele>
        <time>2022-06-06T10:39:13.000Z</time>
      </trkpt>
      <trkpt lat="49.81211" lon="4.83887">
        <ele>233</ele>
        <time>2022-06-06T10:39:14.000Z</time>
      </trkpt>
      <trkpt lat="49.81205" lon="4.83889">
        <ele>233</ele>
        <time>2022-06-06T10:39:15.000Z</time>
      </trkpt>
      <trkpt lat="49.812" lon="4.83891">
        <ele>233</ele>
        <time>2022-06-06T10:39:16.000Z</time>
      </trkpt>
      <trkpt lat="49.81195" lon="4.83892">
        <ele>233</ele>
        <time>2022-06-06T10:39:17.000Z</time>
      </trkpt>
      <trkpt lat="49.81191" lon="4.83893">
        <ele>233</ele>
        <time>2022-06-06T10:39:18.000Z</time>
      </trkpt>
      <trkpt lat="49.81186" lon="4.83895">
        <ele>233</ele>
        <time>2022-06-06T10:39:19.000Z</time>
      </trkpt>
      <trkpt lat="49.81182" lon="4.83895">
        <ele>234</ele>
        <time>2022-06-06T10:39:20.000Z</time>
      </trkpt>
      <trkpt lat="49.81177" lon="4.83896">
        <ele>234</ele>
        <time>2022-06-06T10:39:21.000Z</time>
      </trkpt>
      <trkpt lat="49.81173" lon="4.83897">
        <ele>234</ele>
        <time>2022-06-06T10:39:22.000Z</time>
      </trkpt>
      <trkpt lat="49.81168" lon="4.83898">
        <ele>234</ele>
        <time>2022-06-06T10:39:23.000Z</time>
      </trkpt>
      <trkpt lat="49.81163" lon="4.83897">
        <ele>234</ele>
        <time>2022-06-06T10:39:24.000Z</time>
      </trkpt>
      <trkpt lat="49.81158" lon="4.83897">
        <ele>235</ele>
        <time>2022-06-06T10:39:25.000Z</time>
      </trkpt>
      <trkpt lat="49.81153" lon="4.83898">
        <ele>235</ele>
        <time>2022-06-06T10:39:26.000Z</time>
      </trkpt>
      <trkpt lat="49.81149" lon="4.83898">
        <ele>235</ele>
        <time>2022-06-06T10:39:27.000Z</time>
      </trkpt>
      <trkpt lat="49.81144" lon="4.83897">
        <ele>235</ele>
        <time>2022-06-06T10:39:28.000Z</time>
      </trkpt>
      <trkpt lat="49.81138" lon="4.83897">
        <ele>235</ele>
        <time>2022-06-06T10:39:29.000Z</time>
      </trkpt>
      <trkpt lat="49.81133" lon="4.83897">
        <ele>235</ele>
        <time>2022-06-06T10:39:30.000Z</time>
      </trkpt>
      <trkpt lat="49.81127" lon="4.83897">
        <ele>235</ele>
        <time>2022-06-06T10:39:31.000Z</time>
      </trkpt>
      <trkpt lat="49.81122" lon="4.83896">
        <ele>235</ele>
        <time>2022-06-06T10:39:32.000Z</time>
      </trkpt>
      <trkpt lat="49.81116" lon="4.83896">
        <ele>235</ele>
        <time>2022-06-06T10:39:33.000Z</time>
      </trkpt>
      <trkpt lat="49.8111" lon="4.83895">
        <ele>235</ele>
        <time>2022-06-06T10:39:34.000Z</time>
      </trkpt>
      <trkpt lat="49.81105" lon="4.83894">
        <ele>236</ele>
        <time>2022-06-06T10:39:35.000Z</time>
      </trkpt>
      <trkpt lat="49.811" lon="4.83893">
        <ele>236</ele>
        <time>2022-06-06T10:39:36.000Z</time>
      </trkpt>
      <trkpt lat="49.81095" lon="4.83891">
        <ele>236</ele>
        <time>2022-06-06T10:39:37.000Z</time>
      </trkpt>
      <trkpt lat="49.8109" lon="4.8389">
        <ele>236</ele>
        <time>2022-06-06T10:39:38.000Z</time>
      </trkpt>
      <trkpt lat="49.81085" lon="4.83889">
        <ele>236</ele>
        <time>2022-06-06T10:39:39.000Z</time>
      </trkpt>
      <trkpt lat="49.81079" lon="4.83888">
        <ele>236</ele>
        <time>2022-06-06T10:39:40.000Z</time>
      </trkpt>
      <trkpt lat="49.81074" lon="4.83887">
        <ele>236</ele>
        <time>2022-06-06T10:39:41.000Z</time>
      </trkpt>
      <trkpt lat="49.81069" lon="4.83887">
        <ele>236</ele>
        <time>2022-06-06T10:39:42.000Z</time>
      </trkpt>
      <trkpt lat="49.81065" lon="4.83886">
        <ele>236</ele>
        <time>2022-06-06T10:39:43.000Z</time>
      </trkpt>
      <trkpt lat="49.8106" lon="4.83886">
        <ele>236</ele>
        <time>2022-06-06T10:39:44.000Z</time>
      </trkpt>
      <trkpt lat="49.81056" lon="4.83886">
        <ele>236</ele>
        <time>2022-06-06T10:39:45.000Z</time>
      </trkpt>
      <trkpt lat="49.81052" lon="4.83886">
        <ele>236</ele>
        <time>2022-06-06T10:39:46.000Z</time>
      </trkpt>
      <trkpt lat="49.81048" lon="4.83886">
        <ele>236</ele>
        <time>2022-06-06T10:39:47.000Z</time>
      </trkpt>
      <trkpt lat="49.81045" lon="4.83886">
        <ele>236</ele>
        <time>2022-06-06T10:39:48.000Z</time>
      </trkpt>
      <trkpt lat="49.81041" lon="4.83885">
        <ele>236</ele>
        <time>2022-06-06T10:39:49.000Z</time>
      </trkpt>
      <trkpt lat="49.81036" lon="4.83885">
        <ele>236</ele>
        <time>2022-06-06T10:39:50.000Z</time>
      </trkpt>
      <trkpt lat="49.81032" lon="4.83885">
        <ele>236</ele>
        <time>2022-06-06T10:39:51.000Z</time>
      </trkpt>
      <trkpt lat="49.81027" lon="4.83885">
        <ele>236</ele>
        <time>2022-06-06T10:39:52.000Z</time>
      </trkpt>
      <trkpt lat="49.81023" lon="4.83885">
        <ele>236</ele>
        <time>2022-06-06T10:39:53.000Z</time>
      </trkpt>
      <trkpt lat="49.81018" lon="4.83885">
        <ele>236</ele>
        <time>2022-06-06T10:39:54.000Z</time>
      </trkpt>
      <trkpt lat="49.81012" lon="4.83885">
        <ele>236</ele>
        <time>2022-06-06T10:39:55.000Z</time>
      </trkpt>
      <trkpt lat="49.81006" lon="4.83884">
        <ele>236</ele>
        <time>2022-06-06T10:39:56.000Z</time>
      </trkpt>
      <trkpt lat="49.81" lon="4.83885">
        <ele>236</ele>
        <time>2022-06-06T10:39:57.000Z</time>
      </trkpt>
      <trkpt lat="49.80994" lon="4.83885">
        <ele>236</ele>
        <time>2022-06-06T10:39:58.000Z</time>
      </trkpt>
      <trkpt lat="49.80988" lon="4.83885">
        <ele>236</ele>
        <time>2022-06-06T10:39:59.000Z</time>
      </trkpt>
      <trkpt lat="49.80982" lon="4.83886">
        <ele>236</ele>
        <time>2022-06-06T10:40:00.000Z</time>
      </trkpt>
      <trkpt lat="49.80976" lon="4.83887">
        <ele>236</ele>
        <time>2022-06-06T10:40:01.000Z</time>
      </trkpt>
      <trkpt lat="49.8097" lon="4.83887">
        <ele>236</ele>
        <time>2022-06-06T10:40:02.000Z</time>
      </trkpt>
      <trkpt lat="49.80964" lon="4.83886">
        <ele>236</ele>
        <time>2022-06-06T10:40:03.000Z</time>
      </trkpt>
      <trkpt lat="49.80958" lon="4.83886">
        <ele>235</ele>
        <time>2022-06-06T10:40:04.000Z</time>
      </trkpt>
      <trkpt lat="49.80953" lon="4.83885">
        <ele>235</ele>
        <time>2022-06-06T10:40:05.000Z</time>
      </trkpt>
      <trkpt lat="49.80947" lon="4.83885">
        <ele>235</ele>
        <time>2022-06-06T10:40:06.000Z</time>
      </trkpt>
      <trkpt lat="49.80942" lon="4.83886">
        <ele>235</ele>
        <time>2022-06-06T10:40:07.000Z</time>
      </trkpt>
      <trkpt lat="49.80937" lon="4.83888">
        <ele>235</ele>
        <time>2022-06-06T10:40:08.000Z</time>
      </trkpt>
      <trkpt lat="49.80932" lon="4.83888">
        <ele>235</ele>
        <time>2022-06-06T10:40:09.000Z</time>
      </trkpt>
      <trkpt lat="49.80927" lon="4.83888">
        <ele>235</ele>
        <time>2022-06-06T10:40:10.000Z</time>
      </trkpt>
      <trkpt lat="49.80923" lon="4.83889">
        <ele>235</ele>
        <time>2022-06-06T10:40:11.000Z</time>
      </trkpt>
      <trkpt lat="49.80918" lon="4.83889">
        <ele>235</ele>
        <time>2022-06-06T10:40:12.000Z</time>
      </trkpt>
      <trkpt lat="49.80914" lon="4.8389">
        <ele>235</ele>
        <time>2022-06-06T10:40:13.000Z</time>
      </trkpt>
      <trkpt lat="49.80909" lon="4.8389">
        <ele>235</ele>
        <time>2022-06-06T10:40:14.000Z</time>
      </trkpt>
      <trkpt lat="49.80905" lon="4.8389">
        <ele>234</ele>
        <time>2022-06-06T10:40:15.000Z</time>
      </trkpt>
      <trkpt lat="49.809" lon="4.8389">
        <ele>234</ele>
        <time>2022-06-06T10:40:16.000Z</time>
      </trkpt>
      <trkpt lat="49.80895" lon="4.83891">
        <ele>234</ele>
        <time>2022-06-06T10:40:17.000Z</time>
      </trkpt>
      <trkpt lat="49.8089" lon="4.83892">
        <ele>234</ele>
        <time>2022-06-06T10:40:18.000Z</time>
      </trkpt>
      <trkpt lat="49.80885" lon="4.83892">
        <ele>234</ele>
        <time>2022-06-06T10:40:19.000Z</time>
      </trkpt>
      <trkpt lat="49.8088" lon="4.83892">
        <ele>234</ele>
        <time>2022-06-06T10:40:20.000Z</time>
      </trkpt>
      <trkpt lat="49.80876" lon="4.83892">
        <ele>233</ele>
        <time>2022-06-06T10:40:21.000Z</time>
      </trkpt>
      <trkpt lat="49.80871" lon="4.83893">
        <ele>233</ele>
        <time>2022-06-06T10:40:22.000Z</time>
      </trkpt>
      <trkpt lat="49.80867" lon="4.83893">
        <ele>233</ele>
        <time>2022-06-06T10:40:23.000Z</time>
      </trkpt>
      <trkpt lat="49.80862" lon="4.83893">
        <ele>233</ele>
        <time>2022-06-06T10:40:24.000Z</time>
      </trkpt>
      <trkpt lat="49.80857" lon="4.83893">
        <ele>233</ele>
        <time>2022-06-06T10:40:25.000Z</time>
      </trkpt>
      <trkpt lat="49.80852" lon="4.83894">
        <ele>233</ele>
        <time>2022-06-06T10:40:26.000Z</time>
      </trkpt>
      <trkpt lat="49.80848" lon="4.83894">
        <ele>233</ele>
        <time>2022-06-06T10:40:27.000Z</time>
      </trkpt>
      <trkpt lat="49.80843" lon="4.83895">
        <ele>233</ele>
        <time>2022-06-06T10:40:28.000Z</time>
      </trkpt>
      <trkpt lat="49.80839" lon="4.83895">
        <ele>233</ele>
        <time>2022-06-06T10:40:29.000Z</time>
      </trkpt>
      <trkpt lat="49.80836" lon="4.83895">
        <ele>233</ele>
        <time>2022-06-06T10:40:30.000Z</time>
      </trkpt>
      <trkpt lat="49.80833" lon="4.83896">
        <ele>233</ele>
        <time>2022-06-06T10:40:31.000Z</time>
      </trkpt>
      <trkpt lat="49.80829" lon="4.83895">
        <ele>232</ele>
        <time>2022-06-06T10:40:32.000Z</time>
      </trkpt>
      <trkpt lat="49.80824" lon="4.83893">
        <ele>232</ele>
        <time>2022-06-06T10:40:33.000Z</time>
      </trkpt>
      <trkpt lat="49.8082" lon="4.83893">
        <ele>232</ele>
        <time>2022-06-06T10:40:34.000Z</time>
      </trkpt>
      <trkpt lat="49.80816" lon="4.83894">
        <ele>233</ele>
        <time>2022-06-06T10:40:35.000Z</time>
      </trkpt>
      <trkpt lat="49.80812" lon="4.83894">
        <ele>233</ele>
        <time>2022-06-06T10:40:36.000Z</time>
      </trkpt>
      <trkpt lat="49.80808" lon="4.83893">
        <ele>233</ele>
        <time>2022-06-06T10:40:37.000Z</time>
      </trkpt>
      <trkpt lat="49.80804" lon="4.83892">
        <ele>233</ele>
        <time>2022-06-06T10:40:38.000Z</time>
      </trkpt>
      <trkpt lat="49.808" lon="4.83892">
        <ele>233</ele>
        <time>2022-06-06T10:40:39.000Z</time>
      </trkpt>
      <trkpt lat="49.80795" lon="4.83892">
        <ele>233</ele>
        <time>2022-06-06T10:40:40.000Z</time>
      </trkpt>
      <trkpt lat="49.80791" lon="4.83892">
        <ele>233</ele>
        <time>2022-06-06T10:40:41.000Z</time>
      </trkpt>
      <trkpt lat="49.80787" lon="4.83893">
        <ele>233</ele>
        <time>2022-06-06T10:40:42.000Z</time>
      </trkpt>
      <trkpt lat="49.80784" lon="4.83895">
        <ele>233</ele>
        <time>2022-06-06T10:40:43.000Z</time>
      </trkpt>
      <trkpt lat="49.8078" lon="4.83896">
        <ele>233</ele>
        <time>2022-06-06T10:40:44.000Z</time>
      </trkpt>
      <trkpt lat="49.80776" lon="4.83897">
        <ele>233</ele>
        <time>2022-06-06T10:40:45.000Z</time>
      </trkpt>
      <trkpt lat="49.80772" lon="4.83898">
        <ele>233</ele>
        <time>2022-06-06T10:40:46.000Z</time>
      </trkpt>
      <trkpt lat="49.80767" lon="4.83899">
        <ele>233</ele>
        <time>2022-06-06T10:40:47.000Z</time>
      </trkpt>
      <trkpt lat="49.80762" lon="4.839">
        <ele>233</ele>
        <time>2022-06-06T10:40:48.000Z</time>
      </trkpt>
      <trkpt lat="49.80758" lon="4.83901">
        <ele>233</ele>
        <time>2022-06-06T10:40:49.000Z</time>
      </trkpt>
      <trkpt lat="49.80755" lon="4.83902">
        <ele>233</ele>
        <time>2022-06-06T10:40:50.000Z</time>
      </trkpt>
      <trkpt lat="49.80751" lon="4.83903">
        <ele>233</ele>
        <time>2022-06-06T10:40:51.000Z</time>
      </trkpt>
      <trkpt lat="49.80747" lon="4.83904">
        <ele>233</ele>
        <time>2022-06-06T10:40:52.000Z</time>
      </trkpt>
      <trkpt lat="49.80744" lon="4.83905">
        <ele>233</ele>
        <time>2022-06-06T10:40:53.000Z</time>
      </trkpt>
      <trkpt lat="49.8074" lon="4.83907">
        <ele>233</ele>
        <time>2022-06-06T10:40:54.000Z</time>
      </trkpt>
      <trkpt lat="49.80735" lon="4.83908">
        <ele>233</ele>
        <time>2022-06-06T10:40:55.000Z</time>
      </trkpt>
      <trkpt lat="49.8073" lon="4.83909">
        <ele>233</ele>
        <time>2022-06-06T10:40:56.000Z</time>
      </trkpt>
      <trkpt lat="49.80726" lon="4.8391">
        <ele>233</ele>
        <time>2022-06-06T10:40:57.000Z</time>
      </trkpt>
      <trkpt lat="49.80722" lon="4.83913">
        <ele>233</ele>
        <time>2022-06-06T10:40:58.000Z</time>
      </trkpt>
      <trkpt lat="49.80718" lon="4.83914">
        <ele>233</ele>
        <time>2022-06-06T10:40:59.000Z</time>
      </trkpt>
      <trkpt lat="49.80713" lon="4.83916">
        <ele>233</ele>
        <time>2022-06-06T10:41:00.000Z</time>
      </trkpt>
      <trkpt lat="49.80709" lon="4.83919">
        <ele>233</ele>
        <time>2022-06-06T10:41:01.000Z</time>
      </trkpt>
      <trkpt lat="49.80704" lon="4.83921">
        <ele>233</ele>
        <time>2022-06-06T10:41:02.000Z</time>
      </trkpt>
      <trkpt lat="49.80699" lon="4.83923">
        <ele>233</ele>
        <time>2022-06-06T10:41:03.000Z</time>
      </trkpt>
      <trkpt lat="49.80694" lon="4.83925">
        <ele>233</ele>
        <time>2022-06-06T10:41:04.000Z</time>
      </trkpt>
      <trkpt lat="49.8069" lon="4.83927">
        <ele>233</ele>
        <time>2022-06-06T10:41:05.000Z</time>
      </trkpt>
      <trkpt lat="49.80686" lon="4.83928">
        <ele>233</ele>
        <time>2022-06-06T10:41:06.000Z</time>
      </trkpt>
      <trkpt lat="49.80683" lon="4.83928">
        <ele>233</ele>
        <time>2022-06-06T10:41:07.000Z</time>
      </trkpt>
      <trkpt lat="49.8068" lon="4.83928">
        <ele>233</ele>
        <time>2022-06-06T10:41:08.000Z</time>
      </trkpt>
      <trkpt lat="49.80676" lon="4.83928">
        <ele>233</ele>
        <time>2022-06-06T10:41:09.000Z</time>
      </trkpt>
      <trkpt lat="49.80672" lon="4.83928">
        <ele>233</ele>
        <time>2022-06-06T10:41:10.000Z</time>
      </trkpt>
      <trkpt lat="49.80667" lon="4.83929">
        <ele>233</ele>
        <time>2022-06-06T10:41:11.000Z</time>
      </trkpt>
      <trkpt lat="49.80663" lon="4.83931">
        <ele>232</ele>
        <time>2022-06-06T10:41:12.000Z</time>
      </trkpt>
      <trkpt lat="49.80659" lon="4.83931">
        <ele>232</ele>
        <time>2022-06-06T10:41:13.000Z</time>
      </trkpt>
      <trkpt lat="49.80654" lon="4.83933">
        <ele>232</ele>
        <time>2022-06-06T10:41:14.000Z</time>
      </trkpt>
      <trkpt lat="49.80649" lon="4.83935">
        <ele>232</ele>
        <time>2022-06-06T10:41:15.000Z</time>
      </trkpt>
      <trkpt lat="49.80644" lon="4.83937">
        <ele>232</ele>
        <time>2022-06-06T10:41:16.000Z</time>
      </trkpt>
      <trkpt lat="49.80639" lon="4.83939">
        <ele>232</ele>
        <time>2022-06-06T10:41:17.000Z</time>
      </trkpt>
      <trkpt lat="49.80634" lon="4.8394">
        <ele>232</ele>
        <time>2022-06-06T10:41:18.000Z</time>
      </trkpt>
      <trkpt lat="49.80629" lon="4.8394">
        <ele>232</ele>
        <time>2022-06-06T10:41:19.000Z</time>
      </trkpt>
      <trkpt lat="49.80624" lon="4.8394">
        <ele>231</ele>
        <time>2022-06-06T10:41:20.000Z</time>
      </trkpt>
      <trkpt lat="49.80619" lon="4.83941">
        <ele>231</ele>
        <time>2022-06-06T10:41:21.000Z</time>
      </trkpt>
      <trkpt lat="49.80613" lon="4.83942">
        <ele>231</ele>
        <time>2022-06-06T10:41:22.000Z</time>
      </trkpt>
      <trkpt lat="49.80607" lon="4.83943">
        <ele>230</ele>
        <time>2022-06-06T10:41:23.000Z</time>
      </trkpt>
      <trkpt lat="49.80602" lon="4.83943">
        <ele>230</ele>
        <time>2022-06-06T10:41:24.000Z</time>
      </trkpt>
      <trkpt lat="49.80597" lon="4.83944">
        <ele>229</ele>
        <time>2022-06-06T10:41:25.000Z</time>
      </trkpt>
      <trkpt lat="49.80592" lon="4.83945">
        <ele>229</ele>
        <time>2022-06-06T10:41:26.000Z</time>
      </trkpt>
      <trkpt lat="49.80588" lon="4.83945">
        <ele>229</ele>
        <time>2022-06-06T10:41:27.000Z</time>
      </trkpt>
      <trkpt lat="49.80584" lon="4.83946">
        <ele>228</ele>
        <time>2022-06-06T10:41:28.000Z</time>
      </trkpt>
      <trkpt lat="49.8058" lon="4.83947">
        <ele>228</ele>
        <time>2022-06-06T10:41:29.000Z</time>
      </trkpt>
      <trkpt lat="49.80576" lon="4.83948">
        <ele>228</ele>
        <time>2022-06-06T10:41:30.000Z</time>
      </trkpt>
      <trkpt lat="49.80572" lon="4.83948">
        <ele>227</ele>
        <time>2022-06-06T10:41:31.000Z</time>
      </trkpt>
      <trkpt lat="49.80567" lon="4.83949">
        <ele>227</ele>
        <time>2022-06-06T10:41:32.000Z</time>
      </trkpt>
      <trkpt lat="49.80563" lon="4.83949">
        <ele>227</ele>
        <time>2022-06-06T10:41:33.000Z</time>
      </trkpt>
      <trkpt lat="49.80559" lon="4.8395">
        <ele>226</ele>
        <time>2022-06-06T10:41:34.000Z</time>
      </trkpt>
      <trkpt lat="49.80555" lon="4.83951">
        <ele>226</ele>
        <time>2022-06-06T10:41:35.000Z</time>
      </trkpt>
      <trkpt lat="49.80551" lon="4.83952">
        <ele>226</ele>
        <time>2022-06-06T10:41:36.000Z</time>
      </trkpt>
      <trkpt lat="49.80546" lon="4.83953">
        <ele>225</ele>
        <time>2022-06-06T10:41:37.000Z</time>
      </trkpt>
      <trkpt lat="49.80541" lon="4.83953">
        <ele>225</ele>
        <time>2022-06-06T10:41:38.000Z</time>
      </trkpt>
      <trkpt lat="49.80537" lon="4.83954">
        <ele>225</ele>
        <time>2022-06-06T10:41:39.000Z</time>
      </trkpt>
      <trkpt lat="49.80534" lon="4.83954">
        <ele>224</ele>
        <time>2022-06-06T10:41:40.000Z</time>
      </trkpt>
      <trkpt lat="49.8053" lon="4.83955">
        <ele>224</ele>
        <time>2022-06-06T10:41:41.000Z</time>
      </trkpt>
      <trkpt lat="49.80527" lon="4.83956">
        <ele>224</ele>
        <time>2022-06-06T10:41:42.000Z</time>
      </trkpt>
      <trkpt lat="49.80524" lon="4.83957">
        <ele>224</ele>
        <time>2022-06-06T10:41:43.000Z</time>
      </trkpt>
      <trkpt lat="49.80522" lon="4.83958">
        <ele>224</ele>
        <time>2022-06-06T10:41:44.000Z</time>
      </trkpt>
      <trkpt lat="49.80519" lon="4.83959">
        <ele>223</ele>
        <time>2022-06-06T10:41:45.000Z</time>
      </trkpt>
      <trkpt lat="49.80517" lon="4.83958">
        <ele>223</ele>
        <time>2022-06-06T10:41:46.000Z</time>
      </trkpt>
      <trkpt lat="49.80514" lon="4.83958">
        <ele>223</ele>
        <time>2022-06-06T10:41:47.000Z</time>
      </trkpt>
      <trkpt lat="49.80512" lon="4.83959">
        <ele>223</ele>
        <time>2022-06-06T10:41:48.000Z</time>
      </trkpt>
      <trkpt lat="49.80509" lon="4.8396">
        <ele>223</ele>
        <time>2022-06-06T10:41:49.000Z</time>
      </trkpt>
      <trkpt lat="49.80507" lon="4.83959">
        <ele>223</ele>
        <time>2022-06-06T10:41:50.000Z</time>
      </trkpt>
      <trkpt lat="49.80505" lon="4.83958">
        <ele>223</ele>
        <time>2022-06-06T10:41:51.000Z</time>
      </trkpt>
      <trkpt lat="49.80502" lon="4.83955">
        <ele>223</ele>
        <time>2022-06-06T10:41:52.000Z</time>
      </trkpt>
      <trkpt lat="49.805" lon="4.83951">
        <ele>223</ele>
        <time>2022-06-06T10:41:53.000Z</time>
      </trkpt>
      <trkpt lat="49.80497" lon="4.83947">
        <ele>223</ele>
        <time>2022-06-06T10:41:54.000Z</time>
      </trkpt>
      <trkpt lat="49.80493" lon="4.83943">
        <ele>222</ele>
        <time>2022-06-06T10:41:55.000Z</time>
      </trkpt>
      <trkpt lat="49.8049" lon="4.8394">
        <ele>222</ele>
        <time>2022-06-06T10:41:56.000Z</time>
      </trkpt>
      <trkpt lat="49.80486" lon="4.83936">
        <ele>222</ele>
        <time>2022-06-06T10:41:57.000Z</time>
      </trkpt>
      <trkpt lat="49.80483" lon="4.83933">
        <ele>222</ele>
        <time>2022-06-06T10:41:58.000Z</time>
      </trkpt>
      <trkpt lat="49.80479" lon="4.83929">
        <ele>222</ele>
        <time>2022-06-06T10:41:59.000Z</time>
      </trkpt>
      <trkpt lat="49.80475" lon="4.83926">
        <ele>222</ele>
        <time>2022-06-06T10:42:00.000Z</time>
      </trkpt>
      <trkpt lat="49.80471" lon="4.83923">
        <ele>222</ele>
        <time>2022-06-06T10:42:01.000Z</time>
      </trkpt>
      <trkpt lat="49.80467" lon="4.8392">
        <ele>222</ele>
        <time>2022-06-06T10:42:02.000Z</time>
      </trkpt>
      <trkpt lat="49.80463" lon="4.83918">
        <ele>222</ele>
        <time>2022-06-06T10:42:03.000Z</time>
      </trkpt>
      <trkpt lat="49.80458" lon="4.83916">
        <ele>222</ele>
        <time>2022-06-06T10:42:04.000Z</time>
      </trkpt>
      <trkpt lat="49.80454" lon="4.83914">
        <ele>222</ele>
        <time>2022-06-06T10:42:05.000Z</time>
      </trkpt>
      <trkpt lat="49.80449" lon="4.83912">
        <ele>221</ele>
        <time>2022-06-06T10:42:06.000Z</time>
      </trkpt>
      <trkpt lat="49.80445" lon="4.83909">
        <ele>221</ele>
        <time>2022-06-06T10:42:07.000Z</time>
      </trkpt>
      <trkpt lat="49.8044" lon="4.83906">
        <ele>221</ele>
        <time>2022-06-06T10:42:08.000Z</time>
      </trkpt>
      <trkpt lat="49.80435" lon="4.83903">
        <ele>221</ele>
        <time>2022-06-06T10:42:09.000Z</time>
      </trkpt>
      <trkpt lat="49.8043" lon="4.839">
        <ele>221</ele>
        <time>2022-06-06T10:42:10.000Z</time>
      </trkpt>
      <trkpt lat="49.80426" lon="4.83896">
        <ele>221</ele>
        <time>2022-06-06T10:42:11.000Z</time>
      </trkpt>
      <trkpt lat="49.80421" lon="4.83893">
        <ele>221</ele>
        <time>2022-06-06T10:42:12.000Z</time>
      </trkpt>
      <trkpt lat="49.80416" lon="4.83889">
        <ele>221</ele>
        <time>2022-06-06T10:42:13.000Z</time>
      </trkpt>
      <trkpt lat="49.80412" lon="4.83885">
        <ele>221</ele>
        <time>2022-06-06T10:42:14.000Z</time>
      </trkpt>
      <trkpt lat="49.80407" lon="4.8388">
        <ele>221</ele>
        <time>2022-06-06T10:42:15.000Z</time>
      </trkpt>
      <trkpt lat="49.80403" lon="4.83873">
        <ele>221</ele>
        <time>2022-06-06T10:42:16.000Z</time>
      </trkpt>
      <trkpt lat="49.80399" lon="4.83868">
        <ele>221</ele>
        <time>2022-06-06T10:42:17.000Z</time>
      </trkpt>
      <trkpt lat="49.80396" lon="4.83864">
        <ele>220</ele>
        <time>2022-06-06T10:42:18.000Z</time>
      </trkpt>
      <trkpt lat="49.80392" lon="4.83862">
        <ele>220</ele>
        <time>2022-06-06T10:42:19.000Z</time>
      </trkpt>
      <trkpt lat="49.80388" lon="4.83862">
        <ele>220</ele>
        <time>2022-06-06T10:42:20.000Z</time>
      </trkpt>
      <trkpt lat="49.80383" lon="4.83861">
        <ele>220</ele>
        <time>2022-06-06T10:42:21.000Z</time>
      </trkpt>
      <trkpt lat="49.80379" lon="4.83861">
        <ele>220</ele>
        <time>2022-06-06T10:42:22.000Z</time>
      </trkpt>
      <trkpt lat="49.80374" lon="4.83861">
        <ele>220</ele>
        <time>2022-06-06T10:42:23.000Z</time>
      </trkpt>
      <trkpt lat="49.8037" lon="4.8386">
        <ele>220</ele>
        <time>2022-06-06T10:42:24.000Z</time>
      </trkpt>
      <trkpt lat="49.80365" lon="4.8386">
        <ele>220</ele>
        <time>2022-06-06T10:42:25.000Z</time>
      </trkpt>
      <trkpt lat="49.80361" lon="4.8386">
        <ele>220</ele>
        <time>2022-06-06T10:42:26.000Z</time>
      </trkpt>
      <trkpt lat="49.80356" lon="4.83859">
        <ele>220</ele>
        <time>2022-06-06T10:42:27.000Z</time>
      </trkpt>
      <trkpt lat="49.80351" lon="4.83859">
        <ele>220</ele>
        <time>2022-06-06T10:42:28.000Z</time>
      </trkpt>
      <trkpt lat="49.80347" lon="4.83858">
        <ele>220</ele>
        <time>2022-06-06T10:42:29.000Z</time>
      </trkpt>
      <trkpt lat="49.80343" lon="4.83858">
        <ele>220</ele>
        <time>2022-06-06T10:42:30.000Z</time>
      </trkpt>
      <trkpt lat="49.80338" lon="4.83858">
        <ele>220</ele>
        <time>2022-06-06T10:42:31.000Z</time>
      </trkpt>
      <trkpt lat="49.80334" lon="4.83857">
        <ele>220</ele>
        <time>2022-06-06T10:42:32.000Z</time>
      </trkpt>
      <trkpt lat="49.80329" lon="4.83857">
        <ele>220</ele>
        <time>2022-06-06T10:42:33.000Z</time>
      </trkpt>
      <trkpt lat="49.80325" lon="4.83856">
        <ele>220</ele>
        <time>2022-06-06T10:42:34.000Z</time>
      </trkpt>
      <trkpt lat="49.80321" lon="4.83856">
        <ele>220</ele>
        <time>2022-06-06T10:42:35.000Z</time>
      </trkpt>
      <trkpt lat="49.80317" lon="4.83856">
        <ele>220</ele>
        <time>2022-06-06T10:42:36.000Z</time>
      </trkpt>
      <trkpt lat="49.80313" lon="4.83856">
        <ele>220</ele>
        <time>2022-06-06T10:42:37.000Z</time>
      </trkpt>
      <trkpt lat="49.80309" lon="4.83855">
        <ele>220</ele>
        <time>2022-06-06T10:42:38.000Z</time>
      </trkpt>
      <trkpt lat="49.80304" lon="4.83854">
        <ele>220</ele>
        <time>2022-06-06T10:42:39.000Z</time>
      </trkpt>
      <trkpt lat="49.803" lon="4.83853">
        <ele>220</ele>
        <time>2022-06-06T10:42:40.000Z</time>
      </trkpt>
      <trkpt lat="49.80296" lon="4.83852">
        <ele>221</ele>
        <time>2022-06-06T10:42:41.000Z</time>
      </trkpt>
      <trkpt lat="49.80291" lon="4.83851">
        <ele>221</ele>
        <time>2022-06-06T10:42:42.000Z</time>
      </trkpt>
      <trkpt lat="49.80287" lon="4.8385">
        <ele>221</ele>
        <time>2022-06-06T10:42:43.000Z</time>
      </trkpt>
      <trkpt lat="49.80283" lon="4.83849">
        <ele>221</ele>
        <time>2022-06-06T10:42:44.000Z</time>
      </trkpt>
      <trkpt lat="49.80279" lon="4.83847">
        <ele>221</ele>
        <time>2022-06-06T10:42:45.000Z</time>
      </trkpt>
      <trkpt lat="49.80275" lon="4.83847">
        <ele>221</ele>
        <time>2022-06-06T10:42:46.000Z</time>
      </trkpt>
      <trkpt lat="49.80271" lon="4.83846">
        <ele>222</ele>
        <time>2022-06-06T10:42:47.000Z</time>
      </trkpt>
      <trkpt lat="49.80266" lon="4.83845">
        <ele>222</ele>
        <time>2022-06-06T10:42:48.000Z</time>
      </trkpt>
      <trkpt lat="49.80262" lon="4.83844">
        <ele>222</ele>
        <time>2022-06-06T10:42:49.000Z</time>
      </trkpt>
      <trkpt lat="49.80258" lon="4.83843">
        <ele>222</ele>
        <time>2022-06-06T10:42:50.000Z</time>
      </trkpt>
      <trkpt lat="49.80254" lon="4.83842">
        <ele>222</ele>
        <time>2022-06-06T10:42:51.000Z</time>
      </trkpt>
      <trkpt lat="49.8025" lon="4.83842">
        <ele>222</ele>
        <time>2022-06-06T10:42:52.000Z</time>
      </trkpt>
      <trkpt lat="49.80246" lon="4.83841">
        <ele>223</ele>
        <time>2022-06-06T10:42:53.000Z</time>
      </trkpt>
      <trkpt lat="49.80242" lon="4.83841">
        <ele>223</ele>
        <time>2022-06-06T10:42:54.000Z</time>
      </trkpt>
      <trkpt lat="49.80238" lon="4.83841">
        <ele>223</ele>
        <time>2022-06-06T10:42:55.000Z</time>
      </trkpt>
      <trkpt lat="49.80233" lon="4.83842">
        <ele>223</ele>
        <time>2022-06-06T10:42:56.000Z</time>
      </trkpt>
      <trkpt lat="49.80228" lon="4.83843">
        <ele>223</ele>
        <time>2022-06-06T10:42:57.000Z</time>
      </trkpt>
      <trkpt lat="49.80224" lon="4.83843">
        <ele>223</ele>
        <time>2022-06-06T10:42:58.000Z</time>
      </trkpt>
      <trkpt lat="49.80219" lon="4.83842">
        <ele>224</ele>
        <time>2022-06-06T10:42:59.000Z</time>
      </trkpt>
      <trkpt lat="49.80214" lon="4.83842">
        <ele>224</ele>
        <time>2022-06-06T10:43:00.000Z</time>
      </trkpt>
      <trkpt lat="49.80208" lon="4.83842">
        <ele>224</ele>
        <time>2022-06-06T10:43:01.000Z</time>
      </trkpt>
      <trkpt lat="49.80203" lon="4.83841">
        <ele>224</ele>
        <time>2022-06-06T10:43:02.000Z</time>
      </trkpt>
      <trkpt lat="49.80198" lon="4.8384">
        <ele>224</ele>
        <time>2022-06-06T10:43:03.000Z</time>
      </trkpt>
      <trkpt lat="49.80193" lon="4.83839">
        <ele>225</ele>
        <time>2022-06-06T10:43:04.000Z</time>
      </trkpt>
      <trkpt lat="49.80188" lon="4.83839">
        <ele>225</ele>
        <time>2022-06-06T10:43:05.000Z</time>
      </trkpt>
      <trkpt lat="49.80183" lon="4.83838">
        <ele>225</ele>
        <time>2022-06-06T10:43:06.000Z</time>
      </trkpt>
      <trkpt lat="49.80178" lon="4.83837">
        <ele>225</ele>
        <time>2022-06-06T10:43:07.000Z</time>
      </trkpt>
      <trkpt lat="49.80173" lon="4.83837">
        <ele>225</ele>
        <time>2022-06-06T10:43:08.000Z</time>
      </trkpt>
      <trkpt lat="49.80168" lon="4.83836">
        <ele>226</ele>
        <time>2022-06-06T10:43:09.000Z</time>
      </trkpt>
      <trkpt lat="49.80162" lon="4.83835">
        <ele>226</ele>
        <time>2022-06-06T10:43:10.000Z</time>
      </trkpt>
      <trkpt lat="49.80156" lon="4.83833">
        <ele>226</ele>
        <time>2022-06-06T10:43:11.000Z</time>
      </trkpt>
      <trkpt lat="49.80151" lon="4.83831">
        <ele>226</ele>
        <time>2022-06-06T10:43:12.000Z</time>
      </trkpt>
      <trkpt lat="49.80146" lon="4.83829">
        <ele>226</ele>
        <time>2022-06-06T10:43:13.000Z</time>
      </trkpt>
      <trkpt lat="49.8014" lon="4.83827">
        <ele>226</ele>
        <time>2022-06-06T10:43:14.000Z</time>
      </trkpt>
      <trkpt lat="49.80134" lon="4.83826">
        <ele>226</ele>
        <time>2022-06-06T10:43:15.000Z</time>
      </trkpt>
      <trkpt lat="49.80128" lon="4.83825">
        <ele>226</ele>
        <time>2022-06-06T10:43:16.000Z</time>
      </trkpt>
      <trkpt lat="49.80123" lon="4.83824">
        <ele>226</ele>
        <time>2022-06-06T10:43:17.000Z</time>
      </trkpt>
      <trkpt lat="49.80119" lon="4.83823">
        <ele>226</ele>
        <time>2022-06-06T10:43:18.000Z</time>
      </trkpt>
      <trkpt lat="49.80114" lon="4.83822">
        <ele>226</ele>
        <time>2022-06-06T10:43:19.000Z</time>
      </trkpt>
      <trkpt lat="49.80108" lon="4.83821">
        <ele>226</ele>
        <time>2022-06-06T10:43:20.000Z</time>
      </trkpt>
      <trkpt lat="49.80103" lon="4.8382">
        <ele>226</ele>
        <time>2022-06-06T10:43:21.000Z</time>
      </trkpt>
      <trkpt lat="49.80097" lon="4.83819">
        <ele>227</ele>
        <time>2022-06-06T10:43:22.000Z</time>
      </trkpt>
      <trkpt lat="49.80092" lon="4.83817">
        <ele>227</ele>
        <time>2022-06-06T10:43:23.000Z</time>
      </trkpt>
      <trkpt lat="49.80087" lon="4.83815">
        <ele>227</ele>
        <time>2022-06-06T10:43:24.000Z</time>
      </trkpt>
      <trkpt lat="49.80082" lon="4.83813">
        <ele>227</ele>
        <time>2022-06-06T10:43:25.000Z</time>
      </trkpt>
      <trkpt lat="49.80077" lon="4.8381">
        <ele>228</ele>
        <time>2022-06-06T10:43:26.000Z</time>
      </trkpt>
      <trkpt lat="49.80072" lon="4.83808">
        <ele>228</ele>
        <time>2022-06-06T10:43:27.000Z</time>
      </trkpt>
      <trkpt lat="49.80067" lon="4.83807">
        <ele>228</ele>
        <time>2022-06-06T10:43:28.000Z</time>
      </trkpt>
      <trkpt lat="49.80062" lon="4.83806">
        <ele>228</ele>
        <time>2022-06-06T10:43:29.000Z</time>
      </trkpt>
      <trkpt lat="49.80057" lon="4.83805">
        <ele>228</ele>
        <time>2022-06-06T10:43:30.000Z</time>
      </trkpt>
      <trkpt lat="49.80052" lon="4.83803">
        <ele>228</ele>
        <time>2022-06-06T10:43:31.000Z</time>
      </trkpt>
      <trkpt lat="49.80047" lon="4.83801">
        <ele>228</ele>
        <time>2022-06-06T10:43:32.000Z</time>
      </trkpt>
      <trkpt lat="49.80042" lon="4.83801">
        <ele>229</ele>
        <time>2022-06-06T10:43:33.000Z</time>
      </trkpt>
      <trkpt lat="49.80036" lon="4.838">
        <ele>229</ele>
        <time>2022-06-06T10:43:34.000Z</time>
      </trkpt>
      <trkpt lat="49.80031" lon="4.83798">
        <ele>229</ele>
        <time>2022-06-06T10:43:35.000Z</time>
      </trkpt>
      <trkpt lat="49.80026" lon="4.83796">
        <ele>229</ele>
        <time>2022-06-06T10:43:36.000Z</time>
      </trkpt>
      <trkpt lat="49.8002" lon="4.83794">
        <ele>229</ele>
        <time>2022-06-06T10:43:37.000Z</time>
      </trkpt>
      <trkpt lat="49.80015" lon="4.83792">
        <ele>229</ele>
        <time>2022-06-06T10:43:38.000Z</time>
      </trkpt>
      <trkpt lat="49.8001" lon="4.8379">
        <ele>229</ele>
        <time>2022-06-06T10:43:39.000Z</time>
      </trkpt>
      <trkpt lat="49.80004" lon="4.83788">
        <ele>230</ele>
        <time>2022-06-06T10:43:40.000Z</time>
      </trkpt>
      <trkpt lat="49.79998" lon="4.83786">
        <ele>230</ele>
        <time>2022-06-06T10:43:41.000Z</time>
      </trkpt>
      <trkpt lat="49.79993" lon="4.83784">
        <ele>230</ele>
        <time>2022-06-06T10:43:42.000Z</time>
      </trkpt>
      <trkpt lat="49.79987" lon="4.83782">
        <ele>230</ele>
        <time>2022-06-06T10:43:43.000Z</time>
      </trkpt>
      <trkpt lat="49.79981" lon="4.83781">
        <ele>230</ele>
        <time>2022-06-06T10:43:44.000Z</time>
      </trkpt>
      <trkpt lat="49.79975" lon="4.83779">
        <ele>230</ele>
        <time>2022-06-06T10:43:45.000Z</time>
      </trkpt>
      <trkpt lat="49.7997" lon="4.83778">
        <ele>230</ele>
        <time>2022-06-06T10:43:46.000Z</time>
      </trkpt>
      <trkpt lat="49.79965" lon="4.83776">
        <ele>230</ele>
        <time>2022-06-06T10:43:47.000Z</time>
      </trkpt>
      <trkpt lat="49.7996" lon="4.83775">
        <ele>230</ele>
        <time>2022-06-06T10:43:48.000Z</time>
      </trkpt>
      <trkpt lat="49.79954" lon="4.83773">
        <ele>230</ele>
        <time>2022-06-06T10:43:49.000Z</time>
      </trkpt>
      <trkpt lat="49.79948" lon="4.83772">
        <ele>230</ele>
        <time>2022-06-06T10:43:50.000Z</time>
      </trkpt>
      <trkpt lat="49.79943" lon="4.83771">
        <ele>231</ele>
        <time>2022-06-06T10:43:51.000Z</time>
      </trkpt>
      <trkpt lat="49.79938" lon="4.8377">
        <ele>231</ele>
        <time>2022-06-06T10:43:52.000Z</time>
      </trkpt>
      <trkpt lat="49.79932" lon="4.83769">
        <ele>231</ele>
        <time>2022-06-06T10:43:53.000Z</time>
      </trkpt>
      <trkpt lat="49.79927" lon="4.83767">
        <ele>231</ele>
        <time>2022-06-06T10:43:54.000Z</time>
      </trkpt>
      <trkpt lat="49.79921" lon="4.83766">
        <ele>231</ele>
        <time>2022-06-06T10:43:55.000Z</time>
      </trkpt>
      <trkpt lat="49.79916" lon="4.83766">
        <ele>231</ele>
        <time>2022-06-06T10:43:56.000Z</time>
      </trkpt>
      <trkpt lat="49.7991" lon="4.83764">
        <ele>231</ele>
        <time>2022-06-06T10:43:57.000Z</time>
      </trkpt>
      <trkpt lat="49.79904" lon="4.83762">
        <ele>232</ele>
        <time>2022-06-06T10:43:58.000Z</time>
      </trkpt>
      <trkpt lat="49.79899" lon="4.8376">
        <ele>232</ele>
        <time>2022-06-06T10:43:59.000Z</time>
      </trkpt>
      <trkpt lat="49.79893" lon="4.83759">
        <ele>232</ele>
        <time>2022-06-06T10:44:00.000Z</time>
      </trkpt>
      <trkpt lat="49.79887" lon="4.83755">
        <ele>232</ele>
        <time>2022-06-06T10:44:01.000Z</time>
      </trkpt>
      <trkpt lat="49.7988" lon="4.83753">
        <ele>232</ele>
        <time>2022-06-06T10:44:02.000Z</time>
      </trkpt>
      <trkpt lat="49.79874" lon="4.83751">
        <ele>233</ele>
        <time>2022-06-06T10:44:03.000Z</time>
      </trkpt>
      <trkpt lat="49.79867" lon="4.83749">
        <ele>233</ele>
        <time>2022-06-06T10:44:04.000Z</time>
      </trkpt>
      <trkpt lat="49.79861" lon="4.83747">
        <ele>233</ele>
        <time>2022-06-06T10:44:05.000Z</time>
      </trkpt>
      <trkpt lat="49.79854" lon="4.83744">
        <ele>233</ele>
        <time>2022-06-06T10:44:06.000Z</time>
      </trkpt>
      <trkpt lat="49.79848" lon="4.83741">
        <ele>233</ele>
        <time>2022-06-06T10:44:07.000Z</time>
      </trkpt>
      <trkpt lat="49.79842" lon="4.83739">
        <ele>233</ele>
        <time>2022-06-06T10:44:08.000Z</time>
      </trkpt>
      <trkpt lat="49.79836" lon="4.83738">
        <ele>234</ele>
        <time>2022-06-06T10:44:09.000Z</time>
      </trkpt>
      <trkpt lat="49.79829" lon="4.83737">
        <ele>234</ele>
        <time>2022-06-06T10:44:10.000Z</time>
      </trkpt>
      <trkpt lat="49.79823" lon="4.83735">
        <ele>234</ele>
        <time>2022-06-06T10:44:11.000Z</time>
      </trkpt>
      <trkpt lat="49.79817" lon="4.83734">
        <ele>234</ele>
        <time>2022-06-06T10:44:12.000Z</time>
      </trkpt>
      <trkpt lat="49.79811" lon="4.83733">
        <ele>234</ele>
        <time>2022-06-06T10:44:13.000Z</time>
      </trkpt>
      <trkpt lat="49.79804" lon="4.83731">
        <ele>234</ele>
        <time>2022-06-06T10:44:14.000Z</time>
      </trkpt>
      <trkpt lat="49.79799" lon="4.83729">
        <ele>234</ele>
        <time>2022-06-06T10:44:15.000Z</time>
      </trkpt>
      <trkpt lat="49.79793" lon="4.83728">
        <ele>234</ele>
        <time>2022-06-06T10:44:16.000Z</time>
      </trkpt>
      <trkpt lat="49.79787" lon="4.83726">
        <ele>234</ele>
        <time>2022-06-06T10:44:17.000Z</time>
      </trkpt>
      <trkpt lat="49.79781" lon="4.83725">
        <ele>234</ele>
        <time>2022-06-06T10:44:18.000Z</time>
      </trkpt>
      <trkpt lat="49.79775" lon="4.83724">
        <ele>234</ele>
        <time>2022-06-06T10:44:19.000Z</time>
      </trkpt>
      <trkpt lat="49.79769" lon="4.83723">
        <ele>234</ele>
        <time>2022-06-06T10:44:20.000Z</time>
      </trkpt>
      <trkpt lat="49.79763" lon="4.83723">
        <ele>234</ele>
        <time>2022-06-06T10:44:21.000Z</time>
      </trkpt>
      <trkpt lat="49.79757" lon="4.83724">
        <ele>234</ele>
        <time>2022-06-06T10:44:22.000Z</time>
      </trkpt>
      <trkpt lat="49.7975" lon="4.83724">
        <ele>235</ele>
        <time>2022-06-06T10:44:23.000Z</time>
      </trkpt>
      <trkpt lat="49.79743" lon="4.83724">
        <ele>234</ele>
        <time>2022-06-06T10:44:24.000Z</time>
      </trkpt>
      <trkpt lat="49.79737" lon="4.83725">
        <ele>234</ele>
        <time>2022-06-06T10:44:25.000Z</time>
      </trkpt>
      <trkpt lat="49.7973" lon="4.83724">
        <ele>234</ele>
        <time>2022-06-06T10:44:26.000Z</time>
      </trkpt>
      <trkpt lat="49.79724" lon="4.83724">
        <ele>234</ele>
        <time>2022-06-06T10:44:27.000Z</time>
      </trkpt>
      <trkpt lat="49.79717" lon="4.83725">
        <ele>234</ele>
        <time>2022-06-06T10:44:28.000Z</time>
      </trkpt>
      <trkpt lat="49.79709" lon="4.83726">
        <ele>234</ele>
        <time>2022-06-06T10:44:29.000Z</time>
      </trkpt>
      <trkpt lat="49.79701" lon="4.83726">
        <ele>234</ele>
        <time>2022-06-06T10:44:30.000Z</time>
      </trkpt>
      <trkpt lat="49.79694" lon="4.83727">
        <ele>234</ele>
        <time>2022-06-06T10:44:31.000Z</time>
      </trkpt>
      <trkpt lat="49.79686" lon="4.83727">
        <ele>234</ele>
        <time>2022-06-06T10:44:32.000Z</time>
      </trkpt>
      <trkpt lat="49.79678" lon="4.83727">
        <ele>234</ele>
        <time>2022-06-06T10:44:33.000Z</time>
      </trkpt>
      <trkpt lat="49.79671" lon="4.83728">
        <ele>234</ele>
        <time>2022-06-06T10:44:34.000Z</time>
      </trkpt>
      <trkpt lat="49.79663" lon="4.83727">
        <ele>234</ele>
        <time>2022-06-06T10:44:35.000Z</time>
      </trkpt>
      <trkpt lat="49.79655" lon="4.83728">
        <ele>234</ele>
        <time>2022-06-06T10:44:36.000Z</time>
      </trkpt>
      <trkpt lat="49.79647" lon="4.83729">
        <ele>234</ele>
        <time>2022-06-06T10:44:37.000Z</time>
      </trkpt>
      <trkpt lat="49.79638" lon="4.83729">
        <ele>234</ele>
        <time>2022-06-06T10:44:38.000Z</time>
      </trkpt>
      <trkpt lat="49.7963" lon="4.8373">
        <ele>234</ele>
        <time>2022-06-06T10:44:39.000Z</time>
      </trkpt>
      <trkpt lat="49.79622" lon="4.8373">
        <ele>234</ele>
        <time>2022-06-06T10:44:40.000Z</time>
      </trkpt>
      <trkpt lat="49.79614" lon="4.8373">
        <ele>233</ele>
        <time>2022-06-06T10:44:41.000Z</time>
      </trkpt>
      <trkpt lat="49.79606" lon="4.8373">
        <ele>233</ele>
        <time>2022-06-06T10:44:42.000Z</time>
      </trkpt>
      <trkpt lat="49.79598" lon="4.8373">
        <ele>233</ele>
        <time>2022-06-06T10:44:43.000Z</time>
      </trkpt>
      <trkpt lat="49.7959" lon="4.8373">
        <ele>233</ele>
        <time>2022-06-06T10:44:44.000Z</time>
      </trkpt>
      <trkpt lat="49.79582" lon="4.8373">
        <ele>232</ele>
        <time>2022-06-06T10:44:45.000Z</time>
      </trkpt>
      <trkpt lat="49.79574" lon="4.8373">
        <ele>232</ele>
        <time>2022-06-06T10:44:46.000Z</time>
      </trkpt>
      <trkpt lat="49.79566" lon="4.8373">
        <ele>231</ele>
        <time>2022-06-06T10:44:47.000Z</time>
      </trkpt>
      <trkpt lat="49.79558" lon="4.83729">
        <ele>231</ele>
        <time>2022-06-06T10:44:48.000Z</time>
      </trkpt>
      <trkpt lat="49.7955" lon="4.83727">
        <ele>231</ele>
        <time>2022-06-06T10:44:49.000Z</time>
      </trkpt>
      <trkpt lat="49.79542" lon="4.83726">
        <ele>230</ele>
        <time>2022-06-06T10:44:50.000Z</time>
      </trkpt>
      <trkpt lat="49.79534" lon="4.83723">
        <ele>230</ele>
        <time>2022-06-06T10:44:51.000Z</time>
      </trkpt>
      <trkpt lat="49.79526" lon="4.8372">
        <ele>230</ele>
        <time>2022-06-06T10:44:52.000Z</time>
      </trkpt>
      <trkpt lat="49.79519" lon="4.83717">
        <ele>229</ele>
        <time>2022-06-06T10:44:53.000Z</time>
      </trkpt>
      <trkpt lat="49.79512" lon="4.83714">
        <ele>229</ele>
        <time>2022-06-06T10:44:54.000Z</time>
      </trkpt>
      <trkpt lat="49.79505" lon="4.83712">
        <ele>229</ele>
        <time>2022-06-06T10:44:55.000Z</time>
      </trkpt>
      <trkpt lat="49.79498" lon="4.83711">
        <ele>229</ele>
        <time>2022-06-06T10:44:56.000Z</time>
      </trkpt>
      <trkpt lat="49.79491" lon="4.8371">
        <ele>228</ele>
        <time>2022-06-06T10:44:57.000Z</time>
      </trkpt>
      <trkpt lat="49.79484" lon="4.83709">
        <ele>228</ele>
        <time>2022-06-06T10:44:58.000Z</time>
      </trkpt>
      <trkpt lat="49.79477" lon="4.83708">
        <ele>228</ele>
        <time>2022-06-06T10:44:59.000Z</time>
      </trkpt>
      <trkpt lat="49.7947" lon="4.83708">
        <ele>228</ele>
        <time>2022-06-06T10:45:00.000Z</time>
      </trkpt>
      <trkpt lat="49.79462" lon="4.83706">
        <ele>228</ele>
        <time>2022-06-06T10:45:01.000Z</time>
      </trkpt>
      <trkpt lat="49.79455" lon="4.83703">
        <ele>228</ele>
        <time>2022-06-06T10:45:02.000Z</time>
      </trkpt>
      <trkpt lat="49.79449" lon="4.837">
        <ele>227</ele>
        <time>2022-06-06T10:45:03.000Z</time>
      </trkpt>
      <trkpt lat="49.79442" lon="4.83699">
        <ele>227</ele>
        <time>2022-06-06T10:45:04.000Z</time>
      </trkpt>
      <trkpt lat="49.79436" lon="4.83698">
        <ele>227</ele>
        <time>2022-06-06T10:45:05.000Z</time>
      </trkpt>
      <trkpt lat="49.79429" lon="4.83697">
        <ele>227</ele>
        <time>2022-06-06T10:45:06.000Z</time>
      </trkpt>
      <trkpt lat="49.79423" lon="4.83697">
        <ele>227</ele>
        <time>2022-06-06T10:45:07.000Z</time>
      </trkpt>
      <trkpt lat="49.79416" lon="4.83696">
        <ele>227</ele>
        <time>2022-06-06T10:45:08.000Z</time>
      </trkpt>
      <trkpt lat="49.79408" lon="4.83695">
        <ele>227</ele>
        <time>2022-06-06T10:45:09.000Z</time>
      </trkpt>
      <trkpt lat="49.79401" lon="4.83694">
        <ele>227</ele>
        <time>2022-06-06T10:45:10.000Z</time>
      </trkpt>
      <trkpt lat="49.79394" lon="4.83694">
        <ele>228</ele>
        <time>2022-06-06T10:45:11.000Z</time>
      </trkpt>
      <trkpt lat="49.79387" lon="4.83695">
        <ele>228</ele>
        <time>2022-06-06T10:45:12.000Z</time>
      </trkpt>
      <trkpt lat="49.79379" lon="4.83697">
        <ele>228</ele>
        <time>2022-06-06T10:45:13.000Z</time>
      </trkpt>
      <trkpt lat="49.79372" lon="4.83699">
        <ele>228</ele>
        <time>2022-06-06T10:45:14.000Z</time>
      </trkpt>
      <trkpt lat="49.79365" lon="4.83703">
        <ele>228</ele>
        <time>2022-06-06T10:45:15.000Z</time>
      </trkpt>
      <trkpt lat="49.79359" lon="4.83707">
        <ele>228</ele>
        <time>2022-06-06T10:45:16.000Z</time>
      </trkpt>
      <trkpt lat="49.79353" lon="4.83713">
        <ele>228</ele>
        <time>2022-06-06T10:45:17.000Z</time>
      </trkpt>
      <trkpt lat="49.79348" lon="4.83719">
        <ele>228</ele>
        <time>2022-06-06T10:45:18.000Z</time>
      </trkpt>
      <trkpt lat="49.79343" lon="4.83727">
        <ele>228</ele>
        <time>2022-06-06T10:45:19.000Z</time>
      </trkpt>
      <trkpt lat="49.79338" lon="4.83734">
        <ele>228</ele>
        <time>2022-06-06T10:45:20.000Z</time>
      </trkpt>
      <trkpt lat="49.79333" lon="4.8374">
        <ele>228</ele>
        <time>2022-06-06T10:45:21.000Z</time>
      </trkpt>
      <trkpt lat="49.79328" lon="4.83748">
        <ele>228</ele>
        <time>2022-06-06T10:45:22.000Z</time>
      </trkpt>
      <trkpt lat="49.79323" lon="4.83755">
        <ele>228</ele>
        <time>2022-06-06T10:45:23.000Z</time>
      </trkpt>
      <trkpt lat="49.79318" lon="4.83762">
        <ele>228</ele>
        <time>2022-06-06T10:45:24.000Z</time>
      </trkpt>
      <trkpt lat="49.79313" lon="4.83769">
        <ele>227</ele>
        <time>2022-06-06T10:45:25.000Z</time>
      </trkpt>
      <trkpt lat="49.79309" lon="4.83777">
        <ele>227</ele>
        <time>2022-06-06T10:45:26.000Z</time>
      </trkpt>
      <trkpt lat="49.79304" lon="4.83785">
        <ele>227</ele>
        <time>2022-06-06T10:45:27.000Z</time>
      </trkpt>
      <trkpt lat="49.793" lon="4.83794">
        <ele>227</ele>
        <time>2022-06-06T10:45:28.000Z</time>
      </trkpt>
      <trkpt lat="49.79297" lon="4.83803">
        <ele>227</ele>
        <time>2022-06-06T10:45:29.000Z</time>
      </trkpt>
      <trkpt lat="49.79292" lon="4.83812">
        <ele>227</ele>
        <time>2022-06-06T10:45:30.000Z</time>
      </trkpt>
      <trkpt lat="49.79288" lon="4.83821">
        <ele>227</ele>
        <time>2022-06-06T10:45:31.000Z</time>
      </trkpt>
      <trkpt lat="49.79283" lon="4.83829">
        <ele>227</ele>
        <time>2022-06-06T10:45:32.000Z</time>
      </trkpt>
      <trkpt lat="49.79278" lon="4.83838">
        <ele>227</ele>
        <time>2022-06-06T10:45:33.000Z</time>
      </trkpt>
      <trkpt lat="49.79274" lon="4.83847">
        <ele>226</ele>
        <time>2022-06-06T10:45:34.000Z</time>
      </trkpt>
      <trkpt lat="49.7927" lon="4.83857">
        <ele>226</ele>
        <time>2022-06-06T10:45:35.000Z</time>
      </trkpt>
      <trkpt lat="49.79267" lon="4.83866">
        <ele>226</ele>
        <time>2022-06-06T10:45:36.000Z</time>
      </trkpt>
      <trkpt lat="49.79263" lon="4.83875">
        <ele>226</ele>
        <time>2022-06-06T10:45:37.000Z</time>
      </trkpt>
      <trkpt lat="49.79259" lon="4.83883">
        <ele>225</ele>
        <time>2022-06-06T10:45:38.000Z</time>
      </trkpt>
      <trkpt lat="49.79255" lon="4.83892">
        <ele>225</ele>
        <time>2022-06-06T10:45:39.000Z</time>
      </trkpt>
      <trkpt lat="49.79251" lon="4.83901">
        <ele>225</ele>
        <time>2022-06-06T10:45:40.000Z</time>
      </trkpt>
      <trkpt lat="49.79247" lon="4.83911">
        <ele>224</ele>
        <time>2022-06-06T10:45:41.000Z</time>
      </trkpt>
      <trkpt lat="49.79242" lon="4.8392">
        <ele>224</ele>
        <time>2022-06-06T10:45:42.000Z</time>
      </trkpt>
      <trkpt lat="49.79238" lon="4.83929">
        <ele>224</ele>
        <time>2022-06-06T10:45:43.000Z</time>
      </trkpt>
      <trkpt lat="49.79234" lon="4.83939">
        <ele>224</ele>
        <time>2022-06-06T10:45:44.000Z</time>
      </trkpt>
      <trkpt lat="49.79229" lon="4.83948">
        <ele>224</ele>
        <time>2022-06-06T10:45:45.000Z</time>
      </trkpt>
      <trkpt lat="49.79225" lon="4.83957">
        <ele>224</ele>
        <time>2022-06-06T10:45:46.000Z</time>
      </trkpt>
      <trkpt lat="49.7922" lon="4.83967">
        <ele>224</ele>
        <time>2022-06-06T10:45:47.000Z</time>
      </trkpt>
      <trkpt lat="49.79216" lon="4.83977">
        <ele>224</ele>
        <time>2022-06-06T10:45:48.000Z</time>
      </trkpt>
      <trkpt lat="49.79211" lon="4.83986">
        <ele>223</ele>
        <time>2022-06-06T10:45:49.000Z</time>
      </trkpt>
      <trkpt lat="49.79207" lon="4.83995">
        <ele>223</ele>
        <time>2022-06-06T10:45:50.000Z</time>
      </trkpt>
      <trkpt lat="49.79202" lon="4.84004">
        <ele>223</ele>
        <time>2022-06-06T10:45:51.000Z</time>
      </trkpt>
      <trkpt lat="49.79197" lon="4.84013">
        <ele>223</ele>
        <time>2022-06-06T10:45:52.000Z</time>
      </trkpt>
      <trkpt lat="49.79192" lon="4.84022">
        <ele>223</ele>
        <time>2022-06-06T10:45:53.000Z</time>
      </trkpt>
      <trkpt lat="49.79187" lon="4.84031">
        <ele>223</ele>
        <time>2022-06-06T10:45:54.000Z</time>
      </trkpt>
      <trkpt lat="49.79182" lon="4.84039">
        <ele>223</ele>
        <time>2022-06-06T10:45:55.000Z</time>
      </trkpt>
      <trkpt lat="49.79179" lon="4.84047">
        <ele>223</ele>
        <time>2022-06-06T10:45:56.000Z</time>
      </trkpt>
      <trkpt lat="49.79174" lon="4.84056">
        <ele>223</ele>
        <time>2022-06-06T10:45:57.000Z</time>
      </trkpt>
      <trkpt lat="49.7917" lon="4.84064">
        <ele>223</ele>
        <time>2022-06-06T10:45:58.000Z</time>
      </trkpt>
      <trkpt lat="49.79166" lon="4.84072">
        <ele>223</ele>
        <time>2022-06-06T10:45:59.000Z</time>
      </trkpt>
      <trkpt lat="49.79162" lon="4.84079">
        <ele>223</ele>
        <time>2022-06-06T10:46:00.000Z</time>
      </trkpt>
      <trkpt lat="49.79158" lon="4.84086">
        <ele>223</ele>
        <time>2022-06-06T10:46:01.000Z</time>
      </trkpt>
      <trkpt lat="49.79154" lon="4.84093">
        <ele>223</ele>
        <time>2022-06-06T10:46:02.000Z</time>
      </trkpt>
      <trkpt lat="49.7915" lon="4.841">
        <ele>223</ele>
        <time>2022-06-06T10:46:03.000Z</time>
      </trkpt>
      <trkpt lat="49.79145" lon="4.84107">
        <ele>223</ele>
        <time>2022-06-06T10:46:04.000Z</time>
      </trkpt>
      <trkpt lat="49.7914" lon="4.84113">
        <ele>223</ele>
        <time>2022-06-06T10:46:05.000Z</time>
      </trkpt>
      <trkpt lat="49.79136" lon="4.8412">
        <ele>223</ele>
        <time>2022-06-06T10:46:06.000Z</time>
      </trkpt>
      <trkpt lat="49.79131" lon="4.84126">
        <ele>223</ele>
        <time>2022-06-06T10:46:07.000Z</time>
      </trkpt>
      <trkpt lat="49.79125" lon="4.84133">
        <ele>223</ele>
        <time>2022-06-06T10:46:08.000Z</time>
      </trkpt>
      <trkpt lat="49.7912" lon="4.84139">
        <ele>223</ele>
        <time>2022-06-06T10:46:09.000Z</time>
      </trkpt>
      <trkpt lat="49.79115" lon="4.84146">
        <ele>223</ele>
        <time>2022-06-06T10:46:10.000Z</time>
      </trkpt>
      <trkpt lat="49.79109" lon="4.84153">
        <ele>223</ele>
        <time>2022-06-06T10:46:11.000Z</time>
      </trkpt>
      <trkpt lat="49.79103" lon="4.8416">
        <ele>223</ele>
        <time>2022-06-06T10:46:12.000Z</time>
      </trkpt>
      <trkpt lat="49.79098" lon="4.84167">
        <ele>223</ele>
        <time>2022-06-06T10:46:13.000Z</time>
      </trkpt>
      <trkpt lat="49.79092" lon="4.84174">
        <ele>223</ele>
        <time>2022-06-06T10:46:14.000Z</time>
      </trkpt>
      <trkpt lat="49.79086" lon="4.84181">
        <ele>223</ele>
        <time>2022-06-06T10:46:15.000Z</time>
      </trkpt>
      <trkpt lat="49.7908" lon="4.84187">
        <ele>223</ele>
        <time>2022-06-06T10:46:16.000Z</time>
      </trkpt>
      <trkpt lat="49.79075" lon="4.84194">
        <ele>223</ele>
        <time>2022-06-06T10:46:17.000Z</time>
      </trkpt>
      <trkpt lat="49.79069" lon="4.842">
        <ele>223</ele>
        <time>2022-06-06T10:46:18.000Z</time>
      </trkpt>
      <trkpt lat="49.79063" lon="4.84207">
        <ele>223</ele>
        <time>2022-06-06T10:46:19.000Z</time>
      </trkpt>
      <trkpt lat="49.79057" lon="4.84214">
        <ele>223</ele>
        <time>2022-06-06T10:46:20.000Z</time>
      </trkpt>
      <trkpt lat="49.79052" lon="4.84221">
        <ele>223</ele>
        <time>2022-06-06T10:46:21.000Z</time>
      </trkpt>
      <trkpt lat="49.79047" lon="4.84228">
        <ele>223</ele>
        <time>2022-06-06T10:46:22.000Z</time>
      </trkpt>
      <trkpt lat="49.79042" lon="4.84234">
        <ele>223</ele>
        <time>2022-06-06T10:46:23.000Z</time>
      </trkpt>
      <trkpt lat="49.79036" lon="4.8424">
        <ele>223</ele>
        <time>2022-06-06T10:46:24.000Z</time>
      </trkpt>
      <trkpt lat="49.7903" lon="4.84245">
        <ele>223</ele>
        <time>2022-06-06T10:46:25.000Z</time>
      </trkpt>
      <trkpt lat="49.79025" lon="4.84249">
        <ele>223</ele>
        <time>2022-06-06T10:46:26.000Z</time>
      </trkpt>
      <trkpt lat="49.79019" lon="4.84254">
        <ele>223</ele>
        <time>2022-06-06T10:46:27.000Z</time>
      </trkpt>
      <trkpt lat="49.79014" lon="4.84259">
        <ele>223</ele>
        <time>2022-06-06T10:46:28.000Z</time>
      </trkpt>
      <trkpt lat="49.79008" lon="4.84263">
        <ele>223</ele>
        <time>2022-06-06T10:46:29.000Z</time>
      </trkpt>
      <trkpt lat="49.79002" lon="4.84266">
        <ele>223</ele>
        <time>2022-06-06T10:46:30.000Z</time>
      </trkpt>
      <trkpt lat="49.78996" lon="4.84269">
        <ele>223</ele>
        <time>2022-06-06T10:46:31.000Z</time>
      </trkpt>
      <trkpt lat="49.78989" lon="4.84273">
        <ele>223</ele>
        <time>2022-06-06T10:46:32.000Z</time>
      </trkpt>
      <trkpt lat="49.78982" lon="4.84278">
        <ele>223</ele>
        <time>2022-06-06T10:46:33.000Z</time>
      </trkpt>
      <trkpt lat="49.78975" lon="4.84283">
        <ele>223</ele>
        <time>2022-06-06T10:46:34.000Z</time>
      </trkpt>
      <trkpt lat="49.78968" lon="4.84287">
        <ele>223</ele>
        <time>2022-06-06T10:46:35.000Z</time>
      </trkpt>
      <trkpt lat="49.78962" lon="4.84292">
        <ele>223</ele>
        <time>2022-06-06T10:46:36.000Z</time>
      </trkpt>
      <trkpt lat="49.78955" lon="4.84297">
        <ele>223</ele>
        <time>2022-06-06T10:46:37.000Z</time>
      </trkpt>
      <trkpt lat="49.78948" lon="4.84301">
        <ele>223</ele>
        <time>2022-06-06T10:46:38.000Z</time>
      </trkpt>
      <trkpt lat="49.78941" lon="4.84306">
        <ele>223</ele>
        <time>2022-06-06T10:46:39.000Z</time>
      </trkpt>
      <trkpt lat="49.78935" lon="4.84309">
        <ele>223</ele>
        <time>2022-06-06T10:46:40.000Z</time>
      </trkpt>
      <trkpt lat="49.7893" lon="4.84311">
        <ele>223</ele>
        <time>2022-06-06T10:46:41.000Z</time>
      </trkpt>
      <trkpt lat="49.78924" lon="4.84312">
        <ele>223</ele>
        <time>2022-06-06T10:46:42.000Z</time>
      </trkpt>
      <trkpt lat="49.78919" lon="4.84313">
        <ele>223</ele>
        <time>2022-06-06T10:46:43.000Z</time>
      </trkpt>
      <trkpt lat="49.78913" lon="4.84315">
        <ele>223</ele>
        <time>2022-06-06T10:46:44.000Z</time>
      </trkpt>
      <trkpt lat="49.78907" lon="4.84318">
        <ele>223</ele>
        <time>2022-06-06T10:46:45.000Z</time>
      </trkpt>
      <trkpt lat="49.789" lon="4.8432">
        <ele>223</ele>
        <time>2022-06-06T10:46:46.000Z</time>
      </trkpt>
      <trkpt lat="49.78894" lon="4.84323">
        <ele>223</ele>
        <time>2022-06-06T10:46:47.000Z</time>
      </trkpt>
      <trkpt lat="49.78887" lon="4.84325">
        <ele>224</ele>
        <time>2022-06-06T10:46:48.000Z</time>
      </trkpt>
      <trkpt lat="49.7888" lon="4.84327">
        <ele>224</ele>
        <time>2022-06-06T10:46:49.000Z</time>
      </trkpt>
      <trkpt lat="49.78873" lon="4.84326">
        <ele>224</ele>
        <time>2022-06-06T10:46:50.000Z</time>
      </trkpt>
      <trkpt lat="49.78866" lon="4.84327">
        <ele>224</ele>
        <time>2022-06-06T10:46:51.000Z</time>
      </trkpt>
      <trkpt lat="49.78858" lon="4.84327">
        <ele>224</ele>
        <time>2022-06-06T10:46:52.000Z</time>
      </trkpt>
      <trkpt lat="49.7885" lon="4.84327">
        <ele>224</ele>
        <time>2022-06-06T10:46:53.000Z</time>
      </trkpt>
      <trkpt lat="49.78843" lon="4.84327">
        <ele>224</ele>
        <time>2022-06-06T10:46:54.000Z</time>
      </trkpt>
      <trkpt lat="49.78835" lon="4.84325">
        <ele>224</ele>
        <time>2022-06-06T10:46:55.000Z</time>
      </trkpt>
      <trkpt lat="49.78827" lon="4.84324">
        <ele>224</ele>
        <time>2022-06-06T10:46:56.000Z</time>
      </trkpt>
      <trkpt lat="49.78818" lon="4.84323">
        <ele>224</ele>
        <time>2022-06-06T10:46:57.000Z</time>
      </trkpt>
      <trkpt lat="49.7881" lon="4.84323">
        <ele>224</ele>
        <time>2022-06-06T10:46:58.000Z</time>
      </trkpt>
      <trkpt lat="49.78802" lon="4.84323">
        <ele>223</ele>
        <time>2022-06-06T10:46:59.000Z</time>
      </trkpt>
      <trkpt lat="49.78793" lon="4.84322">
        <ele>223</ele>
        <time>2022-06-06T10:47:00.000Z</time>
      </trkpt>
      <trkpt lat="49.78785" lon="4.84322">
        <ele>222</ele>
        <time>2022-06-06T10:47:01.000Z</time>
      </trkpt>
      <trkpt lat="49.78777" lon="4.84322">
        <ele>222</ele>
        <time>2022-06-06T10:47:02.000Z</time>
      </trkpt>
      <trkpt lat="49.78768" lon="4.84321">
        <ele>221</ele>
        <time>2022-06-06T10:47:03.000Z</time>
      </trkpt>
      <trkpt lat="49.7876" lon="4.8432">
        <ele>221</ele>
        <time>2022-06-06T10:47:04.000Z</time>
      </trkpt>
      <trkpt lat="49.78752" lon="4.84319">
        <ele>220</ele>
        <time>2022-06-06T10:47:05.000Z</time>
      </trkpt>
      <trkpt lat="49.78744" lon="4.84318">
        <ele>220</ele>
        <time>2022-06-06T10:47:06.000Z</time>
      </trkpt>
      <trkpt lat="49.78736" lon="4.84319">
        <ele>219</ele>
        <time>2022-06-06T10:47:07.000Z</time>
      </trkpt>
      <trkpt lat="49.78728" lon="4.84318">
        <ele>219</ele>
        <time>2022-06-06T10:47:08.000Z</time>
      </trkpt>
      <trkpt lat="49.7872" lon="4.84317">
        <ele>218</ele>
        <time>2022-06-06T10:47:09.000Z</time>
      </trkpt>
      <trkpt lat="49.78713" lon="4.84317">
        <ele>218</ele>
        <time>2022-06-06T10:47:10.000Z</time>
      </trkpt>
      <trkpt lat="49.78704" lon="4.84317">
        <ele>217</ele>
        <time>2022-06-06T10:47:11.000Z</time>
      </trkpt>
      <trkpt lat="49.78696" lon="4.84317">
        <ele>217</ele>
        <time>2022-06-06T10:47:12.000Z</time>
      </trkpt>
      <trkpt lat="49.78688" lon="4.84317">
        <ele>216</ele>
        <time>2022-06-06T10:47:13.000Z</time>
      </trkpt>
      <trkpt lat="49.7868" lon="4.84317">
        <ele>216</ele>
        <time>2022-06-06T10:47:14.000Z</time>
      </trkpt>
      <trkpt lat="49.78672" lon="4.84317">
        <ele>216</ele>
        <time>2022-06-06T10:47:15.000Z</time>
      </trkpt>
      <trkpt lat="49.78664" lon="4.84317">
        <ele>215</ele>
        <time>2022-06-06T10:47:16.000Z</time>
      </trkpt>
      <trkpt lat="49.78656" lon="4.84317">
        <ele>215</ele>
        <time>2022-06-06T10:47:17.000Z</time>
      </trkpt>
      <trkpt lat="49.78648" lon="4.84316">
        <ele>214</ele>
        <time>2022-06-06T10:47:18.000Z</time>
      </trkpt>
      <trkpt lat="49.78641" lon="4.84315">
        <ele>214</ele>
        <time>2022-06-06T10:47:19.000Z</time>
      </trkpt>
      <trkpt lat="49.78633" lon="4.84315">
        <ele>214</ele>
        <time>2022-06-06T10:47:20.000Z</time>
      </trkpt>
      <trkpt lat="49.78625" lon="4.84314">
        <ele>213</ele>
        <time>2022-06-06T10:47:21.000Z</time>
      </trkpt>
      <trkpt lat="49.78618" lon="4.84313">
        <ele>213</ele>
        <time>2022-06-06T10:47:22.000Z</time>
      </trkpt>
      <trkpt lat="49.78611" lon="4.84312">
        <ele>212</ele>
        <time>2022-06-06T10:47:23.000Z</time>
      </trkpt>
      <trkpt lat="49.78604" lon="4.84311">
        <ele>212</ele>
        <time>2022-06-06T10:47:24.000Z</time>
      </trkpt>
      <trkpt lat="49.78597" lon="4.8431">
        <ele>211</ele>
        <time>2022-06-06T10:47:25.000Z</time>
      </trkpt>
      <trkpt lat="49.7859" lon="4.8431">
        <ele>211</ele>
        <time>2022-06-06T10:47:26.000Z</time>
      </trkpt>
      <trkpt lat="49.78583" lon="4.8431">
        <ele>210</ele>
        <time>2022-06-06T10:47:27.000Z</time>
      </trkpt>
      <trkpt lat="49.78575" lon="4.84309">
        <ele>210</ele>
        <time>2022-06-06T10:47:28.000Z</time>
      </trkpt>
      <trkpt lat="49.78567" lon="4.84308">
        <ele>209</ele>
        <time>2022-06-06T10:47:29.000Z</time>
      </trkpt>
      <trkpt lat="49.7856" lon="4.84308">
        <ele>209</ele>
        <time>2022-06-06T10:47:30.000Z</time>
      </trkpt>
      <trkpt lat="49.78553" lon="4.84308">
        <ele>209</ele>
        <time>2022-06-06T10:47:31.000Z</time>
      </trkpt>
      <trkpt lat="49.78545" lon="4.84308">
        <ele>208</ele>
        <time>2022-06-06T10:47:32.000Z</time>
      </trkpt>
      <trkpt lat="49.78538" lon="4.84307">
        <ele>208</ele>
        <time>2022-06-06T10:47:33.000Z</time>
      </trkpt>
      <trkpt lat="49.7853" lon="4.84307">
        <ele>207</ele>
        <time>2022-06-06T10:47:34.000Z</time>
      </trkpt>
      <trkpt lat="49.78522" lon="4.84306">
        <ele>207</ele>
        <time>2022-06-06T10:47:35.000Z</time>
      </trkpt>
      <trkpt lat="49.78515" lon="4.84305">
        <ele>206</ele>
        <time>2022-06-06T10:47:36.000Z</time>
      </trkpt>
      <trkpt lat="49.78508" lon="4.84306">
        <ele>206</ele>
        <time>2022-06-06T10:47:37.000Z</time>
      </trkpt>
      <trkpt lat="49.78501" lon="4.84306">
        <ele>205</ele>
        <time>2022-06-06T10:47:38.000Z</time>
      </trkpt>
      <trkpt lat="49.78495" lon="4.84307">
        <ele>205</ele>
        <time>2022-06-06T10:47:39.000Z</time>
      </trkpt>
      <trkpt lat="49.78489" lon="4.84308">
        <ele>205</ele>
        <time>2022-06-06T10:47:40.000Z</time>
      </trkpt>
      <trkpt lat="49.78482" lon="4.84308">
        <ele>205</ele>
        <time>2022-06-06T10:47:41.000Z</time>
      </trkpt>
      <trkpt lat="49.78475" lon="4.84307">
        <ele>204</ele>
        <time>2022-06-06T10:47:42.000Z</time>
      </trkpt>
      <trkpt lat="49.78468" lon="4.84307">
        <ele>204</ele>
        <time>2022-06-06T10:47:43.000Z</time>
      </trkpt>
      <trkpt lat="49.78462" lon="4.84306">
        <ele>204</ele>
        <time>2022-06-06T10:47:44.000Z</time>
      </trkpt>
      <trkpt lat="49.78455" lon="4.84306">
        <ele>204</ele>
        <time>2022-06-06T10:47:45.000Z</time>
      </trkpt>
      <trkpt lat="49.78448" lon="4.84306">
        <ele>204</ele>
        <time>2022-06-06T10:47:46.000Z</time>
      </trkpt>
      <trkpt lat="49.78442" lon="4.84307">
        <ele>203</ele>
        <time>2022-06-06T10:47:47.000Z</time>
      </trkpt>
      <trkpt lat="49.78436" lon="4.8431">
        <ele>203</ele>
        <time>2022-06-06T10:47:48.000Z</time>
      </trkpt>
      <trkpt lat="49.78431" lon="4.84314">
        <ele>203</ele>
        <time>2022-06-06T10:47:49.000Z</time>
      </trkpt>
      <trkpt lat="49.78425" lon="4.84319">
        <ele>203</ele>
        <time>2022-06-06T10:47:50.000Z</time>
      </trkpt>
      <trkpt lat="49.7842" lon="4.84324">
        <ele>203</ele>
        <time>2022-06-06T10:47:51.000Z</time>
      </trkpt>
      <trkpt lat="49.78414" lon="4.84329">
        <ele>203</ele>
        <time>2022-06-06T10:47:52.000Z</time>
      </trkpt>
      <trkpt lat="49.78409" lon="4.84334">
        <ele>203</ele>
        <time>2022-06-06T10:47:53.000Z</time>
      </trkpt>
      <trkpt lat="49.78403" lon="4.84337">
        <ele>202</ele>
        <time>2022-06-06T10:47:54.000Z</time>
      </trkpt>
      <trkpt lat="49.78398" lon="4.84341">
        <ele>202</ele>
        <time>2022-06-06T10:47:55.000Z</time>
      </trkpt>
      <trkpt lat="49.78394" lon="4.84345">
        <ele>202</ele>
        <time>2022-06-06T10:47:56.000Z</time>
      </trkpt>
      <trkpt lat="49.78389" lon="4.8435">
        <ele>202</ele>
        <time>2022-06-06T10:47:57.000Z</time>
      </trkpt>
      <trkpt lat="49.78384" lon="4.84352">
        <ele>202</ele>
        <time>2022-06-06T10:47:58.000Z</time>
      </trkpt>
      <trkpt lat="49.78379" lon="4.84352">
        <ele>202</ele>
        <time>2022-06-06T10:47:59.000Z</time>
      </trkpt>
      <trkpt lat="49.78373" lon="4.84351">
        <ele>202</ele>
        <time>2022-06-06T10:48:00.000Z</time>
      </trkpt>
      <trkpt lat="49.78367" lon="4.84348">
        <ele>202</ele>
        <time>2022-06-06T10:48:01.000Z</time>
      </trkpt>
      <trkpt lat="49.78361" lon="4.84345">
        <ele>202</ele>
        <time>2022-06-06T10:48:02.000Z</time>
      </trkpt>
      <trkpt lat="49.78356" lon="4.84342">
        <ele>202</ele>
        <time>2022-06-06T10:48:03.000Z</time>
      </trkpt>
      <trkpt lat="49.78352" lon="4.84338">
        <ele>201</ele>
        <time>2022-06-06T10:48:04.000Z</time>
      </trkpt>
      <trkpt lat="49.78346" lon="4.84335">
        <ele>201</ele>
        <time>2022-06-06T10:48:05.000Z</time>
      </trkpt>
      <trkpt lat="49.78341" lon="4.84331">
        <ele>201</ele>
        <time>2022-06-06T10:48:06.000Z</time>
      </trkpt>
      <trkpt lat="49.78335" lon="4.84326">
        <ele>201</ele>
        <time>2022-06-06T10:48:07.000Z</time>
      </trkpt>
      <trkpt lat="49.78329" lon="4.84322">
        <ele>201</ele>
        <time>2022-06-06T10:48:08.000Z</time>
      </trkpt>
      <trkpt lat="49.78323" lon="4.84318">
        <ele>200</ele>
        <time>2022-06-06T10:48:09.000Z</time>
      </trkpt>
      <trkpt lat="49.78316" lon="4.84314">
        <ele>200</ele>
        <time>2022-06-06T10:48:10.000Z</time>
      </trkpt>
      <trkpt lat="49.7831" lon="4.8431">
        <ele>200</ele>
        <time>2022-06-06T10:48:11.000Z</time>
      </trkpt>
      <trkpt lat="49.78304" lon="4.84305">
        <ele>200</ele>
        <time>2022-06-06T10:48:12.000Z</time>
      </trkpt>
      <trkpt lat="49.78297" lon="4.843">
        <ele>200</ele>
        <time>2022-06-06T10:48:13.000Z</time>
      </trkpt>
      <trkpt lat="49.7829" lon="4.84295">
        <ele>199</ele>
        <time>2022-06-06T10:48:14.000Z</time>
      </trkpt>
      <trkpt lat="49.78284" lon="4.84291">
        <ele>199</ele>
        <time>2022-06-06T10:48:15.000Z</time>
      </trkpt>
      <trkpt lat="49.78277" lon="4.84286">
        <ele>199</ele>
        <time>2022-06-06T10:48:16.000Z</time>
      </trkpt>
      <trkpt lat="49.78271" lon="4.84281">
        <ele>199</ele>
        <time>2022-06-06T10:48:17.000Z</time>
      </trkpt>
      <trkpt lat="49.78265" lon="4.84276">
        <ele>199</ele>
        <time>2022-06-06T10:48:18.000Z</time>
      </trkpt>
      <trkpt lat="49.7826" lon="4.8427">
        <ele>198</ele>
        <time>2022-06-06T10:48:19.000Z</time>
      </trkpt>
      <trkpt lat="49.78255" lon="4.84263">
        <ele>198</ele>
        <time>2022-06-06T10:48:20.000Z</time>
      </trkpt>
      <trkpt lat="49.78251" lon="4.84255">
        <ele>198</ele>
        <time>2022-06-06T10:48:21.000Z</time>
      </trkpt>
      <trkpt lat="49.78248" lon="4.84248">
        <ele>198</ele>
        <time>2022-06-06T10:48:22.000Z</time>
      </trkpt>
      <trkpt lat="49.78245" lon="4.84242">
        <ele>198</ele>
        <time>2022-06-06T10:48:23.000Z</time>
      </trkpt>
      <trkpt lat="49.78243" lon="4.84235">
        <ele>197</ele>
        <time>2022-06-06T10:48:24.000Z</time>
      </trkpt>
      <trkpt lat="49.78241" lon="4.84229">
        <ele>197</ele>
        <time>2022-06-06T10:48:25.000Z</time>
      </trkpt>
      <trkpt lat="49.7824" lon="4.84223">
        <ele>197</ele>
        <time>2022-06-06T10:48:26.000Z</time>
      </trkpt>
      <trkpt lat="49.78238" lon="4.84216">
        <ele>197</ele>
        <time>2022-06-06T10:48:27.000Z</time>
      </trkpt>
      <trkpt lat="49.78236" lon="4.8421">
        <ele>196</ele>
        <time>2022-06-06T10:48:28.000Z</time>
      </trkpt>
      <trkpt lat="49.78234" lon="4.84204">
        <ele>196</ele>
        <time>2022-06-06T10:48:29.000Z</time>
      </trkpt>
      <trkpt lat="49.78232" lon="4.84199">
        <ele>196</ele>
        <time>2022-06-06T10:48:30.000Z</time>
      </trkpt>
      <trkpt lat="49.7823" lon="4.84193">
        <ele>196</ele>
        <time>2022-06-06T10:48:31.000Z</time>
      </trkpt>
      <trkpt lat="49.78228" lon="4.84188">
        <ele>195</ele>
        <time>2022-06-06T10:48:32.000Z</time>
      </trkpt>
      <trkpt lat="49.78226" lon="4.84182">
        <ele>195</ele>
        <time>2022-06-06T10:48:33.000Z</time>
      </trkpt>
      <trkpt lat="49.78224" lon="4.84176">
        <ele>195</ele>
        <time>2022-06-06T10:48:34.000Z</time>
      </trkpt>
      <trkpt lat="49.78222" lon="4.8417">
        <ele>195</ele>
        <time>2022-06-06T10:48:35.000Z</time>
      </trkpt>
      <trkpt lat="49.7822" lon="4.84165">
        <ele>195</ele>
        <time>2022-06-06T10:48:36.000Z</time>
      </trkpt>
      <trkpt lat="49.78217" lon="4.84161">
        <ele>194</ele>
        <time>2022-06-06T10:48:37.000Z</time>
      </trkpt>
      <trkpt lat="49.78215" lon="4.84156">
        <ele>194</ele>
        <time>2022-06-06T10:48:38.000Z</time>
      </trkpt>
      <trkpt lat="49.78212" lon="4.84151">
        <ele>194</ele>
        <time>2022-06-06T10:48:39.000Z</time>
      </trkpt>
      <trkpt lat="49.7821" lon="4.84147">
        <ele>194</ele>
        <time>2022-06-06T10:48:40.000Z</time>
      </trkpt>
      <trkpt lat="49.78208" lon="4.84143">
        <ele>194</ele>
        <time>2022-06-06T10:48:41.000Z</time>
      </trkpt>
      <trkpt lat="49.78206" lon="4.84139">
        <ele>194</ele>
        <time>2022-06-06T10:48:42.000Z</time>
      </trkpt>
      <trkpt lat="49.78203" lon="4.84135">
        <ele>194</ele>
        <time>2022-06-06T10:48:43.000Z</time>
      </trkpt>
      <trkpt lat="49.78201" lon="4.84131">
        <ele>194</ele>
        <time>2022-06-06T10:48:44.000Z</time>
      </trkpt>
      <trkpt lat="49.78198" lon="4.84127">
        <ele>193</ele>
        <time>2022-06-06T10:48:45.000Z</time>
      </trkpt>
      <trkpt lat="49.78194" lon="4.84124">
        <ele>193</ele>
        <time>2022-06-06T10:48:46.000Z</time>
      </trkpt>
      <trkpt lat="49.7819" lon="4.84121">
        <ele>193</ele>
        <time>2022-06-06T10:48:47.000Z</time>
      </trkpt>
      <trkpt lat="49.78186" lon="4.84119">
        <ele>193</ele>
        <time>2022-06-06T10:48:48.000Z</time>
      </trkpt>
      <trkpt lat="49.78182" lon="4.84117">
        <ele>193</ele>
        <time>2022-06-06T10:48:49.000Z</time>
      </trkpt>
      <trkpt lat="49.78179" lon="4.84114">
        <ele>193</ele>
        <time>2022-06-06T10:48:50.000Z</time>
      </trkpt>
      <trkpt lat="49.78175" lon="4.84112">
        <ele>193</ele>
        <time>2022-06-06T10:48:51.000Z</time>
      </trkpt>
      <trkpt lat="49.78171" lon="4.84109">
        <ele>193</ele>
        <time>2022-06-06T10:48:52.000Z</time>
      </trkpt>
      <trkpt lat="49.78168" lon="4.84106">
        <ele>193</ele>
        <time>2022-06-06T10:48:53.000Z</time>
      </trkpt>
      <trkpt lat="49.78164" lon="4.84104">
        <ele>192</ele>
        <time>2022-06-06T10:48:54.000Z</time>
      </trkpt>
      <trkpt lat="49.7816" lon="4.84102">
        <ele>192</ele>
        <time>2022-06-06T10:48:55.000Z</time>
      </trkpt>
      <trkpt lat="49.78156" lon="4.841">
        <ele>192</ele>
        <time>2022-06-06T10:48:56.000Z</time>
      </trkpt>
      <trkpt lat="49.78152" lon="4.84099">
        <ele>192</ele>
        <time>2022-06-06T10:48:57.000Z</time>
      </trkpt>
      <trkpt lat="49.78148" lon="4.84096">
        <ele>192</ele>
        <time>2022-06-06T10:48:58.000Z</time>
      </trkpt>
      <trkpt lat="49.78144" lon="4.84093">
        <ele>192</ele>
        <time>2022-06-06T10:48:59.000Z</time>
      </trkpt>
      <trkpt lat="49.7814" lon="4.84091">
        <ele>192</ele>
        <time>2022-06-06T10:49:00.000Z</time>
      </trkpt>
      <trkpt lat="49.78136" lon="4.84089">
        <ele>193</ele>
        <time>2022-06-06T10:49:01.000Z</time>
      </trkpt>
      <trkpt lat="49.78132" lon="4.84087">
        <ele>193</ele>
        <time>2022-06-06T10:49:02.000Z</time>
      </trkpt>
      <trkpt lat="49.78128" lon="4.84084">
        <ele>193</ele>
        <time>2022-06-06T10:49:03.000Z</time>
      </trkpt>
      <trkpt lat="49.78124" lon="4.84081">
        <ele>193</ele>
        <time>2022-06-06T10:49:04.000Z</time>
      </trkpt>
      <trkpt lat="49.78121" lon="4.84079">
        <ele>193</ele>
        <time>2022-06-06T10:49:05.000Z</time>
      </trkpt>
      <trkpt lat="49.78117" lon="4.84077">
        <ele>193</ele>
        <time>2022-06-06T10:49:06.000Z</time>
      </trkpt>
      <trkpt lat="49.78114" lon="4.84076">
        <ele>193</ele>
        <time>2022-06-06T10:49:07.000Z</time>
      </trkpt>
      <trkpt lat="49.7811" lon="4.84075">
        <ele>193</ele>
        <time>2022-06-06T10:49:08.000Z</time>
      </trkpt>
      <trkpt lat="49.78106" lon="4.84072">
        <ele>193</ele>
        <time>2022-06-06T10:49:09.000Z</time>
      </trkpt>
      <trkpt lat="49.78101" lon="4.84069">
        <ele>193</ele>
        <time>2022-06-06T10:49:10.000Z</time>
      </trkpt>
      <trkpt lat="49.78097" lon="4.84067">
        <ele>193</ele>
        <time>2022-06-06T10:49:11.000Z</time>
      </trkpt>
      <trkpt lat="49.78094" lon="4.84066">
        <ele>193</ele>
        <time>2022-06-06T10:49:12.000Z</time>
      </trkpt>
      <trkpt lat="49.7809" lon="4.84065">
        <ele>193</ele>
        <time>2022-06-06T10:49:13.000Z</time>
      </trkpt>
      <trkpt lat="49.78086" lon="4.84063">
        <ele>193</ele>
        <time>2022-06-06T10:49:14.000Z</time>
      </trkpt>
      <trkpt lat="49.78083" lon="4.84061">
        <ele>193</ele>
        <time>2022-06-06T10:49:15.000Z</time>
      </trkpt>
      <trkpt lat="49.78079" lon="4.84059">
        <ele>194</ele>
        <time>2022-06-06T10:49:16.000Z</time>
      </trkpt>
      <trkpt lat="49.78075" lon="4.84056">
        <ele>194</ele>
        <time>2022-06-06T10:49:17.000Z</time>
      </trkpt>
      <trkpt lat="49.78071" lon="4.84054">
        <ele>194</ele>
        <time>2022-06-06T10:49:18.000Z</time>
      </trkpt>
      <trkpt lat="49.78067" lon="4.84051">
        <ele>194</ele>
        <time>2022-06-06T10:49:19.000Z</time>
      </trkpt>
      <trkpt lat="49.78063" lon="4.84049">
        <ele>194</ele>
        <time>2022-06-06T10:49:20.000Z</time>
      </trkpt>
      <trkpt lat="49.78059" lon="4.84047">
        <ele>194</ele>
        <time>2022-06-06T10:49:21.000Z</time>
      </trkpt>
      <trkpt lat="49.78055" lon="4.84044">
        <ele>195</ele>
        <time>2022-06-06T10:49:22.000Z</time>
      </trkpt>
      <trkpt lat="49.78051" lon="4.84042">
        <ele>195</ele>
        <time>2022-06-06T10:49:23.000Z</time>
      </trkpt>
      <trkpt lat="49.78047" lon="4.8404">
        <ele>195</ele>
        <time>2022-06-06T10:49:24.000Z</time>
      </trkpt>
      <trkpt lat="49.78044" lon="4.84037">
        <ele>195</ele>
        <time>2022-06-06T10:49:25.000Z</time>
      </trkpt>
      <trkpt lat="49.7804" lon="4.84036">
        <ele>195</ele>
        <time>2022-06-06T10:49:26.000Z</time>
      </trkpt>
      <trkpt lat="49.78036" lon="4.84032">
        <ele>195</ele>
        <time>2022-06-06T10:49:27.000Z</time>
      </trkpt>
      <trkpt lat="49.78033" lon="4.84029">
        <ele>196</ele>
        <time>2022-06-06T10:49:28.000Z</time>
      </trkpt>
      <trkpt lat="49.78029" lon="4.84027">
        <ele>196</ele>
        <time>2022-06-06T10:49:29.000Z</time>
      </trkpt>
      <trkpt lat="49.78025" lon="4.84024">
        <ele>196</ele>
        <time>2022-06-06T10:49:30.000Z</time>
      </trkpt>
      <trkpt lat="49.78021" lon="4.8402">
        <ele>196</ele>
        <time>2022-06-06T10:49:31.000Z</time>
      </trkpt>
      <trkpt lat="49.78018" lon="4.84017">
        <ele>197</ele>
        <time>2022-06-06T10:49:32.000Z</time>
      </trkpt>
      <trkpt lat="49.78014" lon="4.84013">
        <ele>197</ele>
        <time>2022-06-06T10:49:33.000Z</time>
      </trkpt>
      <trkpt lat="49.78011" lon="4.84009">
        <ele>197</ele>
        <time>2022-06-06T10:49:34.000Z</time>
      </trkpt>
      <trkpt lat="49.78008" lon="4.84005">
        <ele>197</ele>
        <time>2022-06-06T10:49:35.000Z</time>
      </trkpt>
      <trkpt lat="49.78004" lon="4.84001">
        <ele>197</ele>
        <time>2022-06-06T10:49:36.000Z</time>
      </trkpt>
      <trkpt lat="49.78" lon="4.83998">
        <ele>198</ele>
        <time>2022-06-06T10:49:37.000Z</time>
      </trkpt>
      <trkpt lat="49.77996" lon="4.83994">
        <ele>198</ele>
        <time>2022-06-06T10:49:38.000Z</time>
      </trkpt>
      <trkpt lat="49.77992" lon="4.8399">
        <ele>198</ele>
        <time>2022-06-06T10:49:39.000Z</time>
      </trkpt>
      <trkpt lat="49.77989" lon="4.83986">
        <ele>198</ele>
        <time>2022-06-06T10:49:40.000Z</time>
      </trkpt>
      <trkpt lat="49.77985" lon="4.83981">
        <ele>198</ele>
        <time>2022-06-06T10:49:41.000Z</time>
      </trkpt>
      <trkpt lat="49.77982" lon="4.83977">
        <ele>198</ele>
        <time>2022-06-06T10:49:42.000Z</time>
      </trkpt>
      <trkpt lat="49.77979" lon="4.83972">
        <ele>199</ele>
        <time>2022-06-06T10:49:43.000Z</time>
      </trkpt>
      <trkpt lat="49.77976" lon="4.83967">
        <ele>199</ele>
        <time>2022-06-06T10:49:44.000Z</time>
      </trkpt>
      <trkpt lat="49.77972" lon="4.83962">
        <ele>199</ele>
        <time>2022-06-06T10:49:45.000Z</time>
      </trkpt>
      <trkpt lat="49.77969" lon="4.83958">
        <ele>199</ele>
        <time>2022-06-06T10:49:46.000Z</time>
      </trkpt>
      <trkpt lat="49.77965" lon="4.83953">
        <ele>199</ele>
        <time>2022-06-06T10:49:47.000Z</time>
      </trkpt>
      <trkpt lat="49.77961" lon="4.83948">
        <ele>200</ele>
        <time>2022-06-06T10:49:48.000Z</time>
      </trkpt>
      <trkpt lat="49.77957" lon="4.83944">
        <ele>200</ele>
        <time>2022-06-06T10:49:49.000Z</time>
      </trkpt>
      <trkpt lat="49.77953" lon="4.83939">
        <ele>200</ele>
        <time>2022-06-06T10:49:50.000Z</time>
      </trkpt>
      <trkpt lat="49.77949" lon="4.83934">
        <ele>200</ele>
        <time>2022-06-06T10:49:51.000Z</time>
      </trkpt>
      <trkpt lat="49.77945" lon="4.83929">
        <ele>200</ele>
        <time>2022-06-06T10:49:52.000Z</time>
      </trkpt>
      <trkpt lat="49.77942" lon="4.83924">
        <ele>200</ele>
        <time>2022-06-06T10:49:53.000Z</time>
      </trkpt>
      <trkpt lat="49.77938" lon="4.83919">
        <ele>200</ele>
        <time>2022-06-06T10:49:54.000Z</time>
      </trkpt>
      <trkpt lat="49.77934" lon="4.83914">
        <ele>200</ele>
        <time>2022-06-06T10:49:55.000Z</time>
      </trkpt>
      <trkpt lat="49.7793" lon="4.83909">
        <ele>200</ele>
        <time>2022-06-06T10:49:56.000Z</time>
      </trkpt>
      <trkpt lat="49.77927" lon="4.83904">
        <ele>200</ele>
        <time>2022-06-06T10:49:57.000Z</time>
      </trkpt>
      <trkpt lat="49.77923" lon="4.83899">
        <ele>200</ele>
        <time>2022-06-06T10:49:58.000Z</time>
      </trkpt>
      <trkpt lat="49.7792" lon="4.83894">
        <ele>200</ele>
        <time>2022-06-06T10:49:59.000Z</time>
      </trkpt>
      <trkpt lat="49.77916" lon="4.83889">
        <ele>200</ele>
        <time>2022-06-06T10:50:00.000Z</time>
      </trkpt>
      <trkpt lat="49.77912" lon="4.83885">
        <ele>200</ele>
        <time>2022-06-06T10:50:01.000Z</time>
      </trkpt>
      <trkpt lat="49.77909" lon="4.8388">
        <ele>200</ele>
        <time>2022-06-06T10:50:02.000Z</time>
      </trkpt>
      <trkpt lat="49.77906" lon="4.83875">
        <ele>200</ele>
        <time>2022-06-06T10:50:03.000Z</time>
      </trkpt>
      <trkpt lat="49.77902" lon="4.8387">
        <ele>200</ele>
        <time>2022-06-06T10:50:04.000Z</time>
      </trkpt>
      <trkpt lat="49.77899" lon="4.83866">
        <ele>200</ele>
        <time>2022-06-06T10:50:05.000Z</time>
      </trkpt>
      <trkpt lat="49.77895" lon="4.83861">
        <ele>200</ele>
        <time>2022-06-06T10:50:06.000Z</time>
      </trkpt>
      <trkpt lat="49.77892" lon="4.83857">
        <ele>200</ele>
        <time>2022-06-06T10:50:07.000Z</time>
      </trkpt>
      <trkpt lat="49.77889" lon="4.83853">
        <ele>200</ele>
        <time>2022-06-06T10:50:08.000Z</time>
      </trkpt>
      <trkpt lat="49.77886" lon="4.83849">
        <ele>200</ele>
        <time>2022-06-06T10:50:09.000Z</time>
      </trkpt>
      <trkpt lat="49.77883" lon="4.83844">
        <ele>200</ele>
        <time>2022-06-06T10:50:10.000Z</time>
      </trkpt>
      <trkpt lat="49.7788" lon="4.83841">
        <ele>200</ele>
        <time>2022-06-06T10:50:11.000Z</time>
      </trkpt>
      <trkpt lat="49.77877" lon="4.83837">
        <ele>200</ele>
        <time>2022-06-06T10:50:12.000Z</time>
      </trkpt>
      <trkpt lat="49.77874" lon="4.83833">
        <ele>200</ele>
        <time>2022-06-06T10:50:13.000Z</time>
      </trkpt>
      <trkpt lat="49.77872" lon="4.8383">
        <ele>200</ele>
        <time>2022-06-06T10:50:14.000Z</time>
      </trkpt>
      <trkpt lat="49.77869" lon="4.83827">
        <ele>200</ele>
        <time>2022-06-06T10:50:15.000Z</time>
      </trkpt>
      <trkpt lat="49.77866" lon="4.83825">
        <ele>200</ele>
        <time>2022-06-06T10:50:16.000Z</time>
      </trkpt>
      <trkpt lat="49.77863" lon="4.83825">
        <ele>200</ele>
        <time>2022-06-06T10:50:17.000Z</time>
      </trkpt>
      <trkpt lat="49.77861" lon="4.83825">
        <ele>200</ele>
        <time>2022-06-06T10:50:18.000Z</time>
      </trkpt>
      <trkpt lat="49.77859" lon="4.83826">
        <ele>200</ele>
        <time>2022-06-06T10:50:19.000Z</time>
      </trkpt>
      <trkpt lat="49.77857" lon="4.83826">
        <ele>200</ele>
        <time>2022-06-06T10:50:20.000Z</time>
      </trkpt>
      <trkpt lat="49.77855" lon="4.83825">
        <ele>200</ele>
        <time>2022-06-06T10:50:21.000Z</time>
      </trkpt>
      <trkpt lat="49.77853" lon="4.83824">
        <ele>200</ele>
        <time>2022-06-06T10:50:22.000Z</time>
      </trkpt>
      <trkpt lat="49.77851" lon="4.83823">
        <ele>199</ele>
        <time>2022-06-06T10:50:23.000Z</time>
      </trkpt>
      <trkpt lat="49.77849" lon="4.83822">
        <ele>199</ele>
        <time>2022-06-06T10:50:24.000Z</time>
      </trkpt>
      <trkpt lat="49.77847" lon="4.83822">
        <ele>199</ele>
        <time>2022-06-06T10:50:25.000Z</time>
      </trkpt>
      <trkpt lat="49.77845" lon="4.83822">
        <ele>199</ele>
        <time>2022-06-06T10:50:26.000Z</time>
      </trkpt>
      <trkpt lat="49.77844" lon="4.83821">
        <ele>200</ele>
        <time>2022-06-06T10:50:27.000Z</time>
      </trkpt>
      <trkpt lat="49.77842" lon="4.83821">
        <ele>200</ele>
        <time>2022-06-06T10:50:28.000Z</time>
      </trkpt>
      <trkpt lat="49.77839" lon="4.8382">
        <ele>200</ele>
        <time>2022-06-06T10:50:29.000Z</time>
      </trkpt>
      <trkpt lat="49.77837" lon="4.8382">
        <ele>200</ele>
        <time>2022-06-06T10:50:30.000Z</time>
      </trkpt>
      <trkpt lat="49.77834" lon="4.83819">
        <ele>200</ele>
        <time>2022-06-06T10:50:31.000Z</time>
      </trkpt>
      <trkpt lat="49.77831" lon="4.83818">
        <ele>200</ele>
        <time>2022-06-06T10:50:32.000Z</time>
      </trkpt>
      <trkpt lat="49.77828" lon="4.83817">
        <ele>200</ele>
        <time>2022-06-06T10:50:33.000Z</time>
      </trkpt>
      <trkpt lat="49.77825" lon="4.83817">
        <ele>201</ele>
        <time>2022-06-06T10:50:34.000Z</time>
      </trkpt>
      <trkpt lat="49.77823" lon="4.83815">
        <ele>201</ele>
        <time>2022-06-06T10:50:35.000Z</time>
      </trkpt>
      <trkpt lat="49.7782" lon="4.83814">
        <ele>201</ele>
        <time>2022-06-06T10:50:36.000Z</time>
      </trkpt>
      <trkpt lat="49.77817" lon="4.83813">
        <ele>201</ele>
        <time>2022-06-06T10:50:37.000Z</time>
      </trkpt>
      <trkpt lat="49.77815" lon="4.83813">
        <ele>202</ele>
        <time>2022-06-06T10:50:38.000Z</time>
      </trkpt>
      <trkpt lat="49.77812" lon="4.83812">
        <ele>202</ele>
        <time>2022-06-06T10:50:39.000Z</time>
      </trkpt>
      <trkpt lat="49.7781" lon="4.83811">
        <ele>202</ele>
        <time>2022-06-06T10:50:40.000Z</time>
      </trkpt>
      <trkpt lat="49.77808" lon="4.8381">
        <ele>203</ele>
        <time>2022-06-06T10:50:41.000Z</time>
      </trkpt>
      <trkpt lat="49.77806" lon="4.83809">
        <ele>203</ele>
        <time>2022-06-06T10:50:42.000Z</time>
      </trkpt>
      <trkpt lat="49.77804" lon="4.83809">
        <ele>203</ele>
        <time>2022-06-06T10:50:43.000Z</time>
      </trkpt>
      <trkpt lat="49.77801" lon="4.83809">
        <ele>203</ele>
        <time>2022-06-06T10:50:44.000Z</time>
      </trkpt>
      <trkpt lat="49.77798" lon="4.83808">
        <ele>204</ele>
        <time>2022-06-06T10:50:45.000Z</time>
      </trkpt>
      <trkpt lat="49.77796" lon="4.83807">
        <ele>204</ele>
        <time>2022-06-06T10:50:46.000Z</time>
      </trkpt>
      <trkpt lat="49.77793" lon="4.83807">
        <ele>204</ele>
        <time>2022-06-06T10:50:47.000Z</time>
      </trkpt>
      <trkpt lat="49.7779" lon="4.83807">
        <ele>205</ele>
        <time>2022-06-06T10:50:48.000Z</time>
      </trkpt>
      <trkpt lat="49.77787" lon="4.83806">
        <ele>205</ele>
        <time>2022-06-06T10:50:49.000Z</time>
      </trkpt>
      <trkpt lat="49.77785" lon="4.83806">
        <ele>206</ele>
        <time>2022-06-06T10:50:50.000Z</time>
      </trkpt>
      <trkpt lat="49.77782" lon="4.83806">
        <ele>206</ele>
        <time>2022-06-06T10:50:51.000Z</time>
      </trkpt>
      <trkpt lat="49.7778" lon="4.83806">
        <ele>207</ele>
        <time>2022-06-06T10:50:52.000Z</time>
      </trkpt>
      <trkpt lat="49.77778" lon="4.83805">
        <ele>207</ele>
        <time>2022-06-06T10:50:53.000Z</time>
      </trkpt>
      <trkpt lat="49.77775" lon="4.83804">
        <ele>207</ele>
        <time>2022-06-06T10:50:54.000Z</time>
      </trkpt>
      <trkpt lat="49.77772" lon="4.83803">
        <ele>208</ele>
        <time>2022-06-06T10:50:55.000Z</time>
      </trkpt>
      <trkpt lat="49.7777" lon="4.83803">
        <ele>208</ele>
        <time>2022-06-06T10:50:56.000Z</time>
      </trkpt>
      <trkpt lat="49.77767" lon="4.83803">
        <ele>209</ele>
        <time>2022-06-06T10:50:57.000Z</time>
      </trkpt>
      <trkpt lat="49.77765" lon="4.83802">
        <ele>210</ele>
        <time>2022-06-06T10:50:58.000Z</time>
      </trkpt>
      <trkpt lat="49.77763" lon="4.83802">
        <ele>210</ele>
        <time>2022-06-06T10:50:59.000Z</time>
      </trkpt>
      <trkpt lat="49.77761" lon="4.83802">
        <ele>210</ele>
        <time>2022-06-06T10:51:00.000Z</time>
      </trkpt>
      <trkpt lat="49.77759" lon="4.83802">
        <ele>211</ele>
        <time>2022-06-06T10:51:01.000Z</time>
      </trkpt>
      <trkpt lat="49.77757" lon="4.83801">
        <ele>211</ele>
        <time>2022-06-06T10:51:02.000Z</time>
      </trkpt>
      <trkpt lat="49.77756" lon="4.83801">
        <ele>212</ele>
        <time>2022-06-06T10:51:03.000Z</time>
      </trkpt>
      <trkpt lat="49.77754" lon="4.83801">
        <ele>212</ele>
        <time>2022-06-06T10:51:04.000Z</time>
      </trkpt>
      <trkpt lat="49.77752" lon="4.83802">
        <ele>212</ele>
        <time>2022-06-06T10:51:05.000Z</time>
      </trkpt>
      <trkpt lat="49.77751" lon="4.83801">
        <ele>213</ele>
        <time>2022-06-06T10:51:06.000Z</time>
      </trkpt>
      <trkpt lat="49.77749" lon="4.838">
        <ele>213</ele>
        <time>2022-06-06T10:51:07.000Z</time>
      </trkpt>
      <trkpt lat="49.77747" lon="4.838">
        <ele>214</ele>
        <time>2022-06-06T10:51:08.000Z</time>
      </trkpt>
      <trkpt lat="49.77745" lon="4.83799">
        <ele>214</ele>
        <time>2022-06-06T10:51:09.000Z</time>
      </trkpt>
      <trkpt lat="49.77743" lon="4.83798">
        <ele>215</ele>
        <time>2022-06-06T10:51:10.000Z</time>
      </trkpt>
      <trkpt lat="49.77742" lon="4.83798">
        <ele>215</ele>
        <time>2022-06-06T10:51:11.000Z</time>
      </trkpt>
      <trkpt lat="49.7774" lon="4.83798">
        <ele>215</ele>
        <time>2022-06-06T10:51:12.000Z</time>
      </trkpt>
      <trkpt lat="49.77739" lon="4.83798">
        <ele>216</ele>
        <time>2022-06-06T10:51:13.000Z</time>
      </trkpt>
      <trkpt lat="49.77737" lon="4.83797">
        <ele>216</ele>
        <time>2022-06-06T10:51:14.000Z</time>
      </trkpt>
      <trkpt lat="49.77736" lon="4.83796">
        <ele>216</ele>
        <time>2022-06-06T10:51:15.000Z</time>
      </trkpt>
      <trkpt lat="49.77734" lon="4.83795">
        <ele>217</ele>
        <time>2022-06-06T10:51:16.000Z</time>
      </trkpt>
      <trkpt lat="49.77733" lon="4.83795">
        <ele>217</ele>
        <time>2022-06-06T10:51:17.000Z</time>
      </trkpt>
      <trkpt lat="49.77731" lon="4.83794">
        <ele>218</ele>
        <time>2022-06-06T10:51:18.000Z</time>
      </trkpt>
      <trkpt lat="49.77729" lon="4.83793">
        <ele>218</ele>
        <time>2022-06-06T10:51:19.000Z</time>
      </trkpt>
      <trkpt lat="49.77727" lon="4.83791">
        <ele>219</ele>
        <time>2022-06-06T10:51:20.000Z</time>
      </trkpt>
      <trkpt lat="49.77725" lon="4.8379">
        <ele>219</ele>
        <time>2022-06-06T10:51:21.000Z</time>
      </trkpt>
      <trkpt lat="49.77723" lon="4.83789">
        <ele>219</ele>
        <time>2022-06-06T10:51:22.000Z</time>
      </trkpt>
      <trkpt lat="49.77721" lon="4.83789">
        <ele>220</ele>
        <time>2022-06-06T10:51:23.000Z</time>
      </trkpt>
      <trkpt lat="49.77719" lon="4.83788">
        <ele>220</ele>
        <time>2022-06-06T10:51:24.000Z</time>
      </trkpt>
      <trkpt lat="49.77717" lon="4.83787">
        <ele>221</ele>
        <time>2022-06-06T10:51:25.000Z</time>
      </trkpt>
      <trkpt lat="49.77714" lon="4.83787">
        <ele>221</ele>
        <time>2022-06-06T10:51:26.000Z</time>
      </trkpt>
      <trkpt lat="49.77712" lon="4.83786">
        <ele>221</ele>
        <time>2022-06-06T10:51:27.000Z</time>
      </trkpt>
      <trkpt lat="49.7771" lon="4.83785">
        <ele>222</ele>
        <time>2022-06-06T10:51:28.000Z</time>
      </trkpt>
      <trkpt lat="49.77708" lon="4.83783">
        <ele>222</ele>
        <time>2022-06-06T10:51:29.000Z</time>
      </trkpt>
      <trkpt lat="49.77707" lon="4.83781">
        <ele>222</ele>
        <time>2022-06-06T10:51:30.000Z</time>
      </trkpt>
      <trkpt lat="49.77706" lon="4.83778">
        <ele>223</ele>
        <time>2022-06-06T10:51:31.000Z</time>
      </trkpt>
      <trkpt lat="49.77704" lon="4.83774">
        <ele>223</ele>
        <time>2022-06-06T10:51:32.000Z</time>
      </trkpt>
      <trkpt lat="49.77703" lon="4.83769">
        <ele>223</ele>
        <time>2022-06-06T10:51:33.000Z</time>
      </trkpt>
      <trkpt lat="49.77702" lon="4.83765">
        <ele>224</ele>
        <time>2022-06-06T10:51:34.000Z</time>
      </trkpt>
      <trkpt lat="49.77701" lon="4.83761">
        <ele>224</ele>
        <time>2022-06-06T10:51:35.000Z</time>
      </trkpt>
      <trkpt lat="49.777" lon="4.83755">
        <ele>224</ele>
        <time>2022-06-06T10:51:36.000Z</time>
      </trkpt>
      <trkpt lat="49.77698" lon="4.8375">
        <ele>225</ele>
        <time>2022-06-06T10:51:37.000Z</time>
      </trkpt>
      <trkpt lat="49.77696" lon="4.83745">
        <ele>225</ele>
        <time>2022-06-06T10:51:38.000Z</time>
      </trkpt>
      <trkpt lat="49.77694" lon="4.83739">
        <ele>225</ele>
        <time>2022-06-06T10:51:39.000Z</time>
      </trkpt>
      <trkpt lat="49.77693" lon="4.83733">
        <ele>225</ele>
        <time>2022-06-06T10:51:40.000Z</time>
      </trkpt>
      <trkpt lat="49.77692" lon="4.83728">
        <ele>226</ele>
        <time>2022-06-06T10:51:41.000Z</time>
      </trkpt>
      <trkpt lat="49.77691" lon="4.83723">
        <ele>226</ele>
        <time>2022-06-06T10:51:42.000Z</time>
      </trkpt>
      <trkpt lat="49.77689" lon="4.83717">
        <ele>226</ele>
        <time>2022-06-06T10:51:43.000Z</time>
      </trkpt>
      <trkpt lat="49.77688" lon="4.83712">
        <ele>226</ele>
        <time>2022-06-06T10:51:44.000Z</time>
      </trkpt>
      <trkpt lat="49.77687" lon="4.83707">
        <ele>226</ele>
        <time>2022-06-06T10:51:45.000Z</time>
      </trkpt>
      <trkpt lat="49.77686" lon="4.83702">
        <ele>226</ele>
        <time>2022-06-06T10:51:46.000Z</time>
      </trkpt>
      <trkpt lat="49.77685" lon="4.83696">
        <ele>226</ele>
        <time>2022-06-06T10:51:47.000Z</time>
      </trkpt>
      <trkpt lat="49.77684" lon="4.83691">
        <ele>227</ele>
        <time>2022-06-06T10:51:48.000Z</time>
      </trkpt>
      <trkpt lat="49.77683" lon="4.83685">
        <ele>227</ele>
        <time>2022-06-06T10:51:49.000Z</time>
      </trkpt>
      <trkpt lat="49.77682" lon="4.83679">
        <ele>227</ele>
        <time>2022-06-06T10:51:50.000Z</time>
      </trkpt>
      <trkpt lat="49.77681" lon="4.83673">
        <ele>227</ele>
        <time>2022-06-06T10:51:51.000Z</time>
      </trkpt>
      <trkpt lat="49.77679" lon="4.83667">
        <ele>227</ele>
        <time>2022-06-06T10:51:52.000Z</time>
      </trkpt>
      <trkpt lat="49.77678" lon="4.83661">
        <ele>227</ele>
        <time>2022-06-06T10:51:53.000Z</time>
      </trkpt>
      <trkpt lat="49.77677" lon="4.83656">
        <ele>227</ele>
        <time>2022-06-06T10:51:54.000Z</time>
      </trkpt>
      <trkpt lat="49.77676" lon="4.8365">
        <ele>227</ele>
        <time>2022-06-06T10:51:55.000Z</time>
      </trkpt>
      <trkpt lat="49.77674" lon="4.83644">
        <ele>227</ele>
        <time>2022-06-06T10:51:56.000Z</time>
      </trkpt>
      <trkpt lat="49.77672" lon="4.83638">
        <ele>228</ele>
        <time>2022-06-06T10:51:57.000Z</time>
      </trkpt>
      <trkpt lat="49.77671" lon="4.83632">
        <ele>228</ele>
        <time>2022-06-06T10:51:58.000Z</time>
      </trkpt>
      <trkpt lat="49.77669" lon="4.83626">
        <ele>228</ele>
        <time>2022-06-06T10:51:59.000Z</time>
      </trkpt>
      <trkpt lat="49.77667" lon="4.83622">
        <ele>228</ele>
        <time>2022-06-06T10:52:00.000Z</time>
      </trkpt>
      <trkpt lat="49.77666" lon="4.83616">
        <ele>228</ele>
        <time>2022-06-06T10:52:01.000Z</time>
      </trkpt>
      <trkpt lat="49.77664" lon="4.83612">
        <ele>228</ele>
        <time>2022-06-06T10:52:02.000Z</time>
      </trkpt>
      <trkpt lat="49.77664" lon="4.83607">
        <ele>228</ele>
        <time>2022-06-06T10:52:03.000Z</time>
      </trkpt>
      <trkpt lat="49.77663" lon="4.83602">
        <ele>228</ele>
        <time>2022-06-06T10:52:04.000Z</time>
      </trkpt>
      <trkpt lat="49.77662" lon="4.83598">
        <ele>228</ele>
        <time>2022-06-06T10:52:05.000Z</time>
      </trkpt>
      <trkpt lat="49.7766" lon="4.83595">
        <ele>228</ele>
        <time>2022-06-06T10:52:06.000Z</time>
      </trkpt>
      <trkpt lat="49.77659" lon="4.83593">
        <ele>228</ele>
        <time>2022-06-06T10:52:07.000Z</time>
      </trkpt>
      <trkpt lat="49.77657" lon="4.8359">
        <ele>228</ele>
        <time>2022-06-06T10:52:08.000Z</time>
      </trkpt>
      <trkpt lat="49.77655" lon="4.83588">
        <ele>228</ele>
        <time>2022-06-06T10:52:09.000Z</time>
      </trkpt>
      <trkpt lat="49.77653" lon="4.83585">
        <ele>228</ele>
        <time>2022-06-06T10:52:10.000Z</time>
      </trkpt>
      <trkpt lat="49.77652" lon="4.83581">
        <ele>228</ele>
        <time>2022-06-06T10:52:11.000Z</time>
      </trkpt>
      <trkpt lat="49.7765" lon="4.83578">
        <ele>228</ele>
        <time>2022-06-06T10:52:12.000Z</time>
      </trkpt>
      <trkpt lat="49.77648" lon="4.83574">
        <ele>228</ele>
        <time>2022-06-06T10:52:13.000Z</time>
      </trkpt>
      <trkpt lat="49.77646" lon="4.83571">
        <ele>228</ele>
        <time>2022-06-06T10:52:14.000Z</time>
      </trkpt>
      <trkpt lat="49.77645" lon="4.83568">
        <ele>228</ele>
        <time>2022-06-06T10:52:15.000Z</time>
      </trkpt>
      <trkpt lat="49.77643" lon="4.83564">
        <ele>228</ele>
        <time>2022-06-06T10:52:16.000Z</time>
      </trkpt>
      <trkpt lat="49.77642" lon="4.83561">
        <ele>228</ele>
        <time>2022-06-06T10:52:17.000Z</time>
      </trkpt>
      <trkpt lat="49.7764" lon="4.83557">
        <ele>228</ele>
        <time>2022-06-06T10:52:18.000Z</time>
      </trkpt>
      <trkpt lat="49.77638" lon="4.83552">
        <ele>228</ele>
        <time>2022-06-06T10:52:19.000Z</time>
      </trkpt>
      <trkpt lat="49.77636" lon="4.83548">
        <ele>228</ele>
        <time>2022-06-06T10:52:20.000Z</time>
      </trkpt>
      <trkpt lat="49.77634" lon="4.83544">
        <ele>228</ele>
        <time>2022-06-06T10:52:21.000Z</time>
      </trkpt>
      <trkpt lat="49.77632" lon="4.8354">
        <ele>228</ele>
        <time>2022-06-06T10:52:22.000Z</time>
      </trkpt>
      <trkpt lat="49.77629" lon="4.83536">
        <ele>228</ele>
        <time>2022-06-06T10:52:23.000Z</time>
      </trkpt>
      <trkpt lat="49.77627" lon="4.83532">
        <ele>228</ele>
        <time>2022-06-06T10:52:24.000Z</time>
      </trkpt>
      <trkpt lat="49.77625" lon="4.83528">
        <ele>229</ele>
        <time>2022-06-06T10:52:25.000Z</time>
      </trkpt>
      <trkpt lat="49.77622" lon="4.83524">
        <ele>229</ele>
        <time>2022-06-06T10:52:26.000Z</time>
      </trkpt>
      <trkpt lat="49.7762" lon="4.83521">
        <ele>229</ele>
        <time>2022-06-06T10:52:27.000Z</time>
      </trkpt>
      <trkpt lat="49.77617" lon="4.83518">
        <ele>229</ele>
        <time>2022-06-06T10:52:28.000Z</time>
      </trkpt>
      <trkpt lat="49.77615" lon="4.83515">
        <ele>229</ele>
        <time>2022-06-06T10:52:29.000Z</time>
      </trkpt>
      <trkpt lat="49.77612" lon="4.83511">
        <ele>229</ele>
        <time>2022-06-06T10:52:30.000Z</time>
      </trkpt>
      <trkpt lat="49.7761" lon="4.83508">
        <ele>229</ele>
        <time>2022-06-06T10:52:31.000Z</time>
      </trkpt>
      <trkpt lat="49.77607" lon="4.83505">
        <ele>229</ele>
        <time>2022-06-06T10:52:32.000Z</time>
      </trkpt>
      <trkpt lat="49.77605" lon="4.83501">
        <ele>230</ele>
        <time>2022-06-06T10:52:33.000Z</time>
      </trkpt>
      <trkpt lat="49.77602" lon="4.83498">
        <ele>230</ele>
        <time>2022-06-06T10:52:34.000Z</time>
      </trkpt>
      <trkpt lat="49.776" lon="4.83495">
        <ele>230</ele>
        <time>2022-06-06T10:52:35.000Z</time>
      </trkpt>
      <trkpt lat="49.77597" lon="4.83493">
        <ele>230</ele>
        <time>2022-06-06T10:52:36.000Z</time>
      </trkpt>
      <trkpt lat="49.77596" lon="4.8349">
        <ele>230</ele>
        <time>2022-06-06T10:52:37.000Z</time>
      </trkpt>
      <trkpt lat="49.77594" lon="4.83488">
        <ele>230</ele>
        <time>2022-06-06T10:52:38.000Z</time>
      </trkpt>
      <trkpt lat="49.77592" lon="4.83487">
        <ele>230</ele>
        <time>2022-06-06T10:52:39.000Z</time>
      </trkpt>
      <trkpt lat="49.7759" lon="4.83485">
        <ele>230</ele>
        <time>2022-06-06T10:52:40.000Z</time>
      </trkpt>
      <trkpt lat="49.77587" lon="4.83482">
        <ele>230</ele>
        <time>2022-06-06T10:52:41.000Z</time>
      </trkpt>
      <trkpt lat="49.77585" lon="4.8348">
        <ele>230</ele>
        <time>2022-06-06T10:52:42.000Z</time>
      </trkpt>
      <trkpt lat="49.77582" lon="4.83478">
        <ele>230</ele>
        <time>2022-06-06T10:52:43.000Z</time>
      </trkpt>
      <trkpt lat="49.77579" lon="4.83476">
        <ele>230</ele>
        <time>2022-06-06T10:52:44.000Z</time>
      </trkpt>
      <trkpt lat="49.77577" lon="4.83474">
        <ele>230</ele>
        <time>2022-06-06T10:52:45.000Z</time>
      </trkpt>
      <trkpt lat="49.77575" lon="4.83473">
        <ele>230</ele>
        <time>2022-06-06T10:52:46.000Z</time>
      </trkpt>
      <trkpt lat="49.77572" lon="4.83472">
        <ele>230</ele>
        <time>2022-06-06T10:52:47.000Z</time>
      </trkpt>
      <trkpt lat="49.77569" lon="4.8347">
        <ele>231</ele>
        <time>2022-06-06T10:52:48.000Z</time>
      </trkpt>
      <trkpt lat="49.77565" lon="4.8347">
        <ele>231</ele>
        <time>2022-06-06T10:52:49.000Z</time>
      </trkpt>
      <trkpt lat="49.7756" lon="4.83469">
        <ele>231</ele>
        <time>2022-06-06T10:52:50.000Z</time>
      </trkpt>
      <trkpt lat="49.77557" lon="4.83469">
        <ele>231</ele>
        <time>2022-06-06T10:52:51.000Z</time>
      </trkpt>
      <trkpt lat="49.77553" lon="4.83468">
        <ele>231</ele>
        <time>2022-06-06T10:52:52.000Z</time>
      </trkpt>
      <trkpt lat="49.7755" lon="4.83467">
        <ele>231</ele>
        <time>2022-06-06T10:52:53.000Z</time>
      </trkpt>
      <trkpt lat="49.77546" lon="4.83466">
        <ele>232</ele>
        <time>2022-06-06T10:52:54.000Z</time>
      </trkpt>
      <trkpt lat="49.77542" lon="4.83466">
        <ele>232</ele>
        <time>2022-06-06T10:52:55.000Z</time>
      </trkpt>
      <trkpt lat="49.77538" lon="4.83465">
        <ele>232</ele>
        <time>2022-06-06T10:52:56.000Z</time>
      </trkpt>
      <trkpt lat="49.77535" lon="4.83464">
        <ele>232</ele>
        <time>2022-06-06T10:52:57.000Z</time>
      </trkpt>
      <trkpt lat="49.77531" lon="4.83463">
        <ele>232</ele>
        <time>2022-06-06T10:52:58.000Z</time>
      </trkpt>
      <trkpt lat="49.77527" lon="4.83463">
        <ele>233</ele>
        <time>2022-06-06T10:52:59.000Z</time>
      </trkpt>
      <trkpt lat="49.77524" lon="4.83462">
        <ele>233</ele>
        <time>2022-06-06T10:53:00.000Z</time>
      </trkpt>
      <trkpt lat="49.7752" lon="4.83461">
        <ele>233</ele>
        <time>2022-06-06T10:53:01.000Z</time>
      </trkpt>
      <trkpt lat="49.77516" lon="4.8346">
        <ele>233</ele>
        <time>2022-06-06T10:53:02.000Z</time>
      </trkpt>
      <trkpt lat="49.77513" lon="4.83459">
        <ele>234</ele>
        <time>2022-06-06T10:53:03.000Z</time>
      </trkpt>
      <trkpt lat="49.77509" lon="4.83459">
        <ele>234</ele>
        <time>2022-06-06T10:53:04.000Z</time>
      </trkpt>
      <trkpt lat="49.77506" lon="4.83458">
        <ele>234</ele>
        <time>2022-06-06T10:53:05.000Z</time>
      </trkpt>
      <trkpt lat="49.77502" lon="4.83458">
        <ele>235</ele>
        <time>2022-06-06T10:53:06.000Z</time>
      </trkpt>
      <trkpt lat="49.77498" lon="4.83457">
        <ele>235</ele>
        <time>2022-06-06T10:53:07.000Z</time>
      </trkpt>
      <trkpt lat="49.77494" lon="4.83457">
        <ele>235</ele>
        <time>2022-06-06T10:53:08.000Z</time>
      </trkpt>
      <trkpt lat="49.77491" lon="4.83458">
        <ele>235</ele>
        <time>2022-06-06T10:53:09.000Z</time>
      </trkpt>
      <trkpt lat="49.77487" lon="4.83458">
        <ele>236</ele>
        <time>2022-06-06T10:53:10.000Z</time>
      </trkpt>
      <trkpt lat="49.77483" lon="4.83459">
        <ele>236</ele>
        <time>2022-06-06T10:53:11.000Z</time>
      </trkpt>
      <trkpt lat="49.77479" lon="4.8346">
        <ele>236</ele>
        <time>2022-06-06T10:53:12.000Z</time>
      </trkpt>
      <trkpt lat="49.77475" lon="4.8346">
        <ele>236</ele>
        <time>2022-06-06T10:53:13.000Z</time>
      </trkpt>
      <trkpt lat="49.77472" lon="4.83461">
        <ele>237</ele>
        <time>2022-06-06T10:53:14.000Z</time>
      </trkpt>
      <trkpt lat="49.77468" lon="4.83461">
        <ele>237</ele>
        <time>2022-06-06T10:53:15.000Z</time>
      </trkpt>
      <trkpt lat="49.77464" lon="4.83461">
        <ele>237</ele>
        <time>2022-06-06T10:53:16.000Z</time>
      </trkpt>
      <trkpt lat="49.77461" lon="4.8346">
        <ele>238</ele>
        <time>2022-06-06T10:53:17.000Z</time>
      </trkpt>
      <trkpt lat="49.77457" lon="4.8346">
        <ele>238</ele>
        <time>2022-06-06T10:53:18.000Z</time>
      </trkpt>
      <trkpt lat="49.77454" lon="4.8346">
        <ele>238</ele>
        <time>2022-06-06T10:53:19.000Z</time>
      </trkpt>
      <trkpt lat="49.7745" lon="4.8346">
        <ele>238</ele>
        <time>2022-06-06T10:53:20.000Z</time>
      </trkpt>
      <trkpt lat="49.77446" lon="4.8346">
        <ele>239</ele>
        <time>2022-06-06T10:53:21.000Z</time>
      </trkpt>
      <trkpt lat="49.77443" lon="4.83459">
        <ele>239</ele>
        <time>2022-06-06T10:53:22.000Z</time>
      </trkpt>
      <trkpt lat="49.77439" lon="4.83459">
        <ele>239</ele>
        <time>2022-06-06T10:53:23.000Z</time>
      </trkpt>
      <trkpt lat="49.77436" lon="4.83458">
        <ele>239</ele>
        <time>2022-06-06T10:53:24.000Z</time>
      </trkpt>
      <trkpt lat="49.77433" lon="4.83457">
        <ele>240</ele>
        <time>2022-06-06T10:53:25.000Z</time>
      </trkpt>
      <trkpt lat="49.77429" lon="4.83456">
        <ele>240</ele>
        <time>2022-06-06T10:53:26.000Z</time>
      </trkpt>
      <trkpt lat="49.77426" lon="4.83456">
        <ele>240</ele>
        <time>2022-06-06T10:53:27.000Z</time>
      </trkpt>
      <trkpt lat="49.77423" lon="4.83456">
        <ele>240</ele>
        <time>2022-06-06T10:53:28.000Z</time>
      </trkpt>
      <trkpt lat="49.77419" lon="4.83456">
        <ele>241</ele>
        <time>2022-06-06T10:53:29.000Z</time>
      </trkpt>
      <trkpt lat="49.77417" lon="4.83457">
        <ele>241</ele>
        <time>2022-06-06T10:53:30.000Z</time>
      </trkpt>
      <trkpt lat="49.77414" lon="4.83458">
        <ele>241</ele>
        <time>2022-06-06T10:53:31.000Z</time>
      </trkpt>
      <trkpt lat="49.77412" lon="4.8346">
        <ele>241</ele>
        <time>2022-06-06T10:53:32.000Z</time>
      </trkpt>
      <trkpt lat="49.7741" lon="4.83462">
        <ele>241</ele>
        <time>2022-06-06T10:53:33.000Z</time>
      </trkpt>
      <trkpt lat="49.77408" lon="4.83464">
        <ele>241</ele>
        <time>2022-06-06T10:53:34.000Z</time>
      </trkpt>
      <trkpt lat="49.77406" lon="4.83465">
        <ele>242</ele>
        <time>2022-06-06T10:53:35.000Z</time>
      </trkpt>
      <trkpt lat="49.77404" lon="4.83466">
        <ele>242</ele>
        <time>2022-06-06T10:53:36.000Z</time>
      </trkpt>
      <trkpt lat="49.77401" lon="4.83468">
        <ele>242</ele>
        <time>2022-06-06T10:53:37.000Z</time>
      </trkpt>
      <trkpt lat="49.77399" lon="4.8347">
        <ele>242</ele>
        <time>2022-06-06T10:53:38.000Z</time>
      </trkpt>
      <trkpt lat="49.77397" lon="4.83472">
        <ele>242</ele>
        <time>2022-06-06T10:53:39.000Z</time>
      </trkpt>
      <trkpt lat="49.77395" lon="4.83472">
        <ele>242</ele>
        <time>2022-06-06T10:53:40.000Z</time>
      </trkpt>
      <trkpt lat="49.77392" lon="4.83473">
        <ele>242</ele>
        <time>2022-06-06T10:53:41.000Z</time>
      </trkpt>
      <trkpt lat="49.7739" lon="4.83474">
        <ele>243</ele>
        <time>2022-06-06T10:53:42.000Z</time>
      </trkpt>
      <trkpt lat="49.77388" lon="4.83475">
        <ele>243</ele>
        <time>2022-06-06T10:53:43.000Z</time>
      </trkpt>
      <trkpt lat="49.77387" lon="4.83475">
        <ele>243</ele>
        <time>2022-06-06T10:53:44.000Z</time>
      </trkpt>
      <trkpt lat="49.77385" lon="4.83476">
        <ele>243</ele>
        <time>2022-06-06T10:53:45.000Z</time>
      </trkpt>
      <trkpt lat="49.77382" lon="4.83476">
        <ele>243</ele>
        <time>2022-06-06T10:53:46.000Z</time>
      </trkpt>
      <trkpt lat="49.7738" lon="4.83477">
        <ele>244</ele>
        <time>2022-06-06T10:53:47.000Z</time>
      </trkpt>
      <trkpt lat="49.77379" lon="4.83478">
        <ele>244</ele>
        <time>2022-06-06T10:53:48.000Z</time>
      </trkpt>
      <trkpt lat="49.77377" lon="4.83479">
        <ele>244</ele>
        <time>2022-06-06T10:53:49.000Z</time>
      </trkpt>
      <trkpt lat="49.77375" lon="4.8348">
        <ele>245</ele>
        <time>2022-06-06T10:53:50.000Z</time>
      </trkpt>
      <trkpt lat="49.77372" lon="4.8348">
        <ele>245</ele>
        <time>2022-06-06T10:53:51.000Z</time>
      </trkpt>
      <trkpt lat="49.7737" lon="4.83479">
        <ele>245</ele>
        <time>2022-06-06T10:53:52.000Z</time>
      </trkpt>
      <trkpt lat="49.77367" lon="4.83479">
        <ele>246</ele>
        <time>2022-06-06T10:53:53.000Z</time>
      </trkpt>
      <trkpt lat="49.77365" lon="4.83479">
        <ele>246</ele>
        <time>2022-06-06T10:53:54.000Z</time>
      </trkpt>
      <trkpt lat="49.77362" lon="4.83479">
        <ele>246</ele>
        <time>2022-06-06T10:53:55.000Z</time>
      </trkpt>
      <trkpt lat="49.7736" lon="4.83479">
        <ele>247</ele>
        <time>2022-06-06T10:53:56.000Z</time>
      </trkpt>
      <trkpt lat="49.77357" lon="4.83479">
        <ele>247</ele>
        <time>2022-06-06T10:53:57.000Z</time>
      </trkpt>
      <trkpt lat="49.77355" lon="4.83479">
        <ele>248</ele>
        <time>2022-06-06T10:53:58.000Z</time>
      </trkpt>
      <trkpt lat="49.77354" lon="4.83479">
        <ele>248</ele>
        <time>2022-06-06T10:53:59.000Z</time>
      </trkpt>
      <trkpt lat="49.77352" lon="4.83479">
        <ele>249</ele>
        <time>2022-06-06T10:54:00.000Z</time>
      </trkpt>
      <trkpt lat="49.77349" lon="4.83477">
        <ele>249</ele>
        <time>2022-06-06T10:54:01.000Z</time>
      </trkpt>
      <trkpt lat="49.77348" lon="4.83476">
        <ele>249</ele>
        <time>2022-06-06T10:54:02.000Z</time>
      </trkpt>
      <trkpt lat="49.77346" lon="4.83475">
        <ele>250</ele>
        <time>2022-06-06T10:54:03.000Z</time>
      </trkpt>
      <trkpt lat="49.77344" lon="4.83473">
        <ele>250</ele>
        <time>2022-06-06T10:54:04.000Z</time>
      </trkpt>
      <trkpt lat="49.77341" lon="4.83471">
        <ele>250</ele>
        <time>2022-06-06T10:54:05.000Z</time>
      </trkpt>
      <trkpt lat="49.77339" lon="4.83469">
        <ele>250</ele>
        <time>2022-06-06T10:54:06.000Z</time>
      </trkpt>
      <trkpt lat="49.77337" lon="4.83467">
        <ele>250</ele>
        <time>2022-06-06T10:54:07.000Z</time>
      </trkpt>
      <trkpt lat="49.77334" lon="4.83464">
        <ele>251</ele>
        <time>2022-06-06T10:54:08.000Z</time>
      </trkpt>
      <trkpt lat="49.77331" lon="4.83461">
        <ele>251</ele>
        <time>2022-06-06T10:54:09.000Z</time>
      </trkpt>
      <trkpt lat="49.77329" lon="4.83458">
        <ele>251</ele>
        <time>2022-06-06T10:54:10.000Z</time>
      </trkpt>
      <trkpt lat="49.77326" lon="4.83456">
        <ele>251</ele>
        <time>2022-06-06T10:54:11.000Z</time>
      </trkpt>
      <trkpt lat="49.77323" lon="4.83454">
        <ele>252</ele>
        <time>2022-06-06T10:54:12.000Z</time>
      </trkpt>
      <trkpt lat="49.77321" lon="4.8345">
        <ele>252</ele>
        <time>2022-06-06T10:54:13.000Z</time>
      </trkpt>
      <trkpt lat="49.77318" lon="4.83447">
        <ele>252</ele>
        <time>2022-06-06T10:54:14.000Z</time>
      </trkpt>
      <trkpt lat="49.77316" lon="4.83445">
        <ele>252</ele>
        <time>2022-06-06T10:54:15.000Z</time>
      </trkpt>
      <trkpt lat="49.77314" lon="4.83442">
        <ele>252</ele>
        <time>2022-06-06T10:54:16.000Z</time>
      </trkpt>
      <trkpt lat="49.77311" lon="4.83439">
        <ele>252</ele>
        <time>2022-06-06T10:54:17.000Z</time>
      </trkpt>
      <trkpt lat="49.77309" lon="4.83436">
        <ele>253</ele>
        <time>2022-06-06T10:54:18.000Z</time>
      </trkpt>
      <trkpt lat="49.77306" lon="4.83433">
        <ele>253</ele>
        <time>2022-06-06T10:54:19.000Z</time>
      </trkpt>
      <trkpt lat="49.77304" lon="4.83431">
        <ele>253</ele>
        <time>2022-06-06T10:54:20.000Z</time>
      </trkpt>
      <trkpt lat="49.77302" lon="4.83428">
        <ele>253</ele>
        <time>2022-06-06T10:54:21.000Z</time>
      </trkpt>
      <trkpt lat="49.773" lon="4.83426">
        <ele>253</ele>
        <time>2022-06-06T10:54:22.000Z</time>
      </trkpt>
      <trkpt lat="49.77298" lon="4.83423">
        <ele>254</ele>
        <time>2022-06-06T10:54:23.000Z</time>
      </trkpt>
      <trkpt lat="49.77295" lon="4.8342">
        <ele>254</ele>
        <time>2022-06-06T10:54:24.000Z</time>
      </trkpt>
      <trkpt lat="49.77293" lon="4.83418">
        <ele>254</ele>
        <time>2022-06-06T10:54:25.000Z</time>
      </trkpt>
      <trkpt lat="49.77291" lon="4.83415">
        <ele>255</ele>
        <time>2022-06-06T10:54:26.000Z</time>
      </trkpt>
      <trkpt lat="49.77288" lon="4.83413">
        <ele>255</ele>
        <time>2022-06-06T10:54:27.000Z</time>
      </trkpt>
      <trkpt lat="49.77286" lon="4.8341">
        <ele>255</ele>
        <time>2022-06-06T10:54:28.000Z</time>
      </trkpt>
      <trkpt lat="49.77284" lon="4.83409">
        <ele>256</ele>
        <time>2022-06-06T10:54:29.000Z</time>
      </trkpt>
      <trkpt lat="49.77281" lon="4.83407">
        <ele>256</ele>
        <time>2022-06-06T10:54:30.000Z</time>
      </trkpt>
      <trkpt lat="49.77278" lon="4.83404">
        <ele>256</ele>
        <time>2022-06-06T10:54:31.000Z</time>
      </trkpt>
      <trkpt lat="49.77275" lon="4.83402">
        <ele>257</ele>
        <time>2022-06-06T10:54:32.000Z</time>
      </trkpt>
      <trkpt lat="49.77273" lon="4.834">
        <ele>257</ele>
        <time>2022-06-06T10:54:33.000Z</time>
      </trkpt>
      <trkpt lat="49.77271" lon="4.83398">
        <ele>257</ele>
        <time>2022-06-06T10:54:34.000Z</time>
      </trkpt>
      <trkpt lat="49.77269" lon="4.83396">
        <ele>257</ele>
        <time>2022-06-06T10:54:35.000Z</time>
      </trkpt>
      <trkpt lat="49.77267" lon="4.83394">
        <ele>258</ele>
        <time>2022-06-06T10:54:36.000Z</time>
      </trkpt>
      <trkpt lat="49.77265" lon="4.83393">
        <ele>258</ele>
        <time>2022-06-06T10:54:37.000Z</time>
      </trkpt>
      <trkpt lat="49.77263" lon="4.83392">
        <ele>258</ele>
        <time>2022-06-06T10:54:38.000Z</time>
      </trkpt>
      <trkpt lat="49.77261" lon="4.8339">
        <ele>259</ele>
        <time>2022-06-06T10:54:39.000Z</time>
      </trkpt>
      <trkpt lat="49.77259" lon="4.83388">
        <ele>259</ele>
        <time>2022-06-06T10:54:40.000Z</time>
      </trkpt>
      <trkpt lat="49.77257" lon="4.83387">
        <ele>259</ele>
        <time>2022-06-06T10:54:41.000Z</time>
      </trkpt>
      <trkpt lat="49.77255" lon="4.83386">
        <ele>260</ele>
        <time>2022-06-06T10:54:42.000Z</time>
      </trkpt>
      <trkpt lat="49.77254" lon="4.83385">
        <ele>260</ele>
        <time>2022-06-06T10:54:43.000Z</time>
      </trkpt>
      <trkpt lat="49.77252" lon="4.83384">
        <ele>260</ele>
        <time>2022-06-06T10:54:44.000Z</time>
      </trkpt>
      <trkpt lat="49.77251" lon="4.83383">
        <ele>260</ele>
        <time>2022-06-06T10:54:45.000Z</time>
      </trkpt>
      <trkpt lat="49.77249" lon="4.83382">
        <ele>261</ele>
        <time>2022-06-06T10:54:46.000Z</time>
      </trkpt>
      <trkpt lat="49.77247" lon="4.83381">
        <ele>261</ele>
        <time>2022-06-06T10:54:47.000Z</time>
      </trkpt>
      <trkpt lat="49.77246" lon="4.8338">
        <ele>261</ele>
        <time>2022-06-06T10:54:48.000Z</time>
      </trkpt>
      <trkpt lat="49.77244" lon="4.83379">
        <ele>261</ele>
        <time>2022-06-06T10:54:49.000Z</time>
      </trkpt>
      <trkpt lat="49.77243" lon="4.83378">
        <ele>262</ele>
        <time>2022-06-06T10:54:50.000Z</time>
      </trkpt>
      <trkpt lat="49.77241" lon="4.83377">
        <ele>262</ele>
        <time>2022-06-06T10:54:51.000Z</time>
      </trkpt>
      <trkpt lat="49.77239" lon="4.83376">
        <ele>262</ele>
        <time>2022-06-06T10:54:52.000Z</time>
      </trkpt>
      <trkpt lat="49.77236" lon="4.83376">
        <ele>262</ele>
        <time>2022-06-06T10:54:53.000Z</time>
      </trkpt>
      <trkpt lat="49.77234" lon="4.83376">
        <ele>262</ele>
        <time>2022-06-06T10:54:54.000Z</time>
      </trkpt>
      <trkpt lat="49.77232" lon="4.83375">
        <ele>263</ele>
        <time>2022-06-06T10:54:55.000Z</time>
      </trkpt>
      <trkpt lat="49.77229" lon="4.83374">
        <ele>263</ele>
        <time>2022-06-06T10:54:56.000Z</time>
      </trkpt>
      <trkpt lat="49.77227" lon="4.83373">
        <ele>263</ele>
        <time>2022-06-06T10:54:57.000Z</time>
      </trkpt>
      <trkpt lat="49.77224" lon="4.83372">
        <ele>263</ele>
        <time>2022-06-06T10:54:58.000Z</time>
      </trkpt>
      <trkpt lat="49.77222" lon="4.83371">
        <ele>263</ele>
        <time>2022-06-06T10:54:59.000Z</time>
      </trkpt>
      <trkpt lat="49.77219" lon="4.83371">
        <ele>263</ele>
        <time>2022-06-06T10:55:00.000Z</time>
      </trkpt>
      <trkpt lat="49.77216" lon="4.8337">
        <ele>263</ele>
        <time>2022-06-06T10:55:01.000Z</time>
      </trkpt>
      <trkpt lat="49.77214" lon="4.8337">
        <ele>263</ele>
        <time>2022-06-06T10:55:02.000Z</time>
      </trkpt>
      <trkpt lat="49.77211" lon="4.83369">
        <ele>263</ele>
        <time>2022-06-06T10:55:03.000Z</time>
      </trkpt>
      <trkpt lat="49.77209" lon="4.83369">
        <ele>263</ele>
        <time>2022-06-06T10:55:04.000Z</time>
      </trkpt>
      <trkpt lat="49.77207" lon="4.83368">
        <ele>263</ele>
        <time>2022-06-06T10:55:05.000Z</time>
      </trkpt>
      <trkpt lat="49.77205" lon="4.83368">
        <ele>263</ele>
        <time>2022-06-06T10:55:06.000Z</time>
      </trkpt>
      <trkpt lat="49.77202" lon="4.83369">
        <ele>264</ele>
        <time>2022-06-06T10:55:07.000Z</time>
      </trkpt>
      <trkpt lat="49.772" lon="4.83369">
        <ele>264</ele>
        <time>2022-06-06T10:55:08.000Z</time>
      </trkpt>
      <trkpt lat="49.77198" lon="4.83369">
        <ele>264</ele>
        <time>2022-06-06T10:55:09.000Z</time>
      </trkpt>
      <trkpt lat="49.77196" lon="4.83368">
        <ele>264</ele>
        <time>2022-06-06T10:55:10.000Z</time>
      </trkpt>
      <trkpt lat="49.77194" lon="4.83368">
        <ele>264</ele>
        <time>2022-06-06T10:55:11.000Z</time>
      </trkpt>
      <trkpt lat="49.77192" lon="4.83367">
        <ele>264</ele>
        <time>2022-06-06T10:55:12.000Z</time>
      </trkpt>
      <trkpt lat="49.77189" lon="4.83367">
        <ele>264</ele>
        <time>2022-06-06T10:55:13.000Z</time>
      </trkpt>
      <trkpt lat="49.77187" lon="4.83367">
        <ele>264</ele>
        <time>2022-06-06T10:55:14.000Z</time>
      </trkpt>
      <trkpt lat="49.77185" lon="4.83368">
        <ele>264</ele>
        <time>2022-06-06T10:55:15.000Z</time>
      </trkpt>
      <trkpt lat="49.77182" lon="4.83368">
        <ele>265</ele>
        <time>2022-06-06T10:55:16.000Z</time>
      </trkpt>
      <trkpt lat="49.7718" lon="4.83369">
        <ele>265</ele>
        <time>2022-06-06T10:55:17.000Z</time>
      </trkpt>
      <trkpt lat="49.77177" lon="4.83371">
        <ele>265</ele>
        <time>2022-06-06T10:55:18.000Z</time>
      </trkpt>
      <trkpt lat="49.77175" lon="4.83372">
        <ele>265</ele>
        <time>2022-06-06T10:55:19.000Z</time>
      </trkpt>
      <trkpt lat="49.77172" lon="4.83373">
        <ele>265</ele>
        <time>2022-06-06T10:55:20.000Z</time>
      </trkpt>
      <trkpt lat="49.7717" lon="4.83374">
        <ele>265</ele>
        <time>2022-06-06T10:55:21.000Z</time>
      </trkpt>
      <trkpt lat="49.77167" lon="4.83375">
        <ele>265</ele>
        <time>2022-06-06T10:55:22.000Z</time>
      </trkpt>
      <trkpt lat="49.77166" lon="4.83376">
        <ele>265</ele>
        <time>2022-06-06T10:55:23.000Z</time>
      </trkpt>
      <trkpt lat="49.77164" lon="4.83377">
        <ele>265</ele>
        <time>2022-06-06T10:55:24.000Z</time>
      </trkpt>
      <trkpt lat="49.77162" lon="4.83377">
        <ele>265</ele>
        <time>2022-06-06T10:55:25.000Z</time>
      </trkpt>
      <trkpt lat="49.7716" lon="4.83378">
        <ele>265</ele>
        <time>2022-06-06T10:55:26.000Z</time>
      </trkpt>
      <trkpt lat="49.77158" lon="4.83379">
        <ele>265</ele>
        <time>2022-06-06T10:55:27.000Z</time>
      </trkpt>
      <trkpt lat="49.77155" lon="4.83381">
        <ele>265</ele>
        <time>2022-06-06T10:55:28.000Z</time>
      </trkpt>
      <trkpt lat="49.77153" lon="4.83382">
        <ele>265</ele>
        <time>2022-06-06T10:55:29.000Z</time>
      </trkpt>
      <trkpt lat="49.7715" lon="4.83383">
        <ele>265</ele>
        <time>2022-06-06T10:55:30.000Z</time>
      </trkpt>
      <trkpt lat="49.77147" lon="4.83384">
        <ele>265</ele>
        <time>2022-06-06T10:55:31.000Z</time>
      </trkpt>
      <trkpt lat="49.77145" lon="4.83384">
        <ele>266</ele>
        <time>2022-06-06T10:55:32.000Z</time>
      </trkpt>
      <trkpt lat="49.77142" lon="4.83386">
        <ele>266</ele>
        <time>2022-06-06T10:55:33.000Z</time>
      </trkpt>
      <trkpt lat="49.7714" lon="4.83387">
        <ele>266</ele>
        <time>2022-06-06T10:55:34.000Z</time>
      </trkpt>
      <trkpt lat="49.77139" lon="4.83389">
        <ele>266</ele>
        <time>2022-06-06T10:55:35.000Z</time>
      </trkpt>
      <trkpt lat="49.77137" lon="4.8339">
        <ele>266</ele>
        <time>2022-06-06T10:55:36.000Z</time>
      </trkpt>
      <trkpt lat="49.77135" lon="4.83391">
        <ele>267</ele>
        <time>2022-06-06T10:55:37.000Z</time>
      </trkpt>
      <trkpt lat="49.77132" lon="4.83392">
        <ele>267</ele>
        <time>2022-06-06T10:55:38.000Z</time>
      </trkpt>
      <trkpt lat="49.7713" lon="4.83393">
        <ele>267</ele>
        <time>2022-06-06T10:55:39.000Z</time>
      </trkpt>
      <trkpt lat="49.77127" lon="4.83395">
        <ele>267</ele>
        <time>2022-06-06T10:55:40.000Z</time>
      </trkpt>
      <trkpt lat="49.77125" lon="4.83397">
        <ele>267</ele>
        <time>2022-06-06T10:55:41.000Z</time>
      </trkpt>
      <trkpt lat="49.77123" lon="4.83399">
        <ele>267</ele>
        <time>2022-06-06T10:55:42.000Z</time>
      </trkpt>
      <trkpt lat="49.7712" lon="4.834">
        <ele>267</ele>
        <time>2022-06-06T10:55:43.000Z</time>
      </trkpt>
      <trkpt lat="49.77117" lon="4.83401">
        <ele>267</ele>
        <time>2022-06-06T10:55:44.000Z</time>
      </trkpt>
      <trkpt lat="49.77115" lon="4.83402">
        <ele>267</ele>
        <time>2022-06-06T10:55:45.000Z</time>
      </trkpt>
      <trkpt lat="49.77112" lon="4.83403">
        <ele>267</ele>
        <time>2022-06-06T10:55:46.000Z</time>
      </trkpt>
      <trkpt lat="49.77109" lon="4.83404">
        <ele>267</ele>
        <time>2022-06-06T10:55:47.000Z</time>
      </trkpt>
      <trkpt lat="49.77107" lon="4.83404">
        <ele>267</ele>
        <time>2022-06-06T10:55:48.000Z</time>
      </trkpt>
      <trkpt lat="49.77103" lon="4.83404">
        <ele>267</ele>
        <time>2022-06-06T10:55:49.000Z</time>
      </trkpt>
      <trkpt lat="49.77101" lon="4.83403">
        <ele>267</ele>
        <time>2022-06-06T10:55:50.000Z</time>
      </trkpt>
      <trkpt lat="49.77098" lon="4.83403">
        <ele>267</ele>
        <time>2022-06-06T10:55:51.000Z</time>
      </trkpt>
      <trkpt lat="49.77095" lon="4.83402">
        <ele>267</ele>
        <time>2022-06-06T10:55:52.000Z</time>
      </trkpt>
      <trkpt lat="49.77092" lon="4.83401">
        <ele>268</ele>
        <time>2022-06-06T10:55:53.000Z</time>
      </trkpt>
      <trkpt lat="49.7709" lon="4.834">
        <ele>268</ele>
        <time>2022-06-06T10:55:54.000Z</time>
      </trkpt>
      <trkpt lat="49.77088" lon="4.83399">
        <ele>268</ele>
        <time>2022-06-06T10:55:55.000Z</time>
      </trkpt>
      <trkpt lat="49.77085" lon="4.83398">
        <ele>268</ele>
        <time>2022-06-06T10:55:56.000Z</time>
      </trkpt>
      <trkpt lat="49.77082" lon="4.83399">
        <ele>268</ele>
        <time>2022-06-06T10:55:57.000Z</time>
      </trkpt>
      <trkpt lat="49.7708" lon="4.83399">
        <ele>268</ele>
        <time>2022-06-06T10:55:58.000Z</time>
      </trkpt>
      <trkpt lat="49.77077" lon="4.83399">
        <ele>268</ele>
        <time>2022-06-06T10:55:59.000Z</time>
      </trkpt>
      <trkpt lat="49.77074" lon="4.83398">
        <ele>268</ele>
        <time>2022-06-06T10:56:00.000Z</time>
      </trkpt>
      <trkpt lat="49.77071" lon="4.83397">
        <ele>268</ele>
        <time>2022-06-06T10:56:01.000Z</time>
      </trkpt>
      <trkpt lat="49.77068" lon="4.83395">
        <ele>268</ele>
        <time>2022-06-06T10:56:02.000Z</time>
      </trkpt>
      <trkpt lat="49.77066" lon="4.83394">
        <ele>268</ele>
        <time>2022-06-06T10:56:03.000Z</time>
      </trkpt>
      <trkpt lat="49.77063" lon="4.83393">
        <ele>268</ele>
        <time>2022-06-06T10:56:04.000Z</time>
      </trkpt>
      <trkpt lat="49.77061" lon="4.83391">
        <ele>268</ele>
        <time>2022-06-06T10:56:05.000Z</time>
      </trkpt>
      <trkpt lat="49.77058" lon="4.8339">
        <ele>268</ele>
        <time>2022-06-06T10:56:06.000Z</time>
      </trkpt>
      <trkpt lat="49.77055" lon="4.83388">
        <ele>268</ele>
        <time>2022-06-06T10:56:07.000Z</time>
      </trkpt>
      <trkpt lat="49.77051" lon="4.83387">
        <ele>268</ele>
        <time>2022-06-06T10:56:08.000Z</time>
      </trkpt>
      <trkpt lat="49.77048" lon="4.83385">
        <ele>268</ele>
        <time>2022-06-06T10:56:09.000Z</time>
      </trkpt>
      <trkpt lat="49.77044" lon="4.83383">
        <ele>268</ele>
        <time>2022-06-06T10:56:10.000Z</time>
      </trkpt>
      <trkpt lat="49.77041" lon="4.83381">
        <ele>268</ele>
        <time>2022-06-06T10:56:11.000Z</time>
      </trkpt>
      <trkpt lat="49.77038" lon="4.8338">
        <ele>268</ele>
        <time>2022-06-06T10:56:12.000Z</time>
      </trkpt>
      <trkpt lat="49.77035" lon="4.83378">
        <ele>268</ele>
        <time>2022-06-06T10:56:13.000Z</time>
      </trkpt>
      <trkpt lat="49.77032" lon="4.83376">
        <ele>268</ele>
        <time>2022-06-06T10:56:14.000Z</time>
      </trkpt>
      <trkpt lat="49.77029" lon="4.83374">
        <ele>268</ele>
        <time>2022-06-06T10:56:15.000Z</time>
      </trkpt>
      <trkpt lat="49.77026" lon="4.83373">
        <ele>268</ele>
        <time>2022-06-06T10:56:16.000Z</time>
      </trkpt>
      <trkpt lat="49.77023" lon="4.83371">
        <ele>268</ele>
        <time>2022-06-06T10:56:17.000Z</time>
      </trkpt>
      <trkpt lat="49.7702" lon="4.83369">
        <ele>268</ele>
        <time>2022-06-06T10:56:18.000Z</time>
      </trkpt>
      <trkpt lat="49.77017" lon="4.83367">
        <ele>268</ele>
        <time>2022-06-06T10:56:19.000Z</time>
      </trkpt>
      <trkpt lat="49.77013" lon="4.83365">
        <ele>268</ele>
        <time>2022-06-06T10:56:20.000Z</time>
      </trkpt>
      <trkpt lat="49.7701" lon="4.83362">
        <ele>268</ele>
        <time>2022-06-06T10:56:21.000Z</time>
      </trkpt>
      <trkpt lat="49.77007" lon="4.8336">
        <ele>268</ele>
        <time>2022-06-06T10:56:22.000Z</time>
      </trkpt>
      <trkpt lat="49.77004" lon="4.83358">
        <ele>268</ele>
        <time>2022-06-06T10:56:23.000Z</time>
      </trkpt>
      <trkpt lat="49.77001" lon="4.83356">
        <ele>268</ele>
        <time>2022-06-06T10:56:24.000Z</time>
      </trkpt>
      <trkpt lat="49.76999" lon="4.83353">
        <ele>268</ele>
        <time>2022-06-06T10:56:25.000Z</time>
      </trkpt>
      <trkpt lat="49.76996" lon="4.8335">
        <ele>268</ele>
        <time>2022-06-06T10:56:26.000Z</time>
      </trkpt>
      <trkpt lat="49.76993" lon="4.83348">
        <ele>268</ele>
        <time>2022-06-06T10:56:27.000Z</time>
      </trkpt>
      <trkpt lat="49.76991" lon="4.83345">
        <ele>268</ele>
        <time>2022-06-06T10:56:28.000Z</time>
      </trkpt>
      <trkpt lat="49.76988" lon="4.83341">
        <ele>268</ele>
        <time>2022-06-06T10:56:29.000Z</time>
      </trkpt>
      <trkpt lat="49.76986" lon="4.83338">
        <ele>268</ele>
        <time>2022-06-06T10:56:30.000Z</time>
      </trkpt>
      <trkpt lat="49.76983" lon="4.83333">
        <ele>268</ele>
        <time>2022-06-06T10:56:31.000Z</time>
      </trkpt>
      <trkpt lat="49.76981" lon="4.8333">
        <ele>268</ele>
        <time>2022-06-06T10:56:32.000Z</time>
      </trkpt>
      <trkpt lat="49.76978" lon="4.83326">
        <ele>268</ele>
        <time>2022-06-06T10:56:33.000Z</time>
      </trkpt>
      <trkpt lat="49.76976" lon="4.83322">
        <ele>268</ele>
        <time>2022-06-06T10:56:34.000Z</time>
      </trkpt>
      <trkpt lat="49.76974" lon="4.83318">
        <ele>268</ele>
        <time>2022-06-06T10:56:35.000Z</time>
      </trkpt>
      <trkpt lat="49.76973" lon="4.83314">
        <ele>268</ele>
        <time>2022-06-06T10:56:36.000Z</time>
      </trkpt>
      <trkpt lat="49.76971" lon="4.8331">
        <ele>269</ele>
        <time>2022-06-06T10:56:37.000Z</time>
      </trkpt>
      <trkpt lat="49.7697" lon="4.83306">
        <ele>269</ele>
        <time>2022-06-06T10:56:38.000Z</time>
      </trkpt>
      <trkpt lat="49.76968" lon="4.83303">
        <ele>269</ele>
        <time>2022-06-06T10:56:39.000Z</time>
      </trkpt>
      <trkpt lat="49.76967" lon="4.83299">
        <ele>269</ele>
        <time>2022-06-06T10:56:40.000Z</time>
      </trkpt>
      <trkpt lat="49.76965" lon="4.83296">
        <ele>269</ele>
        <time>2022-06-06T10:56:41.000Z</time>
      </trkpt>
      <trkpt lat="49.76964" lon="4.83292">
        <ele>269</ele>
        <time>2022-06-06T10:56:42.000Z</time>
      </trkpt>
      <trkpt lat="49.76962" lon="4.83288">
        <ele>269</ele>
        <time>2022-06-06T10:56:43.000Z</time>
      </trkpt>
      <trkpt lat="49.7696" lon="4.83284">
        <ele>270</ele>
        <time>2022-06-06T10:56:44.000Z</time>
      </trkpt>
      <trkpt lat="49.76959" lon="4.83279">
        <ele>270</ele>
        <time>2022-06-06T10:56:45.000Z</time>
      </trkpt>
      <trkpt lat="49.76957" lon="4.83275">
        <ele>270</ele>
        <time>2022-06-06T10:56:46.000Z</time>
      </trkpt>
      <trkpt lat="49.76956" lon="4.8327">
        <ele>270</ele>
        <time>2022-06-06T10:56:47.000Z</time>
      </trkpt>
      <trkpt lat="49.76954" lon="4.83267">
        <ele>270</ele>
        <time>2022-06-06T10:56:48.000Z</time>
      </trkpt>
      <trkpt lat="49.76952" lon="4.83263">
        <ele>270</ele>
        <time>2022-06-06T10:56:49.000Z</time>
      </trkpt>
      <trkpt lat="49.76951" lon="4.83259">
        <ele>270</ele>
        <time>2022-06-06T10:56:50.000Z</time>
      </trkpt>
      <trkpt lat="49.76949" lon="4.83256">
        <ele>270</ele>
        <time>2022-06-06T10:56:51.000Z</time>
      </trkpt>
      <trkpt lat="49.76947" lon="4.83251">
        <ele>270</ele>
        <time>2022-06-06T10:56:52.000Z</time>
      </trkpt>
      <trkpt lat="49.76946" lon="4.83247">
        <ele>270</ele>
        <time>2022-06-06T10:56:53.000Z</time>
      </trkpt>
      <trkpt lat="49.76944" lon="4.83242">
        <ele>269</ele>
        <time>2022-06-06T10:56:54.000Z</time>
      </trkpt>
      <trkpt lat="49.76942" lon="4.83238">
        <ele>269</ele>
        <time>2022-06-06T10:56:55.000Z</time>
      </trkpt>
      <trkpt lat="49.76939" lon="4.83233">
        <ele>269</ele>
        <time>2022-06-06T10:56:56.000Z</time>
      </trkpt>
      <trkpt lat="49.76937" lon="4.83228">
        <ele>269</ele>
        <time>2022-06-06T10:56:57.000Z</time>
      </trkpt>
      <trkpt lat="49.76934" lon="4.83224">
        <ele>269</ele>
        <time>2022-06-06T10:56:58.000Z</time>
      </trkpt>
      <trkpt lat="49.76931" lon="4.83218">
        <ele>269</ele>
        <time>2022-06-06T10:56:59.000Z</time>
      </trkpt>
      <trkpt lat="49.7693" lon="4.83213">
        <ele>269</ele>
        <time>2022-06-06T10:57:00.000Z</time>
      </trkpt>
      <trkpt lat="49.76929" lon="4.83207">
        <ele>269</ele>
        <time>2022-06-06T10:57:01.000Z</time>
      </trkpt>
      <trkpt lat="49.76928" lon="4.83201">
        <ele>269</ele>
        <time>2022-06-06T10:57:02.000Z</time>
      </trkpt>
      <trkpt lat="49.76929" lon="4.83195">
        <ele>269</ele>
        <time>2022-06-06T10:57:03.000Z</time>
      </trkpt>
      <trkpt lat="49.7693" lon="4.8319">
        <ele>269</ele>
        <time>2022-06-06T10:57:04.000Z</time>
      </trkpt>
      <trkpt lat="49.76931" lon="4.83186">
        <ele>269</ele>
        <time>2022-06-06T10:57:05.000Z</time>
      </trkpt>
      <trkpt lat="49.76933" lon="4.83182">
        <ele>269</ele>
        <time>2022-06-06T10:57:06.000Z</time>
      </trkpt>
      <trkpt lat="49.76935" lon="4.83178">
        <ele>270</ele>
        <time>2022-06-06T10:57:07.000Z</time>
      </trkpt>
      <trkpt lat="49.76936" lon="4.83174">
        <ele>270</ele>
        <time>2022-06-06T10:57:08.000Z</time>
      </trkpt>
      <trkpt lat="49.76938" lon="4.83171">
        <ele>270</ele>
        <time>2022-06-06T10:57:09.000Z</time>
      </trkpt>
      <trkpt lat="49.7694" lon="4.83167">
        <ele>270</ele>
        <time>2022-06-06T10:57:10.000Z</time>
      </trkpt>
      <trkpt lat="49.76941" lon="4.83164">
        <ele>270</ele>
        <time>2022-06-06T10:57:11.000Z</time>
      </trkpt>
      <trkpt lat="49.76941" lon="4.83159">
        <ele>270</ele>
        <time>2022-06-06T10:57:12.000Z</time>
      </trkpt>
      <trkpt lat="49.76941" lon="4.83155">
        <ele>270</ele>
        <time>2022-06-06T10:57:13.000Z</time>
      </trkpt>
      <trkpt lat="49.76941" lon="4.8315">
        <ele>270</ele>
        <time>2022-06-06T10:57:14.000Z</time>
      </trkpt>
      <trkpt lat="49.76939" lon="4.83145">
        <ele>270</ele>
        <time>2022-06-06T10:57:15.000Z</time>
      </trkpt>
      <trkpt lat="49.76938" lon="4.8314">
        <ele>270</ele>
        <time>2022-06-06T10:57:16.000Z</time>
      </trkpt>
      <trkpt lat="49.76936" lon="4.83135">
        <ele>270</ele>
        <time>2022-06-06T10:57:17.000Z</time>
      </trkpt>
      <trkpt lat="49.76933" lon="4.8313">
        <ele>270</ele>
        <time>2022-06-06T10:57:18.000Z</time>
      </trkpt>
      <trkpt lat="49.76931" lon="4.83125">
        <ele>270</ele>
        <time>2022-06-06T10:57:19.000Z</time>
      </trkpt>
      <trkpt lat="49.76929" lon="4.83119">
        <ele>270</ele>
        <time>2022-06-06T10:57:20.000Z</time>
      </trkpt>
      <trkpt lat="49.76927" lon="4.83114">
        <ele>270</ele>
        <time>2022-06-06T10:57:21.000Z</time>
      </trkpt>
      <trkpt lat="49.76924" lon="4.83108">
        <ele>269</ele>
        <time>2022-06-06T10:57:22.000Z</time>
      </trkpt>
      <trkpt lat="49.76921" lon="4.83102">
        <ele>269</ele>
        <time>2022-06-06T10:57:23.000Z</time>
      </trkpt>
      <trkpt lat="49.76919" lon="4.83097">
        <ele>269</ele>
        <time>2022-06-06T10:57:24.000Z</time>
      </trkpt>
      <trkpt lat="49.76916" lon="4.83091">
        <ele>269</ele>
        <time>2022-06-06T10:57:25.000Z</time>
      </trkpt>
      <trkpt lat="49.76914" lon="4.83085">
        <ele>269</ele>
        <time>2022-06-06T10:57:26.000Z</time>
      </trkpt>
      <trkpt lat="49.76911" lon="4.83079">
        <ele>269</ele>
        <time>2022-06-06T10:57:27.000Z</time>
      </trkpt>
      <trkpt lat="49.76909" lon="4.83074">
        <ele>269</ele>
        <time>2022-06-06T10:57:28.000Z</time>
      </trkpt>
      <trkpt lat="49.76906" lon="4.83068">
        <ele>269</ele>
        <time>2022-06-06T10:57:29.000Z</time>
      </trkpt>
      <trkpt lat="49.76903" lon="4.83062">
        <ele>268</ele>
        <time>2022-06-06T10:57:30.000Z</time>
      </trkpt>
      <trkpt lat="49.76901" lon="4.83055">
        <ele>268</ele>
        <time>2022-06-06T10:57:31.000Z</time>
      </trkpt>
      <trkpt lat="49.76898" lon="4.83049">
        <ele>268</ele>
        <time>2022-06-06T10:57:32.000Z</time>
      </trkpt>
      <trkpt lat="49.76896" lon="4.83043">
        <ele>268</ele>
        <time>2022-06-06T10:57:33.000Z</time>
      </trkpt>
      <trkpt lat="49.76893" lon="4.83037">
        <ele>268</ele>
        <time>2022-06-06T10:57:34.000Z</time>
      </trkpt>
      <trkpt lat="49.7689" lon="4.83031">
        <ele>268</ele>
        <time>2022-06-06T10:57:35.000Z</time>
      </trkpt>
      <trkpt lat="49.76887" lon="4.83025">
        <ele>268</ele>
        <time>2022-06-06T10:57:36.000Z</time>
      </trkpt>
      <trkpt lat="49.76884" lon="4.83018">
        <ele>267</ele>
        <time>2022-06-06T10:57:37.000Z</time>
      </trkpt>
      <trkpt lat="49.76882" lon="4.83012">
        <ele>267</ele>
        <time>2022-06-06T10:57:38.000Z</time>
      </trkpt>
      <trkpt lat="49.76879" lon="4.83005">
        <ele>267</ele>
        <time>2022-06-06T10:57:39.000Z</time>
      </trkpt>
      <trkpt lat="49.76876" lon="4.82999">
        <ele>267</ele>
        <time>2022-06-06T10:57:40.000Z</time>
      </trkpt>
      <trkpt lat="49.76873" lon="4.82992">
        <ele>267</ele>
        <time>2022-06-06T10:57:41.000Z</time>
      </trkpt>
      <trkpt lat="49.76871" lon="4.82986">
        <ele>267</ele>
        <time>2022-06-06T10:57:42.000Z</time>
      </trkpt>
      <trkpt lat="49.76868" lon="4.82979">
        <ele>267</ele>
        <time>2022-06-06T10:57:43.000Z</time>
      </trkpt>
      <trkpt lat="49.76865" lon="4.82973">
        <ele>266</ele>
        <time>2022-06-06T10:57:44.000Z</time>
      </trkpt>
      <trkpt lat="49.76862" lon="4.82966">
        <ele>266</ele>
        <time>2022-06-06T10:57:45.000Z</time>
      </trkpt>
      <trkpt lat="49.7686" lon="4.8296">
        <ele>266</ele>
        <time>2022-06-06T10:57:46.000Z</time>
      </trkpt>
      <trkpt lat="49.76857" lon="4.82953">
        <ele>266</ele>
        <time>2022-06-06T10:57:47.000Z</time>
      </trkpt>
      <trkpt lat="49.76854" lon="4.82946">
        <ele>266</ele>
        <time>2022-06-06T10:57:48.000Z</time>
      </trkpt>
      <trkpt lat="49.76851" lon="4.8294">
        <ele>266</ele>
        <time>2022-06-06T10:57:49.000Z</time>
      </trkpt>
      <trkpt lat="49.76849" lon="4.82934">
        <ele>266</ele>
        <time>2022-06-06T10:57:50.000Z</time>
      </trkpt>
      <trkpt lat="49.76846" lon="4.82927">
        <ele>265</ele>
        <time>2022-06-06T10:57:51.000Z</time>
      </trkpt>
      <trkpt lat="49.76844" lon="4.82921">
        <ele>265</ele>
        <time>2022-06-06T10:57:52.000Z</time>
      </trkpt>
      <trkpt lat="49.76841" lon="4.82915">
        <ele>265</ele>
        <time>2022-06-06T10:57:53.000Z</time>
      </trkpt>
      <trkpt lat="49.76838" lon="4.82908">
        <ele>265</ele>
        <time>2022-06-06T10:57:54.000Z</time>
      </trkpt>
      <trkpt lat="49.76835" lon="4.82902">
        <ele>265</ele>
        <time>2022-06-06T10:57:55.000Z</time>
      </trkpt>
      <trkpt lat="49.76832" lon="4.82895">
        <ele>265</ele>
        <time>2022-06-06T10:57:56.000Z</time>
      </trkpt>
      <trkpt lat="49.76829" lon="4.82889">
        <ele>265</ele>
        <time>2022-06-06T10:57:57.000Z</time>
      </trkpt>
      <trkpt lat="49.76827" lon="4.82883">
        <ele>265</ele>
        <time>2022-06-06T10:57:58.000Z</time>
      </trkpt>
      <trkpt lat="49.76824" lon="4.82878">
        <ele>264</ele>
        <time>2022-06-06T10:57:59.000Z</time>
      </trkpt>
      <trkpt lat="49.76821" lon="4.82872">
        <ele>264</ele>
        <time>2022-06-06T10:58:00.000Z</time>
      </trkpt>
      <trkpt lat="49.76818" lon="4.82866">
        <ele>264</ele>
        <time>2022-06-06T10:58:01.000Z</time>
      </trkpt>
      <trkpt lat="49.76815" lon="4.8286">
        <ele>264</ele>
        <time>2022-06-06T10:58:02.000Z</time>
      </trkpt>
      <trkpt lat="49.76812" lon="4.82854">
        <ele>264</ele>
        <time>2022-06-06T10:58:03.000Z</time>
      </trkpt>
      <trkpt lat="49.76809" lon="4.82847">
        <ele>264</ele>
        <time>2022-06-06T10:58:04.000Z</time>
      </trkpt>
      <trkpt lat="49.76806" lon="4.82841">
        <ele>264</ele>
        <time>2022-06-06T10:58:05.000Z</time>
      </trkpt>
      <trkpt lat="49.76802" lon="4.82834">
        <ele>264</ele>
        <time>2022-06-06T10:58:06.000Z</time>
      </trkpt>
      <trkpt lat="49.76799" lon="4.82828">
        <ele>263</ele>
        <time>2022-06-06T10:58:07.000Z</time>
      </trkpt>
      <trkpt lat="49.76796" lon="4.82821">
        <ele>263</ele>
        <time>2022-06-06T10:58:08.000Z</time>
      </trkpt>
      <trkpt lat="49.76793" lon="4.82814">
        <ele>263</ele>
        <time>2022-06-06T10:58:09.000Z</time>
      </trkpt>
      <trkpt lat="49.76789" lon="4.82808">
        <ele>263</ele>
        <time>2022-06-06T10:58:10.000Z</time>
      </trkpt>
      <trkpt lat="49.76786" lon="4.82801">
        <ele>263</ele>
        <time>2022-06-06T10:58:11.000Z</time>
      </trkpt>
      <trkpt lat="49.76783" lon="4.82795">
        <ele>262</ele>
        <time>2022-06-06T10:58:12.000Z</time>
      </trkpt>
      <trkpt lat="49.7678" lon="4.82789">
        <ele>262</ele>
        <time>2022-06-06T10:58:13.000Z</time>
      </trkpt>
      <trkpt lat="49.76777" lon="4.82782">
        <ele>262</ele>
        <time>2022-06-06T10:58:14.000Z</time>
      </trkpt>
      <trkpt lat="49.76774" lon="4.82776">
        <ele>262</ele>
        <time>2022-06-06T10:58:15.000Z</time>
      </trkpt>
      <trkpt lat="49.76771" lon="4.82769">
        <ele>261</ele>
        <time>2022-06-06T10:58:16.000Z</time>
      </trkpt>
      <trkpt lat="49.76768" lon="4.82762">
        <ele>261</ele>
        <time>2022-06-06T10:58:17.000Z</time>
      </trkpt>
      <trkpt lat="49.76765" lon="4.82755">
        <ele>261</ele>
        <time>2022-06-06T10:58:18.000Z</time>
      </trkpt>
      <trkpt lat="49.76762" lon="4.82748">
        <ele>261</ele>
        <time>2022-06-06T10:58:19.000Z</time>
      </trkpt>
      <trkpt lat="49.76759" lon="4.82741">
        <ele>260</ele>
        <time>2022-06-06T10:58:20.000Z</time>
      </trkpt>
      <trkpt lat="49.76756" lon="4.82734">
        <ele>260</ele>
        <time>2022-06-06T10:58:21.000Z</time>
      </trkpt>
      <trkpt lat="49.76753" lon="4.82727">
        <ele>260</ele>
        <time>2022-06-06T10:58:22.000Z</time>
      </trkpt>
      <trkpt lat="49.7675" lon="4.8272">
        <ele>260</ele>
        <time>2022-06-06T10:58:23.000Z</time>
      </trkpt>
      <trkpt lat="49.76747" lon="4.82714">
        <ele>260</ele>
        <time>2022-06-06T10:58:24.000Z</time>
      </trkpt>
      <trkpt lat="49.76744" lon="4.82707">
        <ele>260</ele>
        <time>2022-06-06T10:58:25.000Z</time>
      </trkpt>
      <trkpt lat="49.76741" lon="4.827">
        <ele>260</ele>
        <time>2022-06-06T10:58:26.000Z</time>
      </trkpt>
      <trkpt lat="49.76738" lon="4.82693">
        <ele>260</ele>
        <time>2022-06-06T10:58:27.000Z</time>
      </trkpt>
      <trkpt lat="49.76736" lon="4.82686">
        <ele>259</ele>
        <time>2022-06-06T10:58:28.000Z</time>
      </trkpt>
      <trkpt lat="49.76733" lon="4.82679">
        <ele>259</ele>
        <time>2022-06-06T10:58:29.000Z</time>
      </trkpt>
      <trkpt lat="49.76731" lon="4.82671">
        <ele>259</ele>
        <time>2022-06-06T10:58:30.000Z</time>
      </trkpt>
      <trkpt lat="49.76729" lon="4.82664">
        <ele>259</ele>
        <time>2022-06-06T10:58:31.000Z</time>
      </trkpt>
      <trkpt lat="49.76727" lon="4.82657">
        <ele>259</ele>
        <time>2022-06-06T10:58:32.000Z</time>
      </trkpt>
      <trkpt lat="49.76725" lon="4.82649">
        <ele>259</ele>
        <time>2022-06-06T10:58:33.000Z</time>
      </trkpt>
      <trkpt lat="49.76723" lon="4.82642">
        <ele>259</ele>
        <time>2022-06-06T10:58:34.000Z</time>
      </trkpt>
      <trkpt lat="49.76721" lon="4.82635">
        <ele>259</ele>
        <time>2022-06-06T10:58:35.000Z</time>
      </trkpt>
      <trkpt lat="49.76719" lon="4.82627">
        <ele>258</ele>
        <time>2022-06-06T10:58:36.000Z</time>
      </trkpt>
      <trkpt lat="49.76716" lon="4.8262">
        <ele>258</ele>
        <time>2022-06-06T10:58:37.000Z</time>
      </trkpt>
      <trkpt lat="49.76714" lon="4.82612">
        <ele>258</ele>
        <time>2022-06-06T10:58:38.000Z</time>
      </trkpt>
      <trkpt lat="49.76712" lon="4.82605">
        <ele>258</ele>
        <time>2022-06-06T10:58:39.000Z</time>
      </trkpt>
      <trkpt lat="49.76711" lon="4.82598">
        <ele>258</ele>
        <time>2022-06-06T10:58:40.000Z</time>
      </trkpt>
      <trkpt lat="49.76709" lon="4.82591">
        <ele>258</ele>
        <time>2022-06-06T10:58:41.000Z</time>
      </trkpt>
      <trkpt lat="49.76707" lon="4.82584">
        <ele>258</ele>
        <time>2022-06-06T10:58:42.000Z</time>
      </trkpt>
      <trkpt lat="49.76705" lon="4.82577">
        <ele>258</ele>
        <time>2022-06-06T10:58:43.000Z</time>
      </trkpt>
      <trkpt lat="49.76703" lon="4.8257">
        <ele>258</ele>
        <time>2022-06-06T10:58:44.000Z</time>
      </trkpt>
      <trkpt lat="49.76702" lon="4.82564">
        <ele>258</ele>
        <time>2022-06-06T10:58:45.000Z</time>
      </trkpt>
      <trkpt lat="49.767" lon="4.82557">
        <ele>257</ele>
        <time>2022-06-06T10:58:46.000Z</time>
      </trkpt>
      <trkpt lat="49.76699" lon="4.8255">
        <ele>257</ele>
        <time>2022-06-06T10:58:47.000Z</time>
      </trkpt>
      <trkpt lat="49.76697" lon="4.82543">
        <ele>257</ele>
        <time>2022-06-06T10:58:48.000Z</time>
      </trkpt>
      <trkpt lat="49.76696" lon="4.82536">
        <ele>257</ele>
        <time>2022-06-06T10:58:49.000Z</time>
      </trkpt>
      <trkpt lat="49.76694" lon="4.82529">
        <ele>257</ele>
        <time>2022-06-06T10:58:50.000Z</time>
      </trkpt>
      <trkpt lat="49.76692" lon="4.82522">
        <ele>257</ele>
        <time>2022-06-06T10:58:51.000Z</time>
      </trkpt>
      <trkpt lat="49.7669" lon="4.82515">
        <ele>257</ele>
        <time>2022-06-06T10:58:52.000Z</time>
      </trkpt>
      <trkpt lat="49.76688" lon="4.82507">
        <ele>257</ele>
        <time>2022-06-06T10:58:53.000Z</time>
      </trkpt>
      <trkpt lat="49.76686" lon="4.825">
        <ele>257</ele>
        <time>2022-06-06T10:58:54.000Z</time>
      </trkpt>
      <trkpt lat="49.76684" lon="4.82492">
        <ele>257</ele>
        <time>2022-06-06T10:58:55.000Z</time>
      </trkpt>
      <trkpt lat="49.76682" lon="4.82485">
        <ele>257</ele>
        <time>2022-06-06T10:58:56.000Z</time>
      </trkpt>
      <trkpt lat="49.7668" lon="4.82478">
        <ele>257</ele>
        <time>2022-06-06T10:58:57.000Z</time>
      </trkpt>
      <trkpt lat="49.76678" lon="4.82471">
        <ele>257</ele>
        <time>2022-06-06T10:58:58.000Z</time>
      </trkpt>
      <trkpt lat="49.76676" lon="4.82464">
        <ele>257</ele>
        <time>2022-06-06T10:58:59.000Z</time>
      </trkpt>
      <trkpt lat="49.76674" lon="4.82457">
        <ele>256</ele>
        <time>2022-06-06T10:59:00.000Z</time>
      </trkpt>
      <trkpt lat="49.76672" lon="4.82449">
        <ele>256</ele>
        <time>2022-06-06T10:59:01.000Z</time>
      </trkpt>
      <trkpt lat="49.76669" lon="4.82442">
        <ele>256</ele>
        <time>2022-06-06T10:59:02.000Z</time>
      </trkpt>
      <trkpt lat="49.76667" lon="4.82434">
        <ele>256</ele>
        <time>2022-06-06T10:59:03.000Z</time>
      </trkpt>
      <trkpt lat="49.76665" lon="4.82426">
        <ele>256</ele>
        <time>2022-06-06T10:59:04.000Z</time>
      </trkpt>
      <trkpt lat="49.76664" lon="4.82418">
        <ele>256</ele>
        <time>2022-06-06T10:59:05.000Z</time>
      </trkpt>
      <trkpt lat="49.76662" lon="4.82411">
        <ele>256</ele>
        <time>2022-06-06T10:59:06.000Z</time>
      </trkpt>
      <trkpt lat="49.76661" lon="4.82403">
        <ele>256</ele>
        <time>2022-06-06T10:59:07.000Z</time>
      </trkpt>
      <trkpt lat="49.76659" lon="4.82395">
        <ele>256</ele>
        <time>2022-06-06T10:59:08.000Z</time>
      </trkpt>
      <trkpt lat="49.76658" lon="4.82387">
        <ele>255</ele>
        <time>2022-06-06T10:59:09.000Z</time>
      </trkpt>
      <trkpt lat="49.76657" lon="4.82379">
        <ele>255</ele>
        <time>2022-06-06T10:59:10.000Z</time>
      </trkpt>
      <trkpt lat="49.76656" lon="4.8237">
        <ele>255</ele>
        <time>2022-06-06T10:59:11.000Z</time>
      </trkpt>
      <trkpt lat="49.76655" lon="4.82362">
        <ele>255</ele>
        <time>2022-06-06T10:59:12.000Z</time>
      </trkpt>
      <trkpt lat="49.76655" lon="4.82354">
        <ele>255</ele>
        <time>2022-06-06T10:59:13.000Z</time>
      </trkpt>
      <trkpt lat="49.76655" lon="4.82345">
        <ele>255</ele>
        <time>2022-06-06T10:59:14.000Z</time>
      </trkpt>
      <trkpt lat="49.76654" lon="4.82337">
        <ele>255</ele>
        <time>2022-06-06T10:59:15.000Z</time>
      </trkpt>
      <trkpt lat="49.76654" lon="4.82329">
        <ele>255</ele>
        <time>2022-06-06T10:59:16.000Z</time>
      </trkpt>
      <trkpt lat="49.76653" lon="4.82321">
        <ele>255</ele>
        <time>2022-06-06T10:59:17.000Z</time>
      </trkpt>
      <trkpt lat="49.76653" lon="4.82313">
        <ele>254</ele>
        <time>2022-06-06T10:59:18.000Z</time>
      </trkpt>
      <trkpt lat="49.76653" lon="4.82305">
        <ele>254</ele>
        <time>2022-06-06T10:59:19.000Z</time>
      </trkpt>
      <trkpt lat="49.76653" lon="4.82297">
        <ele>254</ele>
        <time>2022-06-06T10:59:20.000Z</time>
      </trkpt>
      <trkpt lat="49.76653" lon="4.82289">
        <ele>254</ele>
        <time>2022-06-06T10:59:21.000Z</time>
      </trkpt>
      <trkpt lat="49.76652" lon="4.82281">
        <ele>254</ele>
        <time>2022-06-06T10:59:22.000Z</time>
      </trkpt>
      <trkpt lat="49.76652" lon="4.82273">
        <ele>254</ele>
        <time>2022-06-06T10:59:23.000Z</time>
      </trkpt>
      <trkpt lat="49.76651" lon="4.82266">
        <ele>254</ele>
        <time>2022-06-06T10:59:24.000Z</time>
      </trkpt>
      <trkpt lat="49.76649" lon="4.82259">
        <ele>254</ele>
        <time>2022-06-06T10:59:25.000Z</time>
      </trkpt>
      <trkpt lat="49.76648" lon="4.82252">
        <ele>254</ele>
        <time>2022-06-06T10:59:26.000Z</time>
      </trkpt>
      <trkpt lat="49.76647" lon="4.82245">
        <ele>254</ele>
        <time>2022-06-06T10:59:27.000Z</time>
      </trkpt>
      <trkpt lat="49.76645" lon="4.82237">
        <ele>254</ele>
        <time>2022-06-06T10:59:28.000Z</time>
      </trkpt>
      <trkpt lat="49.76644" lon="4.8223">
        <ele>254</ele>
        <time>2022-06-06T10:59:29.000Z</time>
      </trkpt>
      <trkpt lat="49.76642" lon="4.82223">
        <ele>254</ele>
        <time>2022-06-06T10:59:30.000Z</time>
      </trkpt>
      <trkpt lat="49.7664" lon="4.82216">
        <ele>254</ele>
        <time>2022-06-06T10:59:31.000Z</time>
      </trkpt>
      <trkpt lat="49.76639" lon="4.82208">
        <ele>254</ele>
        <time>2022-06-06T10:59:32.000Z</time>
      </trkpt>
      <trkpt lat="49.76637" lon="4.82201">
        <ele>254</ele>
        <time>2022-06-06T10:59:33.000Z</time>
      </trkpt>
      <trkpt lat="49.76635" lon="4.82193">
        <ele>254</ele>
        <time>2022-06-06T10:59:34.000Z</time>
      </trkpt>
      <trkpt lat="49.76634" lon="4.82186">
        <ele>254</ele>
        <time>2022-06-06T10:59:35.000Z</time>
      </trkpt>
      <trkpt lat="49.76631" lon="4.82179">
        <ele>254</ele>
        <time>2022-06-06T10:59:36.000Z</time>
      </trkpt>
      <trkpt lat="49.76629" lon="4.82172">
        <ele>254</ele>
        <time>2022-06-06T10:59:37.000Z</time>
      </trkpt>
      <trkpt lat="49.76627" lon="4.82165">
        <ele>254</ele>
        <time>2022-06-06T10:59:38.000Z</time>
      </trkpt>
      <trkpt lat="49.76626" lon="4.82158">
        <ele>254</ele>
        <time>2022-06-06T10:59:39.000Z</time>
      </trkpt>
      <trkpt lat="49.76624" lon="4.8215">
        <ele>254</ele>
        <time>2022-06-06T10:59:40.000Z</time>
      </trkpt>
      <trkpt lat="49.76622" lon="4.82143">
        <ele>254</ele>
        <time>2022-06-06T10:59:41.000Z</time>
      </trkpt>
      <trkpt lat="49.76621" lon="4.82136">
        <ele>254</ele>
        <time>2022-06-06T10:59:42.000Z</time>
      </trkpt>
      <trkpt lat="49.76619" lon="4.82129">
        <ele>254</ele>
        <time>2022-06-06T10:59:43.000Z</time>
      </trkpt>
      <trkpt lat="49.76617" lon="4.82122">
        <ele>254</ele>
        <time>2022-06-06T10:59:44.000Z</time>
      </trkpt>
      <trkpt lat="49.76615" lon="4.82115">
        <ele>254</ele>
        <time>2022-06-06T10:59:45.000Z</time>
      </trkpt>
      <trkpt lat="49.76613" lon="4.82108">
        <ele>255</ele>
        <time>2022-06-06T10:59:46.000Z</time>
      </trkpt>
      <trkpt lat="49.76611" lon="4.82101">
        <ele>255</ele>
        <time>2022-06-06T10:59:47.000Z</time>
      </trkpt>
      <trkpt lat="49.76609" lon="4.82094">
        <ele>255</ele>
        <time>2022-06-06T10:59:48.000Z</time>
      </trkpt>
      <trkpt lat="49.76607" lon="4.82086">
        <ele>255</ele>
        <time>2022-06-06T10:59:49.000Z</time>
      </trkpt>
      <trkpt lat="49.76606" lon="4.82079">
        <ele>255</ele>
        <time>2022-06-06T10:59:50.000Z</time>
      </trkpt>
      <trkpt lat="49.76604" lon="4.82072">
        <ele>255</ele>
        <time>2022-06-06T10:59:51.000Z</time>
      </trkpt>
      <trkpt lat="49.76602" lon="4.82065">
        <ele>255</ele>
        <time>2022-06-06T10:59:52.000Z</time>
      </trkpt>
      <trkpt lat="49.76601" lon="4.82057">
        <ele>255</ele>
        <time>2022-06-06T10:59:53.000Z</time>
      </trkpt>
      <trkpt lat="49.76599" lon="4.8205">
        <ele>255</ele>
        <time>2022-06-06T10:59:54.000Z</time>
      </trkpt>
      <trkpt lat="49.76597" lon="4.82043">
        <ele>254</ele>
        <time>2022-06-06T10:59:55.000Z</time>
      </trkpt>
      <trkpt lat="49.76596" lon="4.82036">
        <ele>254</ele>
        <time>2022-06-06T10:59:56.000Z</time>
      </trkpt>
      <trkpt lat="49.76595" lon="4.82028">
        <ele>254</ele>
        <time>2022-06-06T10:59:57.000Z</time>
      </trkpt>
      <trkpt lat="49.76594" lon="4.82021">
        <ele>254</ele>
        <time>2022-06-06T10:59:58.000Z</time>
      </trkpt>
      <trkpt lat="49.76594" lon="4.82014">
        <ele>254</ele>
        <time>2022-06-06T10:59:59.000Z</time>
      </trkpt>
      <trkpt lat="49.76593" lon="4.82008">
        <ele>254</ele>
        <time>2022-06-06T11:00:00.000Z</time>
      </trkpt>
      <trkpt lat="49.76592" lon="4.82004">
        <ele>254</ele>
        <time>2022-06-06T11:00:01.000Z</time>
      </trkpt>
      <trkpt lat="49.7659" lon="4.82001">
        <ele>254</ele>
        <time>2022-06-06T11:00:02.000Z</time>
      </trkpt>
      <trkpt lat="49.76587" lon="4.82">
        <ele>254</ele>
        <time>2022-06-06T11:00:03.000Z</time>
      </trkpt>
      <trkpt lat="49.76583" lon="4.82001">
        <ele>254</ele>
        <time>2022-06-06T11:00:04.000Z</time>
      </trkpt>
      <trkpt lat="49.76579" lon="4.82004">
        <ele>254</ele>
        <time>2022-06-06T11:00:05.000Z</time>
      </trkpt>
      <trkpt lat="49.76575" lon="4.82007">
        <ele>254</ele>
        <time>2022-06-06T11:00:06.000Z</time>
      </trkpt>
      <trkpt lat="49.76572" lon="4.82011">
        <ele>254</ele>
        <time>2022-06-06T11:00:07.000Z</time>
      </trkpt>
      <trkpt lat="49.76568" lon="4.82015">
        <ele>254</ele>
        <time>2022-06-06T11:00:08.000Z</time>
      </trkpt>
      <trkpt lat="49.76564" lon="4.82019">
        <ele>254</ele>
        <time>2022-06-06T11:00:09.000Z</time>
      </trkpt>
      <trkpt lat="49.7656" lon="4.82024">
        <ele>254</ele>
        <time>2022-06-06T11:00:10.000Z</time>
      </trkpt>
      <trkpt lat="49.76555" lon="4.82027">
        <ele>254</ele>
        <time>2022-06-06T11:00:11.000Z</time>
      </trkpt>
      <trkpt lat="49.7655" lon="4.82028">
        <ele>254</ele>
        <time>2022-06-06T11:00:12.000Z</time>
      </trkpt>
      <trkpt lat="49.76546" lon="4.82027">
        <ele>254</ele>
        <time>2022-06-06T11:00:13.000Z</time>
      </trkpt>
      <trkpt lat="49.76542" lon="4.82023">
        <ele>254</ele>
        <time>2022-06-06T11:00:14.000Z</time>
      </trkpt>
      <trkpt lat="49.76539" lon="4.82017">
        <ele>254</ele>
        <time>2022-06-06T11:00:15.000Z</time>
      </trkpt>
      <trkpt lat="49.76536" lon="4.82011">
        <ele>254</ele>
        <time>2022-06-06T11:00:16.000Z</time>
      </trkpt>
      <trkpt lat="49.76534" lon="4.82005">
        <ele>254</ele>
        <time>2022-06-06T11:00:17.000Z</time>
      </trkpt>
      <trkpt lat="49.76531" lon="4.81998">
        <ele>254</ele>
        <time>2022-06-06T11:00:18.000Z</time>
      </trkpt>
      <trkpt lat="49.76529" lon="4.81991">
        <ele>254</ele>
        <time>2022-06-06T11:00:19.000Z</time>
      </trkpt>
      <trkpt lat="49.76527" lon="4.81984">
        <ele>254</ele>
        <time>2022-06-06T11:00:20.000Z</time>
      </trkpt>
      <trkpt lat="49.76525" lon="4.81978">
        <ele>254</ele>
        <time>2022-06-06T11:00:21.000Z</time>
      </trkpt>
      <trkpt lat="49.76523" lon="4.81971">
        <ele>254</ele>
        <time>2022-06-06T11:00:22.000Z</time>
      </trkpt>
      <trkpt lat="49.76521" lon="4.81965">
        <ele>254</ele>
        <time>2022-06-06T11:00:23.000Z</time>
      </trkpt>
      <trkpt lat="49.76519" lon="4.81959">
        <ele>254</ele>
        <time>2022-06-06T11:00:24.000Z</time>
      </trkpt>
      <trkpt lat="49.76517" lon="4.81952">
        <ele>254</ele>
        <time>2022-06-06T11:00:25.000Z</time>
      </trkpt>
      <trkpt lat="49.76515" lon="4.81946">
        <ele>254</ele>
        <time>2022-06-06T11:00:26.000Z</time>
      </trkpt>
      <trkpt lat="49.76513" lon="4.8194">
        <ele>254</ele>
        <time>2022-06-06T11:00:27.000Z</time>
      </trkpt>
      <trkpt lat="49.76512" lon="4.81933">
        <ele>254</ele>
        <time>2022-06-06T11:00:28.000Z</time>
      </trkpt>
      <trkpt lat="49.7651" lon="4.81927">
        <ele>254</ele>
        <time>2022-06-06T11:00:29.000Z</time>
      </trkpt>
      <trkpt lat="49.76508" lon="4.81921">
        <ele>254</ele>
        <time>2022-06-06T11:00:30.000Z</time>
      </trkpt>
      <trkpt lat="49.76507" lon="4.81915">
        <ele>254</ele>
        <time>2022-06-06T11:00:31.000Z</time>
      </trkpt>
      <trkpt lat="49.76506" lon="4.81909">
        <ele>255</ele>
        <time>2022-06-06T11:00:32.000Z</time>
      </trkpt>
      <trkpt lat="49.76504" lon="4.81903">
        <ele>255</ele>
        <time>2022-06-06T11:00:33.000Z</time>
      </trkpt>
      <trkpt lat="49.76503" lon="4.81896">
        <ele>255</ele>
        <time>2022-06-06T11:00:34.000Z</time>
      </trkpt>
      <trkpt lat="49.76501" lon="4.81891">
        <ele>255</ele>
        <time>2022-06-06T11:00:35.000Z</time>
      </trkpt>
      <trkpt lat="49.76499" lon="4.81885">
        <ele>255</ele>
        <time>2022-06-06T11:00:36.000Z</time>
      </trkpt>
      <trkpt lat="49.76498" lon="4.81879">
        <ele>255</ele>
        <time>2022-06-06T11:00:37.000Z</time>
      </trkpt>
      <trkpt lat="49.76496" lon="4.81873">
        <ele>255</ele>
        <time>2022-06-06T11:00:38.000Z</time>
      </trkpt>
      <trkpt lat="49.76495" lon="4.81867">
        <ele>255</ele>
        <time>2022-06-06T11:00:39.000Z</time>
      </trkpt>
      <trkpt lat="49.76493" lon="4.8186">
        <ele>256</ele>
        <time>2022-06-06T11:00:40.000Z</time>
      </trkpt>
      <trkpt lat="49.76492" lon="4.81854">
        <ele>256</ele>
        <time>2022-06-06T11:00:41.000Z</time>
      </trkpt>
      <trkpt lat="49.7649" lon="4.81848">
        <ele>256</ele>
        <time>2022-06-06T11:00:42.000Z</time>
      </trkpt>
      <trkpt lat="49.76489" lon="4.81841">
        <ele>256</ele>
        <time>2022-06-06T11:00:43.000Z</time>
      </trkpt>
      <trkpt lat="49.76487" lon="4.81835">
        <ele>256</ele>
        <time>2022-06-06T11:00:44.000Z</time>
      </trkpt>
      <trkpt lat="49.76486" lon="4.81828">
        <ele>256</ele>
        <time>2022-06-06T11:00:45.000Z</time>
      </trkpt>
      <trkpt lat="49.76485" lon="4.81822">
        <ele>256</ele>
        <time>2022-06-06T11:00:46.000Z</time>
      </trkpt>
      <trkpt lat="49.76483" lon="4.81815">
        <ele>256</ele>
        <time>2022-06-06T11:00:47.000Z</time>
      </trkpt>
      <trkpt lat="49.76482" lon="4.81809">
        <ele>257</ele>
        <time>2022-06-06T11:00:48.000Z</time>
      </trkpt>
      <trkpt lat="49.76481" lon="4.81804">
        <ele>257</ele>
        <time>2022-06-06T11:00:49.000Z</time>
      </trkpt>
      <trkpt lat="49.76479" lon="4.81799">
        <ele>257</ele>
        <time>2022-06-06T11:00:50.000Z</time>
      </trkpt>
      <trkpt lat="49.76478" lon="4.81795">
        <ele>257</ele>
        <time>2022-06-06T11:00:51.000Z</time>
      </trkpt>
      <trkpt lat="49.76477" lon="4.81791">
        <ele>257</ele>
        <time>2022-06-06T11:00:52.000Z</time>
      </trkpt>
      <trkpt lat="49.76476" lon="4.81788">
        <ele>257</ele>
        <time>2022-06-06T11:00:53.000Z</time>
      </trkpt>
      <trkpt lat="49.76475" lon="4.81784">
        <ele>258</ele>
        <time>2022-06-06T11:00:54.000Z</time>
      </trkpt>
      <trkpt lat="49.76474" lon="4.8178">
        <ele>258</ele>
        <time>2022-06-06T11:00:55.000Z</time>
      </trkpt>
      <trkpt lat="49.76473" lon="4.81776">
        <ele>258</ele>
        <time>2022-06-06T11:00:56.000Z</time>
      </trkpt>
      <trkpt lat="49.76472" lon="4.81772">
        <ele>258</ele>
        <time>2022-06-06T11:00:57.000Z</time>
      </trkpt>
      <trkpt lat="49.76471" lon="4.81768">
        <ele>258</ele>
        <time>2022-06-06T11:00:58.000Z</time>
      </trkpt>
      <trkpt lat="49.7647" lon="4.81765">
        <ele>258</ele>
        <time>2022-06-06T11:00:59.000Z</time>
      </trkpt>
      <trkpt lat="49.76469" lon="4.81761">
        <ele>259</ele>
        <time>2022-06-06T11:01:00.000Z</time>
      </trkpt>
      <trkpt lat="49.76468" lon="4.81758">
        <ele>259</ele>
        <time>2022-06-06T11:01:01.000Z</time>
      </trkpt>
      <trkpt lat="49.76468" lon="4.81754">
        <ele>259</ele>
        <time>2022-06-06T11:01:02.000Z</time>
      </trkpt>
      <trkpt lat="49.76467" lon="4.81751">
        <ele>259</ele>
        <time>2022-06-06T11:01:03.000Z</time>
      </trkpt>
      <trkpt lat="49.76466" lon="4.81748">
        <ele>259</ele>
        <time>2022-06-06T11:01:04.000Z</time>
      </trkpt>
      <trkpt lat="49.76465" lon="4.81744">
        <ele>259</ele>
        <time>2022-06-06T11:01:05.000Z</time>
      </trkpt>
      <trkpt lat="49.76464" lon="4.8174">
        <ele>259</ele>
        <time>2022-06-06T11:01:06.000Z</time>
      </trkpt>
      <trkpt lat="49.76463" lon="4.81736">
        <ele>259</ele>
        <time>2022-06-06T11:01:07.000Z</time>
      </trkpt>
      <trkpt lat="49.76462" lon="4.81733">
        <ele>259</ele>
        <time>2022-06-06T11:01:08.000Z</time>
      </trkpt>
      <trkpt lat="49.76461" lon="4.81729">
        <ele>260</ele>
        <time>2022-06-06T11:01:09.000Z</time>
      </trkpt>
      <trkpt lat="49.7646" lon="4.81725">
        <ele>260</ele>
        <time>2022-06-06T11:01:10.000Z</time>
      </trkpt>
      <trkpt lat="49.76459" lon="4.81721">
        <ele>260</ele>
        <time>2022-06-06T11:01:11.000Z</time>
      </trkpt>
      <trkpt lat="49.76458" lon="4.81718">
        <ele>260</ele>
        <time>2022-06-06T11:01:12.000Z</time>
      </trkpt>
      <trkpt lat="49.76457" lon="4.81714">
        <ele>260</ele>
        <time>2022-06-06T11:01:13.000Z</time>
      </trkpt>
      <trkpt lat="49.76456" lon="4.8171">
        <ele>260</ele>
        <time>2022-06-06T11:01:14.000Z</time>
      </trkpt>
      <trkpt lat="49.76455" lon="4.81706">
        <ele>261</ele>
        <time>2022-06-06T11:01:15.000Z</time>
      </trkpt>
      <trkpt lat="49.76454" lon="4.81703">
        <ele>261</ele>
        <time>2022-06-06T11:01:16.000Z</time>
      </trkpt>
      <trkpt lat="49.76453" lon="4.817">
        <ele>261</ele>
        <time>2022-06-06T11:01:17.000Z</time>
      </trkpt>
      <trkpt lat="49.76453" lon="4.81696">
        <ele>261</ele>
        <time>2022-06-06T11:01:18.000Z</time>
      </trkpt>
      <trkpt lat="49.76452" lon="4.81692">
        <ele>261</ele>
        <time>2022-06-06T11:01:19.000Z</time>
      </trkpt>
      <trkpt lat="49.76451" lon="4.81689">
        <ele>261</ele>
        <time>2022-06-06T11:01:20.000Z</time>
      </trkpt>
      <trkpt lat="49.7645" lon="4.81685">
        <ele>261</ele>
        <time>2022-06-06T11:01:21.000Z</time>
      </trkpt>
      <trkpt lat="49.76449" lon="4.81681">
        <ele>261</ele>
        <time>2022-06-06T11:01:22.000Z</time>
      </trkpt>
      <trkpt lat="49.76448" lon="4.81678">
        <ele>261</ele>
        <time>2022-06-06T11:01:23.000Z</time>
      </trkpt>
      <trkpt lat="49.76447" lon="4.81674">
        <ele>261</ele>
        <time>2022-06-06T11:01:24.000Z</time>
      </trkpt>
      <trkpt lat="49.76446" lon="4.81671">
        <ele>261</ele>
        <time>2022-06-06T11:01:25.000Z</time>
      </trkpt>
      <trkpt lat="49.76445" lon="4.81666">
        <ele>262</ele>
        <time>2022-06-06T11:01:26.000Z</time>
      </trkpt>
      <trkpt lat="49.76444" lon="4.81662">
        <ele>262</ele>
        <time>2022-06-06T11:01:27.000Z</time>
      </trkpt>
      <trkpt lat="49.76443" lon="4.81658">
        <ele>262</ele>
        <time>2022-06-06T11:01:28.000Z</time>
      </trkpt>
      <trkpt lat="49.76442" lon="4.81655">
        <ele>262</ele>
        <time>2022-06-06T11:01:29.000Z</time>
      </trkpt>
      <trkpt lat="49.76441" lon="4.81651">
        <ele>262</ele>
        <time>2022-06-06T11:01:30.000Z</time>
      </trkpt>
      <trkpt lat="49.76441" lon="4.81647">
        <ele>262</ele>
        <time>2022-06-06T11:01:31.000Z</time>
      </trkpt>
      <trkpt lat="49.7644" lon="4.81643">
        <ele>262</ele>
        <time>2022-06-06T11:01:32.000Z</time>
      </trkpt>
      <trkpt lat="49.76439" lon="4.8164">
        <ele>262</ele>
        <time>2022-06-06T11:01:33.000Z</time>
      </trkpt>
      <trkpt lat="49.76438" lon="4.81636">
        <ele>263</ele>
        <time>2022-06-06T11:01:34.000Z</time>
      </trkpt>
      <trkpt lat="49.76437" lon="4.81632">
        <ele>263</ele>
        <time>2022-06-06T11:01:35.000Z</time>
      </trkpt>
      <trkpt lat="49.76436" lon="4.81628">
        <ele>263</ele>
        <time>2022-06-06T11:01:36.000Z</time>
      </trkpt>
      <trkpt lat="49.76435" lon="4.81625">
        <ele>263</ele>
        <time>2022-06-06T11:01:37.000Z</time>
      </trkpt>
      <trkpt lat="49.76435" lon="4.81623">
        <ele>263</ele>
        <time>2022-06-06T11:01:38.000Z</time>
      </trkpt>
      <trkpt lat="49.76434" lon="4.8162">
        <ele>264</ele>
        <time>2022-06-06T11:01:39.000Z</time>
      </trkpt>
      <trkpt lat="49.76434" lon="4.81617">
        <ele>264</ele>
        <time>2022-06-06T11:01:40.000Z</time>
      </trkpt>
      <trkpt lat="49.76433" lon="4.81615">
        <ele>264</ele>
        <time>2022-06-06T11:01:41.000Z</time>
      </trkpt>
      <trkpt lat="49.76433" lon="4.81614">
        <ele>264</ele>
        <time>2022-06-06T11:01:42.000Z</time>
      </trkpt>
      <trkpt lat="49.76432" lon="4.81611">
        <ele>264</ele>
        <time>2022-06-06T11:01:43.000Z</time>
      </trkpt>
      <trkpt lat="49.76431" lon="4.81608">
        <ele>264</ele>
        <time>2022-06-06T11:01:44.000Z</time>
      </trkpt>
      <trkpt lat="49.76431" lon="4.81606">
        <ele>265</ele>
        <time>2022-06-06T11:01:45.000Z</time>
      </trkpt>
      <trkpt lat="49.7643" lon="4.81604">
        <ele>265</ele>
        <time>2022-06-06T11:01:46.000Z</time>
      </trkpt>
      <trkpt lat="49.7643" lon="4.81602">
        <ele>265</ele>
        <time>2022-06-06T11:01:47.000Z</time>
      </trkpt>
      <trkpt lat="49.7643" lon="4.81599">
        <ele>265</ele>
        <time>2022-06-06T11:01:48.000Z</time>
      </trkpt>
      <trkpt lat="49.76431" lon="4.81597">
        <ele>265</ele>
        <time>2022-06-06T11:01:49.000Z</time>
      </trkpt>
      <trkpt lat="49.76431" lon="4.81594">
        <ele>266</ele>
        <time>2022-06-06T11:01:50.000Z</time>
      </trkpt>
      <trkpt lat="49.7643" lon="4.81591">
        <ele>266</ele>
        <time>2022-06-06T11:01:51.000Z</time>
      </trkpt>
      <trkpt lat="49.7643" lon="4.81588">
        <ele>266</ele>
        <time>2022-06-06T11:01:52.000Z</time>
      </trkpt>
      <trkpt lat="49.76429" lon="4.81585">
        <ele>266</ele>
        <time>2022-06-06T11:01:53.000Z</time>
      </trkpt>
      <trkpt lat="49.76429" lon="4.81583">
        <ele>267</ele>
        <time>2022-06-06T11:01:54.000Z</time>
      </trkpt>
      <trkpt lat="49.76429" lon="4.81581">
        <ele>267</ele>
        <time>2022-06-06T11:01:55.000Z</time>
      </trkpt>
      <trkpt lat="49.76428" lon="4.81578">
        <ele>267</ele>
        <time>2022-06-06T11:01:56.000Z</time>
      </trkpt>
      <trkpt lat="49.76428" lon="4.81575">
        <ele>267</ele>
        <time>2022-06-06T11:01:57.000Z</time>
      </trkpt>
      <trkpt lat="49.76427" lon="4.81572">
        <ele>268</ele>
        <time>2022-06-06T11:01:58.000Z</time>
      </trkpt>
      <trkpt lat="49.76426" lon="4.8157">
        <ele>268</ele>
        <time>2022-06-06T11:01:59.000Z</time>
      </trkpt>
      <trkpt lat="49.76425" lon="4.81567">
        <ele>269</ele>
        <time>2022-06-06T11:02:00.000Z</time>
      </trkpt>
      <trkpt lat="49.76424" lon="4.81565">
        <ele>269</ele>
        <time>2022-06-06T11:02:01.000Z</time>
      </trkpt>
      <trkpt lat="49.76423" lon="4.81563">
        <ele>269</ele>
        <time>2022-06-06T11:02:02.000Z</time>
      </trkpt>
      <trkpt lat="49.76422" lon="4.81561">
        <ele>270</ele>
        <time>2022-06-06T11:02:03.000Z</time>
      </trkpt>
      <trkpt lat="49.76422" lon="4.8156">
        <ele>270</ele>
        <time>2022-06-06T11:02:04.000Z</time>
      </trkpt>
      <trkpt lat="49.76421" lon="4.81558">
        <ele>271</ele>
        <time>2022-06-06T11:02:05.000Z</time>
      </trkpt>
      <trkpt lat="49.7642" lon="4.81557">
        <ele>271</ele>
        <time>2022-06-06T11:02:06.000Z</time>
      </trkpt>
      <trkpt lat="49.76418" lon="4.81554">
        <ele>272</ele>
        <time>2022-06-06T11:02:07.000Z</time>
      </trkpt>
      <trkpt lat="49.76417" lon="4.81551">
        <ele>272</ele>
        <time>2022-06-06T11:02:08.000Z</time>
      </trkpt>
      <trkpt lat="49.76415" lon="4.81549">
        <ele>273</ele>
        <time>2022-06-06T11:02:09.000Z</time>
      </trkpt>
      <trkpt lat="49.76414" lon="4.81547">
        <ele>273</ele>
        <time>2022-06-06T11:02:10.000Z</time>
      </trkpt>
      <trkpt lat="49.76412" lon="4.81544">
        <ele>273</ele>
        <time>2022-06-06T11:02:11.000Z</time>
      </trkpt>
      <trkpt lat="49.76411" lon="4.81542">
        <ele>274</ele>
        <time>2022-06-06T11:02:12.000Z</time>
      </trkpt>
      <trkpt lat="49.76409" lon="4.81539">
        <ele>274</ele>
        <time>2022-06-06T11:02:13.000Z</time>
      </trkpt>
      <trkpt lat="49.76407" lon="4.81536">
        <ele>274</ele>
        <time>2022-06-06T11:02:14.000Z</time>
      </trkpt>
      <trkpt lat="49.76406" lon="4.81533">
        <ele>274</ele>
        <time>2022-06-06T11:02:15.000Z</time>
      </trkpt>
      <trkpt lat="49.76404" lon="4.8153">
        <ele>275</ele>
        <time>2022-06-06T11:02:16.000Z</time>
      </trkpt>
      <trkpt lat="49.76403" lon="4.81527">
        <ele>275</ele>
        <time>2022-06-06T11:02:17.000Z</time>
      </trkpt>
      <trkpt lat="49.76402" lon="4.81524">
        <ele>275</ele>
        <time>2022-06-06T11:02:18.000Z</time>
      </trkpt>
      <trkpt lat="49.764" lon="4.81521">
        <ele>275</ele>
        <time>2022-06-06T11:02:19.000Z</time>
      </trkpt>
      <trkpt lat="49.76398" lon="4.81518">
        <ele>276</ele>
        <time>2022-06-06T11:02:20.000Z</time>
      </trkpt>
      <trkpt lat="49.76397" lon="4.81515">
        <ele>276</ele>
        <time>2022-06-06T11:02:21.000Z</time>
      </trkpt>
      <trkpt lat="49.76395" lon="4.81511">
        <ele>276</ele>
        <time>2022-06-06T11:02:22.000Z</time>
      </trkpt>
      <trkpt lat="49.76393" lon="4.81508">
        <ele>276</ele>
        <time>2022-06-06T11:02:23.000Z</time>
      </trkpt>
      <trkpt lat="49.76391" lon="4.81505">
        <ele>277</ele>
        <time>2022-06-06T11:02:24.000Z</time>
      </trkpt>
      <trkpt lat="49.76389" lon="4.81501">
        <ele>277</ele>
        <time>2022-06-06T11:02:25.000Z</time>
      </trkpt>
      <trkpt lat="49.76387" lon="4.81498">
        <ele>277</ele>
        <time>2022-06-06T11:02:26.000Z</time>
      </trkpt>
      <trkpt lat="49.76385" lon="4.81494">
        <ele>277</ele>
        <time>2022-06-06T11:02:27.000Z</time>
      </trkpt>
      <trkpt lat="49.76383" lon="4.81491">
        <ele>277</ele>
        <time>2022-06-06T11:02:28.000Z</time>
      </trkpt>
      <trkpt lat="49.76381" lon="4.81488">
        <ele>278</ele>
        <time>2022-06-06T11:02:29.000Z</time>
      </trkpt>
      <trkpt lat="49.76379" lon="4.81485">
        <ele>278</ele>
        <time>2022-06-06T11:02:30.000Z</time>
      </trkpt>
      <trkpt lat="49.76376" lon="4.81482">
        <ele>278</ele>
        <time>2022-06-06T11:02:31.000Z</time>
      </trkpt>
      <trkpt lat="49.76374" lon="4.8148">
        <ele>278</ele>
        <time>2022-06-06T11:02:32.000Z</time>
      </trkpt>
      <trkpt lat="49.76372" lon="4.81477">
        <ele>278</ele>
        <time>2022-06-06T11:02:33.000Z</time>
      </trkpt>
      <trkpt lat="49.76369" lon="4.81475">
        <ele>279</ele>
        <time>2022-06-06T11:02:34.000Z</time>
      </trkpt>
      <trkpt lat="49.76366" lon="4.81473">
        <ele>279</ele>
        <time>2022-06-06T11:02:35.000Z</time>
      </trkpt>
      <trkpt lat="49.76363" lon="4.81471">
        <ele>279</ele>
        <time>2022-06-06T11:02:36.000Z</time>
      </trkpt>
      <trkpt lat="49.7636" lon="4.81471">
        <ele>279</ele>
        <time>2022-06-06T11:02:37.000Z</time>
      </trkpt>
      <trkpt lat="49.76357" lon="4.81469">
        <ele>279</ele>
        <time>2022-06-06T11:02:38.000Z</time>
      </trkpt>
      <trkpt lat="49.76354" lon="4.81468">
        <ele>279</ele>
        <time>2022-06-06T11:02:39.000Z</time>
      </trkpt>
      <trkpt lat="49.76351" lon="4.81467">
        <ele>280</ele>
        <time>2022-06-06T11:02:40.000Z</time>
      </trkpt>
      <trkpt lat="49.76348" lon="4.81466">
        <ele>280</ele>
        <time>2022-06-06T11:02:41.000Z</time>
      </trkpt>
      <trkpt lat="49.76345" lon="4.81465">
        <ele>280</ele>
        <time>2022-06-06T11:02:42.000Z</time>
      </trkpt>
      <trkpt lat="49.76342" lon="4.81464">
        <ele>280</ele>
        <time>2022-06-06T11:02:43.000Z</time>
      </trkpt>
      <trkpt lat="49.76339" lon="4.81464">
        <ele>280</ele>
        <time>2022-06-06T11:02:44.000Z</time>
      </trkpt>
      <trkpt lat="49.76336" lon="4.81463">
        <ele>280</ele>
        <time>2022-06-06T11:02:45.000Z</time>
      </trkpt>
      <trkpt lat="49.76332" lon="4.81462">
        <ele>280</ele>
        <time>2022-06-06T11:02:46.000Z</time>
      </trkpt>
      <trkpt lat="49.76328" lon="4.81462">
        <ele>280</ele>
        <time>2022-06-06T11:02:47.000Z</time>
      </trkpt>
      <trkpt lat="49.76324" lon="4.81461">
        <ele>281</ele>
        <time>2022-06-06T11:02:48.000Z</time>
      </trkpt>
      <trkpt lat="49.7632" lon="4.8146">
        <ele>281</ele>
        <time>2022-06-06T11:02:49.000Z</time>
      </trkpt>
      <trkpt lat="49.76316" lon="4.81458">
        <ele>281</ele>
        <time>2022-06-06T11:02:50.000Z</time>
      </trkpt>
      <trkpt lat="49.76312" lon="4.81457">
        <ele>281</ele>
        <time>2022-06-06T11:02:51.000Z</time>
      </trkpt>
      <trkpt lat="49.76307" lon="4.81456">
        <ele>281</ele>
        <time>2022-06-06T11:02:52.000Z</time>
      </trkpt>
      <trkpt lat="49.76302" lon="4.81457">
        <ele>281</ele>
        <time>2022-06-06T11:02:53.000Z</time>
      </trkpt>
      <trkpt lat="49.76297" lon="4.81456">
        <ele>281</ele>
        <time>2022-06-06T11:02:54.000Z</time>
      </trkpt>
      <trkpt lat="49.76291" lon="4.81456">
        <ele>281</ele>
        <time>2022-06-06T11:02:55.000Z</time>
      </trkpt>
      <trkpt lat="49.76285" lon="4.81455">
        <ele>281</ele>
        <time>2022-06-06T11:02:56.000Z</time>
      </trkpt>
      <trkpt lat="49.76279" lon="4.81455">
        <ele>281</ele>
        <time>2022-06-06T11:02:57.000Z</time>
      </trkpt>
      <trkpt lat="49.76273" lon="4.81454">
        <ele>281</ele>
        <time>2022-06-06T11:02:58.000Z</time>
      </trkpt>
      <trkpt lat="49.76266" lon="4.81453">
        <ele>281</ele>
        <time>2022-06-06T11:02:59.000Z</time>
      </trkpt>
      <trkpt lat="49.7626" lon="4.81451">
        <ele>281</ele>
        <time>2022-06-06T11:03:00.000Z</time>
      </trkpt>
      <trkpt lat="49.76253" lon="4.8145">
        <ele>280</ele>
        <time>2022-06-06T11:03:01.000Z</time>
      </trkpt>
      <trkpt lat="49.76246" lon="4.81449">
        <ele>280</ele>
        <time>2022-06-06T11:03:02.000Z</time>
      </trkpt>
      <trkpt lat="49.76239" lon="4.81449">
        <ele>280</ele>
        <time>2022-06-06T11:03:03.000Z</time>
      </trkpt>
      <trkpt lat="49.76232" lon="4.81448">
        <ele>279</ele>
        <time>2022-06-06T11:03:04.000Z</time>
      </trkpt>
      <trkpt lat="49.76225" lon="4.81447">
        <ele>279</ele>
        <time>2022-06-06T11:03:05.000Z</time>
      </trkpt>
      <trkpt lat="49.76218" lon="4.81448">
        <ele>279</ele>
        <time>2022-06-06T11:03:06.000Z</time>
      </trkpt>
      <trkpt lat="49.76211" lon="4.81449">
        <ele>279</ele>
        <time>2022-06-06T11:03:07.000Z</time>
      </trkpt>
      <trkpt lat="49.76204" lon="4.81449">
        <ele>278</ele>
        <time>2022-06-06T11:03:08.000Z</time>
      </trkpt>
      <trkpt lat="49.76197" lon="4.81449">
        <ele>278</ele>
        <time>2022-06-06T11:03:09.000Z</time>
      </trkpt>
      <trkpt lat="49.7619" lon="4.81449">
        <ele>278</ele>
        <time>2022-06-06T11:03:10.000Z</time>
      </trkpt>
      <trkpt lat="49.76182" lon="4.81448">
        <ele>278</ele>
        <time>2022-06-06T11:03:11.000Z</time>
      </trkpt>
      <trkpt lat="49.76175" lon="4.81447">
        <ele>278</ele>
        <time>2022-06-06T11:03:12.000Z</time>
      </trkpt>
      <trkpt lat="49.76168" lon="4.81445">
        <ele>277</ele>
        <time>2022-06-06T11:03:13.000Z</time>
      </trkpt>
      <trkpt lat="49.76162" lon="4.81444">
        <ele>277</ele>
        <time>2022-06-06T11:03:14.000Z</time>
      </trkpt>
      <trkpt lat="49.76156" lon="4.81443">
        <ele>277</ele>
        <time>2022-06-06T11:03:15.000Z</time>
      </trkpt>
      <trkpt lat="49.7615" lon="4.81442">
        <ele>277</ele>
        <time>2022-06-06T11:03:16.000Z</time>
      </trkpt>
      <trkpt lat="49.76143" lon="4.81441">
        <ele>277</ele>
        <time>2022-06-06T11:03:17.000Z</time>
      </trkpt>
      <trkpt lat="49.76137" lon="4.8144">
        <ele>277</ele>
        <time>2022-06-06T11:03:18.000Z</time>
      </trkpt>
      <trkpt lat="49.76131" lon="4.81439">
        <ele>276</ele>
        <time>2022-06-06T11:03:19.000Z</time>
      </trkpt>
      <trkpt lat="49.76125" lon="4.81438">
        <ele>276</ele>
        <time>2022-06-06T11:03:20.000Z</time>
      </trkpt>
      <trkpt lat="49.76119" lon="4.81437">
        <ele>276</ele>
        <time>2022-06-06T11:03:21.000Z</time>
      </trkpt>
      <trkpt lat="49.76114" lon="4.81436">
        <ele>276</ele>
        <time>2022-06-06T11:03:22.000Z</time>
      </trkpt>
      <trkpt lat="49.76108" lon="4.81434">
        <ele>276</ele>
        <time>2022-06-06T11:03:23.000Z</time>
      </trkpt>
      <trkpt lat="49.76103" lon="4.81431">
        <ele>276</ele>
        <time>2022-06-06T11:03:24.000Z</time>
      </trkpt>
      <trkpt lat="49.76097" lon="4.81427">
        <ele>275</ele>
        <time>2022-06-06T11:03:25.000Z</time>
      </trkpt>
      <trkpt lat="49.76092" lon="4.81424">
        <ele>275</ele>
        <time>2022-06-06T11:03:26.000Z</time>
      </trkpt>
      <trkpt lat="49.76087" lon="4.81421">
        <ele>275</ele>
        <time>2022-06-06T11:03:27.000Z</time>
      </trkpt>
      <trkpt lat="49.76082" lon="4.81418">
        <ele>275</ele>
        <time>2022-06-06T11:03:28.000Z</time>
      </trkpt>
      <trkpt lat="49.76076" lon="4.81414">
        <ele>275</ele>
        <time>2022-06-06T11:03:29.000Z</time>
      </trkpt>
      <trkpt lat="49.7607" lon="4.8141">
        <ele>274</ele>
        <time>2022-06-06T11:03:30.000Z</time>
      </trkpt>
      <trkpt lat="49.76065" lon="4.81406">
        <ele>274</ele>
        <time>2022-06-06T11:03:31.000Z</time>
      </trkpt>
      <trkpt lat="49.76059" lon="4.81402">
        <ele>274</ele>
        <time>2022-06-06T11:03:32.000Z</time>
      </trkpt>
      <trkpt lat="49.76054" lon="4.81398">
        <ele>274</ele>
        <time>2022-06-06T11:03:33.000Z</time>
      </trkpt>
      <trkpt lat="49.76048" lon="4.81393">
        <ele>274</ele>
        <time>2022-06-06T11:03:34.000Z</time>
      </trkpt>
      <trkpt lat="49.76042" lon="4.81389">
        <ele>274</ele>
        <time>2022-06-06T11:03:35.000Z</time>
      </trkpt>
      <trkpt lat="49.76036" lon="4.81385">
        <ele>273</ele>
        <time>2022-06-06T11:03:36.000Z</time>
      </trkpt>
      <trkpt lat="49.7603" lon="4.81381">
        <ele>273</ele>
        <time>2022-06-06T11:03:37.000Z</time>
      </trkpt>
      <trkpt lat="49.76024" lon="4.81378">
        <ele>273</ele>
        <time>2022-06-06T11:03:38.000Z</time>
      </trkpt>
      <trkpt lat="49.76019" lon="4.81374">
        <ele>273</ele>
        <time>2022-06-06T11:03:39.000Z</time>
      </trkpt>
      <trkpt lat="49.76014" lon="4.81371">
        <ele>273</ele>
        <time>2022-06-06T11:03:40.000Z</time>
      </trkpt>
      <trkpt lat="49.76008" lon="4.81367">
        <ele>273</ele>
        <time>2022-06-06T11:03:41.000Z</time>
      </trkpt>
      <trkpt lat="49.76003" lon="4.81364">
        <ele>273</ele>
        <time>2022-06-06T11:03:42.000Z</time>
      </trkpt>
      <trkpt lat="49.75997" lon="4.8136">
        <ele>272</ele>
        <time>2022-06-06T11:03:43.000Z</time>
      </trkpt>
      <trkpt lat="49.75992" lon="4.81357">
        <ele>272</ele>
        <time>2022-06-06T11:03:44.000Z</time>
      </trkpt>
      <trkpt lat="49.75986" lon="4.81354">
        <ele>272</ele>
        <time>2022-06-06T11:03:45.000Z</time>
      </trkpt>
      <trkpt lat="49.7598" lon="4.8135">
        <ele>272</ele>
        <time>2022-06-06T11:03:46.000Z</time>
      </trkpt>
      <trkpt lat="49.75975" lon="4.81346">
        <ele>272</ele>
        <time>2022-06-06T11:03:47.000Z</time>
      </trkpt>
      <trkpt lat="49.75969" lon="4.81344">
        <ele>272</ele>
        <time>2022-06-06T11:03:48.000Z</time>
      </trkpt>
      <trkpt lat="49.75964" lon="4.81341">
        <ele>272</ele>
        <time>2022-06-06T11:03:49.000Z</time>
      </trkpt>
      <trkpt lat="49.75959" lon="4.81339">
        <ele>272</ele>
        <time>2022-06-06T11:03:50.000Z</time>
      </trkpt>
      <trkpt lat="49.75954" lon="4.81336">
        <ele>272</ele>
        <time>2022-06-06T11:03:51.000Z</time>
      </trkpt>
      <trkpt lat="49.75948" lon="4.81334">
        <ele>271</ele>
        <time>2022-06-06T11:03:52.000Z</time>
      </trkpt>
      <trkpt lat="49.75943" lon="4.81332">
        <ele>271</ele>
        <time>2022-06-06T11:03:53.000Z</time>
      </trkpt>
      <trkpt lat="49.75938" lon="4.8133">
        <ele>271</ele>
        <time>2022-06-06T11:03:54.000Z</time>
      </trkpt>
      <trkpt lat="49.75934" lon="4.81328">
        <ele>271</ele>
        <time>2022-06-06T11:03:55.000Z</time>
      </trkpt>
      <trkpt lat="49.75928" lon="4.81326">
        <ele>270</ele>
        <time>2022-06-06T11:03:56.000Z</time>
      </trkpt>
      <trkpt lat="49.75923" lon="4.81325">
        <ele>270</ele>
        <time>2022-06-06T11:03:57.000Z</time>
      </trkpt>
      <trkpt lat="49.75917" lon="4.81325">
        <ele>270</ele>
        <time>2022-06-06T11:03:58.000Z</time>
      </trkpt>
      <trkpt lat="49.75911" lon="4.81326">
        <ele>270</ele>
        <time>2022-06-06T11:03:59.000Z</time>
      </trkpt>
      <trkpt lat="49.75906" lon="4.81328">
        <ele>269</ele>
        <time>2022-06-06T11:04:00.000Z</time>
      </trkpt>
      <trkpt lat="49.759" lon="4.8133">
        <ele>269</ele>
        <time>2022-06-06T11:04:01.000Z</time>
      </trkpt>
      <trkpt lat="49.75894" lon="4.81332">
        <ele>269</ele>
        <time>2022-06-06T11:04:02.000Z</time>
      </trkpt>
      <trkpt lat="49.75888" lon="4.81335">
        <ele>268</ele>
        <time>2022-06-06T11:04:03.000Z</time>
      </trkpt>
      <trkpt lat="49.75882" lon="4.81338">
        <ele>268</ele>
        <time>2022-06-06T11:04:04.000Z</time>
      </trkpt>
      <trkpt lat="49.75876" lon="4.8134">
        <ele>268</ele>
        <time>2022-06-06T11:04:05.000Z</time>
      </trkpt>
      <trkpt lat="49.75871" lon="4.81344">
        <ele>268</ele>
        <time>2022-06-06T11:04:06.000Z</time>
      </trkpt>
      <trkpt lat="49.75865" lon="4.81346">
        <ele>268</ele>
        <time>2022-06-06T11:04:07.000Z</time>
      </trkpt>
      <trkpt lat="49.75859" lon="4.81349">
        <ele>267</ele>
        <time>2022-06-06T11:04:08.000Z</time>
      </trkpt>
      <trkpt lat="49.75854" lon="4.81352">
        <ele>267</ele>
        <time>2022-06-06T11:04:09.000Z</time>
      </trkpt>
      <trkpt lat="49.75848" lon="4.81357">
        <ele>267</ele>
        <time>2022-06-06T11:04:10.000Z</time>
      </trkpt>
      <trkpt lat="49.75842" lon="4.81361">
        <ele>267</ele>
        <time>2022-06-06T11:04:11.000Z</time>
      </trkpt>
      <trkpt lat="49.75838" lon="4.81366">
        <ele>267</ele>
        <time>2022-06-06T11:04:12.000Z</time>
      </trkpt>
      <trkpt lat="49.75833" lon="4.81373">
        <ele>267</ele>
        <time>2022-06-06T11:04:13.000Z</time>
      </trkpt>
      <trkpt lat="49.75829" lon="4.8138">
        <ele>266</ele>
        <time>2022-06-06T11:04:14.000Z</time>
      </trkpt>
      <trkpt lat="49.75824" lon="4.81386">
        <ele>266</ele>
        <time>2022-06-06T11:04:15.000Z</time>
      </trkpt>
      <trkpt lat="49.75819" lon="4.81393">
        <ele>266</ele>
        <time>2022-06-06T11:04:16.000Z</time>
      </trkpt>
      <trkpt lat="49.75814" lon="4.814">
        <ele>266</ele>
        <time>2022-06-06T11:04:17.000Z</time>
      </trkpt>
      <trkpt lat="49.75809" lon="4.81407">
        <ele>266</ele>
        <time>2022-06-06T11:04:18.000Z</time>
      </trkpt>
      <trkpt lat="49.75804" lon="4.81413">
        <ele>266</ele>
        <time>2022-06-06T11:04:19.000Z</time>
      </trkpt>
      <trkpt lat="49.75799" lon="4.81418">
        <ele>265</ele>
        <time>2022-06-06T11:04:20.000Z</time>
      </trkpt>
      <trkpt lat="49.75793" lon="4.81423">
        <ele>265</ele>
        <time>2022-06-06T11:04:21.000Z</time>
      </trkpt>
      <trkpt lat="49.75788" lon="4.81427">
        <ele>265</ele>
        <time>2022-06-06T11:04:22.000Z</time>
      </trkpt>
      <trkpt lat="49.75783" lon="4.81431">
        <ele>265</ele>
        <time>2022-06-06T11:04:23.000Z</time>
      </trkpt>
      <trkpt lat="49.75777" lon="4.81435">
        <ele>264</ele>
        <time>2022-06-06T11:04:24.000Z</time>
      </trkpt>
      <trkpt lat="49.75772" lon="4.81438">
        <ele>264</ele>
        <time>2022-06-06T11:04:25.000Z</time>
      </trkpt>
      <trkpt lat="49.75766" lon="4.81441">
        <ele>264</ele>
        <time>2022-06-06T11:04:26.000Z</time>
      </trkpt>
      <trkpt lat="49.75761" lon="4.81445">
        <ele>264</ele>
        <time>2022-06-06T11:04:27.000Z</time>
      </trkpt>
      <trkpt lat="49.75756" lon="4.8145">
        <ele>263</ele>
        <time>2022-06-06T11:04:28.000Z</time>
      </trkpt>
      <trkpt lat="49.75751" lon="4.81454">
        <ele>263</ele>
        <time>2022-06-06T11:04:29.000Z</time>
      </trkpt>
      <trkpt lat="49.75745" lon="4.81457">
        <ele>263</ele>
        <time>2022-06-06T11:04:30.000Z</time>
      </trkpt>
      <trkpt lat="49.7574" lon="4.81459">
        <ele>262</ele>
        <time>2022-06-06T11:04:31.000Z</time>
      </trkpt>
      <trkpt lat="49.75734" lon="4.81461">
        <ele>262</ele>
        <time>2022-06-06T11:04:32.000Z</time>
      </trkpt>
      <trkpt lat="49.75729" lon="4.81463">
        <ele>262</ele>
        <time>2022-06-06T11:04:33.000Z</time>
      </trkpt>
      <trkpt lat="49.75724" lon="4.81465">
        <ele>261</ele>
        <time>2022-06-06T11:04:34.000Z</time>
      </trkpt>
      <trkpt lat="49.75718" lon="4.81467">
        <ele>261</ele>
        <time>2022-06-06T11:04:35.000Z</time>
      </trkpt>
      <trkpt lat="49.75713" lon="4.81469">
        <ele>261</ele>
        <time>2022-06-06T11:04:36.000Z</time>
      </trkpt>
      <trkpt lat="49.75708" lon="4.81471">
        <ele>261</ele>
        <time>2022-06-06T11:04:37.000Z</time>
      </trkpt>
      <trkpt lat="49.75703" lon="4.81473">
        <ele>260</ele>
        <time>2022-06-06T11:04:38.000Z</time>
      </trkpt>
      <trkpt lat="49.75698" lon="4.81475">
        <ele>260</ele>
        <time>2022-06-06T11:04:39.000Z</time>
      </trkpt>
      <trkpt lat="49.75692" lon="4.81477">
        <ele>260</ele>
        <time>2022-06-06T11:04:40.000Z</time>
      </trkpt>
      <trkpt lat="49.75687" lon="4.81479">
        <ele>260</ele>
        <time>2022-06-06T11:04:41.000Z</time>
      </trkpt>
      <trkpt lat="49.75681" lon="4.81481">
        <ele>259</ele>
        <time>2022-06-06T11:04:42.000Z</time>
      </trkpt>
      <trkpt lat="49.75675" lon="4.81484">
        <ele>259</ele>
        <time>2022-06-06T11:04:43.000Z</time>
      </trkpt>
      <trkpt lat="49.75669" lon="4.81486">
        <ele>258</ele>
        <time>2022-06-06T11:04:44.000Z</time>
      </trkpt>
      <trkpt lat="49.75663" lon="4.81488">
        <ele>258</ele>
        <time>2022-06-06T11:04:45.000Z</time>
      </trkpt>
      <trkpt lat="49.75657" lon="4.8149">
        <ele>257</ele>
        <time>2022-06-06T11:04:46.000Z</time>
      </trkpt>
      <trkpt lat="49.75652" lon="4.81492">
        <ele>257</ele>
        <time>2022-06-06T11:04:47.000Z</time>
      </trkpt>
      <trkpt lat="49.75646" lon="4.81494">
        <ele>256</ele>
        <time>2022-06-06T11:04:48.000Z</time>
      </trkpt>
      <trkpt lat="49.75641" lon="4.81496">
        <ele>255</ele>
        <time>2022-06-06T11:04:49.000Z</time>
      </trkpt>
      <trkpt lat="49.75635" lon="4.81498">
        <ele>255</ele>
        <time>2022-06-06T11:04:50.000Z</time>
      </trkpt>
      <trkpt lat="49.7563" lon="4.81501">
        <ele>254</ele>
        <time>2022-06-06T11:04:51.000Z</time>
      </trkpt>
      <trkpt lat="49.75625" lon="4.81504">
        <ele>254</ele>
        <time>2022-06-06T11:04:52.000Z</time>
      </trkpt>
      <trkpt lat="49.7562" lon="4.81507">
        <ele>253</ele>
        <time>2022-06-06T11:04:53.000Z</time>
      </trkpt>
      <trkpt lat="49.75615" lon="4.81511">
        <ele>253</ele>
        <time>2022-06-06T11:04:54.000Z</time>
      </trkpt>
      <trkpt lat="49.75611" lon="4.81514">
        <ele>252</ele>
        <time>2022-06-06T11:04:55.000Z</time>
      </trkpt>
      <trkpt lat="49.75606" lon="4.81518">
        <ele>252</ele>
        <time>2022-06-06T11:04:56.000Z</time>
      </trkpt>
      <trkpt lat="49.75602" lon="4.81522">
        <ele>251</ele>
        <time>2022-06-06T11:04:57.000Z</time>
      </trkpt>
      <trkpt lat="49.75598" lon="4.81526">
        <ele>251</ele>
        <time>2022-06-06T11:04:58.000Z</time>
      </trkpt>
      <trkpt lat="49.75593" lon="4.8153">
        <ele>250</ele>
        <time>2022-06-06T11:04:59.000Z</time>
      </trkpt>
      <trkpt lat="49.75589" lon="4.81534">
        <ele>250</ele>
        <time>2022-06-06T11:05:00.000Z</time>
      </trkpt>
      <trkpt lat="49.75585" lon="4.81538">
        <ele>250</ele>
        <time>2022-06-06T11:05:01.000Z</time>
      </trkpt>
      <trkpt lat="49.75581" lon="4.81543">
        <ele>249</ele>
        <time>2022-06-06T11:05:02.000Z</time>
      </trkpt>
      <trkpt lat="49.75577" lon="4.81548">
        <ele>249</ele>
        <time>2022-06-06T11:05:03.000Z</time>
      </trkpt>
      <trkpt lat="49.75573" lon="4.81553">
        <ele>249</ele>
        <time>2022-06-06T11:05:04.000Z</time>
      </trkpt>
      <trkpt lat="49.75569" lon="4.81558">
        <ele>248</ele>
        <time>2022-06-06T11:05:05.000Z</time>
      </trkpt>
      <trkpt lat="49.75565" lon="4.81564">
        <ele>248</ele>
        <time>2022-06-06T11:05:06.000Z</time>
      </trkpt>
      <trkpt lat="49.75562" lon="4.8157">
        <ele>248</ele>
        <time>2022-06-06T11:05:07.000Z</time>
      </trkpt>
      <trkpt lat="49.75558" lon="4.81575">
        <ele>247</ele>
        <time>2022-06-06T11:05:08.000Z</time>
      </trkpt>
      <trkpt lat="49.75554" lon="4.8158">
        <ele>247</ele>
        <time>2022-06-06T11:05:09.000Z</time>
      </trkpt>
      <trkpt lat="49.75551" lon="4.81585">
        <ele>246</ele>
        <time>2022-06-06T11:05:10.000Z</time>
      </trkpt>
      <trkpt lat="49.75548" lon="4.81592">
        <ele>246</ele>
        <time>2022-06-06T11:05:11.000Z</time>
      </trkpt>
      <trkpt lat="49.75545" lon="4.81597">
        <ele>246</ele>
        <time>2022-06-06T11:05:12.000Z</time>
      </trkpt>
      <trkpt lat="49.75541" lon="4.81603">
        <ele>245</ele>
        <time>2022-06-06T11:05:13.000Z</time>
      </trkpt>
      <trkpt lat="49.75537" lon="4.81608">
        <ele>245</ele>
        <time>2022-06-06T11:05:14.000Z</time>
      </trkpt>
      <trkpt lat="49.75532" lon="4.81613">
        <ele>245</ele>
        <time>2022-06-06T11:05:15.000Z</time>
      </trkpt>
      <trkpt lat="49.75527" lon="4.81618">
        <ele>244</ele>
        <time>2022-06-06T11:05:16.000Z</time>
      </trkpt>
      <trkpt lat="49.75522" lon="4.81623">
        <ele>244</ele>
        <time>2022-06-06T11:05:17.000Z</time>
      </trkpt>
      <trkpt lat="49.75517" lon="4.81629">
        <ele>244</ele>
        <time>2022-06-06T11:05:18.000Z</time>
      </trkpt>
      <trkpt lat="49.75511" lon="4.81634">
        <ele>244</ele>
        <time>2022-06-06T11:05:19.000Z</time>
      </trkpt>
      <trkpt lat="49.75505" lon="4.81639">
        <ele>243</ele>
        <time>2022-06-06T11:05:20.000Z</time>
      </trkpt>
      <trkpt lat="49.755" lon="4.81644">
        <ele>243</ele>
        <time>2022-06-06T11:05:21.000Z</time>
      </trkpt>
      <trkpt lat="49.75494" lon="4.81648">
        <ele>243</ele>
        <time>2022-06-06T11:05:22.000Z</time>
      </trkpt>
      <trkpt lat="49.75488" lon="4.81652">
        <ele>243</ele>
        <time>2022-06-06T11:05:23.000Z</time>
      </trkpt>
      <trkpt lat="49.75481" lon="4.81655">
        <ele>242</ele>
        <time>2022-06-06T11:05:24.000Z</time>
      </trkpt>
      <trkpt lat="49.75474" lon="4.81658">
        <ele>242</ele>
        <time>2022-06-06T11:05:25.000Z</time>
      </trkpt>
      <trkpt lat="49.75467" lon="4.81661">
        <ele>242</ele>
        <time>2022-06-06T11:05:26.000Z</time>
      </trkpt>
      <trkpt lat="49.7546" lon="4.81665">
        <ele>241</ele>
        <time>2022-06-06T11:05:27.000Z</time>
      </trkpt>
      <trkpt lat="49.75452" lon="4.8167">
        <ele>241</ele>
        <time>2022-06-06T11:05:28.000Z</time>
      </trkpt>
      <trkpt lat="49.75445" lon="4.81675">
        <ele>240</ele>
        <time>2022-06-06T11:05:29.000Z</time>
      </trkpt>
      <trkpt lat="49.75437" lon="4.81681">
        <ele>240</ele>
        <time>2022-06-06T11:05:30.000Z</time>
      </trkpt>
      <trkpt lat="49.7543" lon="4.81685">
        <ele>239</ele>
        <time>2022-06-06T11:05:31.000Z</time>
      </trkpt>
      <trkpt lat="49.75422" lon="4.81688">
        <ele>239</ele>
        <time>2022-06-06T11:05:32.000Z</time>
      </trkpt>
      <trkpt lat="49.75414" lon="4.81693">
        <ele>238</ele>
        <time>2022-06-06T11:05:33.000Z</time>
      </trkpt>
      <trkpt lat="49.75407" lon="4.81697">
        <ele>237</ele>
        <time>2022-06-06T11:05:34.000Z</time>
      </trkpt>
      <trkpt lat="49.75399" lon="4.81701">
        <ele>237</ele>
        <time>2022-06-06T11:05:35.000Z</time>
      </trkpt>
      <trkpt lat="49.75392" lon="4.81707">
        <ele>236</ele>
        <time>2022-06-06T11:05:36.000Z</time>
      </trkpt>
      <trkpt lat="49.75385" lon="4.81713">
        <ele>235</ele>
        <time>2022-06-06T11:05:37.000Z</time>
      </trkpt>
      <trkpt lat="49.75379" lon="4.81718">
        <ele>234</ele>
        <time>2022-06-06T11:05:38.000Z</time>
      </trkpt>
      <trkpt lat="49.75374" lon="4.81723">
        <ele>233</ele>
        <time>2022-06-06T11:05:39.000Z</time>
      </trkpt>
      <trkpt lat="49.75369" lon="4.81729">
        <ele>232</ele>
        <time>2022-06-06T11:05:40.000Z</time>
      </trkpt>
      <trkpt lat="49.75364" lon="4.81734">
        <ele>232</ele>
        <time>2022-06-06T11:05:41.000Z</time>
      </trkpt>
      <trkpt lat="49.75359" lon="4.81739">
        <ele>231</ele>
        <time>2022-06-06T11:05:42.000Z</time>
      </trkpt>
      <trkpt lat="49.75353" lon="4.81743">
        <ele>230</ele>
        <time>2022-06-06T11:05:43.000Z</time>
      </trkpt>
      <trkpt lat="49.75348" lon="4.81746">
        <ele>230</ele>
        <time>2022-06-06T11:05:44.000Z</time>
      </trkpt>
      <trkpt lat="49.75342" lon="4.81748">
        <ele>229</ele>
        <time>2022-06-06T11:05:45.000Z</time>
      </trkpt>
      <trkpt lat="49.75336" lon="4.8175">
        <ele>229</ele>
        <time>2022-06-06T11:05:46.000Z</time>
      </trkpt>
      <trkpt lat="49.75331" lon="4.81752">
        <ele>228</ele>
        <time>2022-06-06T11:05:47.000Z</time>
      </trkpt>
      <trkpt lat="49.75327" lon="4.81753">
        <ele>228</ele>
        <time>2022-06-06T11:05:48.000Z</time>
      </trkpt>
      <trkpt lat="49.75322" lon="4.81755">
        <ele>227</ele>
        <time>2022-06-06T11:05:49.000Z</time>
      </trkpt>
      <trkpt lat="49.75317" lon="4.81757">
        <ele>227</ele>
        <time>2022-06-06T11:05:50.000Z</time>
      </trkpt>
      <trkpt lat="49.75313" lon="4.81758">
        <ele>226</ele>
        <time>2022-06-06T11:05:51.000Z</time>
      </trkpt>
      <trkpt lat="49.75308" lon="4.81759">
        <ele>226</ele>
        <time>2022-06-06T11:05:52.000Z</time>
      </trkpt>
      <trkpt lat="49.75303" lon="4.8176">
        <ele>226</ele>
        <time>2022-06-06T11:05:53.000Z</time>
      </trkpt>
      <trkpt lat="49.75298" lon="4.81761">
        <ele>225</ele>
        <time>2022-06-06T11:05:54.000Z</time>
      </trkpt>
      <trkpt lat="49.75293" lon="4.81761">
        <ele>225</ele>
        <time>2022-06-06T11:05:55.000Z</time>
      </trkpt>
      <trkpt lat="49.75287" lon="4.8176">
        <ele>224</ele>
        <time>2022-06-06T11:05:56.000Z</time>
      </trkpt>
      <trkpt lat="49.75281" lon="4.81759">
        <ele>224</ele>
        <time>2022-06-06T11:05:57.000Z</time>
      </trkpt>
      <trkpt lat="49.75276" lon="4.81757">
        <ele>223</ele>
        <time>2022-06-06T11:05:58.000Z</time>
      </trkpt>
      <trkpt lat="49.7527" lon="4.81755">
        <ele>223</ele>
        <time>2022-06-06T11:05:59.000Z</time>
      </trkpt>
      <trkpt lat="49.75264" lon="4.81752">
        <ele>223</ele>
        <time>2022-06-06T11:06:00.000Z</time>
      </trkpt>
      <trkpt lat="49.75259" lon="4.81748">
        <ele>222</ele>
        <time>2022-06-06T11:06:01.000Z</time>
      </trkpt>
      <trkpt lat="49.75254" lon="4.81744">
        <ele>222</ele>
        <time>2022-06-06T11:06:02.000Z</time>
      </trkpt>
      <trkpt lat="49.75248" lon="4.81741">
        <ele>221</ele>
        <time>2022-06-06T11:06:03.000Z</time>
      </trkpt>
      <trkpt lat="49.75243" lon="4.81737">
        <ele>221</ele>
        <time>2022-06-06T11:06:04.000Z</time>
      </trkpt>
      <trkpt lat="49.75238" lon="4.81733">
        <ele>221</ele>
        <time>2022-06-06T11:06:05.000Z</time>
      </trkpt>
      <trkpt lat="49.75234" lon="4.8173">
        <ele>220</ele>
        <time>2022-06-06T11:06:06.000Z</time>
      </trkpt>
      <trkpt lat="49.75229" lon="4.81726">
        <ele>220</ele>
        <time>2022-06-06T11:06:07.000Z</time>
      </trkpt>
      <trkpt lat="49.75224" lon="4.81722">
        <ele>220</ele>
        <time>2022-06-06T11:06:08.000Z</time>
      </trkpt>
      <trkpt lat="49.75218" lon="4.81718">
        <ele>219</ele>
        <time>2022-06-06T11:06:09.000Z</time>
      </trkpt>
      <trkpt lat="49.75213" lon="4.81714">
        <ele>219</ele>
        <time>2022-06-06T11:06:10.000Z</time>
      </trkpt>
      <trkpt lat="49.75207" lon="4.81709">
        <ele>219</ele>
        <time>2022-06-06T11:06:11.000Z</time>
      </trkpt>
      <trkpt lat="49.75202" lon="4.81706">
        <ele>218</ele>
        <time>2022-06-06T11:06:12.000Z</time>
      </trkpt>
      <trkpt lat="49.75196" lon="4.81705">
        <ele>218</ele>
        <time>2022-06-06T11:06:13.000Z</time>
      </trkpt>
      <trkpt lat="49.75191" lon="4.81704">
        <ele>218</ele>
        <time>2022-06-06T11:06:14.000Z</time>
      </trkpt>
      <trkpt lat="49.75185" lon="4.81705">
        <ele>217</ele>
        <time>2022-06-06T11:06:15.000Z</time>
      </trkpt>
      <trkpt lat="49.75179" lon="4.81709">
        <ele>217</ele>
        <time>2022-06-06T11:06:16.000Z</time>
      </trkpt>
      <trkpt lat="49.75173" lon="4.81714">
        <ele>217</ele>
        <time>2022-06-06T11:06:17.000Z</time>
      </trkpt>
      <trkpt lat="49.75166" lon="4.8172">
        <ele>217</ele>
        <time>2022-06-06T11:06:18.000Z</time>
      </trkpt>
      <trkpt lat="49.75161" lon="4.81726">
        <ele>216</ele>
        <time>2022-06-06T11:06:19.000Z</time>
      </trkpt>
      <trkpt lat="49.75155" lon="4.81732">
        <ele>216</ele>
        <time>2022-06-06T11:06:20.000Z</time>
      </trkpt>
      <trkpt lat="49.75151" lon="4.81738">
        <ele>215</ele>
        <time>2022-06-06T11:06:21.000Z</time>
      </trkpt>
      <trkpt lat="49.75147" lon="4.81743">
        <ele>215</ele>
        <time>2022-06-06T11:06:22.000Z</time>
      </trkpt>
      <trkpt lat="49.75143" lon="4.81746">
        <ele>215</ele>
        <time>2022-06-06T11:06:23.000Z</time>
      </trkpt>
      <trkpt lat="49.75141" lon="4.8175">
        <ele>214</ele>
        <time>2022-06-06T11:06:24.000Z</time>
      </trkpt>
      <trkpt lat="49.7514" lon="4.81754">
        <ele>214</ele>
        <time>2022-06-06T11:06:25.000Z</time>
      </trkpt>
      <trkpt lat="49.7514" lon="4.8176">
        <ele>213</ele>
        <time>2022-06-06T11:06:26.000Z</time>
      </trkpt>
      <trkpt lat="49.75142" lon="4.81765">
        <ele>213</ele>
        <time>2022-06-06T11:06:27.000Z</time>
      </trkpt>
      <trkpt lat="49.75144" lon="4.8177">
        <ele>212</ele>
        <time>2022-06-06T11:06:28.000Z</time>
      </trkpt>
      <trkpt lat="49.75146" lon="4.81774">
        <ele>212</ele>
        <time>2022-06-06T11:06:29.000Z</time>
      </trkpt>
      <trkpt lat="49.75149" lon="4.81778">
        <ele>212</ele>
        <time>2022-06-06T11:06:30.000Z</time>
      </trkpt>
      <trkpt lat="49.75151" lon="4.81783">
        <ele>212</ele>
        <time>2022-06-06T11:06:31.000Z</time>
      </trkpt>
      <trkpt lat="49.75154" lon="4.81788">
        <ele>211</ele>
        <time>2022-06-06T11:06:32.000Z</time>
      </trkpt>
      <trkpt lat="49.75157" lon="4.81792">
        <ele>211</ele>
        <time>2022-06-06T11:06:33.000Z</time>
      </trkpt>
      <trkpt lat="49.75159" lon="4.81798">
        <ele>211</ele>
        <time>2022-06-06T11:06:34.000Z</time>
      </trkpt>
      <trkpt lat="49.75162" lon="4.81804">
        <ele>210</ele>
        <time>2022-06-06T11:06:35.000Z</time>
      </trkpt>
      <trkpt lat="49.75165" lon="4.81809">
        <ele>210</ele>
        <time>2022-06-06T11:06:36.000Z</time>
      </trkpt>
      <trkpt lat="49.75169" lon="4.81814">
        <ele>210</ele>
        <time>2022-06-06T11:06:37.000Z</time>
      </trkpt>
      <trkpt lat="49.75173" lon="4.8182">
        <ele>209</ele>
        <time>2022-06-06T11:06:38.000Z</time>
      </trkpt>
      <trkpt lat="49.75176" lon="4.81826">
        <ele>209</ele>
        <time>2022-06-06T11:06:39.000Z</time>
      </trkpt>
      <trkpt lat="49.7518" lon="4.81832">
        <ele>209</ele>
        <time>2022-06-06T11:06:40.000Z</time>
      </trkpt>
      <trkpt lat="49.75183" lon="4.81838">
        <ele>209</ele>
        <time>2022-06-06T11:06:41.000Z</time>
      </trkpt>
      <trkpt lat="49.75187" lon="4.81845">
        <ele>208</ele>
        <time>2022-06-06T11:06:42.000Z</time>
      </trkpt>
      <trkpt lat="49.75191" lon="4.81851">
        <ele>208</ele>
        <time>2022-06-06T11:06:43.000Z</time>
      </trkpt>
      <trkpt lat="49.75195" lon="4.81857">
        <ele>208</ele>
        <time>2022-06-06T11:06:44.000Z</time>
      </trkpt>
      <trkpt lat="49.75199" lon="4.81863">
        <ele>207</ele>
        <time>2022-06-06T11:06:45.000Z</time>
      </trkpt>
      <trkpt lat="49.75203" lon="4.81869">
        <ele>207</ele>
        <time>2022-06-06T11:06:46.000Z</time>
      </trkpt>
      <trkpt lat="49.75207" lon="4.81875">
        <ele>207</ele>
        <time>2022-06-06T11:06:47.000Z</time>
      </trkpt>
      <trkpt lat="49.75212" lon="4.8188">
        <ele>206</ele>
        <time>2022-06-06T11:06:48.000Z</time>
      </trkpt>
      <trkpt lat="49.75216" lon="4.81885">
        <ele>206</ele>
        <time>2022-06-06T11:06:49.000Z</time>
      </trkpt>
      <trkpt lat="49.7522" lon="4.8189">
        <ele>205</ele>
        <time>2022-06-06T11:06:50.000Z</time>
      </trkpt>
      <trkpt lat="49.75225" lon="4.81895">
        <ele>205</ele>
        <time>2022-06-06T11:06:51.000Z</time>
      </trkpt>
      <trkpt lat="49.75229" lon="4.819">
        <ele>205</ele>
        <time>2022-06-06T11:06:52.000Z</time>
      </trkpt>
      <trkpt lat="49.75234" lon="4.81905">
        <ele>204</ele>
        <time>2022-06-06T11:06:53.000Z</time>
      </trkpt>
      <trkpt lat="49.75238" lon="4.8191">
        <ele>204</ele>
        <time>2022-06-06T11:06:54.000Z</time>
      </trkpt>
      <trkpt lat="49.75243" lon="4.81916">
        <ele>203</ele>
        <time>2022-06-06T11:06:55.000Z</time>
      </trkpt>
      <trkpt lat="49.75248" lon="4.81921">
        <ele>203</ele>
        <time>2022-06-06T11:06:56.000Z</time>
      </trkpt>
      <trkpt lat="49.75252" lon="4.81928">
        <ele>202</ele>
        <time>2022-06-06T11:06:57.000Z</time>
      </trkpt>
      <trkpt lat="49.75256" lon="4.81935">
        <ele>202</ele>
        <time>2022-06-06T11:06:58.000Z</time>
      </trkpt>
      <trkpt lat="49.75261" lon="4.81941">
        <ele>202</ele>
        <time>2022-06-06T11:06:59.000Z</time>
      </trkpt>
      <trkpt lat="49.75266" lon="4.81947">
        <ele>201</ele>
        <time>2022-06-06T11:07:00.000Z</time>
      </trkpt>
      <trkpt lat="49.75271" lon="4.81952">
        <ele>201</ele>
        <time>2022-06-06T11:07:01.000Z</time>
      </trkpt>
      <trkpt lat="49.75276" lon="4.81957">
        <ele>200</ele>
        <time>2022-06-06T11:07:02.000Z</time>
      </trkpt>
      <trkpt lat="49.75282" lon="4.81962">
        <ele>200</ele>
        <time>2022-06-06T11:07:03.000Z</time>
      </trkpt>
      <trkpt lat="49.75288" lon="4.81966">
        <ele>200</ele>
        <time>2022-06-06T11:07:04.000Z</time>
      </trkpt>
      <trkpt lat="49.75294" lon="4.81971">
        <ele>199</ele>
        <time>2022-06-06T11:07:05.000Z</time>
      </trkpt>
      <trkpt lat="49.75299" lon="4.81975">
        <ele>199</ele>
        <time>2022-06-06T11:07:06.000Z</time>
      </trkpt>
      <trkpt lat="49.75305" lon="4.8198">
        <ele>198</ele>
        <time>2022-06-06T11:07:07.000Z</time>
      </trkpt>
      <trkpt lat="49.75311" lon="4.81983">
        <ele>198</ele>
        <time>2022-06-06T11:07:08.000Z</time>
      </trkpt>
      <trkpt lat="49.75317" lon="4.81988">
        <ele>198</ele>
        <time>2022-06-06T11:07:09.000Z</time>
      </trkpt>
      <trkpt lat="49.75322" lon="4.81991">
        <ele>197</ele>
        <time>2022-06-06T11:07:10.000Z</time>
      </trkpt>
      <trkpt lat="49.75328" lon="4.81995">
        <ele>197</ele>
        <time>2022-06-06T11:07:11.000Z</time>
      </trkpt>
      <trkpt lat="49.75334" lon="4.81999">
        <ele>197</ele>
        <time>2022-06-06T11:07:12.000Z</time>
      </trkpt>
      <trkpt lat="49.7534" lon="4.82003">
        <ele>197</ele>
        <time>2022-06-06T11:07:13.000Z</time>
      </trkpt>
      <trkpt lat="49.75346" lon="4.82006">
        <ele>196</ele>
        <time>2022-06-06T11:07:14.000Z</time>
      </trkpt>
      <trkpt lat="49.75352" lon="4.82009">
        <ele>196</ele>
        <time>2022-06-06T11:07:15.000Z</time>
      </trkpt>
      <trkpt lat="49.75358" lon="4.82013">
        <ele>196</ele>
        <time>2022-06-06T11:07:16.000Z</time>
      </trkpt>
      <trkpt lat="49.75364" lon="4.82016">
        <ele>196</ele>
        <time>2022-06-06T11:07:17.000Z</time>
      </trkpt>
      <trkpt lat="49.75369" lon="4.8202">
        <ele>196</ele>
        <time>2022-06-06T11:07:18.000Z</time>
      </trkpt>
      <trkpt lat="49.75375" lon="4.82024">
        <ele>195</ele>
        <time>2022-06-06T11:07:19.000Z</time>
      </trkpt>
      <trkpt lat="49.75381" lon="4.82028">
        <ele>195</ele>
        <time>2022-06-06T11:07:20.000Z</time>
      </trkpt>
      <trkpt lat="49.75386" lon="4.82032">
        <ele>195</ele>
        <time>2022-06-06T11:07:21.000Z</time>
      </trkpt>
      <trkpt lat="49.75392" lon="4.82036">
        <ele>195</ele>
        <time>2022-06-06T11:07:22.000Z</time>
      </trkpt>
      <trkpt lat="49.75397" lon="4.8204">
        <ele>195</ele>
        <time>2022-06-06T11:07:23.000Z</time>
      </trkpt>
      <trkpt lat="49.75402" lon="4.82044">
        <ele>195</ele>
        <time>2022-06-06T11:07:24.000Z</time>
      </trkpt>
      <trkpt lat="49.75407" lon="4.82049">
        <ele>195</ele>
        <time>2022-06-06T11:07:25.000Z</time>
      </trkpt>
      <trkpt lat="49.75412" lon="4.82054">
        <ele>195</ele>
        <time>2022-06-06T11:07:26.000Z</time>
      </trkpt>
      <trkpt lat="49.75417" lon="4.82059">
        <ele>195</ele>
        <time>2022-06-06T11:07:27.000Z</time>
      </trkpt>
      <trkpt lat="49.75422" lon="4.82064">
        <ele>195</ele>
        <time>2022-06-06T11:07:28.000Z</time>
      </trkpt>
      <trkpt lat="49.75427" lon="4.82069">
        <ele>195</ele>
        <time>2022-06-06T11:07:29.000Z</time>
      </trkpt>
      <trkpt lat="49.75432" lon="4.82074">
        <ele>195</ele>
        <time>2022-06-06T11:07:30.000Z</time>
      </trkpt>
      <trkpt lat="49.75437" lon="4.82079">
        <ele>195</ele>
        <time>2022-06-06T11:07:31.000Z</time>
      </trkpt>
      <trkpt lat="49.75442" lon="4.82083">
        <ele>195</ele>
        <time>2022-06-06T11:07:32.000Z</time>
      </trkpt>
      <trkpt lat="49.75447" lon="4.82088">
        <ele>195</ele>
        <time>2022-06-06T11:07:33.000Z</time>
      </trkpt>
      <trkpt lat="49.75451" lon="4.82093">
        <ele>195</ele>
        <time>2022-06-06T11:07:34.000Z</time>
      </trkpt>
      <trkpt lat="49.75456" lon="4.82097">
        <ele>195</ele>
        <time>2022-06-06T11:07:35.000Z</time>
      </trkpt>
      <trkpt lat="49.7546" lon="4.82103">
        <ele>195</ele>
        <time>2022-06-06T11:07:36.000Z</time>
      </trkpt>
      <trkpt lat="49.75464" lon="4.82108">
        <ele>195</ele>
        <time>2022-06-06T11:07:37.000Z</time>
      </trkpt>
      <trkpt lat="49.75469" lon="4.82115">
        <ele>194</ele>
        <time>2022-06-06T11:07:38.000Z</time>
      </trkpt>
      <trkpt lat="49.75474" lon="4.82121">
        <ele>194</ele>
        <time>2022-06-06T11:07:39.000Z</time>
      </trkpt>
      <trkpt lat="49.75478" lon="4.82128">
        <ele>194</ele>
        <time>2022-06-06T11:07:40.000Z</time>
      </trkpt>
      <trkpt lat="49.75483" lon="4.82134">
        <ele>194</ele>
        <time>2022-06-06T11:07:41.000Z</time>
      </trkpt>
      <trkpt lat="49.75487" lon="4.82141">
        <ele>194</ele>
        <time>2022-06-06T11:07:42.000Z</time>
      </trkpt>
      <trkpt lat="49.75492" lon="4.82149">
        <ele>194</ele>
        <time>2022-06-06T11:07:43.000Z</time>
      </trkpt>
      <trkpt lat="49.75496" lon="4.82156">
        <ele>193</ele>
        <time>2022-06-06T11:07:44.000Z</time>
      </trkpt>
      <trkpt lat="49.75501" lon="4.82163">
        <ele>193</ele>
        <time>2022-06-06T11:07:45.000Z</time>
      </trkpt>
      <trkpt lat="49.75505" lon="4.82171">
        <ele>193</ele>
        <time>2022-06-06T11:07:46.000Z</time>
      </trkpt>
      <trkpt lat="49.75509" lon="4.82178">
        <ele>193</ele>
        <time>2022-06-06T11:07:47.000Z</time>
      </trkpt>
      <trkpt lat="49.75513" lon="4.82186">
        <ele>193</ele>
        <time>2022-06-06T11:07:48.000Z</time>
      </trkpt>
      <trkpt lat="49.75517" lon="4.82194">
        <ele>193</ele>
        <time>2022-06-06T11:07:49.000Z</time>
      </trkpt>
      <trkpt lat="49.7552" lon="4.82202">
        <ele>193</ele>
        <time>2022-06-06T11:07:50.000Z</time>
      </trkpt>
      <trkpt lat="49.75524" lon="4.8221">
        <ele>193</ele>
        <time>2022-06-06T11:07:51.000Z</time>
      </trkpt>
      <trkpt lat="49.75528" lon="4.82218">
        <ele>193</ele>
        <time>2022-06-06T11:07:52.000Z</time>
      </trkpt>
      <trkpt lat="49.75532" lon="4.82226">
        <ele>193</ele>
        <time>2022-06-06T11:07:53.000Z</time>
      </trkpt>
      <trkpt lat="49.75536" lon="4.82234">
        <ele>193</ele>
        <time>2022-06-06T11:07:54.000Z</time>
      </trkpt>
      <trkpt lat="49.7554" lon="4.82242">
        <ele>192</ele>
        <time>2022-06-06T11:07:55.000Z</time>
      </trkpt>
      <trkpt lat="49.75544" lon="4.82249">
        <ele>192</ele>
        <time>2022-06-06T11:07:56.000Z</time>
      </trkpt>
      <trkpt lat="49.75547" lon="4.82257">
        <ele>192</ele>
        <time>2022-06-06T11:07:57.000Z</time>
      </trkpt>
      <trkpt lat="49.75548" lon="4.82266">
        <ele>192</ele>
        <time>2022-06-06T11:07:58.000Z</time>
      </trkpt>
      <trkpt lat="49.75548" lon="4.82275">
        <ele>192</ele>
        <time>2022-06-06T11:07:59.000Z</time>
      </trkpt>
      <trkpt lat="49.75544" lon="4.82281">
        <ele>192</ele>
        <time>2022-06-06T11:08:00.000Z</time>
      </trkpt>
      <trkpt lat="49.75538" lon="4.82282">
        <ele>192</ele>
        <time>2022-06-06T11:08:01.000Z</time>
      </trkpt>
      <trkpt lat="49.75533" lon="4.8228">
        <ele>192</ele>
        <time>2022-06-06T11:08:02.000Z</time>
      </trkpt>
      <trkpt lat="49.75527" lon="4.82278">
        <ele>191</ele>
        <time>2022-06-06T11:08:03.000Z</time>
      </trkpt>
      <trkpt lat="49.75522" lon="4.82275">
        <ele>191</ele>
        <time>2022-06-06T11:08:04.000Z</time>
      </trkpt>
      <trkpt lat="49.75516" lon="4.82272">
        <ele>191</ele>
        <time>2022-06-06T11:08:05.000Z</time>
      </trkpt>
      <trkpt lat="49.75511" lon="4.82269">
        <ele>191</ele>
        <time>2022-06-06T11:08:06.000Z</time>
      </trkpt>
      <trkpt lat="49.75505" lon="4.82266">
        <ele>191</ele>
        <time>2022-06-06T11:08:07.000Z</time>
      </trkpt>
      <trkpt lat="49.755" lon="4.82263">
        <ele>191</ele>
        <time>2022-06-06T11:08:08.000Z</time>
      </trkpt>
      <trkpt lat="49.75495" lon="4.82259">
        <ele>191</ele>
        <time>2022-06-06T11:08:09.000Z</time>
      </trkpt>
      <trkpt lat="49.75489" lon="4.82256">
        <ele>191</ele>
        <time>2022-06-06T11:08:10.000Z</time>
      </trkpt>
      <trkpt lat="49.75485" lon="4.82252">
        <ele>191</ele>
        <time>2022-06-06T11:08:11.000Z</time>
      </trkpt>
      <trkpt lat="49.7548" lon="4.82247">
        <ele>191</ele>
        <time>2022-06-06T11:08:12.000Z</time>
      </trkpt>
      <trkpt lat="49.75476" lon="4.82242">
        <ele>191</ele>
        <time>2022-06-06T11:08:13.000Z</time>
      </trkpt>
      <trkpt lat="49.75471" lon="4.82237">
        <ele>191</ele>
        <time>2022-06-06T11:08:14.000Z</time>
      </trkpt>
      <trkpt lat="49.75467" lon="4.82233">
        <ele>191</ele>
        <time>2022-06-06T11:08:15.000Z</time>
      </trkpt>
      <trkpt lat="49.75463" lon="4.82229">
        <ele>191</ele>
        <time>2022-06-06T11:08:16.000Z</time>
      </trkpt>
      <trkpt lat="49.75458" lon="4.82225">
        <ele>191</ele>
        <time>2022-06-06T11:08:17.000Z</time>
      </trkpt>
      <trkpt lat="49.75453" lon="4.82223">
        <ele>192</ele>
        <time>2022-06-06T11:08:18.000Z</time>
      </trkpt>
      <trkpt lat="49.75449" lon="4.8222">
        <ele>192</ele>
        <time>2022-06-06T11:08:19.000Z</time>
      </trkpt>
      <trkpt lat="49.75444" lon="4.82217">
        <ele>192</ele>
        <time>2022-06-06T11:08:20.000Z</time>
      </trkpt>
      <trkpt lat="49.75439" lon="4.82214">
        <ele>192</ele>
        <time>2022-06-06T11:08:21.000Z</time>
      </trkpt>
      <trkpt lat="49.75434" lon="4.82211">
        <ele>192</ele>
        <time>2022-06-06T11:08:22.000Z</time>
      </trkpt>
      <trkpt lat="49.75429" lon="4.82209">
        <ele>192</ele>
        <time>2022-06-06T11:08:23.000Z</time>
      </trkpt>
      <trkpt lat="49.75424" lon="4.82206">
        <ele>192</ele>
        <time>2022-06-06T11:08:24.000Z</time>
      </trkpt>
      <trkpt lat="49.75418" lon="4.82204">
        <ele>192</ele>
        <time>2022-06-06T11:08:25.000Z</time>
      </trkpt>
      <trkpt lat="49.75414" lon="4.82202">
        <ele>192</ele>
        <time>2022-06-06T11:08:26.000Z</time>
      </trkpt>
      <trkpt lat="49.75409" lon="4.822">
        <ele>192</ele>
        <time>2022-06-06T11:08:27.000Z</time>
      </trkpt>
      <trkpt lat="49.75404" lon="4.82197">
        <ele>193</ele>
        <time>2022-06-06T11:08:28.000Z</time>
      </trkpt>
      <trkpt lat="49.754" lon="4.82196">
        <ele>193</ele>
        <time>2022-06-06T11:08:29.000Z</time>
      </trkpt>
      <trkpt lat="49.75395" lon="4.82195">
        <ele>193</ele>
        <time>2022-06-06T11:08:30.000Z</time>
      </trkpt>
      <trkpt lat="49.75391" lon="4.82196">
        <ele>193</ele>
        <time>2022-06-06T11:08:31.000Z</time>
      </trkpt>
      <trkpt lat="49.75388" lon="4.82198">
        <ele>193</ele>
        <time>2022-06-06T11:08:32.000Z</time>
      </trkpt>
      <trkpt lat="49.75385" lon="4.82201">
        <ele>193</ele>
        <time>2022-06-06T11:08:33.000Z</time>
      </trkpt>
      <trkpt lat="49.75382" lon="4.82203">
        <ele>193</ele>
        <time>2022-06-06T11:08:34.000Z</time>
      </trkpt>
      <trkpt lat="49.7538" lon="4.82205">
        <ele>193</ele>
        <time>2022-06-06T11:08:35.000Z</time>
      </trkpt>
      <trkpt lat="49.75378" lon="4.82206">
        <ele>193</ele>
        <time>2022-06-06T11:08:36.000Z</time>
      </trkpt>
      <trkpt lat="49.75377" lon="4.82205">
        <ele>193</ele>
        <time>2022-06-06T11:08:37.000Z</time>
      </trkpt>
      <trkpt lat="49.75376" lon="4.82204">
        <ele>193</ele>
        <time>2022-06-06T11:08:38.000Z</time>
      </trkpt>
      <trkpt lat="49.75376" lon="4.82204">
        <ele>193</ele>
        <time>2022-06-06T11:08:39.000Z</time>
      </trkpt>
      <trkpt lat="49.75376" lon="4.82204">
        <ele>193</ele>
        <time>2022-06-06T11:08:40.000Z</time>
      </trkpt>
      <trkpt lat="49.75376" lon="4.82204">
        <ele>193</ele>
        <time>2022-06-06T11:08:41.000Z</time>
      </trkpt>
    </trkseg>
  </trk>
</gpx>